<?xml version='1.0' encoding='UTF-8'?><gpx version="1.1" creator="JPX - https://github.com/jenetics/jpx" xmlns="http://www.topografix.com/GPX/1/1"><trk><trkseg><trkpt lat="43.3788317" lon="13.2527917"><ele>246.99999999999997</ele><time>2026-04-12T07:42:01.427Z</time></trkpt><trkpt lat="43.3788217" lon="13.2526967"><ele>247.0</ele><time>2026-04-12T07:42:07.428Z</time></trkpt><trkpt lat="43.3787617" lon="13.25276"><ele>247.0</ele><time>2026-04-12T07:42:47.43Z</time></trkpt><trkpt lat="43.3786633" lon="13.2527767"><ele>247.0</ele><time>2026-04-12T07:42:50.432Z</time></trkpt><trkpt lat="43.3786433" lon="13.2528683"><ele>246.99999999999997</ele><time>2026-04-12T07:42:52.428Z</time></trkpt><trkpt lat="43.37865" lon="13.2530033"><ele>247.0</ele><time>2026-04-12T07:42:54.428Z</time></trkpt><trkpt lat="43.3786317" lon="13.2531583"><ele>246.99999999999997</ele><time>2026-04-12T07:42:56.429Z</time></trkpt><trkpt lat="43.3785867" lon="13.2533183"><ele>247.0</ele><time>2026-04-12T07:42:58.431Z</time></trkpt><trkpt lat="43.3785483" lon="13.2534017"><ele>247.0</ele><time>2026-04-12T07:42:59.426Z</time></trkpt><trkpt lat="43.378505" lon="13.25348"><ele>247.0</ele><time>2026-04-12T07:43:00.431Z</time></trkpt><trkpt lat="43.3784567" lon="13.2535567"><ele>246.99999999999997</ele><time>2026-04-12T07:43:01.426Z</time></trkpt><trkpt lat="43.3784083" lon="13.2536317"><ele>247.0</ele><time>2026-04-12T07:43:02.428Z</time></trkpt><trkpt lat="43.3783617" lon="13.2537033"><ele>246.99999999999997</ele><time>2026-04-12T07:43:03.43Z</time></trkpt><trkpt lat="43.378315" lon="13.2537717"><ele>247.0</ele><time>2026-04-12T07:43:04.428Z</time></trkpt><trkpt lat="43.3782717" lon="13.25384"><ele>247.0</ele><time>2026-04-12T07:43:05.431Z</time></trkpt><trkpt lat="43.37823" lon="13.2539117"><ele>247.0</ele><time>2026-04-12T07:43:06.428Z</time></trkpt><trkpt lat="43.3781717" lon="13.2540533"><ele>246.99999999999997</ele><time>2026-04-12T07:43:08.431Z</time></trkpt><trkpt lat="43.3781667" lon="13.2542067"><ele>247.0</ele><time>2026-04-12T07:43:10.427Z</time></trkpt><trkpt lat="43.3782283" lon="13.25433"><ele>246.49999999999997</ele><time>2026-04-12T07:43:12.43Z</time></trkpt><trkpt lat="43.3783067" lon="13.2544283"><ele>246.0</ele><time>2026-04-12T07:43:14.43Z</time></trkpt><trkpt lat="43.3783617" lon="13.254505"><ele>245.5</ele><time>2026-04-12T07:43:16.432Z</time></trkpt><trkpt lat="43.3783983" lon="13.254585"><ele>245.0</ele><time>2026-04-12T07:43:19.429Z</time></trkpt><trkpt lat="43.3783867" lon="13.2546817"><ele>244.49999999999997</ele><time>2026-04-12T07:43:21.429Z</time></trkpt><trkpt lat="43.3783083" lon="13.25481"><ele>244.0</ele><time>2026-04-12T07:43:23.429Z</time></trkpt><trkpt lat="43.3782583" lon="13.2548867"><ele>243.66666666666666</ele><time>2026-04-12T07:43:24.428Z</time></trkpt><trkpt lat="43.3782067" lon="13.25497"><ele>243.33333333333331</ele><time>2026-04-12T07:43:25.43Z</time></trkpt><trkpt lat="43.3781533" lon="13.255055"><ele>243.0</ele><time>2026-04-12T07:43:26.432Z</time></trkpt><trkpt lat="43.3780933" lon="13.2551433"><ele>242.66666666666669</ele><time>2026-04-12T07:43:27.432Z</time></trkpt><trkpt lat="43.37803" lon="13.25524"><ele>242.33333333333334</ele><time>2026-04-12T07:43:28.428Z</time></trkpt><trkpt lat="43.3779633" lon="13.255345"><ele>242.0</ele><time>2026-04-12T07:43:29.431Z</time></trkpt><trkpt lat="43.3779" lon="13.2554517"><ele>243.0</ele><time>2026-04-12T07:43:30.432Z</time></trkpt><trkpt lat="43.3778367" lon="13.2555583"><ele>244.0</ele><time>2026-04-12T07:43:31.427Z</time></trkpt><trkpt lat="43.37777" lon="13.2556683"><ele>245.0</ele><time>2026-04-12T07:43:32.428Z</time></trkpt><trkpt lat="43.3776983" lon="13.25579"><ele>246.0</ele><time>2026-04-12T07:43:33.43Z</time></trkpt><trkpt lat="43.3776233" lon="13.25592"><ele>247.0</ele><time>2026-04-12T07:43:34.428Z</time></trkpt><trkpt lat="43.3775433" lon="13.25606"><ele>247.0</ele><time>2026-04-12T07:43:35.43Z</time></trkpt><trkpt lat="43.3774667" lon="13.2562033"><ele>247.0</ele><time>2026-04-12T07:43:36.428Z</time></trkpt><trkpt lat="43.37739" lon="13.2563533"><ele>247.0</ele><time>2026-04-12T07:43:37.439Z</time></trkpt><trkpt lat="43.377315" lon="13.2565067"><ele>247.0</ele><time>2026-04-12T07:43:38.43Z</time></trkpt><trkpt lat="43.3772467" lon="13.2566617"><ele>248.5</ele><time>2026-04-12T07:43:39.43Z</time></trkpt><trkpt lat="43.377185" lon="13.2568183"><ele>250.0</ele><time>2026-04-12T07:43:40.428Z</time></trkpt><trkpt lat="43.3771233" lon="13.2569783"><ele>251.5</ele><time>2026-04-12T07:43:41.428Z</time></trkpt><trkpt lat="43.3770683" lon="13.25714"><ele>253.0</ele><time>2026-04-12T07:43:42.429Z</time></trkpt><trkpt lat="43.37702" lon="13.2573017"><ele>253.0</ele><time>2026-04-12T07:43:43.428Z</time></trkpt><trkpt lat="43.376975" lon="13.2574567"><ele>253.0</ele><time>2026-04-12T07:43:44.432Z</time></trkpt><trkpt lat="43.376935" lon="13.257605"><ele>253.0</ele><time>2026-04-12T07:43:45.431Z</time></trkpt><trkpt lat="43.3769" lon="13.257745"><ele>253.0</ele><time>2026-04-12T07:43:46.427Z</time></trkpt><trkpt lat="43.3768733" lon="13.2578783"><ele>253.0</ele><time>2026-04-12T07:43:47.429Z</time></trkpt><trkpt lat="43.37685" lon="13.2580033"><ele>252.83333333333331</ele><time>2026-04-12T07:43:48.43Z</time></trkpt><trkpt lat="43.3768217" lon="13.25812"><ele>252.66666666666666</ele><time>2026-04-12T07:43:49.429Z</time></trkpt><trkpt lat="43.3767867" lon="13.25823"><ele>252.5</ele><time>2026-04-12T07:43:50.428Z</time></trkpt><trkpt lat="43.376735" lon="13.25832"><ele>252.33333333333331</ele><time>2026-04-12T07:43:51.432Z</time></trkpt><trkpt lat="43.376685" lon="13.2583867"><ele>252.16666666666666</ele><time>2026-04-12T07:43:52.427Z</time></trkpt><trkpt lat="43.3766083" lon="13.258415"><ele>252.0</ele><time>2026-04-12T07:43:53.426Z</time></trkpt><trkpt lat="43.3765233" lon="13.2584333"><ele>252.0</ele><time>2026-04-12T07:43:54.429Z</time></trkpt><trkpt lat="43.3764317" lon="13.2584383"><ele>252.0</ele><time>2026-04-12T07:43:55.429Z</time></trkpt><trkpt lat="43.3763367" lon="13.258435"><ele>252.0</ele><time>2026-04-12T07:43:56.428Z</time></trkpt><trkpt lat="43.37625" lon="13.2584"><ele>252.0</ele><time>2026-04-12T07:43:57.425Z</time></trkpt><trkpt lat="43.37617" lon="13.2583483"><ele>252.0</ele><time>2026-04-12T07:43:58.431Z</time></trkpt><trkpt lat="43.376095" lon="13.258265"><ele>251.8</ele><time>2026-04-12T07:43:59.429Z</time></trkpt><trkpt lat="43.3760217" lon="13.25817"><ele>251.6</ele><time>2026-04-12T07:44:00.43Z</time></trkpt><trkpt lat="43.3759433" lon="13.2580833"><ele>251.40000000000003</ele><time>2026-04-12T07:44:01.428Z</time></trkpt><trkpt lat="43.3758567" lon="13.2580133"><ele>251.20000000000002</ele><time>2026-04-12T07:44:02.426Z</time></trkpt><trkpt lat="43.37576" lon="13.257965"><ele>251.0</ele><time>2026-04-12T07:44:03.427Z</time></trkpt><trkpt lat="43.3756567" lon="13.257945"><ele>251.5</ele><time>2026-04-12T07:44:04.428Z</time></trkpt><trkpt lat="43.3755483" lon="13.25796"><ele>252.0</ele><time>2026-04-12T07:44:05.428Z</time></trkpt><trkpt lat="43.3754417" lon="13.258005"><ele>252.5</ele><time>2026-04-12T07:44:06.431Z</time></trkpt><trkpt lat="43.3753383" lon="13.2580767"><ele>253.0</ele><time>2026-04-12T07:44:07.428Z</time></trkpt><trkpt lat="43.3752417" lon="13.2581667"><ele>251.4</ele><time>2026-04-12T07:44:08.43Z</time></trkpt><trkpt lat="43.3751483" lon="13.2582617"><ele>249.8</ele><time>2026-04-12T07:44:09.425Z</time></trkpt><trkpt lat="43.3750583" lon="13.2583567"><ele>248.2</ele><time>2026-04-12T07:44:10.427Z</time></trkpt><trkpt lat="43.37497" lon="13.2584467"><ele>246.6</ele><time>2026-04-12T07:44:11.43Z</time></trkpt><trkpt lat="43.3748767" lon="13.258525"><ele>245.0</ele><time>2026-04-12T07:44:12.433Z</time></trkpt><trkpt lat="43.3747717" lon="13.25857"><ele>243.0</ele><time>2026-04-12T07:44:13.428Z</time></trkpt><trkpt lat="43.37466" lon="13.258575"><ele>241.0</ele><time>2026-04-12T07:44:14.428Z</time></trkpt><trkpt lat="43.3745367" lon="13.2585467"><ele>239.0</ele><time>2026-04-12T07:44:15.428Z</time></trkpt><trkpt lat="43.3744117" lon="13.2584967"><ele>237.0</ele><time>2026-04-12T07:44:16.427Z</time></trkpt><trkpt lat="43.3742883" lon="13.2584433"><ele>237.0</ele><time>2026-04-12T07:44:17.427Z</time></trkpt><trkpt lat="43.37417" lon="13.25839"><ele>237.0</ele><time>2026-04-12T07:44:18.429Z</time></trkpt><trkpt lat="43.3740517" lon="13.2583417"><ele>237.0</ele><time>2026-04-12T07:44:19.429Z</time></trkpt><trkpt lat="43.37393" lon="13.2582933"><ele>237.0</ele><time>2026-04-12T07:44:20.428Z</time></trkpt><trkpt lat="43.3738083" lon="13.2582367"><ele>235.5</ele><time>2026-04-12T07:44:21.429Z</time></trkpt><trkpt lat="43.3736933" lon="13.2581583"><ele>234.0</ele><time>2026-04-12T07:44:22.427Z</time></trkpt><trkpt lat="43.373595" lon="13.258045"><ele>232.5</ele><time>2026-04-12T07:44:23.429Z</time></trkpt><trkpt lat="43.3735117" lon="13.2579"><ele>231.0</ele><time>2026-04-12T07:44:24.426Z</time></trkpt><trkpt lat="43.3734367" lon="13.257745"><ele>231.0</ele><time>2026-04-12T07:44:25.429Z</time></trkpt><trkpt lat="43.3733633" lon="13.257585"><ele>231.0</ele><time>2026-04-12T07:44:26.428Z</time></trkpt><trkpt lat="43.3732833" lon="13.2574383"><ele>231.0</ele><time>2026-04-12T07:44:27.426Z</time></trkpt><trkpt lat="43.3732083" lon="13.2572933"><ele>231.0</ele><time>2026-04-12T07:44:28.431Z</time></trkpt><trkpt lat="43.3731383" lon="13.2571533"><ele>231.20000000000002</ele><time>2026-04-12T07:44:29.429Z</time></trkpt><trkpt lat="43.3730717" lon="13.2570183"><ele>231.40000000000003</ele><time>2026-04-12T07:44:30.426Z</time></trkpt><trkpt lat="43.3730017" lon="13.2568867"><ele>231.6</ele><time>2026-04-12T07:44:31.428Z</time></trkpt><trkpt lat="43.3729233" lon="13.2567867"><ele>231.8</ele><time>2026-04-12T07:44:32.435Z</time></trkpt><trkpt lat="43.372835" lon="13.2567183"><ele>232.0</ele><time>2026-04-12T07:44:33.426Z</time></trkpt><trkpt lat="43.3727383" lon="13.2566967"><ele>232.0</ele><time>2026-04-12T07:44:34.427Z</time></trkpt><trkpt lat="43.372635" lon="13.2567283"><ele>232.0</ele><time>2026-04-12T07:44:35.428Z</time></trkpt><trkpt lat="43.3725483" lon="13.2568267"><ele>232.0</ele><time>2026-04-12T07:44:36.431Z</time></trkpt><trkpt lat="43.3724767" lon="13.2569517"><ele>232.0</ele><time>2026-04-12T07:44:37.429Z</time></trkpt><trkpt lat="43.372415" lon="13.2570917"><ele>232.0</ele><time>2026-04-12T07:44:38.429Z</time></trkpt><trkpt lat="43.3723483" lon="13.2572333"><ele>232.0</ele><time>2026-04-12T07:44:39.43Z</time></trkpt><trkpt lat="43.372275" lon="13.257365"><ele>232.0</ele><time>2026-04-12T07:44:40.429Z</time></trkpt><trkpt lat="43.3721883" lon="13.2574833"><ele>232.0</ele><time>2026-04-12T07:44:41.434Z</time></trkpt><trkpt lat="43.3721" lon="13.257595"><ele>232.25</ele><time>2026-04-12T07:44:42.44Z</time></trkpt><trkpt lat="43.372005" lon="13.2577017"><ele>232.5</ele><time>2026-04-12T07:44:43.43Z</time></trkpt><trkpt lat="43.371905" lon="13.2578017"><ele>232.75</ele><time>2026-04-12T07:44:44.428Z</time></trkpt><trkpt lat="43.371805" lon="13.2579"><ele>233.0</ele><time>2026-04-12T07:44:45.427Z</time></trkpt><trkpt lat="43.3717033" lon="13.2579983"><ele>233.0</ele><time>2026-04-12T07:44:46.425Z</time></trkpt><trkpt lat="43.3716" lon="13.2581017"><ele>233.0</ele><time>2026-04-12T07:44:47.432Z</time></trkpt><trkpt lat="43.3715" lon="13.25821"><ele>233.0</ele><time>2026-04-12T07:44:48.431Z</time></trkpt><trkpt lat="43.3714033" lon="13.25832"><ele>233.0</ele><time>2026-04-12T07:44:49.429Z</time></trkpt><trkpt lat="43.3713117" lon="13.2584333"><ele>231.75</ele><time>2026-04-12T07:44:50.429Z</time></trkpt><trkpt lat="43.371225" lon="13.2585517"><ele>230.5</ele><time>2026-04-12T07:44:51.432Z</time></trkpt><trkpt lat="43.3711383" lon="13.25868"><ele>229.25</ele><time>2026-04-12T07:44:52.427Z</time></trkpt><trkpt lat="43.371055" lon="13.2588117"><ele>228.0</ele><time>2026-04-12T07:44:53.429Z</time></trkpt><trkpt lat="43.37098" lon="13.2589533"><ele>227.0</ele><time>2026-04-12T07:44:54.429Z</time></trkpt><trkpt lat="43.3709133" lon="13.2590983"><ele>226.0</ele><time>2026-04-12T07:44:55.431Z</time></trkpt><trkpt lat="43.370855" lon="13.2592533"><ele>225.0</ele><time>2026-04-12T07:44:56.439Z</time></trkpt><trkpt lat="43.3708033" lon="13.2594167"><ele>224.0</ele><time>2026-04-12T07:44:57.427Z</time></trkpt><trkpt lat="43.3707533" lon="13.2595883"><ele>224.0</ele><time>2026-04-12T07:44:58.432Z</time></trkpt><trkpt lat="43.3707" lon="13.2597583"><ele>224.0</ele><time>2026-04-12T07:44:59.429Z</time></trkpt><trkpt lat="43.3706533" lon="13.259935"><ele>224.0</ele><time>2026-04-12T07:45:00.431Z</time></trkpt><trkpt lat="43.3706067" lon="13.260115"><ele>224.0</ele><time>2026-04-12T07:45:01.431Z</time></trkpt><trkpt lat="43.3705617" lon="13.2602983"><ele>223.25</ele><time>2026-04-12T07:45:02.428Z</time></trkpt><trkpt lat="43.3705167" lon="13.2604833"><ele>222.5</ele><time>2026-04-12T07:45:03.428Z</time></trkpt><trkpt lat="43.3704733" lon="13.260675"><ele>221.75</ele><time>2026-04-12T07:45:04.429Z</time></trkpt><trkpt lat="43.37043" lon="13.2608717"><ele>221.0</ele><time>2026-04-12T07:45:05.431Z</time></trkpt><trkpt lat="43.3703967" lon="13.2610683"><ele>220.33333333333334</ele><time>2026-04-12T07:45:06.429Z</time></trkpt><trkpt lat="43.3703767" lon="13.2612717"><ele>219.66666666666669</ele><time>2026-04-12T07:45:07.431Z</time></trkpt><trkpt lat="43.370385" lon="13.2614783"><ele>219.0</ele><time>2026-04-12T07:45:08.429Z</time></trkpt><trkpt lat="43.37043" lon="13.2616817"><ele>216.66666666666669</ele><time>2026-04-12T07:45:09.426Z</time></trkpt><trkpt lat="43.3704817" lon="13.2618817"><ele>214.33333333333334</ele><time>2026-04-12T07:45:10.428Z</time></trkpt><trkpt lat="43.3705433" lon="13.262075"><ele>212.0</ele><time>2026-04-12T07:45:11.428Z</time></trkpt><trkpt lat="43.3706117" lon="13.2622583"><ele>211.0</ele><time>2026-04-12T07:45:12.429Z</time></trkpt><trkpt lat="43.3707033" lon="13.2624267"><ele>210.0</ele><time>2026-04-12T07:45:13.429Z</time></trkpt><trkpt lat="43.37081" lon="13.2625683"><ele>209.0</ele><time>2026-04-12T07:45:14.431Z</time></trkpt><trkpt lat="43.3709283" lon="13.2626867"><ele>208.0</ele><time>2026-04-12T07:45:15.43Z</time></trkpt><trkpt lat="43.3710533" lon="13.26279"><ele>208.0</ele><time>2026-04-12T07:45:16.428Z</time></trkpt><trkpt lat="43.371175" lon="13.26289"><ele>208.0</ele><time>2026-04-12T07:45:17.428Z</time></trkpt><trkpt lat="43.3712917" lon="13.262985"><ele>208.0</ele><time>2026-04-12T07:45:18.432Z</time></trkpt><trkpt lat="43.3714117" lon="13.2630783"><ele>208.0</ele><time>2026-04-12T07:45:19.427Z</time></trkpt><trkpt lat="43.3715283" lon="13.26318"><ele>209.25</ele><time>2026-04-12T07:45:20.427Z</time></trkpt><trkpt lat="43.3716433" lon="13.2632783"><ele>210.5</ele><time>2026-04-12T07:45:21.43Z</time></trkpt><trkpt lat="43.3717533" lon="13.2633767"><ele>211.75</ele><time>2026-04-12T07:45:22.426Z</time></trkpt><trkpt lat="43.371865" lon="13.2634717"><ele>213.0</ele><time>2026-04-12T07:45:23.427Z</time></trkpt><trkpt lat="43.37197" lon="13.2635683"><ele>213.0</ele><time>2026-04-12T07:45:24.429Z</time></trkpt><trkpt lat="43.3720717" lon="13.2636667"><ele>213.0</ele><time>2026-04-12T07:45:25.429Z</time></trkpt><trkpt lat="43.3721667" lon="13.26376"><ele>213.0</ele><time>2026-04-12T07:45:26.428Z</time></trkpt><trkpt lat="43.3722517" lon="13.2638667"><ele>213.0</ele><time>2026-04-12T07:45:27.428Z</time></trkpt><trkpt lat="43.3723067" lon="13.264"><ele>213.2</ele><time>2026-04-12T07:45:28.425Z</time></trkpt><trkpt lat="43.3723233" lon="13.2641517"><ele>213.4</ele><time>2026-04-12T07:45:29.43Z</time></trkpt><trkpt lat="43.3722917" lon="13.2642817"><ele>213.59999999999997</ele><time>2026-04-12T07:45:30.424Z</time></trkpt><trkpt lat="43.372225" lon="13.264405"><ele>213.79999999999998</ele><time>2026-04-12T07:45:31.426Z</time></trkpt><trkpt lat="43.372135" lon="13.2645117"><ele>214.0</ele><time>2026-04-12T07:45:32.426Z</time></trkpt><trkpt lat="43.37203" lon="13.2646033"><ele>215.75</ele><time>2026-04-12T07:45:33.426Z</time></trkpt><trkpt lat="43.3719233" lon="13.2646833"><ele>217.5</ele><time>2026-04-12T07:45:34.426Z</time></trkpt><trkpt lat="43.3718117" lon="13.264755"><ele>219.25</ele><time>2026-04-12T07:45:35.427Z</time></trkpt><trkpt lat="43.3716967" lon="13.26483"><ele>221.0</ele><time>2026-04-12T07:45:36.426Z</time></trkpt><trkpt lat="43.371575" lon="13.2649083"><ele>221.0</ele><time>2026-04-12T07:45:37.429Z</time></trkpt><trkpt lat="43.37145" lon="13.2649917"><ele>221.0</ele><time>2026-04-12T07:45:38.428Z</time></trkpt><trkpt lat="43.3713233" lon="13.2650717"><ele>221.0</ele><time>2026-04-12T07:45:39.427Z</time></trkpt><trkpt lat="43.3711967" lon="13.265155"><ele>221.0</ele><time>2026-04-12T07:45:40.428Z</time></trkpt><trkpt lat="43.3710683" lon="13.2652433"><ele>221.75</ele><time>2026-04-12T07:45:41.429Z</time></trkpt><trkpt lat="43.3709383" lon="13.2653333"><ele>222.5</ele><time>2026-04-12T07:45:42.422Z</time></trkpt><trkpt lat="43.3708067" lon="13.2654217"><ele>223.25</ele><time>2026-04-12T07:45:43.421Z</time></trkpt><trkpt lat="43.3706717" lon="13.2655183"><ele>224.0</ele><time>2026-04-12T07:45:44.428Z</time></trkpt><trkpt lat="43.3705367" lon="13.2656167"><ele>226.0</ele><time>2026-04-12T07:45:45.428Z</time></trkpt><trkpt lat="43.3704017" lon="13.26571"><ele>228.0</ele><time>2026-04-12T07:45:46.429Z</time></trkpt><trkpt lat="43.370265" lon="13.2658"><ele>230.0</ele><time>2026-04-12T07:45:47.428Z</time></trkpt><trkpt lat="43.370125" lon="13.2658667"><ele>230.0</ele><time>2026-04-12T07:45:48.428Z</time></trkpt><trkpt lat="43.3699783" lon="13.2659083"><ele>230.0</ele><time>2026-04-12T07:45:49.428Z</time></trkpt><trkpt lat="43.369825" lon="13.26593"><ele>230.0</ele><time>2026-04-12T07:45:50.43Z</time></trkpt><trkpt lat="43.36967" lon="13.2659283"><ele>231.33333333333334</ele><time>2026-04-12T07:45:51.428Z</time></trkpt><trkpt lat="43.3695117" lon="13.2659183"><ele>232.66666666666669</ele><time>2026-04-12T07:45:52.428Z</time></trkpt><trkpt lat="43.3693517" lon="13.265905"><ele>234.0</ele><time>2026-04-12T07:45:53.425Z</time></trkpt><trkpt lat="43.3691933" lon="13.2658917"><ele>234.0</ele><time>2026-04-12T07:45:54.427Z</time></trkpt><trkpt lat="43.3690317" lon="13.2658883"><ele>234.0</ele><time>2026-04-12T07:45:55.429Z</time></trkpt><trkpt lat="43.3688717" lon="13.265885"><ele>234.0</ele><time>2026-04-12T07:45:56.43Z</time></trkpt><trkpt lat="43.36871" lon="13.26588"><ele>234.33333333333331</ele><time>2026-04-12T07:45:57.427Z</time></trkpt><trkpt lat="43.3685483" lon="13.2658717"><ele>234.66666666666666</ele><time>2026-04-12T07:45:58.426Z</time></trkpt><trkpt lat="43.368385" lon="13.2658583"><ele>235.0</ele><time>2026-04-12T07:45:59.428Z</time></trkpt><trkpt lat="43.3682217" lon="13.2658433"><ele>235.0</ele><time>2026-04-12T07:46:00.429Z</time></trkpt><trkpt lat="43.36806" lon="13.2658283"><ele>235.0</ele><time>2026-04-12T07:46:01.426Z</time></trkpt><trkpt lat="43.3678983" lon="13.2658167"><ele>235.0</ele><time>2026-04-12T07:46:02.432Z</time></trkpt><trkpt lat="43.3677383" lon="13.265805"><ele>236.33333333333331</ele><time>2026-04-12T07:46:03.43Z</time></trkpt><trkpt lat="43.3675783" lon="13.265805"><ele>237.66666666666669</ele><time>2026-04-12T07:46:04.43Z</time></trkpt><trkpt lat="43.367415" lon="13.2658017"><ele>239.0</ele><time>2026-04-12T07:46:05.425Z</time></trkpt><trkpt lat="43.36725" lon="13.2657983"><ele>240.33333333333334</ele><time>2026-04-12T07:46:06.428Z</time></trkpt><trkpt lat="43.3670833" lon="13.2658067"><ele>241.66666666666669</ele><time>2026-04-12T07:46:07.429Z</time></trkpt><trkpt lat="43.3669167" lon="13.2658383"><ele>243.0</ele><time>2026-04-12T07:46:08.433Z</time></trkpt><trkpt lat="43.3667483" lon="13.2658917"><ele>243.0</ele><time>2026-04-12T07:46:09.427Z</time></trkpt><trkpt lat="43.3665783" lon="13.26595"><ele>243.0</ele><time>2026-04-12T07:46:10.426Z</time></trkpt><trkpt lat="43.36641" lon="13.2660133"><ele>243.0</ele><time>2026-04-12T07:46:11.427Z</time></trkpt><trkpt lat="43.3662467" lon="13.2660783"><ele>242.66666666666669</ele><time>2026-04-12T07:46:12.431Z</time></trkpt><trkpt lat="43.3660883" lon="13.2661417"><ele>242.33333333333334</ele><time>2026-04-12T07:46:13.428Z</time></trkpt><trkpt lat="43.3659283" lon="13.2662067"><ele>242.0</ele><time>2026-04-12T07:46:14.429Z</time></trkpt><trkpt lat="43.36577" lon="13.2662767"><ele>242.0</ele><time>2026-04-12T07:46:15.434Z</time></trkpt><trkpt lat="43.3656133" lon="13.2663533"><ele>242.0</ele><time>2026-04-12T07:46:16.431Z</time></trkpt><trkpt lat="43.365465" lon="13.2664383"><ele>242.0</ele><time>2026-04-12T07:46:17.426Z</time></trkpt><trkpt lat="43.36532" lon="13.2665317"><ele>246.33333333333334</ele><time>2026-04-12T07:46:18.43Z</time></trkpt><trkpt lat="43.365175" lon="13.2666217"><ele>250.66666666666669</ele><time>2026-04-12T07:46:19.429Z</time></trkpt><trkpt lat="43.3650333" lon="13.26671"><ele>255.0</ele><time>2026-04-12T07:46:20.43Z</time></trkpt><trkpt lat="43.3648883" lon="13.266785"><ele>255.0</ele><time>2026-04-12T07:46:21.429Z</time></trkpt><trkpt lat="43.3647367" lon="13.2668467"><ele>255.0</ele><time>2026-04-12T07:46:22.426Z</time></trkpt><trkpt lat="43.3645817" lon="13.2668867"><ele>255.0</ele><time>2026-04-12T07:46:23.428Z</time></trkpt><trkpt lat="43.3644233" lon="13.266915"><ele>255.66666666666669</ele><time>2026-04-12T07:46:24.428Z</time></trkpt><trkpt lat="43.3642633" lon="13.2669317"><ele>256.33333333333337</ele><time>2026-04-12T07:46:25.432Z</time></trkpt><trkpt lat="43.3641067" lon="13.2669467"><ele>257.0</ele><time>2026-04-12T07:46:26.431Z</time></trkpt><trkpt lat="43.3639517" lon="13.26697"><ele>258.0</ele><time>2026-04-12T07:46:27.429Z</time></trkpt><trkpt lat="43.3637983" lon="13.2670067"><ele>259.0</ele><time>2026-04-12T07:46:28.429Z</time></trkpt><trkpt lat="43.36365" lon="13.267055"><ele>260.0</ele><time>2026-04-12T07:46:29.431Z</time></trkpt><trkpt lat="43.3635" lon="13.267125"><ele>260.0</ele><time>2026-04-12T07:46:30.428Z</time></trkpt><trkpt lat="43.3633517" lon="13.2672067"><ele>260.0</ele><time>2026-04-12T07:46:31.433Z</time></trkpt><trkpt lat="43.3632133" lon="13.2673"><ele>260.0</ele><time>2026-04-12T07:46:32.433Z</time></trkpt><trkpt lat="43.36308" lon="13.2674033"><ele>262.5</ele><time>2026-04-12T07:46:33.429Z</time></trkpt><trkpt lat="43.362955" lon="13.2675233"><ele>265.0</ele><time>2026-04-12T07:46:34.431Z</time></trkpt><trkpt lat="43.3628467" lon="13.2676483"><ele>267.5</ele><time>2026-04-12T07:46:35.428Z</time></trkpt><trkpt lat="43.3627483" lon="13.2677617"><ele>270.0</ele><time>2026-04-12T07:46:36.429Z</time></trkpt><trkpt lat="43.3626617" lon="13.26787"><ele>270.0</ele><time>2026-04-12T07:46:37.428Z</time></trkpt><trkpt lat="43.3625833" lon="13.2679783"><ele>270.0</ele><time>2026-04-12T07:46:38.43Z</time></trkpt><trkpt lat="43.3625083" lon="13.2680867"><ele>270.0</ele><time>2026-04-12T07:46:39.428Z</time></trkpt><trkpt lat="43.3624317" lon="13.2682"><ele>270.0</ele><time>2026-04-12T07:46:40.431Z</time></trkpt><trkpt lat="43.36235" lon="13.2683217"><ele>271.0</ele><time>2026-04-12T07:46:41.431Z</time></trkpt><trkpt lat="43.3622683" lon="13.26845"><ele>272.0</ele><time>2026-04-12T07:46:42.431Z</time></trkpt><trkpt lat="43.3621767" lon="13.268575"><ele>273.0</ele><time>2026-04-12T07:46:43.431Z</time></trkpt><trkpt lat="43.3620867" lon="13.2686967"><ele>274.0</ele><time>2026-04-12T07:46:44.432Z</time></trkpt><trkpt lat="43.3619883" lon="13.2688167"><ele>276.25</ele><time>2026-04-12T07:46:45.425Z</time></trkpt><trkpt lat="43.3618917" lon="13.2689417"><ele>278.5</ele><time>2026-04-12T07:46:46.429Z</time></trkpt><trkpt lat="43.3618017" lon="13.269065"><ele>280.75</ele><time>2026-04-12T07:46:47.431Z</time></trkpt><trkpt lat="43.3617117" lon="13.2692017"><ele>283.0</ele><time>2026-04-12T07:46:48.431Z</time></trkpt><trkpt lat="43.3616217" lon="13.269345"><ele>283.0</ele><time>2026-04-12T07:46:49.431Z</time></trkpt><trkpt lat="43.3615267" lon="13.26949"><ele>283.0</ele><time>2026-04-12T07:46:50.43Z</time></trkpt><trkpt lat="43.36143" lon="13.269635"><ele>283.0</ele><time>2026-04-12T07:46:51.431Z</time></trkpt><trkpt lat="43.3613317" lon="13.26978"><ele>283.0</ele><time>2026-04-12T07:46:52.43Z</time></trkpt><trkpt lat="43.361235" lon="13.2699233"><ele>284.75</ele><time>2026-04-12T07:46:53.431Z</time></trkpt><trkpt lat="43.36114" lon="13.2700633"><ele>286.5</ele><time>2026-04-12T07:46:54.429Z</time></trkpt><trkpt lat="43.3610467" lon="13.2702017"><ele>288.25</ele><time>2026-04-12T07:46:55.43Z</time></trkpt><trkpt lat="43.3609533" lon="13.2703433"><ele>290.0</ele><time>2026-04-12T07:46:56.429Z</time></trkpt><trkpt lat="43.3608567" lon="13.27048"><ele>289.25</ele><time>2026-04-12T07:46:57.43Z</time></trkpt><trkpt lat="43.3607567" lon="13.270615"><ele>288.5</ele><time>2026-04-12T07:46:58.43Z</time></trkpt><trkpt lat="43.3606583" lon="13.2707533"><ele>287.75</ele><time>2026-04-12T07:46:59.43Z</time></trkpt><trkpt lat="43.3605633" lon="13.270895"><ele>287.0</ele><time>2026-04-12T07:47:00.432Z</time></trkpt><trkpt lat="43.360465" lon="13.2710367"><ele>290.0</ele><time>2026-04-12T07:47:01.43Z</time></trkpt><trkpt lat="43.3603667" lon="13.2711783"><ele>293.0</ele><time>2026-04-12T07:47:02.43Z</time></trkpt><trkpt lat="43.3602633" lon="13.2713217"><ele>296.0</ele><time>2026-04-12T07:47:03.431Z</time></trkpt><trkpt lat="43.3601617" lon="13.2714683"><ele>299.0</ele><time>2026-04-12T07:47:04.426Z</time></trkpt><trkpt lat="43.36006" lon="13.2716167"><ele>299.0</ele><time>2026-04-12T07:47:05.429Z</time></trkpt><trkpt lat="43.359955" lon="13.2717567"><ele>299.0</ele><time>2026-04-12T07:47:06.43Z</time></trkpt><trkpt lat="43.3598483" lon="13.2718917"><ele>299.0</ele><time>2026-04-12T07:47:07.43Z</time></trkpt><trkpt lat="43.35973" lon="13.272"><ele>299.0</ele><time>2026-04-12T07:47:08.431Z</time></trkpt><trkpt lat="43.3596033" lon="13.27209"><ele>299.0</ele><time>2026-04-12T07:47:09.431Z</time></trkpt><trkpt lat="43.3594683" lon="13.2721567"><ele>299.0</ele><time>2026-04-12T07:47:10.43Z</time></trkpt><trkpt lat="43.3593283" lon="13.2721917"><ele>299.0</ele><time>2026-04-12T07:47:11.432Z</time></trkpt><trkpt lat="43.3591883" lon="13.2721967"><ele>299.0</ele><time>2026-04-12T07:47:12.428Z</time></trkpt><trkpt lat="43.35905" lon="13.2721817"><ele>299.0</ele><time>2026-04-12T07:47:13.428Z</time></trkpt><trkpt lat="43.3589133" lon="13.2721433"><ele>299.0</ele><time>2026-04-12T07:47:14.428Z</time></trkpt><trkpt lat="43.35878" lon="13.272085"><ele>299.0</ele><time>2026-04-12T07:47:15.432Z</time></trkpt><trkpt lat="43.358645" lon="13.2720117"><ele>299.0</ele><time>2026-04-12T07:47:16.43Z</time></trkpt><trkpt lat="43.3585133" lon="13.271915"><ele>299.0</ele><time>2026-04-12T07:47:17.432Z</time></trkpt><trkpt lat="43.3583817" lon="13.2718117"><ele>299.0</ele><time>2026-04-12T07:47:18.428Z</time></trkpt><trkpt lat="43.35825" lon="13.2717183"><ele>299.0</ele><time>2026-04-12T07:47:19.43Z</time></trkpt><trkpt lat="43.3581117" lon="13.271625"><ele>300.0</ele><time>2026-04-12T07:47:20.428Z</time></trkpt><trkpt lat="43.3579717" lon="13.2715283"><ele>301.0</ele><time>2026-04-12T07:47:21.429Z</time></trkpt><trkpt lat="43.3578283" lon="13.2714317"><ele>302.0</ele><time>2026-04-12T07:47:22.427Z</time></trkpt><trkpt lat="43.357685" lon="13.2713317"><ele>302.0</ele><time>2026-04-12T07:47:23.431Z</time></trkpt><trkpt lat="43.35754" lon="13.2712333"><ele>302.0</ele><time>2026-04-12T07:47:24.43Z</time></trkpt><trkpt lat="43.357395" lon="13.2711333"><ele>302.0</ele><time>2026-04-12T07:47:25.43Z</time></trkpt><trkpt lat="43.3572483" lon="13.27103"><ele>303.0</ele><time>2026-04-12T07:47:26.43Z</time></trkpt><trkpt lat="43.3571" lon="13.2709283"><ele>304.0</ele><time>2026-04-12T07:47:27.43Z</time></trkpt><trkpt lat="43.3569533" lon="13.2708283"><ele>305.0</ele><time>2026-04-12T07:47:28.433Z</time></trkpt><trkpt lat="43.3568083" lon="13.2707283"><ele>305.0</ele><time>2026-04-12T07:47:29.428Z</time></trkpt><trkpt lat="43.3566633" lon="13.2706233"><ele>305.0</ele><time>2026-04-12T07:47:30.428Z</time></trkpt><trkpt lat="43.3565183" lon="13.2705183"><ele>305.0</ele><time>2026-04-12T07:47:31.427Z</time></trkpt><trkpt lat="43.3563717" lon="13.2704133"><ele>306.0</ele><time>2026-04-12T07:47:32.429Z</time></trkpt><trkpt lat="43.35622" lon="13.27031"><ele>307.0</ele><time>2026-04-12T07:47:33.431Z</time></trkpt><trkpt lat="43.3560683" lon="13.2702083"><ele>308.0</ele><time>2026-04-12T07:47:34.441Z</time></trkpt><trkpt lat="43.3559183" lon="13.2701067"><ele>308.0</ele><time>2026-04-12T07:47:35.428Z</time></trkpt><trkpt lat="43.35577" lon="13.270005"><ele>308.0</ele><time>2026-04-12T07:47:36.432Z</time></trkpt><trkpt lat="43.3556217" lon="13.2699017"><ele>308.0</ele><time>2026-04-12T07:47:37.43Z</time></trkpt><trkpt lat="43.3554733" lon="13.2697967"><ele>309.33333333333337</ele><time>2026-04-12T07:47:38.432Z</time></trkpt><trkpt lat="43.3553217" lon="13.2696933"><ele>310.6666666666667</ele><time>2026-04-12T07:47:39.428Z</time></trkpt><trkpt lat="43.3551683" lon="13.269585"><ele>312.0</ele><time>2026-04-12T07:47:40.429Z</time></trkpt><trkpt lat="43.355015" lon="13.2694783"><ele>312.0</ele><time>2026-04-12T07:47:41.435Z</time></trkpt><trkpt lat="43.354865" lon="13.2693717"><ele>312.0</ele><time>2026-04-12T07:47:42.43Z</time></trkpt><trkpt lat="43.3547133" lon="13.2692667"><ele>312.0</ele><time>2026-04-12T07:47:43.432Z</time></trkpt><trkpt lat="43.35456" lon="13.2691633"><ele>312.0</ele><time>2026-04-12T07:47:44.431Z</time></trkpt><trkpt lat="43.3544083" lon="13.26906"><ele>312.0</ele><time>2026-04-12T07:47:45.43Z</time></trkpt><trkpt lat="43.3542533" lon="13.2689533"><ele>312.0</ele><time>2026-04-12T07:47:46.429Z</time></trkpt><trkpt lat="43.3540983" lon="13.2688483"><ele>312.6666666666667</ele><time>2026-04-12T07:47:47.429Z</time></trkpt><trkpt lat="43.3539417" lon="13.268745"><ele>313.33333333333337</ele><time>2026-04-12T07:47:48.431Z</time></trkpt><trkpt lat="43.353785" lon="13.2686383"><ele>314.0</ele><time>2026-04-12T07:47:49.431Z</time></trkpt><trkpt lat="43.35363" lon="13.2685283"><ele>314.33333333333337</ele><time>2026-04-12T07:47:50.429Z</time></trkpt><trkpt lat="43.3534733" lon="13.2684167"><ele>314.6666666666667</ele><time>2026-04-12T07:47:51.427Z</time></trkpt><trkpt lat="43.3533167" lon="13.268305"><ele>315.0</ele><time>2026-04-12T07:47:52.431Z</time></trkpt><trkpt lat="43.3531583" lon="13.2681967"><ele>315.6666666666667</ele><time>2026-04-12T07:47:53.43Z</time></trkpt><trkpt lat="43.353" lon="13.268095"><ele>316.33333333333337</ele><time>2026-04-12T07:47:54.43Z</time></trkpt><trkpt lat="43.3528433" lon="13.2679917"><ele>317.0</ele><time>2026-04-12T07:47:55.43Z</time></trkpt><trkpt lat="43.352685" lon="13.2678817"><ele>317.0</ele><time>2026-04-12T07:47:56.431Z</time></trkpt><trkpt lat="43.3525283" lon="13.2677733"><ele>317.0</ele><time>2026-04-12T07:47:57.427Z</time></trkpt><trkpt lat="43.3523767" lon="13.267665"><ele>317.0</ele><time>2026-04-12T07:47:58.428Z</time></trkpt><trkpt lat="43.3522283" lon="13.26756"><ele>317.0</ele><time>2026-04-12T07:47:59.431Z</time></trkpt><trkpt lat="43.3520783" lon="13.2674567"><ele>317.0</ele><time>2026-04-12T07:48:00.43Z</time></trkpt><trkpt lat="43.3519283" lon="13.2673683"><ele>317.0</ele><time>2026-04-12T07:48:01.431Z</time></trkpt><trkpt lat="43.3517717" lon="13.267315"><ele>317.0</ele><time>2026-04-12T07:48:02.43Z</time></trkpt><trkpt lat="43.351615" lon="13.267305"><ele>317.0</ele><time>2026-04-12T07:48:03.428Z</time></trkpt><trkpt lat="43.3514583" lon="13.2673417"><ele>317.0</ele><time>2026-04-12T07:48:04.432Z</time></trkpt><trkpt lat="43.351305" lon="13.2674067"><ele>317.0</ele><time>2026-04-12T07:48:05.428Z</time></trkpt><trkpt lat="43.3511567" lon="13.2674733"><ele>317.0</ele><time>2026-04-12T07:48:06.428Z</time></trkpt><trkpt lat="43.351015" lon="13.2675333"><ele>317.0</ele><time>2026-04-12T07:48:07.428Z</time></trkpt><trkpt lat="43.3508767" lon="13.2675917"><ele>317.0</ele><time>2026-04-12T07:48:08.429Z</time></trkpt><trkpt lat="43.3507417" lon="13.2676533"><ele>317.0</ele><time>2026-04-12T07:48:09.426Z</time></trkpt><trkpt lat="43.350605" lon="13.267715"><ele>317.0</ele><time>2026-04-12T07:48:10.429Z</time></trkpt><trkpt lat="43.350465" lon="13.26778"><ele>317.0</ele><time>2026-04-12T07:48:11.427Z</time></trkpt><trkpt lat="43.3503267" lon="13.2678433"><ele>317.0</ele><time>2026-04-12T07:48:12.429Z</time></trkpt><trkpt lat="43.3501883" lon="13.267905"><ele>316.33333333333337</ele><time>2026-04-12T07:48:13.43Z</time></trkpt><trkpt lat="43.35004" lon="13.2679733"><ele>315.6666666666667</ele><time>2026-04-12T07:48:14.43Z</time></trkpt><trkpt lat="43.349885" lon="13.2680417"><ele>315.0</ele><time>2026-04-12T07:48:15.428Z</time></trkpt><trkpt lat="43.3497233" lon="13.2680967"><ele>313.3333333333333</ele><time>2026-04-12T07:48:16.426Z</time></trkpt><trkpt lat="43.3495617" lon="13.2681467"><ele>311.66666666666663</ele><time>2026-04-12T07:48:17.426Z</time></trkpt><trkpt lat="43.3494" lon="13.2681683"><ele>310.0</ele><time>2026-04-12T07:48:18.428Z</time></trkpt><trkpt lat="43.3492467" lon="13.2681833"><ele>310.0</ele><time>2026-04-12T07:48:19.423Z</time></trkpt><trkpt lat="43.3490983" lon="13.2681833"><ele>310.0</ele><time>2026-04-12T07:48:20.428Z</time></trkpt><trkpt lat="43.3489617" lon="13.2681817"><ele>310.0</ele><time>2026-04-12T07:48:21.425Z</time></trkpt><trkpt lat="43.3488317" lon="13.26819"><ele>310.0</ele><time>2026-04-12T07:48:22.425Z</time></trkpt><trkpt lat="43.3487033" lon="13.2682183"><ele>311.0</ele><time>2026-04-12T07:48:23.429Z</time></trkpt><trkpt lat="43.3485917" lon="13.2682767"><ele>312.0</ele><time>2026-04-12T07:48:24.432Z</time></trkpt><trkpt lat="43.3484933" lon="13.26837"><ele>313.0</ele><time>2026-04-12T07:48:25.429Z</time></trkpt><trkpt lat="43.348415" lon="13.2685"><ele>314.0</ele><time>2026-04-12T07:48:26.428Z</time></trkpt><trkpt lat="43.348355" lon="13.26865"><ele>314.0</ele><time>2026-04-12T07:48:27.429Z</time></trkpt><trkpt lat="43.348315" lon="13.2688183"><ele>314.0</ele><time>2026-04-12T07:48:28.429Z</time></trkpt><trkpt lat="43.3482767" lon="13.2689783"><ele>314.0</ele><time>2026-04-12T07:48:29.429Z</time></trkpt><trkpt lat="43.34824" lon="13.26914"><ele>314.0</ele><time>2026-04-12T07:48:30.43Z</time></trkpt><trkpt lat="43.3482017" lon="13.269305"><ele>313.75</ele><time>2026-04-12T07:48:31.429Z</time></trkpt><trkpt lat="43.3481567" lon="13.2694733"><ele>313.5</ele><time>2026-04-12T07:48:32.429Z</time></trkpt><trkpt lat="43.3481117" lon="13.2696517"><ele>313.25</ele><time>2026-04-12T07:48:33.431Z</time></trkpt><trkpt lat="43.3480633" lon="13.2698283"><ele>313.0</ele><time>2026-04-12T07:48:34.428Z</time></trkpt><trkpt lat="43.34801" lon="13.27"><ele>313.5</ele><time>2026-04-12T07:48:35.427Z</time></trkpt><trkpt lat="43.3479483" lon="13.27016"><ele>314.0</ele><time>2026-04-12T07:48:36.431Z</time></trkpt><trkpt lat="43.347875" lon="13.2703083"><ele>314.5</ele><time>2026-04-12T07:48:37.431Z</time></trkpt><trkpt lat="43.347795" lon="13.2704467"><ele>315.0</ele><time>2026-04-12T07:48:38.428Z</time></trkpt><trkpt lat="43.3477067" lon="13.2705717"><ele>314.0</ele><time>2026-04-12T07:48:39.432Z</time></trkpt><trkpt lat="43.3476183" lon="13.2706833"><ele>313.0</ele><time>2026-04-12T07:48:40.429Z</time></trkpt><trkpt lat="43.3475317" lon="13.270785"><ele>312.0</ele><time>2026-04-12T07:48:41.43Z</time></trkpt><trkpt lat="43.3474417" lon="13.2708883"><ele>311.0</ele><time>2026-04-12T07:48:42.431Z</time></trkpt><trkpt lat="43.3473467" lon="13.2710033"><ele>311.0</ele><time>2026-04-12T07:48:43.43Z</time></trkpt><trkpt lat="43.3472483" lon="13.2711217"><ele>311.0</ele><time>2026-04-12T07:48:44.428Z</time></trkpt><trkpt lat="43.3471467" lon="13.271245"><ele>311.0</ele><time>2026-04-12T07:48:45.43Z</time></trkpt><trkpt lat="43.34704" lon="13.2713683"><ele>311.0</ele><time>2026-04-12T07:48:46.431Z</time></trkpt><trkpt lat="43.3469317" lon="13.2714983"><ele>311.0</ele><time>2026-04-12T07:48:47.429Z</time></trkpt><trkpt lat="43.34682" lon="13.27163"><ele>311.0</ele><time>2026-04-12T07:48:48.432Z</time></trkpt><trkpt lat="43.3467083" lon="13.271765"><ele>311.0</ele><time>2026-04-12T07:48:49.427Z</time></trkpt><trkpt lat="43.3465967" lon="13.2718983"><ele>311.0</ele><time>2026-04-12T07:48:50.43Z</time></trkpt><trkpt lat="43.346485" lon="13.27203"><ele>311.25</ele><time>2026-04-12T07:48:51.427Z</time></trkpt><trkpt lat="43.346375" lon="13.27216"><ele>311.5</ele><time>2026-04-12T07:48:52.429Z</time></trkpt><trkpt lat="43.346265" lon="13.27229"><ele>311.75</ele><time>2026-04-12T07:48:53.425Z</time></trkpt><trkpt lat="43.346155" lon="13.2724233"><ele>312.0</ele><time>2026-04-12T07:48:54.426Z</time></trkpt><trkpt lat="43.346045" lon="13.2725533"><ele>312.0</ele><time>2026-04-12T07:48:55.429Z</time></trkpt><trkpt lat="43.3459317" lon="13.2726867"><ele>312.0</ele><time>2026-04-12T07:48:56.424Z</time></trkpt><trkpt lat="43.345815" lon="13.2728183"><ele>312.0</ele><time>2026-04-12T07:48:57.423Z</time></trkpt><trkpt lat="43.3456983" lon="13.272955"><ele>312.0</ele><time>2026-04-12T07:48:58.43Z</time></trkpt><trkpt lat="43.3455783" lon="13.2730967"><ele>312.0</ele><time>2026-04-12T07:48:59.43Z</time></trkpt><trkpt lat="43.34546" lon="13.2732317"><ele>312.0</ele><time>2026-04-12T07:49:00.43Z</time></trkpt><trkpt lat="43.3453483" lon="13.273365"><ele>312.0</ele><time>2026-04-12T07:49:01.428Z</time></trkpt><trkpt lat="43.345235" lon="13.2735"><ele>312.0</ele><time>2026-04-12T07:49:02.429Z</time></trkpt><trkpt lat="43.345125" lon="13.27363"><ele>312.0</ele><time>2026-04-12T07:49:03.428Z</time></trkpt><trkpt lat="43.34502" lon="13.2737517"><ele>312.0</ele><time>2026-04-12T07:49:04.426Z</time></trkpt><trkpt lat="43.3449183" lon="13.273865"><ele>312.0</ele><time>2026-04-12T07:49:05.429Z</time></trkpt><trkpt lat="43.3448233" lon="13.273975"><ele>312.0</ele><time>2026-04-12T07:49:06.429Z</time></trkpt><trkpt lat="43.3447317" lon="13.2740883"><ele>312.0</ele><time>2026-04-12T07:49:07.432Z</time></trkpt><trkpt lat="43.34464" lon="13.2742"><ele>312.0</ele><time>2026-04-12T07:49:08.432Z</time></trkpt><trkpt lat="43.344555" lon="13.2743083"><ele>312.0</ele><time>2026-04-12T07:49:09.429Z</time></trkpt><trkpt lat="43.344475" lon="13.2744083"><ele>312.0</ele><time>2026-04-12T07:49:10.429Z</time></trkpt><trkpt lat="43.3443983" lon="13.2745"><ele>312.0</ele><time>2026-04-12T07:49:11.428Z</time></trkpt><trkpt lat="43.3443283" lon="13.27458"><ele>312.0</ele><time>2026-04-12T07:49:12.429Z</time></trkpt><trkpt lat="43.344265" lon="13.2746567"><ele>312.0</ele><time>2026-04-12T07:49:13.424Z</time></trkpt><trkpt lat="43.34421" lon="13.2747217"><ele>311.6</ele><time>2026-04-12T07:49:14.429Z</time></trkpt><trkpt lat="43.3441583" lon="13.2747833"><ele>311.2</ele><time>2026-04-12T07:49:15.429Z</time></trkpt><trkpt lat="43.3440733" lon="13.2748817"><ele>310.8</ele><time>2026-04-12T07:49:17.426Z</time></trkpt><trkpt lat="43.343975" lon="13.274995"><ele>310.4</ele><time>2026-04-12T07:49:19.428Z</time></trkpt><trkpt lat="43.3439133" lon="13.27507"><ele>310.0</ele><time>2026-04-12T07:49:20.427Z</time></trkpt><trkpt lat="43.34384" lon="13.2751533"><ele>308.25</ele><time>2026-04-12T07:49:21.428Z</time></trkpt><trkpt lat="43.3437633" lon="13.275255"><ele>306.5</ele><time>2026-04-12T07:49:22.434Z</time></trkpt><trkpt lat="43.3436917" lon="13.2753683"><ele>304.75</ele><time>2026-04-12T07:49:23.431Z</time></trkpt><trkpt lat="43.3436183" lon="13.27551"><ele>303.0</ele><time>2026-04-12T07:49:24.427Z</time></trkpt><trkpt lat="43.3435467" lon="13.2756767"><ele>302.3333333333333</ele><time>2026-04-12T07:49:25.427Z</time></trkpt><trkpt lat="43.3434783" lon="13.2758633"><ele>301.66666666666663</ele><time>2026-04-12T07:49:26.431Z</time></trkpt><trkpt lat="43.3434167" lon="13.27607"><ele>301.0</ele><time>2026-04-12T07:49:27.429Z</time></trkpt><trkpt lat="43.3433717" lon="13.276285"><ele>301.66666666666663</ele><time>2026-04-12T07:49:28.428Z</time></trkpt><trkpt lat="43.3433317" lon="13.276515"><ele>302.3333333333333</ele><time>2026-04-12T07:49:29.428Z</time></trkpt><trkpt lat="43.3432933" lon="13.2767533"><ele>303.0</ele><time>2026-04-12T07:49:30.428Z</time></trkpt><trkpt lat="43.343255" lon="13.2769933"><ele>303.0</ele><time>2026-04-12T07:49:31.429Z</time></trkpt><trkpt lat="43.3432183" lon="13.2772367"><ele>303.0</ele><time>2026-04-12T07:49:32.428Z</time></trkpt><trkpt lat="43.34318" lon="13.2774817"><ele>303.0</ele><time>2026-04-12T07:49:33.429Z</time></trkpt><trkpt lat="43.3431417" lon="13.2777217"><ele>302.6666666666667</ele><time>2026-04-12T07:49:34.429Z</time></trkpt><trkpt lat="43.3431067" lon="13.277965"><ele>302.33333333333337</ele><time>2026-04-12T07:49:35.429Z</time></trkpt><trkpt lat="43.3430767" lon="13.27821"><ele>302.0</ele><time>2026-04-12T07:49:36.43Z</time></trkpt><trkpt lat="43.3430533" lon="13.27846"><ele>297.0</ele><time>2026-04-12T07:49:37.43Z</time></trkpt><trkpt lat="43.3430417" lon="13.2787117"><ele>292.0</ele><time>2026-04-12T07:49:38.428Z</time></trkpt><trkpt lat="43.3430317" lon="13.27896"><ele>287.0</ele><time>2026-04-12T07:49:39.428Z</time></trkpt><trkpt lat="43.343005" lon="13.27921"><ele>286.33333333333337</ele><time>2026-04-12T07:49:40.43Z</time></trkpt><trkpt lat="43.3429667" lon="13.27945"><ele>285.6666666666667</ele><time>2026-04-12T07:49:41.429Z</time></trkpt><trkpt lat="43.3429233" lon="13.2796883"><ele>285.0</ele><time>2026-04-12T07:49:42.428Z</time></trkpt><trkpt lat="43.3428867" lon="13.2799283"><ele>284.3333333333333</ele><time>2026-04-12T07:49:43.43Z</time></trkpt><trkpt lat="43.342855" lon="13.2801767"><ele>283.66666666666663</ele><time>2026-04-12T07:49:44.428Z</time></trkpt><trkpt lat="43.3428217" lon="13.280425"><ele>283.0</ele><time>2026-04-12T07:49:45.43Z</time></trkpt><trkpt lat="43.3427867" lon="13.2806817"><ele>282.3333333333333</ele><time>2026-04-12T07:49:46.429Z</time></trkpt><trkpt lat="43.342745" lon="13.2809317"><ele>281.6666666666667</ele><time>2026-04-12T07:49:47.428Z</time></trkpt><trkpt lat="43.3426967" lon="13.2811817"><ele>281.0</ele><time>2026-04-12T07:49:48.432Z</time></trkpt><trkpt lat="43.3426417" lon="13.2814317"><ele>280.6666666666667</ele><time>2026-04-12T07:49:49.43Z</time></trkpt><trkpt lat="43.3425833" lon="13.281685"><ele>280.3333333333333</ele><time>2026-04-12T07:49:50.431Z</time></trkpt><trkpt lat="43.34252" lon="13.281935"><ele>280.0</ele><time>2026-04-12T07:49:51.429Z</time></trkpt><trkpt lat="43.3424483" lon="13.2821783"><ele>279.66666666666663</ele><time>2026-04-12T07:49:52.429Z</time></trkpt><trkpt lat="43.342375" lon="13.28242"><ele>279.3333333333333</ele><time>2026-04-12T07:49:53.429Z</time></trkpt><trkpt lat="43.3423033" lon="13.28266"><ele>279.0</ele><time>2026-04-12T07:49:54.43Z</time></trkpt><trkpt lat="43.3422283" lon="13.2828967"><ele>274.6666666666667</ele><time>2026-04-12T07:49:55.429Z</time></trkpt><trkpt lat="43.3421567" lon="13.283135"><ele>270.33333333333337</ele><time>2026-04-12T07:49:56.429Z</time></trkpt><trkpt lat="43.3420867" lon="13.2833767"><ele>266.0</ele><time>2026-04-12T07:49:57.428Z</time></trkpt><trkpt lat="43.342015" lon="13.28362"><ele>266.0</ele><time>2026-04-12T07:49:58.428Z</time></trkpt><trkpt lat="43.3419483" lon="13.2838683"><ele>266.0</ele><time>2026-04-12T07:49:59.431Z</time></trkpt><trkpt lat="43.3418833" lon="13.2841167"><ele>266.0</ele><time>2026-04-12T07:50:00.43Z</time></trkpt><trkpt lat="43.34182" lon="13.2843633"><ele>266.0</ele><time>2026-04-12T07:50:01.43Z</time></trkpt><trkpt lat="43.3417633" lon="13.28461"><ele>266.0</ele><time>2026-04-12T07:50:02.428Z</time></trkpt><trkpt lat="43.34171" lon="13.2848617"><ele>266.0</ele><time>2026-04-12T07:50:03.429Z</time></trkpt><trkpt lat="43.341655" lon="13.2851083"><ele>266.0</ele><time>2026-04-12T07:50:04.43Z</time></trkpt><trkpt lat="43.3416033" lon="13.2853583"><ele>266.0</ele><time>2026-04-12T07:50:05.43Z</time></trkpt><trkpt lat="43.3415483" lon="13.28561"><ele>266.0</ele><time>2026-04-12T07:50:06.429Z</time></trkpt><trkpt lat="43.341495" lon="13.28586"><ele>266.0</ele><time>2026-04-12T07:50:07.43Z</time></trkpt><trkpt lat="43.3414433" lon="13.28611"><ele>266.0</ele><time>2026-04-12T07:50:08.426Z</time></trkpt><trkpt lat="43.3413933" lon="13.286355"><ele>266.0</ele><time>2026-04-12T07:50:09.427Z</time></trkpt><trkpt lat="43.3413417" lon="13.2866017"><ele>263.33333333333337</ele><time>2026-04-12T07:50:10.43Z</time></trkpt><trkpt lat="43.3412883" lon="13.2868483"><ele>260.6666666666667</ele><time>2026-04-12T07:50:11.428Z</time></trkpt><trkpt lat="43.3412333" lon="13.287095"><ele>258.0</ele><time>2026-04-12T07:50:12.43Z</time></trkpt><trkpt lat="43.34118" lon="13.2873417"><ele>258.0</ele><time>2026-04-12T07:50:13.432Z</time></trkpt><trkpt lat="43.3411267" lon="13.2875867"><ele>258.0</ele><time>2026-04-12T07:50:14.428Z</time></trkpt><trkpt lat="43.3410717" lon="13.2878283"><ele>258.0</ele><time>2026-04-12T07:50:15.43Z</time></trkpt><trkpt lat="43.3410167" lon="13.2880717"><ele>258.6666666666667</ele><time>2026-04-12T07:50:16.43Z</time></trkpt><trkpt lat="43.34096" lon="13.28831"><ele>259.33333333333337</ele><time>2026-04-12T07:50:17.428Z</time></trkpt><trkpt lat="43.340905" lon="13.2885467"><ele>260.0</ele><time>2026-04-12T07:50:18.428Z</time></trkpt><trkpt lat="43.34085" lon="13.2887833"><ele>259.0</ele><time>2026-04-12T07:50:19.428Z</time></trkpt><trkpt lat="43.3407967" lon="13.2890183"><ele>258.0</ele><time>2026-04-12T07:50:20.43Z</time></trkpt><trkpt lat="43.3407433" lon="13.2892567"><ele>257.0</ele><time>2026-04-12T07:50:21.428Z</time></trkpt><trkpt lat="43.3406883" lon="13.2894933"><ele>257.0</ele><time>2026-04-12T07:50:22.43Z</time></trkpt><trkpt lat="43.340635" lon="13.289735"><ele>257.0</ele><time>2026-04-12T07:50:23.43Z</time></trkpt><trkpt lat="43.3405833" lon="13.289975"><ele>257.0</ele><time>2026-04-12T07:50:24.433Z</time></trkpt><trkpt lat="43.3405283" lon="13.2902117"><ele>255.33333333333334</ele><time>2026-04-12T07:50:25.43Z</time></trkpt><trkpt lat="43.3404717" lon="13.2904517"><ele>253.66666666666669</ele><time>2026-04-12T07:50:26.428Z</time></trkpt><trkpt lat="43.3404167" lon="13.2906917"><ele>252.0</ele><time>2026-04-12T07:50:27.429Z</time></trkpt><trkpt lat="43.34036" lon="13.2909333"><ele>251.33333333333331</ele><time>2026-04-12T07:50:28.428Z</time></trkpt><trkpt lat="43.3403067" lon="13.291175"><ele>250.66666666666666</ele><time>2026-04-12T07:50:29.431Z</time></trkpt><trkpt lat="43.3402617" lon="13.2914217"><ele>250.0</ele><time>2026-04-12T07:50:30.428Z</time></trkpt><trkpt lat="43.3402317" lon="13.2916733"><ele>250.0</ele><time>2026-04-12T07:50:31.43Z</time></trkpt><trkpt lat="43.3402133" lon="13.29193"><ele>250.0</ele><time>2026-04-12T07:50:32.432Z</time></trkpt><trkpt lat="43.3402" lon="13.2921867"><ele>250.0</ele><time>2026-04-12T07:50:33.429Z</time></trkpt><trkpt lat="43.340185" lon="13.2924467"><ele>250.0</ele><time>2026-04-12T07:50:34.43Z</time></trkpt><trkpt lat="43.3401683" lon="13.2927033"><ele>250.0</ele><time>2026-04-12T07:50:35.428Z</time></trkpt><trkpt lat="43.3401467" lon="13.2929617"><ele>250.0</ele><time>2026-04-12T07:50:36.432Z</time></trkpt><trkpt lat="43.34012" lon="13.2932167"><ele>249.33333333333331</ele><time>2026-04-12T07:50:37.432Z</time></trkpt><trkpt lat="43.340095" lon="13.2934717"><ele>248.66666666666669</ele><time>2026-04-12T07:50:38.432Z</time></trkpt><trkpt lat="43.34007" lon="13.2937267"><ele>248.0</ele><time>2026-04-12T07:50:39.431Z</time></trkpt><trkpt lat="43.3400433" lon="13.29398"><ele>248.0</ele><time>2026-04-12T07:50:40.429Z</time></trkpt><trkpt lat="43.3400183" lon="13.29423"><ele>248.0</ele><time>2026-04-12T07:50:41.429Z</time></trkpt><trkpt lat="43.34" lon="13.2944833"><ele>248.0</ele><time>2026-04-12T07:50:42.433Z</time></trkpt><trkpt lat="43.3399917" lon="13.2947367"><ele>247.33333333333334</ele><time>2026-04-12T07:50:43.431Z</time></trkpt><trkpt lat="43.3399867" lon="13.2949917"><ele>246.66666666666669</ele><time>2026-04-12T07:50:44.429Z</time></trkpt><trkpt lat="43.3399817" lon="13.295245"><ele>246.0</ele><time>2026-04-12T07:50:45.431Z</time></trkpt><trkpt lat="43.3399733" lon="13.2954983"><ele>245.66666666666669</ele><time>2026-04-12T07:50:46.429Z</time></trkpt><trkpt lat="43.339965" lon="13.2957533"><ele>245.33333333333334</ele><time>2026-04-12T07:50:47.428Z</time></trkpt><trkpt lat="43.3399567" lon="13.29601"><ele>245.0</ele><time>2026-04-12T07:50:48.431Z</time></trkpt><trkpt lat="43.3399467" lon="13.2962667"><ele>244.33333333333334</ele><time>2026-04-12T07:50:49.429Z</time></trkpt><trkpt lat="43.3399317" lon="13.2965217"><ele>243.66666666666669</ele><time>2026-04-12T07:50:50.431Z</time></trkpt><trkpt lat="43.3399167" lon="13.2967783"><ele>243.0</ele><time>2026-04-12T07:50:51.431Z</time></trkpt><trkpt lat="43.3399" lon="13.2970367"><ele>243.0</ele><time>2026-04-12T07:50:52.428Z</time></trkpt><trkpt lat="43.3398767" lon="13.2972917"><ele>243.0</ele><time>2026-04-12T07:50:53.432Z</time></trkpt><trkpt lat="43.3398517" lon="13.2975483"><ele>243.0</ele><time>2026-04-12T07:50:54.431Z</time></trkpt><trkpt lat="43.3398267" lon="13.29781"><ele>243.0</ele><time>2026-04-12T07:50:55.432Z</time></trkpt><trkpt lat="43.3397967" lon="13.29807"><ele>243.0</ele><time>2026-04-12T07:50:56.433Z</time></trkpt><trkpt lat="43.339765" lon="13.2983317"><ele>243.0</ele><time>2026-04-12T07:50:57.43Z</time></trkpt><trkpt lat="43.3397283" lon="13.29859"><ele>241.66666666666669</ele><time>2026-04-12T07:50:58.429Z</time></trkpt><trkpt lat="43.339685" lon="13.2988433"><ele>240.33333333333334</ele><time>2026-04-12T07:50:59.431Z</time></trkpt><trkpt lat="43.3396417" lon="13.2990917"><ele>239.0</ele><time>2026-04-12T07:51:00.429Z</time></trkpt><trkpt lat="43.3396017" lon="13.2993417"><ele>238.66666666666669</ele><time>2026-04-12T07:51:01.429Z</time></trkpt><trkpt lat="43.339565" lon="13.29959"><ele>238.33333333333331</ele><time>2026-04-12T07:51:02.429Z</time></trkpt><trkpt lat="43.3395333" lon="13.29984"><ele>238.0</ele><time>2026-04-12T07:51:03.432Z</time></trkpt><trkpt lat="43.33951" lon="13.3000883"><ele>238.0</ele><time>2026-04-12T07:51:04.428Z</time></trkpt><trkpt lat="43.33949" lon="13.30034"><ele>238.0</ele><time>2026-04-12T07:51:05.43Z</time></trkpt><trkpt lat="43.3394733" lon="13.300595"><ele>238.0</ele><time>2026-04-12T07:51:06.433Z</time></trkpt><trkpt lat="43.339465" lon="13.30085"><ele>237.66666666666666</ele><time>2026-04-12T07:51:07.431Z</time></trkpt><trkpt lat="43.3394533" lon="13.3011067"><ele>237.33333333333331</ele><time>2026-04-12T07:51:08.428Z</time></trkpt><trkpt lat="43.3394383" lon="13.3013667"><ele>237.0</ele><time>2026-04-12T07:51:09.43Z</time></trkpt><trkpt lat="43.3394183" lon="13.3016267"><ele>236.33333333333331</ele><time>2026-04-12T07:51:10.429Z</time></trkpt><trkpt lat="43.3394" lon="13.3018817"><ele>235.66666666666666</ele><time>2026-04-12T07:51:11.43Z</time></trkpt><trkpt lat="43.3393783" lon="13.3021383"><ele>235.0</ele><time>2026-04-12T07:51:12.43Z</time></trkpt><trkpt lat="43.33935" lon="13.3023933"><ele>235.0</ele><time>2026-04-12T07:51:13.435Z</time></trkpt><trkpt lat="43.3393217" lon="13.302645"><ele>235.0</ele><time>2026-04-12T07:51:14.431Z</time></trkpt><trkpt lat="43.3392917" lon="13.3028983"><ele>235.0</ele><time>2026-04-12T07:51:15.434Z</time></trkpt><trkpt lat="43.339265" lon="13.3031517"><ele>234.0</ele><time>2026-04-12T07:51:16.44Z</time></trkpt><trkpt lat="43.3392417" lon="13.303405"><ele>233.0</ele><time>2026-04-12T07:51:17.43Z</time></trkpt><trkpt lat="43.3392233" lon="13.30366"><ele>232.0</ele><time>2026-04-12T07:51:18.432Z</time></trkpt><trkpt lat="43.339205" lon="13.3039133"><ele>232.0</ele><time>2026-04-12T07:51:19.431Z</time></trkpt><trkpt lat="43.3391867" lon="13.30417"><ele>232.0</ele><time>2026-04-12T07:51:20.431Z</time></trkpt><trkpt lat="43.3391667" lon="13.3044267"><ele>232.0</ele><time>2026-04-12T07:51:21.429Z</time></trkpt><trkpt lat="43.3391483" lon="13.304685"><ele>231.66666666666666</ele><time>2026-04-12T07:51:22.428Z</time></trkpt><trkpt lat="43.33913" lon="13.304945"><ele>231.33333333333331</ele><time>2026-04-12T07:51:23.429Z</time></trkpt><trkpt lat="43.3391167" lon="13.3052067"><ele>231.0</ele><time>2026-04-12T07:51:24.431Z</time></trkpt><trkpt lat="43.3391083" lon="13.305465"><ele>229.66666666666669</ele><time>2026-04-12T07:51:25.432Z</time></trkpt><trkpt lat="43.3391083" lon="13.3057267"><ele>228.33333333333334</ele><time>2026-04-12T07:51:26.432Z</time></trkpt><trkpt lat="43.3391183" lon="13.305985"><ele>227.0</ele><time>2026-04-12T07:51:27.431Z</time></trkpt><trkpt lat="43.33913" lon="13.30624"><ele>226.66666666666669</ele><time>2026-04-12T07:51:28.429Z</time></trkpt><trkpt lat="43.339145" lon="13.306495"><ele>226.33333333333331</ele><time>2026-04-12T07:51:29.427Z</time></trkpt><trkpt lat="43.33916" lon="13.3067483"><ele>226.0</ele><time>2026-04-12T07:51:30.431Z</time></trkpt><trkpt lat="43.3391817" lon="13.3070033"><ele>225.66666666666666</ele><time>2026-04-12T07:51:31.43Z</time></trkpt><trkpt lat="43.3392083" lon="13.3072583"><ele>225.33333333333331</ele><time>2026-04-12T07:51:32.431Z</time></trkpt><trkpt lat="43.3392383" lon="13.30751"><ele>225.0</ele><time>2026-04-12T07:51:33.429Z</time></trkpt><trkpt lat="43.3392667" lon="13.30776"><ele>225.0</ele><time>2026-04-12T07:51:34.429Z</time></trkpt><trkpt lat="43.3392933" lon="13.308015"><ele>225.0</ele><time>2026-04-12T07:51:35.43Z</time></trkpt><trkpt lat="43.3393183" lon="13.30827"><ele>225.0</ele><time>2026-04-12T07:51:36.429Z</time></trkpt><trkpt lat="43.3393383" lon="13.3085283"><ele>224.33333333333331</ele><time>2026-04-12T07:51:37.435Z</time></trkpt><trkpt lat="43.3393517" lon="13.3087817"><ele>223.66666666666666</ele><time>2026-04-12T07:51:38.432Z</time></trkpt><trkpt lat="43.3393633" lon="13.3090333"><ele>223.0</ele><time>2026-04-12T07:51:39.43Z</time></trkpt><trkpt lat="43.3393717" lon="13.3092867"><ele>222.33333333333331</ele><time>2026-04-12T07:51:40.425Z</time></trkpt><trkpt lat="43.33938" lon="13.3095383"><ele>221.66666666666669</ele><time>2026-04-12T07:51:41.431Z</time></trkpt><trkpt lat="43.3393917" lon="13.30979"><ele>221.0</ele><time>2026-04-12T07:51:42.434Z</time></trkpt><trkpt lat="43.3394017" lon="13.3100433"><ele>220.66666666666669</ele><time>2026-04-12T07:51:43.433Z</time></trkpt><trkpt lat="43.3394083" lon="13.3102983"><ele>220.33333333333331</ele><time>2026-04-12T07:51:44.432Z</time></trkpt><trkpt lat="43.339415" lon="13.3105533"><ele>220.0</ele><time>2026-04-12T07:51:45.432Z</time></trkpt><trkpt lat="43.33942" lon="13.31081"><ele>219.33333333333331</ele><time>2026-04-12T07:51:46.429Z</time></trkpt><trkpt lat="43.3394217" lon="13.3110683"><ele>218.66666666666669</ele><time>2026-04-12T07:51:47.433Z</time></trkpt><trkpt lat="43.3394217" lon="13.3113283"><ele>218.0</ele><time>2026-04-12T07:51:48.432Z</time></trkpt><trkpt lat="43.339415" lon="13.3115883"><ele>217.0</ele><time>2026-04-12T07:51:49.43Z</time></trkpt><trkpt lat="43.3394117" lon="13.3118483"><ele>216.0</ele><time>2026-04-12T07:51:50.432Z</time></trkpt><trkpt lat="43.3394083" lon="13.312105"><ele>215.0</ele><time>2026-04-12T07:51:51.431Z</time></trkpt><trkpt lat="43.3394067" lon="13.3123617"><ele>215.0</ele><time>2026-04-12T07:51:52.43Z</time></trkpt><trkpt lat="43.339405" lon="13.3126183"><ele>215.0</ele><time>2026-04-12T07:51:53.431Z</time></trkpt><trkpt lat="43.3394033" lon="13.3128733"><ele>215.0</ele><time>2026-04-12T07:51:54.437Z</time></trkpt><trkpt lat="43.3393983" lon="13.3131283"><ele>214.66666666666669</ele><time>2026-04-12T07:51:55.431Z</time></trkpt><trkpt lat="43.3393983" lon="13.3133833"><ele>214.33333333333331</ele><time>2026-04-12T07:51:56.431Z</time></trkpt><trkpt lat="43.3393967" lon="13.3136383"><ele>214.0</ele><time>2026-04-12T07:51:57.429Z</time></trkpt><trkpt lat="43.33939" lon="13.3138933"><ele>214.0</ele><time>2026-04-12T07:51:58.43Z</time></trkpt><trkpt lat="43.3393867" lon="13.31415"><ele>214.0</ele><time>2026-04-12T07:51:59.433Z</time></trkpt><trkpt lat="43.3393833" lon="13.314405"><ele>214.0</ele><time>2026-04-12T07:52:00.432Z</time></trkpt><trkpt lat="43.33938" lon="13.3146617"><ele>213.33333333333331</ele><time>2026-04-12T07:52:01.43Z</time></trkpt><trkpt lat="43.33937" lon="13.31492"><ele>212.66666666666669</ele><time>2026-04-12T07:52:02.432Z</time></trkpt><trkpt lat="43.33935" lon="13.3151783"><ele>212.0</ele><time>2026-04-12T07:52:03.433Z</time></trkpt><trkpt lat="43.3393133" lon="13.3154367"><ele>212.0</ele><time>2026-04-12T07:52:04.433Z</time></trkpt><trkpt lat="43.3392633" lon="13.3156867"><ele>212.0</ele><time>2026-04-12T07:52:05.435Z</time></trkpt><trkpt lat="43.3392083" lon="13.3159267"><ele>212.0</ele><time>2026-04-12T07:52:06.429Z</time></trkpt><trkpt lat="43.3391533" lon="13.316155"><ele>212.0</ele><time>2026-04-12T07:52:07.429Z</time></trkpt><trkpt lat="43.3391017" lon="13.3163717"><ele>212.0</ele><time>2026-04-12T07:52:08.434Z</time></trkpt><trkpt lat="43.3390533" lon="13.3165733"><ele>212.0</ele><time>2026-04-12T07:52:09.431Z</time></trkpt><trkpt lat="43.3390083" lon="13.3167533"><ele>212.2</ele><time>2026-04-12T07:52:10.43Z</time></trkpt><trkpt lat="43.3389683" lon="13.3169183"><ele>212.39999999999998</ele><time>2026-04-12T07:52:11.429Z</time></trkpt><trkpt lat="43.3389367" lon="13.317065"><ele>212.60000000000002</ele><time>2026-04-12T07:52:12.43Z</time></trkpt><trkpt lat="43.338905" lon="13.31718"><ele>212.8</ele><time>2026-04-12T07:52:13.43Z</time></trkpt><trkpt lat="43.3388567" lon="13.3172633"><ele>213.0</ele><time>2026-04-12T07:52:14.43Z</time></trkpt><trkpt lat="43.3388" lon="13.3173117"><ele>211.75</ele><time>2026-04-12T07:52:15.43Z</time></trkpt><trkpt lat="43.3387033" lon="13.3173067"><ele>210.5</ele><time>2026-04-12T07:52:16.428Z</time></trkpt><trkpt lat="43.33859" lon="13.3173017"><ele>209.25</ele><time>2026-04-12T07:52:17.427Z</time></trkpt><trkpt lat="43.3384717" lon="13.3173"><ele>208.0</ele><time>2026-04-12T07:52:18.432Z</time></trkpt><trkpt lat="43.3383483" lon="13.3173083"><ele>208.0</ele><time>2026-04-12T07:52:19.429Z</time></trkpt><trkpt lat="43.3382167" lon="13.3173183"><ele>208.0</ele><time>2026-04-12T07:52:20.432Z</time></trkpt><trkpt lat="43.33808" lon="13.3173283"><ele>208.0</ele><time>2026-04-12T07:52:21.43Z</time></trkpt><trkpt lat="43.337935" lon="13.3173333"><ele>208.0</ele><time>2026-04-12T07:52:22.428Z</time></trkpt><trkpt lat="43.3377817" lon="13.31734"><ele>207.66666666666666</ele><time>2026-04-12T07:52:23.431Z</time></trkpt><trkpt lat="43.3376267" lon="13.3173517"><ele>207.33333333333331</ele><time>2026-04-12T07:52:24.429Z</time></trkpt><trkpt lat="43.3374683" lon="13.3173683"><ele>207.0</ele><time>2026-04-12T07:52:25.43Z</time></trkpt><trkpt lat="43.3373083" lon="13.317385"><ele>207.66666666666669</ele><time>2026-04-12T07:52:26.434Z</time></trkpt><trkpt lat="43.337145" lon="13.3174033"><ele>208.33333333333334</ele><time>2026-04-12T07:52:27.429Z</time></trkpt><trkpt lat="43.3369833" lon="13.3174233"><ele>209.0</ele><time>2026-04-12T07:52:28.431Z</time></trkpt><trkpt lat="43.3368217" lon="13.3174367"><ele>209.0</ele><time>2026-04-12T07:52:29.429Z</time></trkpt><trkpt lat="43.3366633" lon="13.3174333"><ele>209.0</ele><time>2026-04-12T07:52:30.431Z</time></trkpt><trkpt lat="43.3365083" lon="13.317415"><ele>209.0</ele><time>2026-04-12T07:52:31.431Z</time></trkpt><trkpt lat="43.336355" lon="13.3173767"><ele>208.75</ele><time>2026-04-12T07:52:32.428Z</time></trkpt><trkpt lat="43.336205" lon="13.31733"><ele>208.5</ele><time>2026-04-12T07:52:33.427Z</time></trkpt><trkpt lat="43.3360583" lon="13.3172783"><ele>208.25</ele><time>2026-04-12T07:52:34.429Z</time></trkpt><trkpt lat="43.3359167" lon="13.3172433"><ele>208.0</ele><time>2026-04-12T07:52:35.43Z</time></trkpt><trkpt lat="43.335775" lon="13.317245"><ele>208.0</ele><time>2026-04-12T07:52:36.429Z</time></trkpt><trkpt lat="43.33564" lon="13.3173"><ele>208.0</ele><time>2026-04-12T07:52:37.432Z</time></trkpt><trkpt lat="43.3355183" lon="13.3174067"><ele>208.0</ele><time>2026-04-12T07:52:38.43Z</time></trkpt><trkpt lat="43.3354" lon="13.3175417"><ele>208.0</ele><time>2026-04-12T07:52:39.429Z</time></trkpt><trkpt lat="43.3352783" lon="13.3176783"><ele>208.66666666666666</ele><time>2026-04-12T07:52:40.429Z</time></trkpt><trkpt lat="43.335155" lon="13.3178167"><ele>209.33333333333331</ele><time>2026-04-12T07:52:41.428Z</time></trkpt><trkpt lat="43.3350333" lon="13.31795"><ele>210.0</ele><time>2026-04-12T07:52:42.429Z</time></trkpt><trkpt lat="43.3349133" lon="13.3180717"><ele>210.33333333333331</ele><time>2026-04-12T07:52:43.428Z</time></trkpt><trkpt lat="43.3347917" lon="13.3181917"><ele>210.66666666666666</ele><time>2026-04-12T07:52:44.43Z</time></trkpt><trkpt lat="43.3346633" lon="13.3183133"><ele>211.0</ele><time>2026-04-12T07:52:45.428Z</time></trkpt><trkpt lat="43.3345233" lon="13.31842"><ele>210.33333333333331</ele><time>2026-04-12T07:52:46.43Z</time></trkpt><trkpt lat="43.3343817" lon="13.318525"><ele>209.66666666666669</ele><time>2026-04-12T07:52:47.426Z</time></trkpt><trkpt lat="43.3342483" lon="13.3186233"><ele>209.0</ele><time>2026-04-12T07:52:48.428Z</time></trkpt><trkpt lat="43.3341217" lon="13.3187133"><ele>209.0</ele><time>2026-04-12T07:52:49.438Z</time></trkpt><trkpt lat="43.3340067" lon="13.3188033"><ele>209.0</ele><time>2026-04-12T07:52:50.428Z</time></trkpt><trkpt lat="43.3338967" lon="13.3188917"><ele>209.0</ele><time>2026-04-12T07:52:51.427Z</time></trkpt><trkpt lat="43.3337883" lon="13.318975"><ele>209.0</ele><time>2026-04-12T07:52:52.429Z</time></trkpt><trkpt lat="43.3336767" lon="13.3190517"><ele>208.5</ele><time>2026-04-12T07:52:53.43Z</time></trkpt><trkpt lat="43.3335633" lon="13.3191167"><ele>208.0</ele><time>2026-04-12T07:52:54.428Z</time></trkpt><trkpt lat="43.33345" lon="13.3191733"><ele>207.5</ele><time>2026-04-12T07:52:55.427Z</time></trkpt><trkpt lat="43.3333367" lon="13.3192283"><ele>207.0</ele><time>2026-04-12T07:52:56.43Z</time></trkpt><trkpt lat="43.3332283" lon="13.319275"><ele>207.0</ele><time>2026-04-12T07:52:57.429Z</time></trkpt><trkpt lat="43.3331283" lon="13.3193133"><ele>207.0</ele><time>2026-04-12T07:52:58.428Z</time></trkpt><trkpt lat="43.3330367" lon="13.31933"><ele>207.0</ele><time>2026-04-12T07:52:59.43Z</time></trkpt><trkpt lat="43.3329517" lon="13.3193233"><ele>207.0</ele><time>2026-04-12T07:53:00.43Z</time></trkpt><trkpt lat="43.33287" lon="13.3192933"><ele>207.0</ele><time>2026-04-12T07:53:01.428Z</time></trkpt><trkpt lat="43.3327733" lon="13.3192367"><ele>206.75</ele><time>2026-04-12T07:53:02.43Z</time></trkpt><trkpt lat="43.332655" lon="13.31918"><ele>206.5</ele><time>2026-04-12T07:53:03.429Z</time></trkpt><trkpt lat="43.3325267" lon="13.3191467"><ele>206.25</ele><time>2026-04-12T07:53:04.429Z</time></trkpt><trkpt lat="43.3323867" lon="13.319135"><ele>206.0</ele><time>2026-04-12T07:53:05.428Z</time></trkpt><trkpt lat="43.332235" lon="13.3191383"><ele>206.33333333333334</ele><time>2026-04-12T07:53:06.429Z</time></trkpt><trkpt lat="43.33208" lon="13.319145"><ele>206.66666666666669</ele><time>2026-04-12T07:53:07.432Z</time></trkpt><trkpt lat="43.3319133" lon="13.3191533"><ele>207.0</ele><time>2026-04-12T07:53:08.431Z</time></trkpt><trkpt lat="43.3317433" lon="13.3191533"><ele>207.0</ele><time>2026-04-12T07:53:09.428Z</time></trkpt><trkpt lat="43.33157" lon="13.3191417"><ele>207.0</ele><time>2026-04-12T07:53:10.428Z</time></trkpt><trkpt lat="43.3313917" lon="13.3191283"><ele>207.0</ele><time>2026-04-12T07:53:11.428Z</time></trkpt><trkpt lat="43.3312117" lon="13.31912"><ele>208.0</ele><time>2026-04-12T07:53:12.428Z</time></trkpt><trkpt lat="43.33103" lon="13.3191117"><ele>209.0</ele><time>2026-04-12T07:53:13.429Z</time></trkpt><trkpt lat="43.33085" lon="13.319105"><ele>210.0</ele><time>2026-04-12T07:53:14.429Z</time></trkpt><trkpt lat="43.33067" lon="13.3191017"><ele>210.0</ele><time>2026-04-12T07:53:15.427Z</time></trkpt><trkpt lat="43.33049" lon="13.319095"><ele>210.0</ele><time>2026-04-12T07:53:16.429Z</time></trkpt><trkpt lat="43.3303117" lon="13.3190767"><ele>210.0</ele><time>2026-04-12T07:53:17.43Z</time></trkpt><trkpt lat="43.3301333" lon="13.3190433"><ele>210.0</ele><time>2026-04-12T07:53:18.423Z</time></trkpt><trkpt lat="43.3299533" lon="13.319"><ele>210.0</ele><time>2026-04-12T07:53:19.429Z</time></trkpt><trkpt lat="43.3297717" lon="13.318965"><ele>210.0</ele><time>2026-04-12T07:53:20.429Z</time></trkpt><trkpt lat="43.3295917" lon="13.3189317"><ele>208.33333333333331</ele><time>2026-04-12T07:53:21.426Z</time></trkpt><trkpt lat="43.329405" lon="13.3188933"><ele>206.66666666666666</ele><time>2026-04-12T07:53:22.425Z</time></trkpt><trkpt lat="43.3292233" lon="13.3188483"><ele>205.0</ele><time>2026-04-12T07:53:23.429Z</time></trkpt><trkpt lat="43.3290417" lon="13.3187883"><ele>203.33333333333331</ele><time>2026-04-12T07:53:24.429Z</time></trkpt><trkpt lat="43.328865" lon="13.3187183"><ele>201.66666666666669</ele><time>2026-04-12T07:53:25.429Z</time></trkpt><trkpt lat="43.3287" lon="13.3186233"><ele>200.0</ele><time>2026-04-12T07:53:26.428Z</time></trkpt><trkpt lat="43.328545" lon="13.3184933"><ele>200.0</ele><time>2026-04-12T07:53:27.432Z</time></trkpt><trkpt lat="43.3284083" lon="13.3183283"><ele>200.0</ele><time>2026-04-12T07:53:28.424Z</time></trkpt><trkpt lat="43.3282917" lon="13.3181383"><ele>200.0</ele><time>2026-04-12T07:53:29.43Z</time></trkpt><trkpt lat="43.3281767" lon="13.3179383"><ele>199.0</ele><time>2026-04-12T07:53:30.432Z</time></trkpt><trkpt lat="43.3280583" lon="13.3177433"><ele>198.0</ele><time>2026-04-12T07:53:31.428Z</time></trkpt><trkpt lat="43.3279433" lon="13.3175483"><ele>197.0</ele><time>2026-04-12T07:53:32.429Z</time></trkpt><trkpt lat="43.3278267" lon="13.3173517"><ele>197.33333333333334</ele><time>2026-04-12T07:53:33.429Z</time></trkpt><trkpt lat="43.32771" lon="13.3171533"><ele>197.66666666666669</ele><time>2026-04-12T07:53:34.427Z</time></trkpt><trkpt lat="43.327595" lon="13.316955"><ele>198.0</ele><time>2026-04-12T07:53:35.432Z</time></trkpt><trkpt lat="43.3274683" lon="13.3167683"><ele>198.0</ele><time>2026-04-12T07:53:36.429Z</time></trkpt><trkpt lat="43.3273333" lon="13.316595"><ele>198.0</ele><time>2026-04-12T07:53:37.43Z</time></trkpt><trkpt lat="43.3271883" lon="13.3164417"><ele>198.0</ele><time>2026-04-12T07:53:38.43Z</time></trkpt><trkpt lat="43.3270333" lon="13.31632"><ele>199.66666666666669</ele><time>2026-04-12T07:53:39.432Z</time></trkpt><trkpt lat="43.3268683" lon="13.3162333"><ele>201.33333333333334</ele><time>2026-04-12T07:53:40.428Z</time></trkpt><trkpt lat="43.326695" lon="13.316175"><ele>203.0</ele><time>2026-04-12T07:53:41.431Z</time></trkpt><trkpt lat="43.3265167" lon="13.31615"><ele>206.33333333333334</ele><time>2026-04-12T07:53:42.431Z</time></trkpt><trkpt lat="43.3263333" lon="13.316135"><ele>209.66666666666669</ele><time>2026-04-12T07:53:43.427Z</time></trkpt><trkpt lat="43.326155" lon="13.316105"><ele>213.0</ele><time>2026-04-12T07:53:44.43Z</time></trkpt><trkpt lat="43.3259817" lon="13.316075"><ele>213.0</ele><time>2026-04-12T07:53:45.432Z</time></trkpt><trkpt lat="43.3258133" lon="13.3160417"><ele>213.0</ele><time>2026-04-12T07:53:46.429Z</time></trkpt><trkpt lat="43.3256517" lon="13.3160133"><ele>213.0</ele><time>2026-04-12T07:53:47.428Z</time></trkpt><trkpt lat="43.3255" lon="13.3159867"><ele>214.0</ele><time>2026-04-12T07:53:48.429Z</time></trkpt><trkpt lat="43.325355" lon="13.3159717"><ele>215.0</ele><time>2026-04-12T07:53:49.429Z</time></trkpt><trkpt lat="43.3252167" lon="13.3159633"><ele>216.0</ele><time>2026-04-12T07:53:50.432Z</time></trkpt><trkpt lat="43.3250783" lon="13.3159617"><ele>217.0</ele><time>2026-04-12T07:53:51.427Z</time></trkpt><trkpt lat="43.32494" lon="13.31597"><ele>217.0</ele><time>2026-04-12T07:53:52.428Z</time></trkpt><trkpt lat="43.3248033" lon="13.315975"><ele>217.0</ele><time>2026-04-12T07:53:53.429Z</time></trkpt><trkpt lat="43.3246667" lon="13.315975"><ele>217.0</ele><time>2026-04-12T07:53:54.43Z</time></trkpt><trkpt lat="43.3245283" lon="13.3159617"><ele>217.0</ele><time>2026-04-12T07:53:55.427Z</time></trkpt><trkpt lat="43.3243967" lon="13.3159033"><ele>217.75</ele><time>2026-04-12T07:53:56.432Z</time></trkpt><trkpt lat="43.3242767" lon="13.31582"><ele>218.5</ele><time>2026-04-12T07:53:57.425Z</time></trkpt><trkpt lat="43.3241633" lon="13.3157283"><ele>219.25</ele><time>2026-04-12T07:53:58.427Z</time></trkpt><trkpt lat="43.3240567" lon="13.3156333"><ele>220.0</ele><time>2026-04-12T07:53:59.427Z</time></trkpt><trkpt lat="43.3239533" lon="13.3155533"><ele>217.75</ele><time>2026-04-12T07:54:00.428Z</time></trkpt><trkpt lat="43.3238467" lon="13.315485"><ele>215.5</ele><time>2026-04-12T07:54:01.428Z</time></trkpt><trkpt lat="43.3237383" lon="13.3154233"><ele>213.25</ele><time>2026-04-12T07:54:02.428Z</time></trkpt><trkpt lat="43.3236267" lon="13.3153567"><ele>211.0</ele><time>2026-04-12T07:54:03.429Z</time></trkpt><trkpt lat="43.3235117" lon="13.31528"><ele>211.0</ele><time>2026-04-12T07:54:04.429Z</time></trkpt><trkpt lat="43.3233967" lon="13.3151933"><ele>211.0</ele><time>2026-04-12T07:54:05.437Z</time></trkpt><trkpt lat="43.3232883" lon="13.31509"><ele>211.0</ele><time>2026-04-12T07:54:06.424Z</time></trkpt><trkpt lat="43.323185" lon="13.314985"><ele>211.0</ele><time>2026-04-12T07:54:07.429Z</time></trkpt><trkpt lat="43.3230833" lon="13.3148867"><ele>210.0</ele><time>2026-04-12T07:54:08.43Z</time></trkpt><trkpt lat="43.3229883" lon="13.31479"><ele>209.0</ele><time>2026-04-12T07:54:09.429Z</time></trkpt><trkpt lat="43.3228967" lon="13.3146967"><ele>208.0</ele><time>2026-04-12T07:54:10.426Z</time></trkpt><trkpt lat="43.322805" lon="13.3146133"><ele>207.0</ele><time>2026-04-12T07:54:11.425Z</time></trkpt><trkpt lat="43.3227083" lon="13.314545"><ele>207.0</ele><time>2026-04-12T07:54:12.43Z</time></trkpt><trkpt lat="43.3226" lon="13.3144917"><ele>207.0</ele><time>2026-04-12T07:54:13.428Z</time></trkpt><trkpt lat="43.3224833" lon="13.31445"><ele>207.0</ele><time>2026-04-12T07:54:14.432Z</time></trkpt><trkpt lat="43.322365" lon="13.314415"><ele>207.0</ele><time>2026-04-12T07:54:15.427Z</time></trkpt><trkpt lat="43.3222567" lon="13.31439"><ele>205.83333333333334</ele><time>2026-04-12T07:54:16.427Z</time></trkpt><trkpt lat="43.32216" lon="13.3143733"><ele>204.66666666666669</ele><time>2026-04-12T07:54:17.427Z</time></trkpt><trkpt lat="43.3220717" lon="13.3143667"><ele>203.5</ele><time>2026-04-12T07:54:18.425Z</time></trkpt><trkpt lat="43.3219867" lon="13.314365"><ele>202.33333333333334</ele><time>2026-04-12T07:54:19.43Z</time></trkpt><trkpt lat="43.3219017" lon="13.3143617"><ele>201.16666666666669</ele><time>2026-04-12T07:54:20.431Z</time></trkpt><trkpt lat="43.3218117" lon="13.31436"><ele>200.0</ele><time>2026-04-12T07:54:21.431Z</time></trkpt><trkpt lat="43.3217133" lon="13.3143617"><ele>200.0</ele><time>2026-04-12T07:54:22.429Z</time></trkpt><trkpt lat="43.321605" lon="13.3143633"><ele>200.0</ele><time>2026-04-12T07:54:23.427Z</time></trkpt><trkpt lat="43.32149" lon="13.3143667"><ele>200.0</ele><time>2026-04-12T07:54:24.427Z</time></trkpt><trkpt lat="43.3213733" lon="13.3143517"><ele>200.0</ele><time>2026-04-12T07:54:25.429Z</time></trkpt><trkpt lat="43.3212567" lon="13.3143217"><ele>199.75</ele><time>2026-04-12T07:54:26.43Z</time></trkpt><trkpt lat="43.32114" lon="13.3142733"><ele>199.5</ele><time>2026-04-12T07:54:27.428Z</time></trkpt><trkpt lat="43.3210267" lon="13.31421"><ele>199.25</ele><time>2026-04-12T07:54:28.427Z</time></trkpt><trkpt lat="43.3209017" lon="13.31413"><ele>199.0</ele><time>2026-04-12T07:54:29.434Z</time></trkpt><trkpt lat="43.3207617" lon="13.31403"><ele>199.0</ele><time>2026-04-12T07:54:30.426Z</time></trkpt><trkpt lat="43.320605" lon="13.31391"><ele>199.0</ele><time>2026-04-12T07:54:31.43Z</time></trkpt><trkpt lat="43.3204417" lon="13.313775"><ele>199.0</ele><time>2026-04-12T07:54:32.431Z</time></trkpt><trkpt lat="43.320275" lon="13.3136283"><ele>199.0</ele><time>2026-04-12T07:54:33.43Z</time></trkpt><trkpt lat="43.320105" lon="13.313485"><ele>199.0</ele><time>2026-04-12T07:54:34.432Z</time></trkpt><trkpt lat="43.3199283" lon="13.313335"><ele>199.0</ele><time>2026-04-12T07:54:35.428Z</time></trkpt><trkpt lat="43.319755" lon="13.3131867"><ele>200.33333333333331</ele><time>2026-04-12T07:54:36.43Z</time></trkpt><trkpt lat="43.31959" lon="13.3130383"><ele>201.66666666666669</ele><time>2026-04-12T07:54:37.432Z</time></trkpt><trkpt lat="43.31945" lon="13.31287"><ele>203.0</ele><time>2026-04-12T07:54:38.431Z</time></trkpt><trkpt lat="43.3193267" lon="13.3127033"><ele>203.0</ele><time>2026-04-12T07:54:39.43Z</time></trkpt><trkpt lat="43.319225" lon="13.312535"><ele>203.0</ele><time>2026-04-12T07:54:40.43Z</time></trkpt><trkpt lat="43.3191433" lon="13.3123517"><ele>203.0</ele><time>2026-04-12T07:54:41.428Z</time></trkpt><trkpt lat="43.3191" lon="13.3121617"><ele>203.5</ele><time>2026-04-12T07:54:42.431Z</time></trkpt><trkpt lat="43.31909" lon="13.3119817"><ele>204.0</ele><time>2026-04-12T07:54:43.427Z</time></trkpt><trkpt lat="43.3190833" lon="13.31181"><ele>204.5</ele><time>2026-04-12T07:54:44.431Z</time></trkpt><trkpt lat="43.319065" lon="13.3116533"><ele>205.0</ele><time>2026-04-12T07:54:45.429Z</time></trkpt><trkpt lat="43.3190217" lon="13.3115033"><ele>204.5</ele><time>2026-04-12T07:54:46.43Z</time></trkpt><trkpt lat="43.31895" lon="13.3113617"><ele>204.0</ele><time>2026-04-12T07:54:47.429Z</time></trkpt><trkpt lat="43.31887" lon="13.31123"><ele>203.5</ele><time>2026-04-12T07:54:48.43Z</time></trkpt><trkpt lat="43.31879" lon="13.3111017"><ele>203.0</ele><time>2026-04-12T07:54:49.428Z</time></trkpt><trkpt lat="43.3187117" lon="13.3109733"><ele>207.0</ele><time>2026-04-12T07:54:50.43Z</time></trkpt><trkpt lat="43.3186467" lon="13.3108333"><ele>211.0</ele><time>2026-04-12T07:54:51.427Z</time></trkpt><trkpt lat="43.3185983" lon="13.3106733"><ele>215.0</ele><time>2026-04-12T07:54:52.427Z</time></trkpt><trkpt lat="43.3185583" lon="13.3105133"><ele>219.0</ele><time>2026-04-12T07:54:53.431Z</time></trkpt><trkpt lat="43.318515" lon="13.31035"><ele>219.0</ele><time>2026-04-12T07:54:54.429Z</time></trkpt><trkpt lat="43.3184667" lon="13.3101967"><ele>219.0</ele><time>2026-04-12T07:54:55.428Z</time></trkpt><trkpt lat="43.3184117" lon="13.3100583"><ele>219.0</ele><time>2026-04-12T07:54:56.429Z</time></trkpt><trkpt lat="43.318355" lon="13.309925"><ele>219.0</ele><time>2026-04-12T07:54:57.43Z</time></trkpt><trkpt lat="43.318305" lon="13.3097917"><ele>218.79999999999998</ele><time>2026-04-12T07:54:58.427Z</time></trkpt><trkpt lat="43.318265" lon="13.30965"><ele>218.59999999999997</ele><time>2026-04-12T07:54:59.429Z</time></trkpt><trkpt lat="43.3182333" lon="13.309505"><ele>218.4</ele><time>2026-04-12T07:55:00.427Z</time></trkpt><trkpt lat="43.318215" lon="13.30936"><ele>218.2</ele><time>2026-04-12T07:55:01.43Z</time></trkpt><trkpt lat="43.3181983" lon="13.3092233"><ele>218.0</ele><time>2026-04-12T07:55:02.433Z</time></trkpt><trkpt lat="43.3181817" lon="13.309115"><ele>218.0</ele><time>2026-04-12T07:55:03.427Z</time></trkpt><trkpt lat="43.3181567" lon="13.3090267"><ele>218.0</ele><time>2026-04-12T07:55:04.43Z</time></trkpt><trkpt lat="43.3180867" lon="13.3088983"><ele>218.0</ele><time>2026-04-12T07:55:06.43Z</time></trkpt><trkpt lat="43.318015" lon="13.3088117"><ele>218.0</ele><time>2026-04-12T07:55:08.429Z</time></trkpt><trkpt lat="43.317925" lon="13.3087217"><ele>218.0</ele><time>2026-04-12T07:55:10.427Z</time></trkpt><trkpt lat="43.3178533" lon="13.3086583"><ele>220.2</ele><time>2026-04-12T07:55:11.427Z</time></trkpt><trkpt lat="43.3177733" lon="13.3085983"><ele>222.4</ele><time>2026-04-12T07:55:12.428Z</time></trkpt><trkpt lat="43.3176833" lon="13.30854"><ele>224.59999999999997</ele><time>2026-04-12T07:55:13.426Z</time></trkpt><trkpt lat="43.3175833" lon="13.30849"><ele>226.79999999999998</ele><time>2026-04-12T07:55:14.428Z</time></trkpt><trkpt lat="43.317475" lon="13.308445"><ele>229.0</ele><time>2026-04-12T07:55:15.427Z</time></trkpt><trkpt lat="43.3173617" lon="13.3083983"><ele>229.0</ele><time>2026-04-12T07:55:16.429Z</time></trkpt><trkpt lat="43.3172467" lon="13.30836"><ele>229.0</ele><time>2026-04-12T07:55:17.431Z</time></trkpt><trkpt lat="43.31713" lon="13.308335"><ele>229.0</ele><time>2026-04-12T07:55:18.429Z</time></trkpt><trkpt lat="43.3170067" lon="13.3083267"><ele>229.0</ele><time>2026-04-12T07:55:19.428Z</time></trkpt><trkpt lat="43.31688" lon="13.308325"><ele>231.25</ele><time>2026-04-12T07:55:20.428Z</time></trkpt><trkpt lat="43.3167467" lon="13.3083217"><ele>233.5</ele><time>2026-04-12T07:55:21.428Z</time></trkpt><trkpt lat="43.31661" lon="13.3083083"><ele>235.75</ele><time>2026-04-12T07:55:22.432Z</time></trkpt><trkpt lat="43.31647" lon="13.30829"><ele>238.0</ele><time>2026-04-12T07:55:23.428Z</time></trkpt><trkpt lat="43.31633" lon="13.3082717"><ele>238.75</ele><time>2026-04-12T07:55:24.429Z</time></trkpt><trkpt lat="43.3161983" lon="13.3082667"><ele>239.5</ele><time>2026-04-12T07:55:25.428Z</time></trkpt><trkpt lat="43.3160783" lon="13.30828"><ele>240.25</ele><time>2026-04-12T07:55:26.425Z</time></trkpt><trkpt lat="43.3159633" lon="13.3083317"><ele>241.0</ele><time>2026-04-12T07:55:27.422Z</time></trkpt><trkpt lat="43.3158517" lon="13.3084083"><ele>241.0</ele><time>2026-04-12T07:55:28.423Z</time></trkpt><trkpt lat="43.3157467" lon="13.3085033"><ele>241.0</ele><time>2026-04-12T07:55:29.423Z</time></trkpt><trkpt lat="43.3156383" lon="13.3085933"><ele>241.0</ele><time>2026-04-12T07:55:30.422Z</time></trkpt><trkpt lat="43.3155383" lon="13.3086717"><ele>241.0</ele><time>2026-04-12T07:55:31.423Z</time></trkpt><trkpt lat="43.315445" lon="13.3087383"><ele>242.99999999999997</ele><time>2026-04-12T07:55:32.426Z</time></trkpt><trkpt lat="43.3153483" lon="13.3087917"><ele>245.0</ele><time>2026-04-12T07:55:33.424Z</time></trkpt><trkpt lat="43.3152517" lon="13.3088083"><ele>247.0</ele><time>2026-04-12T07:55:34.423Z</time></trkpt><trkpt lat="43.3151617" lon="13.308805"><ele>249.0</ele><time>2026-04-12T07:55:35.424Z</time></trkpt><trkpt lat="43.3150817" lon="13.30879"><ele>250.99999999999997</ele><time>2026-04-12T07:55:36.423Z</time></trkpt><trkpt lat="43.315015" lon="13.30876"><ele>253.0</ele><time>2026-04-12T07:55:37.424Z</time></trkpt><trkpt lat="43.3149467" lon="13.3087167"><ele>252.99999999999997</ele><time>2026-04-12T07:55:38.429Z</time></trkpt><trkpt lat="43.3148767" lon="13.3086517"><ele>253.0</ele><time>2026-04-12T07:55:39.428Z</time></trkpt><trkpt lat="43.3148217" lon="13.3085617"><ele>253.0</ele><time>2026-04-12T07:55:40.429Z</time></trkpt><trkpt lat="43.314785" lon="13.3084517"><ele>253.0</ele><time>2026-04-12T07:55:41.424Z</time></trkpt><trkpt lat="43.314775" lon="13.308325"><ele>252.99999999999997</ele><time>2026-04-12T07:55:42.428Z</time></trkpt><trkpt lat="43.3147933" lon="13.3081933"><ele>253.0</ele><time>2026-04-12T07:55:43.428Z</time></trkpt><trkpt lat="43.3148167" lon="13.3080633"><ele>253.0</ele><time>2026-04-12T07:55:44.424Z</time></trkpt><trkpt lat="43.3148183" lon="13.3079233"><ele>253.0</ele><time>2026-04-12T07:55:45.427Z</time></trkpt><trkpt lat="43.314795" lon="13.3077833"><ele>253.0</ele><time>2026-04-12T07:55:46.426Z</time></trkpt><trkpt lat="43.3147433" lon="13.3076533"><ele>253.0</ele><time>2026-04-12T07:55:47.426Z</time></trkpt><trkpt lat="43.314665" lon="13.3075333"><ele>253.0</ele><time>2026-04-12T07:55:48.427Z</time></trkpt><trkpt lat="43.3145717" lon="13.30743"><ele>256.5</ele><time>2026-04-12T07:55:49.428Z</time></trkpt><trkpt lat="43.3144683" lon="13.3073467"><ele>260.0</ele><time>2026-04-12T07:55:50.431Z</time></trkpt><trkpt lat="43.314365" lon="13.30727"><ele>263.5</ele><time>2026-04-12T07:55:51.425Z</time></trkpt><trkpt lat="43.3142683" lon="13.3071933"><ele>267.0</ele><time>2026-04-12T07:55:52.431Z</time></trkpt><trkpt lat="43.3141733" lon="13.3071133"><ele>267.0</ele><time>2026-04-12T07:55:53.429Z</time></trkpt><trkpt lat="43.3140817" lon="13.3070267"><ele>267.0</ele><time>2026-04-12T07:55:54.431Z</time></trkpt><trkpt lat="43.31399" lon="13.3069317"><ele>267.0</ele><time>2026-04-12T07:55:55.428Z</time></trkpt><trkpt lat="43.3139033" lon="13.306835"><ele>267.0</ele><time>2026-04-12T07:55:56.431Z</time></trkpt><trkpt lat="43.3138267" lon="13.3067483"><ele>267.0</ele><time>2026-04-12T07:55:57.428Z</time></trkpt><trkpt lat="43.31376" lon="13.3066783"><ele>268.42857142857144</ele><time>2026-04-12T07:55:58.429Z</time></trkpt><trkpt lat="43.313705" lon="13.3066167"><ele>269.8571428571429</ele><time>2026-04-12T07:55:59.425Z</time></trkpt><trkpt lat="43.3136567" lon="13.3065533"><ele>271.2857142857143</ele><time>2026-04-12T07:56:00.427Z</time></trkpt><trkpt lat="43.313605" lon="13.3065"><ele>272.7142857142857</ele><time>2026-04-12T07:56:01.429Z</time></trkpt><trkpt lat="43.3135517" lon="13.3064417"><ele>274.1428571428571</ele><time>2026-04-12T07:56:02.433Z</time></trkpt><trkpt lat="43.3134917" lon="13.3063883"><ele>275.57142857142856</ele><time>2026-04-12T07:56:03.426Z</time></trkpt><trkpt lat="43.3134233" lon="13.306335"><ele>277.0</ele><time>2026-04-12T07:56:04.43Z</time></trkpt><trkpt lat="43.31334" lon="13.306285"><ele>277.4</ele><time>2026-04-12T07:56:05.428Z</time></trkpt><trkpt lat="43.31325" lon="13.3062533"><ele>277.79999999999995</ele><time>2026-04-12T07:56:06.428Z</time></trkpt><trkpt lat="43.31315" lon="13.3062467"><ele>278.2</ele><time>2026-04-12T07:56:07.43Z</time></trkpt><trkpt lat="43.3130517" lon="13.3062667"><ele>278.59999999999997</ele><time>2026-04-12T07:56:08.424Z</time></trkpt><trkpt lat="43.3129533" lon="13.3063083"><ele>279.0</ele><time>2026-04-12T07:56:09.432Z</time></trkpt><trkpt lat="43.3128683" lon="13.3063717"><ele>278.8</ele><time>2026-04-12T07:56:10.431Z</time></trkpt><trkpt lat="43.312775" lon="13.3064517"><ele>278.59999999999997</ele><time>2026-04-12T07:56:11.423Z</time></trkpt><trkpt lat="43.3126833" lon="13.3065383"><ele>278.4</ele><time>2026-04-12T07:56:12.428Z</time></trkpt><trkpt lat="43.3125967" lon="13.3066267"><ele>278.2</ele><time>2026-04-12T07:56:13.424Z</time></trkpt><trkpt lat="43.3125183" lon="13.30671"><ele>278.0</ele><time>2026-04-12T07:56:14.425Z</time></trkpt><trkpt lat="43.3124517" lon="13.30679"><ele>278.0</ele><time>2026-04-12T07:56:15.428Z</time></trkpt><trkpt lat="43.312405" lon="13.30688"><ele>278.0</ele><time>2026-04-12T07:56:16.427Z</time></trkpt><trkpt lat="43.3123783" lon="13.30698"><ele>278.0</ele><time>2026-04-12T07:56:17.426Z</time></trkpt><trkpt lat="43.3123667" lon="13.3070833"><ele>278.0</ele><time>2026-04-12T07:56:18.427Z</time></trkpt><trkpt lat="43.31241" lon="13.3072217"><ele>278.0</ele><time>2026-04-12T07:56:20.43Z</time></trkpt><trkpt lat="43.312475" lon="13.3073017"><ele>278.0</ele><time>2026-04-12T07:56:22.428Z</time></trkpt><trkpt lat="43.3125583" lon="13.307385"><ele>278.6666666666667</ele><time>2026-04-12T07:56:24.429Z</time></trkpt><trkpt lat="43.312645" lon="13.30745"><ele>279.33333333333337</ele><time>2026-04-12T07:56:26.427Z</time></trkpt><trkpt lat="43.3127" lon="13.307495"><ele>280.0</ele><time>2026-04-12T07:56:27.43Z</time></trkpt><trkpt lat="43.3127567" lon="13.30756"><ele>280.6666666666667</ele><time>2026-04-12T07:56:28.43Z</time></trkpt><trkpt lat="43.3128083" lon="13.30763"><ele>281.3333333333333</ele><time>2026-04-12T07:56:29.429Z</time></trkpt><trkpt lat="43.31286" lon="13.3076933"><ele>282.0</ele><time>2026-04-12T07:56:30.43Z</time></trkpt><trkpt lat="43.3129217" lon="13.3077683"><ele>282.0</ele><time>2026-04-12T07:56:31.424Z</time></trkpt><trkpt lat="43.31299" lon="13.3078567"><ele>282.0</ele><time>2026-04-12T07:56:32.43Z</time></trkpt><trkpt lat="43.313055" lon="13.30796"><ele>282.0</ele><time>2026-04-12T07:56:33.426Z</time></trkpt><trkpt lat="43.31312" lon="13.3080467"><ele>282.0</ele><time>2026-04-12T07:56:34.427Z</time></trkpt><trkpt lat="43.3131867" lon="13.3081433"><ele>282.0</ele><time>2026-04-12T07:56:35.428Z</time></trkpt><trkpt lat="43.31326" lon="13.30825"><ele>283.25</ele><time>2026-04-12T07:56:36.431Z</time></trkpt><trkpt lat="43.313335" lon="13.3083667"><ele>284.5</ele><time>2026-04-12T07:56:37.43Z</time></trkpt><trkpt lat="43.313405" lon="13.3084933"><ele>285.75</ele><time>2026-04-12T07:56:38.434Z</time></trkpt><trkpt lat="43.31347" lon="13.3086383"><ele>287.0</ele><time>2026-04-12T07:56:39.428Z</time></trkpt><trkpt lat="43.3135233" lon="13.3087883"><ele>287.4</ele><time>2026-04-12T07:56:40.431Z</time></trkpt><trkpt lat="43.3135567" lon="13.30895"><ele>287.79999999999995</ele><time>2026-04-12T07:56:41.434Z</time></trkpt><trkpt lat="43.3135683" lon="13.3091133"><ele>288.2</ele><time>2026-04-12T07:56:42.431Z</time></trkpt><trkpt lat="43.313565" lon="13.3092633"><ele>288.59999999999997</ele><time>2026-04-12T07:56:43.427Z</time></trkpt><trkpt lat="43.3135417" lon="13.30939"><ele>289.0</ele><time>2026-04-12T07:56:44.428Z</time></trkpt><trkpt lat="43.313495" lon="13.3094733"><ele>289.0</ele><time>2026-04-12T07:56:45.428Z</time></trkpt><trkpt lat="43.3134167" lon="13.3095367"><ele>289.0</ele><time>2026-04-12T07:56:46.427Z</time></trkpt><trkpt lat="43.3133283" lon="13.309595"><ele>289.0</ele><time>2026-04-12T07:56:47.428Z</time></trkpt><trkpt lat="43.313235" lon="13.3096333"><ele>289.0</ele><time>2026-04-12T07:56:48.427Z</time></trkpt><trkpt lat="43.3131333" lon="13.3096617"><ele>289.0</ele><time>2026-04-12T07:56:49.427Z</time></trkpt><trkpt lat="43.3130367" lon="13.3096817"><ele>289.5</ele><time>2026-04-12T07:56:50.425Z</time></trkpt><trkpt lat="43.312935" lon="13.3097333"><ele>290.0</ele><time>2026-04-12T07:56:51.422Z</time></trkpt><trkpt lat="43.3128033" lon="13.3097767"><ele>290.5</ele><time>2026-04-12T07:56:52.427Z</time></trkpt><trkpt lat="43.3126733" lon="13.309805"><ele>291.0</ele><time>2026-04-12T07:56:53.427Z</time></trkpt><trkpt lat="43.3125583" lon="13.3098267"><ele>291.0</ele><time>2026-04-12T07:56:54.428Z</time></trkpt><trkpt lat="43.3124583" lon="13.3098433"><ele>291.0</ele><time>2026-04-12T07:56:55.427Z</time></trkpt><trkpt lat="43.3123733" lon="13.309865"><ele>291.0</ele><time>2026-04-12T07:56:56.427Z</time></trkpt><trkpt lat="43.3122867" lon="13.3098933"><ele>291.0</ele><time>2026-04-12T07:56:57.426Z</time></trkpt><trkpt lat="43.3121917" lon="13.30991"><ele>291.0</ele><time>2026-04-12T07:56:58.429Z</time></trkpt><trkpt lat="43.3120867" lon="13.309935"><ele>290.0</ele><time>2026-04-12T07:56:59.426Z</time></trkpt><trkpt lat="43.3119733" lon="13.3099583"><ele>289.0</ele><time>2026-04-12T07:57:00.427Z</time></trkpt><trkpt lat="43.311855" lon="13.30998"><ele>288.0</ele><time>2026-04-12T07:57:01.426Z</time></trkpt><trkpt lat="43.3117333" lon="13.3100017"><ele>287.0</ele><time>2026-04-12T07:57:02.427Z</time></trkpt><trkpt lat="43.3116017" lon="13.310015"><ele>287.0</ele><time>2026-04-12T07:57:03.429Z</time></trkpt><trkpt lat="43.311465" lon="13.31003"><ele>287.0</ele><time>2026-04-12T07:57:04.428Z</time></trkpt><trkpt lat="43.3113217" lon="13.3100483"><ele>287.0</ele><time>2026-04-12T07:57:05.426Z</time></trkpt><trkpt lat="43.31118" lon="13.3100717"><ele>287.0</ele><time>2026-04-12T07:57:06.424Z</time></trkpt><trkpt lat="43.3110283" lon="13.3100833"><ele>285.0</ele><time>2026-04-12T07:57:07.432Z</time></trkpt><trkpt lat="43.31087" lon="13.310095"><ele>283.0</ele><time>2026-04-12T07:57:08.432Z</time></trkpt><trkpt lat="43.31071" lon="13.3101133"><ele>281.0</ele><time>2026-04-12T07:57:09.431Z</time></trkpt><trkpt lat="43.31055" lon="13.3101317"><ele>279.6666666666667</ele><time>2026-04-12T07:57:10.424Z</time></trkpt><trkpt lat="43.3103867" lon="13.31015"><ele>278.3333333333333</ele><time>2026-04-12T07:57:11.425Z</time></trkpt><trkpt lat="43.3102217" lon="13.3101633"><ele>277.0</ele><time>2026-04-12T07:57:12.431Z</time></trkpt><trkpt lat="43.31005" lon="13.31019"><ele>277.0</ele><time>2026-04-12T07:57:13.43Z</time></trkpt><trkpt lat="43.3098783" lon="13.31023"><ele>277.0</ele><time>2026-04-12T07:57:14.433Z</time></trkpt><trkpt lat="43.3097033" lon="13.31029"><ele>277.0</ele><time>2026-04-12T07:57:15.425Z</time></trkpt><trkpt lat="43.3095383" lon="13.310385"><ele>277.0</ele><time>2026-04-12T07:57:16.429Z</time></trkpt><trkpt lat="43.30938" lon="13.3104983"><ele>277.0</ele><time>2026-04-12T07:57:17.423Z</time></trkpt><trkpt lat="43.30923" lon="13.3106333"><ele>277.0</ele><time>2026-04-12T07:57:18.427Z</time></trkpt><trkpt lat="43.3090933" lon="13.3107583"><ele>277.0</ele><time>2026-04-12T07:57:19.429Z</time></trkpt><trkpt lat="43.3089583" lon="13.310875"><ele>277.0</ele><time>2026-04-12T07:57:20.429Z</time></trkpt><trkpt lat="43.3088333" lon="13.3109933"><ele>277.0</ele><time>2026-04-12T07:57:21.426Z</time></trkpt><trkpt lat="43.308705" lon="13.31111"><ele>275.5</ele><time>2026-04-12T07:57:22.431Z</time></trkpt><trkpt lat="43.3085767" lon="13.311185"><ele>274.0</ele><time>2026-04-12T07:57:23.428Z</time></trkpt><trkpt lat="43.308435" lon="13.3112017"><ele>272.5</ele><time>2026-04-12T07:57:24.429Z</time></trkpt><trkpt lat="43.30829" lon="13.3111567"><ele>271.0</ele><time>2026-04-12T07:57:25.426Z</time></trkpt><trkpt lat="43.3081417" lon="13.311085"><ele>271.3333333333333</ele><time>2026-04-12T07:57:26.431Z</time></trkpt><trkpt lat="43.307995" lon="13.31099"><ele>271.6666666666667</ele><time>2026-04-12T07:57:27.428Z</time></trkpt><trkpt lat="43.3078517" lon="13.3108883"><ele>272.0</ele><time>2026-04-12T07:57:28.428Z</time></trkpt><trkpt lat="43.3077133" lon="13.3107867"><ele>272.0</ele><time>2026-04-12T07:57:29.424Z</time></trkpt><trkpt lat="43.307575" lon="13.3106917"><ele>272.0</ele><time>2026-04-12T07:57:30.426Z</time></trkpt><trkpt lat="43.3074367" lon="13.3106017"><ele>272.0</ele><time>2026-04-12T07:57:31.426Z</time></trkpt><trkpt lat="43.3073" lon="13.3105167"><ele>269.25</ele><time>2026-04-12T07:57:32.423Z</time></trkpt><trkpt lat="43.30717" lon="13.31044"><ele>266.5</ele><time>2026-04-12T07:57:33.43Z</time></trkpt><trkpt lat="43.30704" lon="13.3104083"><ele>263.75</ele><time>2026-04-12T07:57:34.429Z</time></trkpt><trkpt lat="43.3069067" lon="13.3104217"><ele>261.0</ele><time>2026-04-12T07:57:35.43Z</time></trkpt><trkpt lat="43.3067683" lon="13.31048"><ele>261.0</ele><time>2026-04-12T07:57:36.433Z</time></trkpt><trkpt lat="43.3066367" lon="13.3105683"><ele>261.0</ele><time>2026-04-12T07:57:37.426Z</time></trkpt><trkpt lat="43.3065067" lon="13.31066"><ele>261.0</ele><time>2026-04-12T07:57:38.427Z</time></trkpt><trkpt lat="43.3063817" lon="13.310745"><ele>261.0</ele><time>2026-04-12T07:57:39.43Z</time></trkpt><trkpt lat="43.3062583" lon="13.3108317"><ele>260.25</ele><time>2026-04-12T07:57:40.427Z</time></trkpt><trkpt lat="43.3061367" lon="13.3109117"><ele>259.5</ele><time>2026-04-12T07:57:41.426Z</time></trkpt><trkpt lat="43.306025" lon="13.3110017"><ele>258.75</ele><time>2026-04-12T07:57:42.433Z</time></trkpt><trkpt lat="43.3059367" lon="13.311125"><ele>258.0</ele><time>2026-04-12T07:57:43.428Z</time></trkpt><trkpt lat="43.3058783" lon="13.3112783"><ele>257.75</ele><time>2026-04-12T07:57:44.427Z</time></trkpt><trkpt lat="43.3058533" lon="13.3114633"><ele>257.5</ele><time>2026-04-12T07:57:45.423Z</time></trkpt><trkpt lat="43.305845" lon="13.3116683"><ele>257.25</ele><time>2026-04-12T07:57:46.424Z</time></trkpt><trkpt lat="43.3058433" lon="13.3118767"><ele>257.0</ele><time>2026-04-12T07:57:47.427Z</time></trkpt><trkpt lat="43.3058417" lon="13.3120717"><ele>257.25</ele><time>2026-04-12T07:57:48.428Z</time></trkpt><trkpt lat="43.3058317" lon="13.312255"><ele>257.5</ele><time>2026-04-12T07:57:49.424Z</time></trkpt><trkpt lat="43.3058017" lon="13.31243"><ele>257.75</ele><time>2026-04-12T07:57:50.426Z</time></trkpt><trkpt lat="43.3057317" lon="13.3125733"><ele>258.0</ele><time>2026-04-12T07:57:51.43Z</time></trkpt><trkpt lat="43.30563" lon="13.312665"><ele>255.0</ele><time>2026-04-12T07:57:52.434Z</time></trkpt><trkpt lat="43.3054867" lon="13.312695"><ele>252.0</ele><time>2026-04-12T07:57:53.424Z</time></trkpt><trkpt lat="43.3053317" lon="13.3126983"><ele>249.0</ele><time>2026-04-12T07:57:54.427Z</time></trkpt><trkpt lat="43.3051717" lon="13.3127017"><ele>249.0</ele><time>2026-04-12T07:57:55.427Z</time></trkpt><trkpt lat="43.3050117" lon="13.3127083"><ele>249.0</ele><time>2026-04-12T07:57:56.426Z</time></trkpt><trkpt lat="43.30485" lon="13.312725"><ele>249.0</ele><time>2026-04-12T07:57:57.422Z</time></trkpt><trkpt lat="43.3046933" lon="13.3127433"><ele>248.0</ele><time>2026-04-12T07:57:58.422Z</time></trkpt><trkpt lat="43.3045317" lon="13.3127633"><ele>247.0</ele><time>2026-04-12T07:57:59.424Z</time></trkpt><trkpt lat="43.304365" lon="13.3127967"><ele>246.0</ele><time>2026-04-12T07:58:00.422Z</time></trkpt><trkpt lat="43.3042017" lon="13.31287"><ele>246.0</ele><time>2026-04-12T07:58:01.423Z</time></trkpt><trkpt lat="43.3040567" lon="13.31297"><ele>246.0</ele><time>2026-04-12T07:58:02.423Z</time></trkpt><trkpt lat="43.3039233" lon="13.3130867"><ele>246.0</ele><time>2026-04-12T07:58:03.423Z</time></trkpt><trkpt lat="43.3037867" lon="13.313205"><ele>244.66666666666669</ele><time>2026-04-12T07:58:04.424Z</time></trkpt><trkpt lat="43.303645" lon="13.3133117"><ele>243.33333333333334</ele><time>2026-04-12T07:58:05.427Z</time></trkpt><trkpt lat="43.303495" lon="13.3134117"><ele>242.0</ele><time>2026-04-12T07:58:06.427Z</time></trkpt><trkpt lat="43.3033267" lon="13.3134533"><ele>242.0</ele><time>2026-04-12T07:58:07.425Z</time></trkpt><trkpt lat="43.3031567" lon="13.3134667"><ele>242.0</ele><time>2026-04-12T07:58:08.427Z</time></trkpt><trkpt lat="43.3029917" lon="13.313465"><ele>242.0</ele><time>2026-04-12T07:58:09.422Z</time></trkpt><trkpt lat="43.3028317" lon="13.31346"><ele>241.0</ele><time>2026-04-12T07:58:10.429Z</time></trkpt><trkpt lat="43.3026767" lon="13.3134533"><ele>240.0</ele><time>2026-04-12T07:58:11.423Z</time></trkpt><trkpt lat="43.3025217" lon="13.3134433"><ele>239.0</ele><time>2026-04-12T07:58:12.426Z</time></trkpt><trkpt lat="43.3023633" lon="13.3134317"><ele>236.66666666666669</ele><time>2026-04-12T07:58:13.428Z</time></trkpt><trkpt lat="43.3022033" lon="13.313475"><ele>234.33333333333331</ele><time>2026-04-12T07:58:14.43Z</time></trkpt><trkpt lat="43.3020567" lon="13.3135683"><ele>232.0</ele><time>2026-04-12T07:58:15.428Z</time></trkpt><trkpt lat="43.301925" lon="13.3137167"><ele>232.0</ele><time>2026-04-12T07:58:16.431Z</time></trkpt><trkpt lat="43.3018" lon="13.3138833"><ele>232.0</ele><time>2026-04-12T07:58:17.427Z</time></trkpt><trkpt lat="43.3016733" lon="13.3140533"><ele>232.0</ele><time>2026-04-12T07:58:18.423Z</time></trkpt><trkpt lat="43.3015383" lon="13.3142283"><ele>230.0</ele><time>2026-04-12T07:58:19.43Z</time></trkpt><trkpt lat="43.3014017" lon="13.3144017"><ele>228.0</ele><time>2026-04-12T07:58:20.434Z</time></trkpt><trkpt lat="43.301265" lon="13.3145767"><ele>226.0</ele><time>2026-04-12T07:58:21.436Z</time></trkpt><trkpt lat="43.3011283" lon="13.314745"><ele>226.0</ele><time>2026-04-12T07:58:22.427Z</time></trkpt><trkpt lat="43.3009933" lon="13.314915"><ele>226.0</ele><time>2026-04-12T07:58:23.43Z</time></trkpt><trkpt lat="43.3008567" lon="13.31509"><ele>226.0</ele><time>2026-04-12T07:58:24.43Z</time></trkpt><trkpt lat="43.3007217" lon="13.315265"><ele>226.0</ele><time>2026-04-12T07:58:25.428Z</time></trkpt><trkpt lat="43.300585" lon="13.3154383"><ele>226.0</ele><time>2026-04-12T07:58:26.431Z</time></trkpt><trkpt lat="43.30045" lon="13.315615"><ele>226.0</ele><time>2026-04-12T07:58:27.426Z</time></trkpt><trkpt lat="43.3003117" lon="13.315785"><ele>223.66666666666666</ele><time>2026-04-12T07:58:28.433Z</time></trkpt><trkpt lat="43.3001717" lon="13.3159517"><ele>221.33333333333331</ele><time>2026-04-12T07:58:29.431Z</time></trkpt><trkpt lat="43.3000283" lon="13.31612"><ele>219.0</ele><time>2026-04-12T07:58:30.428Z</time></trkpt><trkpt lat="43.2998883" lon="13.3162867"><ele>220.33333333333331</ele><time>2026-04-12T07:58:31.429Z</time></trkpt><trkpt lat="43.2997517" lon="13.3164583"><ele>221.66666666666666</ele><time>2026-04-12T07:58:32.427Z</time></trkpt><trkpt lat="43.2996183" lon="13.316625"><ele>223.0</ele><time>2026-04-12T07:58:33.426Z</time></trkpt><trkpt lat="43.2994867" lon="13.3167883"><ele>221.0</ele><time>2026-04-12T07:58:34.428Z</time></trkpt><trkpt lat="43.2993533" lon="13.3169533"><ele>219.0</ele><time>2026-04-12T07:58:35.427Z</time></trkpt><trkpt lat="43.2992233" lon="13.3171117"><ele>217.0</ele><time>2026-04-12T07:58:36.429Z</time></trkpt><trkpt lat="43.2991" lon="13.3172717"><ele>217.0</ele><time>2026-04-12T07:58:37.424Z</time></trkpt><trkpt lat="43.298985" lon="13.3174183"><ele>217.0</ele><time>2026-04-12T07:58:38.431Z</time></trkpt><trkpt lat="43.2988933" lon="13.3175767"><ele>217.0</ele><time>2026-04-12T07:58:39.429Z</time></trkpt><trkpt lat="43.2988367" lon="13.317735"><ele>217.0</ele><time>2026-04-12T07:58:40.428Z</time></trkpt><trkpt lat="43.2988267" lon="13.3179083"><ele>216.5</ele><time>2026-04-12T07:58:41.427Z</time></trkpt><trkpt lat="43.2988633" lon="13.3181"><ele>216.0</ele><time>2026-04-12T07:58:42.427Z</time></trkpt><trkpt lat="43.2988983" lon="13.318295"><ele>215.5</ele><time>2026-04-12T07:58:43.426Z</time></trkpt><trkpt lat="43.2989217" lon="13.3184867"><ele>215.0</ele><time>2026-04-12T07:58:44.427Z</time></trkpt><trkpt lat="43.2989017" lon="13.3186617"><ele>213.25</ele><time>2026-04-12T07:58:45.427Z</time></trkpt><trkpt lat="43.2988333" lon="13.3188117"><ele>211.5</ele><time>2026-04-12T07:58:46.428Z</time></trkpt><trkpt lat="43.2987317" lon="13.3189217"><ele>209.75</ele><time>2026-04-12T07:58:47.428Z</time></trkpt><trkpt lat="43.2985883" lon="13.318985"><ele>208.0</ele><time>2026-04-12T07:58:48.427Z</time></trkpt><trkpt lat="43.2984233" lon="13.3190283"><ele>208.0</ele><time>2026-04-12T07:58:49.43Z</time></trkpt><trkpt lat="43.298245" lon="13.319065"><ele>208.0</ele><time>2026-04-12T07:58:50.428Z</time></trkpt><trkpt lat="43.2980633" lon="13.319105"><ele>208.0</ele><time>2026-04-12T07:58:51.425Z</time></trkpt><trkpt lat="43.2978783" lon="13.3191433"><ele>206.0</ele><time>2026-04-12T07:58:52.427Z</time></trkpt><trkpt lat="43.2976983" lon="13.3191717"><ele>204.0</ele><time>2026-04-12T07:58:53.425Z</time></trkpt><trkpt lat="43.2975267" lon="13.3191833"><ele>202.0</ele><time>2026-04-12T07:58:54.428Z</time></trkpt><trkpt lat="43.29736" lon="13.3191867"><ele>198.33333333333331</ele><time>2026-04-12T07:58:55.432Z</time></trkpt><trkpt lat="43.297195" lon="13.319205"><ele>194.66666666666666</ele><time>2026-04-12T07:58:56.423Z</time></trkpt><trkpt lat="43.29703" lon="13.3192517"><ele>191.0</ele><time>2026-04-12T07:58:57.429Z</time></trkpt><trkpt lat="43.2968833" lon="13.319355"><ele>191.0</ele><time>2026-04-12T07:58:58.427Z</time></trkpt><trkpt lat="43.2967483" lon="13.3195083"><ele>191.0</ele><time>2026-04-12T07:58:59.423Z</time></trkpt><trkpt lat="43.29663" lon="13.319685"><ele>191.0</ele><time>2026-04-12T07:59:00.427Z</time></trkpt><trkpt lat="43.29653" lon="13.3198917"><ele>192.66666666666666</ele><time>2026-04-12T07:59:01.428Z</time></trkpt><trkpt lat="43.2964383" lon="13.3201117"><ele>194.33333333333331</ele><time>2026-04-12T07:59:02.43Z</time></trkpt><trkpt lat="43.2963517" lon="13.3203417"><ele>196.0</ele><time>2026-04-12T07:59:03.43Z</time></trkpt><trkpt lat="43.2962633" lon="13.320575"><ele>192.33333333333331</ele><time>2026-04-12T07:59:04.427Z</time></trkpt><trkpt lat="43.296175" lon="13.3208083"><ele>188.66666666666666</ele><time>2026-04-12T07:59:05.427Z</time></trkpt><trkpt lat="43.2960817" lon="13.321035"><ele>185.0</ele><time>2026-04-12T07:59:06.429Z</time></trkpt><trkpt lat="43.2959867" lon="13.32126"><ele>186.66666666666666</ele><time>2026-04-12T07:59:07.434Z</time></trkpt><trkpt lat="43.29588" lon="13.3214767"><ele>188.33333333333334</ele><time>2026-04-12T07:59:08.43Z</time></trkpt><trkpt lat="43.295765" lon="13.3216883"><ele>190.0</ele><time>2026-04-12T07:59:09.43Z</time></trkpt><trkpt lat="43.2956383" lon="13.321885"><ele>188.33333333333334</ele><time>2026-04-12T07:59:10.426Z</time></trkpt><trkpt lat="43.2955" lon="13.322065"><ele>186.66666666666666</ele><time>2026-04-12T07:59:11.434Z</time></trkpt><trkpt lat="43.2953533" lon="13.32223"><ele>185.0</ele><time>2026-04-12T07:59:12.43Z</time></trkpt><trkpt lat="43.29519" lon="13.32237"><ele>185.0</ele><time>2026-04-12T07:59:13.432Z</time></trkpt><trkpt lat="43.2950267" lon="13.3225133"><ele>185.0</ele><time>2026-04-12T07:59:14.429Z</time></trkpt><trkpt lat="43.29486" lon="13.3226467"><ele>185.0</ele><time>2026-04-12T07:59:15.432Z</time></trkpt><trkpt lat="43.2946917" lon="13.32278"><ele>184.33333333333331</ele><time>2026-04-12T07:59:16.429Z</time></trkpt><trkpt lat="43.2945233" lon="13.3229117"><ele>183.66666666666666</ele><time>2026-04-12T07:59:17.43Z</time></trkpt><trkpt lat="43.2943583" lon="13.3230467"><ele>183.0</ele><time>2026-04-12T07:59:18.429Z</time></trkpt><trkpt lat="43.2941967" lon="13.323185"><ele>183.0</ele><time>2026-04-12T07:59:19.428Z</time></trkpt><trkpt lat="43.2940333" lon="13.3233217"><ele>183.0</ele><time>2026-04-12T07:59:20.434Z</time></trkpt><trkpt lat="43.293865" lon="13.323455"><ele>183.0</ele><time>2026-04-12T07:59:21.429Z</time></trkpt><trkpt lat="43.2937033" lon="13.3236017"><ele>180.33333333333334</ele><time>2026-04-12T07:59:22.431Z</time></trkpt><trkpt lat="43.2935367" lon="13.3237417"><ele>177.66666666666669</ele><time>2026-04-12T07:59:23.428Z</time></trkpt><trkpt lat="43.2933717" lon="13.323885"><ele>175.0</ele><time>2026-04-12T07:59:24.431Z</time></trkpt><trkpt lat="43.293205" lon="13.3240233"><ele>170.33333333333334</ele><time>2026-04-12T07:59:25.432Z</time></trkpt><trkpt lat="43.2930467" lon="13.3241683"><ele>165.66666666666666</ele><time>2026-04-12T07:59:26.43Z</time></trkpt><trkpt lat="43.2928917" lon="13.324315"><ele>161.0</ele><time>2026-04-12T07:59:27.431Z</time></trkpt><trkpt lat="43.2927533" lon="13.3244817"><ele>161.0</ele><time>2026-04-12T07:59:28.434Z</time></trkpt><trkpt lat="43.29263" lon="13.324675"><ele>161.0</ele><time>2026-04-12T07:59:29.429Z</time></trkpt><trkpt lat="43.2925283" lon="13.3248933"><ele>161.0</ele><time>2026-04-12T07:59:30.432Z</time></trkpt><trkpt lat="43.2924483" lon="13.3251267"><ele>163.33333333333331</ele><time>2026-04-12T07:59:31.434Z</time></trkpt><trkpt lat="43.2923783" lon="13.3253683"><ele>165.66666666666666</ele><time>2026-04-12T07:59:32.428Z</time></trkpt><trkpt lat="43.2923167" lon="13.3256133"><ele>168.0</ele><time>2026-04-12T07:59:33.428Z</time></trkpt><trkpt lat="43.2922617" lon="13.3258683"><ele>167.66666666666666</ele><time>2026-04-12T07:59:34.429Z</time></trkpt><trkpt lat="43.2922383" lon="13.3261283"><ele>167.33333333333331</ele><time>2026-04-12T07:59:35.429Z</time></trkpt><trkpt lat="43.292245" lon="13.32639"><ele>167.0</ele><time>2026-04-12T07:59:36.432Z</time></trkpt><trkpt lat="43.29227" lon="13.326645"><ele>167.0</ele><time>2026-04-12T07:59:37.431Z</time></trkpt><trkpt lat="43.292305" lon="13.3269"><ele>167.0</ele><time>2026-04-12T07:59:38.433Z</time></trkpt><trkpt lat="43.2923517" lon="13.32715"><ele>167.0</ele><time>2026-04-12T07:59:39.427Z</time></trkpt><trkpt lat="43.2924083" lon="13.3273967"><ele>165.33333333333331</ele><time>2026-04-12T07:59:40.429Z</time></trkpt><trkpt lat="43.2924767" lon="13.3276367"><ele>163.66666666666666</ele><time>2026-04-12T07:59:41.431Z</time></trkpt><trkpt lat="43.2925583" lon="13.3278633"><ele>162.0</ele><time>2026-04-12T07:59:42.431Z</time></trkpt><trkpt lat="43.2926483" lon="13.3280733"><ele>162.0</ele><time>2026-04-12T07:59:43.431Z</time></trkpt><trkpt lat="43.2927267" lon="13.3282767"><ele>162.0</ele><time>2026-04-12T07:59:44.428Z</time></trkpt><trkpt lat="43.2927833" lon="13.3284783"><ele>162.0</ele><time>2026-04-12T07:59:45.427Z</time></trkpt><trkpt lat="43.2928033" lon="13.3286817"><ele>162.0</ele><time>2026-04-12T07:59:46.429Z</time></trkpt><trkpt lat="43.29278" lon="13.3288817"><ele>162.0</ele><time>2026-04-12T07:59:47.429Z</time></trkpt><trkpt lat="43.2927117" lon="13.3290733"><ele>162.0</ele><time>2026-04-12T07:59:48.434Z</time></trkpt><trkpt lat="43.2925933" lon="13.3292367"><ele>161.0</ele><time>2026-04-12T07:59:49.428Z</time></trkpt><trkpt lat="43.2924583" lon="13.3293917"><ele>160.0</ele><time>2026-04-12T07:59:50.429Z</time></trkpt><trkpt lat="43.2923117" lon="13.3295483"><ele>159.0</ele><time>2026-04-12T07:59:51.431Z</time></trkpt><trkpt lat="43.2921683" lon="13.32972"><ele>156.66666666666666</ele><time>2026-04-12T07:59:52.43Z</time></trkpt><trkpt lat="43.2920267" lon="13.32991"><ele>154.33333333333331</ele><time>2026-04-12T07:59:53.425Z</time></trkpt><trkpt lat="43.29188" lon="13.3300983"><ele>152.0</ele><time>2026-04-12T07:59:54.425Z</time></trkpt><trkpt lat="43.2917317" lon="13.3302817"><ele>152.0</ele><time>2026-04-12T07:59:55.433Z</time></trkpt><trkpt lat="43.29158" lon="13.3304617"><ele>152.0</ele><time>2026-04-12T07:59:56.432Z</time></trkpt><trkpt lat="43.2914267" lon="13.33064"><ele>152.0</ele><time>2026-04-12T07:59:57.429Z</time></trkpt><trkpt lat="43.291275" lon="13.3308133"><ele>151.0</ele><time>2026-04-12T07:59:58.429Z</time></trkpt><trkpt lat="43.2911233" lon="13.3309833"><ele>150.0</ele><time>2026-04-12T07:59:59.427Z</time></trkpt><trkpt lat="43.2909733" lon="13.3311517"><ele>149.0</ele><time>2026-04-12T08:00:00.43Z</time></trkpt><trkpt lat="43.2908233" lon="13.3313217"><ele>149.0</ele><time>2026-04-12T08:00:01.428Z</time></trkpt><trkpt lat="43.2906767" lon="13.331495"><ele>149.0</ele><time>2026-04-12T08:00:02.433Z</time></trkpt><trkpt lat="43.2905333" lon="13.331665"><ele>149.0</ele><time>2026-04-12T08:00:03.43Z</time></trkpt><trkpt lat="43.29039" lon="13.331825"><ele>149.0</ele><time>2026-04-12T08:00:04.424Z</time></trkpt><trkpt lat="43.290255" lon="13.331985"><ele>149.0</ele><time>2026-04-12T08:00:05.429Z</time></trkpt><trkpt lat="43.290125" lon="13.3321133"><ele>149.0</ele><time>2026-04-12T08:00:06.429Z</time></trkpt><trkpt lat="43.289995" lon="13.3322367"><ele>149.0</ele><time>2026-04-12T08:00:07.429Z</time></trkpt><trkpt lat="43.2898733" lon="13.3323583"><ele>149.0</ele><time>2026-04-12T08:00:08.43Z</time></trkpt><trkpt lat="43.2897517" lon="13.3324733"><ele>149.0</ele><time>2026-04-12T08:00:09.467Z</time></trkpt><trkpt lat="43.2896367" lon="13.3325917"><ele>149.0</ele><time>2026-04-12T08:00:10.428Z</time></trkpt><trkpt lat="43.2895217" lon="13.3326933"><ele>149.25</ele><time>2026-04-12T08:00:11.429Z</time></trkpt><trkpt lat="43.28941" lon="13.33279"><ele>149.5</ele><time>2026-04-12T08:00:12.437Z</time></trkpt><trkpt lat="43.2893083" lon="13.3328783"><ele>149.75</ele><time>2026-04-12T08:00:13.432Z</time></trkpt><trkpt lat="43.2892117" lon="13.3329583"><ele>150.0</ele><time>2026-04-12T08:00:14.433Z</time></trkpt><trkpt lat="43.2891167" lon="13.3330483"><ele>149.8</ele><time>2026-04-12T08:00:15.428Z</time></trkpt><trkpt lat="43.289025" lon="13.3331333"><ele>149.6</ele><time>2026-04-12T08:00:16.432Z</time></trkpt><trkpt lat="43.2889367" lon="13.3332167"><ele>149.4</ele><time>2026-04-12T08:00:17.426Z</time></trkpt><trkpt lat="43.2888533" lon="13.3332983"><ele>149.2</ele><time>2026-04-12T08:00:18.43Z</time></trkpt><trkpt lat="43.288775" lon="13.333375"><ele>149.0</ele><time>2026-04-12T08:00:19.425Z</time></trkpt><trkpt lat="43.2886917" lon="13.33345"><ele>148.5</ele><time>2026-04-12T08:00:20.429Z</time></trkpt><trkpt lat="43.2886067" lon="13.333515"><ele>148.0</ele><time>2026-04-12T08:00:21.429Z</time></trkpt><trkpt lat="43.2885167" lon="13.3335667"><ele>147.5</ele><time>2026-04-12T08:00:22.428Z</time></trkpt><trkpt lat="43.2884283" lon="13.3336083"><ele>147.0</ele><time>2026-04-12T08:00:23.428Z</time></trkpt><trkpt lat="43.288345" lon="13.3336317"><ele>146.5</ele><time>2026-04-12T08:00:24.428Z</time></trkpt><trkpt lat="43.28828" lon="13.33365"><ele>146.0</ele><time>2026-04-12T08:00:25.431Z</time></trkpt><trkpt lat="43.288215" lon="13.3336583"><ele>146.0</ele><time>2026-04-12T08:00:27.431Z</time></trkpt><trkpt lat="43.2881133" lon="13.33362"><ele>146.0</ele><time>2026-04-12T08:00:31.43Z</time></trkpt><trkpt lat="43.2879933" lon="13.3335833"><ele>146.0</ele><time>2026-04-12T08:00:33.431Z</time></trkpt><trkpt lat="43.2879217" lon="13.3335583"><ele>146.0</ele><time>2026-04-12T08:00:34.429Z</time></trkpt><trkpt lat="43.2878467" lon="13.3335167"><ele>146.0</ele><time>2026-04-12T08:00:35.433Z</time></trkpt><trkpt lat="43.2877633" lon="13.333455"><ele>145.8</ele><time>2026-04-12T08:00:36.434Z</time></trkpt><trkpt lat="43.2876833" lon="13.3333767"><ele>145.6</ele><time>2026-04-12T08:00:37.431Z</time></trkpt><trkpt lat="43.2876117" lon="13.333285"><ele>145.4</ele><time>2026-04-12T08:00:38.428Z</time></trkpt><trkpt lat="43.2875433" lon="13.333195"><ele>145.2</ele><time>2026-04-12T08:00:39.426Z</time></trkpt><trkpt lat="43.2874733" lon="13.3331"><ele>145.0</ele><time>2026-04-12T08:00:40.43Z</time></trkpt><trkpt lat="43.2874083" lon="13.3330083"><ele>145.0</ele><time>2026-04-12T08:00:41.426Z</time></trkpt><trkpt lat="43.287345" lon="13.3329183"><ele>145.0</ele><time>2026-04-12T08:00:42.432Z</time></trkpt><trkpt lat="43.28728" lon="13.3328317"><ele>145.0</ele><time>2026-04-12T08:00:43.439Z</time></trkpt><trkpt lat="43.2872167" lon="13.33275"><ele>145.0</ele><time>2026-04-12T08:00:44.437Z</time></trkpt><trkpt lat="43.2871533" lon="13.3326767"><ele>145.0</ele><time>2026-04-12T08:00:45.433Z</time></trkpt><trkpt lat="43.2870883" lon="13.332615"><ele>145.0</ele><time>2026-04-12T08:00:46.431Z</time></trkpt><trkpt lat="43.2870217" lon="13.3325667"><ele>145.16666666666669</ele><time>2026-04-12T08:00:47.427Z</time></trkpt><trkpt lat="43.2869617" lon="13.3325283"><ele>145.33333333333334</ele><time>2026-04-12T08:00:48.433Z</time></trkpt><trkpt lat="43.286905" lon="13.332485"><ele>145.5</ele><time>2026-04-12T08:00:49.43Z</time></trkpt><trkpt lat="43.28685" lon="13.3324367"><ele>145.66666666666666</ele><time>2026-04-12T08:00:50.432Z</time></trkpt><trkpt lat="43.28675" lon="13.3323517"><ele>145.83333333333331</ele><time>2026-04-12T08:00:52.433Z</time></trkpt><trkpt lat="43.28663" lon="13.3323367"><ele>146.0</ele><time>2026-04-12T08:00:54.43Z</time></trkpt><trkpt lat="43.2865533" lon="13.3324233"><ele>146.0</ele><time>2026-04-12T08:00:55.432Z</time></trkpt><trkpt lat="43.2864683" lon="13.3325317"><ele>146.0</ele><time>2026-04-12T08:00:56.431Z</time></trkpt><trkpt lat="43.28636" lon="13.33263"><ele>146.0</ele><time>2026-04-12T08:00:57.427Z</time></trkpt><trkpt lat="43.2862417" lon="13.3327017"><ele>146.0</ele><time>2026-04-12T08:00:58.426Z</time></trkpt><trkpt lat="43.2861117" lon="13.332765"><ele>145.66666666666666</ele><time>2026-04-12T08:00:59.424Z</time></trkpt><trkpt lat="43.2859667" lon="13.3328367"><ele>145.33333333333334</ele><time>2026-04-12T08:01:00.433Z</time></trkpt><trkpt lat="43.28581" lon="13.3329033"><ele>145.0</ele><time>2026-04-12T08:01:01.431Z</time></trkpt><trkpt lat="43.285655" lon="13.3329617"><ele>144.0</ele><time>2026-04-12T08:01:02.424Z</time></trkpt><trkpt lat="43.2854983" lon="13.333005"><ele>143.0</ele><time>2026-04-12T08:01:03.427Z</time></trkpt><trkpt lat="43.28533" lon="13.333025"><ele>142.0</ele><time>2026-04-12T08:01:04.431Z</time></trkpt><trkpt lat="43.2851517" lon="13.333025"><ele>142.0</ele><time>2026-04-12T08:01:05.431Z</time></trkpt><trkpt lat="43.2849783" lon="13.3330067"><ele>142.0</ele><time>2026-04-12T08:01:06.432Z</time></trkpt><trkpt lat="43.284805" lon="13.3329833"><ele>142.0</ele><time>2026-04-12T08:01:07.43Z</time></trkpt><trkpt lat="43.2846317" lon="13.3329617"><ele>141.66666666666669</ele><time>2026-04-12T08:01:08.433Z</time></trkpt><trkpt lat="43.284465" lon="13.33294"><ele>141.33333333333334</ele><time>2026-04-12T08:01:09.432Z</time></trkpt><trkpt lat="43.2843033" lon="13.3329367"><ele>141.0</ele><time>2026-04-12T08:01:10.43Z</time></trkpt><trkpt lat="43.2841417" lon="13.332945"><ele>141.0</ele><time>2026-04-12T08:01:11.433Z</time></trkpt><trkpt lat="43.28399" lon="13.3329633"><ele>141.0</ele><time>2026-04-12T08:01:12.426Z</time></trkpt><trkpt lat="43.2838467" lon="13.3329983"><ele>141.0</ele><time>2026-04-12T08:01:13.425Z</time></trkpt><trkpt lat="43.2837167" lon="13.3330567"><ele>141.0</ele><time>2026-04-12T08:01:14.431Z</time></trkpt><trkpt lat="43.2835933" lon="13.33314"><ele>140.25</ele><time>2026-04-12T08:01:15.427Z</time></trkpt><trkpt lat="43.2834733" lon="13.3332467"><ele>139.5</ele><time>2026-04-12T08:01:16.43Z</time></trkpt><trkpt lat="43.2833567" lon="13.33335"><ele>138.75</ele><time>2026-04-12T08:01:17.428Z</time></trkpt><trkpt lat="43.283245" lon="13.3334567"><ele>138.0</ele><time>2026-04-12T08:01:18.435Z</time></trkpt><trkpt lat="43.2831417" lon="13.33356"><ele>138.20000000000002</ele><time>2026-04-12T08:01:19.437Z</time></trkpt><trkpt lat="43.2830517" lon="13.3336533"><ele>138.4</ele><time>2026-04-12T08:01:20.433Z</time></trkpt><trkpt lat="43.2829633" lon="13.3337333"><ele>138.60000000000002</ele><time>2026-04-12T08:01:21.432Z</time></trkpt><trkpt lat="43.282875" lon="13.33382"><ele>138.8</ele><time>2026-04-12T08:01:22.433Z</time></trkpt><trkpt lat="43.28278" lon="13.3339083"><ele>139.0</ele><time>2026-04-12T08:01:23.429Z</time></trkpt><trkpt lat="43.2826883" lon="13.3339967"><ele>140.5</ele><time>2026-04-12T08:01:24.429Z</time></trkpt><trkpt lat="43.2825983" lon="13.3340867"><ele>142.0</ele><time>2026-04-12T08:01:25.426Z</time></trkpt><trkpt lat="43.2825083" lon="13.3341767"><ele>143.5</ele><time>2026-04-12T08:01:26.431Z</time></trkpt><trkpt lat="43.2824183" lon="13.33428"><ele>145.0</ele><time>2026-04-12T08:01:27.428Z</time></trkpt><trkpt lat="43.28232" lon="13.33437"><ele>146.0</ele><time>2026-04-12T08:01:28.429Z</time></trkpt><trkpt lat="43.2822067" lon="13.3344317"><ele>147.0</ele><time>2026-04-12T08:01:29.435Z</time></trkpt><trkpt lat="43.2820717" lon="13.3344717"><ele>148.0</ele><time>2026-04-12T08:01:30.431Z</time></trkpt><trkpt lat="43.2819167" lon="13.334485"><ele>149.0</ele><time>2026-04-12T08:01:31.433Z</time></trkpt><trkpt lat="43.2817533" lon="13.3344883"><ele>149.0</ele><time>2026-04-12T08:01:32.43Z</time></trkpt><trkpt lat="43.28159" lon="13.33449"><ele>149.0</ele><time>2026-04-12T08:01:33.429Z</time></trkpt><trkpt lat="43.2814233" lon="13.33449"><ele>149.0</ele><time>2026-04-12T08:01:34.431Z</time></trkpt><trkpt lat="43.28125" lon="13.3345017"><ele>150.66666666666666</ele><time>2026-04-12T08:01:35.425Z</time></trkpt><trkpt lat="43.2810717" lon="13.3345133"><ele>152.33333333333334</ele><time>2026-04-12T08:01:36.43Z</time></trkpt><trkpt lat="43.280885" lon="13.3345133"><ele>154.0</ele><time>2026-04-12T08:01:37.43Z</time></trkpt><trkpt lat="43.2806983" lon="13.334525"><ele>156.0</ele><time>2026-04-12T08:01:38.435Z</time></trkpt><trkpt lat="43.2805117" lon="13.33454"><ele>158.0</ele><time>2026-04-12T08:01:39.432Z</time></trkpt><trkpt lat="43.28032" lon="13.3345483"><ele>160.0</ele><time>2026-04-12T08:01:40.433Z</time></trkpt><trkpt lat="43.28012" lon="13.33456"><ele>160.0</ele><time>2026-04-12T08:01:41.43Z</time></trkpt><trkpt lat="43.2799083" lon="13.334575"><ele>160.0</ele><time>2026-04-12T08:01:42.431Z</time></trkpt><trkpt lat="43.2796933" lon="13.33459"><ele>160.0</ele><time>2026-04-12T08:01:43.427Z</time></trkpt><trkpt lat="43.279475" lon="13.3346017"><ele>159.66666666666669</ele><time>2026-04-12T08:01:44.431Z</time></trkpt><trkpt lat="43.279255" lon="13.3346117"><ele>159.33333333333334</ele><time>2026-04-12T08:01:45.431Z</time></trkpt><trkpt lat="43.2790383" lon="13.3346233"><ele>159.0</ele><time>2026-04-12T08:01:46.423Z</time></trkpt><trkpt lat="43.27882" lon="13.3346317"><ele>160.33333333333334</ele><time>2026-04-12T08:01:47.426Z</time></trkpt><trkpt lat="43.2786033" lon="13.3346567"><ele>161.66666666666669</ele><time>2026-04-12T08:01:48.433Z</time></trkpt><trkpt lat="43.2783917" lon="13.3347133"><ele>163.0</ele><time>2026-04-12T08:01:49.429Z</time></trkpt><trkpt lat="43.2781817" lon="13.334775"><ele>169.0</ele><time>2026-04-12T08:01:50.431Z</time></trkpt><trkpt lat="43.277985" lon="13.3348433"><ele>175.0</ele><time>2026-04-12T08:01:51.43Z</time></trkpt><trkpt lat="43.277805" lon="13.33492"><ele>181.0</ele><time>2026-04-12T08:01:52.428Z</time></trkpt><trkpt lat="43.27764" lon="13.3350167"><ele>181.0</ele><time>2026-04-12T08:01:53.436Z</time></trkpt><trkpt lat="43.2774883" lon="13.3351517"><ele>181.0</ele><time>2026-04-12T08:01:54.431Z</time></trkpt><trkpt lat="43.277345" lon="13.3353183"><ele>181.0</ele><time>2026-04-12T08:01:55.426Z</time></trkpt><trkpt lat="43.277215" lon="13.3355"><ele>179.0</ele><time>2026-04-12T08:01:56.429Z</time></trkpt><trkpt lat="43.2770933" lon="13.3356833"><ele>177.0</ele><time>2026-04-12T08:01:57.434Z</time></trkpt><trkpt lat="43.2770033" lon="13.335885"><ele>175.0</ele><time>2026-04-12T08:01:58.432Z</time></trkpt><trkpt lat="43.2769567" lon="13.3361117"><ele>175.0</ele><time>2026-04-12T08:01:59.428Z</time></trkpt><trkpt lat="43.2769383" lon="13.3363617"><ele>175.0</ele><time>2026-04-12T08:02:00.429Z</time></trkpt><trkpt lat="43.2769367" lon="13.3366233"><ele>175.0</ele><time>2026-04-12T08:02:01.426Z</time></trkpt><trkpt lat="43.276955" lon="13.3368767"><ele>177.33333333333334</ele><time>2026-04-12T08:02:02.434Z</time></trkpt><trkpt lat="43.2770067" lon="13.3371233"><ele>179.66666666666666</ele><time>2026-04-12T08:02:03.429Z</time></trkpt><trkpt lat="43.27709" lon="13.3373667"><ele>182.0</ele><time>2026-04-12T08:02:04.43Z</time></trkpt><trkpt lat="43.277185" lon="13.3376067"><ele>189.66666666666666</ele><time>2026-04-12T08:02:05.428Z</time></trkpt><trkpt lat="43.277275" lon="13.33785"><ele>197.33333333333331</ele><time>2026-04-12T08:02:06.428Z</time></trkpt><trkpt lat="43.2773717" lon="13.3380683"><ele>205.0</ele><time>2026-04-12T08:02:07.422Z</time></trkpt><trkpt lat="43.2774633" lon="13.33827"><ele>205.0</ele><time>2026-04-12T08:02:08.426Z</time></trkpt><trkpt lat="43.277535" lon="13.33847"><ele>205.0</ele><time>2026-04-12T08:02:09.429Z</time></trkpt><trkpt lat="43.2775667" lon="13.338685"><ele>205.0</ele><time>2026-04-12T08:02:10.43Z</time></trkpt><trkpt lat="43.2775617" lon="13.3389183"><ele>204.66666666666666</ele><time>2026-04-12T08:02:11.429Z</time></trkpt><trkpt lat="43.2775283" lon="13.339165"><ele>204.33333333333331</ele><time>2026-04-12T08:02:12.43Z</time></trkpt><trkpt lat="43.2774717" lon="13.3394183"><ele>204.0</ele><time>2026-04-12T08:02:13.43Z</time></trkpt><trkpt lat="43.2773967" lon="13.339665"><ele>204.66666666666669</ele><time>2026-04-12T08:02:14.43Z</time></trkpt><trkpt lat="43.27731" lon="13.3398983"><ele>205.33333333333334</ele><time>2026-04-12T08:02:15.43Z</time></trkpt><trkpt lat="43.2772267" lon="13.3401083"><ele>206.0</ele><time>2026-04-12T08:02:16.427Z</time></trkpt><trkpt lat="43.27715" lon="13.3402917"><ele>209.75</ele><time>2026-04-12T08:02:17.425Z</time></trkpt><trkpt lat="43.2770633" lon="13.34044"><ele>213.5</ele><time>2026-04-12T08:02:18.426Z</time></trkpt><trkpt lat="43.2769483" lon="13.3405433"><ele>217.25</ele><time>2026-04-12T08:02:19.427Z</time></trkpt><trkpt lat="43.2768217" lon="13.3405933"><ele>221.0</ele><time>2026-04-12T08:02:20.429Z</time></trkpt><trkpt lat="43.2766883" lon="13.340575"><ele>221.0</ele><time>2026-04-12T08:02:21.422Z</time></trkpt><trkpt lat="43.2765733" lon="13.3405083"><ele>221.0</ele><time>2026-04-12T08:02:22.429Z</time></trkpt><trkpt lat="43.27648" lon="13.3403767"><ele>221.0</ele><time>2026-04-12T08:02:23.427Z</time></trkpt><trkpt lat="43.2764283" lon="13.3402217"><ele>221.0</ele><time>2026-04-12T08:02:24.425Z</time></trkpt><trkpt lat="43.276415" lon="13.340045"><ele>221.0</ele><time>2026-04-12T08:02:25.428Z</time></trkpt><trkpt lat="43.2764433" lon="13.3398417"><ele>221.0</ele><time>2026-04-12T08:02:26.429Z</time></trkpt><trkpt lat="43.27648" lon="13.3396267"><ele>221.0</ele><time>2026-04-12T08:02:27.429Z</time></trkpt><trkpt lat="43.2765083" lon="13.33942"><ele>221.0</ele><time>2026-04-12T08:02:28.425Z</time></trkpt><trkpt lat="43.2765033" lon="13.3392217"><ele>221.0</ele><time>2026-04-12T08:02:29.428Z</time></trkpt><trkpt lat="43.2764733" lon="13.3390383"><ele>221.0</ele><time>2026-04-12T08:02:30.428Z</time></trkpt><trkpt lat="43.2764183" lon="13.3388867"><ele>221.0</ele><time>2026-04-12T08:02:31.427Z</time></trkpt><trkpt lat="43.2763517" lon="13.33877"><ele>219.75</ele><time>2026-04-12T08:02:32.428Z</time></trkpt><trkpt lat="43.27626" lon="13.3386917"><ele>218.5</ele><time>2026-04-12T08:02:33.428Z</time></trkpt><trkpt lat="43.2761517" lon="13.338645"><ele>217.25</ele><time>2026-04-12T08:02:34.429Z</time></trkpt><trkpt lat="43.2760233" lon="13.3386417"><ele>216.0</ele><time>2026-04-12T08:02:35.43Z</time></trkpt><trkpt lat="43.275875" lon="13.338705"><ele>216.0</ele><time>2026-04-12T08:02:36.43Z</time></trkpt><trkpt lat="43.2757233" lon="13.3387733"><ele>216.0</ele><time>2026-04-12T08:02:37.429Z</time></trkpt><trkpt lat="43.275575" lon="13.3388717"><ele>216.0</ele><time>2026-04-12T08:02:38.432Z</time></trkpt><trkpt lat="43.2754433" lon="13.338995"><ele>217.0</ele><time>2026-04-12T08:02:39.429Z</time></trkpt><trkpt lat="43.2753333" lon="13.33916"><ele>218.0</ele><time>2026-04-12T08:02:40.427Z</time></trkpt><trkpt lat="43.2752633" lon="13.33935"><ele>219.0</ele><time>2026-04-12T08:02:41.428Z</time></trkpt><trkpt lat="43.2752233" lon="13.3395617"><ele>221.66666666666669</ele><time>2026-04-12T08:02:42.432Z</time></trkpt><trkpt lat="43.2752233" lon="13.3397883"><ele>224.33333333333334</ele><time>2026-04-12T08:02:43.427Z</time></trkpt><trkpt lat="43.2752383" lon="13.340015"><ele>227.0</ele><time>2026-04-12T08:02:44.435Z</time></trkpt><trkpt lat="43.275265" lon="13.3402533"><ele>227.0</ele><time>2026-04-12T08:02:45.426Z</time></trkpt><trkpt lat="43.275305" lon="13.3404983"><ele>227.0</ele><time>2026-04-12T08:02:46.428Z</time></trkpt><trkpt lat="43.2753583" lon="13.3407417"><ele>227.0</ele><time>2026-04-12T08:02:47.426Z</time></trkpt><trkpt lat="43.27543" lon="13.3409717"><ele>229.0</ele><time>2026-04-12T08:02:48.423Z</time></trkpt><trkpt lat="43.2755133" lon="13.341195"><ele>231.0</ele><time>2026-04-12T08:02:49.428Z</time></trkpt><trkpt lat="43.27562" lon="13.3413917"><ele>233.0</ele><time>2026-04-12T08:02:50.429Z</time></trkpt><trkpt lat="43.2757433" lon="13.34154"><ele>236.75</ele><time>2026-04-12T08:02:51.428Z</time></trkpt><trkpt lat="43.2758583" lon="13.34167"><ele>240.5</ele><time>2026-04-12T08:02:52.426Z</time></trkpt><trkpt lat="43.2759417" lon="13.341805"><ele>244.25</ele><time>2026-04-12T08:02:53.427Z</time></trkpt><trkpt lat="43.2759783" lon="13.3419417"><ele>248.0</ele><time>2026-04-12T08:02:54.432Z</time></trkpt><trkpt lat="43.2759667" lon="13.342095"><ele>248.0</ele><time>2026-04-12T08:02:55.431Z</time></trkpt><trkpt lat="43.2758967" lon="13.3422467"><ele>248.0</ele><time>2026-04-12T08:02:56.43Z</time></trkpt><trkpt lat="43.2757717" lon="13.342365"><ele>248.0</ele><time>2026-04-12T08:02:57.427Z</time></trkpt><trkpt lat="43.2756233" lon="13.3424617"><ele>248.0</ele><time>2026-04-12T08:02:58.431Z</time></trkpt><trkpt lat="43.2754633" lon="13.3425367"><ele>250.66666666666669</ele><time>2026-04-12T08:02:59.429Z</time></trkpt><trkpt lat="43.2752967" lon="13.3425733"><ele>253.33333333333331</ele><time>2026-04-12T08:03:00.427Z</time></trkpt><trkpt lat="43.2751233" lon="13.342565"><ele>256.0</ele><time>2026-04-12T08:03:01.423Z</time></trkpt><trkpt lat="43.2749483" lon="13.342535"><ele>256.0</ele><time>2026-04-12T08:03:02.429Z</time></trkpt><trkpt lat="43.274785" lon="13.3425233"><ele>256.0</ele><time>2026-04-12T08:03:03.425Z</time></trkpt><trkpt lat="43.2746333" lon="13.34257"><ele>256.0</ele><time>2026-04-12T08:03:04.436Z</time></trkpt><trkpt lat="43.2744967" lon="13.34268"><ele>255.66666666666666</ele><time>2026-04-12T08:03:05.429Z</time></trkpt><trkpt lat="43.27436" lon="13.3428317"><ele>255.33333333333331</ele><time>2026-04-12T08:03:06.431Z</time></trkpt><trkpt lat="43.2742183" lon="13.342985"><ele>255.0</ele><time>2026-04-12T08:03:07.428Z</time></trkpt><trkpt lat="43.27406" lon="13.3431083"><ele>265.3333333333333</ele><time>2026-04-12T08:03:08.433Z</time></trkpt><trkpt lat="43.2738917" lon="13.3431883"><ele>275.66666666666663</ele><time>2026-04-12T08:03:09.427Z</time></trkpt><trkpt lat="43.2737133" lon="13.3431983"><ele>286.0</ele><time>2026-04-12T08:03:10.427Z</time></trkpt><trkpt lat="43.2735333" lon="13.3431633"><ele>286.0</ele><time>2026-04-12T08:03:11.426Z</time></trkpt><trkpt lat="43.2733633" lon="13.34309"><ele>286.0</ele><time>2026-04-12T08:03:12.424Z</time></trkpt><trkpt lat="43.2732183" lon="13.3429983"><ele>286.0</ele><time>2026-04-12T08:03:13.428Z</time></trkpt><trkpt lat="43.2731167" lon="13.3428783"><ele>285.5</ele><time>2026-04-12T08:03:14.434Z</time></trkpt><trkpt lat="43.2730567" lon="13.342735"><ele>285.0</ele><time>2026-04-12T08:03:15.429Z</time></trkpt><trkpt lat="43.2730467" lon="13.342575"><ele>284.5</ele><time>2026-04-12T08:03:16.427Z</time></trkpt><trkpt lat="43.2730583" lon="13.3424"><ele>284.0</ele><time>2026-04-12T08:03:17.424Z</time></trkpt><trkpt lat="43.2730733" lon="13.3422367"><ele>278.8</ele><time>2026-04-12T08:03:18.427Z</time></trkpt><trkpt lat="43.273055" lon="13.342105"><ele>273.59999999999997</ele><time>2026-04-12T08:03:19.429Z</time></trkpt><trkpt lat="43.2730017" lon="13.342015"><ele>268.4</ele><time>2026-04-12T08:03:20.436Z</time></trkpt><trkpt lat="43.272935" lon="13.3419633"><ele>263.2</ele><time>2026-04-12T08:03:21.428Z</time></trkpt><trkpt lat="43.27285" lon="13.341985"><ele>258.0</ele><time>2026-04-12T08:03:22.426Z</time></trkpt><trkpt lat="43.272755" lon="13.3420733"><ele>258.0</ele><time>2026-04-12T08:03:23.431Z</time></trkpt><trkpt lat="43.2726433" lon="13.3422017"><ele>258.0</ele><time>2026-04-12T08:03:24.43Z</time></trkpt><trkpt lat="43.2725367" lon="13.34233"><ele>258.0</ele><time>2026-04-12T08:03:25.428Z</time></trkpt><trkpt lat="43.2724283" lon="13.3424667"><ele>258.0</ele><time>2026-04-12T08:03:26.427Z</time></trkpt><trkpt lat="43.2723083" lon="13.3426033"><ele>264.6666666666667</ele><time>2026-04-12T08:03:27.429Z</time></trkpt><trkpt lat="43.27218" lon="13.3427483"><ele>271.33333333333337</ele><time>2026-04-12T08:03:28.427Z</time></trkpt><trkpt lat="43.27205" lon="13.3428967"><ele>278.0</ele><time>2026-04-12T08:03:29.428Z</time></trkpt><trkpt lat="43.27193" lon="13.3430233"><ele>283.75</ele><time>2026-04-12T08:03:30.426Z</time></trkpt><trkpt lat="43.271815" lon="13.3431033"><ele>289.5</ele><time>2026-04-12T08:03:31.426Z</time></trkpt><trkpt lat="43.2717017" lon="13.3431317"><ele>295.25</ele><time>2026-04-12T08:03:32.428Z</time></trkpt><trkpt lat="43.2715883" lon="13.3431283"><ele>301.0</ele><time>2026-04-12T08:03:33.428Z</time></trkpt><trkpt lat="43.2714733" lon="13.34311"><ele>297.6</ele><time>2026-04-12T08:03:34.425Z</time></trkpt><trkpt lat="43.271365" lon="13.3431133"><ele>294.20000000000005</ele><time>2026-04-12T08:03:35.434Z</time></trkpt><trkpt lat="43.2712717" lon="13.343155"><ele>290.79999999999995</ele><time>2026-04-12T08:03:36.427Z</time></trkpt><trkpt lat="43.271195" lon="13.3432467"><ele>287.4</ele><time>2026-04-12T08:03:37.425Z</time></trkpt><trkpt lat="43.2711333" lon="13.3433883"><ele>284.0</ele><time>2026-04-12T08:03:38.429Z</time></trkpt><trkpt lat="43.2710833" lon="13.3435717"><ele>284.0</ele><time>2026-04-12T08:03:39.426Z</time></trkpt><trkpt lat="43.271065" lon="13.3438133"><ele>284.0</ele><time>2026-04-12T08:03:40.427Z</time></trkpt><trkpt lat="43.2710367" lon="13.344045"><ele>284.0</ele><time>2026-04-12T08:03:41.429Z</time></trkpt><trkpt lat="43.2710117" lon="13.3442733"><ele>288.0</ele><time>2026-04-12T08:03:42.436Z</time></trkpt><trkpt lat="43.270985" lon="13.344505"><ele>292.0</ele><time>2026-04-12T08:03:43.428Z</time></trkpt><trkpt lat="43.270965" lon="13.34474"><ele>296.0</ele><time>2026-04-12T08:03:44.425Z</time></trkpt><trkpt lat="43.2709633" lon="13.344975"><ele>298.0</ele><time>2026-04-12T08:03:45.428Z</time></trkpt><trkpt lat="43.270985" lon="13.345195"><ele>300.0</ele><time>2026-04-12T08:03:46.427Z</time></trkpt><trkpt lat="43.270985" lon="13.3453933"><ele>302.0</ele><time>2026-04-12T08:03:47.425Z</time></trkpt><trkpt lat="43.2709417" lon="13.3455783"><ele>304.0</ele><time>2026-04-12T08:03:48.427Z</time></trkpt><trkpt lat="43.2708617" lon="13.345745"><ele>305.25</ele><time>2026-04-12T08:03:49.425Z</time></trkpt><trkpt lat="43.270765" lon="13.3458733"><ele>306.5</ele><time>2026-04-12T08:03:50.429Z</time></trkpt><trkpt lat="43.270665" lon="13.34597"><ele>307.75</ele><time>2026-04-12T08:03:51.427Z</time></trkpt><trkpt lat="43.2705767" lon="13.34605"><ele>309.0</ele><time>2026-04-12T08:03:52.426Z</time></trkpt><trkpt lat="43.2705" lon="13.3461233"><ele>309.0</ele><time>2026-04-12T08:03:53.428Z</time></trkpt><trkpt lat="43.270435" lon="13.34619"><ele>309.0</ele><time>2026-04-12T08:03:54.429Z</time></trkpt><trkpt lat="43.2703767" lon="13.3462583"><ele>309.0</ele><time>2026-04-12T08:03:55.426Z</time></trkpt><trkpt lat="43.2703183" lon="13.3463233"><ele>309.0</ele><time>2026-04-12T08:03:56.428Z</time></trkpt><trkpt lat="43.2702533" lon="13.34638"><ele>309.0</ele><time>2026-04-12T08:03:57.426Z</time></trkpt><trkpt lat="43.27018" lon="13.3464267"><ele>309.0</ele><time>2026-04-12T08:03:58.428Z</time></trkpt><trkpt lat="43.270105" lon="13.3464467"><ele>309.0</ele><time>2026-04-12T08:03:59.426Z</time></trkpt><trkpt lat="43.2700233" lon="13.34644"><ele>309.0</ele><time>2026-04-12T08:04:00.428Z</time></trkpt><trkpt lat="43.2699383" lon="13.3464117"><ele>309.0</ele><time>2026-04-12T08:04:01.429Z</time></trkpt><trkpt lat="43.2698533" lon="13.3463733"><ele>309.0</ele><time>2026-04-12T08:04:02.428Z</time></trkpt><trkpt lat="43.2697733" lon="13.34632"><ele>309.0</ele><time>2026-04-12T08:04:03.428Z</time></trkpt><trkpt lat="43.2697" lon="13.3462717"><ele>309.0</ele><time>2026-04-12T08:04:04.426Z</time></trkpt><trkpt lat="43.26964" lon="13.3462133"><ele>312.4</ele><time>2026-04-12T08:04:05.426Z</time></trkpt><trkpt lat="43.269545" lon="13.3461183"><ele>315.79999999999995</ele><time>2026-04-12T08:04:07.428Z</time></trkpt><trkpt lat="43.269495" lon="13.346065"><ele>319.20000000000005</ele><time>2026-04-12T08:04:08.43Z</time></trkpt><trkpt lat="43.2693867" lon="13.345975"><ele>322.6</ele><time>2026-04-12T08:04:10.43Z</time></trkpt><trkpt lat="43.2693267" lon="13.3459167"><ele>326.0</ele><time>2026-04-12T08:04:11.425Z</time></trkpt><trkpt lat="43.2692433" lon="13.3458717"><ele>326.0</ele><time>2026-04-12T08:04:12.433Z</time></trkpt><trkpt lat="43.269155" lon="13.3458433"><ele>326.0</ele><time>2026-04-12T08:04:13.427Z</time></trkpt><trkpt lat="43.2690667" lon="13.345845"><ele>326.0</ele><time>2026-04-12T08:04:14.436Z</time></trkpt><trkpt lat="43.2689833" lon="13.34586"><ele>326.0</ele><time>2026-04-12T08:04:15.428Z</time></trkpt><trkpt lat="43.26891" lon="13.3458883"><ele>326.0</ele><time>2026-04-12T08:04:16.433Z</time></trkpt><trkpt lat="43.268845" lon="13.345915"><ele>326.0</ele><time>2026-04-12T08:04:17.437Z</time></trkpt><trkpt lat="43.2687867" lon="13.34595"><ele>325.33333333333337</ele><time>2026-04-12T08:04:18.437Z</time></trkpt><trkpt lat="43.2687233" lon="13.3459817"><ele>324.6666666666667</ele><time>2026-04-12T08:04:19.43Z</time></trkpt><trkpt lat="43.26861" lon="13.3460417"><ele>324.0</ele><time>2026-04-12T08:04:21.431Z</time></trkpt><trkpt lat="43.2685483" lon="13.3460767"><ele>323.3333333333333</ele><time>2026-04-12T08:04:22.428Z</time></trkpt><trkpt lat="43.2684867" lon="13.346115"><ele>322.66666666666663</ele><time>2026-04-12T08:04:23.428Z</time></trkpt><trkpt lat="43.26842" lon="13.3461567"><ele>322.0</ele><time>2026-04-12T08:04:24.432Z</time></trkpt><trkpt lat="43.26835" lon="13.3462"><ele>322.0</ele><time>2026-04-12T08:04:25.432Z</time></trkpt><trkpt lat="43.2682783" lon="13.3462383"><ele>322.0</ele><time>2026-04-12T08:04:26.444Z</time></trkpt><trkpt lat="43.26821" lon="13.34629"><ele>322.0</ele><time>2026-04-12T08:04:27.431Z</time></trkpt><trkpt lat="43.2681483" lon="13.34636"><ele>322.0</ele><time>2026-04-12T08:04:28.432Z</time></trkpt><trkpt lat="43.2680833" lon="13.3464417"><ele>322.0</ele><time>2026-04-12T08:04:29.433Z</time></trkpt><trkpt lat="43.268025" lon="13.3465267"><ele>322.0</ele><time>2026-04-12T08:04:30.431Z</time></trkpt><trkpt lat="43.26797" lon="13.346605"><ele>323.66666666666663</ele><time>2026-04-12T08:04:31.428Z</time></trkpt><trkpt lat="43.267915" lon="13.3466817"><ele>325.3333333333333</ele><time>2026-04-12T08:04:32.431Z</time></trkpt><trkpt lat="43.267855" lon="13.3467517"><ele>327.0</ele><time>2026-04-12T08:04:33.427Z</time></trkpt><trkpt lat="43.2678017" lon="13.3468233"><ele>328.6666666666667</ele><time>2026-04-12T08:04:34.434Z</time></trkpt><trkpt lat="43.2677533" lon="13.3468967"><ele>330.33333333333337</ele><time>2026-04-12T08:04:35.426Z</time></trkpt><trkpt lat="43.2676983" lon="13.34697"><ele>332.0</ele><time>2026-04-12T08:04:36.431Z</time></trkpt><trkpt lat="43.2676467" lon="13.347045"><ele>332.0</ele><time>2026-04-12T08:04:37.43Z</time></trkpt><trkpt lat="43.26759" lon="13.3471183"><ele>332.0</ele><time>2026-04-12T08:04:38.429Z</time></trkpt><trkpt lat="43.2675383" lon="13.3471883"><ele>332.0</ele><time>2026-04-12T08:04:39.429Z</time></trkpt><trkpt lat="43.2674983" lon="13.34726"><ele>332.0</ele><time>2026-04-12T08:04:40.427Z</time></trkpt><trkpt lat="43.2674533" lon="13.3473233"><ele>332.0</ele><time>2026-04-12T08:04:41.43Z</time></trkpt><trkpt lat="43.2673733" lon="13.347425"><ele>332.0</ele><time>2026-04-12T08:04:43.428Z</time></trkpt><trkpt lat="43.2672867" lon="13.347495"><ele>333.83333333333337</ele><time>2026-04-12T08:04:45.427Z</time></trkpt><trkpt lat="43.2671833" lon="13.34758"><ele>335.6666666666667</ele><time>2026-04-12T08:04:47.431Z</time></trkpt><trkpt lat="43.267115" lon="13.3476167"><ele>337.5</ele><time>2026-04-12T08:04:48.433Z</time></trkpt><trkpt lat="43.26704" lon="13.3476333"><ele>339.3333333333333</ele><time>2026-04-12T08:04:49.429Z</time></trkpt><trkpt lat="43.2669667" lon="13.3476383"><ele>341.16666666666663</ele><time>2026-04-12T08:04:50.429Z</time></trkpt><trkpt lat="43.2669" lon="13.34763"><ele>343.0</ele><time>2026-04-12T08:04:51.43Z</time></trkpt><trkpt lat="43.2668367" lon="13.3476167"><ele>343.0</ele><time>2026-04-12T08:04:52.43Z</time></trkpt><trkpt lat="43.2667733" lon="13.3475933"><ele>343.0</ele><time>2026-04-12T08:04:53.429Z</time></trkpt><trkpt lat="43.266705" lon="13.3475717"><ele>343.0</ele><time>2026-04-12T08:04:54.43Z</time></trkpt><trkpt lat="43.266635" lon="13.3475483"><ele>343.0</ele><time>2026-04-12T08:04:55.432Z</time></trkpt><trkpt lat="43.2665583" lon="13.34754"><ele>343.0</ele><time>2026-04-12T08:04:56.428Z</time></trkpt><trkpt lat="43.2664783" lon="13.34754"><ele>343.0</ele><time>2026-04-12T08:04:57.431Z</time></trkpt><trkpt lat="43.2663767" lon="13.3475433"><ele>342.2</ele><time>2026-04-12T08:04:58.428Z</time></trkpt><trkpt lat="43.2662817" lon="13.3475633"><ele>341.4</ele><time>2026-04-12T08:04:59.429Z</time></trkpt><trkpt lat="43.266195" lon="13.347595"><ele>340.59999999999997</ele><time>2026-04-12T08:05:00.425Z</time></trkpt><trkpt lat="43.2661267" lon="13.3476333"><ele>339.79999999999995</ele><time>2026-04-12T08:05:01.426Z</time></trkpt><trkpt lat="43.266025" lon="13.3477217"><ele>339.0</ele><time>2026-04-12T08:05:03.429Z</time></trkpt><trkpt lat="43.2659417" lon="13.347825"><ele>339.0</ele><time>2026-04-12T08:05:05.432Z</time></trkpt><trkpt lat="43.2658567" lon="13.3479367"><ele>339.0</ele><time>2026-04-12T08:05:07.43Z</time></trkpt><trkpt lat="43.2657867" lon="13.3480817"><ele>339.0</ele><time>2026-04-12T08:05:09.429Z</time></trkpt><trkpt lat="43.2657583" lon="13.348165"><ele>339.0</ele><time>2026-04-12T08:05:10.429Z</time></trkpt><trkpt lat="43.265745" lon="13.3482533"><ele>339.0</ele><time>2026-04-12T08:05:11.431Z</time></trkpt><trkpt lat="43.265735" lon="13.3483467"><ele>339.0</ele><time>2026-04-12T08:05:12.428Z</time></trkpt><trkpt lat="43.2657117" lon="13.34843"><ele>340.0</ele><time>2026-04-12T08:05:13.429Z</time></trkpt><trkpt lat="43.2656967" lon="13.3485867"><ele>341.0</ele><time>2026-04-12T08:05:15.429Z</time></trkpt><trkpt lat="43.2656967" lon="13.3487367"><ele>342.0</ele><time>2026-04-12T08:05:17.429Z</time></trkpt><trkpt lat="43.2657167" lon="13.3488967"><ele>343.0</ele><time>2026-04-12T08:05:19.435Z</time></trkpt><trkpt lat="43.2657383" lon="13.34898"><ele>344.0</ele><time>2026-04-12T08:05:20.433Z</time></trkpt><trkpt lat="43.2657683" lon="13.3490683"><ele>344.0</ele><time>2026-04-12T08:05:21.427Z</time></trkpt><trkpt lat="43.2658017" lon="13.349155"><ele>344.0</ele><time>2026-04-12T08:05:22.428Z</time></trkpt><trkpt lat="43.26584" lon="13.3492433"><ele>344.0</ele><time>2026-04-12T08:05:23.429Z</time></trkpt><trkpt lat="43.2658833" lon="13.3493283"><ele>344.0</ele><time>2026-04-12T08:05:24.432Z</time></trkpt><trkpt lat="43.26593" lon="13.3494083"><ele>344.0</ele><time>2026-04-12T08:05:25.428Z</time></trkpt><trkpt lat="43.2659817" lon="13.3494833"><ele>344.0</ele><time>2026-04-12T08:05:26.431Z</time></trkpt><trkpt lat="43.2660417" lon="13.3495517"><ele>344.0</ele><time>2026-04-12T08:05:27.427Z</time></trkpt><trkpt lat="43.26611" lon="13.3496133"><ele>344.0</ele><time>2026-04-12T08:05:28.428Z</time></trkpt><trkpt lat="43.2661883" lon="13.34966"><ele>344.0</ele><time>2026-04-12T08:05:29.435Z</time></trkpt><trkpt lat="43.2662667" lon="13.3496833"><ele>344.0</ele><time>2026-04-12T08:05:30.428Z</time></trkpt><trkpt lat="43.2663433" lon="13.3496883"><ele>344.0</ele><time>2026-04-12T08:05:31.431Z</time></trkpt><trkpt lat="43.2664183" lon="13.3496767"><ele>344.0</ele><time>2026-04-12T08:05:32.433Z</time></trkpt><trkpt lat="43.2664917" lon="13.3496617"><ele>344.6666666666667</ele><time>2026-04-12T08:05:33.428Z</time></trkpt><trkpt lat="43.26656" lon="13.3496417"><ele>345.33333333333337</ele><time>2026-04-12T08:05:34.428Z</time></trkpt><trkpt lat="43.2666317" lon="13.3496233"><ele>346.0</ele><time>2026-04-12T08:05:35.427Z</time></trkpt><trkpt lat="43.2667567" lon="13.3496617"><ele>346.6666666666667</ele><time>2026-04-12T08:05:37.43Z</time></trkpt><trkpt lat="43.2668133" lon="13.3497317"><ele>347.3333333333333</ele><time>2026-04-12T08:05:38.429Z</time></trkpt><trkpt lat="43.2668083" lon="13.34985"><ele>348.0</ele><time>2026-04-12T08:05:40.429Z</time></trkpt><trkpt lat="43.266725" lon="13.350015"><ele>344.4</ele><time>2026-04-12T08:05:42.429Z</time></trkpt><trkpt lat="43.2666467" lon="13.3501283"><ele>340.79999999999995</ele><time>2026-04-12T08:05:43.427Z</time></trkpt><trkpt lat="43.2665517" lon="13.3502167"><ele>337.2</ele><time>2026-04-12T08:05:44.435Z</time></trkpt><trkpt lat="43.266455" lon="13.350295"><ele>333.6</ele><time>2026-04-12T08:05:45.428Z</time></trkpt><trkpt lat="43.2663617" lon="13.3503583"><ele>330.0</ele><time>2026-04-12T08:05:46.431Z</time></trkpt><trkpt lat="43.2662617" lon="13.35041"><ele>330.0</ele><time>2026-04-12T08:05:47.43Z</time></trkpt><trkpt lat="43.2661633" lon="13.3504533"><ele>330.0</ele><time>2026-04-12T08:05:48.429Z</time></trkpt><trkpt lat="43.266065" lon="13.3504933"><ele>330.0</ele><time>2026-04-12T08:05:49.426Z</time></trkpt><trkpt lat="43.26597" lon="13.350535"><ele>330.0</ele><time>2026-04-12T08:05:50.428Z</time></trkpt><trkpt lat="43.265875" lon="13.3505817"><ele>330.0</ele><time>2026-04-12T08:05:51.432Z</time></trkpt><trkpt lat="43.265785" lon="13.3506433"><ele>327.6</ele><time>2026-04-12T08:05:52.428Z</time></trkpt><trkpt lat="43.2657017" lon="13.3507183"><ele>325.2</ele><time>2026-04-12T08:05:53.426Z</time></trkpt><trkpt lat="43.2656283" lon="13.3508083"><ele>322.8</ele><time>2026-04-12T08:05:54.436Z</time></trkpt><trkpt lat="43.2655567" lon="13.350915"><ele>320.4</ele><time>2026-04-12T08:05:55.429Z</time></trkpt><trkpt lat="43.26549" lon="13.3510267"><ele>318.0</ele><time>2026-04-12T08:05:56.431Z</time></trkpt><trkpt lat="43.2654283" lon="13.3511467"><ele>317.4</ele><time>2026-04-12T08:05:57.426Z</time></trkpt><trkpt lat="43.26536" lon="13.3512767"><ele>316.8</ele><time>2026-04-12T08:05:58.428Z</time></trkpt><trkpt lat="43.2652883" lon="13.3514083"><ele>316.2</ele><time>2026-04-12T08:05:59.43Z</time></trkpt><trkpt lat="43.2652217" lon="13.351525"><ele>315.6</ele><time>2026-04-12T08:06:00.43Z</time></trkpt><trkpt lat="43.2651633" lon="13.3516267"><ele>315.0</ele><time>2026-04-12T08:06:01.427Z</time></trkpt><trkpt lat="43.2651" lon="13.3517333"><ele>315.0</ele><time>2026-04-12T08:06:02.432Z</time></trkpt><trkpt lat="43.2650183" lon="13.3518467"><ele>315.0</ele><time>2026-04-12T08:06:03.429Z</time></trkpt><trkpt lat="43.2649283" lon="13.351975"><ele>315.0</ele><time>2026-04-12T08:06:04.429Z</time></trkpt><trkpt lat="43.26483" lon="13.3521183"><ele>315.0</ele><time>2026-04-12T08:06:05.431Z</time></trkpt><trkpt lat="43.264725" lon="13.3522717"><ele>318.3333333333333</ele><time>2026-04-12T08:06:06.449Z</time></trkpt><trkpt lat="43.2646217" lon="13.352425"><ele>321.66666666666663</ele><time>2026-04-12T08:06:07.43Z</time></trkpt><trkpt lat="43.264515" lon="13.3525767"><ele>325.0</ele><time>2026-04-12T08:06:08.429Z</time></trkpt><trkpt lat="43.2644083" lon="13.352735"><ele>325.0</ele><time>2026-04-12T08:06:09.427Z</time></trkpt><trkpt lat="43.2642967" lon="13.35289"><ele>325.0</ele><time>2026-04-12T08:06:10.428Z</time></trkpt><trkpt lat="43.264185" lon="13.35304"><ele>325.0</ele><time>2026-04-12T08:06:11.432Z</time></trkpt><trkpt lat="43.2640633" lon="13.3531783"><ele>327.66666666666663</ele><time>2026-04-12T08:06:12.431Z</time></trkpt><trkpt lat="43.263925" lon="13.3533"><ele>330.3333333333333</ele><time>2026-04-12T08:06:13.431Z</time></trkpt><trkpt lat="43.263775" lon="13.3534033"><ele>333.0</ele><time>2026-04-12T08:06:14.428Z</time></trkpt><trkpt lat="43.263615" lon="13.3534783"><ele>333.0</ele><time>2026-04-12T08:06:15.432Z</time></trkpt><trkpt lat="43.263455" lon="13.3535383"><ele>333.0</ele><time>2026-04-12T08:06:16.426Z</time></trkpt><trkpt lat="43.263295" lon="13.353595"><ele>333.0</ele><time>2026-04-12T08:06:17.431Z</time></trkpt><trkpt lat="43.2631417" lon="13.3536417"><ele>334.0</ele><time>2026-04-12T08:06:18.432Z</time></trkpt><trkpt lat="43.2629983" lon="13.353675"><ele>335.0</ele><time>2026-04-12T08:06:19.426Z</time></trkpt><trkpt lat="43.2628583" lon="13.3537083"><ele>336.0</ele><time>2026-04-12T08:06:20.433Z</time></trkpt><trkpt lat="43.26272" lon="13.3537417"><ele>337.0</ele><time>2026-04-12T08:06:21.431Z</time></trkpt><trkpt lat="43.2625833" lon="13.3537683"><ele>337.0</ele><time>2026-04-12T08:06:22.427Z</time></trkpt><trkpt lat="43.26245" lon="13.3538067"><ele>337.0</ele><time>2026-04-12T08:06:23.429Z</time></trkpt><trkpt lat="43.2623183" lon="13.3538417"><ele>337.0</ele><time>2026-04-12T08:06:24.425Z</time></trkpt><trkpt lat="43.26219" lon="13.3538867"><ele>337.0</ele><time>2026-04-12T08:06:25.424Z</time></trkpt><trkpt lat="43.262065" lon="13.3539433"><ele>334.75</ele><time>2026-04-12T08:06:26.429Z</time></trkpt><trkpt lat="43.2619433" lon="13.3539967"><ele>332.5</ele><time>2026-04-12T08:06:27.428Z</time></trkpt><trkpt lat="43.2618267" lon="13.35405"><ele>330.25</ele><time>2026-04-12T08:06:28.429Z</time></trkpt><trkpt lat="43.2617117" lon="13.35411"><ele>328.0</ele><time>2026-04-12T08:06:29.435Z</time></trkpt><trkpt lat="43.2616" lon="13.3541717"><ele>328.0</ele><time>2026-04-12T08:06:30.43Z</time></trkpt><trkpt lat="43.2614967" lon="13.3542267"><ele>328.0</ele><time>2026-04-12T08:06:31.432Z</time></trkpt><trkpt lat="43.2614017" lon="13.3542783"><ele>328.0</ele><time>2026-04-12T08:06:32.433Z</time></trkpt><trkpt lat="43.2613067" lon="13.3543383"><ele>328.0</ele><time>2026-04-12T08:06:33.425Z</time></trkpt><trkpt lat="43.2612117" lon="13.35441"><ele>328.0</ele><time>2026-04-12T08:06:34.428Z</time></trkpt><trkpt lat="43.2611167" lon="13.3544883"><ele>328.0</ele><time>2026-04-12T08:06:35.435Z</time></trkpt><trkpt lat="43.261015" lon="13.35458"><ele>328.0</ele><time>2026-04-12T08:06:36.43Z</time></trkpt><trkpt lat="43.26091" lon="13.3546867"><ele>328.0</ele><time>2026-04-12T08:06:37.43Z</time></trkpt><trkpt lat="43.2608033" lon="13.3547917"><ele>328.0</ele><time>2026-04-12T08:06:38.433Z</time></trkpt><trkpt lat="43.2606967" lon="13.3549"><ele>327.5</ele><time>2026-04-12T08:06:39.425Z</time></trkpt><trkpt lat="43.2605917" lon="13.3550017"><ele>327.0</ele><time>2026-04-12T08:06:40.43Z</time></trkpt><trkpt lat="43.2604867" lon="13.3551"><ele>326.5</ele><time>2026-04-12T08:06:41.441Z</time></trkpt><trkpt lat="43.26038" lon="13.3552067"><ele>326.0</ele><time>2026-04-12T08:06:42.428Z</time></trkpt><trkpt lat="43.26027" lon="13.3553167"><ele>326.0</ele><time>2026-04-12T08:06:43.428Z</time></trkpt><trkpt lat="43.2601633" lon="13.35542"><ele>326.0</ele><time>2026-04-12T08:06:44.427Z</time></trkpt><trkpt lat="43.2600633" lon="13.3555233"><ele>326.0</ele><time>2026-04-12T08:06:45.429Z</time></trkpt><trkpt lat="43.2599767" lon="13.355625"><ele>326.0</ele><time>2026-04-12T08:06:46.428Z</time></trkpt><trkpt lat="43.2599017" lon="13.3557383"><ele>326.0</ele><time>2026-04-12T08:06:47.429Z</time></trkpt><trkpt lat="43.259835" lon="13.35586"><ele>326.0</ele><time>2026-04-12T08:06:48.428Z</time></trkpt><trkpt lat="43.2597733" lon="13.3559933"><ele>326.0</ele><time>2026-04-12T08:06:49.428Z</time></trkpt><trkpt lat="43.2597117" lon="13.3561483"><ele>326.0</ele><time>2026-04-12T08:06:50.431Z</time></trkpt><trkpt lat="43.2596483" lon="13.3563067"><ele>324.25</ele><time>2026-04-12T08:06:51.426Z</time></trkpt><trkpt lat="43.25958" lon="13.3564667"><ele>322.5</ele><time>2026-04-12T08:06:52.428Z</time></trkpt><trkpt lat="43.2595117" lon="13.356625"><ele>320.75</ele><time>2026-04-12T08:06:53.432Z</time></trkpt><trkpt lat="43.2594467" lon="13.35678"><ele>319.0</ele><time>2026-04-12T08:06:54.432Z</time></trkpt><trkpt lat="43.2593817" lon="13.3569283"><ele>319.0</ele><time>2026-04-12T08:06:55.429Z</time></trkpt><trkpt lat="43.25932" lon="13.35707"><ele>319.0</ele><time>2026-04-12T08:06:56.429Z</time></trkpt><trkpt lat="43.2592617" lon="13.3572067"><ele>319.0</ele><time>2026-04-12T08:06:57.432Z</time></trkpt><trkpt lat="43.2592083" lon="13.357345"><ele>319.0</ele><time>2026-04-12T08:06:58.427Z</time></trkpt><trkpt lat="43.2591583" lon="13.35748"><ele>318.66666666666663</ele><time>2026-04-12T08:06:59.428Z</time></trkpt><trkpt lat="43.2591083" lon="13.3576067"><ele>318.3333333333333</ele><time>2026-04-12T08:07:00.434Z</time></trkpt><trkpt lat="43.2590667" lon="13.3577217"><ele>318.0</ele><time>2026-04-12T08:07:01.431Z</time></trkpt><trkpt lat="43.2590267" lon="13.3578183"><ele>317.6666666666667</ele><time>2026-04-12T08:07:02.428Z</time></trkpt><trkpt lat="43.2589833" lon="13.357895"><ele>317.33333333333337</ele><time>2026-04-12T08:07:03.432Z</time></trkpt><trkpt lat="43.25893" lon="13.357955"><ele>317.0</ele><time>2026-04-12T08:07:04.429Z</time></trkpt><trkpt lat="43.25886" lon="13.3580017"><ele>317.0</ele><time>2026-04-12T08:07:05.43Z</time></trkpt><trkpt lat="43.25878" lon="13.35805"><ele>317.0</ele><time>2026-04-12T08:07:06.43Z</time></trkpt><trkpt lat="43.2586933" lon="13.3581"><ele>317.0</ele><time>2026-04-12T08:07:07.43Z</time></trkpt><trkpt lat="43.25861" lon="13.3581517"><ele>317.0</ele><time>2026-04-12T08:07:08.432Z</time></trkpt><trkpt lat="43.25853" lon="13.3581983"><ele>317.0</ele><time>2026-04-12T08:07:09.427Z</time></trkpt><trkpt lat="43.25846" lon="13.35824"><ele>317.0</ele><time>2026-04-12T08:07:10.427Z</time></trkpt><trkpt lat="43.2583983" lon="13.358275"><ele>317.0</ele><time>2026-04-12T08:07:11.431Z</time></trkpt><trkpt lat="43.2582983" lon="13.358335"><ele>317.0</ele><time>2026-04-12T08:07:13.429Z</time></trkpt><trkpt lat="43.258185" lon="13.358395"><ele>317.0</ele><time>2026-04-12T08:07:15.426Z</time></trkpt><trkpt lat="43.25811" lon="13.35843"><ele>317.0</ele><time>2026-04-12T08:07:16.427Z</time></trkpt><trkpt lat="43.2580283" lon="13.35847"><ele>317.0</ele><time>2026-04-12T08:07:17.425Z</time></trkpt><trkpt lat="43.2579467" lon="13.3585183"><ele>316.4</ele><time>2026-04-12T08:07:18.428Z</time></trkpt><trkpt lat="43.25787" lon="13.3585717"><ele>315.79999999999995</ele><time>2026-04-12T08:07:19.43Z</time></trkpt><trkpt lat="43.25781" lon="13.3586283"><ele>315.2</ele><time>2026-04-12T08:07:20.429Z</time></trkpt><trkpt lat="43.2577267" lon="13.3587283"><ele>314.59999999999997</ele><time>2026-04-12T08:07:22.43Z</time></trkpt><trkpt lat="43.2576633" lon="13.35881"><ele>314.0</ele><time>2026-04-12T08:07:24.426Z</time></trkpt><trkpt lat="43.2575717" lon="13.358955"><ele>314.0</ele><time>2026-04-12T08:07:26.429Z</time></trkpt><trkpt lat="43.25752" lon="13.3590733"><ele>314.0</ele><time>2026-04-12T08:07:27.429Z</time></trkpt><trkpt lat="43.257475" lon="13.3592167"><ele>314.0</ele><time>2026-04-12T08:07:28.427Z</time></trkpt><trkpt lat="43.2574383" lon="13.3593567"><ele>314.0</ele><time>2026-04-12T08:07:29.431Z</time></trkpt><trkpt lat="43.257405" lon="13.3594917"><ele>314.0</ele><time>2026-04-12T08:07:30.428Z</time></trkpt><trkpt lat="43.2573717" lon="13.359615"><ele>313.99999999999994</ele><time>2026-04-12T08:07:31.429Z</time></trkpt><trkpt lat="43.25734" lon="13.359735"><ele>314.0</ele><time>2026-04-12T08:07:32.427Z</time></trkpt><trkpt lat="43.2573133" lon="13.3598317"><ele>314.0</ele><time>2026-04-12T08:07:33.428Z</time></trkpt><trkpt lat="43.2572867" lon="13.3599167"><ele>314.0</ele><time>2026-04-12T08:07:34.43Z</time></trkpt><trkpt lat="43.2572583" lon="13.359995"><ele>314.0</ele><time>2026-04-12T08:07:35.428Z</time></trkpt><trkpt lat="43.2572317" lon="13.3600767"><ele>313.99999999999994</ele><time>2026-04-12T08:07:36.427Z</time></trkpt><trkpt lat="43.2571983" lon="13.360165"><ele>314.0</ele><time>2026-04-12T08:07:37.43Z</time></trkpt><trkpt lat="43.257155" lon="13.3602583"><ele>312.6666666666667</ele><time>2026-04-12T08:07:38.426Z</time></trkpt><trkpt lat="43.2571033" lon="13.3603483"><ele>311.33333333333337</ele><time>2026-04-12T08:07:39.424Z</time></trkpt><trkpt lat="43.2570483" lon="13.360435"><ele>310.0</ele><time>2026-04-12T08:07:40.431Z</time></trkpt><trkpt lat="43.256995" lon="13.3605183"><ele>308.6666666666667</ele><time>2026-04-12T08:07:41.433Z</time></trkpt><trkpt lat="43.25694" lon="13.3606017"><ele>307.3333333333333</ele><time>2026-04-12T08:07:42.428Z</time></trkpt><trkpt lat="43.256885" lon="13.3606783"><ele>306.0</ele><time>2026-04-12T08:07:43.431Z</time></trkpt><trkpt lat="43.2568317" lon="13.3607533"><ele>305.5</ele><time>2026-04-12T08:07:44.431Z</time></trkpt><trkpt lat="43.2567767" lon="13.36083"><ele>305.0</ele><time>2026-04-12T08:07:45.428Z</time></trkpt><trkpt lat="43.2567233" lon="13.3608917"><ele>304.5</ele><time>2026-04-12T08:07:46.426Z</time></trkpt><trkpt lat="43.2566717" lon="13.3609483"><ele>304.0</ele><time>2026-04-12T08:07:47.423Z</time></trkpt><trkpt lat="43.25662" lon="13.3610067"><ele>303.5</ele><time>2026-04-12T08:07:48.427Z</time></trkpt><trkpt lat="43.2565583" lon="13.3610783"><ele>303.0</ele><time>2026-04-12T08:07:49.426Z</time></trkpt><trkpt lat="43.2564883" lon="13.3611633"><ele>301.5</ele><time>2026-04-12T08:07:50.427Z</time></trkpt><trkpt lat="43.2564067" lon="13.36127"><ele>300.0</ele><time>2026-04-12T08:07:51.428Z</time></trkpt><trkpt lat="43.2563183" lon="13.3613883"><ele>298.5</ele><time>2026-04-12T08:07:52.427Z</time></trkpt><trkpt lat="43.2562233" lon="13.3615"><ele>297.0</ele><time>2026-04-12T08:07:53.432Z</time></trkpt><trkpt lat="43.2561317" lon="13.3616067"><ele>296.5</ele><time>2026-04-12T08:07:54.429Z</time></trkpt><trkpt lat="43.2560517" lon="13.3617083"><ele>296.0</ele><time>2026-04-12T08:07:55.43Z</time></trkpt><trkpt lat="43.25598" lon="13.3617983"><ele>295.5</ele><time>2026-04-12T08:07:56.428Z</time></trkpt><trkpt lat="43.25592" lon="13.361875"><ele>295.0</ele><time>2026-04-12T08:07:57.426Z</time></trkpt><trkpt lat="43.25586" lon="13.3619367"><ele>294.5</ele><time>2026-04-12T08:07:58.428Z</time></trkpt><trkpt lat="43.255805" lon="13.3620033"><ele>294.0</ele><time>2026-04-12T08:07:59.427Z</time></trkpt><trkpt lat="43.2557433" lon="13.36208"><ele>294.0</ele><time>2026-04-12T08:08:00.431Z</time></trkpt><trkpt lat="43.2556633" lon="13.3621767"><ele>294.0</ele><time>2026-04-12T08:08:01.429Z</time></trkpt><trkpt lat="43.2555717" lon="13.3622867"><ele>294.0</ele><time>2026-04-12T08:08:02.43Z</time></trkpt><trkpt lat="43.2554767" lon="13.362395"><ele>294.0</ele><time>2026-04-12T08:08:03.427Z</time></trkpt><trkpt lat="43.2553783" lon="13.3625117"><ele>292.5</ele><time>2026-04-12T08:08:04.427Z</time></trkpt><trkpt lat="43.2552867" lon="13.3626233"><ele>291.0</ele><time>2026-04-12T08:08:05.426Z</time></trkpt><trkpt lat="43.2551967" lon="13.3627283"><ele>289.5</ele><time>2026-04-12T08:08:06.423Z</time></trkpt><trkpt lat="43.2551117" lon="13.3628217"><ele>288.0</ele><time>2026-04-12T08:08:07.424Z</time></trkpt><trkpt lat="43.25503" lon="13.362905"><ele>288.0</ele><time>2026-04-12T08:08:08.426Z</time></trkpt><trkpt lat="43.2549517" lon="13.3629783"><ele>288.0</ele><time>2026-04-12T08:08:09.427Z</time></trkpt><trkpt lat="43.2548833" lon="13.3630467"><ele>288.0</ele><time>2026-04-12T08:08:10.429Z</time></trkpt><trkpt lat="43.2548117" lon="13.3631133"><ele>288.0</ele><time>2026-04-12T08:08:11.435Z</time></trkpt><trkpt lat="43.25473" lon="13.3631833"><ele>288.0</ele><time>2026-04-12T08:08:12.428Z</time></trkpt><trkpt lat="43.254625" lon="13.363255"><ele>284.25</ele><time>2026-04-12T08:08:13.425Z</time></trkpt><trkpt lat="43.2545183" lon="13.3633117"><ele>280.5</ele><time>2026-04-12T08:08:14.424Z</time></trkpt><trkpt lat="43.2544117" lon="13.36337"><ele>276.75</ele><time>2026-04-12T08:08:15.428Z</time></trkpt><trkpt lat="43.2543067" lon="13.3634483"><ele>273.0</ele><time>2026-04-12T08:08:16.425Z</time></trkpt><trkpt lat="43.2542083" lon="13.3635483"><ele>273.0</ele><time>2026-04-12T08:08:17.425Z</time></trkpt><trkpt lat="43.2541167" lon="13.3636717"><ele>273.0</ele><time>2026-04-12T08:08:18.43Z</time></trkpt><trkpt lat="43.2540333" lon="13.3638033"><ele>273.0</ele><time>2026-04-12T08:08:19.428Z</time></trkpt><trkpt lat="43.25396" lon="13.3639433"><ele>273.0</ele><time>2026-04-12T08:08:20.429Z</time></trkpt><trkpt lat="43.2538967" lon="13.3640967"><ele>269.0</ele><time>2026-04-12T08:08:21.425Z</time></trkpt><trkpt lat="43.2538517" lon="13.3642583"><ele>265.0</ele><time>2026-04-12T08:08:22.429Z</time></trkpt><trkpt lat="43.2538133" lon="13.36442"><ele>261.0</ele><time>2026-04-12T08:08:23.426Z</time></trkpt><trkpt lat="43.2537767" lon="13.3645783"><ele>257.0</ele><time>2026-04-12T08:08:24.428Z</time></trkpt><trkpt lat="43.2537333" lon="13.3647433"><ele>256.5</ele><time>2026-04-12T08:08:25.427Z</time></trkpt><trkpt lat="43.25368" lon="13.3649083"><ele>256.0</ele><time>2026-04-12T08:08:26.435Z</time></trkpt><trkpt lat="43.2536233" lon="13.3650783"><ele>255.5</ele><time>2026-04-12T08:08:27.427Z</time></trkpt><trkpt lat="43.253565" lon="13.3652417"><ele>255.0</ele><time>2026-04-12T08:08:28.425Z</time></trkpt><trkpt lat="43.253495" lon="13.3653983"><ele>254.75</ele><time>2026-04-12T08:08:29.425Z</time></trkpt><trkpt lat="43.2534267" lon="13.365555"><ele>254.5</ele><time>2026-04-12T08:08:30.427Z</time></trkpt><trkpt lat="43.253355" lon="13.365705"><ele>254.25</ele><time>2026-04-12T08:08:31.427Z</time></trkpt><trkpt lat="43.2532817" lon="13.3658467"><ele>254.0</ele><time>2026-04-12T08:08:32.433Z</time></trkpt><trkpt lat="43.253205" lon="13.3659817"><ele>254.0</ele><time>2026-04-12T08:08:33.43Z</time></trkpt><trkpt lat="43.2531283" lon="13.3661217"><ele>254.0</ele><time>2026-04-12T08:08:34.427Z</time></trkpt><trkpt lat="43.2530467" lon="13.366265"><ele>254.0</ele><time>2026-04-12T08:08:35.427Z</time></trkpt><trkpt lat="43.2529567" lon="13.3664133"><ele>254.0</ele><time>2026-04-12T08:08:36.423Z</time></trkpt><trkpt lat="43.2528617" lon="13.3665667"><ele>249.0</ele><time>2026-04-12T08:08:37.431Z</time></trkpt><trkpt lat="43.25276" lon="13.3667183"><ele>244.0</ele><time>2026-04-12T08:08:38.432Z</time></trkpt><trkpt lat="43.252655" lon="13.36687"><ele>239.0</ele><time>2026-04-12T08:08:39.43Z</time></trkpt><trkpt lat="43.2525433" lon="13.367025"><ele>239.0</ele><time>2026-04-12T08:08:40.43Z</time></trkpt><trkpt lat="43.2524333" lon="13.3671867"><ele>239.0</ele><time>2026-04-12T08:08:41.428Z</time></trkpt><trkpt lat="43.2523217" lon="13.3673517"><ele>239.0</ele><time>2026-04-12T08:08:42.426Z</time></trkpt><trkpt lat="43.2522117" lon="13.3675233"><ele>234.0</ele><time>2026-04-12T08:08:43.426Z</time></trkpt><trkpt lat="43.2521067" lon="13.3676967"><ele>229.0</ele><time>2026-04-12T08:08:44.427Z</time></trkpt><trkpt lat="43.2520033" lon="13.36787"><ele>224.0</ele><time>2026-04-12T08:08:45.436Z</time></trkpt><trkpt lat="43.2519083" lon="13.368045"><ele>224.0</ele><time>2026-04-12T08:08:46.427Z</time></trkpt><trkpt lat="43.2518167" lon="13.3682217"><ele>224.0</ele><time>2026-04-12T08:08:47.428Z</time></trkpt><trkpt lat="43.25172" lon="13.3683967"><ele>224.0</ele><time>2026-04-12T08:08:48.426Z</time></trkpt><trkpt lat="43.2516183" lon="13.36856"><ele>224.0</ele><time>2026-04-12T08:08:49.426Z</time></trkpt><trkpt lat="43.25151" lon="13.3687083"><ele>224.0</ele><time>2026-04-12T08:08:50.427Z</time></trkpt><trkpt lat="43.25141" lon="13.3688267"><ele>224.0</ele><time>2026-04-12T08:08:51.429Z</time></trkpt><trkpt lat="43.2513233" lon="13.3689167"><ele>224.0</ele><time>2026-04-12T08:08:52.427Z</time></trkpt><trkpt lat="43.2512567" lon="13.3689833"><ele>223.6</ele><time>2026-04-12T08:08:53.426Z</time></trkpt><trkpt lat="43.25116" lon="13.3690583"><ele>223.2</ele><time>2026-04-12T08:08:55.428Z</time></trkpt><trkpt lat="43.25106" lon="13.3690833"><ele>222.79999999999998</ele><time>2026-04-12T08:08:57.425Z</time></trkpt><trkpt lat="43.250985" lon="13.3690633"><ele>222.39999999999998</ele><time>2026-04-12T08:08:58.435Z</time></trkpt><trkpt lat="43.2509" lon="13.3690317"><ele>222.0</ele><time>2026-04-12T08:08:59.424Z</time></trkpt><trkpt lat="43.2508217" lon="13.3690017"><ele>222.0</ele><time>2026-04-12T08:09:00.431Z</time></trkpt><trkpt lat="43.2507533" lon="13.3689733"><ele>222.0</ele><time>2026-04-12T08:09:01.426Z</time></trkpt><trkpt lat="43.2506817" lon="13.3689467"><ele>222.0</ele><time>2026-04-12T08:09:02.429Z</time></trkpt><trkpt lat="43.2506083" lon="13.36892"><ele>222.0</ele><time>2026-04-12T08:09:03.425Z</time></trkpt><trkpt lat="43.2505383" lon="13.36889"><ele>222.0</ele><time>2026-04-12T08:09:04.431Z</time></trkpt><trkpt lat="43.2504583" lon="13.3688567"><ele>222.0</ele><time>2026-04-12T08:09:05.431Z</time></trkpt><trkpt lat="43.25036" lon="13.3688183"><ele>219.66666666666669</ele><time>2026-04-12T08:09:06.429Z</time></trkpt><trkpt lat="43.250215" lon="13.36877"><ele>217.33333333333334</ele><time>2026-04-12T08:09:07.428Z</time></trkpt><trkpt lat="43.2500633" lon="13.368705"><ele>215.0</ele><time>2026-04-12T08:09:08.426Z</time></trkpt><trkpt lat="43.2499283" lon="13.36862"><ele>215.0</ele><time>2026-04-12T08:09:09.428Z</time></trkpt><trkpt lat="43.24982" lon="13.36852"><ele>215.0</ele><time>2026-04-12T08:09:10.426Z</time></trkpt><trkpt lat="43.2497283" lon="13.3683983"><ele>215.0</ele><time>2026-04-12T08:09:11.43Z</time></trkpt><trkpt lat="43.2496383" lon="13.3682467"><ele>215.0</ele><time>2026-04-12T08:09:12.427Z</time></trkpt><trkpt lat="43.2495383" lon="13.3680717"><ele>213.33333333333334</ele><time>2026-04-12T08:09:13.428Z</time></trkpt><trkpt lat="43.2494383" lon="13.36789"><ele>211.66666666666669</ele><time>2026-04-12T08:09:14.428Z</time></trkpt><trkpt lat="43.24934" lon="13.36771"><ele>210.0</ele><time>2026-04-12T08:09:15.426Z</time></trkpt><trkpt lat="43.249235" lon="13.3675417"><ele>210.0</ele><time>2026-04-12T08:09:16.428Z</time></trkpt><trkpt lat="43.2491183" lon="13.3674083"><ele>210.0</ele><time>2026-04-12T08:09:17.427Z</time></trkpt><trkpt lat="43.2489883" lon="13.3673017"><ele>210.0</ele><time>2026-04-12T08:09:18.428Z</time></trkpt><trkpt lat="43.248845" lon="13.3672317"><ele>209.66666666666669</ele><time>2026-04-12T08:09:19.427Z</time></trkpt><trkpt lat="43.2486983" lon="13.3671933"><ele>209.33333333333334</ele><time>2026-04-12T08:09:20.426Z</time></trkpt><trkpt lat="43.2485383" lon="13.367195"><ele>209.0</ele><time>2026-04-12T08:09:21.425Z</time></trkpt><trkpt lat="43.2483833" lon="13.3672217"><ele>209.0</ele><time>2026-04-12T08:09:22.427Z</time></trkpt><trkpt lat="43.24823" lon="13.3672817"><ele>209.0</ele><time>2026-04-12T08:09:23.428Z</time></trkpt><trkpt lat="43.2480817" lon="13.367375"><ele>209.0</ele><time>2026-04-12T08:09:24.43Z</time></trkpt><trkpt lat="43.2479367" lon="13.3675017"><ele>205.0</ele><time>2026-04-12T08:09:25.43Z</time></trkpt><trkpt lat="43.247795" lon="13.3676433"><ele>201.0</ele><time>2026-04-12T08:09:26.428Z</time></trkpt><trkpt lat="43.24765" lon="13.3677933"><ele>197.0</ele><time>2026-04-12T08:09:27.426Z</time></trkpt><trkpt lat="43.24751" lon="13.367945"><ele>195.66666666666669</ele><time>2026-04-12T08:09:28.429Z</time></trkpt><trkpt lat="43.247375" lon="13.36809"><ele>194.33333333333331</ele><time>2026-04-12T08:09:29.429Z</time></trkpt><trkpt lat="43.247245" lon="13.3682283"><ele>193.0</ele><time>2026-04-12T08:09:30.433Z</time></trkpt><trkpt lat="43.2471217" lon="13.3683633"><ele>193.0</ele><time>2026-04-12T08:09:31.429Z</time></trkpt><trkpt lat="43.247" lon="13.3684867"><ele>193.0</ele><time>2026-04-12T08:09:32.428Z</time></trkpt><trkpt lat="43.2468717" lon="13.3686067"><ele>193.0</ele><time>2026-04-12T08:09:33.426Z</time></trkpt><trkpt lat="43.2467333" lon="13.3687167"><ele>193.0</ele><time>2026-04-12T08:09:34.427Z</time></trkpt><trkpt lat="43.246595" lon="13.3688083"><ele>193.0</ele><time>2026-04-12T08:09:35.427Z</time></trkpt><trkpt lat="43.2464567" lon="13.3688717"><ele>193.0</ele><time>2026-04-12T08:09:36.427Z</time></trkpt><trkpt lat="43.24631" lon="13.3689117"><ele>193.0</ele><time>2026-04-12T08:09:37.427Z</time></trkpt><trkpt lat="43.2461533" lon="13.3689283"><ele>193.75</ele><time>2026-04-12T08:09:38.428Z</time></trkpt><trkpt lat="43.246" lon="13.3689333"><ele>194.5</ele><time>2026-04-12T08:09:39.426Z</time></trkpt><trkpt lat="43.2458517" lon="13.36893"><ele>195.25</ele><time>2026-04-12T08:09:40.425Z</time></trkpt><trkpt lat="43.2457067" lon="13.3689167"><ele>196.0</ele><time>2026-04-12T08:09:41.429Z</time></trkpt><trkpt lat="43.2455667" lon="13.368905"><ele>196.0</ele><time>2026-04-12T08:09:42.425Z</time></trkpt><trkpt lat="43.2454267" lon="13.3688967"><ele>196.0</ele><time>2026-04-12T08:09:43.43Z</time></trkpt><trkpt lat="43.2452883" lon="13.3688817"><ele>196.0</ele><time>2026-04-12T08:09:44.427Z</time></trkpt><trkpt lat="43.245145" lon="13.368865"><ele>196.0</ele><time>2026-04-12T08:09:45.429Z</time></trkpt><trkpt lat="43.2450033" lon="13.3688533"><ele>193.0</ele><time>2026-04-12T08:09:46.427Z</time></trkpt><trkpt lat="43.244855" lon="13.3688433"><ele>190.0</ele><time>2026-04-12T08:09:47.426Z</time></trkpt><trkpt lat="43.2447133" lon="13.3688367"><ele>187.0</ele><time>2026-04-12T08:09:48.429Z</time></trkpt><trkpt lat="43.2445767" lon="13.368835"><ele>184.0</ele><time>2026-04-12T08:09:49.428Z</time></trkpt><trkpt lat="43.2444433" lon="13.3688333"><ele>184.5</ele><time>2026-04-12T08:09:50.428Z</time></trkpt><trkpt lat="43.2443133" lon="13.3688517"><ele>185.0</ele><time>2026-04-12T08:09:51.426Z</time></trkpt><trkpt lat="43.2441917" lon="13.3689067"><ele>185.5</ele><time>2026-04-12T08:09:52.427Z</time></trkpt><trkpt lat="43.2440867" lon="13.3689917"><ele>186.0</ele><time>2026-04-12T08:09:53.429Z</time></trkpt><trkpt lat="43.2439883" lon="13.3690967"><ele>185.0</ele><time>2026-04-12T08:09:54.43Z</time></trkpt><trkpt lat="43.2438883" lon="13.36921"><ele>184.0</ele><time>2026-04-12T08:09:55.432Z</time></trkpt><trkpt lat="43.2437867" lon="13.369335"><ele>183.0</ele><time>2026-04-12T08:09:56.432Z</time></trkpt><trkpt lat="43.2436867" lon="13.3694683"><ele>182.0</ele><time>2026-04-12T08:09:57.432Z</time></trkpt><trkpt lat="43.24359" lon="13.3695883"><ele>181.8</ele><time>2026-04-12T08:09:58.43Z</time></trkpt><trkpt lat="43.2434933" lon="13.3697"><ele>181.6</ele><time>2026-04-12T08:09:59.426Z</time></trkpt><trkpt lat="43.2434" lon="13.369795"><ele>181.4</ele><time>2026-04-12T08:10:00.426Z</time></trkpt><trkpt lat="43.2433067" lon="13.369865"><ele>181.20000000000002</ele><time>2026-04-12T08:10:01.428Z</time></trkpt><trkpt lat="43.2432133" lon="13.3699117"><ele>181.0</ele><time>2026-04-12T08:10:02.429Z</time></trkpt><trkpt lat="43.243115" lon="13.36995"><ele>180.25</ele><time>2026-04-12T08:10:03.43Z</time></trkpt><trkpt lat="43.2429983" lon="13.36998"><ele>179.5</ele><time>2026-04-12T08:10:04.428Z</time></trkpt><trkpt lat="43.2428783" lon="13.37002"><ele>178.75</ele><time>2026-04-12T08:10:05.429Z</time></trkpt><trkpt lat="43.24275" lon="13.3700867"><ele>178.0</ele><time>2026-04-12T08:10:06.441Z</time></trkpt><trkpt lat="43.2426267" lon="13.3701617"><ele>178.0</ele><time>2026-04-12T08:10:07.428Z</time></trkpt><trkpt lat="43.2425083" lon="13.3702417"><ele>178.0</ele><time>2026-04-12T08:10:08.433Z</time></trkpt><trkpt lat="43.2423967" lon="13.370315"><ele>178.0</ele><time>2026-04-12T08:10:09.43Z</time></trkpt><trkpt lat="43.24229" lon="13.3703817"><ele>178.0</ele><time>2026-04-12T08:10:10.43Z</time></trkpt><trkpt lat="43.2422067" lon="13.3704367"><ele>177.66666666666669</ele><time>2026-04-12T08:10:11.429Z</time></trkpt><trkpt lat="43.242135" lon="13.370485"><ele>177.33333333333334</ele><time>2026-04-12T08:10:12.427Z</time></trkpt><trkpt lat="43.2420583" lon="13.37053"><ele>177.0</ele><time>2026-04-12T08:10:13.427Z</time></trkpt><trkpt lat="43.2419867" lon="13.3705733"><ele>176.66666666666666</ele><time>2026-04-12T08:10:14.429Z</time></trkpt><trkpt lat="43.2419067" lon="13.3706167"><ele>176.33333333333331</ele><time>2026-04-12T08:10:15.428Z</time></trkpt><trkpt lat="43.2418217" lon="13.3706617"><ele>176.0</ele><time>2026-04-12T08:10:16.427Z</time></trkpt><trkpt lat="43.2417383" lon="13.3707017"><ele>176.0</ele><time>2026-04-12T08:10:17.429Z</time></trkpt><trkpt lat="43.2416533" lon="13.370735"><ele>176.0</ele><time>2026-04-12T08:10:18.429Z</time></trkpt><trkpt lat="43.24157" lon="13.370765"><ele>176.0</ele><time>2026-04-12T08:10:19.429Z</time></trkpt><trkpt lat="43.2414817" lon="13.3708033"><ele>176.0</ele><time>2026-04-12T08:10:20.432Z</time></trkpt><trkpt lat="43.2413917" lon="13.3708417"><ele>176.0</ele><time>2026-04-12T08:10:21.426Z</time></trkpt><trkpt lat="43.2413067" lon="13.37087"><ele>176.0</ele><time>2026-04-12T08:10:22.427Z</time></trkpt><trkpt lat="43.24123" lon="13.3708933"><ele>175.4</ele><time>2026-04-12T08:10:23.427Z</time></trkpt><trkpt lat="43.2411633" lon="13.3709117"><ele>174.8</ele><time>2026-04-12T08:10:24.431Z</time></trkpt><trkpt lat="43.2410983" lon="13.3709333"><ele>174.20000000000002</ele><time>2026-04-12T08:10:25.428Z</time></trkpt><trkpt lat="43.240985" lon="13.3709683"><ele>173.60000000000002</ele><time>2026-04-12T08:10:27.427Z</time></trkpt><trkpt lat="43.24088" lon="13.3709517"><ele>173.0</ele><time>2026-04-12T08:10:29.426Z</time></trkpt><trkpt lat="43.2407883" lon="13.3707783"><ele>173.0</ele><time>2026-04-12T08:10:31.43Z</time></trkpt><trkpt lat="43.24074" lon="13.37065"><ele>173.0</ele><time>2026-04-12T08:10:32.427Z</time></trkpt><trkpt lat="43.2406867" lon="13.3705083"><ele>173.0</ele><time>2026-04-12T08:10:33.429Z</time></trkpt><trkpt lat="43.2406333" lon="13.3703533"><ele>173.0</ele><time>2026-04-12T08:10:34.427Z</time></trkpt><trkpt lat="43.2405767" lon="13.3701967"><ele>172.75</ele><time>2026-04-12T08:10:35.427Z</time></trkpt><trkpt lat="43.24052" lon="13.3700417"><ele>172.5</ele><time>2026-04-12T08:10:36.429Z</time></trkpt><trkpt lat="43.2404667" lon="13.3698883"><ele>172.25</ele><time>2026-04-12T08:10:37.429Z</time></trkpt><trkpt lat="43.240415" lon="13.3697367"><ele>172.0</ele><time>2026-04-12T08:10:38.429Z</time></trkpt><trkpt lat="43.2403567" lon="13.3695867"><ele>172.0</ele><time>2026-04-12T08:10:39.429Z</time></trkpt><trkpt lat="43.2402967" lon="13.3694383"><ele>172.0</ele><time>2026-04-12T08:10:40.427Z</time></trkpt><trkpt lat="43.2402367" lon="13.3692883"><ele>172.0</ele><time>2026-04-12T08:10:41.427Z</time></trkpt><trkpt lat="43.2401717" lon="13.3691333"><ele>172.0</ele><time>2026-04-12T08:10:42.43Z</time></trkpt><trkpt lat="43.2401033" lon="13.3689733"><ele>172.0</ele><time>2026-04-12T08:10:43.428Z</time></trkpt><trkpt lat="43.24003" lon="13.3688167"><ele>172.0</ele><time>2026-04-12T08:10:44.431Z</time></trkpt><trkpt lat="43.239955" lon="13.3686583"><ele>172.0</ele><time>2026-04-12T08:10:45.426Z</time></trkpt><trkpt lat="43.23988" lon="13.3684983"><ele>172.0</ele><time>2026-04-12T08:10:46.427Z</time></trkpt><trkpt lat="43.239805" lon="13.3683367"><ele>171.75</ele><time>2026-04-12T08:10:47.43Z</time></trkpt><trkpt lat="43.2397283" lon="13.3681783"><ele>171.5</ele><time>2026-04-12T08:10:48.43Z</time></trkpt><trkpt lat="43.2396517" lon="13.3680233"><ele>171.25</ele><time>2026-04-12T08:10:49.433Z</time></trkpt><trkpt lat="43.2395733" lon="13.3678633"><ele>171.0</ele><time>2026-04-12T08:10:50.429Z</time></trkpt><trkpt lat="43.2394933" lon="13.3676983"><ele>170.66666666666666</ele><time>2026-04-12T08:10:51.429Z</time></trkpt><trkpt lat="43.23941" lon="13.36752"><ele>170.33333333333331</ele><time>2026-04-12T08:10:52.431Z</time></trkpt><trkpt lat="43.2393233" lon="13.3673367"><ele>170.0</ele><time>2026-04-12T08:10:53.435Z</time></trkpt><trkpt lat="43.2392383" lon="13.3671567"><ele>170.0</ele><time>2026-04-12T08:10:54.428Z</time></trkpt><trkpt lat="43.239155" lon="13.36698"><ele>170.0</ele><time>2026-04-12T08:10:55.428Z</time></trkpt><trkpt lat="43.2390683" lon="13.3668"><ele>170.0</ele><time>2026-04-12T08:10:56.43Z</time></trkpt><trkpt lat="43.238985" lon="13.36662"><ele>169.0</ele><time>2026-04-12T08:10:57.428Z</time></trkpt><trkpt lat="43.2389017" lon="13.366445"><ele>168.0</ele><time>2026-04-12T08:10:58.429Z</time></trkpt><trkpt lat="43.2388217" lon="13.3662667"><ele>167.0</ele><time>2026-04-12T08:10:59.43Z</time></trkpt><trkpt lat="43.2387383" lon="13.366085"><ele>167.0</ele><time>2026-04-12T08:11:00.431Z</time></trkpt><trkpt lat="43.2386517" lon="13.3659067"><ele>167.0</ele><time>2026-04-12T08:11:01.43Z</time></trkpt><trkpt lat="43.238565" lon="13.3657233"><ele>167.0</ele><time>2026-04-12T08:11:02.435Z</time></trkpt><trkpt lat="43.2384783" lon="13.3655417"><ele>167.0</ele><time>2026-04-12T08:11:03.428Z</time></trkpt><trkpt lat="43.2383883" lon="13.36536"><ele>167.0</ele><time>2026-04-12T08:11:04.429Z</time></trkpt><trkpt lat="43.2382983" lon="13.3651733"><ele>167.0</ele><time>2026-04-12T08:11:05.43Z</time></trkpt><trkpt lat="43.2382067" lon="13.364985"><ele>166.33333333333331</ele><time>2026-04-12T08:11:06.43Z</time></trkpt><trkpt lat="43.2381183" lon="13.3647967"><ele>165.66666666666666</ele><time>2026-04-12T08:11:07.428Z</time></trkpt><trkpt lat="43.23803" lon="13.3646133"><ele>165.0</ele><time>2026-04-12T08:11:08.43Z</time></trkpt><trkpt lat="43.23794" lon="13.36443"><ele>165.0</ele><time>2026-04-12T08:11:09.429Z</time></trkpt><trkpt lat="43.23785" lon="13.3642433"><ele>165.0</ele><time>2026-04-12T08:11:10.428Z</time></trkpt><trkpt lat="43.23776" lon="13.36406"><ele>165.0</ele><time>2026-04-12T08:11:11.426Z</time></trkpt><trkpt lat="43.2376733" lon="13.3638817"><ele>166.0</ele><time>2026-04-12T08:11:12.429Z</time></trkpt><trkpt lat="43.2375833" lon="13.3637017"><ele>167.0</ele><time>2026-04-12T08:11:13.429Z</time></trkpt><trkpt lat="43.2374933" lon="13.3635183"><ele>168.0</ele><time>2026-04-12T08:11:14.433Z</time></trkpt><trkpt lat="43.237405" lon="13.363335"><ele>168.0</ele><time>2026-04-12T08:11:15.429Z</time></trkpt><trkpt lat="43.2373183" lon="13.36315"><ele>168.0</ele><time>2026-04-12T08:11:16.428Z</time></trkpt><trkpt lat="43.2372317" lon="13.3629667"><ele>168.0</ele><time>2026-04-12T08:11:17.431Z</time></trkpt><trkpt lat="43.237145" lon="13.3627867"><ele>167.33333333333334</ele><time>2026-04-12T08:11:18.43Z</time></trkpt><trkpt lat="43.2370567" lon="13.362605"><ele>166.66666666666669</ele><time>2026-04-12T08:11:19.429Z</time></trkpt><trkpt lat="43.23697" lon="13.3624217"><ele>166.0</ele><time>2026-04-12T08:11:20.436Z</time></trkpt><trkpt lat="43.2368833" lon="13.3622417"><ele>166.0</ele><time>2026-04-12T08:11:21.431Z</time></trkpt><trkpt lat="43.236795" lon="13.3620617"><ele>166.0</ele><time>2026-04-12T08:11:22.43Z</time></trkpt><trkpt lat="43.2367067" lon="13.3618817"><ele>166.0</ele><time>2026-04-12T08:11:23.431Z</time></trkpt><trkpt lat="43.2366217" lon="13.3617017"><ele>166.0</ele><time>2026-04-12T08:11:24.427Z</time></trkpt><trkpt lat="43.2365383" lon="13.3615217"><ele>166.0</ele><time>2026-04-12T08:11:25.424Z</time></trkpt><trkpt lat="43.236455" lon="13.3613383"><ele>166.0</ele><time>2026-04-12T08:11:26.431Z</time></trkpt><trkpt lat="43.2363617" lon="13.361145"><ele>166.66666666666669</ele><time>2026-04-12T08:11:27.427Z</time></trkpt><trkpt lat="43.2362583" lon="13.3609417"><ele>167.33333333333334</ele><time>2026-04-12T08:11:28.43Z</time></trkpt><trkpt lat="43.23615" lon="13.3607333"><ele>168.0</ele><time>2026-04-12T08:11:29.428Z</time></trkpt><trkpt lat="43.2360433" lon="13.36052"><ele>168.66666666666666</ele><time>2026-04-12T08:11:30.436Z</time></trkpt><trkpt lat="43.23594" lon="13.3603"><ele>169.33333333333331</ele><time>2026-04-12T08:11:31.428Z</time></trkpt><trkpt lat="43.23584" lon="13.3600767"><ele>170.0</ele><time>2026-04-12T08:11:32.431Z</time></trkpt><trkpt lat="43.2357383" lon="13.3598533"><ele>170.33333333333331</ele><time>2026-04-12T08:11:33.431Z</time></trkpt><trkpt lat="43.2356383" lon="13.35963"><ele>170.66666666666666</ele><time>2026-04-12T08:11:34.429Z</time></trkpt><trkpt lat="43.2355367" lon="13.3594067"><ele>171.0</ele><time>2026-04-12T08:11:35.432Z</time></trkpt><trkpt lat="43.2354333" lon="13.359185"><ele>171.33333333333334</ele><time>2026-04-12T08:11:36.428Z</time></trkpt><trkpt lat="43.2353283" lon="13.3589617"><ele>171.66666666666669</ele><time>2026-04-12T08:11:37.428Z</time></trkpt><trkpt lat="43.2352233" lon="13.35874"><ele>172.0</ele><time>2026-04-12T08:11:38.43Z</time></trkpt><trkpt lat="43.2351183" lon="13.3585217"><ele>171.66666666666669</ele><time>2026-04-12T08:11:39.43Z</time></trkpt><trkpt lat="43.2350133" lon="13.3583033"><ele>171.33333333333334</ele><time>2026-04-12T08:11:40.435Z</time></trkpt><trkpt lat="43.2349083" lon="13.3580883"><ele>171.0</ele><time>2026-04-12T08:11:41.432Z</time></trkpt><trkpt lat="43.2348" lon="13.3578733"><ele>171.0</ele><time>2026-04-12T08:11:42.438Z</time></trkpt><trkpt lat="43.2346917" lon="13.3576583"><ele>171.0</ele><time>2026-04-12T08:11:43.431Z</time></trkpt><trkpt lat="43.2345867" lon="13.3574433"><ele>171.0</ele><time>2026-04-12T08:11:44.432Z</time></trkpt><trkpt lat="43.2344833" lon="13.3572267"><ele>171.33333333333334</ele><time>2026-04-12T08:11:45.429Z</time></trkpt><trkpt lat="43.2343783" lon="13.3570083"><ele>171.66666666666669</ele><time>2026-04-12T08:11:46.429Z</time></trkpt><trkpt lat="43.2342733" lon="13.3567883"><ele>172.0</ele><time>2026-04-12T08:11:47.428Z</time></trkpt><trkpt lat="43.2341683" lon="13.3565667"><ele>172.0</ele><time>2026-04-12T08:11:48.431Z</time></trkpt><trkpt lat="43.2340617" lon="13.356345"><ele>172.0</ele><time>2026-04-12T08:11:49.431Z</time></trkpt><trkpt lat="43.2339583" lon="13.3561233"><ele>172.0</ele><time>2026-04-12T08:11:50.43Z</time></trkpt><trkpt lat="43.233855" lon="13.355905"><ele>172.0</ele><time>2026-04-12T08:11:51.43Z</time></trkpt><trkpt lat="43.23375" lon="13.3556867"><ele>172.0</ele><time>2026-04-12T08:11:52.428Z</time></trkpt><trkpt lat="43.233645" lon="13.3554717"><ele>172.0</ele><time>2026-04-12T08:11:53.431Z</time></trkpt><trkpt lat="43.23354" lon="13.3552567"><ele>172.0</ele><time>2026-04-12T08:11:54.432Z</time></trkpt><trkpt lat="43.2334367" lon="13.3550417"><ele>172.0</ele><time>2026-04-12T08:11:55.431Z</time></trkpt><trkpt lat="43.233335" lon="13.354825"><ele>172.0</ele><time>2026-04-12T08:11:56.428Z</time></trkpt><trkpt lat="43.2332317" lon="13.35461"><ele>173.66666666666669</ele><time>2026-04-12T08:11:57.43Z</time></trkpt><trkpt lat="43.2331267" lon="13.354395"><ele>175.33333333333334</ele><time>2026-04-12T08:11:58.429Z</time></trkpt><trkpt lat="43.2330233" lon="13.35418"><ele>177.0</ele><time>2026-04-12T08:11:59.433Z</time></trkpt><trkpt lat="43.2329183" lon="13.3539667"><ele>177.33333333333334</ele><time>2026-04-12T08:12:00.431Z</time></trkpt><trkpt lat="43.2328133" lon="13.3537517"><ele>177.66666666666669</ele><time>2026-04-12T08:12:01.434Z</time></trkpt><trkpt lat="43.2327083" lon="13.353535"><ele>178.0</ele><time>2026-04-12T08:12:02.434Z</time></trkpt><trkpt lat="43.2326067" lon="13.3533167"><ele>178.0</ele><time>2026-04-12T08:12:03.433Z</time></trkpt><trkpt lat="43.2325017" lon="13.353095"><ele>178.0</ele><time>2026-04-12T08:12:04.43Z</time></trkpt><trkpt lat="43.2323967" lon="13.3528733"><ele>178.0</ele><time>2026-04-12T08:12:05.431Z</time></trkpt><trkpt lat="43.2322917" lon="13.3526517"><ele>177.66666666666669</ele><time>2026-04-12T08:12:06.43Z</time></trkpt><trkpt lat="43.232185" lon="13.3524283"><ele>177.33333333333334</ele><time>2026-04-12T08:12:07.429Z</time></trkpt><trkpt lat="43.2320767" lon="13.3522083"><ele>177.0</ele><time>2026-04-12T08:12:08.428Z</time></trkpt><trkpt lat="43.23197" lon="13.351985"><ele>177.0</ele><time>2026-04-12T08:12:09.43Z</time></trkpt><trkpt lat="43.2318617" lon="13.3517617"><ele>177.0</ele><time>2026-04-12T08:12:10.436Z</time></trkpt><trkpt lat="43.231755" lon="13.351535"><ele>177.0</ele><time>2026-04-12T08:12:11.43Z</time></trkpt><trkpt lat="43.23165" lon="13.35131"><ele>178.0</ele><time>2026-04-12T08:12:12.433Z</time></trkpt><trkpt lat="43.2315433" lon="13.3510867"><ele>179.0</ele><time>2026-04-12T08:12:13.432Z</time></trkpt><trkpt lat="43.2314367" lon="13.3508633"><ele>180.0</ele><time>2026-04-12T08:12:14.434Z</time></trkpt><trkpt lat="43.2313283" lon="13.3506417"><ele>180.33333333333334</ele><time>2026-04-12T08:12:15.433Z</time></trkpt><trkpt lat="43.23122" lon="13.3504217"><ele>180.66666666666669</ele><time>2026-04-12T08:12:16.426Z</time></trkpt><trkpt lat="43.2311117" lon="13.3502033"><ele>181.0</ele><time>2026-04-12T08:12:17.431Z</time></trkpt><trkpt lat="43.2310067" lon="13.349985"><ele>181.0</ele><time>2026-04-12T08:12:18.434Z</time></trkpt><trkpt lat="43.2309033" lon="13.349765"><ele>181.0</ele><time>2026-04-12T08:12:19.43Z</time></trkpt><trkpt lat="43.230805" lon="13.3495433"><ele>181.0</ele><time>2026-04-12T08:12:20.435Z</time></trkpt><trkpt lat="43.2307083" lon="13.3493167"><ele>180.33333333333334</ele><time>2026-04-12T08:12:21.433Z</time></trkpt><trkpt lat="43.2306183" lon="13.3490833"><ele>179.66666666666666</ele><time>2026-04-12T08:12:22.428Z</time></trkpt><trkpt lat="43.2305317" lon="13.3488467"><ele>179.0</ele><time>2026-04-12T08:12:23.427Z</time></trkpt><trkpt lat="43.2304417" lon="13.3486117"><ele>179.0</ele><time>2026-04-12T08:12:24.433Z</time></trkpt><trkpt lat="43.2303517" lon="13.348375"><ele>179.0</ele><time>2026-04-12T08:12:25.433Z</time></trkpt><trkpt lat="43.2302633" lon="13.34814"><ele>179.0</ele><time>2026-04-12T08:12:26.43Z</time></trkpt><trkpt lat="43.230175" lon="13.347905"><ele>179.66666666666666</ele><time>2026-04-12T08:12:27.436Z</time></trkpt><trkpt lat="43.230085" lon="13.3476717"><ele>180.33333333333334</ele><time>2026-04-12T08:12:28.43Z</time></trkpt><trkpt lat="43.2299933" lon="13.3474367"><ele>181.0</ele><time>2026-04-12T08:12:29.432Z</time></trkpt><trkpt lat="43.2299" lon="13.3472033"><ele>179.66666666666669</ele><time>2026-04-12T08:12:30.426Z</time></trkpt><trkpt lat="43.2298067" lon="13.3469733"><ele>178.33333333333334</ele><time>2026-04-12T08:12:31.427Z</time></trkpt><trkpt lat="43.2297117" lon="13.346745"><ele>177.0</ele><time>2026-04-12T08:12:32.431Z</time></trkpt><trkpt lat="43.22961" lon="13.346525"><ele>176.33333333333334</ele><time>2026-04-12T08:12:33.428Z</time></trkpt><trkpt lat="43.2295067" lon="13.3463067"><ele>175.66666666666669</ele><time>2026-04-12T08:12:34.428Z</time></trkpt><trkpt lat="43.2293983" lon="13.34609"><ele>175.0</ele><time>2026-04-12T08:12:35.428Z</time></trkpt><trkpt lat="43.2292917" lon="13.3458767"><ele>175.0</ele><time>2026-04-12T08:12:36.426Z</time></trkpt><trkpt lat="43.2291833" lon="13.3456633"><ele>175.0</ele><time>2026-04-12T08:12:37.429Z</time></trkpt><trkpt lat="43.2290733" lon="13.3454533"><ele>175.0</ele><time>2026-04-12T08:12:38.43Z</time></trkpt><trkpt lat="43.2289633" lon="13.3452483"><ele>175.0</ele><time>2026-04-12T08:12:39.426Z</time></trkpt><trkpt lat="43.228845" lon="13.3450433"><ele>175.0</ele><time>2026-04-12T08:12:40.428Z</time></trkpt><trkpt lat="43.2287217" lon="13.34484"><ele>175.0</ele><time>2026-04-12T08:12:41.423Z</time></trkpt><trkpt lat="43.228595" lon="13.3446367"><ele>176.0</ele><time>2026-04-12T08:12:42.427Z</time></trkpt><trkpt lat="43.228465" lon="13.344435"><ele>177.0</ele><time>2026-04-12T08:12:43.426Z</time></trkpt><trkpt lat="43.2283333" lon="13.3442367"><ele>178.0</ele><time>2026-04-12T08:12:44.427Z</time></trkpt><trkpt lat="43.2281967" lon="13.3440383"><ele>176.66666666666669</ele><time>2026-04-12T08:12:45.426Z</time></trkpt><trkpt lat="43.2280617" lon="13.34384"><ele>175.33333333333334</ele><time>2026-04-12T08:12:46.43Z</time></trkpt><trkpt lat="43.227925" lon="13.3436383"><ele>174.0</ele><time>2026-04-12T08:12:47.429Z</time></trkpt><trkpt lat="43.2277883" lon="13.34343"><ele>174.0</ele><time>2026-04-12T08:12:48.426Z</time></trkpt><trkpt lat="43.227655" lon="13.3432217"><ele>174.0</ele><time>2026-04-12T08:12:49.43Z</time></trkpt><trkpt lat="43.2275167" lon="13.3430117"><ele>174.0</ele><time>2026-04-12T08:12:50.432Z</time></trkpt><trkpt lat="43.2273783" lon="13.342805"><ele>173.66666666666666</ele><time>2026-04-12T08:12:51.427Z</time></trkpt><trkpt lat="43.22724" lon="13.3425983"><ele>173.33333333333331</ele><time>2026-04-12T08:12:52.427Z</time></trkpt><trkpt lat="43.227105" lon="13.3423967"><ele>173.0</ele><time>2026-04-12T08:12:53.427Z</time></trkpt><trkpt lat="43.2269717" lon="13.342195"><ele>173.0</ele><time>2026-04-12T08:12:54.427Z</time></trkpt><trkpt lat="43.2268417" lon="13.3419933"><ele>173.0</ele><time>2026-04-12T08:12:55.43Z</time></trkpt><trkpt lat="43.2267167" lon="13.34179"><ele>173.0</ele><time>2026-04-12T08:12:56.428Z</time></trkpt><trkpt lat="43.2265983" lon="13.3415833"><ele>172.0</ele><time>2026-04-12T08:12:57.423Z</time></trkpt><trkpt lat="43.2264833" lon="13.34137"><ele>171.0</ele><time>2026-04-12T08:12:58.427Z</time></trkpt><trkpt lat="43.2263667" lon="13.3411517"><ele>170.0</ele><time>2026-04-12T08:12:59.432Z</time></trkpt><trkpt lat="43.2262533" lon="13.34093"><ele>170.0</ele><time>2026-04-12T08:13:00.428Z</time></trkpt><trkpt lat="43.2261433" lon="13.340705"><ele>170.0</ele><time>2026-04-12T08:13:01.427Z</time></trkpt><trkpt lat="43.2260317" lon="13.34048"><ele>170.0</ele><time>2026-04-12T08:13:02.429Z</time></trkpt><trkpt lat="43.22592" lon="13.3402583"><ele>170.33333333333331</ele><time>2026-04-12T08:13:03.428Z</time></trkpt><trkpt lat="43.2258083" lon="13.340035"><ele>170.66666666666666</ele><time>2026-04-12T08:13:04.427Z</time></trkpt><trkpt lat="43.2256983" lon="13.3398117"><ele>171.0</ele><time>2026-04-12T08:13:05.428Z</time></trkpt><trkpt lat="43.22559" lon="13.3395867"><ele>171.33333333333334</ele><time>2026-04-12T08:13:06.429Z</time></trkpt><trkpt lat="43.22548" lon="13.339365"><ele>171.66666666666669</ele><time>2026-04-12T08:13:07.427Z</time></trkpt><trkpt lat="43.22537" lon="13.3391433"><ele>172.0</ele><time>2026-04-12T08:13:08.431Z</time></trkpt><trkpt lat="43.2252583" lon="13.3389183"><ele>172.33333333333334</ele><time>2026-04-12T08:13:09.428Z</time></trkpt><trkpt lat="43.2251483" lon="13.338695"><ele>172.66666666666666</ele><time>2026-04-12T08:13:10.425Z</time></trkpt><trkpt lat="43.2250417" lon="13.3384717"><ele>173.0</ele><time>2026-04-12T08:13:11.425Z</time></trkpt><trkpt lat="43.224935" lon="13.3382483"><ele>173.66666666666666</ele><time>2026-04-12T08:13:12.426Z</time></trkpt><trkpt lat="43.22483" lon="13.3380283"><ele>174.33333333333334</ele><time>2026-04-12T08:13:13.428Z</time></trkpt><trkpt lat="43.2247283" lon="13.3378083"><ele>175.0</ele><time>2026-04-12T08:13:14.425Z</time></trkpt><trkpt lat="43.224635" lon="13.33759"><ele>175.0</ele><time>2026-04-12T08:13:15.429Z</time></trkpt><trkpt lat="43.2245533" lon="13.33736"><ele>175.0</ele><time>2026-04-12T08:13:16.43Z</time></trkpt><trkpt lat="43.2244933" lon="13.337115"><ele>175.0</ele><time>2026-04-12T08:13:17.431Z</time></trkpt><trkpt lat="43.2244533" lon="13.3368617"><ele>176.0</ele><time>2026-04-12T08:13:18.434Z</time></trkpt><trkpt lat="43.224435" lon="13.336605"><ele>177.0</ele><time>2026-04-12T08:13:19.428Z</time></trkpt><trkpt lat="43.2244" lon="13.33635"><ele>178.0</ele><time>2026-04-12T08:13:20.429Z</time></trkpt><trkpt lat="43.2243433" lon="13.3360983"><ele>180.0</ele><time>2026-04-12T08:13:21.428Z</time></trkpt><trkpt lat="43.22426" lon="13.3358633"><ele>182.0</ele><time>2026-04-12T08:13:22.43Z</time></trkpt><trkpt lat="43.224155" lon="13.335645"><ele>184.0</ele><time>2026-04-12T08:13:23.429Z</time></trkpt><trkpt lat="43.2240467" lon="13.33544"><ele>184.66666666666669</ele><time>2026-04-12T08:13:24.428Z</time></trkpt><trkpt lat="43.2239417" lon="13.3352383"><ele>185.33333333333334</ele><time>2026-04-12T08:13:25.429Z</time></trkpt><trkpt lat="43.2238317" lon="13.3350417"><ele>186.0</ele><time>2026-04-12T08:13:26.429Z</time></trkpt><trkpt lat="43.2237333" lon="13.3348417"><ele>186.66666666666666</ele><time>2026-04-12T08:13:27.426Z</time></trkpt><trkpt lat="43.2236417" lon="13.3346383"><ele>187.33333333333331</ele><time>2026-04-12T08:13:28.426Z</time></trkpt><trkpt lat="43.2235567" lon="13.3344433"><ele>188.0</ele><time>2026-04-12T08:13:29.43Z</time></trkpt><trkpt lat="43.2234767" lon="13.3342617"><ele>188.0</ele><time>2026-04-12T08:13:30.43Z</time></trkpt><trkpt lat="43.223405" lon="13.3340917"><ele>188.0</ele><time>2026-04-12T08:13:31.43Z</time></trkpt><trkpt lat="43.2233433" lon="13.3339317"><ele>188.0</ele><time>2026-04-12T08:13:32.428Z</time></trkpt><trkpt lat="43.223285" lon="13.3337717"><ele>188.0</ele><time>2026-04-12T08:13:33.428Z</time></trkpt><trkpt lat="43.22322" lon="13.3336"><ele>188.33333333333331</ele><time>2026-04-12T08:13:34.432Z</time></trkpt><trkpt lat="43.2231433" lon="13.3334167"><ele>188.66666666666666</ele><time>2026-04-12T08:13:35.425Z</time></trkpt><trkpt lat="43.22306" lon="13.333225"><ele>189.0</ele><time>2026-04-12T08:13:36.425Z</time></trkpt><trkpt lat="43.2229717" lon="13.3330233"><ele>189.0</ele><time>2026-04-12T08:13:37.424Z</time></trkpt><trkpt lat="43.22287" lon="13.332815"><ele>189.0</ele><time>2026-04-12T08:13:38.428Z</time></trkpt><trkpt lat="43.2227633" lon="13.3326067"><ele>189.0</ele><time>2026-04-12T08:13:39.426Z</time></trkpt><trkpt lat="43.2226517" lon="13.3323983"><ele>189.33333333333334</ele><time>2026-04-12T08:13:40.426Z</time></trkpt><trkpt lat="43.2225383" lon="13.3321933"><ele>189.66666666666669</ele><time>2026-04-12T08:13:41.431Z</time></trkpt><trkpt lat="43.22243" lon="13.3319883"><ele>190.0</ele><time>2026-04-12T08:13:42.427Z</time></trkpt><trkpt lat="43.2223267" lon="13.3317817"><ele>190.0</ele><time>2026-04-12T08:13:43.426Z</time></trkpt><trkpt lat="43.2222283" lon="13.3315683"><ele>190.0</ele><time>2026-04-12T08:13:44.431Z</time></trkpt><trkpt lat="43.2221383" lon="13.3313483"><ele>190.0</ele><time>2026-04-12T08:13:45.429Z</time></trkpt><trkpt lat="43.2220533" lon="13.3311233"><ele>189.66666666666669</ele><time>2026-04-12T08:13:46.427Z</time></trkpt><trkpt lat="43.22197" lon="13.3309"><ele>189.33333333333334</ele><time>2026-04-12T08:13:47.427Z</time></trkpt><trkpt lat="43.2218883" lon="13.330675"><ele>189.0</ele><time>2026-04-12T08:13:48.426Z</time></trkpt><trkpt lat="43.2218067" lon="13.3304517"><ele>189.0</ele><time>2026-04-12T08:13:49.426Z</time></trkpt><trkpt lat="43.2217267" lon="13.3302317"><ele>189.0</ele><time>2026-04-12T08:13:50.426Z</time></trkpt><trkpt lat="43.221655" lon="13.330015"><ele>189.0</ele><time>2026-04-12T08:13:51.429Z</time></trkpt><trkpt lat="43.2215933" lon="13.3298083"><ele>190.0</ele><time>2026-04-12T08:13:52.427Z</time></trkpt><trkpt lat="43.22154" lon="13.3296"><ele>191.0</ele><time>2026-04-12T08:13:53.426Z</time></trkpt><trkpt lat="43.221495" lon="13.3293817"><ele>192.0</ele><time>2026-04-12T08:13:54.426Z</time></trkpt><trkpt lat="43.221455" lon="13.32916"><ele>190.66666666666666</ele><time>2026-04-12T08:13:55.425Z</time></trkpt><trkpt lat="43.22142" lon="13.3289433"><ele>189.33333333333331</ele><time>2026-04-12T08:13:56.426Z</time></trkpt><trkpt lat="43.22139" lon="13.3287317"><ele>188.0</ele><time>2026-04-12T08:13:57.433Z</time></trkpt><trkpt lat="43.2213617" lon="13.3285217"><ele>188.0</ele><time>2026-04-12T08:13:58.425Z</time></trkpt><trkpt lat="43.2213317" lon="13.32831"><ele>188.0</ele><time>2026-04-12T08:13:59.424Z</time></trkpt><trkpt lat="43.2213067" lon="13.3280933"><ele>188.0</ele><time>2026-04-12T08:14:00.434Z</time></trkpt><trkpt lat="43.2212833" lon="13.3278733"><ele>188.66666666666666</ele><time>2026-04-12T08:14:01.428Z</time></trkpt><trkpt lat="43.2212583" lon="13.32766"><ele>189.33333333333334</ele><time>2026-04-12T08:14:02.426Z</time></trkpt><trkpt lat="43.221235" lon="13.327445"><ele>190.0</ele><time>2026-04-12T08:14:03.43Z</time></trkpt><trkpt lat="43.22121" lon="13.3272317"><ele>189.0</ele><time>2026-04-12T08:14:04.429Z</time></trkpt><trkpt lat="43.221185" lon="13.3270217"><ele>188.0</ele><time>2026-04-12T08:14:05.427Z</time></trkpt><trkpt lat="43.2211617" lon="13.3268083"><ele>187.0</ele><time>2026-04-12T08:14:06.429Z</time></trkpt><trkpt lat="43.221135" lon="13.3265917"><ele>187.66666666666669</ele><time>2026-04-12T08:14:07.428Z</time></trkpt><trkpt lat="43.2211067" lon="13.32637"><ele>188.33333333333334</ele><time>2026-04-12T08:14:08.426Z</time></trkpt><trkpt lat="43.22108" lon="13.326145"><ele>189.0</ele><time>2026-04-12T08:14:09.431Z</time></trkpt><trkpt lat="43.2210567" lon="13.32592"><ele>189.0</ele><time>2026-04-12T08:14:10.429Z</time></trkpt><trkpt lat="43.2210333" lon="13.3256917"><ele>189.0</ele><time>2026-04-12T08:14:11.424Z</time></trkpt><trkpt lat="43.2210067" lon="13.32546"><ele>189.0</ele><time>2026-04-12T08:14:12.432Z</time></trkpt><trkpt lat="43.2209833" lon="13.325225"><ele>189.0</ele><time>2026-04-12T08:14:13.432Z</time></trkpt><trkpt lat="43.22096" lon="13.3249883"><ele>189.0</ele><time>2026-04-12T08:14:14.431Z</time></trkpt><trkpt lat="43.220935" lon="13.3247467"><ele>189.0</ele><time>2026-04-12T08:14:15.43Z</time></trkpt><trkpt lat="43.220915" lon="13.3245117"><ele>190.0</ele><time>2026-04-12T08:14:16.425Z</time></trkpt><trkpt lat="43.2208917" lon="13.3242767"><ele>191.0</ele><time>2026-04-12T08:14:17.432Z</time></trkpt><trkpt lat="43.22087" lon="13.32404"><ele>192.0</ele><time>2026-04-12T08:14:18.429Z</time></trkpt><trkpt lat="43.2208533" lon="13.3237967"><ele>192.0</ele><time>2026-04-12T08:14:19.427Z</time></trkpt><trkpt lat="43.220845" lon="13.3235617"><ele>192.0</ele><time>2026-04-12T08:14:20.427Z</time></trkpt><trkpt lat="43.2208383" lon="13.323325"><ele>192.0</ele><time>2026-04-12T08:14:21.423Z</time></trkpt><trkpt lat="43.2208317" lon="13.323085"><ele>192.33333333333331</ele><time>2026-04-12T08:14:22.426Z</time></trkpt><trkpt lat="43.220825" lon="13.322845"><ele>192.66666666666666</ele><time>2026-04-12T08:14:23.428Z</time></trkpt><trkpt lat="43.2208233" lon="13.3226017"><ele>193.0</ele><time>2026-04-12T08:14:24.427Z</time></trkpt><trkpt lat="43.2208233" lon="13.322355"><ele>193.33333333333331</ele><time>2026-04-12T08:14:25.43Z</time></trkpt><trkpt lat="43.22082" lon="13.3221067"><ele>193.66666666666669</ele><time>2026-04-12T08:14:26.427Z</time></trkpt><trkpt lat="43.22081" lon="13.3218567"><ele>194.0</ele><time>2026-04-12T08:14:27.43Z</time></trkpt><trkpt lat="43.2207883" lon="13.3216083"><ele>194.33333333333334</ele><time>2026-04-12T08:14:28.427Z</time></trkpt><trkpt lat="43.220755" lon="13.32136"><ele>194.66666666666669</ele><time>2026-04-12T08:14:29.425Z</time></trkpt><trkpt lat="43.22072" lon="13.3211133"><ele>195.0</ele><time>2026-04-12T08:14:30.427Z</time></trkpt><trkpt lat="43.2206783" lon="13.320855"><ele>195.0</ele><time>2026-04-12T08:14:31.425Z</time></trkpt><trkpt lat="43.22064" lon="13.3205983"><ele>195.0</ele><time>2026-04-12T08:14:32.428Z</time></trkpt><trkpt lat="43.2206" lon="13.3203583"><ele>195.0</ele><time>2026-04-12T08:14:33.426Z</time></trkpt><trkpt lat="43.2205617" lon="13.3201267"><ele>195.0</ele><time>2026-04-12T08:14:34.424Z</time></trkpt><trkpt lat="43.2205167" lon="13.319885"><ele>195.0</ele><time>2026-04-12T08:14:35.429Z</time></trkpt><trkpt lat="43.2204733" lon="13.31964"><ele>195.0</ele><time>2026-04-12T08:14:36.426Z</time></trkpt><trkpt lat="43.2204283" lon="13.3193917"><ele>195.66666666666669</ele><time>2026-04-12T08:14:37.422Z</time></trkpt><trkpt lat="43.220385" lon="13.3191533"><ele>196.33333333333334</ele><time>2026-04-12T08:14:38.43Z</time></trkpt><trkpt lat="43.2203433" lon="13.318925"><ele>197.0</ele><time>2026-04-12T08:14:39.426Z</time></trkpt><trkpt lat="43.2203033" lon="13.3187117"><ele>197.0</ele><time>2026-04-12T08:14:40.428Z</time></trkpt><trkpt lat="43.220265" lon="13.3185"><ele>197.0</ele><time>2026-04-12T08:14:41.427Z</time></trkpt><trkpt lat="43.220225" lon="13.3182867"><ele>197.0</ele><time>2026-04-12T08:14:42.424Z</time></trkpt><trkpt lat="43.2201867" lon="13.3180733"><ele>197.33333333333334</ele><time>2026-04-12T08:14:43.431Z</time></trkpt><trkpt lat="43.22015" lon="13.3178633"><ele>197.66666666666669</ele><time>2026-04-12T08:14:44.432Z</time></trkpt><trkpt lat="43.2201133" lon="13.3176533"><ele>198.0</ele><time>2026-04-12T08:14:45.43Z</time></trkpt><trkpt lat="43.2200817" lon="13.3174417"><ele>198.5</ele><time>2026-04-12T08:14:46.43Z</time></trkpt><trkpt lat="43.2200483" lon="13.3172333"><ele>199.0</ele><time>2026-04-12T08:14:47.431Z</time></trkpt><trkpt lat="43.2200167" lon="13.317035"><ele>199.5</ele><time>2026-04-12T08:14:48.43Z</time></trkpt><trkpt lat="43.2199817" lon="13.3168467"><ele>200.0</ele><time>2026-04-12T08:14:49.428Z</time></trkpt><trkpt lat="43.2199483" lon="13.3166583"><ele>200.0</ele><time>2026-04-12T08:14:50.427Z</time></trkpt><trkpt lat="43.2199183" lon="13.3164767"><ele>200.0</ele><time>2026-04-12T08:14:51.428Z</time></trkpt><trkpt lat="43.219885" lon="13.316295"><ele>200.0</ele><time>2026-04-12T08:14:52.427Z</time></trkpt><trkpt lat="43.2198533" lon="13.316115"><ele>200.0</ele><time>2026-04-12T08:14:53.427Z</time></trkpt><trkpt lat="43.2198217" lon="13.3159333"><ele>198.5</ele><time>2026-04-12T08:14:54.427Z</time></trkpt><trkpt lat="43.21979" lon="13.3157533"><ele>197.0</ele><time>2026-04-12T08:14:55.43Z</time></trkpt><trkpt lat="43.2197583" lon="13.3155683"><ele>195.5</ele><time>2026-04-12T08:14:56.431Z</time></trkpt><trkpt lat="43.21973" lon="13.3153733"><ele>194.0</ele><time>2026-04-12T08:14:57.426Z</time></trkpt><trkpt lat="43.2197" lon="13.3151717"><ele>194.0</ele><time>2026-04-12T08:14:58.428Z</time></trkpt><trkpt lat="43.2196633" lon="13.3149617"><ele>194.0</ele><time>2026-04-12T08:14:59.427Z</time></trkpt><trkpt lat="43.2196283" lon="13.3147467"><ele>194.0</ele><time>2026-04-12T08:15:00.427Z</time></trkpt><trkpt lat="43.219595" lon="13.314525"><ele>194.33333333333334</ele><time>2026-04-12T08:15:01.429Z</time></trkpt><trkpt lat="43.219555" lon="13.3143033"><ele>194.66666666666669</ele><time>2026-04-12T08:15:02.432Z</time></trkpt><trkpt lat="43.219515" lon="13.3140917"><ele>195.0</ele><time>2026-04-12T08:15:03.428Z</time></trkpt><trkpt lat="43.21947" lon="13.3138867"><ele>196.0</ele><time>2026-04-12T08:15:04.43Z</time></trkpt><trkpt lat="43.2194167" lon="13.313685"><ele>197.0</ele><time>2026-04-12T08:15:05.43Z</time></trkpt><trkpt lat="43.219345" lon="13.313495"><ele>198.0</ele><time>2026-04-12T08:15:06.428Z</time></trkpt><trkpt lat="43.2192617" lon="13.3133117"><ele>198.0</ele><time>2026-04-12T08:15:07.429Z</time></trkpt><trkpt lat="43.21917" lon="13.313135"><ele>198.0</ele><time>2026-04-12T08:15:08.429Z</time></trkpt><trkpt lat="43.2190667" lon="13.31297"><ele>198.0</ele><time>2026-04-12T08:15:09.428Z</time></trkpt><trkpt lat="43.218955" lon="13.3128233"><ele>197.0</ele><time>2026-04-12T08:15:10.427Z</time></trkpt><trkpt lat="43.21884" lon="13.3126867"><ele>196.0</ele><time>2026-04-12T08:15:11.428Z</time></trkpt><trkpt lat="43.21872" lon="13.3125617"><ele>195.0</ele><time>2026-04-12T08:15:12.426Z</time></trkpt><trkpt lat="43.2186" lon="13.3124383"><ele>195.0</ele><time>2026-04-12T08:15:13.427Z</time></trkpt><trkpt lat="43.218475" lon="13.3123167"><ele>195.0</ele><time>2026-04-12T08:15:14.429Z</time></trkpt><trkpt lat="43.2183483" lon="13.3121983"><ele>195.0</ele><time>2026-04-12T08:15:15.427Z</time></trkpt><trkpt lat="43.21823" lon="13.3120817"><ele>195.25</ele><time>2026-04-12T08:15:16.426Z</time></trkpt><trkpt lat="43.218115" lon="13.311975"><ele>195.5</ele><time>2026-04-12T08:15:17.431Z</time></trkpt><trkpt lat="43.21801" lon="13.3118683"><ele>195.75</ele><time>2026-04-12T08:15:18.432Z</time></trkpt><trkpt lat="43.2179133" lon="13.3117717"><ele>196.0</ele><time>2026-04-12T08:15:19.429Z</time></trkpt><trkpt lat="43.21783" lon="13.3116917"><ele>196.0</ele><time>2026-04-12T08:15:20.428Z</time></trkpt><trkpt lat="43.2177583" lon="13.311625"><ele>196.0</ele><time>2026-04-12T08:15:21.429Z</time></trkpt><trkpt lat="43.2177017" lon="13.3115683"><ele>196.0</ele><time>2026-04-12T08:15:22.424Z</time></trkpt><trkpt lat="43.217615" lon="13.311475"><ele>196.0</ele><time>2026-04-12T08:15:24.433Z</time></trkpt><trkpt lat="43.217555" lon="13.3113917"><ele>196.0</ele><time>2026-04-12T08:15:26.428Z</time></trkpt><trkpt lat="43.2174933" lon="13.31125"><ele>196.20000000000002</ele><time>2026-04-12T08:15:28.427Z</time></trkpt><trkpt lat="43.217445" lon="13.3111617"><ele>196.4</ele><time>2026-04-12T08:15:29.442Z</time></trkpt><trkpt lat="43.2173767" lon="13.3110717"><ele>196.6</ele><time>2026-04-12T08:15:30.426Z</time></trkpt><trkpt lat="43.2172883" lon="13.311"><ele>196.8</ele><time>2026-04-12T08:15:31.426Z</time></trkpt><trkpt lat="43.217175" lon="13.310945"><ele>197.0</ele><time>2026-04-12T08:15:32.431Z</time></trkpt><trkpt lat="43.21706" lon="13.3108833"><ele>197.0</ele><time>2026-04-12T08:15:33.429Z</time></trkpt><trkpt lat="43.2169367" lon="13.3107983"><ele>197.0</ele><time>2026-04-12T08:15:34.432Z</time></trkpt><trkpt lat="43.2168133" lon="13.3106883"><ele>197.0</ele><time>2026-04-12T08:15:35.426Z</time></trkpt><trkpt lat="43.2167" lon="13.310565"><ele>197.0</ele><time>2026-04-12T08:15:36.429Z</time></trkpt><trkpt lat="43.21658" lon="13.3104333"><ele>197.33333333333334</ele><time>2026-04-12T08:15:37.429Z</time></trkpt><trkpt lat="43.2164583" lon="13.3102933"><ele>197.66666666666669</ele><time>2026-04-12T08:15:38.43Z</time></trkpt><trkpt lat="43.2163383" lon="13.3101433"><ele>198.0</ele><time>2026-04-12T08:15:39.428Z</time></trkpt><trkpt lat="43.21623" lon="13.3099883"><ele>198.0</ele><time>2026-04-12T08:15:40.426Z</time></trkpt><trkpt lat="43.2161333" lon="13.309835"><ele>198.0</ele><time>2026-04-12T08:15:41.427Z</time></trkpt><trkpt lat="43.2160483" lon="13.3096833"><ele>198.0</ele><time>2026-04-12T08:15:42.427Z</time></trkpt><trkpt lat="43.2159783" lon="13.3095367"><ele>198.0</ele><time>2026-04-12T08:15:43.427Z</time></trkpt><trkpt lat="43.21592" lon="13.309395"><ele>198.0</ele><time>2026-04-12T08:15:44.431Z</time></trkpt><trkpt lat="43.21588" lon="13.309275"><ele>198.0</ele><time>2026-04-12T08:15:45.429Z</time></trkpt><trkpt lat="43.2158583" lon="13.3091683"><ele>198.0</ele><time>2026-04-12T08:15:46.429Z</time></trkpt><trkpt lat="43.2158383" lon="13.3090633"><ele>198.0</ele><time>2026-04-12T08:15:47.432Z</time></trkpt><trkpt lat="43.21581" lon="13.3089583"><ele>198.0</ele><time>2026-04-12T08:15:48.434Z</time></trkpt><trkpt lat="43.2157567" lon="13.308855"><ele>198.0</ele><time>2026-04-12T08:15:49.431Z</time></trkpt><trkpt lat="43.2156667" lon="13.308755"><ele>196.25</ele><time>2026-04-12T08:15:50.432Z</time></trkpt><trkpt lat="43.21557" lon="13.3086333"><ele>194.5</ele><time>2026-04-12T08:15:51.428Z</time></trkpt><trkpt lat="43.2154867" lon="13.30849"><ele>192.75</ele><time>2026-04-12T08:15:52.429Z</time></trkpt><trkpt lat="43.2154067" lon="13.3083283"><ele>191.0</ele><time>2026-04-12T08:15:53.43Z</time></trkpt><trkpt lat="43.21533" lon="13.3081717"><ele>192.0</ele><time>2026-04-12T08:15:54.43Z</time></trkpt><trkpt lat="43.2152533" lon="13.3080217"><ele>193.0</ele><time>2026-04-12T08:15:55.43Z</time></trkpt><trkpt lat="43.21518" lon="13.3078717"><ele>194.0</ele><time>2026-04-12T08:15:56.425Z</time></trkpt><trkpt lat="43.2151017" lon="13.3077167"><ele>195.0</ele><time>2026-04-12T08:15:57.429Z</time></trkpt><trkpt lat="43.2150183" lon="13.30756"><ele>195.0</ele><time>2026-04-12T08:15:58.431Z</time></trkpt><trkpt lat="43.21493" lon="13.3073967"><ele>195.0</ele><time>2026-04-12T08:15:59.428Z</time></trkpt><trkpt lat="43.2148433" lon="13.3072317"><ele>195.0</ele><time>2026-04-12T08:16:00.431Z</time></trkpt><trkpt lat="43.2147533" lon="13.3070717"><ele>195.0</ele><time>2026-04-12T08:16:01.431Z</time></trkpt><trkpt lat="43.2146683" lon="13.306915"><ele>195.0</ele><time>2026-04-12T08:16:02.43Z</time></trkpt><trkpt lat="43.2145867" lon="13.3067683"><ele>195.0</ele><time>2026-04-12T08:16:03.429Z</time></trkpt><trkpt lat="43.2145133" lon="13.3066317"><ele>195.0</ele><time>2026-04-12T08:16:04.428Z</time></trkpt><trkpt lat="43.214445" lon="13.3065083"><ele>195.0</ele><time>2026-04-12T08:16:05.431Z</time></trkpt><trkpt lat="43.2143833" lon="13.30639"><ele>195.0</ele><time>2026-04-12T08:16:06.427Z</time></trkpt><trkpt lat="43.2143283" lon="13.30628"><ele>195.0</ele><time>2026-04-12T08:16:07.428Z</time></trkpt><trkpt lat="43.2142817" lon="13.3061817"><ele>195.0</ele><time>2026-04-12T08:16:08.433Z</time></trkpt><trkpt lat="43.2142467" lon="13.3061017"><ele>195.0</ele><time>2026-04-12T08:16:09.43Z</time></trkpt><trkpt lat="43.2142117" lon="13.3059683"><ele>195.0</ele><time>2026-04-12T08:16:11.475Z</time></trkpt><trkpt lat="43.2141617" lon="13.305825"><ele>195.0</ele><time>2026-04-12T08:16:13.43Z</time></trkpt><trkpt lat="43.2141183" lon="13.3057483"><ele>195.0</ele><time>2026-04-12T08:16:14.43Z</time></trkpt><trkpt lat="43.2140633" lon="13.30569"><ele>195.0</ele><time>2026-04-12T08:16:15.431Z</time></trkpt><trkpt lat="43.2139967" lon="13.3056517"><ele>195.0</ele><time>2026-04-12T08:16:16.431Z</time></trkpt><trkpt lat="43.213925" lon="13.305605"><ele>195.0</ele><time>2026-04-12T08:16:17.428Z</time></trkpt><trkpt lat="43.2138533" lon="13.3055433"><ele>195.0</ele><time>2026-04-12T08:16:18.439Z</time></trkpt><trkpt lat="43.21377" lon="13.305465"><ele>194.6</ele><time>2026-04-12T08:16:19.431Z</time></trkpt><trkpt lat="43.2136883" lon="13.3053717"><ele>194.2</ele><time>2026-04-12T08:16:20.433Z</time></trkpt><trkpt lat="43.2136133" lon="13.30527"><ele>193.8</ele><time>2026-04-12T08:16:21.429Z</time></trkpt><trkpt lat="43.21355" lon="13.3051533"><ele>193.4</ele><time>2026-04-12T08:16:22.427Z</time></trkpt><trkpt lat="43.2135033" lon="13.3050317"><ele>193.0</ele><time>2026-04-12T08:16:23.43Z</time></trkpt><trkpt lat="43.213465" lon="13.3049"><ele>193.0</ele><time>2026-04-12T08:16:24.433Z</time></trkpt><trkpt lat="43.2134283" lon="13.3047533"><ele>193.0</ele><time>2026-04-12T08:16:25.43Z</time></trkpt><trkpt lat="43.2133917" lon="13.304595"><ele>193.0</ele><time>2026-04-12T08:16:26.43Z</time></trkpt><trkpt lat="43.213355" lon="13.30443"><ele>193.0</ele><time>2026-04-12T08:16:27.433Z</time></trkpt><trkpt lat="43.21332" lon="13.3042617"><ele>193.5</ele><time>2026-04-12T08:16:28.43Z</time></trkpt><trkpt lat="43.2132867" lon="13.30409"><ele>194.0</ele><time>2026-04-12T08:16:29.427Z</time></trkpt><trkpt lat="43.213255" lon="13.3039183"><ele>194.5</ele><time>2026-04-12T08:16:30.431Z</time></trkpt><trkpt lat="43.21323" lon="13.3037467"><ele>195.0</ele><time>2026-04-12T08:16:31.428Z</time></trkpt><trkpt lat="43.2132" lon="13.3035717"><ele>195.25</ele><time>2026-04-12T08:16:32.43Z</time></trkpt><trkpt lat="43.21317" lon="13.3033933"><ele>195.5</ele><time>2026-04-12T08:16:33.43Z</time></trkpt><trkpt lat="43.2131417" lon="13.3032167"><ele>195.75</ele><time>2026-04-12T08:16:34.43Z</time></trkpt><trkpt lat="43.213115" lon="13.3030483"><ele>196.0</ele><time>2026-04-12T08:16:35.427Z</time></trkpt><trkpt lat="43.2130883" lon="13.3028883"><ele>194.0</ele><time>2026-04-12T08:16:36.429Z</time></trkpt><trkpt lat="43.21307" lon="13.3027367"><ele>192.0</ele><time>2026-04-12T08:16:37.425Z</time></trkpt><trkpt lat="43.213055" lon="13.30258"><ele>190.0</ele><time>2026-04-12T08:16:38.429Z</time></trkpt><trkpt lat="43.21304" lon="13.3024217"><ele>188.0</ele><time>2026-04-12T08:16:39.424Z</time></trkpt><trkpt lat="43.2130267" lon="13.30225"><ele>188.2</ele><time>2026-04-12T08:16:40.425Z</time></trkpt><trkpt lat="43.2130167" lon="13.3020983"><ele>188.4</ele><time>2026-04-12T08:16:41.43Z</time></trkpt><trkpt lat="43.21301" lon="13.3019567"><ele>188.6</ele><time>2026-04-12T08:16:42.426Z</time></trkpt><trkpt lat="43.2130067" lon="13.3018117"><ele>188.79999999999998</ele><time>2026-04-12T08:16:43.422Z</time></trkpt><trkpt lat="43.2130133" lon="13.301675"><ele>189.0</ele><time>2026-04-12T08:16:44.423Z</time></trkpt><trkpt lat="43.2130183" lon="13.3015533"><ele>189.0</ele><time>2026-04-12T08:16:45.422Z</time></trkpt><trkpt lat="43.2130233" lon="13.3014417"><ele>189.0</ele><time>2026-04-12T08:16:46.422Z</time></trkpt><trkpt lat="43.2130317" lon="13.301345"><ele>189.0</ele><time>2026-04-12T08:16:47.423Z</time></trkpt><trkpt lat="43.2130317" lon="13.301235"><ele>189.0</ele><time>2026-04-12T08:16:48.426Z</time></trkpt><trkpt lat="43.2130333" lon="13.3011033"><ele>189.0</ele><time>2026-04-12T08:16:49.425Z</time></trkpt><trkpt lat="43.21303" lon="13.3009533"><ele>189.0</ele><time>2026-04-12T08:16:50.425Z</time></trkpt><trkpt lat="43.213025" lon="13.3008017"><ele>189.5</ele><time>2026-04-12T08:16:51.427Z</time></trkpt><trkpt lat="43.2130033" lon="13.300645"><ele>190.0</ele><time>2026-04-12T08:16:52.424Z</time></trkpt><trkpt lat="43.2129733" lon="13.30049"><ele>190.5</ele><time>2026-04-12T08:16:53.428Z</time></trkpt><trkpt lat="43.2129317" lon="13.300325"><ele>191.0</ele><time>2026-04-12T08:16:54.425Z</time></trkpt><trkpt lat="43.2128767" lon="13.3001567"><ele>192.0</ele><time>2026-04-12T08:16:55.423Z</time></trkpt><trkpt lat="43.2128083" lon="13.3000083"><ele>193.0</ele><time>2026-04-12T08:16:56.423Z</time></trkpt><trkpt lat="43.2127383" lon="13.2998617"><ele>194.0</ele><time>2026-04-12T08:16:57.423Z</time></trkpt><trkpt lat="43.2126633" lon="13.2997233"><ele>195.0</ele><time>2026-04-12T08:16:58.423Z</time></trkpt><trkpt lat="43.2125867" lon="13.29958"><ele>194.5</ele><time>2026-04-12T08:16:59.427Z</time></trkpt><trkpt lat="43.212505" lon="13.2994283"><ele>194.0</ele><time>2026-04-12T08:17:00.427Z</time></trkpt><trkpt lat="43.2124267" lon="13.29928"><ele>193.5</ele><time>2026-04-12T08:17:01.425Z</time></trkpt><trkpt lat="43.2123517" lon="13.29914"><ele>193.0</ele><time>2026-04-12T08:17:02.427Z</time></trkpt><trkpt lat="43.2122783" lon="13.2990033"><ele>194.0</ele><time>2026-04-12T08:17:03.423Z</time></trkpt><trkpt lat="43.2122033" lon="13.2988683"><ele>195.0</ele><time>2026-04-12T08:17:04.422Z</time></trkpt><trkpt lat="43.2121267" lon="13.298735"><ele>196.0</ele><time>2026-04-12T08:17:05.423Z</time></trkpt><trkpt lat="43.2120567" lon="13.2986067"><ele>197.0</ele><time>2026-04-12T08:17:06.423Z</time></trkpt><trkpt lat="43.2119883" lon="13.2984733"><ele>197.0</ele><time>2026-04-12T08:17:07.424Z</time></trkpt><trkpt lat="43.21192" lon="13.29834"><ele>197.0</ele><time>2026-04-12T08:17:08.424Z</time></trkpt><trkpt lat="43.2118483" lon="13.2982083"><ele>197.0</ele><time>2026-04-12T08:17:09.424Z</time></trkpt><trkpt lat="43.2117767" lon="13.2980733"><ele>197.0</ele><time>2026-04-12T08:17:10.426Z</time></trkpt><trkpt lat="43.2117033" lon="13.2979333"><ele>198.0</ele><time>2026-04-12T08:17:11.424Z</time></trkpt><trkpt lat="43.2116233" lon="13.297795"><ele>199.0</ele><time>2026-04-12T08:17:12.424Z</time></trkpt><trkpt lat="43.2115467" lon="13.29765"><ele>200.0</ele><time>2026-04-12T08:17:13.429Z</time></trkpt><trkpt lat="43.211465" lon="13.2975"><ele>201.0</ele><time>2026-04-12T08:17:14.424Z</time></trkpt><trkpt lat="43.2113917" lon="13.2973517"><ele>200.25</ele><time>2026-04-12T08:17:15.423Z</time></trkpt><trkpt lat="43.211315" lon="13.2972067"><ele>199.5</ele><time>2026-04-12T08:17:16.425Z</time></trkpt><trkpt lat="43.2112433" lon="13.29706"><ele>198.75</ele><time>2026-04-12T08:17:17.43Z</time></trkpt><trkpt lat="43.2111667" lon="13.29691"><ele>198.0</ele><time>2026-04-12T08:17:18.426Z</time></trkpt><trkpt lat="43.2110933" lon="13.2967567"><ele>198.0</ele><time>2026-04-12T08:17:19.428Z</time></trkpt><trkpt lat="43.2110217" lon="13.2965983"><ele>198.0</ele><time>2026-04-12T08:17:20.426Z</time></trkpt><trkpt lat="43.2109467" lon="13.2964417"><ele>198.0</ele><time>2026-04-12T08:17:21.43Z</time></trkpt><trkpt lat="43.210875" lon="13.2962883"><ele>198.0</ele><time>2026-04-12T08:17:22.425Z</time></trkpt><trkpt lat="43.2108067" lon="13.2961383"><ele>198.75</ele><time>2026-04-12T08:17:23.424Z</time></trkpt><trkpt lat="43.2107367" lon="13.2959933"><ele>199.5</ele><time>2026-04-12T08:17:24.424Z</time></trkpt><trkpt lat="43.2106733" lon="13.2958383"><ele>200.25</ele><time>2026-04-12T08:17:25.424Z</time></trkpt><trkpt lat="43.21061" lon="13.2956883"><ele>201.0</ele><time>2026-04-12T08:17:26.433Z</time></trkpt><trkpt lat="43.2105517" lon="13.2955333"><ele>201.0</ele><time>2026-04-12T08:17:27.429Z</time></trkpt><trkpt lat="43.2105" lon="13.29538"><ele>201.0</ele><time>2026-04-12T08:17:28.428Z</time></trkpt><trkpt lat="43.21046" lon="13.2952333"><ele>201.0</ele><time>2026-04-12T08:17:29.43Z</time></trkpt><trkpt lat="43.2104317" lon="13.2950967"><ele>201.0</ele><time>2026-04-12T08:17:30.422Z</time></trkpt><trkpt lat="43.2104083" lon="13.2949533"><ele>201.0</ele><time>2026-04-12T08:17:31.43Z</time></trkpt><trkpt lat="43.2103883" lon="13.294795"><ele>201.75</ele><time>2026-04-12T08:17:32.426Z</time></trkpt><trkpt lat="43.2103683" lon="13.2946233"><ele>202.5</ele><time>2026-04-12T08:17:33.429Z</time></trkpt><trkpt lat="43.2103533" lon="13.294455"><ele>203.25</ele><time>2026-04-12T08:17:34.426Z</time></trkpt><trkpt lat="43.2103467" lon="13.2942983"><ele>204.0</ele><time>2026-04-12T08:17:35.423Z</time></trkpt><trkpt lat="43.21034" lon="13.29416"><ele>204.0</ele><time>2026-04-12T08:17:36.422Z</time></trkpt><trkpt lat="43.21034" lon="13.294045"><ele>204.0</ele><time>2026-04-12T08:17:37.425Z</time></trkpt><trkpt lat="43.210345" lon="13.2939467"><ele>204.0</ele><time>2026-04-12T08:17:38.426Z</time></trkpt><trkpt lat="43.2103567" lon="13.2938217"><ele>204.0</ele><time>2026-04-12T08:17:40.428Z</time></trkpt><trkpt lat="43.210395" lon="13.2936767"><ele>204.0</ele><time>2026-04-12T08:17:45.436Z</time></trkpt><trkpt lat="43.210465" lon="13.293575"><ele>204.0</ele><time>2026-04-12T08:17:47.429Z</time></trkpt><trkpt lat="43.2104867" lon="13.29345"><ele>204.0</ele><time>2026-04-12T08:17:49.424Z</time></trkpt><trkpt lat="43.210435" lon="13.2933483"><ele>204.0</ele><time>2026-04-12T08:17:51.425Z</time></trkpt><trkpt lat="43.2103767" lon="13.293295"><ele>204.0</ele><time>2026-04-12T08:17:53.426Z</time></trkpt><trkpt lat="43.2103017" lon="13.2931983"><ele>204.0</ele><time>2026-04-12T08:17:55.428Z</time></trkpt><trkpt lat="43.21028" lon="13.29308"><ele>204.0</ele><time>2026-04-12T08:17:57.423Z</time></trkpt><trkpt lat="43.2102867" lon="13.2929483"><ele>204.0</ele><time>2026-04-12T08:17:59.427Z</time></trkpt><trkpt lat="43.2102967" lon="13.2928167"><ele>204.0</ele><time>2026-04-12T08:18:01.423Z</time></trkpt><trkpt lat="43.2103" lon="13.2927117"><ele>204.0</ele><time>2026-04-12T08:18:03.429Z</time></trkpt><trkpt lat="43.2102433" lon="13.2927967"><ele>204.0</ele><time>2026-04-12T08:18:08.427Z</time></trkpt><trkpt lat="43.210245" lon="13.2929567"><ele>204.0</ele><time>2026-04-12T08:18:10.425Z</time></trkpt><trkpt lat="43.21025" lon="13.29309"><ele>204.0</ele><time>2026-04-12T08:18:12.425Z</time></trkpt><trkpt lat="43.21027" lon="13.2931817"><ele>204.0</ele><time>2026-04-12T08:18:14.428Z</time></trkpt><trkpt lat="43.2102983" lon="13.2933283"><ele>204.0</ele><time>2026-04-12T08:18:16.428Z</time></trkpt><trkpt lat="43.2103367" lon="13.2934717"><ele>204.0</ele><time>2026-04-12T08:18:18.428Z</time></trkpt><trkpt lat="43.210415" lon="13.2935083"><ele>204.0</ele><time>2026-04-12T08:18:20.427Z</time></trkpt><trkpt lat="43.2104717" lon="13.2934667"><ele>204.0</ele><time>2026-04-12T08:18:22.426Z</time></trkpt><trkpt lat="43.2104583" lon="13.29333"><ele>204.0</ele><time>2026-04-12T08:18:24.429Z</time></trkpt><trkpt lat="43.210425" lon="13.2932317"><ele>204.0</ele><time>2026-04-12T08:18:25.425Z</time></trkpt><trkpt lat="43.2104183" lon="13.29314"><ele>204.0</ele><time>2026-04-12T08:18:26.422Z</time></trkpt><trkpt lat="43.2104067" lon="13.2930383"><ele>204.0</ele><time>2026-04-12T08:18:27.424Z</time></trkpt><trkpt lat="43.2104183" lon="13.2929117"><ele>204.0</ele><time>2026-04-12T08:18:28.427Z</time></trkpt><trkpt lat="43.2104283" lon="13.2927883"><ele>204.0</ele><time>2026-04-12T08:18:29.426Z</time></trkpt><trkpt lat="43.2104483" lon="13.2926517"><ele>203.79999999999998</ele><time>2026-04-12T08:18:30.43Z</time></trkpt><trkpt lat="43.2104683" lon="13.2925167"><ele>203.6</ele><time>2026-04-12T08:18:31.422Z</time></trkpt><trkpt lat="43.21049" lon="13.2923867"><ele>203.4</ele><time>2026-04-12T08:18:32.422Z</time></trkpt><trkpt lat="43.2105117" lon="13.2922417"><ele>203.2</ele><time>2026-04-12T08:18:33.424Z</time></trkpt><trkpt lat="43.2105333" lon="13.292085"><ele>203.0</ele><time>2026-04-12T08:18:34.422Z</time></trkpt><trkpt lat="43.2105533" lon="13.291925"><ele>203.0</ele><time>2026-04-12T08:18:35.424Z</time></trkpt><trkpt lat="43.21057" lon="13.2917717"><ele>203.0</ele><time>2026-04-12T08:18:36.428Z</time></trkpt><trkpt lat="43.21059" lon="13.291605"><ele>203.0</ele><time>2026-04-12T08:18:37.423Z</time></trkpt><trkpt lat="43.2106033" lon="13.2914383"><ele>203.0</ele><time>2026-04-12T08:18:38.424Z</time></trkpt><trkpt lat="43.2106267" lon="13.291275"><ele>203.0</ele><time>2026-04-12T08:18:39.425Z</time></trkpt><trkpt lat="43.2106483" lon="13.291105"><ele>203.0</ele><time>2026-04-12T08:18:40.424Z</time></trkpt><trkpt lat="43.2106683" lon="13.2909417"><ele>203.0</ele><time>2026-04-12T08:18:41.428Z</time></trkpt><trkpt lat="43.2106717" lon="13.2907783"><ele>203.0</ele><time>2026-04-12T08:18:42.425Z</time></trkpt><trkpt lat="43.2106683" lon="13.290605"><ele>203.75</ele><time>2026-04-12T08:18:43.424Z</time></trkpt><trkpt lat="43.2106517" lon="13.2904467"><ele>204.5</ele><time>2026-04-12T08:18:44.427Z</time></trkpt><trkpt lat="43.21063" lon="13.2902917"><ele>205.25</ele><time>2026-04-12T08:18:45.425Z</time></trkpt><trkpt lat="43.210595" lon="13.2901333"><ele>206.0</ele><time>2026-04-12T08:18:46.429Z</time></trkpt><trkpt lat="43.2105483" lon="13.289985"><ele>206.0</ele><time>2026-04-12T08:18:47.425Z</time></trkpt><trkpt lat="43.2104817" lon="13.289845"><ele>206.0</ele><time>2026-04-12T08:18:48.424Z</time></trkpt><trkpt lat="43.210405" lon="13.2897033"><ele>206.0</ele><time>2026-04-12T08:18:49.428Z</time></trkpt><trkpt lat="43.21033" lon="13.2895733"><ele>206.0</ele><time>2026-04-12T08:18:50.427Z</time></trkpt><trkpt lat="43.21025" lon="13.2894583"><ele>207.00000000000003</ele><time>2026-04-12T08:18:51.425Z</time></trkpt><trkpt lat="43.2101767" lon="13.2893483"><ele>208.0</ele><time>2026-04-12T08:18:52.424Z</time></trkpt><trkpt lat="43.2101167" lon="13.2892567"><ele>209.0</ele><time>2026-04-12T08:18:53.427Z</time></trkpt><trkpt lat="43.2100583" lon="13.2891733"><ele>210.0</ele><time>2026-04-12T08:18:54.426Z</time></trkpt><trkpt lat="43.2100033" lon="13.28909"><ele>211.00000000000003</ele><time>2026-04-12T08:18:55.426Z</time></trkpt><trkpt lat="43.2099467" lon="13.289005"><ele>212.0</ele><time>2026-04-12T08:18:56.425Z</time></trkpt><trkpt lat="43.2098933" lon="13.2889217"><ele>212.33333333333334</ele><time>2026-04-12T08:18:57.429Z</time></trkpt><trkpt lat="43.20984" lon="13.288835"><ele>212.66666666666669</ele><time>2026-04-12T08:18:58.435Z</time></trkpt><trkpt lat="43.2097867" lon="13.2887483"><ele>213.0</ele><time>2026-04-12T08:18:59.426Z</time></trkpt><trkpt lat="43.2097333" lon="13.2886583"><ele>213.33333333333331</ele><time>2026-04-12T08:19:00.426Z</time></trkpt><trkpt lat="43.2096817" lon="13.2885667"><ele>213.66666666666666</ele><time>2026-04-12T08:19:01.427Z</time></trkpt><trkpt lat="43.209635" lon="13.288475"><ele>214.0</ele><time>2026-04-12T08:19:02.428Z</time></trkpt><trkpt lat="43.2095867" lon="13.28839"><ele>213.99999999999997</ele><time>2026-04-12T08:19:03.426Z</time></trkpt><trkpt lat="43.2095367" lon="13.2883083"><ele>214.0</ele><time>2026-04-12T08:19:04.422Z</time></trkpt><trkpt lat="43.2094833" lon="13.2882283"><ele>214.0</ele><time>2026-04-12T08:19:05.427Z</time></trkpt><trkpt lat="43.209435" lon="13.28815"><ele>214.0</ele><time>2026-04-12T08:19:06.425Z</time></trkpt><trkpt lat="43.20939" lon="13.28807"><ele>213.99999999999997</ele><time>2026-04-12T08:19:07.428Z</time></trkpt><trkpt lat="43.2093583" lon="13.2879783"><ele>214.0</ele><time>2026-04-12T08:19:08.429Z</time></trkpt><trkpt lat="43.2093333" lon="13.2878683"><ele>215.83333333333331</ele><time>2026-04-12T08:19:09.423Z</time></trkpt><trkpt lat="43.2093133" lon="13.2877567"><ele>217.66666666666666</ele><time>2026-04-12T08:19:10.431Z</time></trkpt><trkpt lat="43.2092933" lon="13.2876383"><ele>219.5</ele><time>2026-04-12T08:19:11.429Z</time></trkpt><trkpt lat="43.2092783" lon="13.2875217"><ele>221.33333333333331</ele><time>2026-04-12T08:19:12.43Z</time></trkpt><trkpt lat="43.209265" lon="13.2874117"><ele>223.16666666666666</ele><time>2026-04-12T08:19:13.426Z</time></trkpt><trkpt lat="43.2092483" lon="13.2872933"><ele>225.0</ele><time>2026-04-12T08:19:14.426Z</time></trkpt><trkpt lat="43.20924" lon="13.2871733"><ele>225.33333333333334</ele><time>2026-04-12T08:19:15.426Z</time></trkpt><trkpt lat="43.209235" lon="13.28705"><ele>225.66666666666669</ele><time>2026-04-12T08:19:16.426Z</time></trkpt><trkpt lat="43.2092233" lon="13.286935"><ele>226.0</ele><time>2026-04-12T08:19:17.425Z</time></trkpt><trkpt lat="43.2092133" lon="13.286825"><ele>226.33333333333334</ele><time>2026-04-12T08:19:18.426Z</time></trkpt><trkpt lat="43.2091933" lon="13.2867167"><ele>226.66666666666669</ele><time>2026-04-12T08:19:19.44Z</time></trkpt><trkpt lat="43.2091717" lon="13.2866083"><ele>227.0</ele><time>2026-04-12T08:19:20.427Z</time></trkpt><trkpt lat="43.209155" lon="13.2864983"><ele>227.50000000000003</ele><time>2026-04-12T08:19:21.425Z</time></trkpt><trkpt lat="43.2091433" lon="13.286395"><ele>228.0</ele><time>2026-04-12T08:19:22.428Z</time></trkpt><trkpt lat="43.2091317" lon="13.2862917"><ele>228.5</ele><time>2026-04-12T08:19:23.435Z</time></trkpt><trkpt lat="43.2091133" lon="13.28619"><ele>229.0</ele><time>2026-04-12T08:19:24.428Z</time></trkpt><trkpt lat="43.2090983" lon="13.2860867"><ele>229.50000000000003</ele><time>2026-04-12T08:19:25.426Z</time></trkpt><trkpt lat="43.2090783" lon="13.285985"><ele>230.0</ele><time>2026-04-12T08:19:26.433Z</time></trkpt><trkpt lat="43.2090583" lon="13.2858833"><ele>230.0</ele><time>2026-04-12T08:19:27.426Z</time></trkpt><trkpt lat="43.20902" lon="13.2857633"><ele>230.0</ele><time>2026-04-12T08:19:28.424Z</time></trkpt><trkpt lat="43.2089867" lon="13.285665"><ele>230.0</ele><time>2026-04-12T08:19:29.427Z</time></trkpt><trkpt lat="43.2089217" lon="13.285515"><ele>230.0</ele><time>2026-04-12T08:19:31.427Z</time></trkpt><trkpt lat="43.2088833" lon="13.2853567"><ele>230.0</ele><time>2026-04-12T08:19:33.428Z</time></trkpt><trkpt lat="43.208845" lon="13.285215"><ele>230.00000000000003</ele><time>2026-04-12T08:19:35.428Z</time></trkpt><trkpt lat="43.2087983" lon="13.2850933"><ele>230.0</ele><time>2026-04-12T08:19:37.429Z</time></trkpt><trkpt lat="43.2087483" lon="13.2849983"><ele>230.0</ele><time>2026-04-12T08:19:39.429Z</time></trkpt><trkpt lat="43.20871" lon="13.2849067"><ele>230.0</ele><time>2026-04-12T08:19:41.425Z</time></trkpt><trkpt lat="43.20867" lon="13.284805"><ele>230.00000000000003</ele><time>2026-04-12T08:19:43.44Z</time></trkpt><trkpt lat="43.208625" lon="13.284715"><ele>230.0</ele><time>2026-04-12T08:19:45.429Z</time></trkpt><trkpt lat="43.20858" lon="13.2846433"><ele>230.00000000000003</ele><time>2026-04-12T08:19:47.429Z</time></trkpt><trkpt lat="43.2085383" lon="13.2845333"><ele>230.0</ele><time>2026-04-12T08:19:53.43Z</time></trkpt><trkpt lat="43.2085067" lon="13.2844583"><ele>230.0</ele><time>2026-04-12T08:19:55.429Z</time></trkpt><trkpt lat="43.2084733" lon="13.2843617"><ele>230.0</ele><time>2026-04-12T08:19:57.427Z</time></trkpt><trkpt lat="43.2084433" lon="13.284235"><ele>230.00000000000003</ele><time>2026-04-12T08:19:59.427Z</time></trkpt><trkpt lat="43.20842" lon="13.2840967"><ele>230.0</ele><time>2026-04-12T08:20:01.427Z</time></trkpt><trkpt lat="43.2084" lon="13.2839417"><ele>228.66666666666669</ele><time>2026-04-12T08:20:03.428Z</time></trkpt><trkpt lat="43.20837" lon="13.2837933"><ele>227.33333333333334</ele><time>2026-04-12T08:20:05.426Z</time></trkpt><trkpt lat="43.2083383" lon="13.2836267"><ele>226.0</ele><time>2026-04-12T08:20:07.426Z</time></trkpt><trkpt lat="43.2083233" lon="13.2835367"><ele>224.66666666666669</ele><time>2026-04-12T08:20:08.427Z</time></trkpt><trkpt lat="43.2083217" lon="13.2834367"><ele>223.33333333333334</ele><time>2026-04-12T08:20:09.426Z</time></trkpt><trkpt lat="43.2083317" lon="13.2833417"><ele>222.0</ele><time>2026-04-12T08:20:10.428Z</time></trkpt><trkpt lat="43.2083533" lon="13.2832317"><ele>222.0</ele><time>2026-04-12T08:20:11.423Z</time></trkpt><trkpt lat="43.2083967" lon="13.2831117"><ele>222.0</ele><time>2026-04-12T08:20:12.426Z</time></trkpt><trkpt lat="43.2084417" lon="13.282985"><ele>222.0</ele><time>2026-04-12T08:20:13.426Z</time></trkpt><trkpt lat="43.2084883" lon="13.28286"><ele>222.0</ele><time>2026-04-12T08:20:14.429Z</time></trkpt><trkpt lat="43.2085367" lon="13.2827433"><ele>222.0</ele><time>2026-04-12T08:20:15.427Z</time></trkpt><trkpt lat="43.2085833" lon="13.2826183"><ele>220.33333333333334</ele><time>2026-04-12T08:20:16.425Z</time></trkpt><trkpt lat="43.208635" lon="13.2825067"><ele>218.66666666666669</ele><time>2026-04-12T08:20:17.427Z</time></trkpt><trkpt lat="43.2086833" lon="13.2824"><ele>217.0</ele><time>2026-04-12T08:20:18.427Z</time></trkpt><trkpt lat="43.20873" lon="13.2823017"><ele>215.33333333333334</ele><time>2026-04-12T08:20:19.428Z</time></trkpt><trkpt lat="43.20878" lon="13.2822083"><ele>213.66666666666669</ele><time>2026-04-12T08:20:20.423Z</time></trkpt><trkpt lat="43.2088217" lon="13.2821017"><ele>212.0</ele><time>2026-04-12T08:20:21.428Z</time></trkpt><trkpt lat="43.2088683" lon="13.2819917"><ele>211.0</ele><time>2026-04-12T08:20:22.426Z</time></trkpt><trkpt lat="43.2089217" lon="13.281885"><ele>210.0</ele><time>2026-04-12T08:20:23.425Z</time></trkpt><trkpt lat="43.208975" lon="13.2817767"><ele>209.0</ele><time>2026-04-12T08:20:24.427Z</time></trkpt><trkpt lat="43.2090367" lon="13.2816783"><ele>208.0</ele><time>2026-04-12T08:20:25.423Z</time></trkpt><trkpt lat="43.20911" lon="13.281585"><ele>207.0</ele><time>2026-04-12T08:20:26.428Z</time></trkpt><trkpt lat="43.209175" lon="13.2814933"><ele>209.2</ele><time>2026-04-12T08:20:27.426Z</time></trkpt><trkpt lat="43.2092367" lon="13.2813917"><ele>211.39999999999998</ele><time>2026-04-12T08:20:28.432Z</time></trkpt><trkpt lat="43.20929" lon="13.2812817"><ele>213.60000000000002</ele><time>2026-04-12T08:20:29.426Z</time></trkpt><trkpt lat="43.2093383" lon="13.2811817"><ele>215.8</ele><time>2026-04-12T08:20:30.427Z</time></trkpt><trkpt lat="43.2093733" lon="13.281065"><ele>218.0</ele><time>2026-04-12T08:20:31.428Z</time></trkpt><trkpt lat="43.2093933" lon="13.2809483"><ele>218.00000000000003</ele><time>2026-04-12T08:20:32.428Z</time></trkpt><trkpt lat="43.2093933" lon="13.2808333"><ele>218.0</ele><time>2026-04-12T08:20:33.426Z</time></trkpt><trkpt lat="43.20939" lon="13.2807233"><ele>218.0</ele><time>2026-04-12T08:20:34.429Z</time></trkpt><trkpt lat="43.20938" lon="13.2806117"><ele>218.0</ele><time>2026-04-12T08:20:35.429Z</time></trkpt><trkpt lat="43.2093733" lon="13.2805"><ele>218.00000000000003</ele><time>2026-04-12T08:20:36.426Z</time></trkpt><trkpt lat="43.2093667" lon="13.2803933"><ele>218.0</ele><time>2026-04-12T08:20:37.428Z</time></trkpt><trkpt lat="43.2093583" lon="13.2802933"><ele>218.0</ele><time>2026-04-12T08:20:38.43Z</time></trkpt><trkpt lat="43.20935" lon="13.2802017"><ele>218.0</ele><time>2026-04-12T08:20:39.428Z</time></trkpt><trkpt lat="43.2093383" lon="13.2800383"><ele>218.0</ele><time>2026-04-12T08:20:41.429Z</time></trkpt><trkpt lat="43.2093433" lon="13.2798933"><ele>218.0</ele><time>2026-04-12T08:20:43.43Z</time></trkpt><trkpt lat="43.2093067" lon="13.2797217"><ele>218.0</ele><time>2026-04-12T08:20:45.43Z</time></trkpt><trkpt lat="43.209275" lon="13.2796167"><ele>217.8</ele><time>2026-04-12T08:20:46.431Z</time></trkpt><trkpt lat="43.20923" lon="13.2795033"><ele>217.60000000000002</ele><time>2026-04-12T08:20:47.43Z</time></trkpt><trkpt lat="43.209175" lon="13.27939"><ele>217.39999999999998</ele><time>2026-04-12T08:20:48.432Z</time></trkpt><trkpt lat="43.2091117" lon="13.279285"><ele>217.2</ele><time>2026-04-12T08:20:49.429Z</time></trkpt><trkpt lat="43.209035" lon="13.2791767"><ele>217.0</ele><time>2026-04-12T08:20:50.429Z</time></trkpt><trkpt lat="43.2089467" lon="13.279075"><ele>217.0</ele><time>2026-04-12T08:20:51.43Z</time></trkpt><trkpt lat="43.20885" lon="13.27898"><ele>217.0</ele><time>2026-04-12T08:20:52.426Z</time></trkpt><trkpt lat="43.2087517" lon="13.2788983"><ele>217.0</ele><time>2026-04-12T08:20:53.431Z</time></trkpt><trkpt lat="43.2086467" lon="13.2788133"><ele>217.0</ele><time>2026-04-12T08:20:54.435Z</time></trkpt><trkpt lat="43.208535" lon="13.27873"><ele>217.5</ele><time>2026-04-12T08:20:55.435Z</time></trkpt><trkpt lat="43.208425" lon="13.27864"><ele>218.0</ele><time>2026-04-12T08:20:56.431Z</time></trkpt><trkpt lat="43.208315" lon="13.27855"><ele>218.5</ele><time>2026-04-12T08:20:57.432Z</time></trkpt><trkpt lat="43.208205" lon="13.2784583"><ele>219.0</ele><time>2026-04-12T08:20:58.428Z</time></trkpt><trkpt lat="43.208095" lon="13.278375"><ele>218.5</ele><time>2026-04-12T08:20:59.432Z</time></trkpt><trkpt lat="43.2079917" lon="13.278285"><ele>218.0</ele><time>2026-04-12T08:21:00.431Z</time></trkpt><trkpt lat="43.2078867" lon="13.2782017"><ele>217.5</ele><time>2026-04-12T08:21:01.428Z</time></trkpt><trkpt lat="43.20778" lon="13.278125"><ele>217.0</ele><time>2026-04-12T08:21:02.43Z</time></trkpt><trkpt lat="43.20768" lon="13.27805"><ele>217.0</ele><time>2026-04-12T08:21:03.431Z</time></trkpt><trkpt lat="43.2075883" lon="13.277975"><ele>217.0</ele><time>2026-04-12T08:21:04.427Z</time></trkpt><trkpt lat="43.2075" lon="13.2779083"><ele>217.0</ele><time>2026-04-12T08:21:05.422Z</time></trkpt><trkpt lat="43.2074117" lon="13.277845"><ele>217.0</ele><time>2026-04-12T08:21:06.43Z</time></trkpt><trkpt lat="43.2073267" lon="13.2777783"><ele>217.0</ele><time>2026-04-12T08:21:07.429Z</time></trkpt><trkpt lat="43.2072333" lon="13.2777083"><ele>216.0</ele><time>2026-04-12T08:21:08.43Z</time></trkpt><trkpt lat="43.2071433" lon="13.2776317"><ele>215.0</ele><time>2026-04-12T08:21:09.427Z</time></trkpt><trkpt lat="43.2070483" lon="13.2775517"><ele>214.0</ele><time>2026-04-12T08:21:10.427Z</time></trkpt><trkpt lat="43.206955" lon="13.2774717"><ele>213.0</ele><time>2026-04-12T08:21:11.427Z</time></trkpt><trkpt lat="43.20686" lon="13.27739"><ele>212.0</ele><time>2026-04-12T08:21:12.427Z</time></trkpt><trkpt lat="43.20676" lon="13.27732"><ele>212.0</ele><time>2026-04-12T08:21:13.427Z</time></trkpt><trkpt lat="43.206655" lon="13.2772333"><ele>212.0</ele><time>2026-04-12T08:21:14.431Z</time></trkpt><trkpt lat="43.2065467" lon="13.2771367"><ele>212.0</ele><time>2026-04-12T08:21:15.43Z</time></trkpt><trkpt lat="43.2064317" lon="13.27704"><ele>212.0</ele><time>2026-04-12T08:21:16.429Z</time></trkpt><trkpt lat="43.2063167" lon="13.2769483"><ele>212.0</ele><time>2026-04-12T08:21:17.433Z</time></trkpt><trkpt lat="43.2062017" lon="13.2768517"><ele>212.0</ele><time>2026-04-12T08:21:18.43Z</time></trkpt><trkpt lat="43.2060967" lon="13.2767433"><ele>212.0</ele><time>2026-04-12T08:21:19.427Z</time></trkpt><trkpt lat="43.205995" lon="13.2766383"><ele>212.0</ele><time>2026-04-12T08:21:20.433Z</time></trkpt><trkpt lat="43.2058933" lon="13.2765333"><ele>212.0</ele><time>2026-04-12T08:21:21.43Z</time></trkpt><trkpt lat="43.2057917" lon="13.27644"><ele>212.0</ele><time>2026-04-12T08:21:22.43Z</time></trkpt><trkpt lat="43.2056883" lon="13.27635"><ele>212.0</ele><time>2026-04-12T08:21:23.427Z</time></trkpt><trkpt lat="43.2055883" lon="13.276255"><ele>212.0</ele><time>2026-04-12T08:21:24.43Z</time></trkpt><trkpt lat="43.205485" lon="13.27616"><ele>211.5</ele><time>2026-04-12T08:21:25.428Z</time></trkpt><trkpt lat="43.2053783" lon="13.2760617"><ele>211.0</ele><time>2026-04-12T08:21:26.428Z</time></trkpt><trkpt lat="43.2052683" lon="13.275955"><ele>210.5</ele><time>2026-04-12T08:21:27.429Z</time></trkpt><trkpt lat="43.20516" lon="13.275845"><ele>210.0</ele><time>2026-04-12T08:21:28.428Z</time></trkpt><trkpt lat="43.205055" lon="13.2757317"><ele>209.33333333333331</ele><time>2026-04-12T08:21:29.432Z</time></trkpt><trkpt lat="43.20495" lon="13.2756017"><ele>208.66666666666666</ele><time>2026-04-12T08:21:30.43Z</time></trkpt><trkpt lat="43.2048383" lon="13.2754617"><ele>208.0</ele><time>2026-04-12T08:21:31.43Z</time></trkpt><trkpt lat="43.2047183" lon="13.2753067"><ele>208.0</ele><time>2026-04-12T08:21:32.429Z</time></trkpt><trkpt lat="43.204595" lon="13.2751517"><ele>208.0</ele><time>2026-04-12T08:21:33.429Z</time></trkpt><trkpt lat="43.2044733" lon="13.2750033"><ele>208.0</ele><time>2026-04-12T08:21:34.429Z</time></trkpt><trkpt lat="43.2043483" lon="13.27485"><ele>208.33333333333331</ele><time>2026-04-12T08:21:35.431Z</time></trkpt><trkpt lat="43.2042233" lon="13.2746983"><ele>208.66666666666669</ele><time>2026-04-12T08:21:36.426Z</time></trkpt><trkpt lat="43.2040983" lon="13.27454"><ele>209.0</ele><time>2026-04-12T08:21:37.43Z</time></trkpt><trkpt lat="43.20397" lon="13.27438"><ele>209.0</ele><time>2026-04-12T08:21:38.43Z</time></trkpt><trkpt lat="43.20384" lon="13.274215"><ele>209.0</ele><time>2026-04-12T08:21:39.43Z</time></trkpt><trkpt lat="43.2037117" lon="13.2740533"><ele>209.0</ele><time>2026-04-12T08:21:40.431Z</time></trkpt><trkpt lat="43.2035817" lon="13.273895"><ele>210.33333333333334</ele><time>2026-04-12T08:21:41.431Z</time></trkpt><trkpt lat="43.20345" lon="13.27374"><ele>211.66666666666669</ele><time>2026-04-12T08:21:42.43Z</time></trkpt><trkpt lat="43.203315" lon="13.273575"><ele>213.0</ele><time>2026-04-12T08:21:43.428Z</time></trkpt><trkpt lat="43.203195" lon="13.273405"><ele>212.0</ele><time>2026-04-12T08:21:44.43Z</time></trkpt><trkpt lat="43.2030733" lon="13.2732267"><ele>211.0</ele><time>2026-04-12T08:21:45.429Z</time></trkpt><trkpt lat="43.2029567" lon="13.2730383"><ele>210.0</ele><time>2026-04-12T08:21:46.426Z</time></trkpt><trkpt lat="43.2028467" lon="13.27283"><ele>210.0</ele><time>2026-04-12T08:21:47.431Z</time></trkpt><trkpt lat="43.20275" lon="13.2726167"><ele>210.0</ele><time>2026-04-12T08:21:48.431Z</time></trkpt><trkpt lat="43.202645" lon="13.2724"><ele>210.0</ele><time>2026-04-12T08:21:49.43Z</time></trkpt><trkpt lat="43.202535" lon="13.2721983"><ele>209.66666666666669</ele><time>2026-04-12T08:21:50.432Z</time></trkpt><trkpt lat="43.2024167" lon="13.272015"><ele>209.33333333333334</ele><time>2026-04-12T08:21:51.433Z</time></trkpt><trkpt lat="43.202285" lon="13.271845"><ele>209.0</ele><time>2026-04-12T08:21:52.429Z</time></trkpt><trkpt lat="43.2021417" lon="13.2716883"><ele>209.0</ele><time>2026-04-12T08:21:53.429Z</time></trkpt><trkpt lat="43.201995" lon="13.2715417"><ele>209.0</ele><time>2026-04-12T08:21:54.433Z</time></trkpt><trkpt lat="43.2018467" lon="13.2714067"><ele>209.0</ele><time>2026-04-12T08:21:55.428Z</time></trkpt><trkpt lat="43.2016933" lon="13.2712733"><ele>210.33333333333334</ele><time>2026-04-12T08:21:56.431Z</time></trkpt><trkpt lat="43.20154" lon="13.2711567"><ele>211.66666666666669</ele><time>2026-04-12T08:21:57.427Z</time></trkpt><trkpt lat="43.2013867" lon="13.27105"><ele>213.0</ele><time>2026-04-12T08:21:58.43Z</time></trkpt><trkpt lat="43.2012317" lon="13.27095"><ele>213.0</ele><time>2026-04-12T08:21:59.435Z</time></trkpt><trkpt lat="43.201065" lon="13.2708483"><ele>213.0</ele><time>2026-04-12T08:22:00.428Z</time></trkpt><trkpt lat="43.2009033" lon="13.270745"><ele>213.0</ele><time>2026-04-12T08:22:01.428Z</time></trkpt><trkpt lat="43.2007433" lon="13.2706267"><ele>212.66666666666669</ele><time>2026-04-12T08:22:02.432Z</time></trkpt><trkpt lat="43.200595" lon="13.2705017"><ele>212.33333333333334</ele><time>2026-04-12T08:22:03.427Z</time></trkpt><trkpt lat="43.2004567" lon="13.27035"><ele>212.0</ele><time>2026-04-12T08:22:04.43Z</time></trkpt><trkpt lat="43.2003267" lon="13.2701867"><ele>212.0</ele><time>2026-04-12T08:22:05.427Z</time></trkpt><trkpt lat="43.200195" lon="13.2700233"><ele>212.0</ele><time>2026-04-12T08:22:06.434Z</time></trkpt><trkpt lat="43.200055" lon="13.2698733"><ele>212.0</ele><time>2026-04-12T08:22:07.427Z</time></trkpt><trkpt lat="43.1999033" lon="13.26975"><ele>213.66666666666669</ele><time>2026-04-12T08:22:08.433Z</time></trkpt><trkpt lat="43.1997383" lon="13.2696567"><ele>215.33333333333331</ele><time>2026-04-12T08:22:09.427Z</time></trkpt><trkpt lat="43.19957" lon="13.2695933"><ele>217.0</ele><time>2026-04-12T08:22:10.431Z</time></trkpt><trkpt lat="43.199395" lon="13.2695483"><ele>217.0</ele><time>2026-04-12T08:22:11.431Z</time></trkpt><trkpt lat="43.1992133" lon="13.2695167"><ele>217.0</ele><time>2026-04-12T08:22:12.429Z</time></trkpt><trkpt lat="43.1990383" lon="13.2694833"><ele>217.0</ele><time>2026-04-12T08:22:13.428Z</time></trkpt><trkpt lat="43.1988717" lon="13.2694567"><ele>214.33333333333331</ele><time>2026-04-12T08:22:14.43Z</time></trkpt><trkpt lat="43.1987083" lon="13.2694333"><ele>211.66666666666669</ele><time>2026-04-12T08:22:15.436Z</time></trkpt><trkpt lat="43.19854" lon="13.2694083"><ele>209.0</ele><time>2026-04-12T08:22:16.433Z</time></trkpt><trkpt lat="43.198375" lon="13.2693817"><ele>209.0</ele><time>2026-04-12T08:22:17.431Z</time></trkpt><trkpt lat="43.1982083" lon="13.2693533"><ele>209.0</ele><time>2026-04-12T08:22:18.43Z</time></trkpt><trkpt lat="43.1980433" lon="13.2693233"><ele>209.0</ele><time>2026-04-12T08:22:19.43Z</time></trkpt><trkpt lat="43.1978833" lon="13.269295"><ele>209.33333333333334</ele><time>2026-04-12T08:22:20.433Z</time></trkpt><trkpt lat="43.1977217" lon="13.2692733"><ele>209.66666666666669</ele><time>2026-04-12T08:22:21.428Z</time></trkpt><trkpt lat="43.197565" lon="13.269255"><ele>210.0</ele><time>2026-04-12T08:22:22.428Z</time></trkpt><trkpt lat="43.1974017" lon="13.2692367"><ele>209.66666666666669</ele><time>2026-04-12T08:22:23.43Z</time></trkpt><trkpt lat="43.1972433" lon="13.2692117"><ele>209.33333333333334</ele><time>2026-04-12T08:22:24.428Z</time></trkpt><trkpt lat="43.197085" lon="13.2691883"><ele>209.0</ele><time>2026-04-12T08:22:25.432Z</time></trkpt><trkpt lat="43.196905" lon="13.2691567"><ele>209.0</ele><time>2026-04-12T08:22:26.432Z</time></trkpt><trkpt lat="43.1967317" lon="13.2691317"><ele>209.0</ele><time>2026-04-12T08:22:27.43Z</time></trkpt><trkpt lat="43.1965633" lon="13.2691083"><ele>209.0</ele><time>2026-04-12T08:22:28.429Z</time></trkpt><trkpt lat="43.1963917" lon="13.2690917"><ele>209.66666666666669</ele><time>2026-04-12T08:22:29.427Z</time></trkpt><trkpt lat="43.19622" lon="13.269075"><ele>210.33333333333331</ele><time>2026-04-12T08:22:30.429Z</time></trkpt><trkpt lat="43.19605" lon="13.2690567"><ele>211.0</ele><time>2026-04-12T08:22:31.427Z</time></trkpt><trkpt lat="43.1958833" lon="13.269025"><ele>211.0</ele><time>2026-04-12T08:22:32.428Z</time></trkpt><trkpt lat="43.19572" lon="13.2689617"><ele>211.0</ele><time>2026-04-12T08:22:33.426Z</time></trkpt><trkpt lat="43.1955567" lon="13.2688683"><ele>211.0</ele><time>2026-04-12T08:22:34.431Z</time></trkpt><trkpt lat="43.1954033" lon="13.268745"><ele>211.66666666666666</ele><time>2026-04-12T08:22:35.427Z</time></trkpt><trkpt lat="43.19526" lon="13.2685967"><ele>212.33333333333331</ele><time>2026-04-12T08:22:36.429Z</time></trkpt><trkpt lat="43.1951333" lon="13.26843"><ele>213.0</ele><time>2026-04-12T08:22:37.428Z</time></trkpt><trkpt lat="43.1950267" lon="13.2682467"><ele>213.0</ele><time>2026-04-12T08:22:38.428Z</time></trkpt><trkpt lat="43.1949317" lon="13.2680433"><ele>213.0</ele><time>2026-04-12T08:22:39.427Z</time></trkpt><trkpt lat="43.1948467" lon="13.2678233"><ele>213.0</ele><time>2026-04-12T08:22:40.428Z</time></trkpt><trkpt lat="43.194765" lon="13.2676083"><ele>213.0</ele><time>2026-04-12T08:22:41.428Z</time></trkpt><trkpt lat="43.1946683" lon="13.2674117"><ele>213.0</ele><time>2026-04-12T08:22:42.426Z</time></trkpt><trkpt lat="43.19455" lon="13.2672467"><ele>213.0</ele><time>2026-04-12T08:22:43.43Z</time></trkpt><trkpt lat="43.19441" lon="13.26712"><ele>213.66666666666669</ele><time>2026-04-12T08:22:44.43Z</time></trkpt><trkpt lat="43.1942567" lon="13.2670233"><ele>214.33333333333334</ele><time>2026-04-12T08:22:45.429Z</time></trkpt><trkpt lat="43.1940933" lon="13.2669433"><ele>215.0</ele><time>2026-04-12T08:22:46.427Z</time></trkpt><trkpt lat="43.1939317" lon="13.2668833"><ele>215.0</ele><time>2026-04-12T08:22:47.425Z</time></trkpt><trkpt lat="43.193775" lon="13.266845"><ele>215.0</ele><time>2026-04-12T08:22:48.426Z</time></trkpt><trkpt lat="43.1936267" lon="13.2668367"><ele>215.0</ele><time>2026-04-12T08:22:49.428Z</time></trkpt><trkpt lat="43.1934867" lon="13.2668533"><ele>215.0</ele><time>2026-04-12T08:22:50.431Z</time></trkpt><trkpt lat="43.19336" lon="13.2668933"><ele>215.0</ele><time>2026-04-12T08:22:51.429Z</time></trkpt><trkpt lat="43.19324" lon="13.266955"><ele>215.0</ele><time>2026-04-12T08:22:52.429Z</time></trkpt><trkpt lat="43.193125" lon="13.2670317"><ele>215.0</ele><time>2026-04-12T08:22:53.427Z</time></trkpt><trkpt lat="43.1930133" lon="13.2671283"><ele>215.0</ele><time>2026-04-12T08:22:54.432Z</time></trkpt><trkpt lat="43.1929033" lon="13.267235"><ele>215.0</ele><time>2026-04-12T08:22:55.43Z</time></trkpt><trkpt lat="43.1927783" lon="13.26734"><ele>215.0</ele><time>2026-04-12T08:22:56.431Z</time></trkpt><trkpt lat="43.1926483" lon="13.2674183"><ele>215.0</ele><time>2026-04-12T08:22:57.424Z</time></trkpt><trkpt lat="43.1925117" lon="13.2674633"><ele>215.0</ele><time>2026-04-12T08:22:58.428Z</time></trkpt><trkpt lat="43.1923833" lon="13.2674633"><ele>215.0</ele><time>2026-04-12T08:22:59.427Z</time></trkpt><trkpt lat="43.1922617" lon="13.2674533"><ele>215.0</ele><time>2026-04-12T08:23:00.428Z</time></trkpt><trkpt lat="43.192145" lon="13.2674417"><ele>215.0</ele><time>2026-04-12T08:23:01.431Z</time></trkpt><trkpt lat="43.1920233" lon="13.2674233"><ele>215.0</ele><time>2026-04-12T08:23:02.428Z</time></trkpt><trkpt lat="43.191885" lon="13.2674017"><ele>215.0</ele><time>2026-04-12T08:23:03.429Z</time></trkpt><trkpt lat="43.191735" lon="13.2673817"><ele>215.0</ele><time>2026-04-12T08:23:04.428Z</time></trkpt><trkpt lat="43.1915817" lon="13.2673633"><ele>215.0</ele><time>2026-04-12T08:23:05.428Z</time></trkpt><trkpt lat="43.1914267" lon="13.2673433"><ele>215.66666666666669</ele><time>2026-04-12T08:23:06.43Z</time></trkpt><trkpt lat="43.19127" lon="13.26732"><ele>216.33333333333331</ele><time>2026-04-12T08:23:07.43Z</time></trkpt><trkpt lat="43.1911133" lon="13.2672917"><ele>217.0</ele><time>2026-04-12T08:23:08.43Z</time></trkpt><trkpt lat="43.1909567" lon="13.267255"><ele>217.66666666666666</ele><time>2026-04-12T08:23:09.428Z</time></trkpt><trkpt lat="43.1908" lon="13.2672067"><ele>218.33333333333331</ele><time>2026-04-12T08:23:10.427Z</time></trkpt><trkpt lat="43.190645" lon="13.267145"><ele>219.0</ele><time>2026-04-12T08:23:11.429Z</time></trkpt><trkpt lat="43.1904917" lon="13.2670617"><ele>220.0</ele><time>2026-04-12T08:23:12.428Z</time></trkpt><trkpt lat="43.1903367" lon="13.26697"><ele>221.0</ele><time>2026-04-12T08:23:13.429Z</time></trkpt><trkpt lat="43.1901783" lon="13.266865"><ele>222.0</ele><time>2026-04-12T08:23:14.431Z</time></trkpt><trkpt lat="43.1900233" lon="13.2667533"><ele>222.0</ele><time>2026-04-12T08:23:15.431Z</time></trkpt><trkpt lat="43.18987" lon="13.2666383"><ele>222.0</ele><time>2026-04-12T08:23:16.432Z</time></trkpt><trkpt lat="43.189715" lon="13.26652"><ele>222.0</ele><time>2026-04-12T08:23:17.43Z</time></trkpt><trkpt lat="43.1895567" lon="13.2664033"><ele>223.66666666666669</ele><time>2026-04-12T08:23:18.431Z</time></trkpt><trkpt lat="43.1893967" lon="13.2662867"><ele>225.33333333333334</ele><time>2026-04-12T08:23:19.429Z</time></trkpt><trkpt lat="43.189235" lon="13.2661717"><ele>227.0</ele><time>2026-04-12T08:23:20.429Z</time></trkpt><trkpt lat="43.189065" lon="13.2660567"><ele>227.0</ele><time>2026-04-12T08:23:21.431Z</time></trkpt><trkpt lat="43.1888983" lon="13.2659417"><ele>227.0</ele><time>2026-04-12T08:23:22.429Z</time></trkpt><trkpt lat="43.1887283" lon="13.2658283"><ele>227.0</ele><time>2026-04-12T08:23:23.427Z</time></trkpt><trkpt lat="43.1885667" lon="13.2657133"><ele>228.33333333333334</ele><time>2026-04-12T08:23:24.43Z</time></trkpt><trkpt lat="43.1883983" lon="13.265595"><ele>229.66666666666669</ele><time>2026-04-12T08:23:25.429Z</time></trkpt><trkpt lat="43.1882317" lon="13.2654833"><ele>231.0</ele><time>2026-04-12T08:23:26.431Z</time></trkpt><trkpt lat="43.18806" lon="13.2653767"><ele>231.66666666666669</ele><time>2026-04-12T08:23:27.432Z</time></trkpt><trkpt lat="43.1878933" lon="13.2652683"><ele>232.33333333333334</ele><time>2026-04-12T08:23:28.43Z</time></trkpt><trkpt lat="43.187725" lon="13.2651583"><ele>233.0</ele><time>2026-04-12T08:23:29.435Z</time></trkpt><trkpt lat="43.18756" lon="13.265045"><ele>233.0</ele><time>2026-04-12T08:23:30.43Z</time></trkpt><trkpt lat="43.1874033" lon="13.264925"><ele>233.0</ele><time>2026-04-12T08:23:31.43Z</time></trkpt><trkpt lat="43.1872733" lon="13.2647883"><ele>233.0</ele><time>2026-04-12T08:23:32.431Z</time></trkpt><trkpt lat="43.1871867" lon="13.26463"><ele>231.66666666666669</ele><time>2026-04-12T08:23:33.427Z</time></trkpt><trkpt lat="43.18714" lon="13.2644433"><ele>230.33333333333331</ele><time>2026-04-12T08:23:34.429Z</time></trkpt><trkpt lat="43.1871133" lon="13.2642367"><ele>229.0</ele><time>2026-04-12T08:23:35.424Z</time></trkpt><trkpt lat="43.187075" lon="13.2640183"><ele>231.33333333333331</ele><time>2026-04-12T08:23:36.435Z</time></trkpt><trkpt lat="43.1870133" lon="13.2638"><ele>233.66666666666669</ele><time>2026-04-12T08:23:37.427Z</time></trkpt><trkpt lat="43.1869317" lon="13.2635833"><ele>236.0</ele><time>2026-04-12T08:23:38.434Z</time></trkpt><trkpt lat="43.1868333" lon="13.2633733"><ele>236.0</ele><time>2026-04-12T08:23:39.43Z</time></trkpt><trkpt lat="43.186725" lon="13.263165"><ele>236.0</ele><time>2026-04-12T08:23:40.428Z</time></trkpt><trkpt lat="43.18661" lon="13.2629583"><ele>236.0</ele><time>2026-04-12T08:23:41.432Z</time></trkpt><trkpt lat="43.1864967" lon="13.2627567"><ele>236.66666666666669</ele><time>2026-04-12T08:23:42.43Z</time></trkpt><trkpt lat="43.1863817" lon="13.262555"><ele>237.33333333333331</ele><time>2026-04-12T08:23:43.429Z</time></trkpt><trkpt lat="43.1862667" lon="13.262355"><ele>238.0</ele><time>2026-04-12T08:23:44.431Z</time></trkpt><trkpt lat="43.1861417" lon="13.2621617"><ele>238.66666666666666</ele><time>2026-04-12T08:23:45.432Z</time></trkpt><trkpt lat="43.186015" lon="13.2619717"><ele>239.33333333333331</ele><time>2026-04-12T08:23:46.43Z</time></trkpt><trkpt lat="43.1858883" lon="13.2617933"><ele>240.0</ele><time>2026-04-12T08:23:47.429Z</time></trkpt><trkpt lat="43.1857683" lon="13.2616183"><ele>239.0</ele><time>2026-04-12T08:23:48.43Z</time></trkpt><trkpt lat="43.1856517" lon="13.2614567"><ele>238.0</ele><time>2026-04-12T08:23:49.429Z</time></trkpt><trkpt lat="43.1855433" lon="13.2613017"><ele>237.0</ele><time>2026-04-12T08:23:50.431Z</time></trkpt><trkpt lat="43.1854417" lon="13.26115"><ele>237.0</ele><time>2026-04-12T08:23:51.43Z</time></trkpt><trkpt lat="43.1853383" lon="13.2610017"><ele>237.0</ele><time>2026-04-12T08:23:52.428Z</time></trkpt><trkpt lat="43.1852317" lon="13.2608567"><ele>237.0</ele><time>2026-04-12T08:23:53.431Z</time></trkpt><trkpt lat="43.1851233" lon="13.2607083"><ele>236.66666666666669</ele><time>2026-04-12T08:23:54.429Z</time></trkpt><trkpt lat="43.185015" lon="13.2605567"><ele>236.33333333333334</ele><time>2026-04-12T08:23:55.431Z</time></trkpt><trkpt lat="43.1849117" lon="13.2604067"><ele>236.0</ele><time>2026-04-12T08:23:56.433Z</time></trkpt><trkpt lat="43.1848067" lon="13.2602583"><ele>235.33333333333334</ele><time>2026-04-12T08:23:57.429Z</time></trkpt><trkpt lat="43.1847017" lon="13.26011"><ele>234.66666666666669</ele><time>2026-04-12T08:23:58.43Z</time></trkpt><trkpt lat="43.1846" lon="13.2599567"><ele>234.0</ele><time>2026-04-12T08:23:59.431Z</time></trkpt><trkpt lat="43.1845" lon="13.2598"><ele>234.0</ele><time>2026-04-12T08:24:00.429Z</time></trkpt><trkpt lat="43.1843983" lon="13.2596433"><ele>234.0</ele><time>2026-04-12T08:24:01.43Z</time></trkpt><trkpt lat="43.184305" lon="13.2594767"><ele>234.0</ele><time>2026-04-12T08:24:02.43Z</time></trkpt><trkpt lat="43.1842183" lon="13.2593"><ele>234.0</ele><time>2026-04-12T08:24:03.431Z</time></trkpt><trkpt lat="43.1841467" lon="13.2591133"><ele>234.0</ele><time>2026-04-12T08:24:04.428Z</time></trkpt><trkpt lat="43.1840967" lon="13.2589133"><ele>234.0</ele><time>2026-04-12T08:24:05.429Z</time></trkpt><trkpt lat="43.1840583" lon="13.2587033"><ele>234.33333333333331</ele><time>2026-04-12T08:24:06.431Z</time></trkpt><trkpt lat="43.1840333" lon="13.2584817"><ele>234.66666666666666</ele><time>2026-04-12T08:24:07.427Z</time></trkpt><trkpt lat="43.1840217" lon="13.2582467"><ele>235.0</ele><time>2026-04-12T08:24:08.429Z</time></trkpt><trkpt lat="43.184005" lon="13.258015"><ele>232.66666666666666</ele><time>2026-04-12T08:24:09.431Z</time></trkpt><trkpt lat="43.1839867" lon="13.2577967"><ele>230.33333333333331</ele><time>2026-04-12T08:24:10.428Z</time></trkpt><trkpt lat="43.1839533" lon="13.2575883"><ele>228.0</ele><time>2026-04-12T08:24:11.427Z</time></trkpt><trkpt lat="43.1839117" lon="13.2573883"><ele>228.33333333333331</ele><time>2026-04-12T08:24:12.425Z</time></trkpt><trkpt lat="43.18387" lon="13.257195"><ele>228.66666666666666</ele><time>2026-04-12T08:24:13.43Z</time></trkpt><trkpt lat="43.18383" lon="13.2569983"><ele>229.0</ele><time>2026-04-12T08:24:14.428Z</time></trkpt><trkpt lat="43.1837833" lon="13.2567967"><ele>229.0</ele><time>2026-04-12T08:24:15.43Z</time></trkpt><trkpt lat="43.183735" lon="13.2565933"><ele>229.0</ele><time>2026-04-12T08:24:16.43Z</time></trkpt><trkpt lat="43.1836917" lon="13.2563933"><ele>229.0</ele><time>2026-04-12T08:24:17.428Z</time></trkpt><trkpt lat="43.18364" lon="13.256195"><ele>229.25</ele><time>2026-04-12T08:24:18.428Z</time></trkpt><trkpt lat="43.1835817" lon="13.2559983"><ele>229.5</ele><time>2026-04-12T08:24:19.43Z</time></trkpt><trkpt lat="43.1835267" lon="13.255815"><ele>229.75</ele><time>2026-04-12T08:24:20.433Z</time></trkpt><trkpt lat="43.1834783" lon="13.25564"><ele>230.0</ele><time>2026-04-12T08:24:21.43Z</time></trkpt><trkpt lat="43.1834383" lon="13.2554733"><ele>230.0</ele><time>2026-04-12T08:24:22.431Z</time></trkpt><trkpt lat="43.1834017" lon="13.2553183"><ele>230.0</ele><time>2026-04-12T08:24:23.427Z</time></trkpt><trkpt lat="43.183385" lon="13.2551767"><ele>230.0</ele><time>2026-04-12T08:24:24.427Z</time></trkpt><trkpt lat="43.183385" lon="13.255045"><ele>230.0</ele><time>2026-04-12T08:24:25.425Z</time></trkpt><trkpt lat="43.183395" lon="13.2549233"><ele>230.0</ele><time>2026-04-12T08:24:26.425Z</time></trkpt><trkpt lat="43.1833967" lon="13.2548183"><ele>230.50000000000003</ele><time>2026-04-12T08:24:27.428Z</time></trkpt><trkpt lat="43.1833783" lon="13.2547283"><ele>231.0</ele><time>2026-04-12T08:24:28.428Z</time></trkpt><trkpt lat="43.18333" lon="13.2546533"><ele>231.5</ele><time>2026-04-12T08:24:29.429Z</time></trkpt><trkpt lat="43.1832633" lon="13.25459"><ele>232.0</ele><time>2026-04-12T08:24:30.428Z</time></trkpt><trkpt lat="43.1831783" lon="13.254555"><ele>232.50000000000003</ele><time>2026-04-12T08:24:31.43Z</time></trkpt><trkpt lat="43.1831" lon="13.254515"><ele>233.0</ele><time>2026-04-12T08:24:32.424Z</time></trkpt><trkpt lat="43.1830283" lon="13.2544617"><ele>233.0</ele><time>2026-04-12T08:24:33.427Z</time></trkpt><trkpt lat="43.1829533" lon="13.2544033"><ele>233.0</ele><time>2026-04-12T08:24:34.428Z</time></trkpt><trkpt lat="43.1828583" lon="13.254325"><ele>233.0</ele><time>2026-04-12T08:24:35.426Z</time></trkpt><trkpt lat="43.1827517" lon="13.2542467"><ele>233.0</ele><time>2026-04-12T08:24:36.428Z</time></trkpt><trkpt lat="43.1826267" lon="13.2541667"><ele>233.0</ele><time>2026-04-12T08:24:37.427Z</time></trkpt><trkpt lat="43.1825" lon="13.2540883"><ele>233.0</ele><time>2026-04-12T08:24:38.43Z</time></trkpt><trkpt lat="43.1823667" lon="13.2540083"><ele>233.0</ele><time>2026-04-12T08:24:39.43Z</time></trkpt><trkpt lat="43.182225" lon="13.2539233"><ele>233.0</ele><time>2026-04-12T08:24:40.429Z</time></trkpt><trkpt lat="43.1820767" lon="13.2538333"><ele>234.0</ele><time>2026-04-12T08:24:41.43Z</time></trkpt><trkpt lat="43.18192" lon="13.253735"><ele>235.0</ele><time>2026-04-12T08:24:42.431Z</time></trkpt><trkpt lat="43.181755" lon="13.2536367"><ele>236.0</ele><time>2026-04-12T08:24:43.429Z</time></trkpt><trkpt lat="43.18159" lon="13.2535417"><ele>238.0</ele><time>2026-04-12T08:24:44.433Z</time></trkpt><trkpt lat="43.1814167" lon="13.2534517"><ele>240.0</ele><time>2026-04-12T08:24:45.431Z</time></trkpt><trkpt lat="43.1812383" lon="13.2533667"><ele>242.0</ele><time>2026-04-12T08:24:46.431Z</time></trkpt><trkpt lat="43.1810483" lon="13.25329"><ele>242.0</ele><time>2026-04-12T08:24:47.43Z</time></trkpt><trkpt lat="43.1808617" lon="13.25322"><ele>242.0</ele><time>2026-04-12T08:24:48.43Z</time></trkpt><trkpt lat="43.1806717" lon="13.25315"><ele>242.0</ele><time>2026-04-12T08:24:49.427Z</time></trkpt><trkpt lat="43.1804833" lon="13.2530767"><ele>243.0</ele><time>2026-04-12T08:24:50.432Z</time></trkpt><trkpt lat="43.1803" lon="13.253"><ele>244.0</ele><time>2026-04-12T08:24:51.428Z</time></trkpt><trkpt lat="43.180115" lon="13.2529267"><ele>245.0</ele><time>2026-04-12T08:24:52.432Z</time></trkpt><trkpt lat="43.1799233" lon="13.252865"><ele>246.33333333333334</ele><time>2026-04-12T08:24:53.43Z</time></trkpt><trkpt lat="43.1797333" lon="13.252815"><ele>247.66666666666669</ele><time>2026-04-12T08:24:54.431Z</time></trkpt><trkpt lat="43.17954" lon="13.252795"><ele>249.0</ele><time>2026-04-12T08:24:55.43Z</time></trkpt><trkpt lat="43.1793433" lon="13.2527983"><ele>249.0</ele><time>2026-04-12T08:24:56.426Z</time></trkpt><trkpt lat="43.179145" lon="13.2528183"><ele>249.0</ele><time>2026-04-12T08:24:57.428Z</time></trkpt><trkpt lat="43.1789483" lon="13.252835"><ele>249.0</ele><time>2026-04-12T08:24:58.428Z</time></trkpt><trkpt lat="43.178755" lon="13.252835"><ele>249.0</ele><time>2026-04-12T08:24:59.429Z</time></trkpt><trkpt lat="43.17857" lon="13.25279"><ele>249.0</ele><time>2026-04-12T08:25:00.43Z</time></trkpt><trkpt lat="43.1783983" lon="13.2527"><ele>249.0</ele><time>2026-04-12T08:25:01.427Z</time></trkpt><trkpt lat="43.17825" lon="13.2525883"><ele>250.33333333333331</ele><time>2026-04-12T08:25:02.429Z</time></trkpt><trkpt lat="43.17812" lon="13.2524567"><ele>251.66666666666666</ele><time>2026-04-12T08:25:03.429Z</time></trkpt><trkpt lat="43.1779933" lon="13.2523333"><ele>253.0</ele><time>2026-04-12T08:25:04.426Z</time></trkpt><trkpt lat="43.1778483" lon="13.252235"><ele>253.0</ele><time>2026-04-12T08:25:05.427Z</time></trkpt><trkpt lat="43.1776983" lon="13.2521667"><ele>253.0</ele><time>2026-04-12T08:25:06.432Z</time></trkpt><trkpt lat="43.1775483" lon="13.2521217"><ele>253.0</ele><time>2026-04-12T08:25:07.431Z</time></trkpt><trkpt lat="43.177395" lon="13.2520783"><ele>252.0</ele><time>2026-04-12T08:25:08.432Z</time></trkpt><trkpt lat="43.177245" lon="13.2520333"><ele>251.0</ele><time>2026-04-12T08:25:09.428Z</time></trkpt><trkpt lat="43.1770917" lon="13.251975"><ele>250.0</ele><time>2026-04-12T08:25:10.43Z</time></trkpt><trkpt lat="43.1769383" lon="13.2519083"><ele>250.0</ele><time>2026-04-12T08:25:11.427Z</time></trkpt><trkpt lat="43.1767833" lon="13.2518367"><ele>250.0</ele><time>2026-04-12T08:25:12.426Z</time></trkpt><trkpt lat="43.17663" lon="13.2517733"><ele>250.0</ele><time>2026-04-12T08:25:13.428Z</time></trkpt><trkpt lat="43.17647" lon="13.2517283"><ele>248.66666666666666</ele><time>2026-04-12T08:25:14.428Z</time></trkpt><trkpt lat="43.1763017" lon="13.2517067"><ele>247.33333333333331</ele><time>2026-04-12T08:25:15.428Z</time></trkpt><trkpt lat="43.1761367" lon="13.2517167"><ele>246.0</ele><time>2026-04-12T08:25:16.429Z</time></trkpt><trkpt lat="43.1759783" lon="13.251745"><ele>246.0</ele><time>2026-04-12T08:25:17.43Z</time></trkpt><trkpt lat="43.1758367" lon="13.2517767"><ele>246.0</ele><time>2026-04-12T08:25:18.433Z</time></trkpt><trkpt lat="43.17569" lon="13.2518"><ele>246.0</ele><time>2026-04-12T08:25:19.433Z</time></trkpt><trkpt lat="43.175545" lon="13.2518133"><ele>246.0</ele><time>2026-04-12T08:25:20.431Z</time></trkpt><trkpt lat="43.175395" lon="13.2518"><ele>244.66666666666669</ele><time>2026-04-12T08:25:21.429Z</time></trkpt><trkpt lat="43.17524" lon="13.2517517"><ele>243.33333333333334</ele><time>2026-04-12T08:25:22.434Z</time></trkpt><trkpt lat="43.1750867" lon="13.2516717"><ele>242.0</ele><time>2026-04-12T08:25:23.428Z</time></trkpt><trkpt lat="43.17494" lon="13.2515667"><ele>243.33333333333334</ele><time>2026-04-12T08:25:24.423Z</time></trkpt><trkpt lat="43.1747967" lon="13.2514517"><ele>244.66666666666669</ele><time>2026-04-12T08:25:25.427Z</time></trkpt><trkpt lat="43.1746583" lon="13.2513433"><ele>246.0</ele><time>2026-04-12T08:25:26.429Z</time></trkpt><trkpt lat="43.1745217" lon="13.25125"><ele>246.0</ele><time>2026-04-12T08:25:27.431Z</time></trkpt><trkpt lat="43.1743933" lon="13.251165"><ele>246.0</ele><time>2026-04-12T08:25:28.429Z</time></trkpt><trkpt lat="43.17427" lon="13.2510883"><ele>246.0</ele><time>2026-04-12T08:25:29.431Z</time></trkpt><trkpt lat="43.1741433" lon="13.2510117"><ele>246.0</ele><time>2026-04-12T08:25:30.426Z</time></trkpt><trkpt lat="43.1740033" lon="13.25093"><ele>245.33333333333331</ele><time>2026-04-12T08:25:31.431Z</time></trkpt><trkpt lat="43.1738433" lon="13.2508533"><ele>244.66666666666666</ele><time>2026-04-12T08:25:32.429Z</time></trkpt><trkpt lat="43.1736683" lon="13.25078"><ele>244.0</ele><time>2026-04-12T08:25:33.43Z</time></trkpt><trkpt lat="43.17349" lon="13.2507167"><ele>244.0</ele><time>2026-04-12T08:25:34.435Z</time></trkpt><trkpt lat="43.1733167" lon="13.250665"><ele>244.0</ele><time>2026-04-12T08:25:35.43Z</time></trkpt><trkpt lat="43.1731517" lon="13.2506117"><ele>244.0</ele><time>2026-04-12T08:25:36.431Z</time></trkpt><trkpt lat="43.17299" lon="13.2505533"><ele>244.0</ele><time>2026-04-12T08:25:37.428Z</time></trkpt><trkpt lat="43.17283" lon="13.2504917"><ele>244.0</ele><time>2026-04-12T08:25:38.43Z</time></trkpt><trkpt lat="43.1726733" lon="13.2504167"><ele>244.0</ele><time>2026-04-12T08:25:39.428Z</time></trkpt><trkpt lat="43.1725167" lon="13.25034"><ele>244.0</ele><time>2026-04-12T08:25:40.431Z</time></trkpt><trkpt lat="43.172365" lon="13.250265"><ele>244.0</ele><time>2026-04-12T08:25:41.429Z</time></trkpt><trkpt lat="43.1722183" lon="13.2501867"><ele>244.0</ele><time>2026-04-12T08:25:42.427Z</time></trkpt><trkpt lat="43.1720833" lon="13.2500967"><ele>244.0</ele><time>2026-04-12T08:25:43.429Z</time></trkpt><trkpt lat="43.1719533" lon="13.249965"><ele>244.0</ele><time>2026-04-12T08:25:44.433Z</time></trkpt><trkpt lat="43.1718433" lon="13.2497917"><ele>244.0</ele><time>2026-04-12T08:25:45.429Z</time></trkpt><trkpt lat="43.1717467" lon="13.2495867"><ele>244.0</ele><time>2026-04-12T08:25:46.428Z</time></trkpt><trkpt lat="43.1716517" lon="13.24938"><ele>244.0</ele><time>2026-04-12T08:25:47.428Z</time></trkpt><trkpt lat="43.1715567" lon="13.2491867"><ele>244.0</ele><time>2026-04-12T08:25:48.428Z</time></trkpt><trkpt lat="43.171455" lon="13.2490017"><ele>245.0</ele><time>2026-04-12T08:25:49.431Z</time></trkpt><trkpt lat="43.171335" lon="13.2488283"><ele>246.0</ele><time>2026-04-12T08:25:50.43Z</time></trkpt><trkpt lat="43.171195" lon="13.24868"><ele>247.0</ele><time>2026-04-12T08:25:51.429Z</time></trkpt><trkpt lat="43.17104" lon="13.2485617"><ele>247.0</ele><time>2026-04-12T08:25:52.428Z</time></trkpt><trkpt lat="43.1708783" lon="13.2484767"><ele>247.0</ele><time>2026-04-12T08:25:53.428Z</time></trkpt><trkpt lat="43.1707167" lon="13.2484133"><ele>247.0</ele><time>2026-04-12T08:25:54.431Z</time></trkpt><trkpt lat="43.1705583" lon="13.2483467"><ele>248.0</ele><time>2026-04-12T08:25:55.428Z</time></trkpt><trkpt lat="43.1704033" lon="13.2482533"><ele>249.0</ele><time>2026-04-12T08:25:56.431Z</time></trkpt><trkpt lat="43.170255" lon="13.2481267"><ele>250.0</ele><time>2026-04-12T08:25:57.427Z</time></trkpt><trkpt lat="43.17012" lon="13.2479683"><ele>250.0</ele><time>2026-04-12T08:25:58.427Z</time></trkpt><trkpt lat="43.170005" lon="13.247785"><ele>250.0</ele><time>2026-04-12T08:25:59.431Z</time></trkpt><trkpt lat="43.1699067" lon="13.2475717"><ele>250.0</ele><time>2026-04-12T08:26:00.432Z</time></trkpt><trkpt lat="43.169815" lon="13.247345"><ele>249.0</ele><time>2026-04-12T08:26:01.431Z</time></trkpt><trkpt lat="43.169735" lon="13.2471033"><ele>248.0</ele><time>2026-04-12T08:26:02.441Z</time></trkpt><trkpt lat="43.1696417" lon="13.2468767"><ele>247.0</ele><time>2026-04-12T08:26:03.429Z</time></trkpt><trkpt lat="43.1695483" lon="13.2466517"><ele>247.66666666666666</ele><time>2026-04-12T08:26:04.431Z</time></trkpt><trkpt lat="43.169455" lon="13.2464217"><ele>248.33333333333331</ele><time>2026-04-12T08:26:05.43Z</time></trkpt><trkpt lat="43.1693567" lon="13.2461983"><ele>249.0</ele><time>2026-04-12T08:26:06.429Z</time></trkpt><trkpt lat="43.16925" lon="13.245985"><ele>249.0</ele><time>2026-04-12T08:26:07.431Z</time></trkpt><trkpt lat="43.16913" lon="13.24579"><ele>249.0</ele><time>2026-04-12T08:26:08.433Z</time></trkpt><trkpt lat="43.1689917" lon="13.24562"><ele>249.0</ele><time>2026-04-12T08:26:09.429Z</time></trkpt><trkpt lat="43.1688383" lon="13.2454817"><ele>249.66666666666669</ele><time>2026-04-12T08:26:10.429Z</time></trkpt><trkpt lat="43.1686783" lon="13.2453783"><ele>250.33333333333334</ele><time>2026-04-12T08:26:11.433Z</time></trkpt><trkpt lat="43.1685233" lon="13.2452983"><ele>251.0</ele><time>2026-04-12T08:26:12.433Z</time></trkpt><trkpt lat="43.16838" lon="13.245235"><ele>251.0</ele><time>2026-04-12T08:26:13.428Z</time></trkpt><trkpt lat="43.1682417" lon="13.245175"><ele>251.0</ele><time>2026-04-12T08:26:14.431Z</time></trkpt><trkpt lat="43.1680983" lon="13.2451117"><ele>251.0</ele><time>2026-04-12T08:26:15.43Z</time></trkpt><trkpt lat="43.1679517" lon="13.2450383"><ele>251.33333333333334</ele><time>2026-04-12T08:26:16.43Z</time></trkpt><trkpt lat="43.1678083" lon="13.2449417"><ele>251.66666666666669</ele><time>2026-04-12T08:26:17.434Z</time></trkpt><trkpt lat="43.1676783" lon="13.2447967"><ele>252.0</ele><time>2026-04-12T08:26:18.428Z</time></trkpt><trkpt lat="43.1675667" lon="13.2446217"><ele>251.5</ele><time>2026-04-12T08:26:19.427Z</time></trkpt><trkpt lat="43.1674783" lon="13.2444433"><ele>251.0</ele><time>2026-04-12T08:26:20.43Z</time></trkpt><trkpt lat="43.1673967" lon="13.2442767"><ele>250.5</ele><time>2026-04-12T08:26:21.429Z</time></trkpt><trkpt lat="43.1673117" lon="13.244115"><ele>250.0</ele><time>2026-04-12T08:26:22.43Z</time></trkpt><trkpt lat="43.1672233" lon="13.2439583"><ele>251.0</ele><time>2026-04-12T08:26:23.429Z</time></trkpt><trkpt lat="43.167125" lon="13.2438033"><ele>252.0</ele><time>2026-04-12T08:26:24.429Z</time></trkpt><trkpt lat="43.1670217" lon="13.2436567"><ele>253.0</ele><time>2026-04-12T08:26:25.429Z</time></trkpt><trkpt lat="43.1669167" lon="13.24352"><ele>254.0</ele><time>2026-04-12T08:26:26.429Z</time></trkpt><trkpt lat="43.1668067" lon="13.24339"><ele>254.0</ele><time>2026-04-12T08:26:27.431Z</time></trkpt><trkpt lat="43.1666917" lon="13.2432617"><ele>254.0</ele><time>2026-04-12T08:26:28.43Z</time></trkpt><trkpt lat="43.16657" lon="13.243145"><ele>254.0</ele><time>2026-04-12T08:26:29.427Z</time></trkpt><trkpt lat="43.166445" lon="13.2430333"><ele>254.0</ele><time>2026-04-12T08:26:30.43Z</time></trkpt><trkpt lat="43.166315" lon="13.2429283"><ele>255.66666666666669</ele><time>2026-04-12T08:26:31.429Z</time></trkpt><trkpt lat="43.1661733" lon="13.2428233"><ele>257.3333333333333</ele><time>2026-04-12T08:26:32.43Z</time></trkpt><trkpt lat="43.1660383" lon="13.24273"><ele>259.0</ele><time>2026-04-12T08:26:33.43Z</time></trkpt><trkpt lat="43.1659033" lon="13.2426483"><ele>259.0</ele><time>2026-04-12T08:26:34.431Z</time></trkpt><trkpt lat="43.1657733" lon="13.2425733"><ele>259.0</ele><time>2026-04-12T08:26:35.429Z</time></trkpt><trkpt lat="43.1656533" lon="13.2425167"><ele>259.0</ele><time>2026-04-12T08:26:36.433Z</time></trkpt><trkpt lat="43.1655433" lon="13.2424633"><ele>259.0</ele><time>2026-04-12T08:26:37.428Z</time></trkpt><trkpt lat="43.1654383" lon="13.24242"><ele>258.16666666666663</ele><time>2026-04-12T08:26:38.426Z</time></trkpt><trkpt lat="43.16534" lon="13.2423883"><ele>257.3333333333333</ele><time>2026-04-12T08:26:39.432Z</time></trkpt><trkpt lat="43.1652483" lon="13.2423633"><ele>256.5</ele><time>2026-04-12T08:26:40.429Z</time></trkpt><trkpt lat="43.16516" lon="13.2423467"><ele>255.66666666666669</ele><time>2026-04-12T08:26:41.432Z</time></trkpt><trkpt lat="43.1650783" lon="13.24233"><ele>254.83333333333334</ele><time>2026-04-12T08:26:42.431Z</time></trkpt><trkpt lat="43.16501" lon="13.2423033"><ele>254.0</ele><time>2026-04-12T08:26:43.43Z</time></trkpt><trkpt lat="43.1649083" lon="13.2422667"><ele>253.83333333333334</ele><time>2026-04-12T08:26:45.43Z</time></trkpt><trkpt lat="43.1648417" lon="13.2422533"><ele>253.66666666666669</ele><time>2026-04-12T08:26:47.429Z</time></trkpt><trkpt lat="43.1647733" lon="13.2422033"><ele>253.5</ele><time>2026-04-12T08:30:04.429Z</time></trkpt><trkpt lat="43.164655" lon="13.2421817"><ele>253.33333333333331</ele><time>2026-04-12T08:30:06.431Z</time></trkpt><trkpt lat="43.1645733" lon="13.2421617"><ele>253.16666666666666</ele><time>2026-04-12T08:30:07.431Z</time></trkpt><trkpt lat="43.1644867" lon="13.242145"><ele>253.0</ele><time>2026-04-12T08:30:08.434Z</time></trkpt><trkpt lat="43.16439" lon="13.2421217"><ele>253.0</ele><time>2026-04-12T08:30:09.432Z</time></trkpt><trkpt lat="43.16429" lon="13.2421017"><ele>253.0</ele><time>2026-04-12T08:30:10.431Z</time></trkpt><trkpt lat="43.1641883" lon="13.2420817"><ele>253.0</ele><time>2026-04-12T08:30:11.429Z</time></trkpt><trkpt lat="43.1640883" lon="13.2420633"><ele>253.0</ele><time>2026-04-12T08:30:12.428Z</time></trkpt><trkpt lat="43.1639817" lon="13.2420467"><ele>253.0</ele><time>2026-04-12T08:30:13.428Z</time></trkpt><trkpt lat="43.1638667" lon="13.2420367"><ele>253.0</ele><time>2026-04-12T08:30:14.428Z</time></trkpt><trkpt lat="43.1637433" lon="13.2420483"><ele>253.0</ele><time>2026-04-12T08:30:15.428Z</time></trkpt><trkpt lat="43.1636133" lon="13.2420733"><ele>253.0</ele><time>2026-04-12T08:30:16.431Z</time></trkpt><trkpt lat="43.1634867" lon="13.2420933"><ele>253.0</ele><time>2026-04-12T08:30:17.429Z</time></trkpt><trkpt lat="43.1633533" lon="13.24209"><ele>253.0</ele><time>2026-04-12T08:30:18.431Z</time></trkpt><trkpt lat="43.163225" lon="13.2420467"><ele>253.0</ele><time>2026-04-12T08:30:19.435Z</time></trkpt><trkpt lat="43.163115" lon="13.2419483"><ele>253.0</ele><time>2026-04-12T08:30:20.43Z</time></trkpt><trkpt lat="43.163015" lon="13.2418083"><ele>253.0</ele><time>2026-04-12T08:30:21.431Z</time></trkpt><trkpt lat="43.1629217" lon="13.2416383"><ele>254.33333333333331</ele><time>2026-04-12T08:30:22.43Z</time></trkpt><trkpt lat="43.16283" lon="13.2414567"><ele>255.66666666666669</ele><time>2026-04-12T08:30:23.428Z</time></trkpt><trkpt lat="43.1627333" lon="13.241275"><ele>257.0</ele><time>2026-04-12T08:30:24.429Z</time></trkpt><trkpt lat="43.1626317" lon="13.2410917"><ele>257.0</ele><time>2026-04-12T08:30:25.427Z</time></trkpt><trkpt lat="43.1625317" lon="13.24092"><ele>257.0</ele><time>2026-04-12T08:30:26.431Z</time></trkpt><trkpt lat="43.1624283" lon="13.240765"><ele>257.0</ele><time>2026-04-12T08:30:27.427Z</time></trkpt><trkpt lat="43.1623183" lon="13.2406317"><ele>257.6666666666667</ele><time>2026-04-12T08:30:28.43Z</time></trkpt><trkpt lat="43.1621933" lon="13.240515"><ele>258.3333333333333</ele><time>2026-04-12T08:30:29.431Z</time></trkpt><trkpt lat="43.162055" lon="13.24041"><ele>259.0</ele><time>2026-04-12T08:30:30.433Z</time></trkpt><trkpt lat="43.1619033" lon="13.240315"><ele>259.0</ele><time>2026-04-12T08:30:31.434Z</time></trkpt><trkpt lat="43.1617483" lon="13.24023"><ele>259.0</ele><time>2026-04-12T08:30:32.433Z</time></trkpt><trkpt lat="43.16159" lon="13.2401433"><ele>259.0</ele><time>2026-04-12T08:30:33.429Z</time></trkpt><trkpt lat="43.1614367" lon="13.24006"><ele>257.0</ele><time>2026-04-12T08:30:34.429Z</time></trkpt><trkpt lat="43.1612883" lon="13.2399783"><ele>255.0</ele><time>2026-04-12T08:30:35.429Z</time></trkpt><trkpt lat="43.161145" lon="13.2399017"><ele>253.0</ele><time>2026-04-12T08:30:36.432Z</time></trkpt><trkpt lat="43.1610067" lon="13.239825"><ele>252.66666666666666</ele><time>2026-04-12T08:30:37.428Z</time></trkpt><trkpt lat="43.1608633" lon="13.2397467"><ele>252.33333333333331</ele><time>2026-04-12T08:30:38.43Z</time></trkpt><trkpt lat="43.16072" lon="13.23966"><ele>252.0</ele><time>2026-04-12T08:30:39.432Z</time></trkpt><trkpt lat="43.160585" lon="13.2395567"><ele>252.0</ele><time>2026-04-12T08:30:40.43Z</time></trkpt><trkpt lat="43.1604567" lon="13.2394283"><ele>252.0</ele><time>2026-04-12T08:30:41.429Z</time></trkpt><trkpt lat="43.16035" lon="13.2392883"><ele>252.0</ele><time>2026-04-12T08:30:42.43Z</time></trkpt><trkpt lat="43.1602633" lon="13.2391333"><ele>252.0</ele><time>2026-04-12T08:30:43.433Z</time></trkpt><trkpt lat="43.1602" lon="13.2389617"><ele>252.75</ele><time>2026-04-12T08:30:44.432Z</time></trkpt><trkpt lat="43.1601483" lon="13.238785"><ele>253.5</ele><time>2026-04-12T08:30:45.429Z</time></trkpt><trkpt lat="43.1601067" lon="13.2385983"><ele>254.25</ele><time>2026-04-12T08:30:46.427Z</time></trkpt><trkpt lat="43.1600717" lon="13.2384067"><ele>255.0</ele><time>2026-04-12T08:30:47.429Z</time></trkpt><trkpt lat="43.1600383" lon="13.2382083"><ele>255.0</ele><time>2026-04-12T08:30:48.429Z</time></trkpt><trkpt lat="43.160005" lon="13.238005"><ele>255.0</ele><time>2026-04-12T08:30:49.431Z</time></trkpt><trkpt lat="43.15997" lon="13.2377967"><ele>255.0</ele><time>2026-04-12T08:30:50.428Z</time></trkpt><trkpt lat="43.1599367" lon="13.2375933"><ele>255.0</ele><time>2026-04-12T08:30:51.428Z</time></trkpt><trkpt lat="43.1599117" lon="13.2374"><ele>255.0</ele><time>2026-04-12T08:30:52.427Z</time></trkpt><trkpt lat="43.159885" lon="13.2372083"><ele>255.0</ele><time>2026-04-12T08:30:53.428Z</time></trkpt><trkpt lat="43.1598583" lon="13.2370133"><ele>255.0</ele><time>2026-04-12T08:30:54.427Z</time></trkpt><trkpt lat="43.1598283" lon="13.2368133"><ele>254.33333333333331</ele><time>2026-04-12T08:30:55.428Z</time></trkpt><trkpt lat="43.1597967" lon="13.2366083"><ele>253.66666666666666</ele><time>2026-04-12T08:30:56.428Z</time></trkpt><trkpt lat="43.1597617" lon="13.2363967"><ele>253.0</ele><time>2026-04-12T08:30:57.429Z</time></trkpt><trkpt lat="43.1597233" lon="13.2361833"><ele>253.0</ele><time>2026-04-12T08:30:58.427Z</time></trkpt><trkpt lat="43.1596817" lon="13.2359717"><ele>253.0</ele><time>2026-04-12T08:30:59.431Z</time></trkpt><trkpt lat="43.1596267" lon="13.23576"><ele>253.0</ele><time>2026-04-12T08:31:00.433Z</time></trkpt><trkpt lat="43.15956" lon="13.235545"><ele>256.0</ele><time>2026-04-12T08:31:01.431Z</time></trkpt><trkpt lat="43.1594783" lon="13.2353367"><ele>259.0</ele><time>2026-04-12T08:31:02.432Z</time></trkpt><trkpt lat="43.1593833" lon="13.235135"><ele>262.0</ele><time>2026-04-12T08:31:03.429Z</time></trkpt><trkpt lat="43.159285" lon="13.234935"><ele>260.3333333333333</ele><time>2026-04-12T08:31:04.431Z</time></trkpt><trkpt lat="43.1591883" lon="13.2347333"><ele>258.6666666666667</ele><time>2026-04-12T08:31:05.431Z</time></trkpt><trkpt lat="43.15909" lon="13.23453"><ele>257.0</ele><time>2026-04-12T08:31:06.429Z</time></trkpt><trkpt lat="43.1589933" lon="13.234325"><ele>257.0</ele><time>2026-04-12T08:31:07.428Z</time></trkpt><trkpt lat="43.1589" lon="13.2341217"><ele>257.0</ele><time>2026-04-12T08:31:08.432Z</time></trkpt><trkpt lat="43.1588" lon="13.2339133"><ele>257.0</ele><time>2026-04-12T08:31:09.429Z</time></trkpt><trkpt lat="43.1587" lon="13.2337083"><ele>259.0</ele><time>2026-04-12T08:31:10.428Z</time></trkpt><trkpt lat="43.1586033" lon="13.2335"><ele>261.0</ele><time>2026-04-12T08:31:11.426Z</time></trkpt><trkpt lat="43.1585083" lon="13.2332933"><ele>263.0</ele><time>2026-04-12T08:31:12.429Z</time></trkpt><trkpt lat="43.1584133" lon="13.2330867"><ele>262.33333333333337</ele><time>2026-04-12T08:31:13.429Z</time></trkpt><trkpt lat="43.158315" lon="13.23288"><ele>261.6666666666667</ele><time>2026-04-12T08:31:14.432Z</time></trkpt><trkpt lat="43.1582133" lon="13.23268"><ele>261.0</ele><time>2026-04-12T08:31:15.433Z</time></trkpt><trkpt lat="43.1581033" lon="13.23249"><ele>261.0</ele><time>2026-04-12T08:31:16.43Z</time></trkpt><trkpt lat="43.1579933" lon="13.2323067"><ele>261.0</ele><time>2026-04-12T08:31:17.428Z</time></trkpt><trkpt lat="43.1578817" lon="13.232125"><ele>261.0</ele><time>2026-04-12T08:31:18.429Z</time></trkpt><trkpt lat="43.1577683" lon="13.231945"><ele>264.0</ele><time>2026-04-12T08:31:19.43Z</time></trkpt><trkpt lat="43.1576517" lon="13.23176"><ele>267.0</ele><time>2026-04-12T08:31:20.429Z</time></trkpt><trkpt lat="43.1575433" lon="13.2315683"><ele>270.0</ele><time>2026-04-12T08:31:21.428Z</time></trkpt><trkpt lat="43.15745" lon="13.2313583"><ele>271.0</ele><time>2026-04-12T08:31:22.427Z</time></trkpt><trkpt lat="43.1573717" lon="13.2311417"><ele>272.0</ele><time>2026-04-12T08:31:23.43Z</time></trkpt><trkpt lat="43.1573067" lon="13.2309167"><ele>273.0</ele><time>2026-04-12T08:31:24.427Z</time></trkpt><trkpt lat="43.15725" lon="13.230685"><ele>268.3333333333333</ele><time>2026-04-12T08:31:25.428Z</time></trkpt><trkpt lat="43.157195" lon="13.230445"><ele>263.66666666666663</ele><time>2026-04-12T08:31:26.432Z</time></trkpt><trkpt lat="43.157135" lon="13.230205"><ele>259.0</ele><time>2026-04-12T08:31:27.427Z</time></trkpt><trkpt lat="43.15707" lon="13.2299683"><ele>261.66666666666663</ele><time>2026-04-12T08:31:28.429Z</time></trkpt><trkpt lat="43.1569933" lon="13.229735"><ele>264.3333333333333</ele><time>2026-04-12T08:31:29.431Z</time></trkpt><trkpt lat="43.1569067" lon="13.2295083"><ele>267.0</ele><time>2026-04-12T08:31:30.431Z</time></trkpt><trkpt lat="43.15681" lon="13.2292883"><ele>267.0</ele><time>2026-04-12T08:31:31.431Z</time></trkpt><trkpt lat="43.1567067" lon="13.2290733"><ele>267.0</ele><time>2026-04-12T08:31:32.43Z</time></trkpt><trkpt lat="43.156605" lon="13.2288533"><ele>267.0</ele><time>2026-04-12T08:31:33.428Z</time></trkpt><trkpt lat="43.1565133" lon="13.2286283"><ele>267.3333333333333</ele><time>2026-04-12T08:31:34.429Z</time></trkpt><trkpt lat="43.15643" lon="13.2283933"><ele>267.66666666666663</ele><time>2026-04-12T08:31:35.43Z</time></trkpt><trkpt lat="43.15635" lon="13.2281567"><ele>268.0</ele><time>2026-04-12T08:31:36.43Z</time></trkpt><trkpt lat="43.1562683" lon="13.22792"><ele>268.0</ele><time>2026-04-12T08:31:37.43Z</time></trkpt><trkpt lat="43.1561833" lon="13.22769"><ele>268.0</ele><time>2026-04-12T08:31:38.429Z</time></trkpt><trkpt lat="43.15609" lon="13.2274683"><ele>268.0</ele><time>2026-04-12T08:31:39.43Z</time></trkpt><trkpt lat="43.1559833" lon="13.2272567"><ele>266.66666666666663</ele><time>2026-04-12T08:31:40.429Z</time></trkpt><trkpt lat="43.1558633" lon="13.227055"><ele>265.3333333333333</ele><time>2026-04-12T08:31:41.427Z</time></trkpt><trkpt lat="43.155735" lon="13.22686"><ele>264.0</ele><time>2026-04-12T08:31:42.428Z</time></trkpt><trkpt lat="43.1556067" lon="13.2266683"><ele>265.3333333333333</ele><time>2026-04-12T08:31:43.429Z</time></trkpt><trkpt lat="43.1554783" lon="13.226475"><ele>266.66666666666663</ele><time>2026-04-12T08:31:44.429Z</time></trkpt><trkpt lat="43.1553483" lon="13.2262817"><ele>268.0</ele><time>2026-04-12T08:31:45.43Z</time></trkpt><trkpt lat="43.155215" lon="13.22609"><ele>268.0</ele><time>2026-04-12T08:31:46.428Z</time></trkpt><trkpt lat="43.1550867" lon="13.2259033"><ele>268.0</ele><time>2026-04-12T08:31:47.429Z</time></trkpt><trkpt lat="43.1549667" lon="13.22572"><ele>268.0</ele><time>2026-04-12T08:31:48.432Z</time></trkpt><trkpt lat="43.1548567" lon="13.22554"><ele>266.66666666666663</ele><time>2026-04-12T08:31:49.428Z</time></trkpt><trkpt lat="43.154755" lon="13.225365"><ele>265.3333333333333</ele><time>2026-04-12T08:31:50.428Z</time></trkpt><trkpt lat="43.1546633" lon="13.2251883"><ele>264.0</ele><time>2026-04-12T08:31:51.426Z</time></trkpt><trkpt lat="43.1545833" lon="13.2249983"><ele>264.0</ele><time>2026-04-12T08:31:52.429Z</time></trkpt><trkpt lat="43.15452" lon="13.2247883"><ele>264.0</ele><time>2026-04-12T08:31:53.428Z</time></trkpt><trkpt lat="43.1544783" lon="13.224565"><ele>264.0</ele><time>2026-04-12T08:31:54.43Z</time></trkpt><trkpt lat="43.15446" lon="13.22433"><ele>264.0</ele><time>2026-04-12T08:31:55.43Z</time></trkpt><trkpt lat="43.1544567" lon="13.2240917"><ele>264.0</ele><time>2026-04-12T08:31:56.427Z</time></trkpt><trkpt lat="43.154465" lon="13.223855"><ele>264.0</ele><time>2026-04-12T08:31:57.429Z</time></trkpt><trkpt lat="43.1544833" lon="13.223615"><ele>263.6666666666667</ele><time>2026-04-12T08:31:58.429Z</time></trkpt><trkpt lat="43.1544917" lon="13.2233733"><ele>263.33333333333337</ele><time>2026-04-12T08:31:59.432Z</time></trkpt><trkpt lat="43.1544933" lon="13.223135"><ele>263.0</ele><time>2026-04-12T08:32:00.433Z</time></trkpt><trkpt lat="43.15447" lon="13.222905"><ele>264.33333333333337</ele><time>2026-04-12T08:32:01.432Z</time></trkpt><trkpt lat="43.1544233" lon="13.222685"><ele>265.6666666666667</ele><time>2026-04-12T08:32:02.436Z</time></trkpt><trkpt lat="43.15436" lon="13.2224733"><ele>267.0</ele><time>2026-04-12T08:32:03.43Z</time></trkpt><trkpt lat="43.1542767" lon="13.2222783"><ele>266.3333333333333</ele><time>2026-04-12T08:32:04.43Z</time></trkpt><trkpt lat="43.154175" lon="13.2220983"><ele>265.66666666666663</ele><time>2026-04-12T08:32:05.429Z</time></trkpt><trkpt lat="43.1540633" lon="13.221925"><ele>265.0</ele><time>2026-04-12T08:32:06.43Z</time></trkpt><trkpt lat="43.1539367" lon="13.22176"><ele>265.0</ele><time>2026-04-12T08:32:07.43Z</time></trkpt><trkpt lat="43.1538083" lon="13.2215983"><ele>265.0</ele><time>2026-04-12T08:32:08.43Z</time></trkpt><trkpt lat="43.153675" lon="13.2214417"><ele>265.0</ele><time>2026-04-12T08:32:09.43Z</time></trkpt><trkpt lat="43.153545" lon="13.2212917"><ele>266.0</ele><time>2026-04-12T08:32:10.429Z</time></trkpt><trkpt lat="43.15342" lon="13.2211383"><ele>267.0</ele><time>2026-04-12T08:32:11.431Z</time></trkpt><trkpt lat="43.1532933" lon="13.220985"><ele>268.0</ele><time>2026-04-12T08:32:12.429Z</time></trkpt><trkpt lat="43.1531667" lon="13.2208367"><ele>268.0</ele><time>2026-04-12T08:32:13.424Z</time></trkpt><trkpt lat="43.1530433" lon="13.220685"><ele>268.0</ele><time>2026-04-12T08:32:14.428Z</time></trkpt><trkpt lat="43.1529283" lon="13.2205367"><ele>268.0</ele><time>2026-04-12T08:32:15.426Z</time></trkpt><trkpt lat="43.152815" lon="13.2203983"><ele>269.5</ele><time>2026-04-12T08:32:16.425Z</time></trkpt><trkpt lat="43.1527" lon="13.220265"><ele>271.0</ele><time>2026-04-12T08:32:17.428Z</time></trkpt><trkpt lat="43.15258" lon="13.2201467"><ele>272.5</ele><time>2026-04-12T08:32:18.427Z</time></trkpt><trkpt lat="43.1524517" lon="13.220055"><ele>274.0</ele><time>2026-04-12T08:32:19.427Z</time></trkpt><trkpt lat="43.15231" lon="13.2199883"><ele>274.0</ele><time>2026-04-12T08:32:20.428Z</time></trkpt><trkpt lat="43.1521583" lon="13.219935"><ele>274.0</ele><time>2026-04-12T08:32:21.427Z</time></trkpt><trkpt lat="43.151995" lon="13.21989"><ele>274.0</ele><time>2026-04-12T08:32:22.427Z</time></trkpt><trkpt lat="43.1518317" lon="13.219835"><ele>273.66666666666663</ele><time>2026-04-12T08:32:23.428Z</time></trkpt><trkpt lat="43.1516683" lon="13.21976"><ele>273.3333333333333</ele><time>2026-04-12T08:32:24.435Z</time></trkpt><trkpt lat="43.1515117" lon="13.2196717"><ele>273.0</ele><time>2026-04-12T08:32:25.43Z</time></trkpt><trkpt lat="43.1513583" lon="13.21958"><ele>273.0</ele><time>2026-04-12T08:32:26.431Z</time></trkpt><trkpt lat="43.1512033" lon="13.2194933"><ele>273.0</ele><time>2026-04-12T08:32:27.431Z</time></trkpt><trkpt lat="43.1510517" lon="13.2194"><ele>273.0</ele><time>2026-04-12T08:32:28.427Z</time></trkpt><trkpt lat="43.1509017" lon="13.2192833"><ele>273.0</ele><time>2026-04-12T08:32:29.429Z</time></trkpt><trkpt lat="43.1507633" lon="13.219145"><ele>273.0</ele><time>2026-04-12T08:32:30.43Z</time></trkpt><trkpt lat="43.150635" lon="13.21899"><ele>273.0</ele><time>2026-04-12T08:32:31.428Z</time></trkpt><trkpt lat="43.1505317" lon="13.2188017"><ele>271.3333333333333</ele><time>2026-04-12T08:32:32.431Z</time></trkpt><trkpt lat="43.15045" lon="13.218595"><ele>269.66666666666663</ele><time>2026-04-12T08:32:33.428Z</time></trkpt><trkpt lat="43.1503983" lon="13.218365"><ele>268.0</ele><time>2026-04-12T08:32:34.428Z</time></trkpt><trkpt lat="43.15036" lon="13.218135"><ele>268.0</ele><time>2026-04-12T08:32:35.43Z</time></trkpt><trkpt lat="43.1503233" lon="13.2179083"><ele>268.0</ele><time>2026-04-12T08:32:36.427Z</time></trkpt><trkpt lat="43.1502833" lon="13.21768"><ele>268.0</ele><time>2026-04-12T08:32:37.428Z</time></trkpt><trkpt lat="43.1502417" lon="13.21745"><ele>270.3333333333333</ele><time>2026-04-12T08:32:38.429Z</time></trkpt><trkpt lat="43.1502" lon="13.2172183"><ele>272.6666666666667</ele><time>2026-04-12T08:32:39.429Z</time></trkpt><trkpt lat="43.1501583" lon="13.2169817"><ele>275.0</ele><time>2026-04-12T08:32:40.428Z</time></trkpt><trkpt lat="43.1501167" lon="13.216745"><ele>275.0</ele><time>2026-04-12T08:32:41.431Z</time></trkpt><trkpt lat="43.1500717" lon="13.2165067"><ele>275.0</ele><time>2026-04-12T08:32:42.43Z</time></trkpt><trkpt lat="43.1500267" lon="13.2162633"><ele>275.0</ele><time>2026-04-12T08:32:43.431Z</time></trkpt><trkpt lat="43.1499817" lon="13.2160167"><ele>275.0</ele><time>2026-04-12T08:32:44.43Z</time></trkpt><trkpt lat="43.14994" lon="13.2157717"><ele>275.0</ele><time>2026-04-12T08:32:45.429Z</time></trkpt><trkpt lat="43.149895" lon="13.2155283"><ele>275.0</ele><time>2026-04-12T08:32:46.428Z</time></trkpt><trkpt lat="43.1498483" lon="13.215285"><ele>275.0</ele><time>2026-04-12T08:32:47.429Z</time></trkpt><trkpt lat="43.1498" lon="13.2150433"><ele>275.0</ele><time>2026-04-12T08:32:48.429Z</time></trkpt><trkpt lat="43.149755" lon="13.2148083"><ele>275.0</ele><time>2026-04-12T08:32:49.427Z</time></trkpt><trkpt lat="43.14971" lon="13.21458"><ele>275.6666666666667</ele><time>2026-04-12T08:32:50.427Z</time></trkpt><trkpt lat="43.149665" lon="13.2143567"><ele>276.3333333333333</ele><time>2026-04-12T08:32:51.428Z</time></trkpt><trkpt lat="43.1496317" lon="13.214135"><ele>277.0</ele><time>2026-04-12T08:32:52.429Z</time></trkpt><trkpt lat="43.1496" lon="13.2139267"><ele>277.25</ele><time>2026-04-12T08:32:53.431Z</time></trkpt><trkpt lat="43.1495667" lon="13.2137317"><ele>277.5</ele><time>2026-04-12T08:32:54.43Z</time></trkpt><trkpt lat="43.1495233" lon="13.213545"><ele>277.75</ele><time>2026-04-12T08:32:55.429Z</time></trkpt><trkpt lat="43.149465" lon="13.213365"><ele>278.0</ele><time>2026-04-12T08:32:56.431Z</time></trkpt><trkpt lat="43.14939" lon="13.2131933"><ele>279.33333333333337</ele><time>2026-04-12T08:32:57.428Z</time></trkpt><trkpt lat="43.1493" lon="13.2130317"><ele>280.6666666666667</ele><time>2026-04-12T08:32:58.429Z</time></trkpt><trkpt lat="43.1492033" lon="13.2128717"><ele>282.0</ele><time>2026-04-12T08:32:59.432Z</time></trkpt><trkpt lat="43.1491067" lon="13.21271"><ele>281.6666666666667</ele><time>2026-04-12T08:33:00.428Z</time></trkpt><trkpt lat="43.1490067" lon="13.2125433"><ele>281.33333333333337</ele><time>2026-04-12T08:33:01.428Z</time></trkpt><trkpt lat="43.1489033" lon="13.21238"><ele>281.0</ele><time>2026-04-12T08:33:02.432Z</time></trkpt><trkpt lat="43.1487933" lon="13.21222"><ele>281.0</ele><time>2026-04-12T08:33:03.429Z</time></trkpt><trkpt lat="43.14868" lon="13.212075"><ele>281.0</ele><time>2026-04-12T08:33:04.429Z</time></trkpt><trkpt lat="43.1485583" lon="13.2119433"><ele>281.0</ele><time>2026-04-12T08:33:05.428Z</time></trkpt><trkpt lat="43.148435" lon="13.211815"><ele>281.0</ele><time>2026-04-12T08:33:06.43Z</time></trkpt><trkpt lat="43.148315" lon="13.2116917"><ele>281.0</ele><time>2026-04-12T08:33:07.428Z</time></trkpt><trkpt lat="43.1481983" lon="13.2115683"><ele>281.0</ele><time>2026-04-12T08:33:08.428Z</time></trkpt><trkpt lat="43.1480867" lon="13.211435"><ele>281.0</ele><time>2026-04-12T08:33:09.431Z</time></trkpt><trkpt lat="43.14798" lon="13.211295"><ele>280.6666666666667</ele><time>2026-04-12T08:33:10.429Z</time></trkpt><trkpt lat="43.1478767" lon="13.2111417"><ele>280.3333333333333</ele><time>2026-04-12T08:33:11.429Z</time></trkpt><trkpt lat="43.147775" lon="13.2109817"><ele>280.0</ele><time>2026-04-12T08:33:12.428Z</time></trkpt><trkpt lat="43.1476817" lon="13.2108183"><ele>281.25</ele><time>2026-04-12T08:33:13.429Z</time></trkpt><trkpt lat="43.1475983" lon="13.210655"><ele>282.5</ele><time>2026-04-12T08:33:14.433Z</time></trkpt><trkpt lat="43.14752" lon="13.2104917"><ele>283.75</ele><time>2026-04-12T08:33:15.427Z</time></trkpt><trkpt lat="43.147445" lon="13.2103317"><ele>285.0</ele><time>2026-04-12T08:33:16.429Z</time></trkpt><trkpt lat="43.1473783" lon="13.2101733"><ele>284.5</ele><time>2026-04-12T08:33:17.429Z</time></trkpt><trkpt lat="43.1473217" lon="13.2100233"><ele>284.0</ele><time>2026-04-12T08:33:18.441Z</time></trkpt><trkpt lat="43.1472683" lon="13.2098817"><ele>283.5</ele><time>2026-04-12T08:33:19.43Z</time></trkpt><trkpt lat="43.147215" lon="13.2097433"><ele>283.0</ele><time>2026-04-12T08:33:20.431Z</time></trkpt><trkpt lat="43.1471633" lon="13.209615"><ele>283.0</ele><time>2026-04-12T08:33:21.428Z</time></trkpt><trkpt lat="43.1471083" lon="13.20948"><ele>283.0</ele><time>2026-04-12T08:33:22.43Z</time></trkpt><trkpt lat="43.1470617" lon="13.209345"><ele>283.0</ele><time>2026-04-12T08:33:23.426Z</time></trkpt><trkpt lat="43.1470183" lon="13.209215"><ele>283.0</ele><time>2026-04-12T08:33:24.429Z</time></trkpt><trkpt lat="43.146975" lon="13.209095"><ele>283.0</ele><time>2026-04-12T08:33:25.429Z</time></trkpt><trkpt lat="43.146935" lon="13.2089817"><ele>284.16666666666663</ele><time>2026-04-12T08:33:26.429Z</time></trkpt><trkpt lat="43.1468967" lon="13.2088733"><ele>285.3333333333333</ele><time>2026-04-12T08:33:27.431Z</time></trkpt><trkpt lat="43.1468617" lon="13.20877"><ele>286.5</ele><time>2026-04-12T08:33:28.426Z</time></trkpt><trkpt lat="43.1468317" lon="13.2086717"><ele>287.6666666666667</ele><time>2026-04-12T08:33:29.43Z</time></trkpt><trkpt lat="43.1468017" lon="13.2085833"><ele>288.83333333333337</ele><time>2026-04-12T08:33:30.428Z</time></trkpt><trkpt lat="43.1467583" lon="13.20846"><ele>290.0</ele><time>2026-04-12T08:33:32.428Z</time></trkpt><trkpt lat="43.1467033" lon="13.208335"><ele>290.0</ele><time>2026-04-12T08:33:34.429Z</time></trkpt><trkpt lat="43.1466717" lon="13.20825"><ele>290.0</ele><time>2026-04-12T08:33:35.43Z</time></trkpt><trkpt lat="43.1466383" lon="13.20816"><ele>290.0</ele><time>2026-04-12T08:33:36.432Z</time></trkpt><trkpt lat="43.1466067" lon="13.2080817"><ele>290.0</ele><time>2026-04-12T08:33:37.43Z</time></trkpt><trkpt lat="43.146565" lon="13.207985"><ele>290.0</ele><time>2026-04-12T08:33:39.43Z</time></trkpt><trkpt lat="43.146535" lon="13.2078783"><ele>290.0</ele><time>2026-04-12T08:33:44.431Z</time></trkpt><trkpt lat="43.1464767" lon="13.2077683"><ele>290.0</ele><time>2026-04-12T08:33:47.429Z</time></trkpt><trkpt lat="43.1464267" lon="13.207605"><ele>290.0</ele><time>2026-04-12T08:33:49.43Z</time></trkpt><trkpt lat="43.1463917" lon="13.2075033"><ele>290.0</ele><time>2026-04-12T08:33:50.431Z</time></trkpt><trkpt lat="43.1463617" lon="13.2074067"><ele>290.0</ele><time>2026-04-12T08:33:51.429Z</time></trkpt><trkpt lat="43.1463317" lon="13.2072967"><ele>290.0</ele><time>2026-04-12T08:33:52.43Z</time></trkpt><trkpt lat="43.146305" lon="13.2071533"><ele>290.0</ele><time>2026-04-12T08:33:53.429Z</time></trkpt><trkpt lat="43.146285" lon="13.2069917"><ele>290.0</ele><time>2026-04-12T08:33:54.427Z</time></trkpt><trkpt lat="43.14628" lon="13.2068217"><ele>290.0</ele><time>2026-04-12T08:33:55.432Z</time></trkpt><trkpt lat="43.1462867" lon="13.2066633"><ele>290.0</ele><time>2026-04-12T08:33:56.431Z</time></trkpt><trkpt lat="43.1463033" lon="13.2065183"><ele>289.2</ele><time>2026-04-12T08:33:57.429Z</time></trkpt><trkpt lat="43.146325" lon="13.2063817"><ele>288.4</ele><time>2026-04-12T08:33:58.432Z</time></trkpt><trkpt lat="43.1463567" lon="13.2062417"><ele>287.6</ele><time>2026-04-12T08:33:59.429Z</time></trkpt><trkpt lat="43.1464033" lon="13.2060967"><ele>286.8</ele><time>2026-04-12T08:34:00.436Z</time></trkpt><trkpt lat="43.1464667" lon="13.2059517"><ele>286.0</ele><time>2026-04-12T08:34:01.43Z</time></trkpt><trkpt lat="43.1465433" lon="13.2057983"><ele>288.75</ele><time>2026-04-12T08:34:02.431Z</time></trkpt><trkpt lat="43.146625" lon="13.205635"><ele>291.5</ele><time>2026-04-12T08:34:03.429Z</time></trkpt><trkpt lat="43.1467083" lon="13.20547"><ele>294.25</ele><time>2026-04-12T08:34:04.428Z</time></trkpt><trkpt lat="43.1467817" lon="13.205295"><ele>297.0</ele><time>2026-04-12T08:34:05.434Z</time></trkpt><trkpt lat="43.1468417" lon="13.20511"><ele>297.0</ele><time>2026-04-12T08:34:06.428Z</time></trkpt><trkpt lat="43.1468817" lon="13.2049183"><ele>297.0</ele><time>2026-04-12T08:34:07.431Z</time></trkpt><trkpt lat="43.1469033" lon="13.2047233"><ele>297.0</ele><time>2026-04-12T08:34:08.429Z</time></trkpt><trkpt lat="43.1469067" lon="13.204525"><ele>297.0</ele><time>2026-04-12T08:34:09.431Z</time></trkpt><trkpt lat="43.1468983" lon="13.20432"><ele>298.0</ele><time>2026-04-12T08:34:10.43Z</time></trkpt><trkpt lat="43.1468833" lon="13.2041183"><ele>299.0</ele><time>2026-04-12T08:34:11.429Z</time></trkpt><trkpt lat="43.14687" lon="13.2039133"><ele>300.0</ele><time>2026-04-12T08:34:12.431Z</time></trkpt><trkpt lat="43.1468617" lon="13.203705"><ele>300.0</ele><time>2026-04-12T08:34:13.427Z</time></trkpt><trkpt lat="43.146855" lon="13.2034933"><ele>300.0</ele><time>2026-04-12T08:34:14.435Z</time></trkpt><trkpt lat="43.14685" lon="13.2032883"><ele>300.0</ele><time>2026-04-12T08:34:15.429Z</time></trkpt><trkpt lat="43.1468483" lon="13.2030833"><ele>300.6666666666667</ele><time>2026-04-12T08:34:16.431Z</time></trkpt><trkpt lat="43.146845" lon="13.20287"><ele>301.33333333333337</ele><time>2026-04-12T08:34:17.428Z</time></trkpt><trkpt lat="43.14684" lon="13.202655"><ele>302.0</ele><time>2026-04-12T08:34:18.43Z</time></trkpt><trkpt lat="43.1468333" lon="13.202435"><ele>303.0</ele><time>2026-04-12T08:34:19.429Z</time></trkpt><trkpt lat="43.1468267" lon="13.20221"><ele>304.0</ele><time>2026-04-12T08:34:20.424Z</time></trkpt><trkpt lat="43.1468167" lon="13.201985"><ele>305.0</ele><time>2026-04-12T08:34:21.424Z</time></trkpt><trkpt lat="43.1468083" lon="13.201765"><ele>305.0</ele><time>2026-04-12T08:34:22.43Z</time></trkpt><trkpt lat="43.1467967" lon="13.2015433"><ele>305.0</ele><time>2026-04-12T08:34:23.428Z</time></trkpt><trkpt lat="43.1467767" lon="13.2013133"><ele>305.0</ele><time>2026-04-12T08:34:24.43Z</time></trkpt><trkpt lat="43.1467483" lon="13.2010883"><ele>306.6666666666667</ele><time>2026-04-12T08:34:25.427Z</time></trkpt><trkpt lat="43.1467083" lon="13.2008733"><ele>308.3333333333333</ele><time>2026-04-12T08:34:26.436Z</time></trkpt><trkpt lat="43.1466533" lon="13.20066"><ele>310.0</ele><time>2026-04-12T08:34:27.434Z</time></trkpt><trkpt lat="43.146585" lon="13.20045"><ele>307.66666666666663</ele><time>2026-04-12T08:34:28.43Z</time></trkpt><trkpt lat="43.14651" lon="13.2002517"><ele>305.3333333333333</ele><time>2026-04-12T08:34:29.429Z</time></trkpt><trkpt lat="43.1464283" lon="13.2000683"><ele>303.0</ele><time>2026-04-12T08:34:30.428Z</time></trkpt><trkpt lat="43.14634" lon="13.19991"><ele>303.25</ele><time>2026-04-12T08:34:31.431Z</time></trkpt><trkpt lat="43.1462417" lon="13.1997717"><ele>303.5</ele><time>2026-04-12T08:34:32.431Z</time></trkpt><trkpt lat="43.146135" lon="13.1996533"><ele>303.75</ele><time>2026-04-12T08:34:33.428Z</time></trkpt><trkpt lat="43.1460283" lon="13.1995383"><ele>304.0</ele><time>2026-04-12T08:34:34.429Z</time></trkpt><trkpt lat="43.1459317" lon="13.199425"><ele>304.0</ele><time>2026-04-12T08:34:35.43Z</time></trkpt><trkpt lat="43.145845" lon="13.199315"><ele>304.0</ele><time>2026-04-12T08:34:36.43Z</time></trkpt><trkpt lat="43.1457833" lon="13.1991967"><ele>304.0</ele><time>2026-04-12T08:34:37.431Z</time></trkpt><trkpt lat="43.145755" lon="13.1990667"><ele>304.0</ele><time>2026-04-12T08:34:38.429Z</time></trkpt><trkpt lat="43.1457533" lon="13.1989367"><ele>304.0</ele><time>2026-04-12T08:34:39.431Z</time></trkpt><trkpt lat="43.1457967" lon="13.1988217"><ele>304.66666666666663</ele><time>2026-04-12T08:34:40.428Z</time></trkpt><trkpt lat="43.1458567" lon="13.1987267"><ele>305.3333333333333</ele><time>2026-04-12T08:34:41.431Z</time></trkpt><trkpt lat="43.1459167" lon="13.19864"><ele>306.0</ele><time>2026-04-12T08:34:42.432Z</time></trkpt><trkpt lat="43.145975" lon="13.1985567"><ele>306.6666666666667</ele><time>2026-04-12T08:34:43.43Z</time></trkpt><trkpt lat="43.146035" lon="13.1985"><ele>307.33333333333337</ele><time>2026-04-12T08:34:44.431Z</time></trkpt><trkpt lat="43.1461033" lon="13.19849"><ele>308.0</ele><time>2026-04-12T08:34:45.429Z</time></trkpt><trkpt lat="43.1461833" lon="13.1983933"><ele>308.0</ele><time>2026-04-12T08:34:47.427Z</time></trkpt><trkpt lat="43.146125" lon="13.1981933"><ele>308.0</ele><time>2026-04-12T08:34:49.429Z</time></trkpt><trkpt lat="43.14604" lon="13.1980717"><ele>308.0</ele><time>2026-04-12T08:34:50.43Z</time></trkpt><trkpt lat="43.1459383" lon="13.1979533"><ele>308.0</ele><time>2026-04-12T08:34:51.429Z</time></trkpt><trkpt lat="43.145825" lon="13.19784"><ele>305.33333333333337</ele><time>2026-04-12T08:34:52.428Z</time></trkpt><trkpt lat="43.14571" lon="13.1977133"><ele>302.6666666666667</ele><time>2026-04-12T08:34:53.432Z</time></trkpt><trkpt lat="43.1456033" lon="13.1975733"><ele>300.0</ele><time>2026-04-12T08:34:54.432Z</time></trkpt><trkpt lat="43.1455133" lon="13.197385"><ele>300.0</ele><time>2026-04-12T08:34:55.43Z</time></trkpt><trkpt lat="43.145435" lon="13.197175"><ele>300.0</ele><time>2026-04-12T08:34:56.431Z</time></trkpt><trkpt lat="43.1453683" lon="13.1969483"><ele>300.0</ele><time>2026-04-12T08:34:57.429Z</time></trkpt><trkpt lat="43.145305" lon="13.1967067"><ele>301.3333333333333</ele><time>2026-04-12T08:34:58.431Z</time></trkpt><trkpt lat="43.1452517" lon="13.196455"><ele>302.66666666666663</ele><time>2026-04-12T08:34:59.43Z</time></trkpt><trkpt lat="43.1452033" lon="13.1961933"><ele>304.0</ele><time>2026-04-12T08:35:00.434Z</time></trkpt><trkpt lat="43.14516" lon="13.1959217"><ele>306.66666666666663</ele><time>2026-04-12T08:35:01.43Z</time></trkpt><trkpt lat="43.145125" lon="13.195645"><ele>309.3333333333333</ele><time>2026-04-12T08:35:02.431Z</time></trkpt><trkpt lat="43.1450867" lon="13.19537"><ele>312.0</ele><time>2026-04-12T08:35:03.43Z</time></trkpt><trkpt lat="43.1450467" lon="13.195095"><ele>315.6666666666667</ele><time>2026-04-12T08:35:04.428Z</time></trkpt><trkpt lat="43.1450083" lon="13.1948217"><ele>319.33333333333337</ele><time>2026-04-12T08:35:05.43Z</time></trkpt><trkpt lat="43.1449683" lon="13.1945533"><ele>323.0</ele><time>2026-04-12T08:35:06.433Z</time></trkpt><trkpt lat="43.1449283" lon="13.19428"><ele>323.0</ele><time>2026-04-12T08:35:07.427Z</time></trkpt><trkpt lat="43.1448933" lon="13.194005"><ele>323.0</ele><time>2026-04-12T08:35:08.43Z</time></trkpt><trkpt lat="43.1448567" lon="13.1937283"><ele>323.0</ele><time>2026-04-12T08:35:09.428Z</time></trkpt><trkpt lat="43.1448117" lon="13.1934617"><ele>318.0</ele><time>2026-04-12T08:35:10.43Z</time></trkpt><trkpt lat="43.1447483" lon="13.1932083"><ele>313.0</ele><time>2026-04-12T08:35:11.429Z</time></trkpt><trkpt lat="43.14469" lon="13.1929583"><ele>308.0</ele><time>2026-04-12T08:35:12.43Z</time></trkpt><trkpt lat="43.1446483" lon="13.1926883"><ele>308.0</ele><time>2026-04-12T08:35:13.427Z</time></trkpt><trkpt lat="43.1446417" lon="13.1924117"><ele>308.0</ele><time>2026-04-12T08:35:14.43Z</time></trkpt><trkpt lat="43.1446133" lon="13.192135"><ele>308.0</ele><time>2026-04-12T08:35:15.43Z</time></trkpt><trkpt lat="43.1445883" lon="13.1918567"><ele>308.0</ele><time>2026-04-12T08:35:16.428Z</time></trkpt><trkpt lat="43.1445517" lon="13.191585"><ele>308.0</ele><time>2026-04-12T08:35:17.432Z</time></trkpt><trkpt lat="43.1445183" lon="13.1913167"><ele>308.0</ele><time>2026-04-12T08:35:18.432Z</time></trkpt><trkpt lat="43.1444783" lon="13.191045"><ele>308.0</ele><time>2026-04-12T08:35:19.43Z</time></trkpt><trkpt lat="43.1444417" lon="13.19078"><ele>308.0</ele><time>2026-04-12T08:35:20.431Z</time></trkpt><trkpt lat="43.1444" lon="13.190515"><ele>308.0</ele><time>2026-04-12T08:35:21.43Z</time></trkpt><trkpt lat="43.144355" lon="13.190255"><ele>308.6666666666667</ele><time>2026-04-12T08:35:22.43Z</time></trkpt><trkpt lat="43.1443" lon="13.1899967"><ele>309.3333333333333</ele><time>2026-04-12T08:35:23.428Z</time></trkpt><trkpt lat="43.1442367" lon="13.18974"><ele>310.0</ele><time>2026-04-12T08:35:24.431Z</time></trkpt><trkpt lat="43.14417" lon="13.189485"><ele>310.66666666666663</ele><time>2026-04-12T08:35:25.43Z</time></trkpt><trkpt lat="43.1440917" lon="13.189235"><ele>311.3333333333333</ele><time>2026-04-12T08:35:26.43Z</time></trkpt><trkpt lat="43.1440083" lon="13.1889883"><ele>312.0</ele><time>2026-04-12T08:35:27.431Z</time></trkpt><trkpt lat="43.1439133" lon="13.18875"><ele>312.0</ele><time>2026-04-12T08:35:28.43Z</time></trkpt><trkpt lat="43.14381" lon="13.188525"><ele>312.0</ele><time>2026-04-12T08:35:29.429Z</time></trkpt><trkpt lat="43.143695" lon="13.1883033"><ele>312.0</ele><time>2026-04-12T08:35:30.433Z</time></trkpt><trkpt lat="43.1435733" lon="13.1880883"><ele>312.6666666666667</ele><time>2026-04-12T08:35:31.431Z</time></trkpt><trkpt lat="43.143455" lon="13.1878717"><ele>313.33333333333337</ele><time>2026-04-12T08:35:32.431Z</time></trkpt><trkpt lat="43.1433317" lon="13.1876633"><ele>314.0</ele><time>2026-04-12T08:35:33.431Z</time></trkpt><trkpt lat="43.1432083" lon="13.18746"><ele>311.0</ele><time>2026-04-12T08:35:34.428Z</time></trkpt><trkpt lat="43.1430883" lon="13.18725"><ele>308.0</ele><time>2026-04-12T08:35:35.431Z</time></trkpt><trkpt lat="43.1429733" lon="13.1870383"><ele>305.0</ele><time>2026-04-12T08:35:36.427Z</time></trkpt><trkpt lat="43.1428583" lon="13.186825"><ele>305.0</ele><time>2026-04-12T08:35:37.43Z</time></trkpt><trkpt lat="43.1427383" lon="13.1866117"><ele>305.0</ele><time>2026-04-12T08:35:38.431Z</time></trkpt><trkpt lat="43.1426133" lon="13.1863967"><ele>305.0</ele><time>2026-04-12T08:35:39.431Z</time></trkpt><trkpt lat="43.14249" lon="13.186175"><ele>305.6666666666667</ele><time>2026-04-12T08:35:40.426Z</time></trkpt><trkpt lat="43.1423683" lon="13.18595"><ele>306.3333333333333</ele><time>2026-04-12T08:35:41.428Z</time></trkpt><trkpt lat="43.1422517" lon="13.18572"><ele>307.0</ele><time>2026-04-12T08:35:42.434Z</time></trkpt><trkpt lat="43.1421383" lon="13.185485"><ele>307.0</ele><time>2026-04-12T08:35:43.431Z</time></trkpt><trkpt lat="43.14203" lon="13.1852467"><ele>307.0</ele><time>2026-04-12T08:35:44.432Z</time></trkpt><trkpt lat="43.1419283" lon="13.1850033"><ele>307.0</ele><time>2026-04-12T08:35:45.43Z</time></trkpt><trkpt lat="43.1418283" lon="13.1847583"><ele>311.3333333333333</ele><time>2026-04-12T08:35:46.43Z</time></trkpt><trkpt lat="43.141735" lon="13.18451"><ele>315.6666666666667</ele><time>2026-04-12T08:35:47.43Z</time></trkpt><trkpt lat="43.1416433" lon="13.18426"><ele>320.0</ele><time>2026-04-12T08:35:48.429Z</time></trkpt><trkpt lat="43.141555" lon="13.1840067"><ele>313.6666666666667</ele><time>2026-04-12T08:35:49.427Z</time></trkpt><trkpt lat="43.14147" lon="13.1837517"><ele>307.3333333333333</ele><time>2026-04-12T08:35:50.431Z</time></trkpt><trkpt lat="43.141395" lon="13.1834967"><ele>301.0</ele><time>2026-04-12T08:35:51.432Z</time></trkpt><trkpt lat="43.1413233" lon="13.1832383"><ele>303.3333333333333</ele><time>2026-04-12T08:35:52.427Z</time></trkpt><trkpt lat="43.1412567" lon="13.1829767"><ele>305.6666666666667</ele><time>2026-04-12T08:35:53.428Z</time></trkpt><trkpt lat="43.1411933" lon="13.182715"><ele>308.0</ele><time>2026-04-12T08:35:54.432Z</time></trkpt><trkpt lat="43.14113" lon="13.1824533"><ele>311.33333333333337</ele><time>2026-04-12T08:35:55.433Z</time></trkpt><trkpt lat="43.1410717" lon="13.1821867"><ele>314.6666666666667</ele><time>2026-04-12T08:35:56.432Z</time></trkpt><trkpt lat="43.1410167" lon="13.1819183"><ele>318.0</ele><time>2026-04-12T08:35:57.431Z</time></trkpt><trkpt lat="43.1409633" lon="13.1816467"><ele>320.6666666666667</ele><time>2026-04-12T08:35:58.43Z</time></trkpt><trkpt lat="43.140915" lon="13.1813733"><ele>323.33333333333337</ele><time>2026-04-12T08:35:59.429Z</time></trkpt><trkpt lat="43.1408667" lon="13.1810983"><ele>326.0</ele><time>2026-04-12T08:36:00.431Z</time></trkpt><trkpt lat="43.1408167" lon="13.1808217"><ele>327.0</ele><time>2026-04-12T08:36:01.431Z</time></trkpt><trkpt lat="43.1407717" lon="13.18055"><ele>328.0</ele><time>2026-04-12T08:36:02.431Z</time></trkpt><trkpt lat="43.1407217" lon="13.1802783"><ele>329.0</ele><time>2026-04-12T08:36:03.431Z</time></trkpt><trkpt lat="43.14067" lon="13.1800067"><ele>322.33333333333337</ele><time>2026-04-12T08:36:04.43Z</time></trkpt><trkpt lat="43.1406233" lon="13.1797383"><ele>315.6666666666667</ele><time>2026-04-12T08:36:05.429Z</time></trkpt><trkpt lat="43.140575" lon="13.179475"><ele>309.0</ele><time>2026-04-12T08:36:06.43Z</time></trkpt><trkpt lat="43.1405283" lon="13.1792217"><ele>310.6666666666667</ele><time>2026-04-12T08:36:07.432Z</time></trkpt><trkpt lat="43.1404667" lon="13.1789683"><ele>312.33333333333337</ele><time>2026-04-12T08:36:08.43Z</time></trkpt><trkpt lat="43.1403867" lon="13.1787233"><ele>314.0</ele><time>2026-04-12T08:36:09.431Z</time></trkpt><trkpt lat="43.14029" lon="13.178485"><ele>314.0</ele><time>2026-04-12T08:36:10.429Z</time></trkpt><trkpt lat="43.1401933" lon="13.1782567"><ele>314.0</ele><time>2026-04-12T08:36:11.431Z</time></trkpt><trkpt lat="43.1400733" lon="13.178045"><ele>314.0</ele><time>2026-04-12T08:36:12.428Z</time></trkpt><trkpt lat="43.13993" lon="13.1778333"><ele>310.6666666666667</ele><time>2026-04-12T08:36:13.431Z</time></trkpt><trkpt lat="43.1397917" lon="13.177615"><ele>307.3333333333333</ele><time>2026-04-12T08:36:14.43Z</time></trkpt><trkpt lat="43.13967" lon="13.1773933"><ele>304.0</ele><time>2026-04-12T08:36:15.433Z</time></trkpt><trkpt lat="43.1395633" lon="13.1771533"><ele>304.0</ele><time>2026-04-12T08:36:16.432Z</time></trkpt><trkpt lat="43.1394667" lon="13.1769017"><ele>304.0</ele><time>2026-04-12T08:36:17.429Z</time></trkpt><trkpt lat="43.13938" lon="13.1766483"><ele>304.0</ele><time>2026-04-12T08:36:18.433Z</time></trkpt><trkpt lat="43.1393" lon="13.1763967"><ele>305.0</ele><time>2026-04-12T08:36:19.431Z</time></trkpt><trkpt lat="43.1392233" lon="13.1761483"><ele>306.0</ele><time>2026-04-12T08:36:20.432Z</time></trkpt><trkpt lat="43.1391417" lon="13.1759067"><ele>307.0</ele><time>2026-04-12T08:36:21.43Z</time></trkpt><trkpt lat="43.13904" lon="13.175695"><ele>306.0</ele><time>2026-04-12T08:36:22.432Z</time></trkpt><trkpt lat="43.1389267" lon="13.1755133"><ele>305.0</ele><time>2026-04-12T08:36:23.43Z</time></trkpt><trkpt lat="43.138825" lon="13.17534"><ele>304.0</ele><time>2026-04-12T08:36:24.428Z</time></trkpt><trkpt lat="43.1387467" lon="13.1751683"><ele>304.0</ele><time>2026-04-12T08:36:25.429Z</time></trkpt><trkpt lat="43.1386967" lon="13.1749883"><ele>304.0</ele><time>2026-04-12T08:36:26.43Z</time></trkpt><trkpt lat="43.1386667" lon="13.1747917"><ele>304.0</ele><time>2026-04-12T08:36:27.43Z</time></trkpt><trkpt lat="43.1386517" lon="13.1745817"><ele>304.0</ele><time>2026-04-12T08:36:28.429Z</time></trkpt><trkpt lat="43.1386417" lon="13.1743767"><ele>304.25</ele><time>2026-04-12T08:36:29.43Z</time></trkpt><trkpt lat="43.1386333" lon="13.1741817"><ele>304.5</ele><time>2026-04-12T08:36:30.426Z</time></trkpt><trkpt lat="43.1386233" lon="13.1740017"><ele>304.75</ele><time>2026-04-12T08:36:31.427Z</time></trkpt><trkpt lat="43.1386133" lon="13.1738483"><ele>305.0</ele><time>2026-04-12T08:36:32.431Z</time></trkpt><trkpt lat="43.1386017" lon="13.173715"><ele>305.0</ele><time>2026-04-12T08:36:33.432Z</time></trkpt><trkpt lat="43.1385917" lon="13.1735967"><ele>305.0</ele><time>2026-04-12T08:36:34.428Z</time></trkpt><trkpt lat="43.1385867" lon="13.173495"><ele>305.0</ele><time>2026-04-12T08:36:35.429Z</time></trkpt><trkpt lat="43.138585" lon="13.1733383"><ele>305.0</ele><time>2026-04-12T08:36:37.428Z</time></trkpt><trkpt lat="43.1385833" lon="13.1732267"><ele>305.0</ele><time>2026-04-12T08:36:39.43Z</time></trkpt><trkpt lat="43.13858" lon="13.1731333"><ele>305.0</ele><time>2026-04-12T08:36:42.429Z</time></trkpt><trkpt lat="43.1385633" lon="13.1730333"><ele>305.33333333333337</ele><time>2026-04-12T08:37:57.43Z</time></trkpt><trkpt lat="43.1385617" lon="13.17294"><ele>305.6666666666667</ele><time>2026-04-12T08:37:58.433Z</time></trkpt><trkpt lat="43.13856" lon="13.1728383"><ele>306.0</ele><time>2026-04-12T08:37:59.429Z</time></trkpt><trkpt lat="43.1385617" lon="13.172725"><ele>306.3333333333333</ele><time>2026-04-12T08:38:00.429Z</time></trkpt><trkpt lat="43.1385667" lon="13.1726017"><ele>306.66666666666663</ele><time>2026-04-12T08:38:01.429Z</time></trkpt><trkpt lat="43.1385733" lon="13.1724667"><ele>307.0</ele><time>2026-04-12T08:38:02.429Z</time></trkpt><trkpt lat="43.1385867" lon="13.1723267"><ele>307.0</ele><time>2026-04-12T08:38:03.43Z</time></trkpt><trkpt lat="43.1385967" lon="13.17218"><ele>307.0</ele><time>2026-04-12T08:38:04.433Z</time></trkpt><trkpt lat="43.1385983" lon="13.1720367"><ele>307.0</ele><time>2026-04-12T08:38:05.43Z</time></trkpt><trkpt lat="43.1386" lon="13.17189"><ele>307.0</ele><time>2026-04-12T08:38:06.431Z</time></trkpt><trkpt lat="43.1386017" lon="13.1717433"><ele>307.0</ele><time>2026-04-12T08:38:07.43Z</time></trkpt><trkpt lat="43.138605" lon="13.1715933"><ele>308.0</ele><time>2026-04-12T08:38:08.433Z</time></trkpt><trkpt lat="43.1385983" lon="13.1714417"><ele>309.0</ele><time>2026-04-12T08:38:09.43Z</time></trkpt><trkpt lat="43.13858" lon="13.17129"><ele>310.0</ele><time>2026-04-12T08:38:10.429Z</time></trkpt><trkpt lat="43.138555" lon="13.1711383"><ele>311.0</ele><time>2026-04-12T08:38:11.432Z</time></trkpt><trkpt lat="43.1385283" lon="13.1709867"><ele>311.0</ele><time>2026-04-12T08:38:12.427Z</time></trkpt><trkpt lat="43.1384933" lon="13.1708233"><ele>311.0</ele><time>2026-04-12T08:38:13.43Z</time></trkpt><trkpt lat="43.1384617" lon="13.1706533"><ele>311.0</ele><time>2026-04-12T08:38:14.431Z</time></trkpt><trkpt lat="43.1384283" lon="13.170475"><ele>311.0</ele><time>2026-04-12T08:38:15.428Z</time></trkpt><trkpt lat="43.1383917" lon="13.1702983"><ele>311.25</ele><time>2026-04-12T08:38:16.43Z</time></trkpt><trkpt lat="43.138355" lon="13.1701233"><ele>311.5</ele><time>2026-04-12T08:38:17.431Z</time></trkpt><trkpt lat="43.1383217" lon="13.16994"><ele>311.75</ele><time>2026-04-12T08:38:18.431Z</time></trkpt><trkpt lat="43.138285" lon="13.16975"><ele>312.0</ele><time>2026-04-12T08:38:19.431Z</time></trkpt><trkpt lat="43.1382417" lon="13.1695517"><ele>311.3333333333333</ele><time>2026-04-12T08:38:20.434Z</time></trkpt><trkpt lat="43.1382" lon="13.16934"><ele>310.66666666666663</ele><time>2026-04-12T08:38:21.43Z</time></trkpt><trkpt lat="43.1381583" lon="13.1691333"><ele>310.0</ele><time>2026-04-12T08:38:22.422Z</time></trkpt><trkpt lat="43.1381233" lon="13.168925"><ele>309.66666666666663</ele><time>2026-04-12T08:38:23.429Z</time></trkpt><trkpt lat="43.1380983" lon="13.1687183"><ele>309.3333333333333</ele><time>2026-04-12T08:38:24.429Z</time></trkpt><trkpt lat="43.1380733" lon="13.1685217"><ele>309.0</ele><time>2026-04-12T08:38:25.431Z</time></trkpt><trkpt lat="43.13805" lon="13.1683167"><ele>308.6666666666667</ele><time>2026-04-12T08:38:26.43Z</time></trkpt><trkpt lat="43.1380283" lon="13.1681017"><ele>308.33333333333337</ele><time>2026-04-12T08:38:27.428Z</time></trkpt><trkpt lat="43.1380017" lon="13.1678767"><ele>308.0</ele><time>2026-04-12T08:38:28.428Z</time></trkpt><trkpt lat="43.1379667" lon="13.16765"><ele>308.0</ele><time>2026-04-12T08:38:29.429Z</time></trkpt><trkpt lat="43.1379283" lon="13.1674233"><ele>308.0</ele><time>2026-04-12T08:38:30.43Z</time></trkpt><trkpt lat="43.1378883" lon="13.16719"><ele>308.0</ele><time>2026-04-12T08:38:31.43Z</time></trkpt><trkpt lat="43.1378583" lon="13.1669467"><ele>307.6666666666667</ele><time>2026-04-12T08:38:32.432Z</time></trkpt><trkpt lat="43.1378433" lon="13.166695"><ele>307.3333333333333</ele><time>2026-04-12T08:38:33.429Z</time></trkpt><trkpt lat="43.137835" lon="13.1664367"><ele>307.0</ele><time>2026-04-12T08:38:34.43Z</time></trkpt><trkpt lat="43.1378367" lon="13.1661783"><ele>307.0</ele><time>2026-04-12T08:38:35.429Z</time></trkpt><trkpt lat="43.137845" lon="13.1659167"><ele>307.0</ele><time>2026-04-12T08:38:36.43Z</time></trkpt><trkpt lat="43.1378433" lon="13.165655"><ele>307.0</ele><time>2026-04-12T08:38:37.431Z</time></trkpt><trkpt lat="43.13782" lon="13.1653933"><ele>308.66666666666663</ele><time>2026-04-12T08:38:38.431Z</time></trkpt><trkpt lat="43.1377883" lon="13.165135"><ele>310.3333333333333</ele><time>2026-04-12T08:38:39.431Z</time></trkpt><trkpt lat="43.1377517" lon="13.1648767"><ele>312.0</ele><time>2026-04-12T08:38:40.43Z</time></trkpt><trkpt lat="43.1377167" lon="13.164615"><ele>314.0</ele><time>2026-04-12T08:38:41.437Z</time></trkpt><trkpt lat="43.1376767" lon="13.1643517"><ele>316.0</ele><time>2026-04-12T08:38:42.433Z</time></trkpt><trkpt lat="43.1376417" lon="13.1640867"><ele>318.0</ele><time>2026-04-12T08:38:43.429Z</time></trkpt><trkpt lat="43.1376167" lon="13.1638183"><ele>318.0</ele><time>2026-04-12T08:38:44.428Z</time></trkpt><trkpt lat="43.137605" lon="13.16355"><ele>318.0</ele><time>2026-04-12T08:38:45.427Z</time></trkpt><trkpt lat="43.137615" lon="13.16328"><ele>318.0</ele><time>2026-04-12T08:38:46.431Z</time></trkpt><trkpt lat="43.1376333" lon="13.1630167"><ele>318.0</ele><time>2026-04-12T08:38:47.431Z</time></trkpt><trkpt lat="43.137645" lon="13.1627483"><ele>318.0</ele><time>2026-04-12T08:38:48.433Z</time></trkpt><trkpt lat="43.1376383" lon="13.1624867"><ele>318.0</ele><time>2026-04-12T08:38:49.43Z</time></trkpt><trkpt lat="43.1376067" lon="13.1622417"><ele>320.0</ele><time>2026-04-12T08:38:50.43Z</time></trkpt><trkpt lat="43.1375517" lon="13.16202"><ele>322.0</ele><time>2026-04-12T08:38:51.431Z</time></trkpt><trkpt lat="43.1374717" lon="13.1618333"><ele>324.0</ele><time>2026-04-12T08:38:52.429Z</time></trkpt><trkpt lat="43.1373717" lon="13.161675"><ele>320.25</ele><time>2026-04-12T08:38:53.427Z</time></trkpt><trkpt lat="43.1372667" lon="13.1615417"><ele>316.5</ele><time>2026-04-12T08:38:54.43Z</time></trkpt><trkpt lat="43.137165" lon="13.161425"><ele>312.75</ele><time>2026-04-12T08:38:55.43Z</time></trkpt><trkpt lat="43.13707" lon="13.1613133"><ele>309.0</ele><time>2026-04-12T08:38:56.43Z</time></trkpt><trkpt lat="43.1369967" lon="13.1611783"><ele>309.0</ele><time>2026-04-12T08:38:57.427Z</time></trkpt><trkpt lat="43.13695" lon="13.16103"><ele>309.0</ele><time>2026-04-12T08:38:58.43Z</time></trkpt><trkpt lat="43.1369283" lon="13.1608717"><ele>309.0</ele><time>2026-04-12T08:38:59.429Z</time></trkpt><trkpt lat="43.1369317" lon="13.16072"><ele>309.0</ele><time>2026-04-12T08:39:00.431Z</time></trkpt><trkpt lat="43.13697" lon="13.1606067"><ele>309.0</ele><time>2026-04-12T08:39:01.429Z</time></trkpt><trkpt lat="43.137035" lon="13.1605217"><ele>308.75</ele><time>2026-04-12T08:39:02.429Z</time></trkpt><trkpt lat="43.1371133" lon="13.16047"><ele>308.5</ele><time>2026-04-12T08:39:03.432Z</time></trkpt><trkpt lat="43.13722" lon="13.16045"><ele>308.25</ele><time>2026-04-12T08:39:04.429Z</time></trkpt><trkpt lat="43.137345" lon="13.160435"><ele>308.0</ele><time>2026-04-12T08:39:05.429Z</time></trkpt><trkpt lat="43.1374817" lon="13.1604033"><ele>308.0</ele><time>2026-04-12T08:39:06.434Z</time></trkpt><trkpt lat="43.1376383" lon="13.1603533"><ele>308.0</ele><time>2026-04-12T08:39:07.435Z</time></trkpt><trkpt lat="43.1378017" lon="13.160295"><ele>308.0</ele><time>2026-04-12T08:39:08.431Z</time></trkpt><trkpt lat="43.13796" lon="13.1602367"><ele>308.0</ele><time>2026-04-12T08:39:09.431Z</time></trkpt><trkpt lat="43.1381033" lon="13.1601667"><ele>308.0</ele><time>2026-04-12T08:39:10.431Z</time></trkpt><trkpt lat="43.1382317" lon="13.16009"><ele>308.0</ele><time>2026-04-12T08:39:11.428Z</time></trkpt><trkpt lat="43.1383467" lon="13.1600133"><ele>308.0</ele><time>2026-04-12T08:39:12.43Z</time></trkpt><trkpt lat="43.13845" lon="13.1599183"><ele>308.5</ele><time>2026-04-12T08:39:13.429Z</time></trkpt><trkpt lat="43.1385383" lon="13.1598"><ele>309.0</ele><time>2026-04-12T08:39:14.428Z</time></trkpt><trkpt lat="43.1386117" lon="13.1596583"><ele>309.5</ele><time>2026-04-12T08:39:15.428Z</time></trkpt><trkpt lat="43.1386733" lon="13.1595"><ele>310.0</ele><time>2026-04-12T08:39:16.431Z</time></trkpt><trkpt lat="43.1387183" lon="13.15933"><ele>310.0</ele><time>2026-04-12T08:39:17.43Z</time></trkpt><trkpt lat="43.1387367" lon="13.1591483"><ele>310.0</ele><time>2026-04-12T08:39:18.428Z</time></trkpt><trkpt lat="43.138725" lon="13.1589667"><ele>310.0</ele><time>2026-04-12T08:39:19.427Z</time></trkpt><trkpt lat="43.1386983" lon="13.1587867"><ele>310.0</ele><time>2026-04-12T08:39:20.461Z</time></trkpt><trkpt lat="43.138665" lon="13.1586117"><ele>310.75</ele><time>2026-04-12T08:39:21.432Z</time></trkpt><trkpt lat="43.138615" lon="13.15844"><ele>311.5</ele><time>2026-04-12T08:39:22.433Z</time></trkpt><trkpt lat="43.13854" lon="13.1582783"><ele>312.25</ele><time>2026-04-12T08:39:23.463Z</time></trkpt><trkpt lat="43.13844" lon="13.1581317"><ele>313.0</ele><time>2026-04-12T08:39:24.43Z</time></trkpt><trkpt lat="43.1383167" lon="13.1579967"><ele>313.66666666666663</ele><time>2026-04-12T08:39:25.43Z</time></trkpt><trkpt lat="43.13818" lon="13.15786"><ele>314.3333333333333</ele><time>2026-04-12T08:39:26.43Z</time></trkpt><trkpt lat="43.13804" lon="13.1577283"><ele>315.0</ele><time>2026-04-12T08:39:27.429Z</time></trkpt><trkpt lat="43.1379033" lon="13.1576067"><ele>315.0</ele><time>2026-04-12T08:39:28.428Z</time></trkpt><trkpt lat="43.1377733" lon="13.1574883"><ele>315.0</ele><time>2026-04-12T08:39:29.428Z</time></trkpt><trkpt lat="43.1376617" lon="13.1573617"><ele>315.0</ele><time>2026-04-12T08:39:30.432Z</time></trkpt><trkpt lat="43.137575" lon="13.15719"><ele>317.3333333333333</ele><time>2026-04-12T08:39:31.427Z</time></trkpt><trkpt lat="43.1375183" lon="13.1569733"><ele>319.66666666666663</ele><time>2026-04-12T08:39:32.429Z</time></trkpt><trkpt lat="43.1374833" lon="13.1567233"><ele>322.0</ele><time>2026-04-12T08:39:33.429Z</time></trkpt><trkpt lat="43.1374583" lon="13.1564533"><ele>324.0</ele><time>2026-04-12T08:39:34.431Z</time></trkpt><trkpt lat="43.137435" lon="13.1561883"><ele>326.0</ele><time>2026-04-12T08:39:35.429Z</time></trkpt><trkpt lat="43.137405" lon="13.1559317"><ele>328.0</ele><time>2026-04-12T08:39:36.431Z</time></trkpt><trkpt lat="43.1373767" lon="13.1556933"><ele>323.66666666666663</ele><time>2026-04-12T08:39:37.43Z</time></trkpt><trkpt lat="43.1373567" lon="13.155465"><ele>319.3333333333333</ele><time>2026-04-12T08:39:38.429Z</time></trkpt><trkpt lat="43.137335" lon="13.155255"><ele>315.0</ele><time>2026-04-12T08:39:39.431Z</time></trkpt><trkpt lat="43.1372983" lon="13.1550733"><ele>315.0</ele><time>2026-04-12T08:39:40.429Z</time></trkpt><trkpt lat="43.1372233" lon="13.1549367"><ele>315.0</ele><time>2026-04-12T08:39:41.429Z</time></trkpt><trkpt lat="43.1371033" lon="13.1548233"><ele>315.0</ele><time>2026-04-12T08:39:42.429Z</time></trkpt><trkpt lat="43.1369583" lon="13.1547317"><ele>315.0</ele><time>2026-04-12T08:39:43.43Z</time></trkpt><trkpt lat="43.1367967" lon="13.1546683"><ele>320.6666666666667</ele><time>2026-04-12T08:39:44.43Z</time></trkpt><trkpt lat="43.136625" lon="13.1546433"><ele>326.33333333333337</ele><time>2026-04-12T08:39:45.429Z</time></trkpt><trkpt lat="43.1364533" lon="13.1546383"><ele>332.0</ele><time>2026-04-12T08:39:46.43Z</time></trkpt><trkpt lat="43.1362917" lon="13.1546433"><ele>332.0</ele><time>2026-04-12T08:39:47.43Z</time></trkpt><trkpt lat="43.1361417" lon="13.1546617"><ele>332.0</ele><time>2026-04-12T08:39:48.435Z</time></trkpt><trkpt lat="43.136005" lon="13.1546733"><ele>332.0</ele><time>2026-04-12T08:39:49.432Z</time></trkpt><trkpt lat="43.1358883" lon="13.1546467"><ele>332.0</ele><time>2026-04-12T08:39:50.431Z</time></trkpt><trkpt lat="43.135795" lon="13.1545767"><ele>332.0</ele><time>2026-04-12T08:39:51.431Z</time></trkpt><trkpt lat="43.1357333" lon="13.1544783"><ele>332.0</ele><time>2026-04-12T08:39:52.43Z</time></trkpt><trkpt lat="43.1357167" lon="13.1543417"><ele>332.0</ele><time>2026-04-12T08:39:53.43Z</time></trkpt><trkpt lat="43.135705" lon="13.1541783"><ele>332.0</ele><time>2026-04-12T08:39:54.431Z</time></trkpt><trkpt lat="43.1356933" lon="13.1539917"><ele>326.33333333333337</ele><time>2026-04-12T08:39:55.429Z</time></trkpt><trkpt lat="43.1356883" lon="13.1537833"><ele>320.6666666666667</ele><time>2026-04-12T08:39:56.433Z</time></trkpt><trkpt lat="43.1356817" lon="13.15357"><ele>315.0</ele><time>2026-04-12T08:39:57.429Z</time></trkpt><trkpt lat="43.1356633" lon="13.153355"><ele>315.6666666666667</ele><time>2026-04-12T08:39:58.43Z</time></trkpt><trkpt lat="43.13563" lon="13.15314"><ele>316.33333333333337</ele><time>2026-04-12T08:39:59.431Z</time></trkpt><trkpt lat="43.1356" lon="13.1529333"><ele>317.0</ele><time>2026-04-12T08:40:00.432Z</time></trkpt><trkpt lat="43.135585" lon="13.1527283"><ele>317.0</ele><time>2026-04-12T08:40:01.429Z</time></trkpt><trkpt lat="43.1356017" lon="13.1525217"><ele>317.0</ele><time>2026-04-12T08:40:02.429Z</time></trkpt><trkpt lat="43.135645" lon="13.1523167"><ele>317.0</ele><time>2026-04-12T08:40:03.427Z</time></trkpt><trkpt lat="43.1357067" lon="13.152115"><ele>320.33333333333337</ele><time>2026-04-12T08:40:04.429Z</time></trkpt><trkpt lat="43.1357817" lon="13.151915"><ele>323.6666666666667</ele><time>2026-04-12T08:40:05.427Z</time></trkpt><trkpt lat="43.1358633" lon="13.1517167"><ele>327.0</ele><time>2026-04-12T08:40:06.426Z</time></trkpt><trkpt lat="43.1359433" lon="13.1515167"><ele>327.0</ele><time>2026-04-12T08:40:07.43Z</time></trkpt><trkpt lat="43.1360167" lon="13.151315"><ele>327.0</ele><time>2026-04-12T08:40:08.427Z</time></trkpt><trkpt lat="43.1360817" lon="13.1511117"><ele>327.0</ele><time>2026-04-12T08:40:09.43Z</time></trkpt><trkpt lat="43.1361283" lon="13.1508917"><ele>326.3333333333333</ele><time>2026-04-12T08:40:10.428Z</time></trkpt><trkpt lat="43.1361733" lon="13.1506717"><ele>325.66666666666663</ele><time>2026-04-12T08:40:11.429Z</time></trkpt><trkpt lat="43.13621" lon="13.1504533"><ele>325.0</ele><time>2026-04-12T08:40:12.431Z</time></trkpt><trkpt lat="43.136245" lon="13.1502233"><ele>325.0</ele><time>2026-04-12T08:40:13.429Z</time></trkpt><trkpt lat="43.1362683" lon="13.14998"><ele>325.0</ele><time>2026-04-12T08:40:14.429Z</time></trkpt><trkpt lat="43.13628" lon="13.149725"><ele>325.0</ele><time>2026-04-12T08:40:15.43Z</time></trkpt><trkpt lat="43.13628" lon="13.1494833"><ele>325.3333333333333</ele><time>2026-04-12T08:40:16.429Z</time></trkpt><trkpt lat="43.1362717" lon="13.1492567"><ele>325.6666666666667</ele><time>2026-04-12T08:40:17.431Z</time></trkpt><trkpt lat="43.1362467" lon="13.1490333"><ele>326.0</ele><time>2026-04-12T08:40:18.427Z</time></trkpt><trkpt lat="43.13621" lon="13.148805"><ele>328.33333333333337</ele><time>2026-04-12T08:40:19.43Z</time></trkpt><trkpt lat="43.136155" lon="13.1485733"><ele>330.6666666666667</ele><time>2026-04-12T08:40:20.43Z</time></trkpt><trkpt lat="43.13609" lon="13.1483467"><ele>333.0</ele><time>2026-04-12T08:40:21.43Z</time></trkpt><trkpt lat="43.1360133" lon="13.1481183"><ele>337.0</ele><time>2026-04-12T08:40:22.431Z</time></trkpt><trkpt lat="43.13593" lon="13.1478967"><ele>341.0</ele><time>2026-04-12T08:40:23.432Z</time></trkpt><trkpt lat="43.1358417" lon="13.1476783"><ele>345.0</ele><time>2026-04-12T08:40:24.431Z</time></trkpt><trkpt lat="43.135745" lon="13.147465"><ele>338.6666666666667</ele><time>2026-04-12T08:40:25.428Z</time></trkpt><trkpt lat="43.1356517" lon="13.1472483"><ele>332.33333333333337</ele><time>2026-04-12T08:40:26.428Z</time></trkpt><trkpt lat="43.1355533" lon="13.1470267"><ele>326.0</ele><time>2026-04-12T08:40:27.431Z</time></trkpt><trkpt lat="43.1354617" lon="13.1468"><ele>326.0</ele><time>2026-04-12T08:40:28.43Z</time></trkpt><trkpt lat="43.1353667" lon="13.1465683"><ele>326.0</ele><time>2026-04-12T08:40:29.428Z</time></trkpt><trkpt lat="43.1352733" lon="13.1463333"><ele>326.0</ele><time>2026-04-12T08:40:30.43Z</time></trkpt><trkpt lat="43.13519" lon="13.1460917"><ele>329.6666666666667</ele><time>2026-04-12T08:40:31.43Z</time></trkpt><trkpt lat="43.1351183" lon="13.1458467"><ele>333.3333333333333</ele><time>2026-04-12T08:40:32.429Z</time></trkpt><trkpt lat="43.1350483" lon="13.1456017"><ele>337.0</ele><time>2026-04-12T08:40:33.43Z</time></trkpt><trkpt lat="43.134975" lon="13.1453633"><ele>338.66666666666663</ele><time>2026-04-12T08:40:34.429Z</time></trkpt><trkpt lat="43.1348783" lon="13.1451383"><ele>340.3333333333333</ele><time>2026-04-12T08:40:35.43Z</time></trkpt><trkpt lat="43.134765" lon="13.144925"><ele>342.0</ele><time>2026-04-12T08:40:36.429Z</time></trkpt><trkpt lat="43.1346467" lon="13.1447133"><ele>342.0</ele><time>2026-04-12T08:40:37.43Z</time></trkpt><trkpt lat="43.1345267" lon="13.1445017"><ele>342.0</ele><time>2026-04-12T08:40:38.43Z</time></trkpt><trkpt lat="43.1344033" lon="13.1443"><ele>342.0</ele><time>2026-04-12T08:40:39.43Z</time></trkpt><trkpt lat="43.1342767" lon="13.1440983"><ele>342.6666666666667</ele><time>2026-04-12T08:40:40.431Z</time></trkpt><trkpt lat="43.1341383" lon="13.14392"><ele>343.33333333333337</ele><time>2026-04-12T08:40:41.432Z</time></trkpt><trkpt lat="43.1339883" lon="13.14378"><ele>344.0</ele><time>2026-04-12T08:40:42.428Z</time></trkpt><trkpt lat="43.1338367" lon="13.14367"><ele>344.0</ele><time>2026-04-12T08:40:43.428Z</time></trkpt><trkpt lat="43.13369" lon="13.1435883"><ele>344.0</ele><time>2026-04-12T08:40:44.435Z</time></trkpt><trkpt lat="43.133545" lon="13.14351"><ele>344.0</ele><time>2026-04-12T08:40:45.427Z</time></trkpt><trkpt lat="43.133395" lon="13.1434083"><ele>344.0</ele><time>2026-04-12T08:40:46.43Z</time></trkpt><trkpt lat="43.1332467" lon="13.143275"><ele>344.0</ele><time>2026-04-12T08:40:47.429Z</time></trkpt><trkpt lat="43.1331067" lon="13.1431133"><ele>344.0</ele><time>2026-04-12T08:40:48.431Z</time></trkpt><trkpt lat="43.132975" lon="13.14293"><ele>342.6666666666667</ele><time>2026-04-12T08:40:49.429Z</time></trkpt><trkpt lat="43.132845" lon="13.142735"><ele>341.3333333333333</ele><time>2026-04-12T08:40:50.429Z</time></trkpt><trkpt lat="43.13271" lon="13.1425583"><ele>340.0</ele><time>2026-04-12T08:40:51.431Z</time></trkpt><trkpt lat="43.1325667" lon="13.142395"><ele>337.3333333333333</ele><time>2026-04-12T08:40:52.432Z</time></trkpt><trkpt lat="43.132415" lon="13.14225"><ele>334.6666666666667</ele><time>2026-04-12T08:40:53.427Z</time></trkpt><trkpt lat="43.1322683" lon="13.14211"><ele>332.0</ele><time>2026-04-12T08:40:54.429Z</time></trkpt><trkpt lat="43.13213" lon="13.1419717"><ele>332.0</ele><time>2026-04-12T08:40:55.429Z</time></trkpt><trkpt lat="43.1320117" lon="13.1418117"><ele>332.0</ele><time>2026-04-12T08:40:56.435Z</time></trkpt><trkpt lat="43.1319117" lon="13.1416217"><ele>332.0</ele><time>2026-04-12T08:40:57.429Z</time></trkpt><trkpt lat="43.1318083" lon="13.141405"><ele>330.6666666666667</ele><time>2026-04-12T08:40:58.429Z</time></trkpt><trkpt lat="43.1316883" lon="13.14119"><ele>329.3333333333333</ele><time>2026-04-12T08:40:59.431Z</time></trkpt><trkpt lat="43.131545" lon="13.140995"><ele>328.0</ele><time>2026-04-12T08:41:00.43Z</time></trkpt><trkpt lat="43.1313883" lon="13.140825"><ele>336.66666666666663</ele><time>2026-04-12T08:41:01.432Z</time></trkpt><trkpt lat="43.1312267" lon="13.1406667"><ele>345.3333333333333</ele><time>2026-04-12T08:41:02.426Z</time></trkpt><trkpt lat="43.1310633" lon="13.1405117"><ele>354.0</ele><time>2026-04-12T08:41:03.429Z</time></trkpt><trkpt lat="43.1308967" lon="13.1403633"><ele>348.6666666666667</ele><time>2026-04-12T08:41:04.427Z</time></trkpt><trkpt lat="43.13072" lon="13.1402333"><ele>343.33333333333337</ele><time>2026-04-12T08:41:05.429Z</time></trkpt><trkpt lat="43.13054" lon="13.1401433"><ele>338.0</ele><time>2026-04-12T08:41:06.433Z</time></trkpt><trkpt lat="43.130355" lon="13.1400733"><ele>338.0</ele><time>2026-04-12T08:41:07.429Z</time></trkpt><trkpt lat="43.13017" lon="13.1400017"><ele>338.0</ele><time>2026-04-12T08:41:08.429Z</time></trkpt><trkpt lat="43.12999" lon="13.1399167"><ele>338.0</ele><time>2026-04-12T08:41:09.429Z</time></trkpt><trkpt lat="43.1298117" lon="13.13981"><ele>337.6666666666667</ele><time>2026-04-12T08:41:10.432Z</time></trkpt><trkpt lat="43.1296433" lon="13.1396917"><ele>337.3333333333333</ele><time>2026-04-12T08:41:11.429Z</time></trkpt><trkpt lat="43.129495" lon="13.1395483"><ele>337.0</ele><time>2026-04-12T08:41:12.432Z</time></trkpt><trkpt lat="43.1293717" lon="13.139375"><ele>337.0</ele><time>2026-04-12T08:41:13.428Z</time></trkpt><trkpt lat="43.12927" lon="13.1391733"><ele>337.0</ele><time>2026-04-12T08:41:14.428Z</time></trkpt><trkpt lat="43.129175" lon="13.13895"><ele>337.0</ele><time>2026-04-12T08:41:15.43Z</time></trkpt><trkpt lat="43.12908" lon="13.13871"><ele>335.66666666666663</ele><time>2026-04-12T08:41:16.429Z</time></trkpt><trkpt lat="43.1289817" lon="13.1384667"><ele>334.3333333333333</ele><time>2026-04-12T08:41:17.43Z</time></trkpt><trkpt lat="43.1288833" lon="13.138225"><ele>333.0</ele><time>2026-04-12T08:41:18.43Z</time></trkpt><trkpt lat="43.1287917" lon="13.1379833"><ele>333.0</ele><time>2026-04-12T08:41:19.43Z</time></trkpt><trkpt lat="43.128705" lon="13.1377417"><ele>333.0</ele><time>2026-04-12T08:41:20.435Z</time></trkpt><trkpt lat="43.128625" lon="13.1375"><ele>333.0</ele><time>2026-04-12T08:41:21.429Z</time></trkpt><trkpt lat="43.1285317" lon="13.1372717"><ele>330.6666666666667</ele><time>2026-04-12T08:41:22.428Z</time></trkpt><trkpt lat="43.1284133" lon="13.137075"><ele>328.33333333333337</ele><time>2026-04-12T08:41:23.43Z</time></trkpt><trkpt lat="43.12827" lon="13.1369083"><ele>326.0</ele><time>2026-04-12T08:41:24.43Z</time></trkpt><trkpt lat="43.1281167" lon="13.13677"><ele>326.0</ele><time>2026-04-12T08:41:25.428Z</time></trkpt><trkpt lat="43.1279817" lon="13.1366233"><ele>326.0</ele><time>2026-04-12T08:41:26.43Z</time></trkpt><trkpt lat="43.12788" lon="13.13643"><ele>326.0</ele><time>2026-04-12T08:41:27.428Z</time></trkpt><trkpt lat="43.1278133" lon="13.1362033"><ele>327.0</ele><time>2026-04-12T08:41:28.43Z</time></trkpt><trkpt lat="43.1277817" lon="13.1359667"><ele>328.0</ele><time>2026-04-12T08:41:29.429Z</time></trkpt><trkpt lat="43.1277567" lon="13.1357233"><ele>329.0</ele><time>2026-04-12T08:41:30.43Z</time></trkpt><trkpt lat="43.1277117" lon="13.1354917"><ele>330.0</ele><time>2026-04-12T08:41:31.431Z</time></trkpt><trkpt lat="43.12764" lon="13.1352733"><ele>331.0</ele><time>2026-04-12T08:41:32.429Z</time></trkpt><trkpt lat="43.1275383" lon="13.135065"><ele>332.0</ele><time>2026-04-12T08:41:33.43Z</time></trkpt><trkpt lat="43.1274083" lon="13.134875"><ele>331.6666666666667</ele><time>2026-04-12T08:41:34.435Z</time></trkpt><trkpt lat="43.12726" lon="13.1346967"><ele>331.3333333333333</ele><time>2026-04-12T08:41:35.431Z</time></trkpt><trkpt lat="43.1271067" lon="13.1345217"><ele>331.0</ele><time>2026-04-12T08:41:36.429Z</time></trkpt><trkpt lat="43.1269533" lon="13.1343317"><ele>331.0</ele><time>2026-04-12T08:41:37.429Z</time></trkpt><trkpt lat="43.1267983" lon="13.1341417"><ele>331.0</ele><time>2026-04-12T08:41:38.432Z</time></trkpt><trkpt lat="43.12664" lon="13.1339583"><ele>331.0</ele><time>2026-04-12T08:41:39.431Z</time></trkpt><trkpt lat="43.12648" lon="13.1337817"><ele>333.3333333333333</ele><time>2026-04-12T08:41:40.43Z</time></trkpt><trkpt lat="43.126315" lon="13.1336133"><ele>335.6666666666667</ele><time>2026-04-12T08:41:41.428Z</time></trkpt><trkpt lat="43.1261367" lon="13.1334633"><ele>338.0</ele><time>2026-04-12T08:41:42.428Z</time></trkpt><trkpt lat="43.12595" lon="13.133335"><ele>338.0</ele><time>2026-04-12T08:41:43.427Z</time></trkpt><trkpt lat="43.1257717" lon="13.133225"><ele>338.0</ele><time>2026-04-12T08:41:44.437Z</time></trkpt><trkpt lat="43.1255883" lon="13.1331033"><ele>338.0</ele><time>2026-04-12T08:41:45.429Z</time></trkpt><trkpt lat="43.1254233" lon="13.133005"><ele>349.25</ele><time>2026-04-12T08:41:46.429Z</time></trkpt><trkpt lat="43.1252683" lon="13.1329167"><ele>360.5</ele><time>2026-04-12T08:41:47.43Z</time></trkpt><trkpt lat="43.1251317" lon="13.1328783"><ele>371.75</ele><time>2026-04-12T08:41:48.429Z</time></trkpt><trkpt lat="43.1250083" lon="13.1329117"><ele>383.0</ele><time>2026-04-12T08:41:49.427Z</time></trkpt><trkpt lat="43.1248967" lon="13.1330183"><ele>382.0</ele><time>2026-04-12T08:41:50.43Z</time></trkpt><trkpt lat="43.1247967" lon="13.133185"><ele>381.0</ele><time>2026-04-12T08:41:51.431Z</time></trkpt><trkpt lat="43.124705" lon="13.1333817"><ele>380.0</ele><time>2026-04-12T08:41:52.431Z</time></trkpt><trkpt lat="43.124635" lon="13.1335933"><ele>380.0</ele><time>2026-04-12T08:41:53.428Z</time></trkpt><trkpt lat="43.1246083" lon="13.1338133"><ele>380.0</ele><time>2026-04-12T08:41:54.428Z</time></trkpt><trkpt lat="43.12462" lon="13.1340133"><ele>380.0</ele><time>2026-04-12T08:41:55.432Z</time></trkpt><trkpt lat="43.1246417" lon="13.134195"><ele>380.0</ele><time>2026-04-12T08:41:56.43Z</time></trkpt><trkpt lat="43.1246267" lon="13.1343583"><ele>372.75</ele><time>2026-04-12T08:41:57.43Z</time></trkpt><trkpt lat="43.1245783" lon="13.1344833"><ele>365.5</ele><time>2026-04-12T08:41:58.43Z</time></trkpt><trkpt lat="43.12449" lon="13.1345483"><ele>358.25</ele><time>2026-04-12T08:41:59.433Z</time></trkpt><trkpt lat="43.1243667" lon="13.1345467"><ele>351.0</ele><time>2026-04-12T08:42:00.43Z</time></trkpt><trkpt lat="43.1242067" lon="13.1344867"><ele>351.6666666666667</ele><time>2026-04-12T08:42:01.428Z</time></trkpt><trkpt lat="43.1240467" lon="13.134445"><ele>352.33333333333337</ele><time>2026-04-12T08:42:02.431Z</time></trkpt><trkpt lat="43.123875" lon="13.1344167"><ele>353.0</ele><time>2026-04-12T08:42:03.433Z</time></trkpt><trkpt lat="43.123695" lon="13.1344067"><ele>353.0</ele><time>2026-04-12T08:42:04.434Z</time></trkpt><trkpt lat="43.12351" lon="13.1344167"><ele>353.0</ele><time>2026-04-12T08:42:05.431Z</time></trkpt><trkpt lat="43.12332" lon="13.1344317"><ele>353.0</ele><time>2026-04-12T08:42:06.431Z</time></trkpt><trkpt lat="43.123125" lon="13.1344483"><ele>356.33333333333337</ele><time>2026-04-12T08:42:07.431Z</time></trkpt><trkpt lat="43.12293" lon="13.134465"><ele>359.6666666666667</ele><time>2026-04-12T08:42:08.43Z</time></trkpt><trkpt lat="43.12273" lon="13.1344883"><ele>363.0</ele><time>2026-04-12T08:42:09.432Z</time></trkpt><trkpt lat="43.1225217" lon="13.1345233"><ele>364.3333333333333</ele><time>2026-04-12T08:42:10.429Z</time></trkpt><trkpt lat="43.12231" lon="13.1345683"><ele>365.66666666666663</ele><time>2026-04-12T08:42:11.429Z</time></trkpt><trkpt lat="43.1221" lon="13.1346167"><ele>367.0</ele><time>2026-04-12T08:42:12.43Z</time></trkpt><trkpt lat="43.1218933" lon="13.1346733"><ele>367.0</ele><time>2026-04-12T08:42:13.431Z</time></trkpt><trkpt lat="43.12169" lon="13.1347317"><ele>367.0</ele><time>2026-04-12T08:42:14.432Z</time></trkpt><trkpt lat="43.121495" lon="13.1347833"><ele>367.0</ele><time>2026-04-12T08:42:15.432Z</time></trkpt><trkpt lat="43.1213033" lon="13.1348117"><ele>363.0</ele><time>2026-04-12T08:42:16.43Z</time></trkpt><trkpt lat="43.1211083" lon="13.1348017"><ele>359.0</ele><time>2026-04-12T08:42:17.429Z</time></trkpt><trkpt lat="43.12092" lon="13.134745"><ele>355.0</ele><time>2026-04-12T08:42:18.433Z</time></trkpt><trkpt lat="43.120745" lon="13.1346633"><ele>349.66666666666663</ele><time>2026-04-12T08:42:19.431Z</time></trkpt><trkpt lat="43.1205917" lon="13.1345667"><ele>344.3333333333333</ele><time>2026-04-12T08:42:20.431Z</time></trkpt><trkpt lat="43.1204617" lon="13.1344583"><ele>339.0</ele><time>2026-04-12T08:42:21.43Z</time></trkpt><trkpt lat="43.1203717" lon="13.1343233"><ele>339.0</ele><time>2026-04-12T08:42:22.428Z</time></trkpt><trkpt lat="43.1203267" lon="13.134165"><ele>339.0</ele><time>2026-04-12T08:42:23.428Z</time></trkpt><trkpt lat="43.12032" lon="13.1339933"><ele>339.0</ele><time>2026-04-12T08:42:24.43Z</time></trkpt><trkpt lat="43.12035" lon="13.1337983"><ele>339.0</ele><time>2026-04-12T08:42:25.431Z</time></trkpt><trkpt lat="43.1203917" lon="13.1335733"><ele>339.0</ele><time>2026-04-12T08:42:26.433Z</time></trkpt><trkpt lat="43.1204283" lon="13.1333317"><ele>339.0</ele><time>2026-04-12T08:42:27.427Z</time></trkpt><trkpt lat="43.1204483" lon="13.1330933"><ele>339.0</ele><time>2026-04-12T08:42:28.426Z</time></trkpt><trkpt lat="43.120455" lon="13.1328617"><ele>338.5</ele><time>2026-04-12T08:42:29.432Z</time></trkpt><trkpt lat="43.1204567" lon="13.13264"><ele>338.0</ele><time>2026-04-12T08:42:30.429Z</time></trkpt><trkpt lat="43.120445" lon="13.132435"><ele>337.5</ele><time>2026-04-12T08:42:31.428Z</time></trkpt><trkpt lat="43.1204017" lon="13.1322567"><ele>337.0</ele><time>2026-04-12T08:42:32.432Z</time></trkpt><trkpt lat="43.12032" lon="13.1321133"><ele>338.66666666666663</ele><time>2026-04-12T08:42:33.43Z</time></trkpt><trkpt lat="43.1202083" lon="13.1319967"><ele>340.3333333333333</ele><time>2026-04-12T08:42:34.429Z</time></trkpt><trkpt lat="43.1200733" lon="13.1318783"><ele>342.0</ele><time>2026-04-12T08:42:35.429Z</time></trkpt><trkpt lat="43.11992" lon="13.1317433"><ele>342.0</ele><time>2026-04-12T08:42:36.431Z</time></trkpt><trkpt lat="43.1197567" lon="13.1315983"><ele>342.0</ele><time>2026-04-12T08:42:37.428Z</time></trkpt><trkpt lat="43.11959" lon="13.131455"><ele>342.0</ele><time>2026-04-12T08:42:38.429Z</time></trkpt><trkpt lat="43.1194267" lon="13.131315"><ele>342.0</ele><time>2026-04-12T08:42:39.431Z</time></trkpt><trkpt lat="43.1192667" lon="13.13118"><ele>342.0</ele><time>2026-04-12T08:42:40.431Z</time></trkpt><trkpt lat="43.1191033" lon="13.131035"><ele>342.0</ele><time>2026-04-12T08:42:41.434Z</time></trkpt><trkpt lat="43.1189517" lon="13.130875"><ele>342.0</ele><time>2026-04-12T08:42:42.431Z</time></trkpt><trkpt lat="43.1188067" lon="13.1306967"><ele>342.0</ele><time>2026-04-12T08:42:43.431Z</time></trkpt><trkpt lat="43.11867" lon="13.1305033"><ele>342.0</ele><time>2026-04-12T08:42:44.429Z</time></trkpt><trkpt lat="43.1185367" lon="13.1303017"><ele>342.0</ele><time>2026-04-12T08:42:45.429Z</time></trkpt><trkpt lat="43.1184067" lon="13.1301"><ele>342.0</ele><time>2026-04-12T08:42:46.429Z</time></trkpt><trkpt lat="43.1182717" lon="13.1299"><ele>342.0</ele><time>2026-04-12T08:42:47.43Z</time></trkpt><trkpt lat="43.1181333" lon="13.1297017"><ele>342.6666666666667</ele><time>2026-04-12T08:42:48.431Z</time></trkpt><trkpt lat="43.117995" lon="13.1295117"><ele>343.33333333333337</ele><time>2026-04-12T08:42:49.43Z</time></trkpt><trkpt lat="43.11786" lon="13.1293317"><ele>344.0</ele><time>2026-04-12T08:42:50.425Z</time></trkpt><trkpt lat="43.1177483" lon="13.1291533"><ele>344.6666666666667</ele><time>2026-04-12T08:42:51.427Z</time></trkpt><trkpt lat="43.1176583" lon="13.1289583"><ele>345.3333333333333</ele><time>2026-04-12T08:42:52.431Z</time></trkpt><trkpt lat="43.1175917" lon="13.12874"><ele>346.0</ele><time>2026-04-12T08:42:53.428Z</time></trkpt><trkpt lat="43.1175467" lon="13.1285083"><ele>346.0</ele><time>2026-04-12T08:42:54.431Z</time></trkpt><trkpt lat="43.1174983" lon="13.1282783"><ele>346.0</ele><time>2026-04-12T08:42:55.43Z</time></trkpt><trkpt lat="43.1174367" lon="13.1280517"><ele>346.0</ele><time>2026-04-12T08:42:56.43Z</time></trkpt><trkpt lat="43.1173617" lon="13.1278283"><ele>345.3333333333333</ele><time>2026-04-12T08:42:57.429Z</time></trkpt><trkpt lat="43.1172733" lon="13.1276183"><ele>344.6666666666667</ele><time>2026-04-12T08:42:58.431Z</time></trkpt><trkpt lat="43.1171833" lon="13.127425"><ele>344.0</ele><time>2026-04-12T08:42:59.438Z</time></trkpt><trkpt lat="43.117075" lon="13.1272467"><ele>347.33333333333337</ele><time>2026-04-12T08:43:00.43Z</time></trkpt><trkpt lat="43.1169517" lon="13.127105"><ele>350.6666666666667</ele><time>2026-04-12T08:43:01.428Z</time></trkpt><trkpt lat="43.1168167" lon="13.1270117"><ele>354.0</ele><time>2026-04-12T08:43:02.431Z</time></trkpt><trkpt lat="43.1166733" lon="13.1269767"><ele>355.6666666666667</ele><time>2026-04-12T08:43:03.431Z</time></trkpt><trkpt lat="43.1165317" lon="13.127005"><ele>357.33333333333337</ele><time>2026-04-12T08:43:04.428Z</time></trkpt><trkpt lat="43.1163883" lon="13.127115"><ele>359.0</ele><time>2026-04-12T08:43:05.429Z</time></trkpt><trkpt lat="43.1162267" lon="13.1272733"><ele>355.33333333333337</ele><time>2026-04-12T08:43:06.429Z</time></trkpt><trkpt lat="43.1160617" lon="13.1274333"><ele>351.6666666666667</ele><time>2026-04-12T08:43:07.43Z</time></trkpt><trkpt lat="43.11591" lon="13.127605"><ele>348.0</ele><time>2026-04-12T08:43:08.43Z</time></trkpt><trkpt lat="43.115765" lon="13.1277717"><ele>346.6666666666667</ele><time>2026-04-12T08:43:09.43Z</time></trkpt><trkpt lat="43.1156133" lon="13.127905"><ele>345.33333333333337</ele><time>2026-04-12T08:43:10.428Z</time></trkpt><trkpt lat="43.1154567" lon="13.127995"><ele>344.0</ele><time>2026-04-12T08:43:11.428Z</time></trkpt><trkpt lat="43.1152833" lon="13.128035"><ele>344.0</ele><time>2026-04-12T08:43:12.429Z</time></trkpt><trkpt lat="43.1151" lon="13.1280183"><ele>344.0</ele><time>2026-04-12T08:43:13.427Z</time></trkpt><trkpt lat="43.1149083" lon="13.127975"><ele>344.0</ele><time>2026-04-12T08:43:14.432Z</time></trkpt><trkpt lat="43.1147117" lon="13.12793"><ele>345.0</ele><time>2026-04-12T08:43:15.426Z</time></trkpt><trkpt lat="43.1145133" lon="13.12789"><ele>346.0</ele><time>2026-04-12T08:43:16.426Z</time></trkpt><trkpt lat="43.11432" lon="13.1278517"><ele>347.0</ele><time>2026-04-12T08:43:17.432Z</time></trkpt><trkpt lat="43.11413" lon="13.1278033"><ele>347.6666666666667</ele><time>2026-04-12T08:43:18.43Z</time></trkpt><trkpt lat="43.1139417" lon="13.12774"><ele>348.3333333333333</ele><time>2026-04-12T08:43:19.429Z</time></trkpt><trkpt lat="43.1137583" lon="13.1276667"><ele>349.0</ele><time>2026-04-12T08:43:20.432Z</time></trkpt><trkpt lat="43.113575" lon="13.1275983"><ele>349.0</ele><time>2026-04-12T08:43:21.429Z</time></trkpt><trkpt lat="43.11339" lon="13.1275283"><ele>349.0</ele><time>2026-04-12T08:43:22.428Z</time></trkpt><trkpt lat="43.1132017" lon="13.1274583"><ele>349.0</ele><time>2026-04-12T08:43:23.431Z</time></trkpt><trkpt lat="43.11301" lon="13.1273883"><ele>351.66666666666663</ele><time>2026-04-12T08:43:24.429Z</time></trkpt><trkpt lat="43.1128183" lon="13.12732"><ele>354.3333333333333</ele><time>2026-04-12T08:43:25.43Z</time></trkpt><trkpt lat="43.1126233" lon="13.1272517"><ele>357.0</ele><time>2026-04-12T08:43:26.431Z</time></trkpt><trkpt lat="43.1124283" lon="13.1271867"><ele>360.3333333333333</ele><time>2026-04-12T08:43:27.426Z</time></trkpt><trkpt lat="43.1122317" lon="13.127125"><ele>363.66666666666663</ele><time>2026-04-12T08:43:28.431Z</time></trkpt><trkpt lat="43.112035" lon="13.127065"><ele>367.0</ele><time>2026-04-12T08:43:29.433Z</time></trkpt><trkpt lat="43.111835" lon="13.1270133"><ele>367.0</ele><time>2026-04-12T08:43:30.43Z</time></trkpt><trkpt lat="43.1116317" lon="13.1269767"><ele>367.0</ele><time>2026-04-12T08:43:31.432Z</time></trkpt><trkpt lat="43.1114283" lon="13.126955"><ele>367.0</ele><time>2026-04-12T08:43:32.43Z</time></trkpt><trkpt lat="43.1112267" lon="13.126945"><ele>366.3333333333333</ele><time>2026-04-12T08:43:33.43Z</time></trkpt><trkpt lat="43.1110317" lon="13.1269333"><ele>365.6666666666667</ele><time>2026-04-12T08:43:34.432Z</time></trkpt><trkpt lat="43.1108483" lon="13.1269283"><ele>365.0</ele><time>2026-04-12T08:43:35.43Z</time></trkpt><trkpt lat="43.11068" lon="13.1269233"><ele>362.2</ele><time>2026-04-12T08:43:36.429Z</time></trkpt><trkpt lat="43.1105367" lon="13.126915"><ele>359.4</ele><time>2026-04-12T08:43:37.428Z</time></trkpt><trkpt lat="43.110425" lon="13.1269017"><ele>356.6</ele><time>2026-04-12T08:43:38.431Z</time></trkpt><trkpt lat="43.110345" lon="13.126885"><ele>353.8</ele><time>2026-04-12T08:43:39.43Z</time></trkpt><trkpt lat="43.110235" lon="13.1268733"><ele>351.0</ele><time>2026-04-12T08:43:41.431Z</time></trkpt><trkpt lat="43.1101667" lon="13.1268633"><ele>351.0</ele><time>2026-04-12T08:43:42.429Z</time></trkpt><trkpt lat="43.1100817" lon="13.12686"><ele>351.0</ele><time>2026-04-12T08:43:43.429Z</time></trkpt><trkpt lat="43.109965" lon="13.1269017"><ele>351.0</ele><time>2026-04-12T08:43:44.428Z</time></trkpt><trkpt lat="43.1098317" lon="13.1269717"><ele>351.0</ele><time>2026-04-12T08:43:45.43Z</time></trkpt><trkpt lat="43.109695" lon="13.1270417"><ele>353.0</ele><time>2026-04-12T08:43:46.432Z</time></trkpt><trkpt lat="43.1095667" lon="13.127105"><ele>355.0</ele><time>2026-04-12T08:43:47.428Z</time></trkpt><trkpt lat="43.10944" lon="13.1271717"><ele>357.0</ele><time>2026-04-12T08:43:48.427Z</time></trkpt><trkpt lat="43.10932" lon="13.1272583"><ele>359.0</ele><time>2026-04-12T08:43:49.429Z</time></trkpt><trkpt lat="43.10922" lon="13.1273783"><ele>357.33333333333337</ele><time>2026-04-12T08:43:50.429Z</time></trkpt><trkpt lat="43.1091417" lon="13.1275367"><ele>355.6666666666667</ele><time>2026-04-12T08:43:51.43Z</time></trkpt><trkpt lat="43.1090867" lon="13.127735"><ele>354.0</ele><time>2026-04-12T08:43:52.43Z</time></trkpt><trkpt lat="43.109045" lon="13.1279417"><ele>358.25</ele><time>2026-04-12T08:43:53.429Z</time></trkpt><trkpt lat="43.1089933" lon="13.12813"><ele>362.5</ele><time>2026-04-12T08:43:54.429Z</time></trkpt><trkpt lat="43.1089183" lon="13.128275"><ele>366.75</ele><time>2026-04-12T08:43:55.429Z</time></trkpt><trkpt lat="43.1088283" lon="13.1283717"><ele>371.0</ele><time>2026-04-12T08:43:56.428Z</time></trkpt><trkpt lat="43.1087283" lon="13.1284167"><ele>371.0</ele><time>2026-04-12T08:43:57.429Z</time></trkpt><trkpt lat="43.1086133" lon="13.1284283"><ele>371.0</ele><time>2026-04-12T08:43:58.428Z</time></trkpt><trkpt lat="43.108485" lon="13.1284233"><ele>371.0</ele><time>2026-04-12T08:43:59.429Z</time></trkpt><trkpt lat="43.10834" lon="13.128415"><ele>371.0</ele><time>2026-04-12T08:44:00.428Z</time></trkpt><trkpt lat="43.10818" lon="13.12841"><ele>372.33333333333337</ele><time>2026-04-12T08:44:01.43Z</time></trkpt><trkpt lat="43.108015" lon="13.128405"><ele>373.6666666666667</ele><time>2026-04-12T08:44:02.429Z</time></trkpt><trkpt lat="43.1078433" lon="13.128405"><ele>375.0</ele><time>2026-04-12T08:44:03.427Z</time></trkpt><trkpt lat="43.107685" lon="13.1284083"><ele>375.0</ele><time>2026-04-12T08:44:04.428Z</time></trkpt><trkpt lat="43.1075433" lon="13.128415"><ele>375.0</ele><time>2026-04-12T08:44:05.43Z</time></trkpt><trkpt lat="43.1073983" lon="13.128425"><ele>375.0</ele><time>2026-04-12T08:44:06.427Z</time></trkpt><trkpt lat="43.1072367" lon="13.1284383"><ele>375.0</ele><time>2026-04-12T08:44:07.43Z</time></trkpt><trkpt lat="43.1070583" lon="13.1284483"><ele>374.6666666666667</ele><time>2026-04-12T08:44:08.428Z</time></trkpt><trkpt lat="43.1068733" lon="13.1284583"><ele>374.33333333333337</ele><time>2026-04-12T08:44:09.428Z</time></trkpt><trkpt lat="43.1066833" lon="13.1284733"><ele>374.0</ele><time>2026-04-12T08:44:10.428Z</time></trkpt><trkpt lat="43.1064867" lon="13.1285017"><ele>373.0</ele><time>2026-04-12T08:44:11.429Z</time></trkpt><trkpt lat="43.1062833" lon="13.1285417"><ele>372.0</ele><time>2026-04-12T08:44:12.429Z</time></trkpt><trkpt lat="43.10608" lon="13.1285933"><ele>371.0</ele><time>2026-04-12T08:44:13.429Z</time></trkpt><trkpt lat="43.1058767" lon="13.1286633"><ele>370.33333333333337</ele><time>2026-04-12T08:44:14.429Z</time></trkpt><trkpt lat="43.1056817" lon="13.1287417"><ele>369.6666666666667</ele><time>2026-04-12T08:44:15.43Z</time></trkpt><trkpt lat="43.1054967" lon="13.1288217"><ele>369.0</ele><time>2026-04-12T08:44:16.431Z</time></trkpt><trkpt lat="43.1053217" lon="13.128905"><ele>369.0</ele><time>2026-04-12T08:44:17.429Z</time></trkpt><trkpt lat="43.105165" lon="13.1289667"><ele>369.0</ele><time>2026-04-12T08:44:18.43Z</time></trkpt><trkpt lat="43.1050133" lon="13.1289983"><ele>369.0</ele><time>2026-04-12T08:44:19.429Z</time></trkpt><trkpt lat="43.104865" lon="13.12901"><ele>366.6666666666667</ele><time>2026-04-12T08:44:20.428Z</time></trkpt><trkpt lat="43.104715" lon="13.1289683"><ele>364.33333333333337</ele><time>2026-04-12T08:44:21.427Z</time></trkpt><trkpt lat="43.1045633" lon="13.128855"><ele>362.0</ele><time>2026-04-12T08:44:22.429Z</time></trkpt><trkpt lat="43.104405" lon="13.128735"><ele>362.0</ele><time>2026-04-12T08:44:23.431Z</time></trkpt><trkpt lat="43.1042333" lon="13.1286217"><ele>362.0</ele><time>2026-04-12T08:44:24.429Z</time></trkpt><trkpt lat="43.1040517" lon="13.1285333"><ele>362.0</ele><time>2026-04-12T08:44:25.43Z</time></trkpt><trkpt lat="43.103865" lon="13.1284567"><ele>361.6666666666667</ele><time>2026-04-12T08:44:26.432Z</time></trkpt><trkpt lat="43.1036783" lon="13.128395"><ele>361.3333333333333</ele><time>2026-04-12T08:44:27.43Z</time></trkpt><trkpt lat="43.1034967" lon="13.1283417"><ele>361.0</ele><time>2026-04-12T08:44:28.43Z</time></trkpt><trkpt lat="43.1033217" lon="13.1282933"><ele>360.66666666666663</ele><time>2026-04-12T08:44:29.429Z</time></trkpt><trkpt lat="43.1031433" lon="13.128255"><ele>360.3333333333333</ele><time>2026-04-12T08:44:30.432Z</time></trkpt><trkpt lat="43.1029617" lon="13.1282233"><ele>360.0</ele><time>2026-04-12T08:44:31.429Z</time></trkpt><trkpt lat="43.1027783" lon="13.1282033"><ele>364.0</ele><time>2026-04-12T08:44:32.443Z</time></trkpt><trkpt lat="43.1025983" lon="13.1281933"><ele>368.0</ele><time>2026-04-12T08:44:33.432Z</time></trkpt><trkpt lat="43.1024283" lon="13.1281883"><ele>372.0</ele><time>2026-04-12T08:44:34.429Z</time></trkpt><trkpt lat="43.1022667" lon="13.1281833"><ele>372.25</ele><time>2026-04-12T08:44:35.429Z</time></trkpt><trkpt lat="43.1021117" lon="13.1281817"><ele>372.5</ele><time>2026-04-12T08:44:36.43Z</time></trkpt><trkpt lat="43.1019667" lon="13.128205"><ele>372.75</ele><time>2026-04-12T08:44:37.427Z</time></trkpt><trkpt lat="43.10183" lon="13.128255"><ele>373.0</ele><time>2026-04-12T08:44:38.431Z</time></trkpt><trkpt lat="43.1016967" lon="13.1283133"><ele>370.0</ele><time>2026-04-12T08:44:39.43Z</time></trkpt><trkpt lat="43.101565" lon="13.1283717"><ele>367.0</ele><time>2026-04-12T08:44:40.429Z</time></trkpt><trkpt lat="43.1014383" lon="13.1283983"><ele>364.0</ele><time>2026-04-12T08:44:41.431Z</time></trkpt><trkpt lat="43.101325" lon="13.1283717"><ele>361.0</ele><time>2026-04-12T08:44:42.43Z</time></trkpt><trkpt lat="43.1012133" lon="13.1283"><ele>362.5</ele><time>2026-04-12T08:44:43.429Z</time></trkpt><trkpt lat="43.101115" lon="13.12819"><ele>364.0</ele><time>2026-04-12T08:44:44.431Z</time></trkpt><trkpt lat="43.1010217" lon="13.128065"><ele>365.5</ele><time>2026-04-12T08:44:45.429Z</time></trkpt><trkpt lat="43.1009217" lon="13.127935"><ele>367.0</ele><time>2026-04-12T08:44:46.43Z</time></trkpt><trkpt lat="43.10081" lon="13.12779"><ele>367.0</ele><time>2026-04-12T08:44:47.429Z</time></trkpt><trkpt lat="43.1006833" lon="13.12762"><ele>367.0</ele><time>2026-04-12T08:44:48.427Z</time></trkpt><trkpt lat="43.100555" lon="13.12744"><ele>367.0</ele><time>2026-04-12T08:44:49.432Z</time></trkpt><trkpt lat="43.10042" lon="13.1272517"><ele>367.0</ele><time>2026-04-12T08:44:50.432Z</time></trkpt><trkpt lat="43.1002783" lon="13.1270467"><ele>367.0</ele><time>2026-04-12T08:44:51.432Z</time></trkpt><trkpt lat="43.1001417" lon="13.1268333"><ele>367.0</ele><time>2026-04-12T08:44:52.429Z</time></trkpt><trkpt lat="43.100015" lon="13.1266167"><ele>367.66666666666663</ele><time>2026-04-12T08:44:53.431Z</time></trkpt><trkpt lat="43.0998967" lon="13.1264067"><ele>368.3333333333333</ele><time>2026-04-12T08:44:54.431Z</time></trkpt><trkpt lat="43.09978" lon="13.1262033"><ele>369.0</ele><time>2026-04-12T08:44:55.427Z</time></trkpt><trkpt lat="43.0996683" lon="13.126"><ele>369.0</ele><time>2026-04-12T08:44:56.43Z</time></trkpt><trkpt lat="43.0995633" lon="13.1257933"><ele>369.0</ele><time>2026-04-12T08:44:57.432Z</time></trkpt><trkpt lat="43.0994783" lon="13.1255683"><ele>369.0</ele><time>2026-04-12T08:44:58.427Z</time></trkpt><trkpt lat="43.09942" lon="13.12533"><ele>371.3333333333333</ele><time>2026-04-12T08:44:59.428Z</time></trkpt><trkpt lat="43.0993783" lon="13.1250967"><ele>373.66666666666663</ele><time>2026-04-12T08:45:00.432Z</time></trkpt><trkpt lat="43.09932" lon="13.124875"><ele>376.0</ele><time>2026-04-12T08:45:01.43Z</time></trkpt><trkpt lat="43.0992383" lon="13.1246733"><ele>376.3333333333333</ele><time>2026-04-12T08:45:02.429Z</time></trkpt><trkpt lat="43.0991333" lon="13.1245"><ele>376.6666666666667</ele><time>2026-04-12T08:45:03.425Z</time></trkpt><trkpt lat="43.09899" lon="13.1243517"><ele>377.0</ele><time>2026-04-12T08:45:04.43Z</time></trkpt><trkpt lat="43.0988283" lon="13.1242"><ele>382.6666666666667</ele><time>2026-04-12T08:45:05.428Z</time></trkpt><trkpt lat="43.0986667" lon="13.1240383"><ele>388.33333333333337</ele><time>2026-04-12T08:45:06.43Z</time></trkpt><trkpt lat="43.0984967" lon="13.1238767"><ele>394.0</ele><time>2026-04-12T08:45:07.431Z</time></trkpt><trkpt lat="43.0983267" lon="13.1237233"><ele>388.6666666666667</ele><time>2026-04-12T08:45:08.429Z</time></trkpt><trkpt lat="43.0981583" lon="13.1235767"><ele>383.33333333333337</ele><time>2026-04-12T08:45:09.429Z</time></trkpt><trkpt lat="43.0979933" lon="13.1234317"><ele>378.0</ele><time>2026-04-12T08:45:10.427Z</time></trkpt><trkpt lat="43.0978283" lon="13.12329"><ele>381.33333333333337</ele><time>2026-04-12T08:45:11.428Z</time></trkpt><trkpt lat="43.0976667" lon="13.1231517"><ele>384.6666666666667</ele><time>2026-04-12T08:45:12.43Z</time></trkpt><trkpt lat="43.0975133" lon="13.123015"><ele>388.0</ele><time>2026-04-12T08:45:13.43Z</time></trkpt><trkpt lat="43.097365" lon="13.1228867"><ele>388.0</ele><time>2026-04-12T08:45:14.431Z</time></trkpt><trkpt lat="43.0972167" lon="13.1227767"><ele>388.0</ele><time>2026-04-12T08:45:15.426Z</time></trkpt><trkpt lat="43.097055" lon="13.1227033"><ele>388.0</ele><time>2026-04-12T08:45:16.43Z</time></trkpt><trkpt lat="43.09688" lon="13.1226633"><ele>388.0</ele><time>2026-04-12T08:45:17.426Z</time></trkpt><trkpt lat="43.0966917" lon="13.122665"><ele>388.0</ele><time>2026-04-12T08:45:18.432Z</time></trkpt><trkpt lat="43.096495" lon="13.122675"><ele>388.0</ele><time>2026-04-12T08:45:19.43Z</time></trkpt><trkpt lat="43.0962933" lon="13.12269"><ele>385.33333333333337</ele><time>2026-04-12T08:45:20.43Z</time></trkpt><trkpt lat="43.09609" lon="13.1227033"><ele>382.6666666666667</ele><time>2026-04-12T08:45:21.431Z</time></trkpt><trkpt lat="43.0958883" lon="13.1227083"><ele>380.0</ele><time>2026-04-12T08:45:22.431Z</time></trkpt><trkpt lat="43.095685" lon="13.122695"><ele>378.6666666666667</ele><time>2026-04-12T08:45:23.434Z</time></trkpt><trkpt lat="43.0954867" lon="13.1226583"><ele>377.3333333333333</ele><time>2026-04-12T08:45:24.427Z</time></trkpt><trkpt lat="43.0952883" lon="13.1226067"><ele>376.0</ele><time>2026-04-12T08:45:25.431Z</time></trkpt><trkpt lat="43.0950933" lon="13.1225483"><ele>375.3333333333333</ele><time>2026-04-12T08:45:26.432Z</time></trkpt><trkpt lat="43.0949033" lon="13.12248"><ele>374.6666666666667</ele><time>2026-04-12T08:45:27.43Z</time></trkpt><trkpt lat="43.09472" lon="13.1223933"><ele>374.0</ele><time>2026-04-12T08:45:28.432Z</time></trkpt><trkpt lat="43.0945367" lon="13.1222967"><ele>376.0</ele><time>2026-04-12T08:45:29.431Z</time></trkpt><trkpt lat="43.0943583" lon="13.12219"><ele>378.0</ele><time>2026-04-12T08:45:30.431Z</time></trkpt><trkpt lat="43.094185" lon="13.122075"><ele>380.0</ele><time>2026-04-12T08:45:31.43Z</time></trkpt><trkpt lat="43.0940117" lon="13.12195"><ele>380.0</ele><time>2026-04-12T08:45:32.432Z</time></trkpt><trkpt lat="43.0938383" lon="13.12182"><ele>380.0</ele><time>2026-04-12T08:45:33.43Z</time></trkpt><trkpt lat="43.0936633" lon="13.12169"><ele>380.0</ele><time>2026-04-12T08:45:34.426Z</time></trkpt><trkpt lat="43.0934883" lon="13.1215567"><ele>380.0</ele><time>2026-04-12T08:45:35.431Z</time></trkpt><trkpt lat="43.0933133" lon="13.1214267"><ele>380.0</ele><time>2026-04-12T08:45:36.432Z</time></trkpt><trkpt lat="43.0931433" lon="13.121295"><ele>380.0</ele><time>2026-04-12T08:45:37.433Z</time></trkpt><trkpt lat="43.092975" lon="13.1211583"><ele>380.0</ele><time>2026-04-12T08:45:38.431Z</time></trkpt><trkpt lat="43.092805" lon="13.121025"><ele>380.0</ele><time>2026-04-12T08:45:39.43Z</time></trkpt><trkpt lat="43.092635" lon="13.1208933"><ele>380.0</ele><time>2026-04-12T08:45:40.429Z</time></trkpt><trkpt lat="43.0924783" lon="13.1207633"><ele>379.0</ele><time>2026-04-12T08:45:41.429Z</time></trkpt><trkpt lat="43.0923433" lon="13.12061"><ele>378.0</ele><time>2026-04-12T08:45:42.43Z</time></trkpt><trkpt lat="43.0922333" lon="13.120435"><ele>377.0</ele><time>2026-04-12T08:45:43.428Z</time></trkpt><trkpt lat="43.0921533" lon="13.1202233"><ele>377.0</ele><time>2026-04-12T08:45:44.427Z</time></trkpt><trkpt lat="43.0921" lon="13.12"><ele>377.0</ele><time>2026-04-12T08:45:45.429Z</time></trkpt><trkpt lat="43.0920867" lon="13.119765"><ele>377.0</ele><time>2026-04-12T08:45:46.43Z</time></trkpt><trkpt lat="43.0920783" lon="13.119545"><ele>376.75</ele><time>2026-04-12T08:45:47.43Z</time></trkpt><trkpt lat="43.0920633" lon="13.1193417"><ele>376.5</ele><time>2026-04-12T08:45:48.427Z</time></trkpt><trkpt lat="43.0920383" lon="13.1191617"><ele>376.25</ele><time>2026-04-12T08:45:49.431Z</time></trkpt><trkpt lat="43.092" lon="13.1189983"><ele>376.0</ele><time>2026-04-12T08:45:50.428Z</time></trkpt><trkpt lat="43.091945" lon="13.1188517"><ele>376.75</ele><time>2026-04-12T08:45:51.429Z</time></trkpt><trkpt lat="43.09188" lon="13.1187117"><ele>377.5</ele><time>2026-04-12T08:45:52.429Z</time></trkpt><trkpt lat="43.0918133" lon="13.11857"><ele>378.25</ele><time>2026-04-12T08:45:53.432Z</time></trkpt><trkpt lat="43.0917483" lon="13.1184333"><ele>379.0</ele><time>2026-04-12T08:45:54.432Z</time></trkpt><trkpt lat="43.0916783" lon="13.1182983"><ele>379.0</ele><time>2026-04-12T08:45:55.429Z</time></trkpt><trkpt lat="43.0916033" lon="13.1181667"><ele>379.0</ele><time>2026-04-12T08:45:56.427Z</time></trkpt><trkpt lat="43.09153" lon="13.1180383"><ele>379.0</ele><time>2026-04-12T08:45:57.432Z</time></trkpt><trkpt lat="43.0914533" lon="13.11791"><ele>379.0</ele><time>2026-04-12T08:45:58.43Z</time></trkpt><trkpt lat="43.09137" lon="13.1177783"><ele>379.0</ele><time>2026-04-12T08:45:59.428Z</time></trkpt><trkpt lat="43.091285" lon="13.117645"><ele>379.0</ele><time>2026-04-12T08:46:00.427Z</time></trkpt><trkpt lat="43.0912" lon="13.117505"><ele>379.0</ele><time>2026-04-12T08:46:01.431Z</time></trkpt><trkpt lat="43.0911167" lon="13.11736"><ele>379.0</ele><time>2026-04-12T08:46:02.43Z</time></trkpt><trkpt lat="43.0910417" lon="13.11721"><ele>379.5</ele><time>2026-04-12T08:46:03.429Z</time></trkpt><trkpt lat="43.09098" lon="13.11706"><ele>380.0</ele><time>2026-04-12T08:46:04.431Z</time></trkpt><trkpt lat="43.0909517" lon="13.11689"><ele>380.5</ele><time>2026-04-12T08:46:05.431Z</time></trkpt><trkpt lat="43.090945" lon="13.1167067"><ele>381.0</ele><time>2026-04-12T08:46:06.429Z</time></trkpt><trkpt lat="43.0909517" lon="13.1165"><ele>381.3333333333333</ele><time>2026-04-12T08:46:07.429Z</time></trkpt><trkpt lat="43.0909583" lon="13.1162867"><ele>381.66666666666663</ele><time>2026-04-12T08:46:08.426Z</time></trkpt><trkpt lat="43.09096" lon="13.116065"><ele>382.0</ele><time>2026-04-12T08:46:09.426Z</time></trkpt><trkpt lat="43.0909567" lon="13.1158383"><ele>382.66666666666663</ele><time>2026-04-12T08:46:10.427Z</time></trkpt><trkpt lat="43.090955" lon="13.1156033"><ele>383.3333333333333</ele><time>2026-04-12T08:46:11.426Z</time></trkpt><trkpt lat="43.0909533" lon="13.1153583"><ele>384.0</ele><time>2026-04-12T08:46:12.429Z</time></trkpt><trkpt lat="43.0909517" lon="13.115105"><ele>384.33333333333337</ele><time>2026-04-12T08:46:13.43Z</time></trkpt><trkpt lat="43.090955" lon="13.1148433"><ele>384.6666666666667</ele><time>2026-04-12T08:46:14.431Z</time></trkpt><trkpt lat="43.0909567" lon="13.11458"><ele>385.0</ele><time>2026-04-12T08:46:15.429Z</time></trkpt><trkpt lat="43.0909567" lon="13.1143117"><ele>385.0</ele><time>2026-04-12T08:46:16.432Z</time></trkpt><trkpt lat="43.0909567" lon="13.1140417"><ele>385.0</ele><time>2026-04-12T08:46:17.436Z</time></trkpt><trkpt lat="43.0909533" lon="13.11377"><ele>385.0</ele><time>2026-04-12T08:46:18.429Z</time></trkpt><trkpt lat="43.090945" lon="13.1134983"><ele>385.33333333333337</ele><time>2026-04-12T08:46:19.432Z</time></trkpt><trkpt lat="43.09093" lon="13.1132283"><ele>385.66666666666663</ele><time>2026-04-12T08:46:20.432Z</time></trkpt><trkpt lat="43.0909067" lon="13.1129583"><ele>386.0</ele><time>2026-04-12T08:46:21.426Z</time></trkpt><trkpt lat="43.090865" lon="13.112695"><ele>386.0</ele><time>2026-04-12T08:46:22.431Z</time></trkpt><trkpt lat="43.09081" lon="13.1124333"><ele>386.0</ele><time>2026-04-12T08:46:23.43Z</time></trkpt><trkpt lat="43.0907367" lon="13.1121783"><ele>386.0</ele><time>2026-04-12T08:46:24.438Z</time></trkpt><trkpt lat="43.090645" lon="13.1119333"><ele>385.66666666666663</ele><time>2026-04-12T08:46:25.43Z</time></trkpt><trkpt lat="43.0905433" lon="13.1116967"><ele>385.33333333333337</ele><time>2026-04-12T08:46:26.433Z</time></trkpt><trkpt lat="43.0904317" lon="13.1114733"><ele>385.0</ele><time>2026-04-12T08:46:27.429Z</time></trkpt><trkpt lat="43.0903183" lon="13.1112667"><ele>388.33333333333337</ele><time>2026-04-12T08:46:28.428Z</time></trkpt><trkpt lat="43.0901983" lon="13.1110783"><ele>391.66666666666663</ele><time>2026-04-12T08:46:29.433Z</time></trkpt><trkpt lat="43.090075" lon="13.1109067"><ele>395.0</ele><time>2026-04-12T08:46:30.431Z</time></trkpt><trkpt lat="43.08995" lon="13.1107483"><ele>396.0</ele><time>2026-04-12T08:46:31.429Z</time></trkpt><trkpt lat="43.0898267" lon="13.11059"><ele>397.0</ele><time>2026-04-12T08:46:32.432Z</time></trkpt><trkpt lat="43.089715" lon="13.1104183"><ele>398.0</ele><time>2026-04-12T08:46:33.432Z</time></trkpt><trkpt lat="43.0896217" lon="13.1102267"><ele>398.0</ele><time>2026-04-12T08:46:34.427Z</time></trkpt><trkpt lat="43.0895483" lon="13.1100217"><ele>398.0</ele><time>2026-04-12T08:46:35.427Z</time></trkpt><trkpt lat="43.08949" lon="13.1098033"><ele>398.0</ele><time>2026-04-12T08:46:36.429Z</time></trkpt><trkpt lat="43.0894433" lon="13.1095817"><ele>400.0</ele><time>2026-04-12T08:46:37.43Z</time></trkpt><trkpt lat="43.0894133" lon="13.1093533"><ele>402.0</ele><time>2026-04-12T08:46:38.43Z</time></trkpt><trkpt lat="43.0893883" lon="13.1091183"><ele>404.0</ele><time>2026-04-12T08:46:39.429Z</time></trkpt><trkpt lat="43.0893667" lon="13.1088817"><ele>404.0</ele><time>2026-04-12T08:46:40.433Z</time></trkpt><trkpt lat="43.08934" lon="13.1086483"><ele>404.0</ele><time>2026-04-12T08:46:41.431Z</time></trkpt><trkpt lat="43.0893033" lon="13.108425"><ele>404.0</ele><time>2026-04-12T08:46:42.428Z</time></trkpt><trkpt lat="43.0892583" lon="13.1082033"><ele>404.3333333333333</ele><time>2026-04-12T08:46:43.428Z</time></trkpt><trkpt lat="43.0891983" lon="13.1079817"><ele>404.66666666666663</ele><time>2026-04-12T08:46:44.43Z</time></trkpt><trkpt lat="43.089125" lon="13.1077667"><ele>405.0</ele><time>2026-04-12T08:46:45.428Z</time></trkpt><trkpt lat="43.089045" lon="13.1075533"><ele>404.66666666666663</ele><time>2026-04-12T08:46:46.427Z</time></trkpt><trkpt lat="43.088965" lon="13.1073383"><ele>404.3333333333333</ele><time>2026-04-12T08:46:47.428Z</time></trkpt><trkpt lat="43.08888" lon="13.1071267"><ele>404.0</ele><time>2026-04-12T08:46:48.429Z</time></trkpt><trkpt lat="43.0887967" lon="13.106915"><ele>404.0</ele><time>2026-04-12T08:46:49.428Z</time></trkpt><trkpt lat="43.0887183" lon="13.1067033"><ele>404.0</ele><time>2026-04-12T08:46:50.428Z</time></trkpt><trkpt lat="43.0886383" lon="13.1064917"><ele>404.0</ele><time>2026-04-12T08:46:51.432Z</time></trkpt><trkpt lat="43.08856" lon="13.1062783"><ele>404.3333333333333</ele><time>2026-04-12T08:46:52.429Z</time></trkpt><trkpt lat="43.08848" lon="13.1060633"><ele>404.66666666666663</ele><time>2026-04-12T08:46:53.431Z</time></trkpt><trkpt lat="43.0884017" lon="13.1058483"><ele>405.0</ele><time>2026-04-12T08:46:54.427Z</time></trkpt><trkpt lat="43.088325" lon="13.10563"><ele>402.66666666666663</ele><time>2026-04-12T08:46:55.429Z</time></trkpt><trkpt lat="43.08825" lon="13.10541"><ele>400.3333333333333</ele><time>2026-04-12T08:46:56.432Z</time></trkpt><trkpt lat="43.0881733" lon="13.1051883"><ele>398.0</ele><time>2026-04-12T08:46:57.43Z</time></trkpt><trkpt lat="43.0880967" lon="13.10497"><ele>398.3333333333333</ele><time>2026-04-12T08:46:58.432Z</time></trkpt><trkpt lat="43.08802" lon="13.1047517"><ele>398.66666666666663</ele><time>2026-04-12T08:46:59.429Z</time></trkpt><trkpt lat="43.0879433" lon="13.104535"><ele>399.0</ele><time>2026-04-12T08:47:00.429Z</time></trkpt><trkpt lat="43.0878633" lon="13.1043183"><ele>399.0</ele><time>2026-04-12T08:47:01.428Z</time></trkpt><trkpt lat="43.0877867" lon="13.104105"><ele>399.0</ele><time>2026-04-12T08:47:02.43Z</time></trkpt><trkpt lat="43.0877083" lon="13.1038933"><ele>399.0</ele><time>2026-04-12T08:47:03.431Z</time></trkpt><trkpt lat="43.0876283" lon="13.10368"><ele>399.0</ele><time>2026-04-12T08:47:04.431Z</time></trkpt><trkpt lat="43.0875417" lon="13.1034717"><ele>399.0</ele><time>2026-04-12T08:47:05.43Z</time></trkpt><trkpt lat="43.08745" lon="13.103265"><ele>399.0</ele><time>2026-04-12T08:47:06.43Z</time></trkpt><trkpt lat="43.0873583" lon="13.10306"><ele>399.0</ele><time>2026-04-12T08:47:07.429Z</time></trkpt><trkpt lat="43.0872617" lon="13.1028517"><ele>399.0</ele><time>2026-04-12T08:47:08.432Z</time></trkpt><trkpt lat="43.0871567" lon="13.10264"><ele>399.0</ele><time>2026-04-12T08:47:09.43Z</time></trkpt><trkpt lat="43.0870417" lon="13.1024267"><ele>401.0</ele><time>2026-04-12T08:47:10.428Z</time></trkpt><trkpt lat="43.0869217" lon="13.10221"><ele>403.0</ele><time>2026-04-12T08:47:11.43Z</time></trkpt><trkpt lat="43.0867933" lon="13.101995"><ele>405.0</ele><time>2026-04-12T08:47:12.43Z</time></trkpt><trkpt lat="43.08666" lon="13.1017817"><ele>404.33333333333337</ele><time>2026-04-12T08:47:13.43Z</time></trkpt><trkpt lat="43.0865283" lon="13.1015767"><ele>403.6666666666667</ele><time>2026-04-12T08:47:14.43Z</time></trkpt><trkpt lat="43.0863967" lon="13.1013767"><ele>403.0</ele><time>2026-04-12T08:47:15.427Z</time></trkpt><trkpt lat="43.08626" lon="13.1011783"><ele>403.0</ele><time>2026-04-12T08:47:16.429Z</time></trkpt><trkpt lat="43.0861233" lon="13.1009767"><ele>403.0</ele><time>2026-04-12T08:47:17.43Z</time></trkpt><trkpt lat="43.0859867" lon="13.1007733"><ele>403.0</ele><time>2026-04-12T08:47:18.427Z</time></trkpt><trkpt lat="43.08585" lon="13.1005667"><ele>402.0</ele><time>2026-04-12T08:47:19.43Z</time></trkpt><trkpt lat="43.0857117" lon="13.1003617"><ele>401.0</ele><time>2026-04-12T08:47:20.431Z</time></trkpt><trkpt lat="43.0855717" lon="13.1001567"><ele>400.0</ele><time>2026-04-12T08:47:21.429Z</time></trkpt><trkpt lat="43.085435" lon="13.0999517"><ele>402.33333333333337</ele><time>2026-04-12T08:47:22.43Z</time></trkpt><trkpt lat="43.0853033" lon="13.0997433"><ele>404.66666666666663</ele><time>2026-04-12T08:47:23.43Z</time></trkpt><trkpt lat="43.08518" lon="13.09953"><ele>407.0</ele><time>2026-04-12T08:47:24.429Z</time></trkpt><trkpt lat="43.085065" lon="13.0993117"><ele>409.0</ele><time>2026-04-12T08:47:25.43Z</time></trkpt><trkpt lat="43.084955" lon="13.0990833"><ele>411.0</ele><time>2026-04-12T08:47:26.43Z</time></trkpt><trkpt lat="43.08485" lon="13.0988467"><ele>413.0</ele><time>2026-04-12T08:47:27.433Z</time></trkpt><trkpt lat="43.0847483" lon="13.098605"><ele>410.3333333333333</ele><time>2026-04-12T08:47:28.43Z</time></trkpt><trkpt lat="43.0846467" lon="13.09836"><ele>407.66666666666663</ele><time>2026-04-12T08:47:29.43Z</time></trkpt><trkpt lat="43.0845467" lon="13.0981133"><ele>405.0</ele><time>2026-04-12T08:47:30.43Z</time></trkpt><trkpt lat="43.084445" lon="13.0978683"><ele>405.0</ele><time>2026-04-12T08:47:31.43Z</time></trkpt><trkpt lat="43.0843367" lon="13.0976283"><ele>405.0</ele><time>2026-04-12T08:47:32.431Z</time></trkpt><trkpt lat="43.084215" lon="13.0973933"><ele>405.0</ele><time>2026-04-12T08:47:33.431Z</time></trkpt><trkpt lat="43.0840883" lon="13.097165"><ele>403.66666666666663</ele><time>2026-04-12T08:47:34.429Z</time></trkpt><trkpt lat="43.083955" lon="13.096945"><ele>402.3333333333333</ele><time>2026-04-12T08:47:35.43Z</time></trkpt><trkpt lat="43.083815" lon="13.0967417"><ele>401.0</ele><time>2026-04-12T08:47:36.43Z</time></trkpt><trkpt lat="43.083665" lon="13.09656"><ele>400.3333333333333</ele><time>2026-04-12T08:47:37.427Z</time></trkpt><trkpt lat="43.0835117" lon="13.0963917"><ele>399.66666666666663</ele><time>2026-04-12T08:47:38.429Z</time></trkpt><trkpt lat="43.0833533" lon="13.096235"><ele>399.0</ele><time>2026-04-12T08:47:39.435Z</time></trkpt><trkpt lat="43.0831917" lon="13.0960833"><ele>399.0</ele><time>2026-04-12T08:47:40.429Z</time></trkpt><trkpt lat="43.083035" lon="13.095925"><ele>399.0</ele><time>2026-04-12T08:47:41.432Z</time></trkpt><trkpt lat="43.0828933" lon="13.09575"><ele>399.0</ele><time>2026-04-12T08:47:42.432Z</time></trkpt><trkpt lat="43.0827733" lon="13.0955483"><ele>400.0</ele><time>2026-04-12T08:47:43.428Z</time></trkpt><trkpt lat="43.0826833" lon="13.09532"><ele>401.0</ele><time>2026-04-12T08:47:44.43Z</time></trkpt><trkpt lat="43.082625" lon="13.09507"><ele>402.0</ele><time>2026-04-12T08:47:45.432Z</time></trkpt><trkpt lat="43.0825833" lon="13.094805"><ele>401.0</ele><time>2026-04-12T08:47:46.43Z</time></trkpt><trkpt lat="43.0825467" lon="13.0945283"><ele>400.0</ele><time>2026-04-12T08:47:47.428Z</time></trkpt><trkpt lat="43.0824983" lon="13.0942517"><ele>399.0</ele><time>2026-04-12T08:47:48.43Z</time></trkpt><trkpt lat="43.08243" lon="13.0939783"><ele>399.0</ele><time>2026-04-12T08:47:49.432Z</time></trkpt><trkpt lat="43.0823483" lon="13.0937167"><ele>399.0</ele><time>2026-04-12T08:47:50.429Z</time></trkpt><trkpt lat="43.0822567" lon="13.0934617"><ele>399.0</ele><time>2026-04-12T08:47:51.429Z</time></trkpt><trkpt lat="43.0821617" lon="13.09321"><ele>400.66666666666663</ele><time>2026-04-12T08:47:52.428Z</time></trkpt><trkpt lat="43.08207" lon="13.0929567"><ele>402.3333333333333</ele><time>2026-04-12T08:47:53.429Z</time></trkpt><trkpt lat="43.0819783" lon="13.0927017"><ele>404.0</ele><time>2026-04-12T08:47:54.428Z</time></trkpt><trkpt lat="43.0818883" lon="13.0924483"><ele>406.3333333333333</ele><time>2026-04-12T08:47:55.43Z</time></trkpt><trkpt lat="43.0818017" lon="13.0921933"><ele>408.66666666666663</ele><time>2026-04-12T08:47:56.428Z</time></trkpt><trkpt lat="43.08172" lon="13.0919333"><ele>411.0</ele><time>2026-04-12T08:47:57.429Z</time></trkpt><trkpt lat="43.0816417" lon="13.0916783"><ele>410.0</ele><time>2026-04-12T08:47:58.426Z</time></trkpt><trkpt lat="43.081565" lon="13.0914233"><ele>409.0</ele><time>2026-04-12T08:47:59.431Z</time></trkpt><trkpt lat="43.0814883" lon="13.09117"><ele>408.0</ele><time>2026-04-12T08:48:00.431Z</time></trkpt><trkpt lat="43.08142" lon="13.0909033"><ele>408.33333333333337</ele><time>2026-04-12T08:48:01.432Z</time></trkpt><trkpt lat="43.0813517" lon="13.0906383"><ele>408.6666666666667</ele><time>2026-04-12T08:48:02.431Z</time></trkpt><trkpt lat="43.0812833" lon="13.0903683"><ele>409.0</ele><time>2026-04-12T08:48:03.432Z</time></trkpt><trkpt lat="43.0812133" lon="13.0901017"><ele>409.6666666666667</ele><time>2026-04-12T08:48:04.43Z</time></trkpt><trkpt lat="43.08114" lon="13.08983"><ele>410.33333333333337</ele><time>2026-04-12T08:48:05.431Z</time></trkpt><trkpt lat="43.0810633" lon="13.0895633"><ele>411.0</ele><time>2026-04-12T08:48:06.43Z</time></trkpt><trkpt lat="43.08099" lon="13.0893017"><ele>411.66666666666663</ele><time>2026-04-12T08:48:07.428Z</time></trkpt><trkpt lat="43.0809183" lon="13.08905"><ele>412.3333333333333</ele><time>2026-04-12T08:48:08.43Z</time></trkpt><trkpt lat="43.0808517" lon="13.08881"><ele>413.0</ele><time>2026-04-12T08:48:09.429Z</time></trkpt><trkpt lat="43.0807867" lon="13.0885767"><ele>410.66666666666663</ele><time>2026-04-12T08:48:10.431Z</time></trkpt><trkpt lat="43.0807233" lon="13.08835"><ele>408.33333333333337</ele><time>2026-04-12T08:48:11.431Z</time></trkpt><trkpt lat="43.08066" lon="13.0881267"><ele>406.0</ele><time>2026-04-12T08:48:12.429Z</time></trkpt><trkpt lat="43.0805983" lon="13.0879033"><ele>406.0</ele><time>2026-04-12T08:48:13.429Z</time></trkpt><trkpt lat="43.0805283" lon="13.087675"><ele>406.0</ele><time>2026-04-12T08:48:14.427Z</time></trkpt><trkpt lat="43.0804583" lon="13.0874433"><ele>406.0</ele><time>2026-04-12T08:48:15.428Z</time></trkpt><trkpt lat="43.0803867" lon="13.087215"><ele>406.0</ele><time>2026-04-12T08:48:16.429Z</time></trkpt><trkpt lat="43.08032" lon="13.08699"><ele>406.0</ele><time>2026-04-12T08:48:17.43Z</time></trkpt><trkpt lat="43.0802533" lon="13.08676"><ele>406.0</ele><time>2026-04-12T08:48:18.426Z</time></trkpt><trkpt lat="43.0801883" lon="13.0865367"><ele>406.0</ele><time>2026-04-12T08:48:19.429Z</time></trkpt><trkpt lat="43.0801267" lon="13.086315"><ele>406.0</ele><time>2026-04-12T08:48:20.429Z</time></trkpt><trkpt lat="43.0800633" lon="13.0860983"><ele>406.0</ele><time>2026-04-12T08:48:21.431Z</time></trkpt><trkpt lat="43.0799983" lon="13.08589"><ele>406.33333333333337</ele><time>2026-04-12T08:48:22.43Z</time></trkpt><trkpt lat="43.079935" lon="13.0856883"><ele>406.66666666666663</ele><time>2026-04-12T08:48:23.429Z</time></trkpt><trkpt lat="43.0798783" lon="13.0855033"><ele>407.0</ele><time>2026-04-12T08:48:24.428Z</time></trkpt><trkpt lat="43.0798233" lon="13.0853133"><ele>407.0</ele><time>2026-04-12T08:48:25.427Z</time></trkpt><trkpt lat="43.0797617" lon="13.0851117"><ele>407.0</ele><time>2026-04-12T08:48:26.429Z</time></trkpt><trkpt lat="43.079695" lon="13.0849"><ele>407.0</ele><time>2026-04-12T08:48:27.43Z</time></trkpt><trkpt lat="43.0796283" lon="13.0846767"><ele>408.0</ele><time>2026-04-12T08:48:28.427Z</time></trkpt><trkpt lat="43.0795617" lon="13.084455"><ele>409.0</ele><time>2026-04-12T08:48:29.426Z</time></trkpt><trkpt lat="43.0794883" lon="13.0842283"><ele>410.0</ele><time>2026-04-12T08:48:30.431Z</time></trkpt><trkpt lat="43.07942" lon="13.0840083"><ele>410.3333333333333</ele><time>2026-04-12T08:48:31.429Z</time></trkpt><trkpt lat="43.0793583" lon="13.08379"><ele>410.66666666666663</ele><time>2026-04-12T08:48:32.429Z</time></trkpt><trkpt lat="43.0793" lon="13.0835767"><ele>411.0</ele><time>2026-04-12T08:48:33.428Z</time></trkpt><trkpt lat="43.0792467" lon="13.083365"><ele>411.66666666666663</ele><time>2026-04-12T08:48:34.431Z</time></trkpt><trkpt lat="43.079195" lon="13.0831517"><ele>412.3333333333333</ele><time>2026-04-12T08:48:35.428Z</time></trkpt><trkpt lat="43.07914" lon="13.0829317"><ele>413.0</ele><time>2026-04-12T08:48:36.432Z</time></trkpt><trkpt lat="43.0790867" lon="13.0827033"><ele>412.3333333333333</ele><time>2026-04-12T08:48:37.43Z</time></trkpt><trkpt lat="43.07904" lon="13.0824817"><ele>411.66666666666663</ele><time>2026-04-12T08:48:38.432Z</time></trkpt><trkpt lat="43.079" lon="13.08227"><ele>411.0</ele><time>2026-04-12T08:48:39.427Z</time></trkpt><trkpt lat="43.0789617" lon="13.08206"><ele>411.0</ele><time>2026-04-12T08:48:40.427Z</time></trkpt><trkpt lat="43.0789317" lon="13.0818533"><ele>411.0</ele><time>2026-04-12T08:48:41.428Z</time></trkpt><trkpt lat="43.078915" lon="13.0816533"><ele>411.0</ele><time>2026-04-12T08:48:42.426Z</time></trkpt><trkpt lat="43.0789067" lon="13.0814633"><ele>411.0</ele><time>2026-04-12T08:48:43.429Z</time></trkpt><trkpt lat="43.078915" lon="13.0812783"><ele>410.5</ele><time>2026-04-12T08:48:44.427Z</time></trkpt><trkpt lat="43.0789433" lon="13.0811067"><ele>410.0</ele><time>2026-04-12T08:48:45.43Z</time></trkpt><trkpt lat="43.0789883" lon="13.0809533"><ele>409.5</ele><time>2026-04-12T08:48:46.429Z</time></trkpt><trkpt lat="43.0790317" lon="13.080785"><ele>409.0</ele><time>2026-04-12T08:48:47.431Z</time></trkpt><trkpt lat="43.0790683" lon="13.0805983"><ele>409.0</ele><time>2026-04-12T08:48:48.428Z</time></trkpt><trkpt lat="43.0790933" lon="13.0803867"><ele>409.0</ele><time>2026-04-12T08:48:49.43Z</time></trkpt><trkpt lat="43.0791183" lon="13.0801533"><ele>409.0</ele><time>2026-04-12T08:48:50.428Z</time></trkpt><trkpt lat="43.0791433" lon="13.079915"><ele>410.33333333333337</ele><time>2026-04-12T08:48:51.428Z</time></trkpt><trkpt lat="43.0791717" lon="13.079665"><ele>411.66666666666663</ele><time>2026-04-12T08:48:52.429Z</time></trkpt><trkpt lat="43.0791983" lon="13.079415"><ele>413.0</ele><time>2026-04-12T08:48:53.427Z</time></trkpt><trkpt lat="43.0792217" lon="13.0791583"><ele>412.66666666666663</ele><time>2026-04-12T08:48:54.429Z</time></trkpt><trkpt lat="43.079245" lon="13.0789033"><ele>412.33333333333337</ele><time>2026-04-12T08:48:55.429Z</time></trkpt><trkpt lat="43.0792717" lon="13.0786517"><ele>412.0</ele><time>2026-04-12T08:48:56.431Z</time></trkpt><trkpt lat="43.0793033" lon="13.078395"><ele>412.0</ele><time>2026-04-12T08:48:57.428Z</time></trkpt><trkpt lat="43.0793317" lon="13.0781317"><ele>412.0</ele><time>2026-04-12T08:48:58.43Z</time></trkpt><trkpt lat="43.07935" lon="13.0778683"><ele>412.0</ele><time>2026-04-12T08:48:59.428Z</time></trkpt><trkpt lat="43.0793633" lon="13.077605"><ele>412.33333333333337</ele><time>2026-04-12T08:49:00.429Z</time></trkpt><trkpt lat="43.07937" lon="13.077345"><ele>412.66666666666663</ele><time>2026-04-12T08:49:01.43Z</time></trkpt><trkpt lat="43.07938" lon="13.077085"><ele>413.0</ele><time>2026-04-12T08:49:02.428Z</time></trkpt><trkpt lat="43.0793867" lon="13.0768267"><ele>413.3333333333333</ele><time>2026-04-12T08:49:03.428Z</time></trkpt><trkpt lat="43.0793933" lon="13.0765717"><ele>413.66666666666663</ele><time>2026-04-12T08:49:04.433Z</time></trkpt><trkpt lat="43.0793983" lon="13.0763183"><ele>414.0</ele><time>2026-04-12T08:49:05.432Z</time></trkpt><trkpt lat="43.0793917" lon="13.0760617"><ele>414.0</ele><time>2026-04-12T08:49:06.428Z</time></trkpt><trkpt lat="43.0793667" lon="13.0758133"><ele>414.0</ele><time>2026-04-12T08:49:07.43Z</time></trkpt><trkpt lat="43.079325" lon="13.0755833"><ele>414.0</ele><time>2026-04-12T08:49:08.429Z</time></trkpt><trkpt lat="43.0792683" lon="13.0753867"><ele>414.4</ele><time>2026-04-12T08:49:09.428Z</time></trkpt><trkpt lat="43.0792" lon="13.0752217"><ele>414.79999999999995</ele><time>2026-04-12T08:49:10.427Z</time></trkpt><trkpt lat="43.079155" lon="13.0750767"><ele>415.20000000000005</ele><time>2026-04-12T08:49:11.434Z</time></trkpt><trkpt lat="43.0791417" lon="13.07494"><ele>415.6</ele><time>2026-04-12T08:49:12.431Z</time></trkpt><trkpt lat="43.0791533" lon="13.0748167"><ele>416.0</ele><time>2026-04-12T08:49:13.431Z</time></trkpt><trkpt lat="43.0791767" lon="13.074695"><ele>415.8</ele><time>2026-04-12T08:49:14.43Z</time></trkpt><trkpt lat="43.0791817" lon="13.074565"><ele>415.6</ele><time>2026-04-12T08:49:15.428Z</time></trkpt><trkpt lat="43.0791483" lon="13.0744333"><ele>415.4</ele><time>2026-04-12T08:49:16.429Z</time></trkpt><trkpt lat="43.0790717" lon="13.0743167"><ele>415.2</ele><time>2026-04-12T08:49:17.431Z</time></trkpt><trkpt lat="43.0789767" lon="13.07421"><ele>415.0</ele><time>2026-04-12T08:49:18.432Z</time></trkpt><trkpt lat="43.0788833" lon="13.074085"><ele>416.0</ele><time>2026-04-12T08:49:19.43Z</time></trkpt><trkpt lat="43.0788" lon="13.073905"><ele>417.0</ele><time>2026-04-12T08:49:20.433Z</time></trkpt><trkpt lat="43.07872" lon="13.073705"><ele>418.0</ele><time>2026-04-12T08:49:21.429Z</time></trkpt><trkpt lat="43.07863" lon="13.0734967"><ele>418.0</ele><time>2026-04-12T08:49:22.426Z</time></trkpt><trkpt lat="43.0785367" lon="13.0732817"><ele>418.0</ele><time>2026-04-12T08:49:23.429Z</time></trkpt><trkpt lat="43.0784433" lon="13.073055"><ele>418.0</ele><time>2026-04-12T08:49:24.431Z</time></trkpt><trkpt lat="43.0783533" lon="13.07282"><ele>417.33333333333337</ele><time>2026-04-12T08:49:25.43Z</time></trkpt><trkpt lat="43.0782667" lon="13.0725817"><ele>416.66666666666663</ele><time>2026-04-12T08:49:26.431Z</time></trkpt><trkpt lat="43.0781817" lon="13.0723383"><ele>416.0</ele><time>2026-04-12T08:49:27.43Z</time></trkpt><trkpt lat="43.078095" lon="13.0720917"><ele>416.0</ele><time>2026-04-12T08:49:28.429Z</time></trkpt><trkpt lat="43.0780067" lon="13.0718433"><ele>416.0</ele><time>2026-04-12T08:49:29.428Z</time></trkpt><trkpt lat="43.0779183" lon="13.0715933"><ele>416.0</ele><time>2026-04-12T08:49:30.432Z</time></trkpt><trkpt lat="43.07783" lon="13.0713417"><ele>417.0</ele><time>2026-04-12T08:49:31.428Z</time></trkpt><trkpt lat="43.0777417" lon="13.0710883"><ele>418.0</ele><time>2026-04-12T08:49:32.429Z</time></trkpt><trkpt lat="43.0776533" lon="13.0708367"><ele>419.0</ele><time>2026-04-12T08:49:33.429Z</time></trkpt><trkpt lat="43.0775683" lon="13.070585"><ele>419.66666666666663</ele><time>2026-04-12T08:49:34.434Z</time></trkpt><trkpt lat="43.0774833" lon="13.0703383"><ele>420.33333333333337</ele><time>2026-04-12T08:49:35.429Z</time></trkpt><trkpt lat="43.0773967" lon="13.0700883"><ele>421.0</ele><time>2026-04-12T08:49:36.427Z</time></trkpt><trkpt lat="43.0773183" lon="13.0698433"><ele>421.0</ele><time>2026-04-12T08:49:37.428Z</time></trkpt><trkpt lat="43.0772433" lon="13.0695967"><ele>421.0</ele><time>2026-04-12T08:49:38.43Z</time></trkpt><trkpt lat="43.077165" lon="13.069355"><ele>421.0</ele><time>2026-04-12T08:49:39.431Z</time></trkpt><trkpt lat="43.0770867" lon="13.0691133"><ele>421.33333333333337</ele><time>2026-04-12T08:49:40.439Z</time></trkpt><trkpt lat="43.0770083" lon="13.0688733"><ele>421.66666666666663</ele><time>2026-04-12T08:49:41.43Z</time></trkpt><trkpt lat="43.07693" lon="13.0686333"><ele>422.0</ele><time>2026-04-12T08:49:42.429Z</time></trkpt><trkpt lat="43.0768567" lon="13.0683967"><ele>422.0</ele><time>2026-04-12T08:49:43.431Z</time></trkpt><trkpt lat="43.0767883" lon="13.0681583"><ele>422.0</ele><time>2026-04-12T08:49:44.433Z</time></trkpt><trkpt lat="43.076725" lon="13.0679183"><ele>422.0</ele><time>2026-04-12T08:49:45.43Z</time></trkpt><trkpt lat="43.0766633" lon="13.0676767"><ele>423.0</ele><time>2026-04-12T08:49:46.429Z</time></trkpt><trkpt lat="43.07661" lon="13.067435"><ele>424.0</ele><time>2026-04-12T08:49:47.431Z</time></trkpt><trkpt lat="43.076575" lon="13.0671883"><ele>425.0</ele><time>2026-04-12T08:49:48.429Z</time></trkpt><trkpt lat="43.0765683" lon="13.0669367"><ele>425.0</ele><time>2026-04-12T08:49:49.431Z</time></trkpt><trkpt lat="43.0765783" lon="13.0666883"><ele>425.0</ele><time>2026-04-12T08:49:50.441Z</time></trkpt><trkpt lat="43.0765983" lon="13.0664417"><ele>425.0</ele><time>2026-04-12T08:49:51.43Z</time></trkpt><trkpt lat="43.0766133" lon="13.0662067"><ele>426.3333333333333</ele><time>2026-04-12T08:49:52.431Z</time></trkpt><trkpt lat="43.07662" lon="13.0659767"><ele>427.66666666666663</ele><time>2026-04-12T08:49:53.43Z</time></trkpt><trkpt lat="43.076595" lon="13.065765"><ele>429.0</ele><time>2026-04-12T08:49:54.428Z</time></trkpt><trkpt lat="43.0765283" lon="13.06556"><ele>429.0</ele><time>2026-04-12T08:49:55.427Z</time></trkpt><trkpt lat="43.0764267" lon="13.065365"><ele>429.0</ele><time>2026-04-12T08:49:56.431Z</time></trkpt><trkpt lat="43.0763" lon="13.06519"><ele>429.0</ele><time>2026-04-12T08:49:57.427Z</time></trkpt><trkpt lat="43.0761617" lon="13.0650267"><ele>429.66666666666663</ele><time>2026-04-12T08:49:58.43Z</time></trkpt><trkpt lat="43.0760267" lon="13.06486"><ele>430.3333333333333</ele><time>2026-04-12T08:49:59.429Z</time></trkpt><trkpt lat="43.0759217" lon="13.06468"><ele>431.0</ele><time>2026-04-12T08:50:00.427Z</time></trkpt><trkpt lat="43.0758467" lon="13.0644917"><ele>431.0</ele><time>2026-04-12T08:50:01.43Z</time></trkpt><trkpt lat="43.0757933" lon="13.06429"><ele>431.0</ele><time>2026-04-12T08:50:02.433Z</time></trkpt><trkpt lat="43.075755" lon="13.0640667"><ele>431.0</ele><time>2026-04-12T08:50:03.43Z</time></trkpt><trkpt lat="43.0757217" lon="13.06383"><ele>430.3333333333333</ele><time>2026-04-12T08:50:04.428Z</time></trkpt><trkpt lat="43.0756883" lon="13.0635817"><ele>429.66666666666663</ele><time>2026-04-12T08:50:05.43Z</time></trkpt><trkpt lat="43.07566" lon="13.063325"><ele>429.0</ele><time>2026-04-12T08:50:06.429Z</time></trkpt><trkpt lat="43.0756383" lon="13.0630683"><ele>429.0</ele><time>2026-04-12T08:50:07.43Z</time></trkpt><trkpt lat="43.0756183" lon="13.0628067"><ele>429.0</ele><time>2026-04-12T08:50:08.428Z</time></trkpt><trkpt lat="43.0755983" lon="13.062545"><ele>429.0</ele><time>2026-04-12T08:50:09.429Z</time></trkpt><trkpt lat="43.0755867" lon="13.0622783"><ele>429.33333333333337</ele><time>2026-04-12T08:50:10.431Z</time></trkpt><trkpt lat="43.0755783" lon="13.0620117"><ele>429.6666666666667</ele><time>2026-04-12T08:50:11.43Z</time></trkpt><trkpt lat="43.0755783" lon="13.061745"><ele>430.0</ele><time>2026-04-12T08:50:12.436Z</time></trkpt><trkpt lat="43.0755883" lon="13.06148"><ele>430.33333333333337</ele><time>2026-04-12T08:50:13.432Z</time></trkpt><trkpt lat="43.0756183" lon="13.0612183"><ele>430.66666666666663</ele><time>2026-04-12T08:50:14.432Z</time></trkpt><trkpt lat="43.07567" lon="13.0609567"><ele>431.0</ele><time>2026-04-12T08:50:15.43Z</time></trkpt><trkpt lat="43.0757283" lon="13.0606983"><ele>433.0</ele><time>2026-04-12T08:50:16.427Z</time></trkpt><trkpt lat="43.0757917" lon="13.0604433"><ele>435.0</ele><time>2026-04-12T08:50:17.429Z</time></trkpt><trkpt lat="43.075855" lon="13.0601833"><ele>437.0</ele><time>2026-04-12T08:50:18.429Z</time></trkpt><trkpt lat="43.0759233" lon="13.059925"><ele>437.0</ele><time>2026-04-12T08:50:19.429Z</time></trkpt><trkpt lat="43.0759933" lon="13.05967"><ele>437.0</ele><time>2026-04-12T08:50:20.432Z</time></trkpt><trkpt lat="43.0760633" lon="13.059415"><ele>437.0</ele><time>2026-04-12T08:50:21.429Z</time></trkpt><trkpt lat="43.0761317" lon="13.0591617"><ele>436.3333333333333</ele><time>2026-04-12T08:50:22.432Z</time></trkpt><trkpt lat="43.0762" lon="13.0589067"><ele>435.66666666666663</ele><time>2026-04-12T08:50:23.43Z</time></trkpt><trkpt lat="43.076265" lon="13.05865"><ele>435.0</ele><time>2026-04-12T08:50:24.431Z</time></trkpt><trkpt lat="43.0763283" lon="13.05839"><ele>434.66666666666663</ele><time>2026-04-12T08:50:25.43Z</time></trkpt><trkpt lat="43.07639" lon="13.05813"><ele>434.3333333333333</ele><time>2026-04-12T08:50:26.431Z</time></trkpt><trkpt lat="43.0764533" lon="13.0578717"><ele>434.0</ele><time>2026-04-12T08:50:27.426Z</time></trkpt><trkpt lat="43.076515" lon="13.057615"><ele>434.3333333333333</ele><time>2026-04-12T08:50:28.428Z</time></trkpt><trkpt lat="43.076585" lon="13.05736"><ele>434.66666666666663</ele><time>2026-04-12T08:50:29.432Z</time></trkpt><trkpt lat="43.076665" lon="13.0571083"><ele>435.0</ele><time>2026-04-12T08:50:30.43Z</time></trkpt><trkpt lat="43.07675" lon="13.0568583"><ele>435.66666666666663</ele><time>2026-04-12T08:50:31.429Z</time></trkpt><trkpt lat="43.076835" lon="13.056605"><ele>436.3333333333333</ele><time>2026-04-12T08:50:32.43Z</time></trkpt><trkpt lat="43.0769317" lon="13.0563583"><ele>437.0</ele><time>2026-04-12T08:50:33.431Z</time></trkpt><trkpt lat="43.0770317" lon="13.05612"><ele>437.0</ele><time>2026-04-12T08:50:34.434Z</time></trkpt><trkpt lat="43.07713" lon="13.0558733"><ele>437.0</ele><time>2026-04-12T08:50:35.43Z</time></trkpt><trkpt lat="43.0772317" lon="13.0556367"><ele>437.0</ele><time>2026-04-12T08:50:36.431Z</time></trkpt><trkpt lat="43.0773467" lon="13.0554083"><ele>438.0</ele><time>2026-04-12T08:50:37.426Z</time></trkpt><trkpt lat="43.0774717" lon="13.0551933"><ele>439.0</ele><time>2026-04-12T08:50:38.431Z</time></trkpt><trkpt lat="43.0776017" lon="13.0549867"><ele>440.0</ele><time>2026-04-12T08:50:39.429Z</time></trkpt><trkpt lat="43.0777333" lon="13.0547767"><ele>440.0</ele><time>2026-04-12T08:50:40.428Z</time></trkpt><trkpt lat="43.077865" lon="13.0545667"><ele>440.0</ele><time>2026-04-12T08:50:41.427Z</time></trkpt><trkpt lat="43.0779967" lon="13.0543533"><ele>440.0</ele><time>2026-04-12T08:50:42.431Z</time></trkpt><trkpt lat="43.0781317" lon="13.0541417"><ele>440.3333333333333</ele><time>2026-04-12T08:50:43.43Z</time></trkpt><trkpt lat="43.0782683" lon="13.0539267"><ele>440.66666666666663</ele><time>2026-04-12T08:50:44.428Z</time></trkpt><trkpt lat="43.0784017" lon="13.0537067"><ele>441.0</ele><time>2026-04-12T08:50:45.432Z</time></trkpt><trkpt lat="43.0785367" lon="13.0534883"><ele>440.66666666666663</ele><time>2026-04-12T08:50:46.43Z</time></trkpt><trkpt lat="43.07867" lon="13.0532733"><ele>440.3333333333333</ele><time>2026-04-12T08:50:47.43Z</time></trkpt><trkpt lat="43.0788" lon="13.0530633"><ele>440.0</ele><time>2026-04-12T08:50:48.433Z</time></trkpt><trkpt lat="43.07893" lon="13.0528567"><ele>440.0</ele><time>2026-04-12T08:50:49.431Z</time></trkpt><trkpt lat="43.0790567" lon="13.05265"><ele>440.0</ele><time>2026-04-12T08:50:50.426Z</time></trkpt><trkpt lat="43.0791833" lon="13.0524417"><ele>440.0</ele><time>2026-04-12T08:50:51.428Z</time></trkpt><trkpt lat="43.0793133" lon="13.0522367"><ele>441.3333333333333</ele><time>2026-04-12T08:50:52.431Z</time></trkpt><trkpt lat="43.0794417" lon="13.052025"><ele>442.66666666666663</ele><time>2026-04-12T08:50:53.429Z</time></trkpt><trkpt lat="43.07957" lon="13.0518167"><ele>444.0</ele><time>2026-04-12T08:50:54.432Z</time></trkpt><trkpt lat="43.0797" lon="13.0516067"><ele>444.33333333333337</ele><time>2026-04-12T08:50:55.43Z</time></trkpt><trkpt lat="43.0798283" lon="13.0514033"><ele>444.6666666666667</ele><time>2026-04-12T08:50:56.432Z</time></trkpt><trkpt lat="43.0799483" lon="13.0512117"><ele>445.0</ele><time>2026-04-12T08:50:57.43Z</time></trkpt><trkpt lat="43.0800583" lon="13.0510317"><ele>445.6666666666667</ele><time>2026-04-12T08:50:58.43Z</time></trkpt><trkpt lat="43.0801667" lon="13.0508533"><ele>446.33333333333337</ele><time>2026-04-12T08:50:59.429Z</time></trkpt><trkpt lat="43.0802683" lon="13.0506683"><ele>447.0</ele><time>2026-04-12T08:51:00.429Z</time></trkpt><trkpt lat="43.080355" lon="13.05048"><ele>447.0</ele><time>2026-04-12T08:51:01.427Z</time></trkpt><trkpt lat="43.080425" lon="13.0502817"><ele>447.0</ele><time>2026-04-12T08:51:02.43Z</time></trkpt><trkpt lat="43.08047" lon="13.0500667"><ele>447.0</ele><time>2026-04-12T08:51:03.433Z</time></trkpt><trkpt lat="43.0805033" lon="13.0498283"><ele>447.0</ele><time>2026-04-12T08:51:04.431Z</time></trkpt><trkpt lat="43.08054" lon="13.04957"><ele>447.0</ele><time>2026-04-12T08:51:05.43Z</time></trkpt><trkpt lat="43.08058" lon="13.049305"><ele>447.0</ele><time>2026-04-12T08:51:06.432Z</time></trkpt><trkpt lat="43.08062" lon="13.04904"><ele>447.66666666666663</ele><time>2026-04-12T08:51:07.433Z</time></trkpt><trkpt lat="43.0806617" lon="13.0487717"><ele>448.3333333333333</ele><time>2026-04-12T08:51:08.427Z</time></trkpt><trkpt lat="43.0807" lon="13.0485067"><ele>449.0</ele><time>2026-04-12T08:51:09.428Z</time></trkpt><trkpt lat="43.0807367" lon="13.0482417"><ele>449.3333333333333</ele><time>2026-04-12T08:51:10.429Z</time></trkpt><trkpt lat="43.0807733" lon="13.0479767"><ele>449.66666666666663</ele><time>2026-04-12T08:51:11.431Z</time></trkpt><trkpt lat="43.080805" lon="13.0477133"><ele>450.0</ele><time>2026-04-12T08:51:12.431Z</time></trkpt><trkpt lat="43.0808333" lon="13.0474517"><ele>450.0</ele><time>2026-04-12T08:51:13.43Z</time></trkpt><trkpt lat="43.08085" lon="13.04719"><ele>450.0</ele><time>2026-04-12T08:51:14.432Z</time></trkpt><trkpt lat="43.0808517" lon="13.0469267"><ele>450.0</ele><time>2026-04-12T08:51:15.43Z</time></trkpt><trkpt lat="43.08085" lon="13.0466633"><ele>450.33333333333337</ele><time>2026-04-12T08:51:16.43Z</time></trkpt><trkpt lat="43.0808417" lon="13.046395"><ele>450.6666666666667</ele><time>2026-04-12T08:51:17.431Z</time></trkpt><trkpt lat="43.0808283" lon="13.04612"><ele>451.0</ele><time>2026-04-12T08:51:18.43Z</time></trkpt><trkpt lat="43.0808167" lon="13.0458483"><ele>451.6666666666667</ele><time>2026-04-12T08:51:19.428Z</time></trkpt><trkpt lat="43.0808033" lon="13.0455733"><ele>452.33333333333337</ele><time>2026-04-12T08:51:20.431Z</time></trkpt><trkpt lat="43.08079" lon="13.0453033"><ele>453.0</ele><time>2026-04-12T08:51:21.428Z</time></trkpt><trkpt lat="43.0807767" lon="13.04504"><ele>455.0</ele><time>2026-04-12T08:51:22.426Z</time></trkpt><trkpt lat="43.0807633" lon="13.044795"><ele>457.0</ele><time>2026-04-12T08:51:23.434Z</time></trkpt><trkpt lat="43.0807483" lon="13.04456"><ele>459.0</ele><time>2026-04-12T08:51:24.429Z</time></trkpt><trkpt lat="43.0807367" lon="13.0443317"><ele>459.33333333333337</ele><time>2026-04-12T08:51:25.431Z</time></trkpt><trkpt lat="43.08073" lon="13.0441"><ele>459.6666666666667</ele><time>2026-04-12T08:51:26.43Z</time></trkpt><trkpt lat="43.0807233" lon="13.0438683"><ele>460.0</ele><time>2026-04-12T08:51:27.428Z</time></trkpt><trkpt lat="43.0807167" lon="13.0436483"><ele>460.0</ele><time>2026-04-12T08:51:28.429Z</time></trkpt><trkpt lat="43.080705" lon="13.0434283"><ele>460.0</ele><time>2026-04-12T08:51:29.428Z</time></trkpt><trkpt lat="43.0806983" lon="13.043225"><ele>460.0</ele><time>2026-04-12T08:51:30.427Z</time></trkpt><trkpt lat="43.08069" lon="13.04303"><ele>460.5</ele><time>2026-04-12T08:51:31.431Z</time></trkpt><trkpt lat="43.0806817" lon="13.042845"><ele>461.0</ele><time>2026-04-12T08:51:32.426Z</time></trkpt><trkpt lat="43.0806733" lon="13.0426733"><ele>461.5</ele><time>2026-04-12T08:51:33.427Z</time></trkpt><trkpt lat="43.080665" lon="13.04251"><ele>462.0</ele><time>2026-04-12T08:51:34.429Z</time></trkpt><trkpt lat="43.08066" lon="13.0423433"><ele>462.75</ele><time>2026-04-12T08:51:35.431Z</time></trkpt><trkpt lat="43.0806617" lon="13.04217"><ele>463.5</ele><time>2026-04-12T08:51:36.427Z</time></trkpt><trkpt lat="43.0806583" lon="13.04199"><ele>464.25</ele><time>2026-04-12T08:51:37.426Z</time></trkpt><trkpt lat="43.0806533" lon="13.0418133"><ele>465.0</ele><time>2026-04-12T08:51:38.429Z</time></trkpt><trkpt lat="43.0806417" lon="13.0416483"><ele>465.75</ele><time>2026-04-12T08:51:39.428Z</time></trkpt><trkpt lat="43.0806333" lon="13.0414833"><ele>466.5</ele><time>2026-04-12T08:51:40.43Z</time></trkpt><trkpt lat="43.0806233" lon="13.0413133"><ele>467.25</ele><time>2026-04-12T08:51:41.427Z</time></trkpt><trkpt lat="43.0806117" lon="13.0411417"><ele>468.0</ele><time>2026-04-12T08:51:42.43Z</time></trkpt><trkpt lat="43.0805983" lon="13.0409717"><ele>468.0</ele><time>2026-04-12T08:51:43.43Z</time></trkpt><trkpt lat="43.0805883" lon="13.0408083"><ele>468.0</ele><time>2026-04-12T08:51:44.431Z</time></trkpt><trkpt lat="43.0805783" lon="13.04065"><ele>468.0</ele><time>2026-04-12T08:51:45.434Z</time></trkpt><trkpt lat="43.0805717" lon="13.0404983"><ele>468.0</ele><time>2026-04-12T08:51:46.43Z</time></trkpt><trkpt lat="43.0805683" lon="13.0403467"><ele>468.79999999999995</ele><time>2026-04-12T08:51:47.432Z</time></trkpt><trkpt lat="43.08056" lon="13.0402"><ele>469.59999999999997</ele><time>2026-04-12T08:51:48.429Z</time></trkpt><trkpt lat="43.0805533" lon="13.0400617"><ele>470.40000000000003</ele><time>2026-04-12T08:51:49.434Z</time></trkpt><trkpt lat="43.08055" lon="13.0399317"><ele>471.20000000000005</ele><time>2026-04-12T08:51:50.432Z</time></trkpt><trkpt lat="43.080545" lon="13.0397983"><ele>472.0</ele><time>2026-04-12T08:51:51.432Z</time></trkpt><trkpt lat="43.0805417" lon="13.0396583"><ele>473.40000000000003</ele><time>2026-04-12T08:51:52.432Z</time></trkpt><trkpt lat="43.080535" lon="13.0395167"><ele>474.80000000000007</ele><time>2026-04-12T08:51:53.43Z</time></trkpt><trkpt lat="43.0805267" lon="13.0393767"><ele>476.2</ele><time>2026-04-12T08:51:54.432Z</time></trkpt><trkpt lat="43.0805067" lon="13.039235"><ele>477.6</ele><time>2026-04-12T08:51:55.434Z</time></trkpt><trkpt lat="43.0804733" lon="13.0390917"><ele>479.0</ele><time>2026-04-12T08:51:56.431Z</time></trkpt><trkpt lat="43.080415" lon="13.0389433"><ele>479.3333333333333</ele><time>2026-04-12T08:51:57.429Z</time></trkpt><trkpt lat="43.0803317" lon="13.0387733"><ele>479.66666666666663</ele><time>2026-04-12T08:51:58.429Z</time></trkpt><trkpt lat="43.0802417" lon="13.0385883"><ele>480.0</ele><time>2026-04-12T08:51:59.428Z</time></trkpt><trkpt lat="43.08016" lon="13.0383833"><ele>476.66666666666663</ele><time>2026-04-12T08:52:00.429Z</time></trkpt><trkpt lat="43.080075" lon="13.0381583"><ele>473.3333333333333</ele><time>2026-04-12T08:52:01.43Z</time></trkpt><trkpt lat="43.07999" lon="13.037925"><ele>470.0</ele><time>2026-04-12T08:52:02.429Z</time></trkpt><trkpt lat="43.0799083" lon="13.0376833"><ele>479.0</ele><time>2026-04-12T08:52:03.431Z</time></trkpt><trkpt lat="43.0798217" lon="13.0374333"><ele>488.0</ele><time>2026-04-12T08:52:04.429Z</time></trkpt><trkpt lat="43.0797283" lon="13.037185"><ele>497.0</ele><time>2026-04-12T08:52:05.429Z</time></trkpt><trkpt lat="43.07963" lon="13.03694"><ele>497.0</ele><time>2026-04-12T08:52:06.432Z</time></trkpt><trkpt lat="43.07953" lon="13.0367017"><ele>497.0</ele><time>2026-04-12T08:52:07.431Z</time></trkpt><trkpt lat="43.0794267" lon="13.0364733"><ele>497.0</ele><time>2026-04-12T08:52:08.434Z</time></trkpt><trkpt lat="43.0793367" lon="13.0362483"><ele>492.0</ele><time>2026-04-12T08:52:09.428Z</time></trkpt><trkpt lat="43.0792583" lon="13.03603"><ele>487.0</ele><time>2026-04-12T08:52:10.429Z</time></trkpt><trkpt lat="43.079175" lon="13.03583"><ele>482.0</ele><time>2026-04-12T08:52:11.429Z</time></trkpt><trkpt lat="43.079065" lon="13.0356583"><ele>482.0</ele><time>2026-04-12T08:52:12.429Z</time></trkpt><trkpt lat="43.07892" lon="13.03551"><ele>482.0</ele><time>2026-04-12T08:52:13.438Z</time></trkpt><trkpt lat="43.07874" lon="13.03537"><ele>482.0</ele><time>2026-04-12T08:52:14.428Z</time></trkpt><trkpt lat="43.0785667" lon="13.0352"><ele>482.0</ele><time>2026-04-12T08:52:15.428Z</time></trkpt><trkpt lat="43.0784017" lon="13.0350233"><ele>482.0</ele><time>2026-04-12T08:52:16.429Z</time></trkpt><trkpt lat="43.0782433" lon="13.0348517"><ele>482.0</ele><time>2026-04-12T08:52:17.429Z</time></trkpt><trkpt lat="43.078075" lon="13.034695"><ele>480.0</ele><time>2026-04-12T08:52:18.427Z</time></trkpt><trkpt lat="43.0778917" lon="13.0345617"><ele>478.0</ele><time>2026-04-12T08:52:19.431Z</time></trkpt><trkpt lat="43.0777067" lon="13.0344483"><ele>476.0</ele><time>2026-04-12T08:52:20.43Z</time></trkpt><trkpt lat="43.0775283" lon="13.0343567"><ele>485.66666666666663</ele><time>2026-04-12T08:52:21.427Z</time></trkpt><trkpt lat="43.0773633" lon="13.0342583"><ele>495.33333333333337</ele><time>2026-04-12T08:52:22.428Z</time></trkpt><trkpt lat="43.07721" lon="13.0341317"><ele>505.0</ele><time>2026-04-12T08:52:23.426Z</time></trkpt><trkpt lat="43.0770767" lon="13.03396"><ele>505.0</ele><time>2026-04-12T08:52:24.431Z</time></trkpt><trkpt lat="43.0769783" lon="13.033745"><ele>505.0</ele><time>2026-04-12T08:52:25.431Z</time></trkpt><trkpt lat="43.0769267" lon="13.0334983"><ele>505.0</ele><time>2026-04-12T08:52:26.438Z</time></trkpt><trkpt lat="43.0769283" lon="13.0332317"><ele>507.6666666666667</ele><time>2026-04-12T08:52:27.43Z</time></trkpt><trkpt lat="43.076965" lon="13.0329467"><ele>510.33333333333337</ele><time>2026-04-12T08:52:28.425Z</time></trkpt><trkpt lat="43.0770033" lon="13.03265"><ele>513.0</ele><time>2026-04-12T08:52:29.427Z</time></trkpt><trkpt lat="43.0770283" lon="13.0323517"><ele>518.0</ele><time>2026-04-12T08:52:30.431Z</time></trkpt><trkpt lat="43.0770467" lon="13.032055"><ele>523.0</ele><time>2026-04-12T08:52:31.423Z</time></trkpt><trkpt lat="43.0770567" lon="13.031775"><ele>528.0</ele><time>2026-04-12T08:52:32.423Z</time></trkpt><trkpt lat="43.0770667" lon="13.03151"><ele>528.3333333333334</ele><time>2026-04-12T08:52:33.427Z</time></trkpt><trkpt lat="43.0770833" lon="13.0312317"><ele>528.6666666666667</ele><time>2026-04-12T08:52:34.428Z</time></trkpt><trkpt lat="43.07711" lon="13.0309483"><ele>529.0</ele><time>2026-04-12T08:52:35.428Z</time></trkpt><trkpt lat="43.0771567" lon="13.030675"><ele>529.0</ele><time>2026-04-12T08:52:36.433Z</time></trkpt><trkpt lat="43.0772083" lon="13.03041"><ele>529.0</ele><time>2026-04-12T08:52:37.428Z</time></trkpt><trkpt lat="43.0772333" lon="13.0301717"><ele>529.0</ele><time>2026-04-12T08:52:38.43Z</time></trkpt><trkpt lat="43.0772333" lon="13.0299617"><ele>524.0</ele><time>2026-04-12T08:52:39.429Z</time></trkpt><trkpt lat="43.0771833" lon="13.0297717"><ele>519.0</ele><time>2026-04-12T08:52:40.426Z</time></trkpt><trkpt lat="43.0770933" lon="13.0295683"><ele>514.0</ele><time>2026-04-12T08:52:41.431Z</time></trkpt><trkpt lat="43.0769833" lon="13.0293417"><ele>510.33333333333337</ele><time>2026-04-12T08:52:42.43Z</time></trkpt><trkpt lat="43.0768733" lon="13.0290967"><ele>506.66666666666663</ele><time>2026-04-12T08:52:43.427Z</time></trkpt><trkpt lat="43.0767767" lon="13.0288333"><ele>503.0</ele><time>2026-04-12T08:52:44.429Z</time></trkpt><trkpt lat="43.0766883" lon="13.0285683"><ele>511.66666666666663</ele><time>2026-04-12T08:52:45.431Z</time></trkpt><trkpt lat="43.0765967" lon="13.0283067"><ele>520.3333333333334</ele><time>2026-04-12T08:52:46.434Z</time></trkpt><trkpt lat="43.0765" lon="13.0280583"><ele>529.0</ele><time>2026-04-12T08:52:47.428Z</time></trkpt><trkpt lat="43.0763917" lon="13.0278167"><ele>529.0</ele><time>2026-04-12T08:52:48.432Z</time></trkpt><trkpt lat="43.0762783" lon="13.027575"><ele>529.0</ele><time>2026-04-12T08:52:49.43Z</time></trkpt><trkpt lat="43.0761633" lon="13.0273333"><ele>529.0</ele><time>2026-04-12T08:52:50.43Z</time></trkpt><trkpt lat="43.0760533" lon="13.02709"><ele>523.0</ele><time>2026-04-12T08:52:51.43Z</time></trkpt><trkpt lat="43.0759333" lon="13.0268533"><ele>517.0</ele><time>2026-04-12T08:52:52.427Z</time></trkpt><trkpt lat="43.0758083" lon="13.0266167"><ele>511.0</ele><time>2026-04-12T08:52:53.428Z</time></trkpt><trkpt lat="43.0756783" lon="13.0263933"><ele>511.0</ele><time>2026-04-12T08:52:54.428Z</time></trkpt><trkpt lat="43.075535" lon="13.0261917"><ele>511.0</ele><time>2026-04-12T08:52:55.431Z</time></trkpt><trkpt lat="43.0753767" lon="13.0260133"><ele>511.0</ele><time>2026-04-12T08:52:56.431Z</time></trkpt><trkpt lat="43.0752017" lon="13.0258633"><ele>511.0</ele><time>2026-04-12T08:52:57.429Z</time></trkpt><trkpt lat="43.075015" lon="13.025735"><ele>511.0</ele><time>2026-04-12T08:52:58.429Z</time></trkpt><trkpt lat="43.07482" lon="13.0256133"><ele>511.0</ele><time>2026-04-12T08:52:59.429Z</time></trkpt><trkpt lat="43.074625" lon="13.0254883"><ele>511.0</ele><time>2026-04-12T08:53:00.432Z</time></trkpt><trkpt lat="43.0744383" lon="13.0253567"><ele>511.0</ele><time>2026-04-12T08:53:01.428Z</time></trkpt><trkpt lat="43.0742567" lon="13.0252117"><ele>511.0</ele><time>2026-04-12T08:53:02.434Z</time></trkpt><trkpt lat="43.07408" lon="13.02506"><ele>511.0</ele><time>2026-04-12T08:53:03.431Z</time></trkpt><trkpt lat="43.0739067" lon="13.0249"><ele>511.0</ele><time>2026-04-12T08:53:04.428Z</time></trkpt><trkpt lat="43.0737367" lon="13.0247367"><ele>511.0</ele><time>2026-04-12T08:53:05.432Z</time></trkpt><trkpt lat="43.0735667" lon="13.024565"><ele>511.0</ele><time>2026-04-12T08:53:06.43Z</time></trkpt><trkpt lat="43.0733983" lon="13.0243833"><ele>511.0</ele><time>2026-04-12T08:53:07.429Z</time></trkpt><trkpt lat="43.0732367" lon="13.0241917"><ele>511.0</ele><time>2026-04-12T08:53:08.431Z</time></trkpt><trkpt lat="43.0730933" lon="13.0240017"><ele>518.3333333333334</ele><time>2026-04-12T08:53:09.429Z</time></trkpt><trkpt lat="43.07297" lon="13.0238033"><ele>525.6666666666666</ele><time>2026-04-12T08:53:10.431Z</time></trkpt><trkpt lat="43.07288" lon="13.02357"><ele>533.0</ele><time>2026-04-12T08:53:11.428Z</time></trkpt><trkpt lat="43.0728083" lon="13.0233217"><ele>527.6666666666666</ele><time>2026-04-12T08:53:12.427Z</time></trkpt><trkpt lat="43.0727383" lon="13.0230783"><ele>522.3333333333334</ele><time>2026-04-12T08:53:13.434Z</time></trkpt><trkpt lat="43.0726517" lon="13.0228483"><ele>517.0</ele><time>2026-04-12T08:53:14.431Z</time></trkpt><trkpt lat="43.0725367" lon="13.0226383"><ele>524.0</ele><time>2026-04-12T08:53:15.429Z</time></trkpt><trkpt lat="43.0724133" lon="13.022435"><ele>531.0</ele><time>2026-04-12T08:53:16.43Z</time></trkpt><trkpt lat="43.0722967" lon="13.02223"><ele>538.0</ele><time>2026-04-12T08:53:17.429Z</time></trkpt><trkpt lat="43.0722" lon="13.022"><ele>538.0</ele><time>2026-04-12T08:53:18.432Z</time></trkpt><trkpt lat="43.07213" lon="13.0217417"><ele>538.0</ele><time>2026-04-12T08:53:19.433Z</time></trkpt><trkpt lat="43.0720767" lon="13.0214717"><ele>538.0</ele><time>2026-04-12T08:53:20.435Z</time></trkpt><trkpt lat="43.0720433" lon="13.0212083"><ele>532.6666666666667</ele><time>2026-04-12T08:53:21.431Z</time></trkpt><trkpt lat="43.0719883" lon="13.0209833"><ele>527.3333333333334</ele><time>2026-04-12T08:53:22.44Z</time></trkpt><trkpt lat="43.0719033" lon="13.02078"><ele>522.0</ele><time>2026-04-12T08:53:23.433Z</time></trkpt><trkpt lat="43.071775" lon="13.0206017"><ele>523.6666666666666</ele><time>2026-04-12T08:53:24.43Z</time></trkpt><trkpt lat="43.0716267" lon="13.0204167"><ele>525.3333333333333</ele><time>2026-04-12T08:53:25.429Z</time></trkpt><trkpt lat="43.0714967" lon="13.0201933"><ele>527.0</ele><time>2026-04-12T08:53:26.43Z</time></trkpt><trkpt lat="43.0713817" lon="13.0199367"><ele>527.0</ele><time>2026-04-12T08:53:27.43Z</time></trkpt><trkpt lat="43.0712683" lon="13.0196783"><ele>527.0</ele><time>2026-04-12T08:53:28.43Z</time></trkpt><trkpt lat="43.0711583" lon="13.0194183"><ele>527.0</ele><time>2026-04-12T08:53:29.432Z</time></trkpt><trkpt lat="43.0710433" lon="13.01916"><ele>522.0</ele><time>2026-04-12T08:53:30.431Z</time></trkpt><trkpt lat="43.0709283" lon="13.018905"><ele>517.0</ele><time>2026-04-12T08:53:31.431Z</time></trkpt><trkpt lat="43.07081" lon="13.01866"><ele>512.0</ele><time>2026-04-12T08:53:32.435Z</time></trkpt><trkpt lat="43.070675" lon="13.0184283"><ele>519.3333333333333</ele><time>2026-04-12T08:53:33.433Z</time></trkpt><trkpt lat="43.0705283" lon="13.0182133"><ele>526.6666666666666</ele><time>2026-04-12T08:53:34.43Z</time></trkpt><trkpt lat="43.0703767" lon="13.0180117"><ele>534.0</ele><time>2026-04-12T08:53:35.424Z</time></trkpt><trkpt lat="43.0702383" lon="13.0177967"><ele>534.0</ele><time>2026-04-12T08:53:36.425Z</time></trkpt><trkpt lat="43.0701317" lon="13.0175517"><ele>534.0</ele><time>2026-04-12T08:53:37.43Z</time></trkpt><trkpt lat="43.0700583" lon="13.0172717"><ele>534.0</ele><time>2026-04-12T08:53:38.432Z</time></trkpt><trkpt lat="43.0700083" lon="13.0169817"><ele>530.0</ele><time>2026-04-12T08:53:39.433Z</time></trkpt><trkpt lat="43.06997" lon="13.0166817"><ele>526.0</ele><time>2026-04-12T08:53:40.431Z</time></trkpt><trkpt lat="43.0699183" lon="13.0163867"><ele>522.0</ele><time>2026-04-12T08:53:41.428Z</time></trkpt><trkpt lat="43.0698433" lon="13.0161067"><ele>526.6666666666666</ele><time>2026-04-12T08:53:42.435Z</time></trkpt><trkpt lat="43.0697533" lon="13.0158333"><ele>531.3333333333333</ele><time>2026-04-12T08:53:43.431Z</time></trkpt><trkpt lat="43.0696583" lon="13.0155633"><ele>536.0</ele><time>2026-04-12T08:53:44.432Z</time></trkpt><trkpt lat="43.06956" lon="13.0152917"><ele>536.0</ele><time>2026-04-12T08:53:45.435Z</time></trkpt><trkpt lat="43.0694633" lon="13.0150167"><ele>536.0</ele><time>2026-04-12T08:53:46.431Z</time></trkpt><trkpt lat="43.06938" lon="13.0147417"><ele>536.0</ele><time>2026-04-12T08:53:47.43Z</time></trkpt><trkpt lat="43.0693133" lon="13.0144617"><ele>534.3333333333333</ele><time>2026-04-12T08:53:48.433Z</time></trkpt><trkpt lat="43.0692733" lon="13.0141733"><ele>532.6666666666666</ele><time>2026-04-12T08:53:49.43Z</time></trkpt><trkpt lat="43.06925" lon="13.0138833"><ele>531.0</ele><time>2026-04-12T08:53:50.43Z</time></trkpt><trkpt lat="43.0692483" lon="13.0135967"><ele>529.6666666666666</ele><time>2026-04-12T08:53:51.434Z</time></trkpt><trkpt lat="43.069255" lon="13.01331"><ele>528.3333333333333</ele><time>2026-04-12T08:53:52.431Z</time></trkpt><trkpt lat="43.0692767" lon="13.01303"><ele>527.0</ele><time>2026-04-12T08:53:53.432Z</time></trkpt><trkpt lat="43.0693417" lon="13.0127717"><ele>527.0</ele><time>2026-04-12T08:53:54.432Z</time></trkpt><trkpt lat="43.069455" lon="13.0125483"><ele>527.0</ele><time>2026-04-12T08:53:55.431Z</time></trkpt><trkpt lat="43.06961" lon="13.01235"><ele>527.0</ele><time>2026-04-12T08:53:56.432Z</time></trkpt><trkpt lat="43.0697817" lon="13.01216"><ele>526.3333333333333</ele><time>2026-04-12T08:53:57.431Z</time></trkpt><trkpt lat="43.0699517" lon="13.0119633"><ele>525.6666666666666</ele><time>2026-04-12T08:53:58.431Z</time></trkpt><trkpt lat="43.0701217" lon="13.0117617"><ele>525.0</ele><time>2026-04-12T08:53:59.431Z</time></trkpt><trkpt lat="43.070285" lon="13.01156"><ele>527.6666666666666</ele><time>2026-04-12T08:54:00.431Z</time></trkpt><trkpt lat="43.0704483" lon="13.0113567"><ele>530.3333333333333</ele><time>2026-04-12T08:54:01.43Z</time></trkpt><trkpt lat="43.070605" lon="13.0111483"><ele>533.0</ele><time>2026-04-12T08:54:02.431Z</time></trkpt><trkpt lat="43.070755" lon="13.0109367"><ele>540.6666666666666</ele><time>2026-04-12T08:54:03.43Z</time></trkpt><trkpt lat="43.0709033" lon="13.0107183"><ele>548.3333333333334</ele><time>2026-04-12T08:54:04.428Z</time></trkpt><trkpt lat="43.0710517" lon="13.0105017"><ele>556.0</ele><time>2026-04-12T08:54:05.428Z</time></trkpt><trkpt lat="43.0712117" lon="13.010295"><ele>556.0</ele><time>2026-04-12T08:54:06.433Z</time></trkpt><trkpt lat="43.0713817" lon="13.0100983"><ele>556.0</ele><time>2026-04-12T08:54:07.433Z</time></trkpt><trkpt lat="43.0715467" lon="13.0099017"><ele>556.0</ele><time>2026-04-12T08:54:08.431Z</time></trkpt><trkpt lat="43.07169" lon="13.0096983"><ele>554.6666666666667</ele><time>2026-04-12T08:54:09.429Z</time></trkpt><trkpt lat="43.0718017" lon="13.0094733"><ele>553.3333333333334</ele><time>2026-04-12T08:54:10.429Z</time></trkpt><trkpt lat="43.07189" lon="13.0092233"><ele>552.0</ele><time>2026-04-12T08:54:11.429Z</time></trkpt><trkpt lat="43.071985" lon="13.0089683"><ele>560.3333333333334</ele><time>2026-04-12T08:54:12.431Z</time></trkpt><trkpt lat="43.0721017" lon="13.00872"><ele>568.6666666666667</ele><time>2026-04-12T08:54:13.432Z</time></trkpt><trkpt lat="43.0722233" lon="13.0084817"><ele>577.0</ele><time>2026-04-12T08:54:14.431Z</time></trkpt><trkpt lat="43.072345" lon="13.008245"><ele>568.6666666666667</ele><time>2026-04-12T08:54:15.43Z</time></trkpt><trkpt lat="43.0724617" lon="13.008005"><ele>560.3333333333334</ele><time>2026-04-12T08:54:16.429Z</time></trkpt><trkpt lat="43.0725733" lon="13.00776"><ele>552.0</ele><time>2026-04-12T08:54:17.429Z</time></trkpt><trkpt lat="43.0726867" lon="13.0075083"><ele>559.0</ele><time>2026-04-12T08:54:18.433Z</time></trkpt><trkpt lat="43.0727933" lon="13.0072583"><ele>566.0</ele><time>2026-04-12T08:54:19.429Z</time></trkpt><trkpt lat="43.072905" lon="13.0070117"><ele>573.0</ele><time>2026-04-12T08:54:20.43Z</time></trkpt><trkpt lat="43.0730317" lon="13.0067783"><ele>582.0</ele><time>2026-04-12T08:54:21.43Z</time></trkpt><trkpt lat="43.073165" lon="13.0065567"><ele>591.0</ele><time>2026-04-12T08:54:22.43Z</time></trkpt><trkpt lat="43.07329" lon="13.0063233"><ele>600.0</ele><time>2026-04-12T08:54:23.428Z</time></trkpt><trkpt lat="43.0733867" lon="13.0060667"><ele>586.6666666666666</ele><time>2026-04-12T08:54:24.43Z</time></trkpt><trkpt lat="43.0734583" lon="13.0057967"><ele>573.3333333333333</ele><time>2026-04-12T08:54:25.433Z</time></trkpt><trkpt lat="43.0735433" lon="13.0055283"><ele>560.0</ele><time>2026-04-12T08:54:26.434Z</time></trkpt><trkpt lat="43.07364" lon="13.00528"><ele>560.0</ele><time>2026-04-12T08:54:27.43Z</time></trkpt><trkpt lat="43.0737517" lon="13.0050633"><ele>560.0</ele><time>2026-04-12T08:54:28.429Z</time></trkpt><trkpt lat="43.0738967" lon="13.0048683"><ele>560.0</ele><time>2026-04-12T08:54:29.43Z</time></trkpt><trkpt lat="43.0740433" lon="13.0047067"><ele>561.3333333333333</ele><time>2026-04-12T08:54:30.432Z</time></trkpt><trkpt lat="43.0741733" lon="13.0045167"><ele>562.6666666666666</ele><time>2026-04-12T08:54:31.43Z</time></trkpt><trkpt lat="43.0742817" lon="13.0042817"><ele>564.0</ele><time>2026-04-12T08:54:32.431Z</time></trkpt><trkpt lat="43.0743867" lon="13.00404"><ele>564.0</ele><time>2026-04-12T08:54:33.431Z</time></trkpt><trkpt lat="43.0744833" lon="13.0038117"><ele>564.0</ele><time>2026-04-12T08:54:34.429Z</time></trkpt><trkpt lat="43.0745767" lon="13.0035967"><ele>564.0</ele><time>2026-04-12T08:54:35.429Z</time></trkpt><trkpt lat="43.0746667" lon="13.0033833"><ele>564.0</ele><time>2026-04-12T08:54:36.434Z</time></trkpt><trkpt lat="43.0747533" lon="13.0031717"><ele>564.0</ele><time>2026-04-12T08:54:37.43Z</time></trkpt><trkpt lat="43.0748283" lon="13.0029683"><ele>564.0</ele><time>2026-04-12T08:54:38.431Z</time></trkpt><trkpt lat="43.074895" lon="13.0027783"><ele>563.6</ele><time>2026-04-12T08:54:39.428Z</time></trkpt><trkpt lat="43.0749617" lon="13.0026117"><ele>563.2</ele><time>2026-04-12T08:54:40.435Z</time></trkpt><trkpt lat="43.07503" lon="13.0024783"><ele>562.8000000000001</ele><time>2026-04-12T08:54:41.43Z</time></trkpt><trkpt lat="43.0750883" lon="13.00238"><ele>562.4</ele><time>2026-04-12T08:54:42.428Z</time></trkpt><trkpt lat="43.075135" lon="13.0023083"><ele>562.0</ele><time>2026-04-12T08:54:43.43Z</time></trkpt><trkpt lat="43.075185" lon="13.0022367"><ele>562.0</ele><time>2026-04-12T08:54:45.428Z</time></trkpt><trkpt lat="43.075245" lon="13.0020917"><ele>562.0</ele><time>2026-04-12T08:55:26.429Z</time></trkpt><trkpt lat="43.0753067" lon="13.002"><ele>562.0</ele><time>2026-04-12T08:55:27.431Z</time></trkpt><trkpt lat="43.0753733" lon="13.0018967"><ele>562.0</ele><time>2026-04-12T08:55:28.428Z</time></trkpt><trkpt lat="43.0754567" lon="13.0017783"><ele>562.0</ele><time>2026-04-12T08:55:29.43Z</time></trkpt><trkpt lat="43.0755433" lon="13.0016583"><ele>564.0</ele><time>2026-04-12T08:55:30.43Z</time></trkpt><trkpt lat="43.075635" lon="13.0015217"><ele>566.0</ele><time>2026-04-12T08:55:31.428Z</time></trkpt><trkpt lat="43.07574" lon="13.00138"><ele>568.0</ele><time>2026-04-12T08:55:32.43Z</time></trkpt><trkpt lat="43.075845" lon="13.00122"><ele>570.0</ele><time>2026-04-12T08:55:33.429Z</time></trkpt><trkpt lat="43.075945" lon="13.001045"><ele>566.3333333333334</ele><time>2026-04-12T08:55:34.425Z</time></trkpt><trkpt lat="43.07602" lon="13.0008333"><ele>562.6666666666667</ele><time>2026-04-12T08:55:35.428Z</time></trkpt><trkpt lat="43.0760517" lon="13.0005833"><ele>559.0</ele><time>2026-04-12T08:55:36.429Z</time></trkpt><trkpt lat="43.0760567" lon="13.000335"><ele>559.0</ele><time>2026-04-12T08:55:37.428Z</time></trkpt><trkpt lat="43.0760583" lon="13.000075"><ele>559.0</ele><time>2026-04-12T08:55:38.43Z</time></trkpt><trkpt lat="43.076075" lon="12.999805"><ele>559.0</ele><time>2026-04-12T08:55:39.43Z</time></trkpt><trkpt lat="43.0761183" lon="12.9995433"><ele>559.0</ele><time>2026-04-12T08:55:40.43Z</time></trkpt><trkpt lat="43.076185" lon="12.9992683"><ele>559.0</ele><time>2026-04-12T08:55:41.433Z</time></trkpt><trkpt lat="43.0762467" lon="12.9989883"><ele>559.0</ele><time>2026-04-12T08:55:42.429Z</time></trkpt><trkpt lat="43.0763083" lon="12.9986967"><ele>560.6666666666667</ele><time>2026-04-12T08:55:43.433Z</time></trkpt><trkpt lat="43.0763433" lon="12.9984"><ele>562.3333333333334</ele><time>2026-04-12T08:55:44.43Z</time></trkpt><trkpt lat="43.0763383" lon="12.9981117"><ele>564.0</ele><time>2026-04-12T08:55:45.431Z</time></trkpt><trkpt lat="43.0762967" lon="12.997815"><ele>565.3333333333334</ele><time>2026-04-12T08:55:46.427Z</time></trkpt><trkpt lat="43.07626" lon="12.9975133"><ele>566.6666666666667</ele><time>2026-04-12T08:55:47.43Z</time></trkpt><trkpt lat="43.0762433" lon="12.997215"><ele>568.0</ele><time>2026-04-12T08:55:48.433Z</time></trkpt><trkpt lat="43.0762433" lon="12.9969217"><ele>570.0</ele><time>2026-04-12T08:55:49.428Z</time></trkpt><trkpt lat="43.0762583" lon="12.99662"><ele>572.0</ele><time>2026-04-12T08:55:50.428Z</time></trkpt><trkpt lat="43.0762983" lon="12.9963217"><ele>574.0</ele><time>2026-04-12T08:55:51.43Z</time></trkpt><trkpt lat="43.0763567" lon="12.9960317"><ele>575.3333333333334</ele><time>2026-04-12T08:55:52.428Z</time></trkpt><trkpt lat="43.0764283" lon="12.9957417"><ele>576.6666666666666</ele><time>2026-04-12T08:55:53.431Z</time></trkpt><trkpt lat="43.0765133" lon="12.9954667"><ele>578.0</ele><time>2026-04-12T08:55:54.432Z</time></trkpt><trkpt lat="43.0765967" lon="12.9952033"><ele>574.6666666666666</ele><time>2026-04-12T08:55:55.429Z</time></trkpt><trkpt lat="43.076675" lon="12.9949617"><ele>571.3333333333334</ele><time>2026-04-12T08:55:56.432Z</time></trkpt><trkpt lat="43.0767433" lon="12.99472"><ele>568.0</ele><time>2026-04-12T08:55:57.429Z</time></trkpt><trkpt lat="43.07679" lon="12.9944817"><ele>568.0</ele><time>2026-04-12T08:55:58.428Z</time></trkpt><trkpt lat="43.0768" lon="12.99422"><ele>568.0</ele><time>2026-04-12T08:55:59.427Z</time></trkpt><trkpt lat="43.07677" lon="12.993945"><ele>568.0</ele><time>2026-04-12T08:56:00.431Z</time></trkpt><trkpt lat="43.0767117" lon="12.9936667"><ele>568.6666666666667</ele><time>2026-04-12T08:56:01.431Z</time></trkpt><trkpt lat="43.076635" lon="12.993385"><ele>569.3333333333334</ele><time>2026-04-12T08:56:02.431Z</time></trkpt><trkpt lat="43.0765483" lon="12.9931217"><ele>570.0</ele><time>2026-04-12T08:56:03.43Z</time></trkpt><trkpt lat="43.076475" lon="12.9928667"><ele>578.6666666666666</ele><time>2026-04-12T08:56:04.431Z</time></trkpt><trkpt lat="43.0764267" lon="12.9925983"><ele>587.3333333333333</ele><time>2026-04-12T08:56:05.429Z</time></trkpt><trkpt lat="43.0764083" lon="12.9923117"><ele>596.0</ele><time>2026-04-12T08:56:06.432Z</time></trkpt><trkpt lat="43.0764133" lon="12.99202"><ele>596.3333333333333</ele><time>2026-04-12T08:56:07.43Z</time></trkpt><trkpt lat="43.0764233" lon="12.9917433"><ele>596.6666666666666</ele><time>2026-04-12T08:56:08.43Z</time></trkpt><trkpt lat="43.0764317" lon="12.9914867"><ele>597.0</ele><time>2026-04-12T08:56:09.431Z</time></trkpt><trkpt lat="43.0764467" lon="12.9912467"><ele>598.6666666666666</ele><time>2026-04-12T08:56:10.43Z</time></trkpt><trkpt lat="43.0764817" lon="12.9910333"><ele>600.3333333333333</ele><time>2026-04-12T08:56:11.431Z</time></trkpt><trkpt lat="43.0765667" lon="12.9908533"><ele>602.0</ele><time>2026-04-12T08:56:12.429Z</time></trkpt><trkpt lat="43.0766783" lon="12.9906933"><ele>591.6666666666666</ele><time>2026-04-12T08:56:13.427Z</time></trkpt><trkpt lat="43.0767733" lon="12.990515"><ele>581.3333333333334</ele><time>2026-04-12T08:56:14.429Z</time></trkpt><trkpt lat="43.0768233" lon="12.9903"><ele>571.0</ele><time>2026-04-12T08:56:15.429Z</time></trkpt><trkpt lat="43.076845" lon="12.9900583"><ele>571.6666666666667</ele><time>2026-04-12T08:56:16.429Z</time></trkpt><trkpt lat="43.0768533" lon="12.989795"><ele>572.3333333333334</ele><time>2026-04-12T08:56:17.429Z</time></trkpt><trkpt lat="43.076855" lon="12.9895217"><ele>573.0</ele><time>2026-04-12T08:56:18.429Z</time></trkpt><trkpt lat="43.07686" lon="12.9892383"><ele>573.6666666666666</ele><time>2026-04-12T08:56:19.429Z</time></trkpt><trkpt lat="43.07687" lon="12.988945"><ele>574.3333333333333</ele><time>2026-04-12T08:56:20.428Z</time></trkpt><trkpt lat="43.0768833" lon="12.98865"><ele>575.0</ele><time>2026-04-12T08:56:21.43Z</time></trkpt><trkpt lat="43.0769" lon="12.98835"><ele>575.0</ele><time>2026-04-12T08:56:22.427Z</time></trkpt><trkpt lat="43.0769183" lon="12.9880517"><ele>575.0</ele><time>2026-04-12T08:56:23.428Z</time></trkpt><trkpt lat="43.076935" lon="12.987755"><ele>575.0</ele><time>2026-04-12T08:56:24.428Z</time></trkpt><trkpt lat="43.0769633" lon="12.98746"><ele>576.6666666666666</ele><time>2026-04-12T08:56:25.429Z</time></trkpt><trkpt lat="43.0770183" lon="12.987175"><ele>578.3333333333334</ele><time>2026-04-12T08:56:26.429Z</time></trkpt><trkpt lat="43.077085" lon="12.9868917"><ele>580.0</ele><time>2026-04-12T08:56:27.428Z</time></trkpt><trkpt lat="43.0771317" lon="12.9866133"><ele>582.3333333333334</ele><time>2026-04-12T08:56:28.429Z</time></trkpt><trkpt lat="43.0771483" lon="12.9863367"><ele>584.6666666666666</ele><time>2026-04-12T08:56:29.426Z</time></trkpt><trkpt lat="43.0771417" lon="12.986065"><ele>587.0</ele><time>2026-04-12T08:56:30.43Z</time></trkpt><trkpt lat="43.0771133" lon="12.9857983"><ele>588.3333333333333</ele><time>2026-04-12T08:56:31.429Z</time></trkpt><trkpt lat="43.0770633" lon="12.985535"><ele>589.6666666666666</ele><time>2026-04-12T08:56:32.432Z</time></trkpt><trkpt lat="43.076995" lon="12.9852867"><ele>591.0</ele><time>2026-04-12T08:56:33.43Z</time></trkpt><trkpt lat="43.0768983" lon="12.9850417"><ele>591.6666666666666</ele><time>2026-04-12T08:56:34.43Z</time></trkpt><trkpt lat="43.076765" lon="12.9848133"><ele>592.3333333333333</ele><time>2026-04-12T08:56:35.428Z</time></trkpt><trkpt lat="43.0766233" lon="12.9845967"><ele>593.0</ele><time>2026-04-12T08:56:36.43Z</time></trkpt><trkpt lat="43.076495" lon="12.984385"><ele>601.3333333333333</ele><time>2026-04-12T08:56:37.428Z</time></trkpt><trkpt lat="43.07641" lon="12.98417"><ele>609.6666666666666</ele><time>2026-04-12T08:56:38.434Z</time></trkpt><trkpt lat="43.0763683" lon="12.9839417"><ele>618.0</ele><time>2026-04-12T08:56:39.43Z</time></trkpt><trkpt lat="43.076365" lon="12.9836933"><ele>618.0</ele><time>2026-04-12T08:56:40.43Z</time></trkpt><trkpt lat="43.0764083" lon="12.983415"><ele>618.0</ele><time>2026-04-12T08:56:41.429Z</time></trkpt><trkpt lat="43.0764583" lon="12.983125"><ele>618.0</ele><time>2026-04-12T08:56:42.431Z</time></trkpt><trkpt lat="43.0764967" lon="12.9828367"><ele>615.3333333333334</ele><time>2026-04-12T08:56:43.431Z</time></trkpt><trkpt lat="43.0764967" lon="12.9825483"><ele>612.6666666666667</ele><time>2026-04-12T08:56:44.431Z</time></trkpt><trkpt lat="43.0764767" lon="12.982265"><ele>610.0</ele><time>2026-04-12T08:56:45.43Z</time></trkpt><trkpt lat="43.0764717" lon="12.9819817"><ele>606.6666666666667</ele><time>2026-04-12T08:56:46.429Z</time></trkpt><trkpt lat="43.0765017" lon="12.981695"><ele>603.3333333333334</ele><time>2026-04-12T08:56:47.43Z</time></trkpt><trkpt lat="43.07652" lon="12.981405"><ele>600.0</ele><time>2026-04-12T08:56:48.429Z</time></trkpt><trkpt lat="43.07652" lon="12.9811217"><ele>599.0</ele><time>2026-04-12T08:56:49.43Z</time></trkpt><trkpt lat="43.0764917" lon="12.980855"><ele>598.0</ele><time>2026-04-12T08:56:50.427Z</time></trkpt><trkpt lat="43.076435" lon="12.9806"><ele>597.0</ele><time>2026-04-12T08:56:51.423Z</time></trkpt><trkpt lat="43.0763367" lon="12.9803633"><ele>596.3333333333334</ele><time>2026-04-12T08:56:52.433Z</time></trkpt><trkpt lat="43.0762033" lon="12.98015"><ele>595.6666666666667</ele><time>2026-04-12T08:56:53.427Z</time></trkpt><trkpt lat="43.0760617" lon="12.979935"><ele>595.0</ele><time>2026-04-12T08:56:54.426Z</time></trkpt><trkpt lat="43.0759033" lon="12.9797367"><ele>597.3333333333334</ele><time>2026-04-12T08:56:55.427Z</time></trkpt><trkpt lat="43.0757483" lon="12.9795367"><ele>599.6666666666666</ele><time>2026-04-12T08:56:56.43Z</time></trkpt><trkpt lat="43.0756067" lon="12.9793217"><ele>602.0</ele><time>2026-04-12T08:56:57.43Z</time></trkpt><trkpt lat="43.0754783" lon="12.9790967"><ele>602.0</ele><time>2026-04-12T08:56:58.428Z</time></trkpt><trkpt lat="43.075365" lon="12.9788567"><ele>602.0</ele><time>2026-04-12T08:56:59.43Z</time></trkpt><trkpt lat="43.0752633" lon="12.9786067"><ele>602.0</ele><time>2026-04-12T08:57:00.429Z</time></trkpt><trkpt lat="43.07516" lon="12.9783467"><ele>600.0</ele><time>2026-04-12T08:57:01.427Z</time></trkpt><trkpt lat="43.07506" lon="12.9780833"><ele>598.0</ele><time>2026-04-12T08:57:02.424Z</time></trkpt><trkpt lat="43.0749633" lon="12.9778217"><ele>596.0</ele><time>2026-04-12T08:57:03.429Z</time></trkpt><trkpt lat="43.0748617" lon="12.9775567"><ele>601.3333333333333</ele><time>2026-04-12T08:57:04.428Z</time></trkpt><trkpt lat="43.0747617" lon="12.9772933"><ele>606.6666666666666</ele><time>2026-04-12T08:57:05.43Z</time></trkpt><trkpt lat="43.07466" lon="12.9770267"><ele>612.0</ele><time>2026-04-12T08:57:06.432Z</time></trkpt><trkpt lat="43.07456" lon="12.9767617"><ele>609.0</ele><time>2026-04-12T08:57:07.43Z</time></trkpt><trkpt lat="43.0744667" lon="12.9764933"><ele>606.0</ele><time>2026-04-12T08:57:08.426Z</time></trkpt><trkpt lat="43.0743783" lon="12.976225"><ele>603.0</ele><time>2026-04-12T08:57:09.43Z</time></trkpt><trkpt lat="43.0743033" lon="12.9759483"><ele>602.0</ele><time>2026-04-12T08:57:10.43Z</time></trkpt><trkpt lat="43.0742467" lon="12.9756633"><ele>601.0</ele><time>2026-04-12T08:57:11.43Z</time></trkpt><trkpt lat="43.0742117" lon="12.9753717"><ele>600.0</ele><time>2026-04-12T08:57:12.431Z</time></trkpt><trkpt lat="43.0741967" lon="12.9750767"><ele>600.3333333333334</ele><time>2026-04-12T08:57:13.432Z</time></trkpt><trkpt lat="43.0742067" lon="12.97478"><ele>600.6666666666667</ele><time>2026-04-12T08:57:14.433Z</time></trkpt><trkpt lat="43.0742433" lon="12.9744817"><ele>601.0</ele><time>2026-04-12T08:57:15.434Z</time></trkpt><trkpt lat="43.0743017" lon="12.9741867"><ele>601.6666666666667</ele><time>2026-04-12T08:57:16.431Z</time></trkpt><trkpt lat="43.0743733" lon="12.9738967"><ele>602.3333333333334</ele><time>2026-04-12T08:57:17.434Z</time></trkpt><trkpt lat="43.07445" lon="12.9736067"><ele>603.0</ele><time>2026-04-12T08:57:18.432Z</time></trkpt><trkpt lat="43.074525" lon="12.9733317"><ele>603.6666666666666</ele><time>2026-04-12T08:57:19.434Z</time></trkpt><trkpt lat="43.0746" lon="12.97307"><ele>604.3333333333333</ele><time>2026-04-12T08:57:20.43Z</time></trkpt><trkpt lat="43.074675" lon="12.9728283"><ele>605.0</ele><time>2026-04-12T08:57:21.432Z</time></trkpt><trkpt lat="43.0747517" lon="12.972605"><ele>607.6666666666666</ele><time>2026-04-12T08:57:22.431Z</time></trkpt><trkpt lat="43.0748267" lon="12.9723933"><ele>610.3333333333334</ele><time>2026-04-12T08:57:23.429Z</time></trkpt><trkpt lat="43.0748967" lon="12.9722"><ele>613.0</ele><time>2026-04-12T08:57:24.426Z</time></trkpt><trkpt lat="43.0749717" lon="12.97204"><ele>610.6</ele><time>2026-04-12T08:57:25.43Z</time></trkpt><trkpt lat="43.0750567" lon="12.97192"><ele>608.1999999999999</ele><time>2026-04-12T08:57:26.432Z</time></trkpt><trkpt lat="43.075145" lon="12.9718383"><ele>605.8</ele><time>2026-04-12T08:57:27.429Z</time></trkpt><trkpt lat="43.07522" lon="12.97175"><ele>603.4</ele><time>2026-04-12T08:57:28.431Z</time></trkpt><trkpt lat="43.0752633" lon="12.9716433"><ele>601.0</ele><time>2026-04-12T08:57:29.43Z</time></trkpt><trkpt lat="43.0752867" lon="12.97153"><ele>601.0</ele><time>2026-04-12T08:57:30.43Z</time></trkpt><trkpt lat="43.0753017" lon="12.971395"><ele>601.0</ele><time>2026-04-12T08:57:31.431Z</time></trkpt><trkpt lat="43.07534" lon="12.9712367"><ele>601.0</ele><time>2026-04-12T08:57:32.432Z</time></trkpt><trkpt lat="43.0754033" lon="12.97106"><ele>601.0</ele><time>2026-04-12T08:57:33.429Z</time></trkpt><trkpt lat="43.0754883" lon="12.9708733"><ele>599.6666666666667</ele><time>2026-04-12T08:57:34.431Z</time></trkpt><trkpt lat="43.075585" lon="12.97067"><ele>598.3333333333334</ele><time>2026-04-12T08:57:35.422Z</time></trkpt><trkpt lat="43.0756867" lon="12.970455"><ele>597.0</ele><time>2026-04-12T08:57:36.43Z</time></trkpt><trkpt lat="43.07579" lon="12.9702317"><ele>596.6666666666666</ele><time>2026-04-12T08:57:37.431Z</time></trkpt><trkpt lat="43.0758967" lon="12.97"><ele>596.3333333333333</ele><time>2026-04-12T08:57:38.431Z</time></trkpt><trkpt lat="43.07601" lon="12.96976"><ele>596.0</ele><time>2026-04-12T08:57:39.429Z</time></trkpt><trkpt lat="43.0761267" lon="12.9695083"><ele>596.0</ele><time>2026-04-12T08:57:40.432Z</time></trkpt><trkpt lat="43.076245" lon="12.969255"><ele>596.0</ele><time>2026-04-12T08:57:41.431Z</time></trkpt><trkpt lat="43.07636" lon="12.9690017"><ele>596.0</ele><time>2026-04-12T08:57:42.432Z</time></trkpt><trkpt lat="43.0764767" lon="12.9687483"><ele>597.3333333333333</ele><time>2026-04-12T08:57:43.429Z</time></trkpt><trkpt lat="43.0765967" lon="12.9684917"><ele>598.6666666666666</ele><time>2026-04-12T08:57:44.43Z</time></trkpt><trkpt lat="43.076715" lon="12.9682383"><ele>600.0</ele><time>2026-04-12T08:57:45.43Z</time></trkpt><trkpt lat="43.0768267" lon="12.9679833"><ele>602.6666666666666</ele><time>2026-04-12T08:57:46.429Z</time></trkpt><trkpt lat="43.0769217" lon="12.9677133"><ele>605.3333333333333</ele><time>2026-04-12T08:57:47.429Z</time></trkpt><trkpt lat="43.076995" lon="12.9674267"><ele>608.0</ele><time>2026-04-12T08:57:48.431Z</time></trkpt><trkpt lat="43.0770533" lon="12.9671317"><ele>608.0</ele><time>2026-04-12T08:57:49.429Z</time></trkpt><trkpt lat="43.0771" lon="12.96683"><ele>608.0</ele><time>2026-04-12T08:57:50.431Z</time></trkpt><trkpt lat="43.0771433" lon="12.9665317"><ele>608.0</ele><time>2026-04-12T08:57:51.43Z</time></trkpt><trkpt lat="43.0771883" lon="12.9662317"><ele>608.3333333333333</ele><time>2026-04-12T08:57:52.429Z</time></trkpt><trkpt lat="43.077235" lon="12.9659383"><ele>608.6666666666666</ele><time>2026-04-12T08:57:53.431Z</time></trkpt><trkpt lat="43.0772833" lon="12.9656417"><ele>609.0</ele><time>2026-04-12T08:57:54.43Z</time></trkpt><trkpt lat="43.0773383" lon="12.9653483"><ele>610.0</ele><time>2026-04-12T08:57:55.43Z</time></trkpt><trkpt lat="43.0773933" lon="12.9650567"><ele>611.0</ele><time>2026-04-12T08:57:56.428Z</time></trkpt><trkpt lat="43.0774483" lon="12.9647717"><ele>612.0</ele><time>2026-04-12T08:57:57.431Z</time></trkpt><trkpt lat="43.07749" lon="12.9644933"><ele>613.6666666666666</ele><time>2026-04-12T08:57:58.43Z</time></trkpt><trkpt lat="43.0775083" lon="12.9642183"><ele>615.3333333333333</ele><time>2026-04-12T08:57:59.43Z</time></trkpt><trkpt lat="43.077495" lon="12.9639417"><ele>617.0</ele><time>2026-04-12T08:58:00.435Z</time></trkpt><trkpt lat="43.07745" lon="12.963665"><ele>616.6666666666666</ele><time>2026-04-12T08:58:01.432Z</time></trkpt><trkpt lat="43.0773817" lon="12.9633917"><ele>616.3333333333334</ele><time>2026-04-12T08:58:02.432Z</time></trkpt><trkpt lat="43.0772933" lon="12.963125"><ele>616.0</ele><time>2026-04-12T08:58:03.43Z</time></trkpt><trkpt lat="43.0771883" lon="12.96286"><ele>616.0</ele><time>2026-04-12T08:58:04.43Z</time></trkpt><trkpt lat="43.0770983" lon="12.962585"><ele>616.0</ele><time>2026-04-12T08:58:05.43Z</time></trkpt><trkpt lat="43.0770317" lon="12.962305"><ele>616.0</ele><time>2026-04-12T08:58:06.434Z</time></trkpt><trkpt lat="43.0769633" lon="12.962015"><ele>616.0</ele><time>2026-04-12T08:58:07.43Z</time></trkpt><trkpt lat="43.076865" lon="12.961735"><ele>616.0</ele><time>2026-04-12T08:58:08.433Z</time></trkpt><trkpt lat="43.0767383" lon="12.9614667"><ele>616.0</ele><time>2026-04-12T08:58:09.432Z</time></trkpt><trkpt lat="43.0766067" lon="12.96121"><ele>616.0</ele><time>2026-04-12T08:58:10.429Z</time></trkpt><trkpt lat="43.07648" lon="12.960965"><ele>616.0</ele><time>2026-04-12T08:58:11.428Z</time></trkpt><trkpt lat="43.07636" lon="12.9607383"><ele>617.6666666666667</ele><time>2026-04-12T08:58:12.431Z</time></trkpt><trkpt lat="43.0762467" lon="12.9605183"><ele>619.3333333333334</ele><time>2026-04-12T08:58:13.431Z</time></trkpt><trkpt lat="43.0761483" lon="12.9602933"><ele>621.0</ele><time>2026-04-12T08:58:14.43Z</time></trkpt><trkpt lat="43.0760783" lon="12.960045"><ele>623.0</ele><time>2026-04-12T08:58:15.43Z</time></trkpt><trkpt lat="43.0760333" lon="12.9597817"><ele>625.0</ele><time>2026-04-12T08:58:16.429Z</time></trkpt><trkpt lat="43.0760167" lon="12.95951"><ele>627.0</ele><time>2026-04-12T08:58:17.43Z</time></trkpt><trkpt lat="43.0760267" lon="12.959235"><ele>628.0</ele><time>2026-04-12T08:58:18.43Z</time></trkpt><trkpt lat="43.0760567" lon="12.9589417"><ele>629.0</ele><time>2026-04-12T08:58:19.432Z</time></trkpt><trkpt lat="43.076095" lon="12.9586567"><ele>630.0</ele><time>2026-04-12T08:58:20.431Z</time></trkpt><trkpt lat="43.076135" lon="12.9583883"><ele>629.6666666666666</ele><time>2026-04-12T08:58:21.43Z</time></trkpt><trkpt lat="43.0761433" lon="12.9581317"><ele>629.3333333333333</ele><time>2026-04-12T08:58:22.428Z</time></trkpt><trkpt lat="43.0761183" lon="12.9578867"><ele>629.0</ele><time>2026-04-12T08:58:23.43Z</time></trkpt><trkpt lat="43.0760567" lon="12.9576467"><ele>629.3333333333333</ele><time>2026-04-12T08:58:24.431Z</time></trkpt><trkpt lat="43.075955" lon="12.9574167"><ele>629.6666666666666</ele><time>2026-04-12T08:58:25.432Z</time></trkpt><trkpt lat="43.0758183" lon="12.957195"><ele>630.0</ele><time>2026-04-12T08:58:26.433Z</time></trkpt><trkpt lat="43.07567" lon="12.9569717"><ele>630.0</ele><time>2026-04-12T08:58:27.429Z</time></trkpt><trkpt lat="43.07552" lon="12.9567483"><ele>630.0</ele><time>2026-04-12T08:58:28.429Z</time></trkpt><trkpt lat="43.0753617" lon="12.9565267"><ele>630.0</ele><time>2026-04-12T08:58:29.43Z</time></trkpt><trkpt lat="43.0752067" lon="12.9563083"><ele>630.3333333333334</ele><time>2026-04-12T08:58:30.432Z</time></trkpt><trkpt lat="43.0750533" lon="12.9560883"><ele>630.6666666666667</ele><time>2026-04-12T08:58:31.43Z</time></trkpt><trkpt lat="43.0748883" lon="12.9558817"><ele>631.0</ele><time>2026-04-12T08:58:32.432Z</time></trkpt><trkpt lat="43.0747133" lon="12.95569"><ele>633.6666666666667</ele><time>2026-04-12T08:58:33.43Z</time></trkpt><trkpt lat="43.07453" lon="12.9555167"><ele>636.3333333333334</ele><time>2026-04-12T08:58:34.431Z</time></trkpt><trkpt lat="43.07434" lon="12.9553567"><ele>639.0</ele><time>2026-04-12T08:58:35.429Z</time></trkpt><trkpt lat="43.07415" lon="12.9551967"><ele>640.6666666666666</ele><time>2026-04-12T08:58:36.43Z</time></trkpt><trkpt lat="43.0739667" lon="12.955035"><ele>642.3333333333333</ele><time>2026-04-12T08:58:37.431Z</time></trkpt><trkpt lat="43.073795" lon="12.9548667"><ele>644.0</ele><time>2026-04-12T08:58:38.429Z</time></trkpt><trkpt lat="43.0736383" lon="12.9546917"><ele>644.0</ele><time>2026-04-12T08:58:39.431Z</time></trkpt><trkpt lat="43.0735" lon="12.9545"><ele>644.0</ele><time>2026-04-12T08:58:40.432Z</time></trkpt><trkpt lat="43.07338" lon="12.954265"><ele>644.0</ele><time>2026-04-12T08:58:41.43Z</time></trkpt><trkpt lat="43.0732667" lon="12.954"><ele>643.5</ele><time>2026-04-12T08:58:42.428Z</time></trkpt><trkpt lat="43.0731567" lon="12.953715"><ele>643.0</ele><time>2026-04-12T08:58:43.43Z</time></trkpt><trkpt lat="43.0730467" lon="12.9534267"><ele>645.0</ele><time>2026-04-12T08:58:44.432Z</time></trkpt><trkpt lat="43.0729317" lon="12.9531467"><ele>647.0</ele><time>2026-04-12T08:58:45.428Z</time></trkpt><trkpt lat="43.0728233" lon="12.95286"><ele>647.0</ele><time>2026-04-12T08:58:46.43Z</time></trkpt><trkpt lat="43.0727083" lon="12.9526033"><ele>647.0</ele><time>2026-04-12T08:58:47.43Z</time></trkpt><trkpt lat="43.072605" lon="12.9523633"><ele>647.0</ele><time>2026-04-12T08:58:48.43Z</time></trkpt><trkpt lat="43.0725167" lon="12.9521183"><ele>648.3333333333333</ele><time>2026-04-12T08:58:49.431Z</time></trkpt><trkpt lat="43.0724617" lon="12.9518467"><ele>649.6666666666666</ele><time>2026-04-12T08:58:50.431Z</time></trkpt><trkpt lat="43.0724433" lon="12.9515467"><ele>651.0</ele><time>2026-04-12T08:58:51.431Z</time></trkpt><trkpt lat="43.0724317" lon="12.9512417"><ele>651.0</ele><time>2026-04-12T08:58:52.43Z</time></trkpt><trkpt lat="43.072415" lon="12.9509383"><ele>651.0</ele><time>2026-04-12T08:58:53.431Z</time></trkpt><trkpt lat="43.07238" lon="12.950635"><ele>651.0</ele><time>2026-04-12T08:58:54.43Z</time></trkpt><trkpt lat="43.07232" lon="12.9503467"><ele>651.6666666666666</ele><time>2026-04-12T08:58:55.429Z</time></trkpt><trkpt lat="43.0722383" lon="12.950065"><ele>652.3333333333333</ele><time>2026-04-12T08:58:56.432Z</time></trkpt><trkpt lat="43.0721467" lon="12.9497933"><ele>653.0</ele><time>2026-04-12T08:58:57.431Z</time></trkpt><trkpt lat="43.072035" lon="12.949535"><ele>654.0</ele><time>2026-04-12T08:58:58.431Z</time></trkpt><trkpt lat="43.071905" lon="12.9493017"><ele>655.0</ele><time>2026-04-12T08:58:59.43Z</time></trkpt><trkpt lat="43.071755" lon="12.949085"><ele>656.0</ele><time>2026-04-12T08:59:00.428Z</time></trkpt><trkpt lat="43.071595" lon="12.9488733"><ele>658.5</ele><time>2026-04-12T08:59:01.431Z</time></trkpt><trkpt lat="43.0714283" lon="12.94867"><ele>661.0</ele><time>2026-04-12T08:59:02.434Z</time></trkpt><trkpt lat="43.0712583" lon="12.9484617"><ele>661.3333333333334</ele><time>2026-04-12T08:59:03.431Z</time></trkpt><trkpt lat="43.07109" lon="12.9482533"><ele>661.6666666666666</ele><time>2026-04-12T08:59:04.428Z</time></trkpt><trkpt lat="43.0709283" lon="12.9480567"><ele>662.0</ele><time>2026-04-12T08:59:05.43Z</time></trkpt><trkpt lat="43.0707617" lon="12.9478767"><ele>662.0</ele><time>2026-04-12T08:59:06.432Z</time></trkpt><trkpt lat="43.0705783" lon="12.94772"><ele>662.0</ele><time>2026-04-12T08:59:07.429Z</time></trkpt><trkpt lat="43.0703817" lon="12.947585"><ele>662.0</ele><time>2026-04-12T08:59:08.429Z</time></trkpt><trkpt lat="43.0701817" lon="12.9474583"><ele>662.6666666666666</ele><time>2026-04-12T08:59:09.433Z</time></trkpt><trkpt lat="43.0699967" lon="12.9473383"><ele>663.3333333333334</ele><time>2026-04-12T08:59:10.429Z</time></trkpt><trkpt lat="43.06981" lon="12.9472217"><ele>664.0</ele><time>2026-04-12T08:59:11.431Z</time></trkpt><trkpt lat="43.0696267" lon="12.9471167"><ele>664.0</ele><time>2026-04-12T08:59:12.432Z</time></trkpt><trkpt lat="43.0694433" lon="12.9470317"><ele>664.0</ele><time>2026-04-12T08:59:13.428Z</time></trkpt><trkpt lat="43.069255" lon="12.94698"><ele>664.0</ele><time>2026-04-12T08:59:14.434Z</time></trkpt><trkpt lat="43.06906" lon="12.9469633"><ele>665.6666666666667</ele><time>2026-04-12T08:59:15.427Z</time></trkpt><trkpt lat="43.06886" lon="12.9469667"><ele>667.3333333333334</ele><time>2026-04-12T08:59:16.428Z</time></trkpt><trkpt lat="43.0686533" lon="12.9469683"><ele>669.0</ele><time>2026-04-12T08:59:17.428Z</time></trkpt><trkpt lat="43.06845" lon="12.94694"><ele>668.6666666666666</ele><time>2026-04-12T08:59:18.43Z</time></trkpt><trkpt lat="43.06826" lon="12.946855"><ele>668.3333333333333</ele><time>2026-04-12T08:59:19.43Z</time></trkpt><trkpt lat="43.068085" lon="12.9467333"><ele>668.0</ele><time>2026-04-12T08:59:20.431Z</time></trkpt><trkpt lat="43.0679367" lon="12.9465733"><ele>668.0</ele><time>2026-04-12T08:59:21.428Z</time></trkpt><trkpt lat="43.0678167" lon="12.9463767"><ele>668.0</ele><time>2026-04-12T08:59:22.429Z</time></trkpt><trkpt lat="43.06773" lon="12.9461683"><ele>668.0</ele><time>2026-04-12T08:59:23.43Z</time></trkpt><trkpt lat="43.0676717" lon="12.9459383"><ele>670.0</ele><time>2026-04-12T08:59:24.429Z</time></trkpt><trkpt lat="43.067635" lon="12.945685"><ele>672.0</ele><time>2026-04-12T08:59:25.431Z</time></trkpt><trkpt lat="43.0676083" lon="12.9454267"><ele>674.0</ele><time>2026-04-12T08:59:26.432Z</time></trkpt><trkpt lat="43.0675783" lon="12.9451817"><ele>675.3333333333333</ele><time>2026-04-12T08:59:27.429Z</time></trkpt><trkpt lat="43.06754" lon="12.9449333"><ele>676.6666666666666</ele><time>2026-04-12T08:59:28.429Z</time></trkpt><trkpt lat="43.0674833" lon="12.94469"><ele>678.0</ele><time>2026-04-12T08:59:29.428Z</time></trkpt><trkpt lat="43.06738" lon="12.9444567"><ele>678.0</ele><time>2026-04-12T08:59:30.43Z</time></trkpt><trkpt lat="43.06725" lon="12.9442333"><ele>678.0</ele><time>2026-04-12T08:59:31.43Z</time></trkpt><trkpt lat="43.0671067" lon="12.9440167"><ele>678.0</ele><time>2026-04-12T08:59:32.429Z</time></trkpt><trkpt lat="43.0669483" lon="12.943835"><ele>678.0</ele><time>2026-04-12T08:59:33.43Z</time></trkpt><trkpt lat="43.066785" lon="12.94368"><ele>678.0</ele><time>2026-04-12T08:59:34.427Z</time></trkpt><trkpt lat="43.0666217" lon="12.943545"><ele>678.0</ele><time>2026-04-12T08:59:35.432Z</time></trkpt><trkpt lat="43.0664517" lon="12.943425"><ele>680.6666666666666</ele><time>2026-04-12T08:59:36.431Z</time></trkpt><trkpt lat="43.0662967" lon="12.9432967"><ele>683.3333333333333</ele><time>2026-04-12T08:59:37.43Z</time></trkpt><trkpt lat="43.06614" lon="12.9431533"><ele>686.0</ele><time>2026-04-12T08:59:38.432Z</time></trkpt><trkpt lat="43.0660033" lon="12.9430017"><ele>686.0</ele><time>2026-04-12T08:59:39.43Z</time></trkpt><trkpt lat="43.06589" lon="12.9428317"><ele>686.0</ele><time>2026-04-12T08:59:40.427Z</time></trkpt><trkpt lat="43.0657883" lon="12.94265"><ele>686.0</ele><time>2026-04-12T08:59:41.43Z</time></trkpt><trkpt lat="43.065705" lon="12.9424617"><ele>690.6666666666666</ele><time>2026-04-12T08:59:42.43Z</time></trkpt><trkpt lat="43.0656417" lon="12.9422717"><ele>695.3333333333334</ele><time>2026-04-12T08:59:43.427Z</time></trkpt><trkpt lat="43.0656" lon="12.9420683"><ele>700.0</ele><time>2026-04-12T08:59:44.432Z</time></trkpt><trkpt lat="43.0655817" lon="12.9418383"><ele>697.0</ele><time>2026-04-12T08:59:45.428Z</time></trkpt><trkpt lat="43.0655817" lon="12.9415933"><ele>694.0</ele><time>2026-04-12T08:59:46.431Z</time></trkpt><trkpt lat="43.065605" lon="12.9413417"><ele>691.0</ele><time>2026-04-12T08:59:47.428Z</time></trkpt><trkpt lat="43.065655" lon="12.94109"><ele>695.0</ele><time>2026-04-12T08:59:48.43Z</time></trkpt><trkpt lat="43.0657167" lon="12.9408317"><ele>699.0</ele><time>2026-04-12T08:59:49.428Z</time></trkpt><trkpt lat="43.065785" lon="12.940565"><ele>703.0</ele><time>2026-04-12T08:59:50.43Z</time></trkpt><trkpt lat="43.065855" lon="12.9402833"><ele>704.0</ele><time>2026-04-12T08:59:51.43Z</time></trkpt><trkpt lat="43.0659233" lon="12.9400117"><ele>705.0</ele><time>2026-04-12T08:59:52.43Z</time></trkpt><trkpt lat="43.0659883" lon="12.939765"><ele>706.0</ele><time>2026-04-12T08:59:53.429Z</time></trkpt><trkpt lat="43.066055" lon="12.9395417"><ele>706.0</ele><time>2026-04-12T08:59:54.429Z</time></trkpt><trkpt lat="43.0661317" lon="12.939355"><ele>706.0</ele><time>2026-04-12T08:59:55.427Z</time></trkpt><trkpt lat="43.0662033" lon="12.939185"><ele>706.0</ele><time>2026-04-12T08:59:56.431Z</time></trkpt><trkpt lat="43.0662483" lon="12.93904"><ele>706.0</ele><time>2026-04-12T08:59:57.427Z</time></trkpt><trkpt lat="43.0662517" lon="12.938905"><ele>707.5999999999999</ele><time>2026-04-12T08:59:58.428Z</time></trkpt><trkpt lat="43.06621" lon="12.9387983"><ele>709.2</ele><time>2026-04-12T08:59:59.428Z</time></trkpt><trkpt lat="43.0661183" lon="12.9387533"><ele>710.8</ele><time>2026-04-12T09:00:00.432Z</time></trkpt><trkpt lat="43.066015" lon="12.93877"><ele>712.4000000000001</ele><time>2026-04-12T09:00:01.428Z</time></trkpt><trkpt lat="43.0658917" lon="12.9388467"><ele>714.0</ele><time>2026-04-12T09:00:02.43Z</time></trkpt><trkpt lat="43.06575" lon="12.938995"><ele>718.6666666666666</ele><time>2026-04-12T09:00:03.424Z</time></trkpt><trkpt lat="43.0656083" lon="12.9391483"><ele>723.3333333333333</ele><time>2026-04-12T09:00:04.428Z</time></trkpt><trkpt lat="43.065475" lon="12.939315"><ele>728.0</ele><time>2026-04-12T09:00:05.431Z</time></trkpt><trkpt lat="43.0653567" lon="12.9395133"><ele>728.0</ele><time>2026-04-12T09:00:06.428Z</time></trkpt><trkpt lat="43.0652533" lon="12.9397333"><ele>728.0</ele><time>2026-04-12T09:00:07.428Z</time></trkpt><trkpt lat="43.0651617" lon="12.93997"><ele>728.0</ele><time>2026-04-12T09:00:08.428Z</time></trkpt><trkpt lat="43.0650917" lon="12.9402117"><ele>722.0</ele><time>2026-04-12T09:00:09.428Z</time></trkpt><trkpt lat="43.0650267" lon="12.940425"><ele>716.0</ele><time>2026-04-12T09:00:10.427Z</time></trkpt><trkpt lat="43.0649417" lon="12.9406033"><ele>710.0</ele><time>2026-04-12T09:00:11.429Z</time></trkpt><trkpt lat="43.0648433" lon="12.9407317"><ele>710.0</ele><time>2026-04-12T09:00:12.424Z</time></trkpt><trkpt lat="43.0647317" lon="12.9408083"><ele>710.0</ele><time>2026-04-12T09:00:13.43Z</time></trkpt><trkpt lat="43.0646117" lon="12.9408083"><ele>710.0</ele><time>2026-04-12T09:00:14.431Z</time></trkpt><trkpt lat="43.0644867" lon="12.940705"><ele>710.0</ele><time>2026-04-12T09:00:15.427Z</time></trkpt><trkpt lat="43.0643817" lon="12.94055"><ele>710.0</ele><time>2026-04-12T09:00:16.429Z</time></trkpt><trkpt lat="43.0643" lon="12.940355"><ele>710.0</ele><time>2026-04-12T09:00:17.428Z</time></trkpt><trkpt lat="43.0642417" lon="12.940125"><ele>710.0</ele><time>2026-04-12T09:00:18.431Z</time></trkpt><trkpt lat="43.0641783" lon="12.9398817"><ele>710.3333333333333</ele><time>2026-04-12T09:00:19.43Z</time></trkpt><trkpt lat="43.0640917" lon="12.9396583"><ele>710.6666666666666</ele><time>2026-04-12T09:00:20.428Z</time></trkpt><trkpt lat="43.0639667" lon="12.939465"><ele>711.0</ele><time>2026-04-12T09:00:21.429Z</time></trkpt><trkpt lat="43.06381" lon="12.9393083"><ele>712.3333333333334</ele><time>2026-04-12T09:00:22.425Z</time></trkpt><trkpt lat="43.063625" lon="12.9391733"><ele>713.6666666666667</ele><time>2026-04-12T09:00:23.427Z</time></trkpt><trkpt lat="43.0634267" lon="12.9390433"><ele>715.0</ele><time>2026-04-12T09:00:24.427Z</time></trkpt><trkpt lat="43.063225" lon="12.9389083"><ele>715.0</ele><time>2026-04-12T09:00:25.431Z</time></trkpt><trkpt lat="43.0630367" lon="12.938755"><ele>715.0</ele><time>2026-04-12T09:00:26.433Z</time></trkpt><trkpt lat="43.0628567" lon="12.9385867"><ele>715.0</ele><time>2026-04-12T09:00:27.428Z</time></trkpt><trkpt lat="43.0626883" lon="12.9384017"><ele>716.3333333333334</ele><time>2026-04-12T09:00:28.429Z</time></trkpt><trkpt lat="43.0625333" lon="12.938195"><ele>717.6666666666666</ele><time>2026-04-12T09:00:29.43Z</time></trkpt><trkpt lat="43.06238" lon="12.9379867"><ele>719.0</ele><time>2026-04-12T09:00:30.426Z</time></trkpt><trkpt lat="43.062215" lon="12.9377917"><ele>719.0</ele><time>2026-04-12T09:00:31.427Z</time></trkpt><trkpt lat="43.062035" lon="12.937615"><ele>719.0</ele><time>2026-04-12T09:00:32.426Z</time></trkpt><trkpt lat="43.061845" lon="12.9374533"><ele>719.0</ele><time>2026-04-12T09:00:33.427Z</time></trkpt><trkpt lat="43.0616533" lon="12.937305"><ele>724.3333333333333</ele><time>2026-04-12T09:00:34.428Z</time></trkpt><trkpt lat="43.0614533" lon="12.9371717"><ele>729.6666666666666</ele><time>2026-04-12T09:00:35.432Z</time></trkpt><trkpt lat="43.0612483" lon="12.93706"><ele>735.0</ele><time>2026-04-12T09:00:36.428Z</time></trkpt><trkpt lat="43.0610417" lon="12.936965"><ele>735.0</ele><time>2026-04-12T09:00:37.429Z</time></trkpt><trkpt lat="43.0608317" lon="12.9368833"><ele>735.0</ele><time>2026-04-12T09:00:38.431Z</time></trkpt><trkpt lat="43.060625" lon="12.9368"><ele>735.0</ele><time>2026-04-12T09:00:39.428Z</time></trkpt><trkpt lat="43.0604367" lon="12.93669"><ele>738.0</ele><time>2026-04-12T09:00:40.429Z</time></trkpt><trkpt lat="43.0602633" lon="12.93654"><ele>741.0</ele><time>2026-04-12T09:00:41.429Z</time></trkpt><trkpt lat="43.060115" lon="12.9363433"><ele>744.0</ele><time>2026-04-12T09:00:42.429Z</time></trkpt><trkpt lat="43.0599917" lon="12.936115"><ele>742.0</ele><time>2026-04-12T09:00:43.428Z</time></trkpt><trkpt lat="43.0598683" lon="12.93587"><ele>740.0</ele><time>2026-04-12T09:00:44.429Z</time></trkpt><trkpt lat="43.0597383" lon="12.9356217"><ele>738.0</ele><time>2026-04-12T09:00:45.43Z</time></trkpt><trkpt lat="43.059605" lon="12.9353817"><ele>738.0</ele><time>2026-04-12T09:00:46.429Z</time></trkpt><trkpt lat="43.0594617" lon="12.9351533"><ele>738.0</ele><time>2026-04-12T09:00:47.431Z</time></trkpt><trkpt lat="43.059315" lon="12.9349367"><ele>738.0</ele><time>2026-04-12T09:00:48.43Z</time></trkpt><trkpt lat="43.0591617" lon="12.93473"><ele>738.3333333333334</ele><time>2026-04-12T09:00:49.429Z</time></trkpt><trkpt lat="43.0590017" lon="12.9345317"><ele>738.6666666666667</ele><time>2026-04-12T09:00:50.433Z</time></trkpt><trkpt lat="43.0588433" lon="12.93433"><ele>739.0</ele><time>2026-04-12T09:00:51.428Z</time></trkpt><trkpt lat="43.058685" lon="12.9341283"><ele>738.6666666666667</ele><time>2026-04-12T09:00:52.427Z</time></trkpt><trkpt lat="43.058525" lon="12.93393"><ele>738.3333333333334</ele><time>2026-04-12T09:00:53.434Z</time></trkpt><trkpt lat="43.0583633" lon="12.9337367"><ele>738.0</ele><time>2026-04-12T09:00:54.431Z</time></trkpt><trkpt lat="43.0582" lon="12.933545"><ele>742.3333333333334</ele><time>2026-04-12T09:00:55.43Z</time></trkpt><trkpt lat="43.05804" lon="12.93335"><ele>746.6666666666667</ele><time>2026-04-12T09:00:56.432Z</time></trkpt><trkpt lat="43.05788" lon="12.93315"><ele>751.0</ele><time>2026-04-12T09:00:57.429Z</time></trkpt><trkpt lat="43.0577267" lon="12.9329467"><ele>751.0</ele><time>2026-04-12T09:00:58.43Z</time></trkpt><trkpt lat="43.05757" lon="12.9327467"><ele>751.0</ele><time>2026-04-12T09:00:59.431Z</time></trkpt><trkpt lat="43.0574067" lon="12.9325517"><ele>751.0</ele><time>2026-04-12T09:01:00.428Z</time></trkpt><trkpt lat="43.0572383" lon="12.9323633"><ele>753.0</ele><time>2026-04-12T09:01:01.43Z</time></trkpt><trkpt lat="43.057065" lon="12.9321767"><ele>755.0</ele><time>2026-04-12T09:01:02.429Z</time></trkpt><trkpt lat="43.05689" lon="12.9319967"><ele>757.0</ele><time>2026-04-12T09:01:03.429Z</time></trkpt><trkpt lat="43.0567167" lon="12.9318233"><ele>759.3333333333334</ele><time>2026-04-12T09:01:04.431Z</time></trkpt><trkpt lat="43.0565367" lon="12.9316583"><ele>761.6666666666666</ele><time>2026-04-12T09:01:05.431Z</time></trkpt><trkpt lat="43.056355" lon="12.9314967"><ele>764.0</ele><time>2026-04-12T09:01:06.432Z</time></trkpt><trkpt lat="43.05618" lon="12.93133"><ele>764.0</ele><time>2026-04-12T09:01:07.429Z</time></trkpt><trkpt lat="43.05601" lon="12.9311567"><ele>764.0</ele><time>2026-04-12T09:01:08.43Z</time></trkpt><trkpt lat="43.0558467" lon="12.93097"><ele>764.0</ele><time>2026-04-12T09:01:09.43Z</time></trkpt><trkpt lat="43.0556917" lon="12.9307717"><ele>766.3333333333333</ele><time>2026-04-12T09:01:10.432Z</time></trkpt><trkpt lat="43.0555417" lon="12.9305617"><ele>768.6666666666666</ele><time>2026-04-12T09:01:11.429Z</time></trkpt><trkpt lat="43.0553917" lon="12.9303467"><ele>771.0</ele><time>2026-04-12T09:01:12.436Z</time></trkpt><trkpt lat="43.0552467" lon="12.9301233"><ele>771.0</ele><time>2026-04-12T09:01:13.431Z</time></trkpt><trkpt lat="43.0551" lon="12.9298967"><ele>771.0</ele><time>2026-04-12T09:01:14.43Z</time></trkpt><trkpt lat="43.0549533" lon="12.9296717"><ele>771.0</ele><time>2026-04-12T09:01:15.43Z</time></trkpt><trkpt lat="43.054805" lon="12.9294467"><ele>769.0</ele><time>2026-04-12T09:01:16.431Z</time></trkpt><trkpt lat="43.0546617" lon="12.92922"><ele>767.0</ele><time>2026-04-12T09:01:17.43Z</time></trkpt><trkpt lat="43.0545233" lon="12.9289983"><ele>765.0</ele><time>2026-04-12T09:01:18.435Z</time></trkpt><trkpt lat="43.0543833" lon="12.9287717"><ele>765.0</ele><time>2026-04-12T09:01:19.432Z</time></trkpt><trkpt lat="43.0542433" lon="12.92854"><ele>765.0</ele><time>2026-04-12T09:01:20.432Z</time></trkpt><trkpt lat="43.0541067" lon="12.9283033"><ele>765.0</ele><time>2026-04-12T09:01:21.428Z</time></trkpt><trkpt lat="43.0539717" lon="12.928065"><ele>763.3333333333334</ele><time>2026-04-12T09:01:22.429Z</time></trkpt><trkpt lat="43.05384" lon="12.9278233"><ele>761.6666666666667</ele><time>2026-04-12T09:01:23.43Z</time></trkpt><trkpt lat="43.0537083" lon="12.92758"><ele>760.0</ele><time>2026-04-12T09:01:24.432Z</time></trkpt><trkpt lat="43.0535817" lon="12.92733"><ele>760.0</ele><time>2026-04-12T09:01:25.431Z</time></trkpt><trkpt lat="43.0534567" lon="12.9270733"><ele>760.0</ele><time>2026-04-12T09:01:26.43Z</time></trkpt><trkpt lat="43.05334" lon="12.92681"><ele>757.0</ele><time>2026-04-12T09:01:27.431Z</time></trkpt><trkpt lat="43.0532267" lon="12.9265417"><ele>754.0</ele><time>2026-04-12T09:01:28.43Z</time></trkpt><trkpt lat="43.053115" lon="12.92627"><ele>754.0</ele><time>2026-04-12T09:01:29.432Z</time></trkpt><trkpt lat="43.053005" lon="12.926"><ele>754.0</ele><time>2026-04-12T09:01:30.433Z</time></trkpt><trkpt lat="43.0529033" lon="12.9257333"><ele>754.0</ele><time>2026-04-12T09:01:31.431Z</time></trkpt><trkpt lat="43.05281" lon="12.9254683"><ele>754.3333333333334</ele><time>2026-04-12T09:01:32.43Z</time></trkpt><trkpt lat="43.0527333" lon="12.925195"><ele>754.6666666666666</ele><time>2026-04-12T09:01:33.431Z</time></trkpt><trkpt lat="43.0526767" lon="12.9249133"><ele>755.0</ele><time>2026-04-12T09:01:34.431Z</time></trkpt><trkpt lat="43.05264" lon="12.92463"><ele>755.0</ele><time>2026-04-12T09:01:35.432Z</time></trkpt><trkpt lat="43.05261" lon="12.9243517"><ele>755.0</ele><time>2026-04-12T09:01:36.433Z</time></trkpt><trkpt lat="43.0525817" lon="12.92408"><ele>755.0</ele><time>2026-04-12T09:01:37.432Z</time></trkpt><trkpt lat="43.0525567" lon="12.923815"><ele>755.0</ele><time>2026-04-12T09:01:38.431Z</time></trkpt><trkpt lat="43.0525367" lon="12.9235567"><ele>755.0</ele><time>2026-04-12T09:01:39.43Z</time></trkpt><trkpt lat="43.0525317" lon="12.9233017"><ele>755.0</ele><time>2026-04-12T09:01:40.432Z</time></trkpt><trkpt lat="43.0525517" lon="12.923055"><ele>757.0</ele><time>2026-04-12T09:01:41.433Z</time></trkpt><trkpt lat="43.05259" lon="12.9228133"><ele>759.0</ele><time>2026-04-12T09:01:42.429Z</time></trkpt><trkpt lat="43.052635" lon="12.92257"><ele>761.0</ele><time>2026-04-12T09:01:43.429Z</time></trkpt><trkpt lat="43.0526717" lon="12.9223233"><ele>761.0</ele><time>2026-04-12T09:01:44.432Z</time></trkpt><trkpt lat="43.052695" lon="12.9220717"><ele>761.0</ele><time>2026-04-12T09:01:45.431Z</time></trkpt><trkpt lat="43.0527" lon="12.921815"><ele>761.0</ele><time>2026-04-12T09:01:46.43Z</time></trkpt><trkpt lat="43.0526867" lon="12.921555"><ele>760.6666666666666</ele><time>2026-04-12T09:01:47.429Z</time></trkpt><trkpt lat="43.0526583" lon="12.9213"><ele>760.3333333333334</ele><time>2026-04-12T09:01:48.432Z</time></trkpt><trkpt lat="43.0526283" lon="12.9210533"><ele>760.0</ele><time>2026-04-12T09:01:49.432Z</time></trkpt><trkpt lat="43.0526017" lon="12.9208133"><ele>759.0</ele><time>2026-04-12T09:01:50.43Z</time></trkpt><trkpt lat="43.05258" lon="12.920575"><ele>758.0</ele><time>2026-04-12T09:01:51.429Z</time></trkpt><trkpt lat="43.0525683" lon="12.9203317"><ele>757.0</ele><time>2026-04-12T09:01:52.432Z</time></trkpt><trkpt lat="43.0525583" lon="12.92009"><ele>756.0</ele><time>2026-04-12T09:01:53.428Z</time></trkpt><trkpt lat="43.0525367" lon="12.9198417"><ele>755.0</ele><time>2026-04-12T09:01:54.428Z</time></trkpt><trkpt lat="43.0524883" lon="12.9195867"><ele>754.0</ele><time>2026-04-12T09:01:55.431Z</time></trkpt><trkpt lat="43.0524183" lon="12.9193217"><ele>752.3333333333334</ele><time>2026-04-12T09:01:56.431Z</time></trkpt><trkpt lat="43.0523433" lon="12.9190483"><ele>750.6666666666666</ele><time>2026-04-12T09:01:57.431Z</time></trkpt><trkpt lat="43.0522733" lon="12.9187733"><ele>749.0</ele><time>2026-04-12T09:01:58.428Z</time></trkpt><trkpt lat="43.0522033" lon="12.9184933"><ele>750.0</ele><time>2026-04-12T09:01:59.432Z</time></trkpt><trkpt lat="43.0521317" lon="12.918215"><ele>751.0</ele><time>2026-04-12T09:02:00.432Z</time></trkpt><trkpt lat="43.0520567" lon="12.9179333"><ele>752.0</ele><time>2026-04-12T09:02:01.43Z</time></trkpt><trkpt lat="43.0519767" lon="12.91765"><ele>752.3333333333333</ele><time>2026-04-12T09:02:02.431Z</time></trkpt><trkpt lat="43.051895" lon="12.91737"><ele>752.6666666666666</ele><time>2026-04-12T09:02:03.429Z</time></trkpt><trkpt lat="43.0518117" lon="12.91709"><ele>753.0</ele><time>2026-04-12T09:02:04.43Z</time></trkpt><trkpt lat="43.0517283" lon="12.9168067"><ele>753.0</ele><time>2026-04-12T09:02:05.429Z</time></trkpt><trkpt lat="43.0516433" lon="12.916525"><ele>753.0</ele><time>2026-04-12T09:02:06.431Z</time></trkpt><trkpt lat="43.0515567" lon="12.9162417"><ele>753.0</ele><time>2026-04-12T09:02:07.431Z</time></trkpt><trkpt lat="43.0514667" lon="12.91596"><ele>752.3333333333334</ele><time>2026-04-12T09:02:08.432Z</time></trkpt><trkpt lat="43.0513717" lon="12.9156833"><ele>751.6666666666667</ele><time>2026-04-12T09:02:09.43Z</time></trkpt><trkpt lat="43.05127" lon="12.91541"><ele>751.0</ele><time>2026-04-12T09:02:10.431Z</time></trkpt><trkpt lat="43.0511633" lon="12.91514"><ele>751.3333333333334</ele><time>2026-04-12T09:02:11.43Z</time></trkpt><trkpt lat="43.051055" lon="12.9148733"><ele>751.6666666666666</ele><time>2026-04-12T09:02:12.431Z</time></trkpt><trkpt lat="43.0509467" lon="12.914605"><ele>752.0</ele><time>2026-04-12T09:02:13.428Z</time></trkpt><trkpt lat="43.0508467" lon="12.9143317"><ele>751.3333333333333</ele><time>2026-04-12T09:02:14.43Z</time></trkpt><trkpt lat="43.0507533" lon="12.914055"><ele>750.6666666666666</ele><time>2026-04-12T09:02:15.43Z</time></trkpt><trkpt lat="43.0506717" lon="12.9137717"><ele>750.0</ele><time>2026-04-12T09:02:16.428Z</time></trkpt><trkpt lat="43.0506" lon="12.9134833"><ele>750.5</ele><time>2026-04-12T09:02:17.432Z</time></trkpt><trkpt lat="43.0505317" lon="12.91319"><ele>751.0</ele><time>2026-04-12T09:02:18.429Z</time></trkpt><trkpt lat="43.0504583" lon="12.9128983"><ele>751.0</ele><time>2026-04-12T09:02:19.43Z</time></trkpt><trkpt lat="43.0503767" lon="12.9126117"><ele>751.0</ele><time>2026-04-12T09:02:20.432Z</time></trkpt><trkpt lat="43.0502883" lon="12.91233"><ele>751.0</ele><time>2026-04-12T09:02:21.43Z</time></trkpt><trkpt lat="43.05019" lon="12.9120533"><ele>750.5</ele><time>2026-04-12T09:02:22.43Z</time></trkpt><trkpt lat="43.050075" lon="12.9117883"><ele>750.0</ele><time>2026-04-12T09:02:23.43Z</time></trkpt><trkpt lat="43.049945" lon="12.9115367"><ele>750.0</ele><time>2026-04-12T09:02:24.431Z</time></trkpt><trkpt lat="43.049805" lon="12.9112933"><ele>750.0</ele><time>2026-04-12T09:02:25.431Z</time></trkpt><trkpt lat="43.0496617" lon="12.911055"><ele>751.5</ele><time>2026-04-12T09:02:26.434Z</time></trkpt><trkpt lat="43.0495167" lon="12.9108133"><ele>753.0</ele><time>2026-04-12T09:02:27.432Z</time></trkpt><trkpt lat="43.0493733" lon="12.9105683"><ele>753.0</ele><time>2026-04-12T09:02:28.43Z</time></trkpt><trkpt lat="43.0492283" lon="12.910325"><ele>753.0</ele><time>2026-04-12T09:02:29.428Z</time></trkpt><trkpt lat="43.0490833" lon="12.910085"><ele>752.5</ele><time>2026-04-12T09:02:30.43Z</time></trkpt><trkpt lat="43.0489417" lon="12.9098417"><ele>752.0</ele><time>2026-04-12T09:02:31.431Z</time></trkpt><trkpt lat="43.048805" lon="12.9095967"><ele>752.0</ele><time>2026-04-12T09:02:32.43Z</time></trkpt><trkpt lat="43.0486717" lon="12.90935"><ele>752.0</ele><time>2026-04-12T09:02:33.431Z</time></trkpt><trkpt lat="43.0485433" lon="12.9091033"><ele>752.0</ele><time>2026-04-12T09:02:34.429Z</time></trkpt><trkpt lat="43.0484183" lon="12.9088567"><ele>752.0</ele><time>2026-04-12T09:02:35.434Z</time></trkpt><trkpt lat="43.0482917" lon="12.90861"><ele>752.0</ele><time>2026-04-12T09:02:36.428Z</time></trkpt><trkpt lat="43.04817" lon="12.9083583"><ele>752.0</ele><time>2026-04-12T09:02:37.431Z</time></trkpt><trkpt lat="43.04805" lon="12.9081033"><ele>752.0</ele><time>2026-04-12T09:02:38.432Z</time></trkpt><trkpt lat="43.047935" lon="12.9078433"><ele>752.0</ele><time>2026-04-12T09:02:39.429Z</time></trkpt><trkpt lat="43.0478267" lon="12.9075783"><ele>752.0</ele><time>2026-04-12T09:02:40.431Z</time></trkpt><trkpt lat="43.04772" lon="12.9073083"><ele>753.0</ele><time>2026-04-12T09:02:41.431Z</time></trkpt><trkpt lat="43.0476133" lon="12.907035"><ele>754.0</ele><time>2026-04-12T09:02:42.433Z</time></trkpt><trkpt lat="43.0475133" lon="12.9067583"><ele>752.5</ele><time>2026-04-12T09:02:43.428Z</time></trkpt><trkpt lat="43.0474083" lon="12.9064817"><ele>751.0</ele><time>2026-04-12T09:02:44.432Z</time></trkpt><trkpt lat="43.0473017" lon="12.906205"><ele>751.0</ele><time>2026-04-12T09:02:45.433Z</time></trkpt><trkpt lat="43.0471917" lon="12.9059317"><ele>751.0</ele><time>2026-04-12T09:02:46.43Z</time></trkpt><trkpt lat="43.0470833" lon="12.9056583"><ele>751.5</ele><time>2026-04-12T09:02:47.43Z</time></trkpt><trkpt lat="43.0469817" lon="12.9053817"><ele>752.0</ele><time>2026-04-12T09:02:48.43Z</time></trkpt><trkpt lat="43.0468933" lon="12.905095"><ele>752.5</ele><time>2026-04-12T09:02:49.427Z</time></trkpt><trkpt lat="43.0468133" lon="12.9048067"><ele>753.0</ele><time>2026-04-12T09:02:50.426Z</time></trkpt><trkpt lat="43.0467383" lon="12.9045117"><ele>752.5</ele><time>2026-04-12T09:02:51.427Z</time></trkpt><trkpt lat="43.0466633" lon="12.9042167"><ele>752.0</ele><time>2026-04-12T09:02:52.429Z</time></trkpt><trkpt lat="43.0465867" lon="12.9039217"><ele>752.0</ele><time>2026-04-12T09:02:53.429Z</time></trkpt><trkpt lat="43.0465133" lon="12.9036267"><ele>752.0</ele><time>2026-04-12T09:02:54.43Z</time></trkpt><trkpt lat="43.0464383" lon="12.9033317"><ele>751.5</ele><time>2026-04-12T09:02:55.43Z</time></trkpt><trkpt lat="43.0463633" lon="12.9030367"><ele>751.0</ele><time>2026-04-12T09:02:56.433Z</time></trkpt><trkpt lat="43.0462883" lon="12.9027417"><ele>751.0</ele><time>2026-04-12T09:02:57.431Z</time></trkpt><trkpt lat="43.0462167" lon="12.9024433"><ele>751.0</ele><time>2026-04-12T09:02:58.428Z</time></trkpt><trkpt lat="43.0461533" lon="12.9021433"><ele>751.0</ele><time>2026-04-12T09:02:59.431Z</time></trkpt><trkpt lat="43.0461" lon="12.90184"><ele>751.0</ele><time>2026-04-12T09:03:00.43Z</time></trkpt><trkpt lat="43.04606" lon="12.9015317"><ele>751.0</ele><time>2026-04-12T09:03:01.429Z</time></trkpt><trkpt lat="43.0460283" lon="12.90122"><ele>751.0</ele><time>2026-04-12T09:03:02.43Z</time></trkpt><trkpt lat="43.0459933" lon="12.90091"><ele>752.0</ele><time>2026-04-12T09:03:03.43Z</time></trkpt><trkpt lat="43.0459483" lon="12.9006033"><ele>753.0</ele><time>2026-04-12T09:03:04.428Z</time></trkpt><trkpt lat="43.0458967" lon="12.9003"><ele>752.6666666666666</ele><time>2026-04-12T09:03:05.43Z</time></trkpt><trkpt lat="43.04584" lon="12.9000033"><ele>752.3333333333333</ele><time>2026-04-12T09:03:06.43Z</time></trkpt><trkpt lat="43.045775" lon="12.8997133"><ele>752.0</ele><time>2026-04-12T09:03:07.429Z</time></trkpt><trkpt lat="43.0456967" lon="12.8994317"><ele>752.0</ele><time>2026-04-12T09:03:08.43Z</time></trkpt><trkpt lat="43.0455967" lon="12.8991617"><ele>752.0</ele><time>2026-04-12T09:03:09.432Z</time></trkpt><trkpt lat="43.0454733" lon="12.89891"><ele>752.0</ele><time>2026-04-12T09:03:10.431Z</time></trkpt><trkpt lat="43.04533" lon="12.89868"><ele>752.0</ele><time>2026-04-12T09:03:11.431Z</time></trkpt><trkpt lat="43.0451667" lon="12.8984717"><ele>752.0</ele><time>2026-04-12T09:03:12.431Z</time></trkpt><trkpt lat="43.044985" lon="12.8982883"><ele>752.0</ele><time>2026-04-12T09:03:13.429Z</time></trkpt><trkpt lat="43.0447867" lon="12.89814"><ele>757.0</ele><time>2026-04-12T09:03:14.431Z</time></trkpt><trkpt lat="43.044575" lon="12.8980267"><ele>762.0</ele><time>2026-04-12T09:03:15.429Z</time></trkpt><trkpt lat="43.044355" lon="12.8979583"><ele>762.0</ele><time>2026-04-12T09:03:16.431Z</time></trkpt><trkpt lat="43.04413" lon="12.8979133"><ele>762.0</ele><time>2026-04-12T09:03:17.431Z</time></trkpt><trkpt lat="43.0439017" lon="12.8978783"><ele>759.5</ele><time>2026-04-12T09:03:18.431Z</time></trkpt><trkpt lat="43.0436733" lon="12.897855"><ele>757.0</ele><time>2026-04-12T09:03:19.431Z</time></trkpt><trkpt lat="43.043445" lon="12.897845"><ele>757.5</ele><time>2026-04-12T09:03:20.431Z</time></trkpt><trkpt lat="43.0432167" lon="12.8978467"><ele>758.0</ele><time>2026-04-12T09:03:21.43Z</time></trkpt><trkpt lat="43.0429867" lon="12.8978567"><ele>758.0</ele><time>2026-04-12T09:03:22.43Z</time></trkpt><trkpt lat="43.0427583" lon="12.8978717"><ele>758.0</ele><time>2026-04-12T09:03:23.431Z</time></trkpt><trkpt lat="43.04253" lon="12.89789"><ele>756.0</ele><time>2026-04-12T09:03:24.429Z</time></trkpt><trkpt lat="43.0423017" lon="12.8979067"><ele>754.0</ele><time>2026-04-12T09:03:25.428Z</time></trkpt><trkpt lat="43.0420717" lon="12.8979217"><ele>754.0</ele><time>2026-04-12T09:03:26.429Z</time></trkpt><trkpt lat="43.0418433" lon="12.897935"><ele>754.0</ele><time>2026-04-12T09:03:27.428Z</time></trkpt><trkpt lat="43.041615" lon="12.897945"><ele>754.0</ele><time>2026-04-12T09:03:28.428Z</time></trkpt><trkpt lat="43.04139" lon="12.8979567"><ele>754.0</ele><time>2026-04-12T09:03:29.43Z</time></trkpt><trkpt lat="43.0411633" lon="12.8979683"><ele>754.0</ele><time>2026-04-12T09:03:30.426Z</time></trkpt><trkpt lat="43.0409367" lon="12.8979717"><ele>754.0</ele><time>2026-04-12T09:03:31.43Z</time></trkpt><trkpt lat="43.0407133" lon="12.89797"><ele>754.0</ele><time>2026-04-12T09:03:32.433Z</time></trkpt><trkpt lat="43.04049" lon="12.8979567"><ele>754.0</ele><time>2026-04-12T09:03:33.429Z</time></trkpt><trkpt lat="43.040265" lon="12.897925"><ele>754.0</ele><time>2026-04-12T09:03:34.43Z</time></trkpt><trkpt lat="43.040045" lon="12.8978733"><ele>754.0</ele><time>2026-04-12T09:03:35.43Z</time></trkpt><trkpt lat="43.039825" lon="12.89781"><ele>754.0</ele><time>2026-04-12T09:03:36.431Z</time></trkpt><trkpt lat="43.039605" lon="12.8977433"><ele>755.0</ele><time>2026-04-12T09:03:37.431Z</time></trkpt><trkpt lat="43.0393833" lon="12.897675"><ele>756.0</ele><time>2026-04-12T09:03:38.431Z</time></trkpt><trkpt lat="43.0391633" lon="12.8976067"><ele>757.5</ele><time>2026-04-12T09:03:39.43Z</time></trkpt><trkpt lat="43.0389433" lon="12.8975333"><ele>759.0</ele><time>2026-04-12T09:03:40.428Z</time></trkpt><trkpt lat="43.0387267" lon="12.8974517"><ele>759.0</ele><time>2026-04-12T09:03:41.428Z</time></trkpt><trkpt lat="43.0385133" lon="12.8973567"><ele>759.0</ele><time>2026-04-12T09:03:42.429Z</time></trkpt><trkpt lat="43.0383033" lon="12.8972483"><ele>759.0</ele><time>2026-04-12T09:03:43.429Z</time></trkpt><trkpt lat="43.038095" lon="12.8971367"><ele>757.5</ele><time>2026-04-12T09:03:44.43Z</time></trkpt><trkpt lat="43.037885" lon="12.8970283"><ele>756.0</ele><time>2026-04-12T09:03:45.426Z</time></trkpt><trkpt lat="43.037675" lon="12.896915"><ele>757.0</ele><time>2026-04-12T09:03:46.429Z</time></trkpt><trkpt lat="43.0374633" lon="12.8968017"><ele>758.0</ele><time>2026-04-12T09:03:47.429Z</time></trkpt><trkpt lat="43.0372517" lon="12.8966867"><ele>758.0</ele><time>2026-04-12T09:03:48.431Z</time></trkpt><trkpt lat="43.037035" lon="12.8965717"><ele>758.0</ele><time>2026-04-12T09:03:49.431Z</time></trkpt><trkpt lat="43.0368167" lon="12.8964533"><ele>758.5</ele><time>2026-04-12T09:03:50.433Z</time></trkpt><trkpt lat="43.0366" lon="12.8963333"><ele>759.0</ele><time>2026-04-12T09:03:51.435Z</time></trkpt><trkpt lat="43.036385" lon="12.8962133"><ele>759.0</ele><time>2026-04-12T09:03:52.43Z</time></trkpt><trkpt lat="43.03617" lon="12.8960983"><ele>759.0</ele><time>2026-04-12T09:03:53.43Z</time></trkpt><trkpt lat="43.0359583" lon="12.8959817"><ele>759.5</ele><time>2026-04-12T09:03:54.432Z</time></trkpt><trkpt lat="43.03575" lon="12.8958633"><ele>760.0</ele><time>2026-04-12T09:03:55.428Z</time></trkpt><trkpt lat="43.0355383" lon="12.8957417"><ele>760.0</ele><time>2026-04-12T09:03:56.431Z</time></trkpt><trkpt lat="43.0353283" lon="12.8956183"><ele>760.0</ele><time>2026-04-12T09:03:57.431Z</time></trkpt><trkpt lat="43.0351217" lon="12.8954967"><ele>758.5</ele><time>2026-04-12T09:03:58.43Z</time></trkpt><trkpt lat="43.03491" lon="12.895375"><ele>757.0</ele><time>2026-04-12T09:03:59.431Z</time></trkpt><trkpt lat="43.0347017" lon="12.8952533"><ele>757.0</ele><time>2026-04-12T09:04:00.429Z</time></trkpt><trkpt lat="43.0344933" lon="12.8951317"><ele>757.0</ele><time>2026-04-12T09:04:01.43Z</time></trkpt><trkpt lat="43.034285" lon="12.89501"><ele>757.5</ele><time>2026-04-12T09:04:02.426Z</time></trkpt><trkpt lat="43.0340767" lon="12.8948917"><ele>758.0</ele><time>2026-04-12T09:04:03.426Z</time></trkpt><trkpt lat="43.0338683" lon="12.8947717"><ele>758.0</ele><time>2026-04-12T09:04:04.428Z</time></trkpt><trkpt lat="43.0336617" lon="12.8946483"><ele>758.0</ele><time>2026-04-12T09:04:05.424Z</time></trkpt><trkpt lat="43.033455" lon="12.8945267"><ele>758.3333333333333</ele><time>2026-04-12T09:04:06.43Z</time></trkpt><trkpt lat="43.0332483" lon="12.894405"><ele>758.6666666666666</ele><time>2026-04-12T09:04:07.427Z</time></trkpt><trkpt lat="43.0330417" lon="12.8942867"><ele>759.0</ele><time>2026-04-12T09:04:08.432Z</time></trkpt><trkpt lat="43.032835" lon="12.894165"><ele>758.6666666666666</ele><time>2026-04-12T09:04:09.428Z</time></trkpt><trkpt lat="43.0326433" lon="12.8940467"><ele>758.3333333333333</ele><time>2026-04-12T09:04:10.428Z</time></trkpt><trkpt lat="43.0324683" lon="12.8939317"><ele>758.0</ele><time>2026-04-12T09:04:11.432Z</time></trkpt><trkpt lat="43.0322933" lon="12.8938183"><ele>758.0</ele><time>2026-04-12T09:04:12.427Z</time></trkpt><trkpt lat="43.0321167" lon="12.8937083"><ele>758.0</ele><time>2026-04-12T09:04:13.429Z</time></trkpt><trkpt lat="43.0319417" lon="12.8935867"><ele>758.0</ele><time>2026-04-12T09:04:14.43Z</time></trkpt><trkpt lat="43.031765" lon="12.893455"><ele>759.0</ele><time>2026-04-12T09:04:15.429Z</time></trkpt><trkpt lat="43.0315867" lon="12.89332"><ele>760.0</ele><time>2026-04-12T09:04:16.427Z</time></trkpt><trkpt lat="43.0314067" lon="12.8931833"><ele>761.0</ele><time>2026-04-12T09:04:17.431Z</time></trkpt><trkpt lat="43.0312267" lon="12.8930433"><ele>761.0</ele><time>2026-04-12T09:04:18.429Z</time></trkpt><trkpt lat="43.03105" lon="12.8928983"><ele>761.0</ele><time>2026-04-12T09:04:19.427Z</time></trkpt><trkpt lat="43.0308667" lon="12.892755"><ele>761.0</ele><time>2026-04-12T09:04:20.431Z</time></trkpt><trkpt lat="43.030685" lon="12.89261"><ele>761.0</ele><time>2026-04-12T09:04:21.432Z</time></trkpt><trkpt lat="43.0305083" lon="12.89247"><ele>761.0</ele><time>2026-04-12T09:04:22.428Z</time></trkpt><trkpt lat="43.03034" lon="12.892335"><ele>761.0</ele><time>2026-04-12T09:04:23.431Z</time></trkpt><trkpt lat="43.0301783" lon="12.8922083"><ele>761.0</ele><time>2026-04-12T09:04:24.43Z</time></trkpt><trkpt lat="43.03002" lon="12.8920867"><ele>761.0</ele><time>2026-04-12T09:04:25.433Z</time></trkpt><trkpt lat="43.0298617" lon="12.89197"><ele>761.0</ele><time>2026-04-12T09:04:26.432Z</time></trkpt><trkpt lat="43.0296933" lon="12.8918583"><ele>760.6666666666666</ele><time>2026-04-12T09:04:27.432Z</time></trkpt><trkpt lat="43.02952" lon="12.8917583"><ele>760.3333333333334</ele><time>2026-04-12T09:04:28.43Z</time></trkpt><trkpt lat="43.0293433" lon="12.891665"><ele>760.0</ele><time>2026-04-12T09:04:29.429Z</time></trkpt><trkpt lat="43.0291667" lon="12.8915767"><ele>761.3333333333334</ele><time>2026-04-12T09:04:30.43Z</time></trkpt><trkpt lat="43.0289933" lon="12.8914933"><ele>762.6666666666666</ele><time>2026-04-12T09:04:31.429Z</time></trkpt><trkpt lat="43.02883" lon="12.8914217"><ele>764.0</ele><time>2026-04-12T09:04:32.43Z</time></trkpt><trkpt lat="43.0286717" lon="12.89135"><ele>764.0</ele><time>2026-04-12T09:04:33.428Z</time></trkpt><trkpt lat="43.0285267" lon="12.8912717"><ele>764.0</ele><time>2026-04-12T09:04:34.427Z</time></trkpt><trkpt lat="43.0283867" lon="12.89119"><ele>764.0</ele><time>2026-04-12T09:04:35.43Z</time></trkpt><trkpt lat="43.0282417" lon="12.8911083"><ele>764.6666666666666</ele><time>2026-04-12T09:04:36.429Z</time></trkpt><trkpt lat="43.0281" lon="12.8910183"><ele>765.3333333333334</ele><time>2026-04-12T09:04:37.429Z</time></trkpt><trkpt lat="43.0279683" lon="12.890915"><ele>766.0</ele><time>2026-04-12T09:04:38.428Z</time></trkpt><trkpt lat="43.0278567" lon="12.8907833"><ele>766.0</ele><time>2026-04-12T09:04:39.429Z</time></trkpt><trkpt lat="43.027775" lon="12.89062"><ele>766.0</ele><time>2026-04-12T09:04:40.431Z</time></trkpt><trkpt lat="43.027725" lon="12.8904333"><ele>766.0</ele><time>2026-04-12T09:04:41.429Z</time></trkpt><trkpt lat="43.0277" lon="12.89023"><ele>766.0</ele><time>2026-04-12T09:04:42.429Z</time></trkpt><trkpt lat="43.0276717" lon="12.8900133"><ele>765.6666666666667</ele><time>2026-04-12T09:04:43.429Z</time></trkpt><trkpt lat="43.0276233" lon="12.8897783"><ele>765.3333333333334</ele><time>2026-04-12T09:04:44.43Z</time></trkpt><trkpt lat="43.0275433" lon="12.889525"><ele>765.0</ele><time>2026-04-12T09:04:45.428Z</time></trkpt><trkpt lat="43.0274483" lon="12.88926"><ele>763.3333333333334</ele><time>2026-04-12T09:04:46.43Z</time></trkpt><trkpt lat="43.0273483" lon="12.8889967"><ele>761.6666666666667</ele><time>2026-04-12T09:04:47.43Z</time></trkpt><trkpt lat="43.0272383" lon="12.888745"><ele>760.0</ele><time>2026-04-12T09:04:48.429Z</time></trkpt><trkpt lat="43.0271117" lon="12.88852"><ele>760.6666666666667</ele><time>2026-04-12T09:04:49.428Z</time></trkpt><trkpt lat="43.0269783" lon="12.8883217"><ele>761.3333333333334</ele><time>2026-04-12T09:04:50.43Z</time></trkpt><trkpt lat="43.0268567" lon="12.8881233"><ele>762.0</ele><time>2026-04-12T09:04:51.431Z</time></trkpt><trkpt lat="43.0267467" lon="12.887915"><ele>762.0</ele><time>2026-04-12T09:04:52.432Z</time></trkpt><trkpt lat="43.0266467" lon="12.8876883"><ele>762.0</ele><time>2026-04-12T09:04:53.431Z</time></trkpt><trkpt lat="43.0265583" lon="12.8874417"><ele>762.0</ele><time>2026-04-12T09:04:54.431Z</time></trkpt><trkpt lat="43.0264767" lon="12.887185"><ele>762.0</ele><time>2026-04-12T09:04:55.426Z</time></trkpt><trkpt lat="43.02639" lon="12.8869283"><ele>762.0</ele><time>2026-04-12T09:04:56.431Z</time></trkpt><trkpt lat="43.0262967" lon="12.8866683"><ele>762.0</ele><time>2026-04-12T09:04:57.431Z</time></trkpt><trkpt lat="43.0261867" lon="12.886435"><ele>762.0</ele><time>2026-04-12T09:04:58.429Z</time></trkpt><trkpt lat="43.0260667" lon="12.8862167"><ele>762.0</ele><time>2026-04-12T09:04:59.429Z</time></trkpt><trkpt lat="43.0259467" lon="12.885995"><ele>762.0</ele><time>2026-04-12T09:05:00.431Z</time></trkpt><trkpt lat="43.02584" lon="12.8857583"><ele>761.0</ele><time>2026-04-12T09:05:01.43Z</time></trkpt><trkpt lat="43.0257483" lon="12.8855083"><ele>760.0</ele><time>2026-04-12T09:05:02.429Z</time></trkpt><trkpt lat="43.0256717" lon="12.885255"><ele>759.0</ele><time>2026-04-12T09:05:03.432Z</time></trkpt><trkpt lat="43.0255983" lon="12.885015"><ele>758.3333333333334</ele><time>2026-04-12T09:05:04.431Z</time></trkpt><trkpt lat="43.025525" lon="12.884795"><ele>757.6666666666667</ele><time>2026-04-12T09:05:05.431Z</time></trkpt><trkpt lat="43.02545" lon="12.8846033"><ele>757.0</ele><time>2026-04-12T09:05:06.43Z</time></trkpt><trkpt lat="43.0253533" lon="12.8844433"><ele>757.0</ele><time>2026-04-12T09:05:07.43Z</time></trkpt><trkpt lat="43.0252333" lon="12.88433"><ele>757.0</ele><time>2026-04-12T09:05:08.43Z</time></trkpt><trkpt lat="43.0250883" lon="12.884265"><ele>757.0</ele><time>2026-04-12T09:05:09.43Z</time></trkpt><trkpt lat="43.02493" lon="12.8842583"><ele>758.75</ele><time>2026-04-12T09:05:10.424Z</time></trkpt><trkpt lat="43.0247717" lon="12.8843017"><ele>760.5</ele><time>2026-04-12T09:05:11.426Z</time></trkpt><trkpt lat="43.0246233" lon="12.8843433"><ele>762.25</ele><time>2026-04-12T09:05:12.43Z</time></trkpt><trkpt lat="43.02449" lon="12.884345"><ele>764.0</ele><time>2026-04-12T09:05:13.43Z</time></trkpt><trkpt lat="43.0243767" lon="12.884285"><ele>763.75</ele><time>2026-04-12T09:05:14.432Z</time></trkpt><trkpt lat="43.0242933" lon="12.8841667"><ele>763.5</ele><time>2026-04-12T09:05:15.427Z</time></trkpt><trkpt lat="43.0242467" lon="12.8839917"><ele>763.25</ele><time>2026-04-12T09:05:16.427Z</time></trkpt><trkpt lat="43.02424" lon="12.8837733"><ele>763.0</ele><time>2026-04-12T09:05:17.428Z</time></trkpt><trkpt lat="43.024245" lon="12.8835267"><ele>763.3333333333334</ele><time>2026-04-12T09:05:18.43Z</time></trkpt><trkpt lat="43.0242517" lon="12.8832683"><ele>763.6666666666666</ele><time>2026-04-12T09:05:19.43Z</time></trkpt><trkpt lat="43.0242433" lon="12.8830133"><ele>764.0</ele><time>2026-04-12T09:05:20.431Z</time></trkpt><trkpt lat="43.02421" lon="12.8827617"><ele>766.0</ele><time>2026-04-12T09:05:21.43Z</time></trkpt><trkpt lat="43.02414" lon="12.8825233"><ele>768.0</ele><time>2026-04-12T09:05:22.427Z</time></trkpt><trkpt lat="43.02403" lon="12.8823133"><ele>770.0</ele><time>2026-04-12T09:05:23.43Z</time></trkpt><trkpt lat="43.0238883" lon="12.8821417"><ele>770.0</ele><time>2026-04-12T09:05:24.428Z</time></trkpt><trkpt lat="43.0237067" lon="12.8820267"><ele>770.0</ele><time>2026-04-12T09:05:25.43Z</time></trkpt><trkpt lat="43.0234983" lon="12.8819717"><ele>770.0</ele><time>2026-04-12T09:05:26.43Z</time></trkpt><trkpt lat="43.0232717" lon="12.8819733"><ele>771.5</ele><time>2026-04-12T09:05:27.431Z</time></trkpt><trkpt lat="43.0230283" lon="12.8820117"><ele>773.0</ele><time>2026-04-12T09:05:28.429Z</time></trkpt><trkpt lat="43.02281" lon="12.8820317"><ele>773.0</ele><time>2026-04-12T09:05:29.43Z</time></trkpt><trkpt lat="43.02259" lon="12.882005"><ele>773.0</ele><time>2026-04-12T09:05:30.431Z</time></trkpt><trkpt lat="43.0223733" lon="12.8819167"><ele>773.0</ele><time>2026-04-12T09:05:31.432Z</time></trkpt><trkpt lat="43.0221683" lon="12.8817883"><ele>768.5</ele><time>2026-04-12T09:05:32.433Z</time></trkpt><trkpt lat="43.02197" lon="12.8816433"><ele>764.0</ele><time>2026-04-12T09:05:33.432Z</time></trkpt><trkpt lat="43.0217633" lon="12.8814933"><ele>768.0</ele><time>2026-04-12T09:05:34.428Z</time></trkpt><trkpt lat="43.0215567" lon="12.881345"><ele>772.0</ele><time>2026-04-12T09:05:35.43Z</time></trkpt><trkpt lat="43.021355" lon="12.8812017"><ele>772.0</ele><time>2026-04-12T09:05:36.432Z</time></trkpt><trkpt lat="43.0211483" lon="12.88106"><ele>772.0</ele><time>2026-04-12T09:05:37.429Z</time></trkpt><trkpt lat="43.0209483" lon="12.8809017"><ele>769.5</ele><time>2026-04-12T09:05:38.435Z</time></trkpt><trkpt lat="43.0207617" lon="12.8807167"><ele>767.0</ele><time>2026-04-12T09:05:39.431Z</time></trkpt><trkpt lat="43.0205983" lon="12.8804983"><ele>767.0</ele><time>2026-04-12T09:05:40.43Z</time></trkpt><trkpt lat="43.02046" lon="12.88026"><ele>767.0</ele><time>2026-04-12T09:05:41.431Z</time></trkpt><trkpt lat="43.02034" lon="12.8800267"><ele>767.0</ele><time>2026-04-12T09:05:42.431Z</time></trkpt><trkpt lat="43.0202017" lon="12.87982"><ele>766.0</ele><time>2026-04-12T09:05:43.43Z</time></trkpt><trkpt lat="43.0200333" lon="12.87965"><ele>765.0</ele><time>2026-04-12T09:05:44.432Z</time></trkpt><trkpt lat="43.0198317" lon="12.879515"><ele>764.0</ele><time>2026-04-12T09:05:45.431Z</time></trkpt><trkpt lat="43.0196233" lon="12.8793767"><ele>764.5</ele><time>2026-04-12T09:05:46.427Z</time></trkpt><trkpt lat="43.01941" lon="12.8792383"><ele>765.0</ele><time>2026-04-12T09:05:47.432Z</time></trkpt><trkpt lat="43.0192" lon="12.8791083"><ele>765.0</ele><time>2026-04-12T09:05:48.434Z</time></trkpt><trkpt lat="43.0189883" lon="12.8789817"><ele>765.0</ele><time>2026-04-12T09:05:49.43Z</time></trkpt><trkpt lat="43.018775" lon="12.8788683"><ele>765.0</ele><time>2026-04-12T09:05:50.433Z</time></trkpt><trkpt lat="43.018555" lon="12.8787617"><ele>765.0</ele><time>2026-04-12T09:05:51.431Z</time></trkpt><trkpt lat="43.01834" lon="12.878645"><ele>764.5</ele><time>2026-04-12T09:05:52.432Z</time></trkpt><trkpt lat="43.0181333" lon="12.878505"><ele>764.0</ele><time>2026-04-12T09:05:53.43Z</time></trkpt><trkpt lat="43.0179367" lon="12.8783433"><ele>761.0</ele><time>2026-04-12T09:05:54.431Z</time></trkpt><trkpt lat="43.0177417" lon="12.8781683"><ele>758.0</ele><time>2026-04-12T09:05:55.432Z</time></trkpt><trkpt lat="43.0175517" lon="12.8779867"><ele>760.5</ele><time>2026-04-12T09:05:56.428Z</time></trkpt><trkpt lat="43.0173583" lon="12.8778"><ele>763.0</ele><time>2026-04-12T09:05:57.43Z</time></trkpt><trkpt lat="43.017165" lon="12.8776133"><ele>761.5</ele><time>2026-04-12T09:05:58.432Z</time></trkpt><trkpt lat="43.0169733" lon="12.87742"><ele>760.0</ele><time>2026-04-12T09:05:59.432Z</time></trkpt><trkpt lat="43.0167833" lon="12.8772267"><ele>763.0</ele><time>2026-04-12T09:06:00.43Z</time></trkpt><trkpt lat="43.0165983" lon="12.87703"><ele>766.0</ele><time>2026-04-12T09:06:01.431Z</time></trkpt><trkpt lat="43.016415" lon="12.876835"><ele>763.0</ele><time>2026-04-12T09:06:02.431Z</time></trkpt><trkpt lat="43.016235" lon="12.8766417"><ele>760.0</ele><time>2026-04-12T09:06:03.434Z</time></trkpt><trkpt lat="43.016055" lon="12.8764533"><ele>760.0</ele><time>2026-04-12T09:06:04.431Z</time></trkpt><trkpt lat="43.015875" lon="12.876265"><ele>760.0</ele><time>2026-04-12T09:06:05.431Z</time></trkpt><trkpt lat="43.0156933" lon="12.8760783"><ele>760.0</ele><time>2026-04-12T09:06:06.429Z</time></trkpt><trkpt lat="43.0155117" lon="12.87589"><ele>760.0</ele><time>2026-04-12T09:06:07.432Z</time></trkpt><trkpt lat="43.0153333" lon="12.8757"><ele>760.0</ele><time>2026-04-12T09:06:08.43Z</time></trkpt><trkpt lat="43.0151583" lon="12.87551"><ele>760.0</ele><time>2026-04-12T09:06:09.428Z</time></trkpt><trkpt lat="43.0149833" lon="12.8753217"><ele>760.0</ele><time>2026-04-12T09:06:10.432Z</time></trkpt><trkpt lat="43.01481" lon="12.8751333"><ele>761.6666666666667</ele><time>2026-04-12T09:06:11.431Z</time></trkpt><trkpt lat="43.014635" lon="12.8749467"><ele>763.3333333333334</ele><time>2026-04-12T09:06:12.432Z</time></trkpt><trkpt lat="43.01446" lon="12.8747617"><ele>765.0</ele><time>2026-04-12T09:06:13.431Z</time></trkpt><trkpt lat="43.0142867" lon="12.8745783"><ele>765.0</ele><time>2026-04-12T09:06:14.436Z</time></trkpt><trkpt lat="43.0141167" lon="12.874395"><ele>765.0</ele><time>2026-04-12T09:06:15.43Z</time></trkpt><trkpt lat="43.0139483" lon="12.874215"><ele>765.0</ele><time>2026-04-12T09:06:16.429Z</time></trkpt><trkpt lat="43.0137817" lon="12.87404"><ele>764.3333333333334</ele><time>2026-04-12T09:06:17.43Z</time></trkpt><trkpt lat="43.0136133" lon="12.8738633"><ele>763.6666666666667</ele><time>2026-04-12T09:06:18.432Z</time></trkpt><trkpt lat="43.0134417" lon="12.8736833"><ele>763.0</ele><time>2026-04-12T09:06:19.43Z</time></trkpt><trkpt lat="43.0132717" lon="12.873505"><ele>763.6666666666667</ele><time>2026-04-12T09:06:20.43Z</time></trkpt><trkpt lat="43.0131" lon="12.873325"><ele>764.3333333333334</ele><time>2026-04-12T09:06:21.433Z</time></trkpt><trkpt lat="43.0129267" lon="12.873145"><ele>765.0</ele><time>2026-04-12T09:06:22.428Z</time></trkpt><trkpt lat="43.0127533" lon="12.872965"><ele>765.0</ele><time>2026-04-12T09:06:23.429Z</time></trkpt><trkpt lat="43.0125817" lon="12.8727867"><ele>765.0</ele><time>2026-04-12T09:06:24.434Z</time></trkpt><trkpt lat="43.01241" lon="12.872605"><ele>765.0</ele><time>2026-04-12T09:06:25.429Z</time></trkpt><trkpt lat="43.0122383" lon="12.8724233"><ele>765.0</ele><time>2026-04-12T09:06:26.43Z</time></trkpt><trkpt lat="43.0120683" lon="12.87224"><ele>765.0</ele><time>2026-04-12T09:06:27.431Z</time></trkpt><trkpt lat="43.0118967" lon="12.8720567"><ele>765.0</ele><time>2026-04-12T09:06:28.431Z</time></trkpt><trkpt lat="43.011725" lon="12.8718717"><ele>765.6666666666666</ele><time>2026-04-12T09:06:29.432Z</time></trkpt><trkpt lat="43.0115533" lon="12.87169"><ele>766.3333333333333</ele><time>2026-04-12T09:06:30.428Z</time></trkpt><trkpt lat="43.0113817" lon="12.8715067"><ele>767.0</ele><time>2026-04-12T09:06:31.432Z</time></trkpt><trkpt lat="43.0112083" lon="12.871325"><ele>767.0</ele><time>2026-04-12T09:06:32.431Z</time></trkpt><trkpt lat="43.0110333" lon="12.8711433"><ele>767.0</ele><time>2026-04-12T09:06:33.432Z</time></trkpt><trkpt lat="43.01086" lon="12.8709617"><ele>767.0</ele><time>2026-04-12T09:06:34.43Z</time></trkpt><trkpt lat="43.0106883" lon="12.8707783"><ele>767.6666666666666</ele><time>2026-04-12T09:06:35.43Z</time></trkpt><trkpt lat="43.0105183" lon="12.8705967"><ele>768.3333333333333</ele><time>2026-04-12T09:06:36.433Z</time></trkpt><trkpt lat="43.0103517" lon="12.8704183"><ele>769.0</ele><time>2026-04-12T09:06:37.431Z</time></trkpt><trkpt lat="43.0101833" lon="12.8702417"><ele>769.3333333333333</ele><time>2026-04-12T09:06:38.43Z</time></trkpt><trkpt lat="43.0100167" lon="12.870065"><ele>769.6666666666667</ele><time>2026-04-12T09:06:39.432Z</time></trkpt><trkpt lat="43.0098483" lon="12.86989"><ele>770.0</ele><time>2026-04-12T09:06:40.438Z</time></trkpt><trkpt lat="43.0096817" lon="12.8697133"><ele>771.0</ele><time>2026-04-12T09:06:41.428Z</time></trkpt><trkpt lat="43.0095117" lon="12.869535"><ele>772.0</ele><time>2026-04-12T09:06:42.43Z</time></trkpt><trkpt lat="43.00934" lon="12.8693583"><ele>773.0</ele><time>2026-04-12T09:06:43.43Z</time></trkpt><trkpt lat="43.0091667" lon="12.86918"><ele>774.0</ele><time>2026-04-12T09:06:44.432Z</time></trkpt><trkpt lat="43.0089917" lon="12.8690033"><ele>775.0</ele><time>2026-04-12T09:06:45.431Z</time></trkpt><trkpt lat="43.0088183" lon="12.86883"><ele>776.0</ele><time>2026-04-12T09:06:46.428Z</time></trkpt><trkpt lat="43.0086417" lon="12.8686617"><ele>776.0</ele><time>2026-04-12T09:06:47.432Z</time></trkpt><trkpt lat="43.0084667" lon="12.8684933"><ele>776.0</ele><time>2026-04-12T09:06:48.43Z</time></trkpt><trkpt lat="43.0082967" lon="12.8683233"><ele>776.0</ele><time>2026-04-12T09:06:49.432Z</time></trkpt><trkpt lat="43.0081283" lon="12.8681483"><ele>777.3333333333334</ele><time>2026-04-12T09:06:50.432Z</time></trkpt><trkpt lat="43.0079567" lon="12.8679733"><ele>778.6666666666667</ele><time>2026-04-12T09:06:51.432Z</time></trkpt><trkpt lat="43.0077817" lon="12.8678"><ele>780.0</ele><time>2026-04-12T09:06:52.429Z</time></trkpt><trkpt lat="43.0076067" lon="12.867625"><ele>781.3333333333333</ele><time>2026-04-12T09:06:53.429Z</time></trkpt><trkpt lat="43.0074333" lon="12.86745"><ele>782.6666666666666</ele><time>2026-04-12T09:06:54.431Z</time></trkpt><trkpt lat="43.0072617" lon="12.8672717"><ele>784.0</ele><time>2026-04-12T09:06:55.433Z</time></trkpt><trkpt lat="43.00709" lon="12.8670933"><ele>784.0</ele><time>2026-04-12T09:06:56.43Z</time></trkpt><trkpt lat="43.00692" lon="12.8669167"><ele>784.0</ele><time>2026-04-12T09:06:57.43Z</time></trkpt><trkpt lat="43.00675" lon="12.8667383"><ele>784.0</ele><time>2026-04-12T09:06:58.43Z</time></trkpt><trkpt lat="43.00658" lon="12.8665617"><ele>785.6666666666666</ele><time>2026-04-12T09:06:59.429Z</time></trkpt><trkpt lat="43.0064017" lon="12.8663967"><ele>787.3333333333333</ele><time>2026-04-12T09:07:00.429Z</time></trkpt><trkpt lat="43.0062117" lon="12.8662567"><ele>789.0</ele><time>2026-04-12T09:07:01.432Z</time></trkpt><trkpt lat="43.0060167" lon="12.8661367"><ele>789.3333333333333</ele><time>2026-04-12T09:07:02.43Z</time></trkpt><trkpt lat="43.005815" lon="12.8660333"><ele>789.6666666666666</ele><time>2026-04-12T09:07:03.431Z</time></trkpt><trkpt lat="43.0056133" lon="12.8659317"><ele>790.0</ele><time>2026-04-12T09:07:04.431Z</time></trkpt><trkpt lat="43.005415" lon="12.8658133"><ele>790.6666666666666</ele><time>2026-04-12T09:07:05.432Z</time></trkpt><trkpt lat="43.0052217" lon="12.865675"><ele>791.3333333333333</ele><time>2026-04-12T09:07:06.43Z</time></trkpt><trkpt lat="43.0050367" lon="12.865515"><ele>792.0</ele><time>2026-04-12T09:07:07.431Z</time></trkpt><trkpt lat="43.0048567" lon="12.8653433"><ele>792.0</ele><time>2026-04-12T09:07:08.434Z</time></trkpt><trkpt lat="43.0046833" lon="12.86516"><ele>792.0</ele><time>2026-04-12T09:07:09.429Z</time></trkpt><trkpt lat="43.004515" lon="12.864965"><ele>792.0</ele><time>2026-04-12T09:07:10.436Z</time></trkpt><trkpt lat="43.0043583" lon="12.8647583"><ele>793.0</ele><time>2026-04-12T09:07:11.43Z</time></trkpt><trkpt lat="43.0042067" lon="12.86454"><ele>794.0</ele><time>2026-04-12T09:07:12.431Z</time></trkpt><trkpt lat="43.004065" lon="12.8643117"><ele>795.0</ele><time>2026-04-12T09:07:13.43Z</time></trkpt><trkpt lat="43.0039283" lon="12.8640767"><ele>796.3333333333333</ele><time>2026-04-12T09:07:14.426Z</time></trkpt><trkpt lat="43.0037933" lon="12.8638417"><ele>797.6666666666666</ele><time>2026-04-12T09:07:15.429Z</time></trkpt><trkpt lat="43.0036633" lon="12.8636017"><ele>799.0</ele><time>2026-04-12T09:07:16.427Z</time></trkpt><trkpt lat="43.00355" lon="12.8633483"><ele>801.3333333333333</ele><time>2026-04-12T09:07:17.428Z</time></trkpt><trkpt lat="43.00347" lon="12.8630783"><ele>803.6666666666667</ele><time>2026-04-12T09:07:18.427Z</time></trkpt><trkpt lat="43.0034283" lon="12.8627967"><ele>806.0</ele><time>2026-04-12T09:07:19.429Z</time></trkpt><trkpt lat="43.0034367" lon="12.8625083"><ele>807.6666666666667</ele><time>2026-04-12T09:07:20.429Z</time></trkpt><trkpt lat="43.00348" lon="12.8622183"><ele>809.3333333333333</ele><time>2026-04-12T09:07:21.428Z</time></trkpt><trkpt lat="43.0035433" lon="12.8619283"><ele>811.0</ele><time>2026-04-12T09:07:22.429Z</time></trkpt><trkpt lat="43.0035983" lon="12.8616367"><ele>813.0</ele><time>2026-04-12T09:07:23.429Z</time></trkpt><trkpt lat="43.003625" lon="12.8613433"><ele>815.0</ele><time>2026-04-12T09:07:24.429Z</time></trkpt><trkpt lat="43.00362" lon="12.861055"><ele>817.0</ele><time>2026-04-12T09:07:25.432Z</time></trkpt><trkpt lat="43.00358" lon="12.8607767"><ele>819.3333333333333</ele><time>2026-04-12T09:07:26.431Z</time></trkpt><trkpt lat="43.0035067" lon="12.8605033"><ele>821.6666666666667</ele><time>2026-04-12T09:07:27.428Z</time></trkpt><trkpt lat="43.0034117" lon="12.8602367"><ele>824.0</ele><time>2026-04-12T09:07:28.431Z</time></trkpt><trkpt lat="43.0033067" lon="12.85997"><ele>829.0</ele><time>2026-04-12T09:07:29.428Z</time></trkpt><trkpt lat="43.0031983" lon="12.8597017"><ele>834.0</ele><time>2026-04-12T09:07:30.431Z</time></trkpt><trkpt lat="43.003085" lon="12.85943"><ele>831.5</ele><time>2026-04-12T09:07:31.432Z</time></trkpt><trkpt lat="43.0029717" lon="12.85916"><ele>829.0</ele><time>2026-04-12T09:07:32.433Z</time></trkpt><trkpt lat="43.00286" lon="12.8588917"><ele>829.0</ele><time>2026-04-12T09:07:33.429Z</time></trkpt><trkpt lat="43.0027483" lon="12.8586267"><ele>829.0</ele><time>2026-04-12T09:07:34.43Z</time></trkpt><trkpt lat="43.0026317" lon="12.8583717"><ele>829.0</ele><time>2026-04-12T09:07:35.429Z</time></trkpt><trkpt lat="43.002505" lon="12.85812"><ele>830.0</ele><time>2026-04-12T09:07:36.434Z</time></trkpt><trkpt lat="43.0023717" lon="12.85788"><ele>831.0</ele><time>2026-04-12T09:07:37.431Z</time></trkpt><trkpt lat="43.002235" lon="12.8576467"><ele>832.0</ele><time>2026-04-12T09:07:38.43Z</time></trkpt><trkpt lat="43.0020967" lon="12.8574183"><ele>829.3333333333333</ele><time>2026-04-12T09:07:39.43Z</time></trkpt><trkpt lat="43.0019517" lon="12.8571867"><ele>826.6666666666667</ele><time>2026-04-12T09:07:40.431Z</time></trkpt><trkpt lat="43.0018033" lon="12.8569533"><ele>824.0</ele><time>2026-04-12T09:07:41.427Z</time></trkpt><trkpt lat="43.0016517" lon="12.8567183"><ele>822.5</ele><time>2026-04-12T09:07:42.43Z</time></trkpt><trkpt lat="43.0014967" lon="12.8564767"><ele>821.0</ele><time>2026-04-12T09:07:43.429Z</time></trkpt><trkpt lat="43.0013417" lon="12.8562383"><ele>821.0</ele><time>2026-04-12T09:07:44.433Z</time></trkpt><trkpt lat="43.0011867" lon="12.855995"><ele>821.0</ele><time>2026-04-12T09:07:45.431Z</time></trkpt><trkpt lat="43.0010333" lon="12.855755"><ele>822.0</ele><time>2026-04-12T09:07:46.429Z</time></trkpt><trkpt lat="43.0008817" lon="12.8555183"><ele>823.0</ele><time>2026-04-12T09:07:47.431Z</time></trkpt><trkpt lat="43.0007333" lon="12.855285"><ele>820.5</ele><time>2026-04-12T09:07:48.432Z</time></trkpt><trkpt lat="43.0005867" lon="12.85505"><ele>818.0</ele><time>2026-04-12T09:07:49.43Z</time></trkpt><trkpt lat="43.0004367" lon="12.85482"><ele>818.0</ele><time>2026-04-12T09:07:50.429Z</time></trkpt><trkpt lat="43.000275" lon="12.8546033"><ele>818.0</ele><time>2026-04-12T09:07:51.431Z</time></trkpt><trkpt lat="43.0001" lon="12.8544033"><ele>812.5</ele><time>2026-04-12T09:07:52.426Z</time></trkpt><trkpt lat="42.9999183" lon="12.8542167"><ele>807.0</ele><time>2026-04-12T09:07:53.428Z</time></trkpt><trkpt lat="42.9997483" lon="12.8540133"><ele>807.0</ele><time>2026-04-12T09:07:54.43Z</time></trkpt><trkpt lat="42.999595" lon="12.8537783"><ele>807.0</ele><time>2026-04-12T09:07:55.43Z</time></trkpt><trkpt lat="42.9994617" lon="12.853525"><ele>803.5</ele><time>2026-04-12T09:07:56.428Z</time></trkpt><trkpt lat="42.9993517" lon="12.8532533"><ele>800.0</ele><time>2026-04-12T09:07:57.431Z</time></trkpt><trkpt lat="42.999265" lon="12.85297"><ele>800.0</ele><time>2026-04-12T09:07:58.429Z</time></trkpt><trkpt lat="42.99919" lon="12.8526767"><ele>800.0</ele><time>2026-04-12T09:07:59.425Z</time></trkpt><trkpt lat="42.999125" lon="12.852375"><ele>801.0</ele><time>2026-04-12T09:08:00.434Z</time></trkpt><trkpt lat="42.99906" lon="12.8520717"><ele>802.0</ele><time>2026-04-12T09:08:01.428Z</time></trkpt><trkpt lat="42.998995" lon="12.8517667"><ele>802.0</ele><time>2026-04-12T09:08:02.424Z</time></trkpt><trkpt lat="42.998925" lon="12.8514617"><ele>802.0</ele><time>2026-04-12T09:08:03.43Z</time></trkpt><trkpt lat="42.9988567" lon="12.8511533"><ele>802.5</ele><time>2026-04-12T09:08:04.43Z</time></trkpt><trkpt lat="42.9987883" lon="12.850845"><ele>803.0</ele><time>2026-04-12T09:08:05.43Z</time></trkpt><trkpt lat="42.9987217" lon="12.85054"><ele>803.0</ele><time>2026-04-12T09:08:06.429Z</time></trkpt><trkpt lat="42.9986567" lon="12.8502383"><ele>803.0</ele><time>2026-04-12T09:08:07.432Z</time></trkpt><trkpt lat="42.9985917" lon="12.849935"><ele>802.0</ele><time>2026-04-12T09:08:08.432Z</time></trkpt><trkpt lat="42.99853" lon="12.8496333"><ele>801.0</ele><time>2026-04-12T09:08:09.43Z</time></trkpt><trkpt lat="42.9984633" lon="12.8493333"><ele>801.0</ele><time>2026-04-12T09:08:10.432Z</time></trkpt><trkpt lat="42.9983967" lon="12.849035"><ele>801.0</ele><time>2026-04-12T09:08:11.43Z</time></trkpt><trkpt lat="42.9983317" lon="12.848735"><ele>801.6666666666667</ele><time>2026-04-12T09:08:12.43Z</time></trkpt><trkpt lat="42.9982717" lon="12.8484417"><ele>802.3333333333334</ele><time>2026-04-12T09:08:13.428Z</time></trkpt><trkpt lat="42.99821" lon="12.8481583"><ele>803.0</ele><time>2026-04-12T09:08:14.432Z</time></trkpt><trkpt lat="42.9981517" lon="12.847885"><ele>804.0</ele><time>2026-04-12T09:08:15.432Z</time></trkpt><trkpt lat="42.9980933" lon="12.8476167"><ele>805.0</ele><time>2026-04-12T09:08:16.429Z</time></trkpt><trkpt lat="42.9980383" lon="12.8473583"><ele>806.0</ele><time>2026-04-12T09:08:17.431Z</time></trkpt><trkpt lat="42.9979717" lon="12.8471167"><ele>806.0</ele><time>2026-04-12T09:08:18.431Z</time></trkpt><trkpt lat="42.99787" lon="12.8469017"><ele>806.0</ele><time>2026-04-12T09:08:19.429Z</time></trkpt><trkpt lat="42.9977333" lon="12.8467267"><ele>806.0</ele><time>2026-04-12T09:08:20.431Z</time></trkpt><trkpt lat="42.9975733" lon="12.8466217"><ele>806.3333333333334</ele><time>2026-04-12T09:08:21.43Z</time></trkpt><trkpt lat="42.997395" lon="12.8465833"><ele>806.6666666666667</ele><time>2026-04-12T09:08:22.427Z</time></trkpt><trkpt lat="42.9971933" lon="12.8466033"><ele>807.0</ele><time>2026-04-12T09:08:23.429Z</time></trkpt><trkpt lat="42.9969783" lon="12.8466317"><ele>807.0</ele><time>2026-04-12T09:08:24.429Z</time></trkpt><trkpt lat="42.9967633" lon="12.8466533"><ele>807.0</ele><time>2026-04-12T09:08:25.43Z</time></trkpt><trkpt lat="42.996555" lon="12.84667"><ele>807.0</ele><time>2026-04-12T09:08:26.429Z</time></trkpt><trkpt lat="42.9963583" lon="12.8466833"><ele>806.3333333333333</ele><time>2026-04-12T09:08:27.43Z</time></trkpt><trkpt lat="42.9961683" lon="12.8466717"><ele>805.6666666666666</ele><time>2026-04-12T09:08:28.43Z</time></trkpt><trkpt lat="42.995985" lon="12.8466217"><ele>805.0</ele><time>2026-04-12T09:08:29.431Z</time></trkpt><trkpt lat="42.995815" lon="12.8465083"><ele>806.0</ele><time>2026-04-12T09:08:30.427Z</time></trkpt><trkpt lat="42.99566" lon="12.8463317"><ele>807.0</ele><time>2026-04-12T09:08:31.428Z</time></trkpt><trkpt lat="42.9955117" lon="12.8461183"><ele>808.0</ele><time>2026-04-12T09:08:32.433Z</time></trkpt><trkpt lat="42.9953717" lon="12.8458933"><ele>808.0</ele><time>2026-04-12T09:08:33.43Z</time></trkpt><trkpt lat="42.9952467" lon="12.84566"><ele>808.0</ele><time>2026-04-12T09:08:34.43Z</time></trkpt><trkpt lat="42.995145" lon="12.8454033"><ele>808.0</ele><time>2026-04-12T09:08:35.428Z</time></trkpt><trkpt lat="42.9950583" lon="12.8451367"><ele>802.3333333333333</ele><time>2026-04-12T09:08:36.429Z</time></trkpt><trkpt lat="42.9949633" lon="12.844875"><ele>796.6666666666667</ele><time>2026-04-12T09:08:37.428Z</time></trkpt><trkpt lat="42.9948417" lon="12.8446417"><ele>791.0</ele><time>2026-04-12T09:08:38.431Z</time></trkpt><trkpt lat="42.99471" lon="12.8444367"><ele>795.0</ele><time>2026-04-12T09:08:39.429Z</time></trkpt><trkpt lat="42.9946033" lon="12.8442367"><ele>799.0</ele><time>2026-04-12T09:08:40.43Z</time></trkpt><trkpt lat="42.99454" lon="12.8440283"><ele>803.0</ele><time>2026-04-12T09:08:41.428Z</time></trkpt><trkpt lat="42.9945333" lon="12.8438133"><ele>803.0</ele><time>2026-04-12T09:08:42.43Z</time></trkpt><trkpt lat="42.99458" lon="12.84361"><ele>803.0</ele><time>2026-04-12T09:08:43.432Z</time></trkpt><trkpt lat="42.99466" lon="12.843395"><ele>803.0</ele><time>2026-04-12T09:08:44.431Z</time></trkpt><trkpt lat="42.9947283" lon="12.8431633"><ele>802.6666666666667</ele><time>2026-04-12T09:08:45.427Z</time></trkpt><trkpt lat="42.994755" lon="12.842915"><ele>802.3333333333333</ele><time>2026-04-12T09:08:46.436Z</time></trkpt><trkpt lat="42.9947483" lon="12.842635"><ele>802.0</ele><time>2026-04-12T09:08:47.43Z</time></trkpt><trkpt lat="42.99474" lon="12.8423533"><ele>802.3333333333333</ele><time>2026-04-12T09:08:48.432Z</time></trkpt><trkpt lat="42.9947283" lon="12.8420833"><ele>802.6666666666667</ele><time>2026-04-12T09:08:49.427Z</time></trkpt><trkpt lat="42.994715" lon="12.8418317"><ele>803.0</ele><time>2026-04-12T09:08:50.43Z</time></trkpt><trkpt lat="42.994695" lon="12.841605"><ele>803.0</ele><time>2026-04-12T09:08:51.429Z</time></trkpt><trkpt lat="42.9946683" lon="12.8414133"><ele>803.0</ele><time>2026-04-12T09:08:52.428Z</time></trkpt><trkpt lat="42.9946167" lon="12.8412617"><ele>803.0</ele><time>2026-04-12T09:08:53.426Z</time></trkpt><trkpt lat="42.994515" lon="12.8411517"><ele>803.0</ele><time>2026-04-12T09:08:54.428Z</time></trkpt><trkpt lat="42.994385" lon="12.84109"><ele>803.0</ele><time>2026-04-12T09:08:55.428Z</time></trkpt><trkpt lat="42.9942683" lon="12.841115"><ele>803.0</ele><time>2026-04-12T09:08:56.43Z</time></trkpt><trkpt lat="42.9941433" lon="12.8412433"><ele>803.0</ele><time>2026-04-12T09:08:57.428Z</time></trkpt><trkpt lat="42.9940217" lon="12.8414383"><ele>797.0</ele><time>2026-04-12T09:08:58.428Z</time></trkpt><trkpt lat="42.9938983" lon="12.8416483"><ele>791.0</ele><time>2026-04-12T09:08:59.428Z</time></trkpt><trkpt lat="42.99377" lon="12.8418533"><ele>785.0</ele><time>2026-04-12T09:09:00.429Z</time></trkpt><trkpt lat="42.9936367" lon="12.8420417"><ele>780.3333333333334</ele><time>2026-04-12T09:09:01.428Z</time></trkpt><trkpt lat="42.9934933" lon="12.8422"><ele>775.6666666666667</ele><time>2026-04-12T09:09:02.43Z</time></trkpt><trkpt lat="42.99335" lon="12.8423367"><ele>771.0</ele><time>2026-04-12T09:09:03.43Z</time></trkpt><trkpt lat="42.99321" lon="12.8424517"><ele>771.0</ele><time>2026-04-12T09:09:04.428Z</time></trkpt><trkpt lat="42.993065" lon="12.8425217"><ele>771.0</ele><time>2026-04-12T09:09:05.428Z</time></trkpt><trkpt lat="42.992925" lon="12.842525"><ele>771.0</ele><time>2026-04-12T09:09:06.43Z</time></trkpt><trkpt lat="42.9927683" lon="12.8424333"><ele>771.0</ele><time>2026-04-12T09:09:07.427Z</time></trkpt><trkpt lat="42.992615" lon="12.8422533"><ele>771.0</ele><time>2026-04-12T09:09:08.43Z</time></trkpt><trkpt lat="42.9924617" lon="12.8420583"><ele>771.0</ele><time>2026-04-12T09:09:09.429Z</time></trkpt><trkpt lat="42.9922833" lon="12.841895"><ele>774.6666666666667</ele><time>2026-04-12T09:09:10.44Z</time></trkpt><trkpt lat="42.9921083" lon="12.8417683"><ele>778.3333333333334</ele><time>2026-04-12T09:09:11.43Z</time></trkpt><trkpt lat="42.9919417" lon="12.8416633"><ele>782.0</ele><time>2026-04-12T09:09:12.431Z</time></trkpt><trkpt lat="42.9917867" lon="12.8416033"><ele>778.6666666666667</ele><time>2026-04-12T09:09:13.431Z</time></trkpt><trkpt lat="42.99164" lon="12.8416083"><ele>775.3333333333333</ele><time>2026-04-12T09:09:14.43Z</time></trkpt><trkpt lat="42.9915" lon="12.8417033"><ele>772.0</ele><time>2026-04-12T09:09:15.432Z</time></trkpt><trkpt lat="42.9913983" lon="12.8418717"><ele>766.6666666666666</ele><time>2026-04-12T09:09:16.428Z</time></trkpt><trkpt lat="42.9913467" lon="12.8421167"><ele>761.3333333333333</ele><time>2026-04-12T09:09:17.43Z</time></trkpt><trkpt lat="42.9913117" lon="12.8423917"><ele>756.0</ele><time>2026-04-12T09:09:18.429Z</time></trkpt><trkpt lat="42.9912633" lon="12.8426633"><ele>750.6666666666666</ele><time>2026-04-12T09:09:19.429Z</time></trkpt><trkpt lat="42.9912117" lon="12.8429417"><ele>745.3333333333333</ele><time>2026-04-12T09:09:20.431Z</time></trkpt><trkpt lat="42.9911583" lon="12.8432367"><ele>740.0</ele><time>2026-04-12T09:09:21.431Z</time></trkpt><trkpt lat="42.9911067" lon="12.8435367"><ele>734.0</ele><time>2026-04-12T09:09:22.43Z</time></trkpt><trkpt lat="42.9910717" lon="12.84384"><ele>728.0</ele><time>2026-04-12T09:09:23.429Z</time></trkpt><trkpt lat="42.99106" lon="12.8441433"><ele>722.0</ele><time>2026-04-12T09:09:24.431Z</time></trkpt><trkpt lat="42.991055" lon="12.8444367"><ele>718.6666666666666</ele><time>2026-04-12T09:09:25.432Z</time></trkpt><trkpt lat="42.9910283" lon="12.8447167"><ele>715.3333333333334</ele><time>2026-04-12T09:09:26.43Z</time></trkpt><trkpt lat="42.9909783" lon="12.844975"><ele>712.0</ele><time>2026-04-12T09:09:27.432Z</time></trkpt><trkpt lat="42.9909083" lon="12.845195"><ele>718.25</ele><time>2026-04-12T09:09:28.43Z</time></trkpt><trkpt lat="42.99082" lon="12.845375"><ele>724.5</ele><time>2026-04-12T09:09:29.43Z</time></trkpt><trkpt lat="42.9907083" lon="12.8454917"><ele>730.75</ele><time>2026-04-12T09:09:30.43Z</time></trkpt><trkpt lat="42.9905717" lon="12.8455183"><ele>737.0</ele><time>2026-04-12T09:09:31.43Z</time></trkpt><trkpt lat="42.9904267" lon="12.8454783"><ele>737.0</ele><time>2026-04-12T09:09:32.43Z</time></trkpt><trkpt lat="42.9902683" lon="12.8453833"><ele>737.0</ele><time>2026-04-12T09:09:33.425Z</time></trkpt><trkpt lat="42.9901083" lon="12.84528"><ele>737.0</ele><time>2026-04-12T09:09:34.43Z</time></trkpt><trkpt lat="42.9899667" lon="12.8451833"><ele>738.25</ele><time>2026-04-12T09:09:35.426Z</time></trkpt><trkpt lat="42.9898383" lon="12.84512"><ele>739.5</ele><time>2026-04-12T09:09:36.428Z</time></trkpt><trkpt lat="42.98972" lon="12.84513"><ele>740.75</ele><time>2026-04-12T09:09:37.429Z</time></trkpt><trkpt lat="42.9896283" lon="12.8452033"><ele>742.0</ele><time>2026-04-12T09:09:38.43Z</time></trkpt><trkpt lat="42.9895833" lon="12.8453467"><ele>742.0</ele><time>2026-04-12T09:09:39.431Z</time></trkpt><trkpt lat="42.989575" lon="12.8455267"><ele>742.0</ele><time>2026-04-12T09:09:40.432Z</time></trkpt><trkpt lat="42.98961" lon="12.84579"><ele>742.0</ele><time>2026-04-12T09:09:41.43Z</time></trkpt><trkpt lat="42.989635" lon="12.84605"><ele>738.3333333333334</ele><time>2026-04-12T09:09:42.429Z</time></trkpt><trkpt lat="42.9896533" lon="12.8463183"><ele>734.6666666666666</ele><time>2026-04-12T09:09:43.431Z</time></trkpt><trkpt lat="42.9896767" lon="12.8465933"><ele>731.0</ele><time>2026-04-12T09:09:44.434Z</time></trkpt><trkpt lat="42.9897083" lon="12.846855"><ele>731.0</ele><time>2026-04-12T09:09:45.432Z</time></trkpt><trkpt lat="42.9897633" lon="12.8470983"><ele>731.0</ele><time>2026-04-12T09:09:46.428Z</time></trkpt><trkpt lat="42.9898433" lon="12.8473217"><ele>731.0</ele><time>2026-04-12T09:09:47.431Z</time></trkpt><trkpt lat="42.989925" lon="12.847515"><ele>727.5</ele><time>2026-04-12T09:09:48.427Z</time></trkpt><trkpt lat="42.9899983" lon="12.8476817"><ele>724.0</ele><time>2026-04-12T09:09:49.425Z</time></trkpt><trkpt lat="42.9900183" lon="12.84784"><ele>720.5</ele><time>2026-04-12T09:09:50.431Z</time></trkpt><trkpt lat="42.98998" lon="12.847975"><ele>717.0</ele><time>2026-04-12T09:09:51.427Z</time></trkpt><trkpt lat="42.9898917" lon="12.8480717"><ele>717.0</ele><time>2026-04-12T09:09:52.428Z</time></trkpt><trkpt lat="42.9897567" lon="12.8481433"><ele>717.0</ele><time>2026-04-12T09:09:53.428Z</time></trkpt><trkpt lat="42.9895967" lon="12.8481883"><ele>717.0</ele><time>2026-04-12T09:09:54.432Z</time></trkpt><trkpt lat="42.98942" lon="12.8482267"><ele>717.0</ele><time>2026-04-12T09:09:55.427Z</time></trkpt><trkpt lat="42.9892217" lon="12.848245"><ele>717.0</ele><time>2026-04-12T09:09:56.429Z</time></trkpt><trkpt lat="42.98902" lon="12.8482483"><ele>717.0</ele><time>2026-04-12T09:09:57.429Z</time></trkpt><trkpt lat="42.9888083" lon="12.84824"><ele>719.0</ele><time>2026-04-12T09:09:58.431Z</time></trkpt><trkpt lat="42.9885883" lon="12.8482283"><ele>721.0</ele><time>2026-04-12T09:09:59.432Z</time></trkpt><trkpt lat="42.98837" lon="12.8482267"><ele>723.0</ele><time>2026-04-12T09:10:00.428Z</time></trkpt><trkpt lat="42.9881533" lon="12.8482383"><ele>723.0</ele><time>2026-04-12T09:10:01.426Z</time></trkpt><trkpt lat="42.9879533" lon="12.8483017"><ele>723.0</ele><time>2026-04-12T09:10:02.428Z</time></trkpt><trkpt lat="42.9877567" lon="12.848385"><ele>723.0</ele><time>2026-04-12T09:10:03.427Z</time></trkpt><trkpt lat="42.98757" lon="12.8484417"><ele>723.6666666666666</ele><time>2026-04-12T09:10:04.428Z</time></trkpt><trkpt lat="42.9873817" lon="12.8484467"><ele>724.3333333333333</ele><time>2026-04-12T09:10:05.43Z</time></trkpt><trkpt lat="42.9871717" lon="12.8483967"><ele>725.0</ele><time>2026-04-12T09:10:06.432Z</time></trkpt><trkpt lat="42.986945" lon="12.848355"><ele>725.0</ele><time>2026-04-12T09:10:07.428Z</time></trkpt><trkpt lat="42.9867167" lon="12.84831"><ele>725.0</ele><time>2026-04-12T09:10:08.433Z</time></trkpt><trkpt lat="42.98649" lon="12.8482733"><ele>719.5</ele><time>2026-04-12T09:10:09.431Z</time></trkpt><trkpt lat="42.9862617" lon="12.8482633"><ele>714.0</ele><time>2026-04-12T09:10:10.432Z</time></trkpt><trkpt lat="42.9860317" lon="12.8482833"><ele>713.0</ele><time>2026-04-12T09:10:11.431Z</time></trkpt><trkpt lat="42.9858" lon="12.84831"><ele>712.0</ele><time>2026-04-12T09:10:12.436Z</time></trkpt><trkpt lat="42.9855667" lon="12.848305"><ele>712.0</ele><time>2026-04-12T09:10:13.431Z</time></trkpt><trkpt lat="42.9853433" lon="12.8482517"><ele>712.0</ele><time>2026-04-12T09:10:14.43Z</time></trkpt><trkpt lat="42.9851233" lon="12.8481533"><ele>703.5</ele><time>2026-04-12T09:10:15.431Z</time></trkpt><trkpt lat="42.9849017" lon="12.848045"><ele>695.0</ele><time>2026-04-12T09:10:16.428Z</time></trkpt><trkpt lat="42.9846783" lon="12.847945"><ele>695.0</ele><time>2026-04-12T09:10:17.432Z</time></trkpt><trkpt lat="42.9844567" lon="12.8478383"><ele>695.0</ele><time>2026-04-12T09:10:18.432Z</time></trkpt><trkpt lat="42.9842433" lon="12.8477217"><ele>700.5</ele><time>2026-04-12T09:10:19.431Z</time></trkpt><trkpt lat="42.9840333" lon="12.84759"><ele>706.0</ele><time>2026-04-12T09:10:20.43Z</time></trkpt><trkpt lat="42.98383" lon="12.847435"><ele>706.0</ele><time>2026-04-12T09:10:21.429Z</time></trkpt><trkpt lat="42.9836283" lon="12.8472633"><ele>706.0</ele><time>2026-04-12T09:10:22.435Z</time></trkpt><trkpt lat="42.9834267" lon="12.8470883"><ele>706.5</ele><time>2026-04-12T09:10:23.431Z</time></trkpt><trkpt lat="42.9832217" lon="12.8469133"><ele>707.0</ele><time>2026-04-12T09:10:24.428Z</time></trkpt><trkpt lat="42.983015" lon="12.84674"><ele>707.0</ele><time>2026-04-12T09:10:25.43Z</time></trkpt><trkpt lat="42.9828083" lon="12.8465683"><ele>707.0</ele><time>2026-04-12T09:10:26.431Z</time></trkpt><trkpt lat="42.9825967" lon="12.8463933"><ele>690.0</ele><time>2026-04-12T09:10:27.428Z</time></trkpt><trkpt lat="42.982385" lon="12.8462133"><ele>673.0</ele><time>2026-04-12T09:10:28.43Z</time></trkpt><trkpt lat="42.9821733" lon="12.8460333"><ele>690.0</ele><time>2026-04-12T09:10:29.43Z</time></trkpt><trkpt lat="42.9819617" lon="12.8458483"><ele>707.0</ele><time>2026-04-12T09:10:30.429Z</time></trkpt><trkpt lat="42.9817517" lon="12.8456633"><ele>688.0</ele><time>2026-04-12T09:10:31.43Z</time></trkpt><trkpt lat="42.9815483" lon="12.8454717"><ele>669.0</ele><time>2026-04-12T09:10:32.431Z</time></trkpt><trkpt lat="42.9813533" lon="12.84527"><ele>688.0</ele><time>2026-04-12T09:10:33.429Z</time></trkpt><trkpt lat="42.981165" lon="12.8450633"><ele>707.0</ele><time>2026-04-12T09:10:34.43Z</time></trkpt><trkpt lat="42.9809833" lon="12.8448617"><ele>694.6666666666666</ele><time>2026-04-12T09:10:35.43Z</time></trkpt><trkpt lat="42.9808083" lon="12.8446717"><ele>682.3333333333334</ele><time>2026-04-12T09:10:36.429Z</time></trkpt><trkpt lat="42.980635" lon="12.84449"><ele>670.0</ele><time>2026-04-12T09:10:37.428Z</time></trkpt><trkpt lat="42.98046" lon="12.844315"><ele>668.0</ele><time>2026-04-12T09:10:38.432Z</time></trkpt><trkpt lat="42.980275" lon="12.8441483"><ele>666.0</ele><time>2026-04-12T09:10:39.428Z</time></trkpt><trkpt lat="42.9800783" lon="12.8439917"><ele>664.0</ele><time>2026-04-12T09:10:40.432Z</time></trkpt><trkpt lat="42.979875" lon="12.8438533"><ele>664.0</ele><time>2026-04-12T09:10:41.437Z</time></trkpt><trkpt lat="42.9796733" lon="12.843715"><ele>664.0</ele><time>2026-04-12T09:10:42.451Z</time></trkpt><trkpt lat="42.97948" lon="12.8435767"><ele>664.0</ele><time>2026-04-12T09:10:43.431Z</time></trkpt><trkpt lat="42.97929" lon="12.8434317"><ele>662.6666666666667</ele><time>2026-04-12T09:10:44.432Z</time></trkpt><trkpt lat="42.9791133" lon="12.8432883"><ele>661.3333333333334</ele><time>2026-04-12T09:10:45.431Z</time></trkpt><trkpt lat="42.9789517" lon="12.8431417"><ele>660.0</ele><time>2026-04-12T09:10:46.429Z</time></trkpt><trkpt lat="42.9788083" lon="12.8429917"><ele>660.0</ele><time>2026-04-12T09:10:47.43Z</time></trkpt><trkpt lat="42.9786817" lon="12.8428417"><ele>660.0</ele><time>2026-04-12T09:10:48.432Z</time></trkpt><trkpt lat="42.978575" lon="12.8427"><ele>660.0</ele><time>2026-04-12T09:10:49.429Z</time></trkpt><trkpt lat="42.9784667" lon="12.8425883"><ele>657.5</ele><time>2026-04-12T09:10:50.426Z</time></trkpt><trkpt lat="42.9783517" lon="12.84252"><ele>655.0</ele><time>2026-04-12T09:10:51.429Z</time></trkpt><trkpt lat="42.9782383" lon="12.8425017"><ele>652.5</ele><time>2026-04-12T09:10:52.425Z</time></trkpt><trkpt lat="42.9781333" lon="12.8425683"><ele>650.0</ele><time>2026-04-12T09:10:53.43Z</time></trkpt><trkpt lat="42.9780683" lon="12.84269"><ele>648.5</ele><time>2026-04-12T09:10:54.428Z</time></trkpt><trkpt lat="42.9780583" lon="12.8428483"><ele>647.0</ele><time>2026-04-12T09:10:55.429Z</time></trkpt><trkpt lat="42.97811" lon="12.8430017"><ele>645.5</ele><time>2026-04-12T09:10:56.433Z</time></trkpt><trkpt lat="42.9782117" lon="12.8431117"><ele>644.0</ele><time>2026-04-12T09:10:57.428Z</time></trkpt><trkpt lat="42.9783517" lon="12.8432033"><ele>641.0</ele><time>2026-04-12T09:10:58.428Z</time></trkpt><trkpt lat="42.9785083" lon="12.843305"><ele>638.0</ele><time>2026-04-12T09:10:59.428Z</time></trkpt><trkpt lat="42.97868" lon="12.843425"><ele>635.0</ele><time>2026-04-12T09:11:00.426Z</time></trkpt><trkpt lat="42.9788567" lon="12.8435533"><ele>635.0</ele><time>2026-04-12T09:11:01.428Z</time></trkpt><trkpt lat="42.9790417" lon="12.8436867"><ele>635.0</ele><time>2026-04-12T09:11:02.433Z</time></trkpt><trkpt lat="42.9792333" lon="12.8438267"><ele>635.0</ele><time>2026-04-12T09:11:03.43Z</time></trkpt><trkpt lat="42.9794267" lon="12.8439767"><ele>631.0</ele><time>2026-04-12T09:11:04.43Z</time></trkpt><trkpt lat="42.9796183" lon="12.8441367"><ele>627.0</ele><time>2026-04-12T09:11:05.431Z</time></trkpt><trkpt lat="42.9798133" lon="12.8443033"><ele>627.0</ele><time>2026-04-12T09:11:06.428Z</time></trkpt><trkpt lat="42.9800017" lon="12.8444867"><ele>627.0</ele><time>2026-04-12T09:11:07.431Z</time></trkpt><trkpt lat="42.9801833" lon="12.8446933"><ele>628.5</ele><time>2026-04-12T09:11:08.431Z</time></trkpt><trkpt lat="42.9803583" lon="12.8449183"><ele>630.0</ele><time>2026-04-12T09:11:09.427Z</time></trkpt><trkpt lat="42.980535" lon="12.8451483"><ele>630.0</ele><time>2026-04-12T09:11:10.427Z</time></trkpt><trkpt lat="42.9807167" lon="12.8453717"><ele>630.0</ele><time>2026-04-12T09:11:11.431Z</time></trkpt><trkpt lat="42.9808967" lon="12.8456"><ele>633.5</ele><time>2026-04-12T09:11:12.428Z</time></trkpt><trkpt lat="42.9810733" lon="12.8458317"><ele>637.0</ele><time>2026-04-12T09:11:13.432Z</time></trkpt><trkpt lat="42.98125" lon="12.8460633"><ele>637.0</ele><time>2026-04-12T09:11:14.432Z</time></trkpt><trkpt lat="42.98143" lon="12.8462917"><ele>637.0</ele><time>2026-04-12T09:11:15.431Z</time></trkpt><trkpt lat="42.9816117" lon="12.846515"><ele>636.0</ele><time>2026-04-12T09:11:16.428Z</time></trkpt><trkpt lat="42.9817883" lon="12.846725"><ele>635.0</ele><time>2026-04-12T09:11:17.43Z</time></trkpt><trkpt lat="42.9819633" lon="12.84693"><ele>635.0</ele><time>2026-04-12T09:11:18.43Z</time></trkpt><trkpt lat="42.98214" lon="12.84714"><ele>635.0</ele><time>2026-04-12T09:11:19.43Z</time></trkpt><trkpt lat="42.9823117" lon="12.84736"><ele>635.0</ele><time>2026-04-12T09:11:20.431Z</time></trkpt><trkpt lat="42.98248" lon="12.847585"><ele>635.0</ele><time>2026-04-12T09:11:21.431Z</time></trkpt><trkpt lat="42.982655" lon="12.8478083"><ele>637.5</ele><time>2026-04-12T09:11:22.431Z</time></trkpt><trkpt lat="42.982825" lon="12.8480317"><ele>640.0</ele><time>2026-04-12T09:11:23.43Z</time></trkpt><trkpt lat="42.982995" lon="12.8482517"><ele>626.5</ele><time>2026-04-12T09:11:24.429Z</time></trkpt><trkpt lat="42.9831617" lon="12.8484717"><ele>613.0</ele><time>2026-04-12T09:11:25.43Z</time></trkpt><trkpt lat="42.9833283" lon="12.8486833"><ele>621.0</ele><time>2026-04-12T09:11:26.429Z</time></trkpt><trkpt lat="42.9834967" lon="12.8488883"><ele>629.0</ele><time>2026-04-12T09:11:27.428Z</time></trkpt><trkpt lat="42.983665" lon="12.84908"><ele>637.0</ele><time>2026-04-12T09:11:28.428Z</time></trkpt><trkpt lat="42.983835" lon="12.8492467"><ele>632.6666666666667</ele><time>2026-04-12T09:11:29.431Z</time></trkpt><trkpt lat="42.9840083" lon="12.8493933"><ele>628.3333333333334</ele><time>2026-04-12T09:11:30.429Z</time></trkpt><trkpt lat="42.9841733" lon="12.8495233"><ele>624.0</ele><time>2026-04-12T09:11:31.43Z</time></trkpt><trkpt lat="42.9843283" lon="12.8496383"><ele>624.0</ele><time>2026-04-12T09:11:32.429Z</time></trkpt><trkpt lat="42.9844733" lon="12.84973"><ele>624.0</ele><time>2026-04-12T09:11:33.427Z</time></trkpt><trkpt lat="42.9846017" lon="12.84981"><ele>624.0</ele><time>2026-04-12T09:11:34.426Z</time></trkpt><trkpt lat="42.9847067" lon="12.8499067"><ele>624.0</ele><time>2026-04-12T09:11:35.431Z</time></trkpt><trkpt lat="42.98477" lon="12.8500417"><ele>621.8</ele><time>2026-04-12T09:11:36.431Z</time></trkpt><trkpt lat="42.9847833" lon="12.850185"><ele>619.5999999999999</ele><time>2026-04-12T09:11:37.427Z</time></trkpt><trkpt lat="42.9847183" lon="12.8503083"><ele>617.4</ele><time>2026-04-12T09:11:38.429Z</time></trkpt><trkpt lat="42.98463" lon="12.8503967"><ele>615.1999999999999</ele><time>2026-04-12T09:11:39.427Z</time></trkpt><trkpt lat="42.9845133" lon="12.8504017"><ele>613.0</ele><time>2026-04-12T09:11:40.429Z</time></trkpt><trkpt lat="42.9843617" lon="12.8502917"><ele>613.0</ele><time>2026-04-12T09:11:41.43Z</time></trkpt><trkpt lat="42.9842133" lon="12.8501283"><ele>613.0</ele><time>2026-04-12T09:11:42.432Z</time></trkpt><trkpt lat="42.9840483" lon="12.8499567"><ele>613.0</ele><time>2026-04-12T09:11:43.428Z</time></trkpt><trkpt lat="42.9838817" lon="12.849775"><ele>613.3333333333334</ele><time>2026-04-12T09:11:44.432Z</time></trkpt><trkpt lat="42.98372" lon="12.8496067"><ele>613.6666666666666</ele><time>2026-04-12T09:11:45.429Z</time></trkpt><trkpt lat="42.983565" lon="12.8494383"><ele>614.0</ele><time>2026-04-12T09:11:46.428Z</time></trkpt><trkpt lat="42.9834083" lon="12.849285"><ele>613.6666666666666</ele><time>2026-04-12T09:11:47.431Z</time></trkpt><trkpt lat="42.9832617" lon="12.8491383"><ele>613.3333333333334</ele><time>2026-04-12T09:11:48.438Z</time></trkpt><trkpt lat="42.9831133" lon="12.8489883"><ele>613.0</ele><time>2026-04-12T09:11:49.429Z</time></trkpt><trkpt lat="42.982955" lon="12.8488283"><ele>613.0</ele><time>2026-04-12T09:11:50.428Z</time></trkpt><trkpt lat="42.9827867" lon="12.8486633"><ele>613.0</ele><time>2026-04-12T09:11:51.429Z</time></trkpt><trkpt lat="42.98262" lon="12.8485017"><ele>613.0</ele><time>2026-04-12T09:11:52.429Z</time></trkpt><trkpt lat="42.9824533" lon="12.8483467"><ele>611.3333333333334</ele><time>2026-04-12T09:11:53.429Z</time></trkpt><trkpt lat="42.982285" lon="12.8482033"><ele>609.6666666666666</ele><time>2026-04-12T09:11:54.43Z</time></trkpt><trkpt lat="42.98211" lon="12.8480817"><ele>608.0</ele><time>2026-04-12T09:11:55.432Z</time></trkpt><trkpt lat="42.9819317" lon="12.8479933"><ele>608.0</ele><time>2026-04-12T09:11:56.431Z</time></trkpt><trkpt lat="42.9817417" lon="12.847935"><ele>608.0</ele><time>2026-04-12T09:11:57.428Z</time></trkpt><trkpt lat="42.98154" lon="12.8479017"><ele>608.0</ele><time>2026-04-12T09:11:58.43Z</time></trkpt><trkpt lat="42.981335" lon="12.84788"><ele>606.0</ele><time>2026-04-12T09:11:59.434Z</time></trkpt><trkpt lat="42.98114" lon="12.8478583"><ele>604.0</ele><time>2026-04-12T09:12:00.428Z</time></trkpt><trkpt lat="42.9809533" lon="12.84783"><ele>602.0</ele><time>2026-04-12T09:12:01.429Z</time></trkpt><trkpt lat="42.980775" lon="12.847785"><ele>602.0</ele><time>2026-04-12T09:12:02.43Z</time></trkpt><trkpt lat="42.980595" lon="12.8477183"><ele>602.0</ele><time>2026-04-12T09:12:03.431Z</time></trkpt><trkpt lat="42.98042" lon="12.8476333"><ele>602.0</ele><time>2026-04-12T09:12:04.433Z</time></trkpt><trkpt lat="42.9802533" lon="12.8475233"><ele>601.3333333333333</ele><time>2026-04-12T09:12:05.431Z</time></trkpt><trkpt lat="42.98009" lon="12.84738"><ele>600.6666666666666</ele><time>2026-04-12T09:12:06.431Z</time></trkpt><trkpt lat="42.97993" lon="12.8472"><ele>600.0</ele><time>2026-04-12T09:12:07.431Z</time></trkpt><trkpt lat="42.9797767" lon="12.8469917"><ele>594.0</ele><time>2026-04-12T09:12:08.428Z</time></trkpt><trkpt lat="42.9796383" lon="12.8467483"><ele>588.0</ele><time>2026-04-12T09:12:09.43Z</time></trkpt><trkpt lat="42.9795267" lon="12.8464783"><ele>588.0</ele><time>2026-04-12T09:12:10.428Z</time></trkpt><trkpt lat="42.9794467" lon="12.8461917"><ele>588.0</ele><time>2026-04-12T09:12:11.43Z</time></trkpt><trkpt lat="42.9793917" lon="12.845895"><ele>588.0</ele><time>2026-04-12T09:12:12.43Z</time></trkpt><trkpt lat="42.9793617" lon="12.84559"><ele>592.0</ele><time>2026-04-12T09:12:13.429Z</time></trkpt><trkpt lat="42.9793567" lon="12.84528"><ele>596.0</ele><time>2026-04-12T09:12:14.43Z</time></trkpt><trkpt lat="42.9793683" lon="12.8449617"><ele>611.5</ele><time>2026-04-12T09:12:15.429Z</time></trkpt><trkpt lat="42.979385" lon="12.8446333"><ele>627.0</ele><time>2026-04-12T09:12:16.429Z</time></trkpt><trkpt lat="42.97941" lon="12.8442983"><ele>645.5</ele><time>2026-04-12T09:12:17.427Z</time></trkpt><trkpt lat="42.979435" lon="12.84396"><ele>664.0</ele><time>2026-04-12T09:12:18.431Z</time></trkpt><trkpt lat="42.9794667" lon="12.843615"><ele>671.0</ele><time>2026-04-12T09:12:19.428Z</time></trkpt><trkpt lat="42.9794933" lon="12.843275"><ele>678.0</ele><time>2026-04-12T09:12:20.428Z</time></trkpt><trkpt lat="42.98012" lon="12.8358433"><ele>650.3333333333334</ele><time>2026-04-12T09:12:43.431Z</time></trkpt><trkpt lat="42.9801317" lon="12.8355383"><ele>622.6666666666667</ele><time>2026-04-12T09:12:44.428Z</time></trkpt><trkpt lat="42.9801433" lon="12.835235"><ele>595.0</ele><time>2026-04-12T09:12:45.427Z</time></trkpt><trkpt lat="42.98015" lon="12.8349283"><ele>593.5</ele><time>2026-04-12T09:12:46.429Z</time></trkpt><trkpt lat="42.9801533" lon="12.834615"><ele>592.0</ele><time>2026-04-12T09:12:47.431Z</time></trkpt><trkpt lat="42.980145" lon="12.8342967"><ele>590.5</ele><time>2026-04-12T09:12:48.428Z</time></trkpt><trkpt lat="42.9801317" lon="12.8339833"><ele>589.0</ele><time>2026-04-12T09:12:49.43Z</time></trkpt><trkpt lat="42.9801117" lon="12.8336683"><ele>593.5</ele><time>2026-04-12T09:12:50.431Z</time></trkpt><trkpt lat="42.9800933" lon="12.8333533"><ele>598.0</ele><time>2026-04-12T09:12:51.426Z</time></trkpt><trkpt lat="42.980075" lon="12.8330367"><ele>598.0</ele><time>2026-04-12T09:12:52.428Z</time></trkpt><trkpt lat="42.9800583" lon="12.83272"><ele>598.0</ele><time>2026-04-12T09:12:53.429Z</time></trkpt><trkpt lat="42.9800483" lon="12.8324017"><ele>595.5</ele><time>2026-04-12T09:12:54.427Z</time></trkpt><trkpt lat="42.9800483" lon="12.8320883"><ele>593.0</ele><time>2026-04-12T09:12:55.428Z</time></trkpt><trkpt lat="42.9800717" lon="12.83178"><ele>585.0</ele><time>2026-04-12T09:12:56.426Z</time></trkpt><trkpt lat="42.98011" lon="12.83147"><ele>577.0</ele><time>2026-04-12T09:12:57.427Z</time></trkpt><trkpt lat="42.9801683" lon="12.8311567"><ele>568.5</ele><time>2026-04-12T09:12:58.427Z</time></trkpt><trkpt lat="42.98024" lon="12.83085"><ele>560.0</ele><time>2026-04-12T09:12:59.427Z</time></trkpt><trkpt lat="42.980315" lon="12.8305467"><ele>560.0</ele><time>2026-04-12T09:13:00.428Z</time></trkpt><trkpt lat="42.9803817" lon="12.8302383"><ele>560.0</ele><time>2026-04-12T09:13:01.43Z</time></trkpt><trkpt lat="42.980425" lon="12.8299317"><ele>556.3333333333333</ele><time>2026-04-12T09:13:02.431Z</time></trkpt><trkpt lat="42.9804417" lon="12.8296367"><ele>552.6666666666666</ele><time>2026-04-12T09:13:03.429Z</time></trkpt><trkpt lat="42.98043" lon="12.8293483"><ele>549.0</ele><time>2026-04-12T09:13:04.426Z</time></trkpt><trkpt lat="42.9803867" lon="12.8290583"><ele>548.3333333333334</ele><time>2026-04-12T09:13:05.429Z</time></trkpt><trkpt lat="42.9803167" lon="12.8287683"><ele>547.6666666666667</ele><time>2026-04-12T09:13:06.428Z</time></trkpt><trkpt lat="42.9802183" lon="12.828495"><ele>547.0</ele><time>2026-04-12T09:13:07.429Z</time></trkpt><trkpt lat="42.9800967" lon="12.82824"><ele>549.5</ele><time>2026-04-12T09:13:08.429Z</time></trkpt><trkpt lat="42.979945" lon="12.828015"><ele>552.0</ele><time>2026-04-12T09:13:09.427Z</time></trkpt><trkpt lat="42.979765" lon="12.8278167"><ele>552.0</ele><time>2026-04-12T09:13:10.439Z</time></trkpt><trkpt lat="42.9795633" lon="12.82765"><ele>552.0</ele><time>2026-04-12T09:13:11.427Z</time></trkpt><trkpt lat="42.979345" lon="12.8275117"><ele>550.0</ele><time>2026-04-12T09:13:12.429Z</time></trkpt><trkpt lat="42.97912" lon="12.827395"><ele>548.0</ele><time>2026-04-12T09:13:13.428Z</time></trkpt><trkpt lat="42.978895" lon="12.8272783"><ele>548.0</ele><time>2026-04-12T09:13:14.434Z</time></trkpt><trkpt lat="42.97867" lon="12.8271567"><ele>548.0</ele><time>2026-04-12T09:13:15.428Z</time></trkpt><trkpt lat="42.9784433" lon="12.8270317"><ele>545.0</ele><time>2026-04-12T09:13:16.428Z</time></trkpt><trkpt lat="42.9782183" lon="12.8269017"><ele>542.0</ele><time>2026-04-12T09:13:17.427Z</time></trkpt><trkpt lat="42.977995" lon="12.8267533"><ele>542.0</ele><time>2026-04-12T09:13:18.427Z</time></trkpt><trkpt lat="42.97779" lon="12.8265717"><ele>542.0</ele><time>2026-04-12T09:13:19.43Z</time></trkpt><trkpt lat="42.9776033" lon="12.826365"><ele>544.5</ele><time>2026-04-12T09:13:20.431Z</time></trkpt><trkpt lat="42.97744" lon="12.8261383"><ele>547.0</ele><time>2026-04-12T09:13:21.428Z</time></trkpt><trkpt lat="42.9773" lon="12.82589"><ele>547.0</ele><time>2026-04-12T09:13:22.43Z</time></trkpt><trkpt lat="42.97718" lon="12.8256167"><ele>547.0</ele><time>2026-04-12T09:13:23.427Z</time></trkpt><trkpt lat="42.9770867" lon="12.8253233"><ele>544.5</ele><time>2026-04-12T09:13:24.429Z</time></trkpt><trkpt lat="42.977015" lon="12.8250167"><ele>542.0</ele><time>2026-04-12T09:13:25.429Z</time></trkpt><trkpt lat="42.9769583" lon="12.824705"><ele>542.0</ele><time>2026-04-12T09:13:26.43Z</time></trkpt><trkpt lat="42.9769067" lon="12.8244"><ele>542.0</ele><time>2026-04-12T09:13:27.429Z</time></trkpt><trkpt lat="42.9768567" lon="12.8240967"><ele>544.0</ele><time>2026-04-12T09:13:28.427Z</time></trkpt><trkpt lat="42.976805" lon="12.8237917"><ele>546.0</ele><time>2026-04-12T09:13:29.428Z</time></trkpt><trkpt lat="42.9767517" lon="12.8234833"><ele>548.0</ele><time>2026-04-12T09:13:30.427Z</time></trkpt><trkpt lat="42.9766917" lon="12.8231783"><ele>550.0</ele><time>2026-04-12T09:13:31.429Z</time></trkpt><trkpt lat="42.9766083" lon="12.82289"><ele>544.5</ele><time>2026-04-12T09:13:32.43Z</time></trkpt><trkpt lat="42.97651" lon="12.8226117"><ele>539.0</ele><time>2026-04-12T09:13:33.43Z</time></trkpt><trkpt lat="42.976385" lon="12.82234"><ele>539.0</ele><time>2026-04-12T09:13:34.431Z</time></trkpt><trkpt lat="42.9762483" lon="12.8220733"><ele>539.0</ele><time>2026-04-12T09:13:35.427Z</time></trkpt><trkpt lat="42.9761017" lon="12.821805"><ele>538.0</ele><time>2026-04-12T09:13:36.428Z</time></trkpt><trkpt lat="42.9759517" lon="12.8215417"><ele>537.0</ele><time>2026-04-12T09:13:37.429Z</time></trkpt><trkpt lat="42.9758033" lon="12.8212717"><ele>537.0</ele><time>2026-04-12T09:13:38.428Z</time></trkpt><trkpt lat="42.9756567" lon="12.8210017"><ele>537.0</ele><time>2026-04-12T09:13:39.43Z</time></trkpt><trkpt lat="42.9755117" lon="12.8207267"><ele>540.0</ele><time>2026-04-12T09:13:40.429Z</time></trkpt><trkpt lat="42.9753683" lon="12.8204517"><ele>543.0</ele><time>2026-04-12T09:13:41.428Z</time></trkpt><trkpt lat="42.975225" lon="12.8201733"><ele>543.0</ele><time>2026-04-12T09:13:42.431Z</time></trkpt><trkpt lat="42.9750817" lon="12.8198983"><ele>543.0</ele><time>2026-04-12T09:13:43.429Z</time></trkpt><trkpt lat="42.9749417" lon="12.8196233"><ele>543.0</ele><time>2026-04-12T09:13:44.434Z</time></trkpt><trkpt lat="42.9748017" lon="12.8193533"><ele>543.0</ele><time>2026-04-12T09:13:45.429Z</time></trkpt><trkpt lat="42.9746667" lon="12.81908"><ele>547.0</ele><time>2026-04-12T09:13:46.432Z</time></trkpt><trkpt lat="42.9745383" lon="12.8188033"><ele>551.0</ele><time>2026-04-12T09:13:47.432Z</time></trkpt><trkpt lat="42.97442" lon="12.8185233"><ele>555.5</ele><time>2026-04-12T09:13:48.431Z</time></trkpt><trkpt lat="42.974315" lon="12.8182333"><ele>560.0</ele><time>2026-04-12T09:13:49.43Z</time></trkpt><trkpt lat="42.9742217" lon="12.8179383"><ele>550.5</ele><time>2026-04-12T09:13:50.43Z</time></trkpt><trkpt lat="42.9741383" lon="12.81764"><ele>541.0</ele><time>2026-04-12T09:13:51.43Z</time></trkpt><trkpt lat="42.974055" lon="12.8173367"><ele>541.0</ele><time>2026-04-12T09:13:52.43Z</time></trkpt><trkpt lat="42.973975" lon="12.8170317"><ele>541.0</ele><time>2026-04-12T09:13:53.429Z</time></trkpt><trkpt lat="42.9738967" lon="12.8167217"><ele>545.5</ele><time>2026-04-12T09:13:54.432Z</time></trkpt><trkpt lat="42.973825" lon="12.8164217"><ele>550.0</ele><time>2026-04-12T09:13:55.431Z</time></trkpt><trkpt lat="42.9737633" lon="12.8161317"><ele>550.6666666666667</ele><time>2026-04-12T09:13:56.432Z</time></trkpt><trkpt lat="42.9737167" lon="12.81585"><ele>551.3333333333334</ele><time>2026-04-12T09:13:57.43Z</time></trkpt><trkpt lat="42.9736767" lon="12.8155533"><ele>552.0</ele><time>2026-04-12T09:13:58.429Z</time></trkpt><trkpt lat="42.9736417" lon="12.8152483"><ele>552.0</ele><time>2026-04-12T09:13:59.427Z</time></trkpt><trkpt lat="42.9735983" lon="12.8149417"><ele>552.0</ele><time>2026-04-12T09:14:00.431Z</time></trkpt><trkpt lat="42.97354" lon="12.814635"><ele>552.0</ele><time>2026-04-12T09:14:01.431Z</time></trkpt><trkpt lat="42.9734617" lon="12.8143333"><ele>552.0</ele><time>2026-04-12T09:14:02.432Z</time></trkpt><trkpt lat="42.97337" lon="12.814035"><ele>544.0</ele><time>2026-04-12T09:14:03.427Z</time></trkpt><trkpt lat="42.9732833" lon="12.81374"><ele>536.0</ele><time>2026-04-12T09:14:04.431Z</time></trkpt><trkpt lat="42.9732033" lon="12.8134583"><ele>536.0</ele><time>2026-04-12T09:14:05.429Z</time></trkpt><trkpt lat="42.973145" lon="12.8131817"><ele>536.0</ele><time>2026-04-12T09:14:06.431Z</time></trkpt><trkpt lat="42.973105" lon="12.8129133"><ele>536.0</ele><time>2026-04-12T09:14:07.43Z</time></trkpt><trkpt lat="42.9730817" lon="12.8126417"><ele>536.0</ele><time>2026-04-12T09:14:08.43Z</time></trkpt><trkpt lat="42.973075" lon="12.8123583"><ele>536.0</ele><time>2026-04-12T09:14:09.43Z</time></trkpt><trkpt lat="42.9730717" lon="12.8120767"><ele>536.0</ele><time>2026-04-12T09:14:10.428Z</time></trkpt><trkpt lat="42.97307" lon="12.8117967"><ele>536.3333333333333</ele><time>2026-04-12T09:14:11.429Z</time></trkpt><trkpt lat="42.9730733" lon="12.811515"><ele>536.6666666666666</ele><time>2026-04-12T09:14:12.429Z</time></trkpt><trkpt lat="42.973065" lon="12.8112417"><ele>537.0</ele><time>2026-04-12T09:14:13.433Z</time></trkpt><trkpt lat="42.9730433" lon="12.8109733"><ele>539.3333333333334</ele><time>2026-04-12T09:14:14.432Z</time></trkpt><trkpt lat="42.9729967" lon="12.8107117"><ele>541.6666666666667</ele><time>2026-04-12T09:14:15.43Z</time></trkpt><trkpt lat="42.97293" lon="12.81047"><ele>544.0</ele><time>2026-04-12T09:14:16.43Z</time></trkpt><trkpt lat="42.972845" lon="12.8102467"><ele>547.0</ele><time>2026-04-12T09:14:17.431Z</time></trkpt><trkpt lat="42.972745" lon="12.8100533"><ele>550.0</ele><time>2026-04-12T09:14:18.427Z</time></trkpt><trkpt lat="42.97263" lon="12.8098883"><ele>553.0</ele><time>2026-04-12T09:14:19.43Z</time></trkpt><trkpt lat="42.9725183" lon="12.8097367"><ele>547.75</ele><time>2026-04-12T09:14:20.43Z</time></trkpt><trkpt lat="42.9724117" lon="12.8095917"><ele>542.5</ele><time>2026-04-12T09:14:21.435Z</time></trkpt><trkpt lat="42.9723233" lon="12.8094533"><ele>537.25</ele><time>2026-04-12T09:14:22.429Z</time></trkpt><trkpt lat="42.9722633" lon="12.8093083"><ele>532.0</ele><time>2026-04-12T09:14:23.428Z</time></trkpt><trkpt lat="42.9722433" lon="12.8091617"><ele>532.0</ele><time>2026-04-12T09:14:24.429Z</time></trkpt><trkpt lat="42.9722533" lon="12.8090083"><ele>532.0</ele><time>2026-04-12T09:14:25.433Z</time></trkpt><trkpt lat="42.972295" lon="12.808835"><ele>532.0</ele><time>2026-04-12T09:14:26.427Z</time></trkpt><trkpt lat="42.9723533" lon="12.8086383"><ele>532.0</ele><time>2026-04-12T09:14:27.43Z</time></trkpt><trkpt lat="42.9724183" lon="12.808435"><ele>531.0</ele><time>2026-04-12T09:14:28.431Z</time></trkpt><trkpt lat="42.9725033" lon="12.8082217"><ele>530.0</ele><time>2026-04-12T09:14:29.43Z</time></trkpt><trkpt lat="42.9725933" lon="12.8079967"><ele>529.0</ele><time>2026-04-12T09:14:30.431Z</time></trkpt><trkpt lat="42.9727" lon="12.8077733"><ele>528.6666666666667</ele><time>2026-04-12T09:14:31.427Z</time></trkpt><trkpt lat="42.9728283" lon="12.8075467"><ele>528.3333333333334</ele><time>2026-04-12T09:14:32.431Z</time></trkpt><trkpt lat="42.9729733" lon="12.80732"><ele>528.0</ele><time>2026-04-12T09:14:33.431Z</time></trkpt><trkpt lat="42.973125" lon="12.807095"><ele>528.0</ele><time>2026-04-12T09:14:34.432Z</time></trkpt><trkpt lat="42.9732817" lon="12.8068617"><ele>528.0</ele><time>2026-04-12T09:14:35.43Z</time></trkpt><trkpt lat="42.9734417" lon="12.80663"><ele>529.5</ele><time>2026-04-12T09:14:36.431Z</time></trkpt><trkpt lat="42.9736083" lon="12.80641"><ele>531.0</ele><time>2026-04-12T09:14:37.43Z</time></trkpt><trkpt lat="42.9737867" lon="12.806215"><ele>531.0</ele><time>2026-04-12T09:14:38.432Z</time></trkpt><trkpt lat="42.973985" lon="12.80605"><ele>531.0</ele><time>2026-04-12T09:14:39.431Z</time></trkpt><trkpt lat="42.974195" lon="12.80591"><ele>527.5</ele><time>2026-04-12T09:14:40.431Z</time></trkpt><trkpt lat="42.9744117" lon="12.805785"><ele>524.0</ele><time>2026-04-12T09:14:41.428Z</time></trkpt><trkpt lat="42.9746267" lon="12.8056717"><ele>524.0</ele><time>2026-04-12T09:14:42.432Z</time></trkpt><trkpt lat="42.9748283" lon="12.8055483"><ele>524.0</ele><time>2026-04-12T09:14:43.428Z</time></trkpt><trkpt lat="42.9750117" lon="12.8053917"><ele>524.0</ele><time>2026-04-12T09:14:44.432Z</time></trkpt><trkpt lat="42.975185" lon="12.8051967"><ele>530.0</ele><time>2026-04-12T09:14:45.43Z</time></trkpt><trkpt lat="42.975345" lon="12.804975"><ele>536.0</ele><time>2026-04-12T09:14:46.431Z</time></trkpt><trkpt lat="42.9754883" lon="12.8047267"><ele>536.0</ele><time>2026-04-12T09:14:47.429Z</time></trkpt><trkpt lat="42.9756183" lon="12.804465"><ele>536.0</ele><time>2026-04-12T09:14:48.431Z</time></trkpt><trkpt lat="42.9757467" lon="12.8041933"><ele>549.0</ele><time>2026-04-12T09:14:49.431Z</time></trkpt><trkpt lat="42.9758717" lon="12.8039183"><ele>562.0</ele><time>2026-04-12T09:14:50.431Z</time></trkpt><trkpt lat="42.975995" lon="12.8036417"><ele>550.5</ele><time>2026-04-12T09:14:51.431Z</time></trkpt><trkpt lat="42.97612" lon="12.8033683"><ele>539.0</ele><time>2026-04-12T09:14:52.43Z</time></trkpt><trkpt lat="42.9762467" lon="12.803095"><ele>539.0</ele><time>2026-04-12T09:14:53.43Z</time></trkpt><trkpt lat="42.9763767" lon="12.8028267"><ele>539.0</ele><time>2026-04-12T09:14:54.43Z</time></trkpt><trkpt lat="42.9765033" lon="12.802555"><ele>544.0</ele><time>2026-04-12T09:14:55.431Z</time></trkpt><trkpt lat="42.9766283" lon="12.8022833"><ele>549.0</ele><time>2026-04-12T09:14:56.432Z</time></trkpt><trkpt lat="42.9767517" lon="12.8020133"><ele>537.0</ele><time>2026-04-12T09:14:57.431Z</time></trkpt><trkpt lat="42.976875" lon="12.801745"><ele>525.0</ele><time>2026-04-12T09:14:58.429Z</time></trkpt><trkpt lat="42.9769967" lon="12.8014767"><ele>525.0</ele><time>2026-04-12T09:14:59.429Z</time></trkpt><trkpt lat="42.9771167" lon="12.80121"><ele>525.0</ele><time>2026-04-12T09:15:00.432Z</time></trkpt><trkpt lat="42.9772383" lon="12.800945"><ele>519.0</ele><time>2026-04-12T09:15:01.431Z</time></trkpt><trkpt lat="42.9773583" lon="12.80068"><ele>513.0</ele><time>2026-04-12T09:15:02.429Z</time></trkpt><trkpt lat="42.9774783" lon="12.8004133"><ele>514.0</ele><time>2026-04-12T09:15:03.431Z</time></trkpt><trkpt lat="42.9776" lon="12.8001483"><ele>515.0</ele><time>2026-04-12T09:15:04.428Z</time></trkpt><trkpt lat="42.9777183" lon="12.7998817"><ele>515.0</ele><time>2026-04-12T09:15:05.43Z</time></trkpt><trkpt lat="42.9778383" lon="12.7996183"><ele>515.0</ele><time>2026-04-12T09:15:06.431Z</time></trkpt><trkpt lat="42.9779567" lon="12.799355"><ele>512.0</ele><time>2026-04-12T09:15:07.43Z</time></trkpt><trkpt lat="42.97807" lon="12.7990933"><ele>509.0</ele><time>2026-04-12T09:15:08.431Z</time></trkpt><trkpt lat="42.9781733" lon="12.7988283"><ele>506.0</ele><time>2026-04-12T09:15:09.429Z</time></trkpt><trkpt lat="42.97826" lon="12.7985583"><ele>505.66666666666663</ele><time>2026-04-12T09:15:10.428Z</time></trkpt><trkpt lat="42.97833" lon="12.79828"><ele>505.33333333333337</ele><time>2026-04-12T09:15:11.43Z</time></trkpt><trkpt lat="42.9783783" lon="12.7979917"><ele>505.0</ele><time>2026-04-12T09:15:12.432Z</time></trkpt><trkpt lat="42.9784233" lon="12.7977033"><ele>513.0</ele><time>2026-04-12T09:15:13.43Z</time></trkpt><trkpt lat="42.9784667" lon="12.7974117"><ele>521.0</ele><time>2026-04-12T09:15:14.432Z</time></trkpt><trkpt lat="42.9785167" lon="12.797115"><ele>529.0</ele><time>2026-04-12T09:15:15.432Z</time></trkpt><trkpt lat="42.9785683" lon="12.7968083"><ele>529.6666666666667</ele><time>2026-04-12T09:15:16.429Z</time></trkpt><trkpt lat="42.9786133" lon="12.7965133"><ele>530.3333333333334</ele><time>2026-04-12T09:15:17.431Z</time></trkpt><trkpt lat="42.97866" lon="12.796225"><ele>531.0</ele><time>2026-04-12T09:15:18.431Z</time></trkpt><trkpt lat="42.9787117" lon="12.7959467"><ele>531.0</ele><time>2026-04-12T09:15:19.43Z</time></trkpt><trkpt lat="42.97876" lon="12.7956717"><ele>531.0</ele><time>2026-04-12T09:15:20.43Z</time></trkpt><trkpt lat="42.978785" lon="12.795395"><ele>531.0</ele><time>2026-04-12T09:15:21.43Z</time></trkpt><trkpt lat="42.9787817" lon="12.7951133"><ele>530.6666666666666</ele><time>2026-04-12T09:15:22.431Z</time></trkpt><trkpt lat="42.9787533" lon="12.79483"><ele>530.3333333333333</ele><time>2026-04-12T09:15:23.431Z</time></trkpt><trkpt lat="42.9787183" lon="12.794565"><ele>530.0</ele><time>2026-04-12T09:15:24.431Z</time></trkpt><trkpt lat="42.9786717" lon="12.7943233"><ele>533.0</ele><time>2026-04-12T09:15:25.43Z</time></trkpt><trkpt lat="42.9786117" lon="12.79409"><ele>536.0</ele><time>2026-04-12T09:15:26.428Z</time></trkpt><trkpt lat="42.9785283" lon="12.7938817"><ele>539.0</ele><time>2026-04-12T09:15:27.431Z</time></trkpt><trkpt lat="42.9784233" lon="12.793705"><ele>532.0</ele><time>2026-04-12T09:15:28.429Z</time></trkpt><trkpt lat="42.97832" lon="12.7935433"><ele>525.0</ele><time>2026-04-12T09:15:29.43Z</time></trkpt><trkpt lat="42.9782417" lon="12.7933767"><ele>518.0</ele><time>2026-04-12T09:15:30.426Z</time></trkpt><trkpt lat="42.9782017" lon="12.7931933"><ele>511.0</ele><time>2026-04-12T09:15:31.43Z</time></trkpt><trkpt lat="42.978195" lon="12.7930133"><ele>511.0</ele><time>2026-04-12T09:15:32.431Z</time></trkpt><trkpt lat="42.97822" lon="12.7928383"><ele>511.0</ele><time>2026-04-12T09:15:33.43Z</time></trkpt><trkpt lat="42.9782817" lon="12.7926567"><ele>511.0</ele><time>2026-04-12T09:15:34.431Z</time></trkpt><trkpt lat="42.9783683" lon="12.7924567"><ele>511.0</ele><time>2026-04-12T09:15:35.428Z</time></trkpt><trkpt lat="42.9784817" lon="12.7922433"><ele>511.6666666666667</ele><time>2026-04-12T09:15:36.431Z</time></trkpt><trkpt lat="42.978605" lon="12.7920117"><ele>512.3333333333334</ele><time>2026-04-12T09:15:37.431Z</time></trkpt><trkpt lat="42.97874" lon="12.7917667"><ele>513.0</ele><time>2026-04-12T09:15:38.431Z</time></trkpt><trkpt lat="42.9788867" lon="12.7915033"><ele>513.0</ele><time>2026-04-12T09:15:39.431Z</time></trkpt><trkpt lat="42.97904" lon="12.7912317"><ele>513.0</ele><time>2026-04-12T09:15:40.431Z</time></trkpt><trkpt lat="42.9791967" lon="12.79096"><ele>529.0</ele><time>2026-04-12T09:15:41.429Z</time></trkpt><trkpt lat="42.9793467" lon="12.7906983"><ele>545.0</ele><time>2026-04-12T09:15:42.432Z</time></trkpt><trkpt lat="42.9794867" lon="12.790445"><ele>545.0</ele><time>2026-04-12T09:15:43.429Z</time></trkpt><trkpt lat="42.9796217" lon="12.7902017"><ele>545.0</ele><time>2026-04-12T09:15:44.431Z</time></trkpt><trkpt lat="42.9797467" lon="12.7899517"><ele>545.0</ele><time>2026-04-12T09:15:45.43Z</time></trkpt><trkpt lat="42.979855" lon="12.7896967"><ele>545.6666666666666</ele><time>2026-04-12T09:15:46.43Z</time></trkpt><trkpt lat="42.979945" lon="12.7894367"><ele>546.3333333333334</ele><time>2026-04-12T09:15:47.433Z</time></trkpt><trkpt lat="42.9800283" lon="12.7891717"><ele>547.0</ele><time>2026-04-12T09:15:48.432Z</time></trkpt><trkpt lat="42.9801083" lon="12.7889117"><ele>547.0</ele><time>2026-04-12T09:15:49.43Z</time></trkpt><trkpt lat="42.9801933" lon="12.7886567"><ele>547.0</ele><time>2026-04-12T09:15:50.432Z</time></trkpt><trkpt lat="42.9802867" lon="12.7884167"><ele>547.0</ele><time>2026-04-12T09:15:51.431Z</time></trkpt><trkpt lat="42.98039" lon="12.7881883"><ele>539.0</ele><time>2026-04-12T09:15:52.431Z</time></trkpt><trkpt lat="42.9805067" lon="12.78797"><ele>531.0</ele><time>2026-04-12T09:15:53.43Z</time></trkpt><trkpt lat="42.980625" lon="12.78775"><ele>523.0</ele><time>2026-04-12T09:15:54.431Z</time></trkpt><trkpt lat="42.9807383" lon="12.787525"><ele>526.0</ele><time>2026-04-12T09:15:55.427Z</time></trkpt><trkpt lat="42.980845" lon="12.78729"><ele>529.0</ele><time>2026-04-12T09:15:56.432Z</time></trkpt><trkpt lat="42.9809383" lon="12.7870467"><ele>532.0</ele><time>2026-04-12T09:15:57.428Z</time></trkpt><trkpt lat="42.981015" lon="12.786805"><ele>524.3333333333334</ele><time>2026-04-12T09:15:58.43Z</time></trkpt><trkpt lat="42.9810717" lon="12.7865617"><ele>516.6666666666666</ele><time>2026-04-12T09:15:59.43Z</time></trkpt><trkpt lat="42.9811067" lon="12.7863217"><ele>509.0</ele><time>2026-04-12T09:16:00.429Z</time></trkpt><trkpt lat="42.9811283" lon="12.7860783"><ele>506.66666666666663</ele><time>2026-04-12T09:16:01.429Z</time></trkpt><trkpt lat="42.9811383" lon="12.7858233"><ele>504.33333333333337</ele><time>2026-04-12T09:16:02.433Z</time></trkpt><trkpt lat="42.981135" lon="12.78557"><ele>502.0</ele><time>2026-04-12T09:16:03.434Z</time></trkpt><trkpt lat="42.9811117" lon="12.7853267"><ele>501.0</ele><time>2026-04-12T09:16:04.428Z</time></trkpt><trkpt lat="42.98106" lon="12.785095"><ele>500.0</ele><time>2026-04-12T09:16:05.431Z</time></trkpt><trkpt lat="42.9809867" lon="12.7848783"><ele>499.0</ele><time>2026-04-12T09:16:06.429Z</time></trkpt><trkpt lat="42.980885" lon="12.7846867"><ele>498.0</ele><time>2026-04-12T09:16:07.429Z</time></trkpt><trkpt lat="42.98076" lon="12.784505"><ele>497.0</ele><time>2026-04-12T09:16:08.43Z</time></trkpt><trkpt lat="42.980615" lon="12.7843367"><ele>496.0</ele><time>2026-04-12T09:16:09.433Z</time></trkpt><trkpt lat="42.98046" lon="12.784175"><ele>495.6666666666667</ele><time>2026-04-12T09:16:10.43Z</time></trkpt><trkpt lat="42.9803067" lon="12.784015"><ele>495.33333333333337</ele><time>2026-04-12T09:16:11.429Z</time></trkpt><trkpt lat="42.9801567" lon="12.78386"><ele>495.0</ele><time>2026-04-12T09:16:12.43Z</time></trkpt><trkpt lat="42.9800033" lon="12.7837"><ele>495.0</ele><time>2026-04-12T09:16:13.428Z</time></trkpt><trkpt lat="42.9798633" lon="12.7835283"><ele>495.0</ele><time>2026-04-12T09:16:14.429Z</time></trkpt><trkpt lat="42.9797483" lon="12.7833467"><ele>495.0</ele><time>2026-04-12T09:16:15.43Z</time></trkpt><trkpt lat="42.9796667" lon="12.7831533"><ele>494.33333333333337</ele><time>2026-04-12T09:16:16.428Z</time></trkpt><trkpt lat="42.9796217" lon="12.7829317"><ele>493.6666666666667</ele><time>2026-04-12T09:16:17.427Z</time></trkpt><trkpt lat="42.9795883" lon="12.7826817"><ele>493.0</ele><time>2026-04-12T09:16:18.427Z</time></trkpt><trkpt lat="42.9795767" lon="12.7824083"><ele>493.0</ele><time>2026-04-12T09:16:19.427Z</time></trkpt><trkpt lat="42.9795933" lon="12.78212"><ele>493.0</ele><time>2026-04-12T09:16:20.431Z</time></trkpt><trkpt lat="42.9796367" lon="12.78183"><ele>493.0</ele><time>2026-04-12T09:16:21.432Z</time></trkpt><trkpt lat="42.9796983" lon="12.7815417"><ele>494.0</ele><time>2026-04-12T09:16:22.43Z</time></trkpt><trkpt lat="42.9797733" lon="12.781265"><ele>495.0</ele><time>2026-04-12T09:16:23.431Z</time></trkpt><trkpt lat="42.9798567" lon="12.7810017"><ele>496.0</ele><time>2026-04-12T09:16:24.429Z</time></trkpt><trkpt lat="42.979965" lon="12.7807567"><ele>494.33333333333337</ele><time>2026-04-12T09:16:25.429Z</time></trkpt><trkpt lat="42.9801" lon="12.78054"><ele>492.66666666666663</ele><time>2026-04-12T09:16:26.432Z</time></trkpt><trkpt lat="42.9802583" lon="12.7803567"><ele>491.0</ele><time>2026-04-12T09:16:27.429Z</time></trkpt><trkpt lat="42.9804083" lon="12.7801633"><ele>491.0</ele><time>2026-04-12T09:16:28.429Z</time></trkpt><trkpt lat="42.9805383" lon="12.77994"><ele>491.0</ele><time>2026-04-12T09:16:29.43Z</time></trkpt><trkpt lat="42.9806483" lon="12.7797"><ele>491.0</ele><time>2026-04-12T09:16:30.433Z</time></trkpt><trkpt lat="42.9807433" lon="12.7794417"><ele>491.66666666666663</ele><time>2026-04-12T09:16:31.43Z</time></trkpt><trkpt lat="42.980835" lon="12.7791833"><ele>492.33333333333337</ele><time>2026-04-12T09:16:32.43Z</time></trkpt><trkpt lat="42.9809267" lon="12.7789233"><ele>493.0</ele><time>2026-04-12T09:16:33.429Z</time></trkpt><trkpt lat="42.9810133" lon="12.7786583"><ele>491.33333333333337</ele><time>2026-04-12T09:16:34.43Z</time></trkpt><trkpt lat="42.9810867" lon="12.7783783"><ele>489.66666666666663</ele><time>2026-04-12T09:16:35.43Z</time></trkpt><trkpt lat="42.9811367" lon="12.7780883"><ele>488.0</ele><time>2026-04-12T09:16:36.432Z</time></trkpt><trkpt lat="42.981165" lon="12.7777917"><ele>488.3333333333333</ele><time>2026-04-12T09:16:37.431Z</time></trkpt><trkpt lat="42.9811783" lon="12.777495"><ele>488.66666666666663</ele><time>2026-04-12T09:16:38.43Z</time></trkpt><trkpt lat="42.981185" lon="12.7772117"><ele>489.0</ele><time>2026-04-12T09:16:39.43Z</time></trkpt><trkpt lat="42.9812083" lon="12.7769383"><ele>488.66666666666663</ele><time>2026-04-12T09:16:40.43Z</time></trkpt><trkpt lat="42.9812567" lon="12.776665"><ele>488.3333333333333</ele><time>2026-04-12T09:16:41.431Z</time></trkpt><trkpt lat="42.9813233" lon="12.7764"><ele>488.0</ele><time>2026-04-12T09:16:42.426Z</time></trkpt><trkpt lat="42.9813783" lon="12.776135"><ele>488.3333333333333</ele><time>2026-04-12T09:16:43.426Z</time></trkpt><trkpt lat="42.9814183" lon="12.775865"><ele>488.66666666666663</ele><time>2026-04-12T09:16:44.436Z</time></trkpt><trkpt lat="42.9814283" lon="12.7756033"><ele>489.0</ele><time>2026-04-12T09:16:45.429Z</time></trkpt><trkpt lat="42.9814" lon="12.7753383"><ele>487.33333333333337</ele><time>2026-04-12T09:16:46.429Z</time></trkpt><trkpt lat="42.9813233" lon="12.7750767"><ele>485.6666666666667</ele><time>2026-04-12T09:16:47.428Z</time></trkpt><trkpt lat="42.9812317" lon="12.7748267"><ele>484.0</ele><time>2026-04-12T09:16:48.432Z</time></trkpt><trkpt lat="42.9811167" lon="12.7745883"><ele>484.0</ele><time>2026-04-12T09:16:49.431Z</time></trkpt><trkpt lat="42.9809717" lon="12.774385"><ele>484.0</ele><time>2026-04-12T09:16:50.43Z</time></trkpt><trkpt lat="42.9807967" lon="12.7742033"><ele>484.0</ele><time>2026-04-12T09:16:51.431Z</time></trkpt><trkpt lat="42.98061" lon="12.7740383"><ele>484.6666666666667</ele><time>2026-04-12T09:16:52.428Z</time></trkpt><trkpt lat="42.980425" lon="12.77388"><ele>485.33333333333337</ele><time>2026-04-12T09:16:53.431Z</time></trkpt><trkpt lat="42.9802533" lon="12.7737267"><ele>486.0</ele><time>2026-04-12T09:16:54.431Z</time></trkpt><trkpt lat="42.9800933" lon="12.7735833"><ele>486.66666666666663</ele><time>2026-04-12T09:16:55.43Z</time></trkpt><trkpt lat="42.9799383" lon="12.773425"><ele>487.3333333333333</ele><time>2026-04-12T09:16:56.431Z</time></trkpt><trkpt lat="42.979795" lon="12.7732517"><ele>488.0</ele><time>2026-04-12T09:16:57.43Z</time></trkpt><trkpt lat="42.979665" lon="12.7730683"><ele>488.0</ele><time>2026-04-12T09:16:58.43Z</time></trkpt><trkpt lat="42.9795667" lon="12.7728783"><ele>488.0</ele><time>2026-04-12T09:16:59.427Z</time></trkpt><trkpt lat="42.9795133" lon="12.77268"><ele>488.0</ele><time>2026-04-12T09:17:00.428Z</time></trkpt><trkpt lat="42.9795217" lon="12.7724917"><ele>482.66666666666663</ele><time>2026-04-12T09:17:01.429Z</time></trkpt><trkpt lat="42.9795667" lon="12.772325"><ele>477.33333333333337</ele><time>2026-04-12T09:17:02.43Z</time></trkpt><trkpt lat="42.9796567" lon="12.7721617"><ele>472.0</ele><time>2026-04-12T09:17:03.43Z</time></trkpt><trkpt lat="42.97975" lon="12.7719667"><ele>471.6666666666667</ele><time>2026-04-12T09:17:04.43Z</time></trkpt><trkpt lat="42.9798217" lon="12.7717467"><ele>471.33333333333337</ele><time>2026-04-12T09:17:05.431Z</time></trkpt><trkpt lat="42.979865" lon="12.771535"><ele>471.0</ele><time>2026-04-12T09:17:06.43Z</time></trkpt><trkpt lat="42.9798667" lon="12.771335"><ele>471.0</ele><time>2026-04-12T09:17:07.428Z</time></trkpt><trkpt lat="42.979805" lon="12.7711183"><ele>471.0</ele><time>2026-04-12T09:17:08.43Z</time></trkpt><trkpt lat="42.97969" lon="12.7708817"><ele>471.0</ele><time>2026-04-12T09:17:09.428Z</time></trkpt><trkpt lat="42.979555" lon="12.7706483"><ele>468.5</ele><time>2026-04-12T09:17:10.431Z</time></trkpt><trkpt lat="42.97941" lon="12.7704133"><ele>466.0</ele><time>2026-04-12T09:17:11.429Z</time></trkpt><trkpt lat="42.9792633" lon="12.7701683"><ele>474.5</ele><time>2026-04-12T09:17:12.436Z</time></trkpt><trkpt lat="42.9791117" lon="12.76992"><ele>483.0</ele><time>2026-04-12T09:17:13.431Z</time></trkpt><trkpt lat="42.9789583" lon="12.7696767"><ele>483.0</ele><time>2026-04-12T09:17:14.43Z</time></trkpt><trkpt lat="42.9788" lon="12.7694583"><ele>483.0</ele><time>2026-04-12T09:17:15.428Z</time></trkpt><trkpt lat="42.9786433" lon="12.7692617"><ele>483.0</ele><time>2026-04-12T09:17:16.428Z</time></trkpt><trkpt lat="42.978505" lon="12.7690567"><ele>484.33333333333337</ele><time>2026-04-12T09:17:17.43Z</time></trkpt><trkpt lat="42.9783967" lon="12.7688383"><ele>485.6666666666667</ele><time>2026-04-12T09:17:18.431Z</time></trkpt><trkpt lat="42.978305" lon="12.7686217"><ele>487.0</ele><time>2026-04-12T09:17:19.432Z</time></trkpt><trkpt lat="42.9782017" lon="12.7684217"><ele>478.33333333333337</ele><time>2026-04-12T09:17:20.433Z</time></trkpt><trkpt lat="42.9780717" lon="12.7682583"><ele>469.66666666666663</ele><time>2026-04-12T09:17:21.431Z</time></trkpt><trkpt lat="42.9779033" lon="12.7681467"><ele>461.0</ele><time>2026-04-12T09:17:22.429Z</time></trkpt><trkpt lat="42.9777117" lon="12.76806"><ele>461.0</ele><time>2026-04-12T09:17:23.43Z</time></trkpt><trkpt lat="42.977525" lon="12.7679783"><ele>461.0</ele><time>2026-04-12T09:17:24.43Z</time></trkpt><trkpt lat="42.97735" lon="12.7678933"><ele>461.0</ele><time>2026-04-12T09:17:25.429Z</time></trkpt><trkpt lat="42.97719" lon="12.7678083"><ele>459.5</ele><time>2026-04-12T09:17:26.429Z</time></trkpt><trkpt lat="42.9770433" lon="12.7677267"><ele>458.0</ele><time>2026-04-12T09:17:27.429Z</time></trkpt><trkpt lat="42.9769183" lon="12.7676283"><ele>456.5</ele><time>2026-04-12T09:17:28.429Z</time></trkpt><trkpt lat="42.9768317" lon="12.7674933"><ele>455.0</ele><time>2026-04-12T09:17:29.428Z</time></trkpt><trkpt lat="42.97679" lon="12.767325"><ele>455.0</ele><time>2026-04-12T09:17:30.429Z</time></trkpt><trkpt lat="42.976795" lon="12.7671167"><ele>455.0</ele><time>2026-04-12T09:17:31.429Z</time></trkpt><trkpt lat="42.9768283" lon="12.7668983"><ele>455.0</ele><time>2026-04-12T09:17:32.43Z</time></trkpt><trkpt lat="42.976885" lon="12.7666833"><ele>454.3333333333333</ele><time>2026-04-12T09:17:33.428Z</time></trkpt><trkpt lat="42.9769833" lon="12.7664867"><ele>453.66666666666663</ele><time>2026-04-12T09:17:34.429Z</time></trkpt><trkpt lat="42.977125" lon="12.7663067"><ele>453.0</ele><time>2026-04-12T09:17:35.427Z</time></trkpt><trkpt lat="42.97729" lon="12.76613"><ele>449.5</ele><time>2026-04-12T09:17:36.428Z</time></trkpt><trkpt lat="42.97746" lon="12.76594"><ele>446.0</ele><time>2026-04-12T09:17:37.43Z</time></trkpt><trkpt lat="42.9776467" lon="12.7657483"><ele>446.0</ele><time>2026-04-12T09:17:38.431Z</time></trkpt><trkpt lat="42.9778483" lon="12.76558"><ele>446.0</ele><time>2026-04-12T09:17:39.43Z</time></trkpt><trkpt lat="42.9780633" lon="12.7654433"><ele>446.0</ele><time>2026-04-12T09:17:40.431Z</time></trkpt><trkpt lat="42.97828" lon="12.7653417"><ele>446.0</ele><time>2026-04-12T09:17:41.43Z</time></trkpt><trkpt lat="42.9784883" lon="12.7652633"><ele>446.0</ele><time>2026-04-12T09:17:42.43Z</time></trkpt><trkpt lat="42.9786867" lon="12.7651967"><ele>451.66666666666663</ele><time>2026-04-12T09:17:43.43Z</time></trkpt><trkpt lat="42.9788667" lon="12.76514"><ele>457.33333333333337</ele><time>2026-04-12T09:17:44.431Z</time></trkpt><trkpt lat="42.9790317" lon="12.76507"><ele>463.0</ele><time>2026-04-12T09:17:45.429Z</time></trkpt><trkpt lat="42.9791733" lon="12.7649667"><ele>450.6666666666667</ele><time>2026-04-12T09:17:46.428Z</time></trkpt><trkpt lat="42.9792833" lon="12.7648167"><ele>438.33333333333337</ele><time>2026-04-12T09:17:47.432Z</time></trkpt><trkpt lat="42.9793517" lon="12.7646317"><ele>426.0</ele><time>2026-04-12T09:17:48.43Z</time></trkpt><trkpt lat="42.9793667" lon="12.7644033"><ele>427.0</ele><time>2026-04-12T09:17:49.429Z</time></trkpt><trkpt lat="42.97933" lon="12.7641383"><ele>428.0</ele><time>2026-04-12T09:17:50.43Z</time></trkpt><trkpt lat="42.9792633" lon="12.763865"><ele>429.0</ele><time>2026-04-12T09:17:51.43Z</time></trkpt><trkpt lat="42.9791933" lon="12.7635867"><ele>449.5</ele><time>2026-04-12T09:17:52.431Z</time></trkpt><trkpt lat="42.97913" lon="12.7632933"><ele>470.0</ele><time>2026-04-12T09:17:53.431Z</time></trkpt><trkpt lat="42.9790783" lon="12.76299"><ele>464.5</ele><time>2026-04-12T09:17:54.431Z</time></trkpt><trkpt lat="42.97904" lon="12.7626717"><ele>459.0</ele><time>2026-04-12T09:17:55.43Z</time></trkpt><trkpt lat="42.979005" lon="12.7623483"><ele>459.0</ele><time>2026-04-12T09:17:56.43Z</time></trkpt><trkpt lat="42.978975" lon="12.7620233"><ele>459.0</ele><time>2026-04-12T09:17:57.431Z</time></trkpt><trkpt lat="42.9789467" lon="12.7616983"><ele>455.5</ele><time>2026-04-12T09:17:58.43Z</time></trkpt><trkpt lat="42.9789217" lon="12.7613683"><ele>452.0</ele><time>2026-04-12T09:17:59.428Z</time></trkpt><trkpt lat="42.9788983" lon="12.7610383"><ele>447.5</ele><time>2026-04-12T09:18:00.429Z</time></trkpt><trkpt lat="42.9788767" lon="12.760715"><ele>443.0</ele><time>2026-04-12T09:18:01.43Z</time></trkpt><trkpt lat="42.978855" lon="12.76041"><ele>440.3333333333333</ele><time>2026-04-12T09:18:02.431Z</time></trkpt><trkpt lat="42.9788333" lon="12.7601217"><ele>437.66666666666663</ele><time>2026-04-12T09:18:03.429Z</time></trkpt><trkpt lat="42.978815" lon="12.75984"><ele>435.0</ele><time>2026-04-12T09:18:04.427Z</time></trkpt><trkpt lat="42.978785" lon="12.7595633"><ele>433.33333333333337</ele><time>2026-04-12T09:18:05.429Z</time></trkpt><trkpt lat="42.9787367" lon="12.75929"><ele>431.6666666666667</ele><time>2026-04-12T09:18:06.428Z</time></trkpt><trkpt lat="42.97866" lon="12.7590283"><ele>430.0</ele><time>2026-04-12T09:18:07.43Z</time></trkpt><trkpt lat="42.9785583" lon="12.75878"><ele>430.0</ele><time>2026-04-12T09:18:08.428Z</time></trkpt><trkpt lat="42.978435" lon="12.75854"><ele>430.0</ele><time>2026-04-12T09:18:09.433Z</time></trkpt><trkpt lat="42.9782983" lon="12.7583117"><ele>430.0</ele><time>2026-04-12T09:18:10.429Z</time></trkpt><trkpt lat="42.97816" lon="12.75809"><ele>435.33333333333337</ele><time>2026-04-12T09:18:11.43Z</time></trkpt><trkpt lat="42.9780233" lon="12.7578783"><ele>440.66666666666663</ele><time>2026-04-12T09:18:12.43Z</time></trkpt><trkpt lat="42.97789" lon="12.75767"><ele>446.0</ele><time>2026-04-12T09:18:13.433Z</time></trkpt><trkpt lat="42.9777567" lon="12.7574667"><ele>446.0</ele><time>2026-04-12T09:18:14.435Z</time></trkpt><trkpt lat="42.9776267" lon="12.75727"><ele>446.0</ele><time>2026-04-12T09:18:15.433Z</time></trkpt><trkpt lat="42.9775" lon="12.757085"><ele>446.0</ele><time>2026-04-12T09:18:16.429Z</time></trkpt><trkpt lat="42.9773717" lon="12.7568967"><ele>448.3333333333333</ele><time>2026-04-12T09:18:17.432Z</time></trkpt><trkpt lat="42.9772367" lon="12.7567"><ele>450.66666666666663</ele><time>2026-04-12T09:18:18.433Z</time></trkpt><trkpt lat="42.9770933" lon="12.7565033"><ele>453.0</ele><time>2026-04-12T09:18:19.431Z</time></trkpt><trkpt lat="42.976935" lon="12.7563183"><ele>453.0</ele><time>2026-04-12T09:18:20.431Z</time></trkpt><trkpt lat="42.9767683" lon="12.7561467"><ele>453.0</ele><time>2026-04-12T09:18:21.431Z</time></trkpt><trkpt lat="42.9766033" lon="12.7559917"><ele>453.0</ele><time>2026-04-12T09:18:22.433Z</time></trkpt><trkpt lat="42.9764417" lon="12.7558517"><ele>453.0</ele><time>2026-04-12T09:18:23.431Z</time></trkpt><trkpt lat="42.9762817" lon="12.7557217"><ele>453.0</ele><time>2026-04-12T09:18:24.43Z</time></trkpt><trkpt lat="42.9761167" lon="12.7556017"><ele>453.0</ele><time>2026-04-12T09:18:25.432Z</time></trkpt><trkpt lat="42.9759433" lon="12.7554833"><ele>450.66666666666663</ele><time>2026-04-12T09:18:26.432Z</time></trkpt><trkpt lat="42.9757683" lon="12.7553767"><ele>448.3333333333333</ele><time>2026-04-12T09:18:27.429Z</time></trkpt><trkpt lat="42.9755933" lon="12.7552783"><ele>446.0</ele><time>2026-04-12T09:18:28.43Z</time></trkpt><trkpt lat="42.97542" lon="12.7551917"><ele>446.0</ele><time>2026-04-12T09:18:29.431Z</time></trkpt><trkpt lat="42.9752467" lon="12.7551283"><ele>446.0</ele><time>2026-04-12T09:18:30.431Z</time></trkpt><trkpt lat="42.975075" lon="12.7550833"><ele>446.0</ele><time>2026-04-12T09:18:31.428Z</time></trkpt><trkpt lat="42.9749117" lon="12.755055"><ele>449.66666666666663</ele><time>2026-04-12T09:18:32.427Z</time></trkpt><trkpt lat="42.974755" lon="12.75504"><ele>453.33333333333337</ele><time>2026-04-12T09:18:33.427Z</time></trkpt><trkpt lat="42.9745967" lon="12.75505"><ele>457.0</ele><time>2026-04-12T09:18:34.43Z</time></trkpt><trkpt lat="42.9744233" lon="12.7550933"><ele>457.0</ele><time>2026-04-12T09:18:35.428Z</time></trkpt><trkpt lat="42.974255" lon="12.7551667"><ele>457.0</ele><time>2026-04-12T09:18:36.434Z</time></trkpt><trkpt lat="42.9740917" lon="12.755265"><ele>457.0</ele><time>2026-04-12T09:18:37.431Z</time></trkpt><trkpt lat="42.97393" lon="12.7553617"><ele>465.33333333333337</ele><time>2026-04-12T09:18:38.431Z</time></trkpt><trkpt lat="42.9737717" lon="12.75545"><ele>473.66666666666663</ele><time>2026-04-12T09:18:39.43Z</time></trkpt><trkpt lat="42.97362" lon="12.755525"><ele>482.0</ele><time>2026-04-12T09:18:40.429Z</time></trkpt><trkpt lat="42.9734633" lon="12.755585"><ele>478.0</ele><time>2026-04-12T09:18:41.429Z</time></trkpt><trkpt lat="42.9733167" lon="12.755635"><ele>474.0</ele><time>2026-04-12T09:18:42.431Z</time></trkpt><trkpt lat="42.9731767" lon="12.7556583"><ele>470.0</ele><time>2026-04-12T09:18:43.429Z</time></trkpt><trkpt lat="42.973045" lon="12.7556433"><ele>466.0</ele><time>2026-04-12T09:18:44.429Z</time></trkpt><trkpt lat="42.972925" lon="12.75558"><ele>466.0</ele><time>2026-04-12T09:18:45.429Z</time></trkpt><trkpt lat="42.9728233" lon="12.75547"><ele>466.0</ele><time>2026-04-12T09:18:46.429Z</time></trkpt><trkpt lat="42.9727433" lon="12.7553083"><ele>466.0</ele><time>2026-04-12T09:18:47.431Z</time></trkpt><trkpt lat="42.972695" lon="12.7551117"><ele>466.0</ele><time>2026-04-12T09:18:48.438Z</time></trkpt><trkpt lat="42.972665" lon="12.7549033"><ele>455.6666666666667</ele><time>2026-04-12T09:18:49.425Z</time></trkpt><trkpt lat="42.9726367" lon="12.7546967"><ele>445.33333333333337</ele><time>2026-04-12T09:18:50.43Z</time></trkpt><trkpt lat="42.9726183" lon="12.7544867"><ele>435.0</ele><time>2026-04-12T09:18:51.431Z</time></trkpt><trkpt lat="42.972625" lon="12.754255"><ele>428.66666666666663</ele><time>2026-04-12T09:18:52.431Z</time></trkpt><trkpt lat="42.9726383" lon="12.7540267"><ele>422.3333333333333</ele><time>2026-04-12T09:18:53.431Z</time></trkpt><trkpt lat="42.9726417" lon="12.7537967"><ele>416.0</ele><time>2026-04-12T09:18:54.427Z</time></trkpt><trkpt lat="42.9726283" lon="12.753565"><ele>412.3333333333333</ele><time>2026-04-12T09:18:55.43Z</time></trkpt><trkpt lat="42.9725933" lon="12.753335"><ele>408.66666666666663</ele><time>2026-04-12T09:18:56.432Z</time></trkpt><trkpt lat="42.97254" lon="12.7531033"><ele>405.0</ele><time>2026-04-12T09:18:57.43Z</time></trkpt><trkpt lat="42.97247" lon="12.7528717"><ele>414.66666666666663</ele><time>2026-04-12T09:18:58.429Z</time></trkpt><trkpt lat="42.9723833" lon="12.7526367"><ele>424.3333333333333</ele><time>2026-04-12T09:18:59.432Z</time></trkpt><trkpt lat="42.9722883" lon="12.7524117"><ele>434.0</ele><time>2026-04-12T09:19:00.427Z</time></trkpt><trkpt lat="42.9721867" lon="12.7521933"><ele>434.0</ele><time>2026-04-12T09:19:01.429Z</time></trkpt><trkpt lat="42.9720883" lon="12.7519733"><ele>434.0</ele><time>2026-04-12T09:19:02.429Z</time></trkpt><trkpt lat="42.971995" lon="12.751755"><ele>434.0</ele><time>2026-04-12T09:19:03.427Z</time></trkpt><trkpt lat="42.971905" lon="12.7515433"><ele>430.66666666666663</ele><time>2026-04-12T09:19:04.429Z</time></trkpt><trkpt lat="42.9718167" lon="12.7513367"><ele>427.33333333333337</ele><time>2026-04-12T09:19:05.43Z</time></trkpt><trkpt lat="42.9717317" lon="12.75114"><ele>424.0</ele><time>2026-04-12T09:19:06.43Z</time></trkpt><trkpt lat="42.9716517" lon="12.7509533"><ele>424.0</ele><time>2026-04-12T09:19:07.428Z</time></trkpt><trkpt lat="42.97157" lon="12.75078"><ele>424.0</ele><time>2026-04-12T09:19:08.431Z</time></trkpt><trkpt lat="42.971475" lon="12.7506217"><ele>424.0</ele><time>2026-04-12T09:19:09.43Z</time></trkpt><trkpt lat="42.971365" lon="12.7504883"><ele>424.0</ele><time>2026-04-12T09:19:10.429Z</time></trkpt><trkpt lat="42.9712367" lon="12.75038"><ele>424.0</ele><time>2026-04-12T09:19:11.43Z</time></trkpt><trkpt lat="42.9711" lon="12.7502917"><ele>424.0</ele><time>2026-04-12T09:19:12.426Z</time></trkpt><trkpt lat="42.97097" lon="12.7502133"><ele>424.0</ele><time>2026-04-12T09:19:13.428Z</time></trkpt><trkpt lat="42.9708433" lon="12.7501083"><ele>424.0</ele><time>2026-04-12T09:19:14.43Z</time></trkpt><trkpt lat="42.9707383" lon="12.74996"><ele>424.6666666666667</ele><time>2026-04-12T09:19:15.427Z</time></trkpt><trkpt lat="42.9706467" lon="12.7497917"><ele>425.33333333333337</ele><time>2026-04-12T09:19:16.429Z</time></trkpt><trkpt lat="42.9705583" lon="12.7496183"><ele>426.0</ele><time>2026-04-12T09:19:17.427Z</time></trkpt><trkpt lat="42.9704633" lon="12.749445"><ele>420.66666666666663</ele><time>2026-04-12T09:19:18.429Z</time></trkpt><trkpt lat="42.970375" lon="12.74927"><ele>415.3333333333333</ele><time>2026-04-12T09:19:19.431Z</time></trkpt><trkpt lat="42.9702917" lon="12.7490933"><ele>410.0</ele><time>2026-04-12T09:19:20.435Z</time></trkpt><trkpt lat="42.9702217" lon="12.748915"><ele>410.0</ele><time>2026-04-12T09:19:21.431Z</time></trkpt><trkpt lat="42.9701667" lon="12.7487433"><ele>410.0</ele><time>2026-04-12T09:19:22.432Z</time></trkpt><trkpt lat="42.9701233" lon="12.7485783"><ele>410.0</ele><time>2026-04-12T09:19:23.428Z</time></trkpt><trkpt lat="42.9700917" lon="12.74842"><ele>410.0</ele><time>2026-04-12T09:19:24.428Z</time></trkpt><trkpt lat="42.970065" lon="12.7482733"><ele>408.6</ele><time>2026-04-12T09:19:25.428Z</time></trkpt><trkpt lat="42.9700283" lon="12.748135"><ele>407.2</ele><time>2026-04-12T09:19:26.432Z</time></trkpt><trkpt lat="42.96997" lon="12.74802"><ele>405.79999999999995</ele><time>2026-04-12T09:19:27.433Z</time></trkpt><trkpt lat="42.9698933" lon="12.74794"><ele>404.4</ele><time>2026-04-12T09:19:28.431Z</time></trkpt><trkpt lat="42.969795" lon="12.7478867"><ele>403.0</ele><time>2026-04-12T09:19:29.428Z</time></trkpt><trkpt lat="42.96967" lon="12.74784"><ele>403.75</ele><time>2026-04-12T09:19:30.425Z</time></trkpt><trkpt lat="42.9695383" lon="12.747785"><ele>404.5</ele><time>2026-04-12T09:19:31.426Z</time></trkpt><trkpt lat="42.9694017" lon="12.7477133"><ele>405.25</ele><time>2026-04-12T09:19:32.43Z</time></trkpt><trkpt lat="42.9692733" lon="12.7476167"><ele>406.0</ele><time>2026-04-12T09:19:33.429Z</time></trkpt><trkpt lat="42.9691433" lon="12.7475"><ele>409.0</ele><time>2026-04-12T09:19:34.429Z</time></trkpt><trkpt lat="42.96901" lon="12.7473733"><ele>412.0</ele><time>2026-04-12T09:19:35.43Z</time></trkpt><trkpt lat="42.9688733" lon="12.7472467"><ele>415.0</ele><time>2026-04-12T09:19:36.428Z</time></trkpt><trkpt lat="42.968735" lon="12.747115"><ele>415.0</ele><time>2026-04-12T09:19:37.427Z</time></trkpt><trkpt lat="42.9685933" lon="12.7469683"><ele>415.0</ele><time>2026-04-12T09:19:38.428Z</time></trkpt><trkpt lat="42.9684533" lon="12.746785"><ele>415.0</ele><time>2026-04-12T09:19:39.428Z</time></trkpt><trkpt lat="42.9683133" lon="12.7465733"><ele>414.0</ele><time>2026-04-12T09:19:40.429Z</time></trkpt><trkpt lat="42.9681733" lon="12.746355"><ele>413.0</ele><time>2026-04-12T09:19:41.431Z</time></trkpt><trkpt lat="42.9680217" lon="12.746145"><ele>412.0</ele><time>2026-04-12T09:19:42.43Z</time></trkpt><trkpt lat="42.9678533" lon="12.74595"><ele>409.5</ele><time>2026-04-12T09:19:43.431Z</time></trkpt><trkpt lat="42.9676667" lon="12.74577"><ele>407.0</ele><time>2026-04-12T09:19:44.435Z</time></trkpt><trkpt lat="42.96747" lon="12.7456"><ele>407.0</ele><time>2026-04-12T09:19:45.427Z</time></trkpt><trkpt lat="42.967275" lon="12.7454417"><ele>407.0</ele><time>2026-04-12T09:19:46.433Z</time></trkpt><trkpt lat="42.967085" lon="12.7453017"><ele>407.0</ele><time>2026-04-12T09:19:47.431Z</time></trkpt><trkpt lat="42.9668933" lon="12.745185"><ele>403.66666666666663</ele><time>2026-04-12T09:19:48.432Z</time></trkpt><trkpt lat="42.9666917" lon="12.7450967"><ele>400.33333333333337</ele><time>2026-04-12T09:19:49.43Z</time></trkpt><trkpt lat="42.96649" lon="12.7450267"><ele>397.0</ele><time>2026-04-12T09:19:50.429Z</time></trkpt><trkpt lat="42.9662967" lon="12.74497"><ele>397.0</ele><time>2026-04-12T09:19:51.428Z</time></trkpt><trkpt lat="42.9661167" lon="12.7449167"><ele>397.0</ele><time>2026-04-12T09:19:52.429Z</time></trkpt><trkpt lat="42.96595" lon="12.74487"><ele>397.0</ele><time>2026-04-12T09:19:53.433Z</time></trkpt><trkpt lat="42.9657917" lon="12.744855"><ele>396.33333333333337</ele><time>2026-04-12T09:19:54.43Z</time></trkpt><trkpt lat="42.9656383" lon="12.744885"><ele>395.66666666666663</ele><time>2026-04-12T09:19:55.43Z</time></trkpt><trkpt lat="42.965505" lon="12.7449767"><ele>395.0</ele><time>2026-04-12T09:19:56.426Z</time></trkpt><trkpt lat="42.9653983" lon="12.74513"><ele>399.3333333333333</ele><time>2026-04-12T09:19:57.429Z</time></trkpt><trkpt lat="42.96532" lon="12.7453"><ele>403.66666666666663</ele><time>2026-04-12T09:19:58.431Z</time></trkpt><trkpt lat="42.9652683" lon="12.745495"><ele>408.0</ele><time>2026-04-12T09:19:59.426Z</time></trkpt><trkpt lat="42.96527" lon="12.7457583"><ele>410.5</ele><time>2026-04-12T09:20:00.429Z</time></trkpt><trkpt lat="42.9652867" lon="12.7460683"><ele>413.0</ele><time>2026-04-12T09:20:01.434Z</time></trkpt><trkpt lat="42.9653067" lon="12.7463733"><ele>413.0</ele><time>2026-04-12T09:20:02.433Z</time></trkpt><trkpt lat="42.9653183" lon="12.7466583"><ele>413.0</ele><time>2026-04-12T09:20:03.43Z</time></trkpt><trkpt lat="42.96533" lon="12.7469267"><ele>413.0</ele><time>2026-04-12T09:20:04.43Z</time></trkpt><trkpt lat="42.96534" lon="12.7471783"><ele>412.3333333333333</ele><time>2026-04-12T09:20:05.432Z</time></trkpt><trkpt lat="42.96535" lon="12.7474083"><ele>411.66666666666663</ele><time>2026-04-12T09:20:06.43Z</time></trkpt><trkpt lat="42.9653617" lon="12.7476183"><ele>411.0</ele><time>2026-04-12T09:20:07.432Z</time></trkpt><trkpt lat="42.9653633" lon="12.7478"><ele>410.8</ele><time>2026-04-12T09:20:08.428Z</time></trkpt><trkpt lat="42.9653417" lon="12.7479567"><ele>410.6</ele><time>2026-04-12T09:20:09.429Z</time></trkpt><trkpt lat="42.9652867" lon="12.7480783"><ele>410.4</ele><time>2026-04-12T09:20:10.427Z</time></trkpt><trkpt lat="42.965205" lon="12.7481517"><ele>410.2</ele><time>2026-04-12T09:20:11.429Z</time></trkpt><trkpt lat="42.965115" lon="12.7481833"><ele>410.0</ele><time>2026-04-12T09:20:12.43Z</time></trkpt><trkpt lat="42.9650233" lon="12.74816"><ele>407.5</ele><time>2026-04-12T09:20:13.434Z</time></trkpt><trkpt lat="42.9649383" lon="12.7480583"><ele>405.0</ele><time>2026-04-12T09:20:14.43Z</time></trkpt><trkpt lat="42.9648533" lon="12.747895"><ele>402.5</ele><time>2026-04-12T09:20:15.43Z</time></trkpt><trkpt lat="42.9648033" lon="12.74769"><ele>400.0</ele><time>2026-04-12T09:20:16.431Z</time></trkpt><trkpt lat="42.9647483" lon="12.7474333"><ele>397.33333333333337</ele><time>2026-04-12T09:20:17.425Z</time></trkpt><trkpt lat="42.9646783" lon="12.7471667"><ele>394.66666666666663</ele><time>2026-04-12T09:20:18.431Z</time></trkpt><trkpt lat="42.9645933" lon="12.7469017"><ele>392.0</ele><time>2026-04-12T09:20:19.428Z</time></trkpt><trkpt lat="42.964495" lon="12.7466333"><ele>391.3333333333333</ele><time>2026-04-12T09:20:20.432Z</time></trkpt><trkpt lat="42.964385" lon="12.74639"><ele>390.66666666666663</ele><time>2026-04-12T09:20:21.429Z</time></trkpt><trkpt lat="42.9642717" lon="12.7461667"><ele>390.0</ele><time>2026-04-12T09:20:22.43Z</time></trkpt><trkpt lat="42.96415" lon="12.7459683"><ele>388.66666666666663</ele><time>2026-04-12T09:20:23.431Z</time></trkpt><trkpt lat="42.964005" lon="12.7458033"><ele>387.3333333333333</ele><time>2026-04-12T09:20:24.431Z</time></trkpt><trkpt lat="42.96385" lon="12.7456767"><ele>386.0</ele><time>2026-04-12T09:20:25.436Z</time></trkpt><trkpt lat="42.9636833" lon="12.74561"><ele>386.0</ele><time>2026-04-12T09:20:26.43Z</time></trkpt><trkpt lat="42.9635183" lon="12.745605"><ele>386.0</ele><time>2026-04-12T09:20:27.428Z</time></trkpt><trkpt lat="42.96336" lon="12.7456683"><ele>386.0</ele><time>2026-04-12T09:20:28.431Z</time></trkpt><trkpt lat="42.9632083" lon="12.7457617"><ele>386.75</ele><time>2026-04-12T09:20:29.429Z</time></trkpt><trkpt lat="42.9630683" lon="12.7458217"><ele>387.5</ele><time>2026-04-12T09:20:30.43Z</time></trkpt><trkpt lat="42.9629267" lon="12.7458083"><ele>388.25</ele><time>2026-04-12T09:20:31.429Z</time></trkpt><trkpt lat="42.9628067" lon="12.74573"><ele>389.0</ele><time>2026-04-12T09:20:32.429Z</time></trkpt><trkpt lat="42.9627033" lon="12.7455783"><ele>389.0</ele><time>2026-04-12T09:20:33.431Z</time></trkpt><trkpt lat="42.9626083" lon="12.7453717"><ele>389.0</ele><time>2026-04-12T09:20:34.43Z</time></trkpt><trkpt lat="42.9625067" lon="12.7451617"><ele>389.0</ele><time>2026-04-12T09:20:35.429Z</time></trkpt><trkpt lat="42.962405" lon="12.74495"><ele>389.0</ele><time>2026-04-12T09:20:36.432Z</time></trkpt><trkpt lat="42.9622967" lon="12.7447617"><ele>389.0</ele><time>2026-04-12T09:20:37.432Z</time></trkpt><trkpt lat="42.9621783" lon="12.744605"><ele>389.0</ele><time>2026-04-12T09:20:38.433Z</time></trkpt><trkpt lat="42.96205" lon="12.7444767"><ele>386.25</ele><time>2026-04-12T09:20:39.43Z</time></trkpt><trkpt lat="42.9619283" lon="12.7443667"><ele>383.5</ele><time>2026-04-12T09:20:40.431Z</time></trkpt><trkpt lat="42.9618383" lon="12.7442467"><ele>380.75</ele><time>2026-04-12T09:20:41.427Z</time></trkpt><trkpt lat="42.9617883" lon="12.744105"><ele>378.0</ele><time>2026-04-12T09:20:42.427Z</time></trkpt><trkpt lat="42.9617983" lon="12.7439617"><ele>378.0</ele><time>2026-04-12T09:20:43.43Z</time></trkpt><trkpt lat="42.9618533" lon="12.7438217"><ele>378.0</ele><time>2026-04-12T09:20:44.431Z</time></trkpt><trkpt lat="42.9619417" lon="12.7437333"><ele>378.0</ele><time>2026-04-12T09:20:45.429Z</time></trkpt><trkpt lat="42.9620717" lon="12.7436917"><ele>378.0</ele><time>2026-04-12T09:20:46.429Z</time></trkpt><trkpt lat="42.962245" lon="12.74371"><ele>378.0</ele><time>2026-04-12T09:20:47.43Z</time></trkpt><trkpt lat="42.9624417" lon="12.7437783"><ele>378.0</ele><time>2026-04-12T09:20:48.427Z</time></trkpt><trkpt lat="42.9626233" lon="12.7438267"><ele>378.0</ele><time>2026-04-12T09:20:49.431Z</time></trkpt><trkpt lat="42.962775" lon="12.743835"><ele>374.75</ele><time>2026-04-12T09:20:50.433Z</time></trkpt><trkpt lat="42.9629017" lon="12.7437917"><ele>371.5</ele><time>2026-04-12T09:20:51.432Z</time></trkpt><trkpt lat="42.9629917" lon="12.7436883"><ele>368.25</ele><time>2026-04-12T09:20:52.428Z</time></trkpt><trkpt lat="42.963025" lon="12.7435367"><ele>365.0</ele><time>2026-04-12T09:20:53.432Z</time></trkpt><trkpt lat="42.9629967" lon="12.74336"><ele>365.0</ele><time>2026-04-12T09:20:54.43Z</time></trkpt><trkpt lat="42.962925" lon="12.7431517"><ele>365.0</ele><time>2026-04-12T09:20:55.429Z</time></trkpt><trkpt lat="42.9628233" lon="12.742925"><ele>365.0</ele><time>2026-04-12T09:20:56.429Z</time></trkpt><trkpt lat="42.962725" lon="12.7427017"><ele>363.0</ele><time>2026-04-12T09:20:57.43Z</time></trkpt><trkpt lat="42.96263" lon="12.7424917"><ele>361.0</ele><time>2026-04-12T09:20:58.429Z</time></trkpt><trkpt lat="42.962535" lon="12.742295"><ele>359.0</ele><time>2026-04-12T09:20:59.427Z</time></trkpt><trkpt lat="42.962445" lon="12.7421067"><ele>361.5</ele><time>2026-04-12T09:21:00.428Z</time></trkpt><trkpt lat="42.96237" lon="12.741925"><ele>364.0</ele><time>2026-04-12T09:21:01.428Z</time></trkpt><trkpt lat="42.9622983" lon="12.74175"><ele>366.5</ele><time>2026-04-12T09:21:02.432Z</time></trkpt><trkpt lat="42.96223" lon="12.741575"><ele>369.0</ele><time>2026-04-12T09:21:03.44Z</time></trkpt><trkpt lat="42.9621567" lon="12.7414"><ele>369.0</ele><time>2026-04-12T09:21:04.43Z</time></trkpt><trkpt lat="42.962085" lon="12.7412317"><ele>369.0</ele><time>2026-04-12T09:21:05.431Z</time></trkpt><trkpt lat="42.9620167" lon="12.74106"><ele>369.0</ele><time>2026-04-12T09:21:06.431Z</time></trkpt><trkpt lat="42.96195" lon="12.7408983"><ele>369.0</ele><time>2026-04-12T09:21:07.431Z</time></trkpt><trkpt lat="42.9618917" lon="12.7407383"><ele>367.0</ele><time>2026-04-12T09:21:08.43Z</time></trkpt><trkpt lat="42.9618517" lon="12.7405617"><ele>365.0</ele><time>2026-04-12T09:21:09.427Z</time></trkpt><trkpt lat="42.9618467" lon="12.7403767"><ele>363.0</ele><time>2026-04-12T09:21:10.428Z</time></trkpt><trkpt lat="42.9618617" lon="12.7401967"><ele>361.0</ele><time>2026-04-12T09:21:11.428Z</time></trkpt><trkpt lat="42.961875" lon="12.7400267"><ele>360.25</ele><time>2026-04-12T09:21:12.43Z</time></trkpt><trkpt lat="42.9618783" lon="12.739865"><ele>359.5</ele><time>2026-04-12T09:21:13.428Z</time></trkpt><trkpt lat="42.961865" lon="12.7397067"><ele>358.75</ele><time>2026-04-12T09:21:14.434Z</time></trkpt><trkpt lat="42.961825" lon="12.739555"><ele>358.0</ele><time>2026-04-12T09:21:15.431Z</time></trkpt><trkpt lat="42.9617383" lon="12.7394083"><ele>363.3333333333333</ele><time>2026-04-12T09:21:16.429Z</time></trkpt><trkpt lat="42.961625" lon="12.7392483"><ele>368.6666666666667</ele><time>2026-04-12T09:21:17.43Z</time></trkpt><trkpt lat="42.9614983" lon="12.73907"><ele>374.0</ele><time>2026-04-12T09:21:18.431Z</time></trkpt><trkpt lat="42.961365" lon="12.73886"><ele>374.0</ele><time>2026-04-12T09:21:19.43Z</time></trkpt><trkpt lat="42.9612367" lon="12.7386483"><ele>374.0</ele><time>2026-04-12T09:21:20.43Z</time></trkpt><trkpt lat="42.961115" lon="12.738435"><ele>374.0</ele><time>2026-04-12T09:21:21.43Z</time></trkpt><trkpt lat="42.96101" lon="12.7382067"><ele>373.33333333333337</ele><time>2026-04-12T09:21:22.43Z</time></trkpt><trkpt lat="42.9609333" lon="12.737975"><ele>372.6666666666667</ele><time>2026-04-12T09:21:23.431Z</time></trkpt><trkpt lat="42.9608617" lon="12.7377617"><ele>372.0</ele><time>2026-04-12T09:21:24.432Z</time></trkpt><trkpt lat="42.9607817" lon="12.7375683"><ele>370.3333333333333</ele><time>2026-04-12T09:21:25.431Z</time></trkpt><trkpt lat="42.9606667" lon="12.7374017"><ele>368.66666666666663</ele><time>2026-04-12T09:21:26.429Z</time></trkpt><trkpt lat="42.9605217" lon="12.7372683"><ele>367.0</ele><time>2026-04-12T09:21:27.429Z</time></trkpt><trkpt lat="42.9603633" lon="12.7371533"><ele>367.0</ele><time>2026-04-12T09:21:28.428Z</time></trkpt><trkpt lat="42.9602067" lon="12.737055"><ele>367.0</ele><time>2026-04-12T09:21:29.428Z</time></trkpt><trkpt lat="42.9600433" lon="12.7369983"><ele>367.0</ele><time>2026-04-12T09:21:30.426Z</time></trkpt><trkpt lat="42.9598767" lon="12.7370033"><ele>366.66666666666663</ele><time>2026-04-12T09:21:31.429Z</time></trkpt><trkpt lat="42.959715" lon="12.7370667"><ele>366.3333333333333</ele><time>2026-04-12T09:21:32.433Z</time></trkpt><trkpt lat="42.9595717" lon="12.73718"><ele>366.0</ele><time>2026-04-12T09:21:33.427Z</time></trkpt><trkpt lat="42.9594267" lon="12.7372767"><ele>366.0</ele><time>2026-04-12T09:21:34.429Z</time></trkpt><trkpt lat="42.9592667" lon="12.7373367"><ele>366.0</ele><time>2026-04-12T09:21:35.43Z</time></trkpt><trkpt lat="42.959075" lon="12.73732"><ele>366.0</ele><time>2026-04-12T09:21:36.432Z</time></trkpt><trkpt lat="42.9588767" lon="12.7372733"><ele>365.6666666666667</ele><time>2026-04-12T09:21:37.431Z</time></trkpt><trkpt lat="42.958675" lon="12.7371767"><ele>365.33333333333337</ele><time>2026-04-12T09:21:38.431Z</time></trkpt><trkpt lat="42.9584833" lon="12.737045"><ele>365.0</ele><time>2026-04-12T09:21:39.43Z</time></trkpt><trkpt lat="42.9583" lon="12.736905"><ele>359.6666666666667</ele><time>2026-04-12T09:21:40.429Z</time></trkpt><trkpt lat="42.9581267" lon="12.736775"><ele>354.3333333333333</ele><time>2026-04-12T09:21:41.43Z</time></trkpt><trkpt lat="42.95796" lon="12.7366517"><ele>349.0</ele><time>2026-04-12T09:21:42.431Z</time></trkpt><trkpt lat="42.9578" lon="12.7365367"><ele>349.0</ele><time>2026-04-12T09:21:43.434Z</time></trkpt><trkpt lat="42.9576433" lon="12.736425"><ele>349.0</ele><time>2026-04-12T09:21:44.43Z</time></trkpt><trkpt lat="42.9574883" lon="12.7363367"><ele>349.0</ele><time>2026-04-12T09:21:45.429Z</time></trkpt><trkpt lat="42.9573167" lon="12.7362967"><ele>350.0</ele><time>2026-04-12T09:21:46.43Z</time></trkpt><trkpt lat="42.9571333" lon="12.736315"><ele>351.0</ele><time>2026-04-12T09:21:47.431Z</time></trkpt><trkpt lat="42.956965" lon="12.7363533"><ele>352.0</ele><time>2026-04-12T09:21:48.432Z</time></trkpt><trkpt lat="42.9568067" lon="12.73639"><ele>351.5</ele><time>2026-04-12T09:21:49.431Z</time></trkpt><trkpt lat="42.95666" lon="12.73641"><ele>351.0</ele><time>2026-04-12T09:21:50.434Z</time></trkpt><trkpt lat="42.95653" lon="12.7363733"><ele>350.5</ele><time>2026-04-12T09:21:51.43Z</time></trkpt><trkpt lat="42.95643" lon="12.73628"><ele>350.0</ele><time>2026-04-12T09:21:52.427Z</time></trkpt><trkpt lat="42.95638" lon="12.736135"><ele>347.0</ele><time>2026-04-12T09:21:53.43Z</time></trkpt><trkpt lat="42.95639" lon="12.7359417"><ele>344.0</ele><time>2026-04-12T09:21:54.428Z</time></trkpt><trkpt lat="42.9564233" lon="12.735715"><ele>341.0</ele><time>2026-04-12T09:21:55.427Z</time></trkpt><trkpt lat="42.9564533" lon="12.7354933"><ele>341.0</ele><time>2026-04-12T09:21:56.43Z</time></trkpt><trkpt lat="42.95648" lon="12.7352867"><ele>341.0</ele><time>2026-04-12T09:21:57.427Z</time></trkpt><trkpt lat="42.9564783" lon="12.7350917"><ele>341.0</ele><time>2026-04-12T09:21:58.431Z</time></trkpt><trkpt lat="42.9564467" lon="12.734915"><ele>341.0</ele><time>2026-04-12T09:21:59.432Z</time></trkpt><trkpt lat="42.9563583" lon="12.73477"><ele>340.33333333333337</ele><time>2026-04-12T09:22:00.43Z</time></trkpt><trkpt lat="42.9562267" lon="12.7346717"><ele>339.6666666666667</ele><time>2026-04-12T09:22:01.429Z</time></trkpt><trkpt lat="42.9560583" lon="12.7346017"><ele>339.0</ele><time>2026-04-12T09:22:02.431Z</time></trkpt><trkpt lat="42.9558683" lon="12.7345383"><ele>339.0</ele><time>2026-04-12T09:22:03.427Z</time></trkpt><trkpt lat="42.955685" lon="12.734475"><ele>339.0</ele><time>2026-04-12T09:22:04.431Z</time></trkpt><trkpt lat="42.95552" lon="12.7344"><ele>339.0</ele><time>2026-04-12T09:22:05.43Z</time></trkpt><trkpt lat="42.9553767" lon="12.734295"><ele>335.3333333333333</ele><time>2026-04-12T09:22:06.428Z</time></trkpt><trkpt lat="42.955265" lon="12.7341383"><ele>331.66666666666663</ele><time>2026-04-12T09:22:07.43Z</time></trkpt><trkpt lat="42.9551833" lon="12.7339283"><ele>328.0</ele><time>2026-04-12T09:22:08.431Z</time></trkpt><trkpt lat="42.955155" lon="12.7336717"><ele>324.0</ele><time>2026-04-12T09:22:09.43Z</time></trkpt><trkpt lat="42.9551483" lon="12.733405"><ele>320.0</ele><time>2026-04-12T09:22:10.43Z</time></trkpt><trkpt lat="42.95514" lon="12.7331517"><ele>316.0</ele><time>2026-04-12T09:22:11.427Z</time></trkpt><trkpt lat="42.95513" lon="12.73293"><ele>315.66666666666663</ele><time>2026-04-12T09:22:12.43Z</time></trkpt><trkpt lat="42.9551083" lon="12.7327083"><ele>315.3333333333333</ele><time>2026-04-12T09:22:13.429Z</time></trkpt><trkpt lat="42.95505" lon="12.7325283"><ele>315.0</ele><time>2026-04-12T09:22:14.435Z</time></trkpt><trkpt lat="42.9549417" lon="12.73237"><ele>314.6666666666667</ele><time>2026-04-12T09:22:15.428Z</time></trkpt><trkpt lat="42.9547933" lon="12.7322433"><ele>314.33333333333337</ele><time>2026-04-12T09:22:16.428Z</time></trkpt><trkpt lat="42.9546417" lon="12.7321233"><ele>314.0</ele><time>2026-04-12T09:22:17.429Z</time></trkpt><trkpt lat="42.9545067" lon="12.7319817"><ele>313.0</ele><time>2026-04-12T09:22:18.43Z</time></trkpt><trkpt lat="42.9543967" lon="12.731815"><ele>312.0</ele><time>2026-04-12T09:22:19.43Z</time></trkpt><trkpt lat="42.95434" lon="12.73163"><ele>311.0</ele><time>2026-04-12T09:22:20.43Z</time></trkpt><trkpt lat="42.9543433" lon="12.7314317"><ele>311.0</ele><time>2026-04-12T09:22:21.43Z</time></trkpt><trkpt lat="42.9543967" lon="12.7312083"><ele>311.0</ele><time>2026-04-12T09:22:22.427Z</time></trkpt><trkpt lat="42.9544417" lon="12.7309817"><ele>311.0</ele><time>2026-04-12T09:22:23.428Z</time></trkpt><trkpt lat="42.9544983" lon="12.7307667"><ele>310.6666666666667</ele><time>2026-04-12T09:22:24.431Z</time></trkpt><trkpt lat="42.95457" lon="12.730575"><ele>310.3333333333333</ele><time>2026-04-12T09:22:25.432Z</time></trkpt><trkpt lat="42.95466" lon="12.730405"><ele>310.0</ele><time>2026-04-12T09:22:26.433Z</time></trkpt><trkpt lat="42.954755" lon="12.7302483"><ele>309.0</ele><time>2026-04-12T09:22:27.426Z</time></trkpt><trkpt lat="42.9548483" lon="12.7300867"><ele>308.0</ele><time>2026-04-12T09:22:28.429Z</time></trkpt><trkpt lat="42.954935" lon="12.7299133"><ele>307.0</ele><time>2026-04-12T09:22:29.429Z</time></trkpt><trkpt lat="42.9550133" lon="12.7297283"><ele>308.5</ele><time>2026-04-12T09:22:30.428Z</time></trkpt><trkpt lat="42.9550783" lon="12.7295383"><ele>310.0</ele><time>2026-04-12T09:22:31.429Z</time></trkpt><trkpt lat="42.9551367" lon="12.7293533"><ele>311.5</ele><time>2026-04-12T09:22:32.428Z</time></trkpt><trkpt lat="42.955185" lon="12.729175"><ele>313.0</ele><time>2026-04-12T09:22:33.427Z</time></trkpt><trkpt lat="42.9552167" lon="12.729"><ele>313.0</ele><time>2026-04-12T09:22:34.427Z</time></trkpt><trkpt lat="42.955235" lon="12.7288167"><ele>313.0</ele><time>2026-04-12T09:22:35.43Z</time></trkpt></trkseg><trkseg><trkpt lat="42.9562033" lon="12.72377"><ele>280.0</ele><time>2026-04-12T09:35:51.429Z</time></trkpt><trkpt lat="42.9561533" lon="12.7236333"><ele>280.0</ele><time>2026-04-12T09:35:53.439Z</time></trkpt><trkpt lat="42.9561217" lon="12.7235417"><ele>280.0</ele><time>2026-04-12T09:35:54.442Z</time></trkpt><trkpt lat="42.956085" lon="12.723435"><ele>280.0</ele><time>2026-04-12T09:35:55.44Z</time></trkpt><trkpt lat="42.9560517" lon="12.72333"><ele>280.0</ele><time>2026-04-12T09:35:56.437Z</time></trkpt><trkpt lat="42.95602" lon="12.7232133"><ele>280.0</ele><time>2026-04-12T09:35:57.437Z</time></trkpt><trkpt lat="42.9559917" lon="12.72309"><ele>279.0</ele><time>2026-04-12T09:35:58.436Z</time></trkpt><trkpt lat="42.95598" lon="12.72297"><ele>278.0</ele><time>2026-04-12T09:35:59.438Z</time></trkpt><trkpt lat="42.95598" lon="12.7228417"><ele>277.0</ele><time>2026-04-12T09:36:00.435Z</time></trkpt><trkpt lat="42.9559967" lon="12.7227117"><ele>276.0</ele><time>2026-04-12T09:36:01.428Z</time></trkpt><trkpt lat="42.9560417" lon="12.7226167"><ele>275.0</ele><time>2026-04-12T09:36:02.435Z</time></trkpt><trkpt lat="42.9560983" lon="12.7225417"><ele>274.0</ele><time>2026-04-12T09:36:03.445Z</time></trkpt><trkpt lat="42.9561867" lon="12.7224767"><ele>273.25</ele><time>2026-04-12T09:36:04.43Z</time></trkpt><trkpt lat="42.9562867" lon="12.7224433"><ele>272.5</ele><time>2026-04-12T09:36:05.439Z</time></trkpt><trkpt lat="42.9564033" lon="12.7224233"><ele>271.75</ele><time>2026-04-12T09:36:06.436Z</time></trkpt><trkpt lat="42.9565417" lon="12.7223983"><ele>271.0</ele><time>2026-04-12T09:36:07.44Z</time></trkpt><trkpt lat="42.9566917" lon="12.7223717"><ele>270.66666666666663</ele><time>2026-04-12T09:36:08.432Z</time></trkpt><trkpt lat="42.9568483" lon="12.72235"><ele>270.3333333333333</ele><time>2026-04-12T09:36:09.439Z</time></trkpt><trkpt lat="42.9570233" lon="12.7223233"><ele>270.0</ele><time>2026-04-12T09:36:10.434Z</time></trkpt><trkpt lat="42.9572" lon="12.7222967"><ele>270.0</ele><time>2026-04-12T09:36:11.434Z</time></trkpt><trkpt lat="42.957365" lon="12.7222733"><ele>270.0</ele><time>2026-04-12T09:36:12.427Z</time></trkpt><trkpt lat="42.957515" lon="12.7222533"><ele>270.0</ele><time>2026-04-12T09:36:13.424Z</time></trkpt><trkpt lat="42.9576533" lon="12.722235"><ele>270.0</ele><time>2026-04-12T09:36:14.424Z</time></trkpt><trkpt lat="42.9577767" lon="12.7222117"><ele>270.0</ele><time>2026-04-12T09:36:15.428Z</time></trkpt><trkpt lat="42.957885" lon="12.722175"><ele>270.0</ele><time>2026-04-12T09:36:16.426Z</time></trkpt><trkpt lat="42.95798" lon="12.7221167"><ele>270.0</ele><time>2026-04-12T09:36:17.423Z</time></trkpt><trkpt lat="42.9580433" lon="12.7220317"><ele>270.0</ele><time>2026-04-12T09:36:18.433Z</time></trkpt><trkpt lat="42.958085" lon="12.7219317"><ele>269.5</ele><time>2026-04-12T09:36:19.435Z</time></trkpt><trkpt lat="42.9581017" lon="12.7218383"><ele>269.0</ele><time>2026-04-12T09:36:20.434Z</time></trkpt><trkpt lat="42.9580917" lon="12.7217383"><ele>268.5</ele><time>2026-04-12T09:36:21.427Z</time></trkpt><trkpt lat="42.9580567" lon="12.7216417"><ele>268.0</ele><time>2026-04-12T09:36:22.435Z</time></trkpt><trkpt lat="42.95799" lon="12.7215417"><ele>267.5</ele><time>2026-04-12T09:36:23.434Z</time></trkpt><trkpt lat="42.9579033" lon="12.7214883"><ele>267.0</ele><time>2026-04-12T09:36:24.437Z</time></trkpt><trkpt lat="42.9577917" lon="12.721475"><ele>267.0</ele><time>2026-04-12T09:36:25.44Z</time></trkpt><trkpt lat="42.957655" lon="12.721525"><ele>267.0</ele><time>2026-04-12T09:36:26.429Z</time></trkpt><trkpt lat="42.9575033" lon="12.7215933"><ele>267.0</ele><time>2026-04-12T09:36:27.435Z</time></trkpt><trkpt lat="42.9573417" lon="12.72167"><ele>267.0</ele><time>2026-04-12T09:36:28.427Z</time></trkpt><trkpt lat="42.9571683" lon="12.7217367"><ele>267.0</ele><time>2026-04-12T09:36:29.432Z</time></trkpt><trkpt lat="42.9569883" lon="12.7218"><ele>267.0</ele><time>2026-04-12T09:36:30.432Z</time></trkpt><trkpt lat="42.956805" lon="12.7218533"><ele>268.0</ele><time>2026-04-12T09:36:31.432Z</time></trkpt><trkpt lat="42.9566183" lon="12.721895"><ele>269.0</ele><time>2026-04-12T09:36:32.439Z</time></trkpt><trkpt lat="42.9564267" lon="12.72193"><ele>270.0</ele><time>2026-04-12T09:36:33.438Z</time></trkpt><trkpt lat="42.95623" lon="12.7219567"><ele>270.3333333333333</ele><time>2026-04-12T09:36:34.434Z</time></trkpt><trkpt lat="42.956035" lon="12.7219783"><ele>270.66666666666663</ele><time>2026-04-12T09:36:35.436Z</time></trkpt><trkpt lat="42.9558367" lon="12.721995"><ele>271.0</ele><time>2026-04-12T09:36:36.438Z</time></trkpt><trkpt lat="42.9556333" lon="12.7220017"><ele>271.66666666666663</ele><time>2026-04-12T09:36:37.438Z</time></trkpt><trkpt lat="42.9554333" lon="12.722"><ele>272.3333333333333</ele><time>2026-04-12T09:36:38.444Z</time></trkpt><trkpt lat="42.9552333" lon="12.7219917"><ele>273.0</ele><time>2026-04-12T09:36:39.429Z</time></trkpt><trkpt lat="42.9550417" lon="12.72198"><ele>273.6666666666667</ele><time>2026-04-12T09:36:40.434Z</time></trkpt><trkpt lat="42.9548583" lon="12.7219717"><ele>274.33333333333337</ele><time>2026-04-12T09:36:41.428Z</time></trkpt><trkpt lat="42.9546833" lon="12.721965"><ele>275.0</ele><time>2026-04-12T09:36:42.43Z</time></trkpt><trkpt lat="42.95452" lon="12.721955"><ele>275.0</ele><time>2026-04-12T09:36:43.43Z</time></trkpt><trkpt lat="42.9543567" lon="12.7219417"><ele>275.0</ele><time>2026-04-12T09:36:44.428Z</time></trkpt><trkpt lat="42.9541917" lon="12.7219333"><ele>275.0</ele><time>2026-04-12T09:36:45.432Z</time></trkpt><trkpt lat="42.9540283" lon="12.7219233"><ele>275.0</ele><time>2026-04-12T09:36:46.442Z</time></trkpt><trkpt lat="42.9538633" lon="12.7219183"><ele>275.0</ele><time>2026-04-12T09:36:47.438Z</time></trkpt><trkpt lat="42.9536933" lon="12.721915"><ele>275.0</ele><time>2026-04-12T09:36:48.432Z</time></trkpt><trkpt lat="42.9535117" lon="12.72192"><ele>274.6666666666667</ele><time>2026-04-12T09:36:49.43Z</time></trkpt><trkpt lat="42.9533217" lon="12.7219317"><ele>274.3333333333333</ele><time>2026-04-12T09:36:50.455Z</time></trkpt><trkpt lat="42.95313" lon="12.7219417"><ele>274.0</ele><time>2026-04-12T09:36:51.435Z</time></trkpt><trkpt lat="42.9529383" lon="12.7219567"><ele>274.0</ele><time>2026-04-12T09:36:52.443Z</time></trkpt><trkpt lat="42.9527483" lon="12.721975"><ele>274.0</ele><time>2026-04-12T09:36:53.438Z</time></trkpt><trkpt lat="42.9525617" lon="12.7219967"><ele>274.0</ele><time>2026-04-12T09:36:54.433Z</time></trkpt><trkpt lat="42.952375" lon="12.7220183"><ele>274.3333333333333</ele><time>2026-04-12T09:36:55.436Z</time></trkpt><trkpt lat="42.9521883" lon="12.7220367"><ele>274.6666666666667</ele><time>2026-04-12T09:36:56.436Z</time></trkpt><trkpt lat="42.9519967" lon="12.7220483"><ele>275.0</ele><time>2026-04-12T09:36:57.443Z</time></trkpt><trkpt lat="42.951805" lon="12.7220483"><ele>276.0</ele><time>2026-04-12T09:36:58.431Z</time></trkpt><trkpt lat="42.9516133" lon="12.7220417"><ele>277.0</ele><time>2026-04-12T09:36:59.433Z</time></trkpt><trkpt lat="42.9514167" lon="12.722025"><ele>278.0</ele><time>2026-04-12T09:37:00.435Z</time></trkpt><trkpt lat="42.9512183" lon="12.722"><ele>278.0</ele><time>2026-04-12T09:37:01.436Z</time></trkpt><trkpt lat="42.9510217" lon="12.7219667"><ele>278.0</ele><time>2026-04-12T09:37:02.438Z</time></trkpt><trkpt lat="42.95083" lon="12.721935"><ele>278.0</ele><time>2026-04-12T09:37:03.438Z</time></trkpt><trkpt lat="42.950645" lon="12.7219017"><ele>275.33333333333337</ele><time>2026-04-12T09:37:04.426Z</time></trkpt><trkpt lat="42.9504667" lon="12.7218683"><ele>272.6666666666667</ele><time>2026-04-12T09:37:05.451Z</time></trkpt><trkpt lat="42.95029" lon="12.7218433"><ele>270.0</ele><time>2026-04-12T09:37:06.433Z</time></trkpt><trkpt lat="42.9501183" lon="12.72182"><ele>269.6666666666667</ele><time>2026-04-12T09:37:07.435Z</time></trkpt><trkpt lat="42.9499517" lon="12.7218017"><ele>269.33333333333337</ele><time>2026-04-12T09:37:08.443Z</time></trkpt><trkpt lat="42.949785" lon="12.7217867"><ele>269.0</ele><time>2026-04-12T09:37:09.439Z</time></trkpt><trkpt lat="42.9496183" lon="12.7217817"><ele>269.0</ele><time>2026-04-12T09:37:10.441Z</time></trkpt><trkpt lat="42.9494533" lon="12.7217917"><ele>269.0</ele><time>2026-04-12T09:37:11.437Z</time></trkpt><trkpt lat="42.9492867" lon="12.7218117"><ele>269.0</ele><time>2026-04-12T09:37:12.438Z</time></trkpt><trkpt lat="42.9491183" lon="12.7218383"><ele>268.6666666666667</ele><time>2026-04-12T09:37:13.431Z</time></trkpt><trkpt lat="42.9489483" lon="12.7218683"><ele>268.3333333333333</ele><time>2026-04-12T09:37:14.433Z</time></trkpt><trkpt lat="42.9487667" lon="12.7219"><ele>268.0</ele><time>2026-04-12T09:37:15.428Z</time></trkpt><trkpt lat="42.94857" lon="12.7219267"><ele>267.66666666666663</ele><time>2026-04-12T09:37:16.43Z</time></trkpt><trkpt lat="42.9483633" lon="12.7219517"><ele>267.3333333333333</ele><time>2026-04-12T09:37:17.427Z</time></trkpt><trkpt lat="42.948145" lon="12.7219783"><ele>267.0</ele><time>2026-04-12T09:37:18.436Z</time></trkpt><trkpt lat="42.9479217" lon="12.7219983"><ele>267.0</ele><time>2026-04-12T09:37:19.435Z</time></trkpt><trkpt lat="42.9476933" lon="12.7220167"><ele>267.0</ele><time>2026-04-12T09:37:20.441Z</time></trkpt><trkpt lat="42.94746" lon="12.7220283"><ele>266.5</ele><time>2026-04-12T09:37:21.443Z</time></trkpt><trkpt lat="42.9472233" lon="12.722035"><ele>266.0</ele><time>2026-04-12T09:37:22.437Z</time></trkpt><trkpt lat="42.9469833" lon="12.7220367"><ele>266.0</ele><time>2026-04-12T09:37:23.431Z</time></trkpt><trkpt lat="42.94674" lon="12.7220317"><ele>266.0</ele><time>2026-04-12T09:37:24.434Z</time></trkpt><trkpt lat="42.9464983" lon="12.7220233"><ele>265.0</ele><time>2026-04-12T09:37:25.43Z</time></trkpt><trkpt lat="42.946255" lon="12.7220183"><ele>264.0</ele><time>2026-04-12T09:37:26.434Z</time></trkpt><trkpt lat="42.9460167" lon="12.7220183"><ele>261.5</ele><time>2026-04-12T09:37:27.434Z</time></trkpt><trkpt lat="42.9457833" lon="12.722025"><ele>259.0</ele><time>2026-04-12T09:37:28.428Z</time></trkpt><trkpt lat="42.9455533" lon="12.722045"><ele>259.0</ele><time>2026-04-12T09:37:29.433Z</time></trkpt><trkpt lat="42.9453267" lon="12.7220883"><ele>259.0</ele><time>2026-04-12T09:37:30.437Z</time></trkpt><trkpt lat="42.9451" lon="12.7221417"><ele>259.5</ele><time>2026-04-12T09:37:31.427Z</time></trkpt><trkpt lat="42.9448733" lon="12.7222"><ele>260.0</ele><time>2026-04-12T09:37:32.446Z</time></trkpt><trkpt lat="42.9446483" lon="12.7222583"><ele>260.0</ele><time>2026-04-12T09:37:33.434Z</time></trkpt><trkpt lat="42.94443" lon="12.7223067"><ele>260.0</ele><time>2026-04-12T09:37:34.442Z</time></trkpt><trkpt lat="42.9442167" lon="12.722345"><ele>260.0</ele><time>2026-04-12T09:37:35.436Z</time></trkpt><trkpt lat="42.943995" lon="12.722375"><ele>259.5</ele><time>2026-04-12T09:37:36.436Z</time></trkpt><trkpt lat="42.943765" lon="12.7223983"><ele>259.0</ele><time>2026-04-12T09:37:37.438Z</time></trkpt><trkpt lat="42.94353" lon="12.7224183"><ele>258.0</ele><time>2026-04-12T09:37:38.438Z</time></trkpt><trkpt lat="42.943285" lon="12.72244"><ele>257.0</ele><time>2026-04-12T09:37:39.438Z</time></trkpt><trkpt lat="42.9430333" lon="12.722455"><ele>257.0</ele><time>2026-04-12T09:37:40.441Z</time></trkpt><trkpt lat="42.9427867" lon="12.722465"><ele>257.0</ele><time>2026-04-12T09:37:41.448Z</time></trkpt><trkpt lat="42.942535" lon="12.7224683"><ele>256.0</ele><time>2026-04-12T09:37:42.441Z</time></trkpt><trkpt lat="42.9422833" lon="12.7224683"><ele>255.0</ele><time>2026-04-12T09:37:43.43Z</time></trkpt><trkpt lat="42.9420317" lon="12.7224667"><ele>255.0</ele><time>2026-04-12T09:37:44.433Z</time></trkpt><trkpt lat="42.94178" lon="12.722465"><ele>255.0</ele><time>2026-04-12T09:37:45.453Z</time></trkpt><trkpt lat="42.9415283" lon="12.7224633"><ele>255.5</ele><time>2026-04-12T09:37:46.424Z</time></trkpt><trkpt lat="42.941275" lon="12.7224617"><ele>256.0</ele><time>2026-04-12T09:37:47.437Z</time></trkpt><trkpt lat="42.9410217" lon="12.72246"><ele>254.0</ele><time>2026-04-12T09:37:48.437Z</time></trkpt><trkpt lat="42.9407667" lon="12.722455"><ele>252.0</ele><time>2026-04-12T09:37:49.434Z</time></trkpt><trkpt lat="42.9405117" lon="12.7224517"><ele>252.0</ele><time>2026-04-12T09:37:50.435Z</time></trkpt><trkpt lat="42.94026" lon="12.72245"><ele>252.0</ele><time>2026-04-12T09:37:51.439Z</time></trkpt><trkpt lat="42.94001" lon="12.7224533"><ele>251.0</ele><time>2026-04-12T09:37:52.432Z</time></trkpt><trkpt lat="42.9397583" lon="12.7224583"><ele>250.0</ele><time>2026-04-12T09:37:53.432Z</time></trkpt><trkpt lat="42.9395083" lon="12.72247"><ele>250.0</ele><time>2026-04-12T09:37:54.437Z</time></trkpt><trkpt lat="42.9392533" lon="12.7225"><ele>250.0</ele><time>2026-04-12T09:37:55.436Z</time></trkpt><trkpt lat="42.9390017" lon="12.722545"><ele>249.0</ele><time>2026-04-12T09:37:56.449Z</time></trkpt><trkpt lat="42.9387483" lon="12.7226033"><ele>248.0</ele><time>2026-04-12T09:37:57.438Z</time></trkpt><trkpt lat="42.938495" lon="12.72267"><ele>248.0</ele><time>2026-04-12T09:37:58.434Z</time></trkpt><trkpt lat="42.9382467" lon="12.7227517"><ele>248.0</ele><time>2026-04-12T09:37:59.431Z</time></trkpt><trkpt lat="42.938" lon="12.7228467"><ele>248.0</ele><time>2026-04-12T09:38:00.439Z</time></trkpt><trkpt lat="42.937755" lon="12.722955"><ele>248.0</ele><time>2026-04-12T09:38:01.439Z</time></trkpt><trkpt lat="42.9375133" lon="12.72307"><ele>249.5</ele><time>2026-04-12T09:38:02.436Z</time></trkpt><trkpt lat="42.937275" lon="12.7231967"><ele>251.0</ele><time>2026-04-12T09:38:03.45Z</time></trkpt><trkpt lat="42.9370417" lon="12.7233367"><ele>251.0</ele><time>2026-04-12T09:38:04.437Z</time></trkpt><trkpt lat="42.9368117" lon="12.7234883"><ele>251.0</ele><time>2026-04-12T09:38:05.444Z</time></trkpt><trkpt lat="42.936585" lon="12.723655"><ele>252.0</ele><time>2026-04-12T09:38:06.44Z</time></trkpt><trkpt lat="42.9363617" lon="12.72383"><ele>253.0</ele><time>2026-04-12T09:38:07.439Z</time></trkpt><trkpt lat="42.9361433" lon="12.72401"><ele>253.0</ele><time>2026-04-12T09:38:08.442Z</time></trkpt><trkpt lat="42.9359233" lon="12.7241867"><ele>253.0</ele><time>2026-04-12T09:38:09.434Z</time></trkpt><trkpt lat="42.9357033" lon="12.7243633"><ele>255.5</ele><time>2026-04-12T09:38:10.437Z</time></trkpt><trkpt lat="42.9354817" lon="12.7245433"><ele>258.0</ele><time>2026-04-12T09:38:11.428Z</time></trkpt><trkpt lat="42.9352583" lon="12.72473"><ele>253.5</ele><time>2026-04-12T09:38:12.44Z</time></trkpt><trkpt lat="42.9350367" lon="12.7249183"><ele>249.0</ele><time>2026-04-12T09:38:13.448Z</time></trkpt><trkpt lat="42.9348167" lon="12.725105"><ele>255.5</ele><time>2026-04-12T09:38:14.433Z</time></trkpt><trkpt lat="42.934595" lon="12.7252917"><ele>262.0</ele><time>2026-04-12T09:38:15.432Z</time></trkpt><trkpt lat="42.9343717" lon="12.7254783"><ele>254.0</ele><time>2026-04-12T09:38:16.435Z</time></trkpt><trkpt lat="42.9341467" lon="12.7256617"><ele>246.0</ele><time>2026-04-12T09:38:17.433Z</time></trkpt><trkpt lat="42.9339217" lon="12.725845"><ele>246.0</ele><time>2026-04-12T09:38:18.434Z</time></trkpt><trkpt lat="42.9336983" lon="12.7260283"><ele>246.0</ele><time>2026-04-12T09:38:19.437Z</time></trkpt><trkpt lat="42.933475" lon="12.7262117"><ele>243.0</ele><time>2026-04-12T09:38:20.44Z</time></trkpt><trkpt lat="42.9332533" lon="12.7263917"><ele>240.0</ele><time>2026-04-12T09:38:21.43Z</time></trkpt><trkpt lat="42.9330317" lon="12.7265717"><ele>240.0</ele><time>2026-04-12T09:38:22.437Z</time></trkpt><trkpt lat="42.9328083" lon="12.7267533"><ele>240.0</ele><time>2026-04-12T09:38:23.443Z</time></trkpt><trkpt lat="42.9325867" lon="12.726935"><ele>240.5</ele><time>2026-04-12T09:38:24.441Z</time></trkpt><trkpt lat="42.932365" lon="12.7271133"><ele>241.0</ele><time>2026-04-12T09:38:25.425Z</time></trkpt><trkpt lat="42.9321433" lon="12.7272883"><ele>241.0</ele><time>2026-04-12T09:38:26.442Z</time></trkpt><trkpt lat="42.9319167" lon="12.7274583"><ele>241.0</ele><time>2026-04-12T09:38:27.435Z</time></trkpt><trkpt lat="42.9316833" lon="12.7276117"><ele>241.5</ele><time>2026-04-12T09:38:28.439Z</time></trkpt><trkpt lat="42.931445" lon="12.7277533"><ele>242.0</ele><time>2026-04-12T09:38:29.438Z</time></trkpt><trkpt lat="42.931205" lon="12.7278833"><ele>242.0</ele><time>2026-04-12T09:38:30.442Z</time></trkpt><trkpt lat="42.9309617" lon="12.7280017"><ele>242.0</ele><time>2026-04-12T09:38:31.441Z</time></trkpt><trkpt lat="42.9307183" lon="12.728105"><ele>241.0</ele><time>2026-04-12T09:38:32.441Z</time></trkpt><trkpt lat="42.9304717" lon="12.7281967"><ele>240.0</ele><time>2026-04-12T09:38:33.44Z</time></trkpt><trkpt lat="42.9302217" lon="12.7282767"><ele>238.5</ele><time>2026-04-12T09:38:34.438Z</time></trkpt><trkpt lat="42.92997" lon="12.7283417"><ele>237.0</ele><time>2026-04-12T09:38:35.435Z</time></trkpt><trkpt lat="42.92972" lon="12.72839"><ele>237.0</ele><time>2026-04-12T09:38:36.439Z</time></trkpt><trkpt lat="42.9294633" lon="12.72843"><ele>237.0</ele><time>2026-04-12T09:38:37.438Z</time></trkpt><trkpt lat="42.929205" lon="12.7284667"><ele>235.5</ele><time>2026-04-12T09:38:38.435Z</time></trkpt><trkpt lat="42.9289483" lon="12.728485"><ele>234.0</ele><time>2026-04-12T09:38:39.43Z</time></trkpt><trkpt lat="42.928695" lon="12.72849"><ele>234.0</ele><time>2026-04-12T09:38:40.44Z</time></trkpt><trkpt lat="42.92844" lon="12.72848"><ele>234.0</ele><time>2026-04-12T09:38:41.438Z</time></trkpt><trkpt lat="42.928185" lon="12.7284617"><ele>233.5</ele><time>2026-04-12T09:38:42.443Z</time></trkpt><trkpt lat="42.9279317" lon="12.72843"><ele>233.0</ele><time>2026-04-12T09:38:43.441Z</time></trkpt><trkpt lat="42.92768" lon="12.728385"><ele>232.5</ele><time>2026-04-12T09:38:44.442Z</time></trkpt><trkpt lat="42.9274233" lon="12.72834"><ele>232.0</ele><time>2026-04-12T09:38:45.434Z</time></trkpt><trkpt lat="42.9271667" lon="12.7282967"><ele>232.0</ele><time>2026-04-12T09:38:46.437Z</time></trkpt><trkpt lat="42.92691" lon="12.7282517"><ele>232.0</ele><time>2026-04-12T09:38:47.435Z</time></trkpt><trkpt lat="42.9266533" lon="12.72821"><ele>232.0</ele><time>2026-04-12T09:38:48.445Z</time></trkpt><trkpt lat="42.9263983" lon="12.728165"><ele>232.0</ele><time>2026-04-12T09:38:49.44Z</time></trkpt><trkpt lat="42.92614" lon="12.72812"><ele>231.0</ele><time>2026-04-12T09:38:50.437Z</time></trkpt><trkpt lat="42.9258817" lon="12.728075"><ele>230.0</ele><time>2026-04-12T09:38:51.432Z</time></trkpt><trkpt lat="42.9256233" lon="12.7280267"><ele>230.0</ele><time>2026-04-12T09:38:52.423Z</time></trkpt><trkpt lat="42.9253633" lon="12.7279833"><ele>230.0</ele><time>2026-04-12T09:38:53.434Z</time></trkpt><trkpt lat="42.9251033" lon="12.72794"><ele>230.0</ele><time>2026-04-12T09:38:54.439Z</time></trkpt><trkpt lat="42.924845" lon="12.727895"><ele>230.0</ele><time>2026-04-12T09:38:55.44Z</time></trkpt><trkpt lat="42.9245867" lon="12.72785"><ele>230.0</ele><time>2026-04-12T09:38:56.438Z</time></trkpt><trkpt lat="42.92433" lon="12.7278017"><ele>230.0</ele><time>2026-04-12T09:38:57.43Z</time></trkpt><trkpt lat="42.9240717" lon="12.7277533"><ele>229.0</ele><time>2026-04-12T09:38:58.432Z</time></trkpt><trkpt lat="42.923815" lon="12.7277033"><ele>228.0</ele><time>2026-04-12T09:38:59.448Z</time></trkpt><trkpt lat="42.9235567" lon="12.727655"><ele>227.5</ele><time>2026-04-12T09:39:00.441Z</time></trkpt><trkpt lat="42.9232983" lon="12.7276083"><ele>227.0</ele><time>2026-04-12T09:39:01.437Z</time></trkpt><trkpt lat="42.92304" lon="12.7275667"><ele>227.0</ele><time>2026-04-12T09:39:02.437Z</time></trkpt><trkpt lat="42.92278" lon="12.727525"><ele>227.0</ele><time>2026-04-12T09:39:03.435Z</time></trkpt><trkpt lat="42.9225217" lon="12.727485"><ele>226.5</ele><time>2026-04-12T09:39:04.438Z</time></trkpt><trkpt lat="42.922265" lon="12.7274517"><ele>226.0</ele><time>2026-04-12T09:39:05.439Z</time></trkpt><trkpt lat="42.9220033" lon="12.727425"><ele>226.0</ele><time>2026-04-12T09:39:06.437Z</time></trkpt><trkpt lat="42.9217417" lon="12.7274067"><ele>226.0</ele><time>2026-04-12T09:39:07.439Z</time></trkpt><trkpt lat="42.9214783" lon="12.7274"><ele>225.0</ele><time>2026-04-12T09:39:08.434Z</time></trkpt><trkpt lat="42.9212133" lon="12.727405"><ele>224.0</ele><time>2026-04-12T09:39:09.44Z</time></trkpt><trkpt lat="42.9209467" lon="12.7274183"><ele>224.0</ele><time>2026-04-12T09:39:10.439Z</time></trkpt><trkpt lat="42.92068" lon="12.7274433"><ele>224.0</ele><time>2026-04-12T09:39:11.448Z</time></trkpt><trkpt lat="42.920415" lon="12.7274783"><ele>224.0</ele><time>2026-04-12T09:39:12.436Z</time></trkpt><trkpt lat="42.9201467" lon="12.7275217"><ele>224.0</ele><time>2026-04-12T09:39:13.439Z</time></trkpt><trkpt lat="42.91988" lon="12.7275683"><ele>223.5</ele><time>2026-04-12T09:39:14.437Z</time></trkpt><trkpt lat="42.919615" lon="12.72762"><ele>223.0</ele><time>2026-04-12T09:39:15.44Z</time></trkpt><trkpt lat="42.919355" lon="12.727675"><ele>222.5</ele><time>2026-04-12T09:39:16.439Z</time></trkpt><trkpt lat="42.919095" lon="12.72773"><ele>222.0</ele><time>2026-04-12T09:39:17.433Z</time></trkpt><trkpt lat="42.918835" lon="12.7277817"><ele>222.0</ele><time>2026-04-12T09:39:18.438Z</time></trkpt><trkpt lat="42.9185767" lon="12.7278317"><ele>222.0</ele><time>2026-04-12T09:39:19.438Z</time></trkpt><trkpt lat="42.91832" lon="12.72788"><ele>223.0</ele><time>2026-04-12T09:39:20.437Z</time></trkpt><trkpt lat="42.9180617" lon="12.72793"><ele>224.0</ele><time>2026-04-12T09:39:21.441Z</time></trkpt><trkpt lat="42.9178017" lon="12.7279783"><ele>223.0</ele><time>2026-04-12T09:39:22.438Z</time></trkpt><trkpt lat="42.9175367" lon="12.72803"><ele>222.0</ele><time>2026-04-12T09:39:23.44Z</time></trkpt><trkpt lat="42.9172717" lon="12.7280833"><ele>222.0</ele><time>2026-04-12T09:39:24.439Z</time></trkpt><trkpt lat="42.9170083" lon="12.7281367"><ele>222.0</ele><time>2026-04-12T09:39:25.435Z</time></trkpt><trkpt lat="42.9167467" lon="12.72819"><ele>222.5</ele><time>2026-04-12T09:39:26.434Z</time></trkpt><trkpt lat="42.9164833" lon="12.728245"><ele>223.0</ele><time>2026-04-12T09:39:27.439Z</time></trkpt><trkpt lat="42.91622" lon="12.7283"><ele>223.0</ele><time>2026-04-12T09:39:28.436Z</time></trkpt><trkpt lat="42.9159567" lon="12.7283517"><ele>223.0</ele><time>2026-04-12T09:39:29.439Z</time></trkpt><trkpt lat="42.9156933" lon="12.7284017"><ele>223.0</ele><time>2026-04-12T09:39:30.441Z</time></trkpt><trkpt lat="42.91543" lon="12.728445"><ele>223.0</ele><time>2026-04-12T09:39:31.434Z</time></trkpt><trkpt lat="42.9151667" lon="12.7284717"><ele>222.5</ele><time>2026-04-12T09:39:32.446Z</time></trkpt><trkpt lat="42.9149033" lon="12.7284783"><ele>222.0</ele><time>2026-04-12T09:39:33.433Z</time></trkpt><trkpt lat="42.9146333" lon="12.7284717"><ele>222.0</ele><time>2026-04-12T09:39:34.433Z</time></trkpt><trkpt lat="42.9143683" lon="12.7284483"><ele>222.0</ele><time>2026-04-12T09:39:35.442Z</time></trkpt><trkpt lat="42.914105" lon="12.7284083"><ele>221.5</ele><time>2026-04-12T09:39:36.44Z</time></trkpt><trkpt lat="42.913845" lon="12.7283483"><ele>221.0</ele><time>2026-04-12T09:39:37.442Z</time></trkpt><trkpt lat="42.9135883" lon="12.7282717"><ele>222.0</ele><time>2026-04-12T09:39:38.44Z</time></trkpt><trkpt lat="42.91333" lon="12.72818"><ele>223.0</ele><time>2026-04-12T09:39:39.44Z</time></trkpt><trkpt lat="42.9130767" lon="12.7280733"><ele>223.0</ele><time>2026-04-12T09:39:40.441Z</time></trkpt><trkpt lat="42.912825" lon="12.7279483"><ele>223.0</ele><time>2026-04-12T09:39:41.443Z</time></trkpt><trkpt lat="42.9125767" lon="12.7278067"><ele>220.0</ele><time>2026-04-12T09:39:42.439Z</time></trkpt><trkpt lat="42.9123333" lon="12.7276483"><ele>217.0</ele><time>2026-04-12T09:39:43.437Z</time></trkpt><trkpt lat="42.9120967" lon="12.7274783"><ele>217.0</ele><time>2026-04-12T09:39:44.455Z</time></trkpt><trkpt lat="42.9118667" lon="12.7272917"><ele>217.0</ele><time>2026-04-12T09:39:45.444Z</time></trkpt><trkpt lat="42.9116383" lon="12.727095"><ele>214.5</ele><time>2026-04-12T09:39:46.435Z</time></trkpt><trkpt lat="42.911415" lon="12.7268883"><ele>212.0</ele><time>2026-04-12T09:39:47.435Z</time></trkpt><trkpt lat="42.9111917" lon="12.7266767"><ele>212.0</ele><time>2026-04-12T09:39:48.432Z</time></trkpt><trkpt lat="42.910975" lon="12.7264617"><ele>212.0</ele><time>2026-04-12T09:39:49.443Z</time></trkpt><trkpt lat="42.910755" lon="12.7262483"><ele>212.5</ele><time>2026-04-12T09:39:50.437Z</time></trkpt><trkpt lat="42.9105333" lon="12.7260367"><ele>213.0</ele><time>2026-04-12T09:39:51.44Z</time></trkpt><trkpt lat="42.910315" lon="12.7258233"><ele>213.0</ele><time>2026-04-12T09:39:52.438Z</time></trkpt><trkpt lat="42.9100983" lon="12.7256117"><ele>213.0</ele><time>2026-04-12T09:39:53.444Z</time></trkpt><trkpt lat="42.9098833" lon="12.7254"><ele>213.0</ele><time>2026-04-12T09:39:54.436Z</time></trkpt><trkpt lat="42.909665" lon="12.7251883"><ele>213.0</ele><time>2026-04-12T09:39:55.426Z</time></trkpt><trkpt lat="42.9094467" lon="12.7249783"><ele>213.0</ele><time>2026-04-12T09:39:56.438Z</time></trkpt><trkpt lat="42.9092283" lon="12.72477"><ele>213.0</ele><time>2026-04-12T09:39:57.435Z</time></trkpt><trkpt lat="42.9090133" lon="12.72456"><ele>212.5</ele><time>2026-04-12T09:39:58.441Z</time></trkpt><trkpt lat="42.9087983" lon="12.7243517"><ele>212.0</ele><time>2026-04-12T09:39:59.444Z</time></trkpt><trkpt lat="42.9085883" lon="12.7241433"><ele>211.0</ele><time>2026-04-12T09:40:00.426Z</time></trkpt><trkpt lat="42.9083817" lon="12.7239367"><ele>210.0</ele><time>2026-04-12T09:40:01.43Z</time></trkpt><trkpt lat="42.9081783" lon="12.7237383"><ele>208.0</ele><time>2026-04-12T09:40:02.438Z</time></trkpt><trkpt lat="42.907985" lon="12.72355"><ele>206.0</ele><time>2026-04-12T09:40:03.441Z</time></trkpt><trkpt lat="42.9077967" lon="12.72337"><ele>206.0</ele><time>2026-04-12T09:40:04.438Z</time></trkpt><trkpt lat="42.9076033" lon="12.7231867"><ele>206.0</ele><time>2026-04-12T09:40:05.435Z</time></trkpt><trkpt lat="42.907405" lon="12.723"><ele>206.5</ele><time>2026-04-12T09:40:06.437Z</time></trkpt><trkpt lat="42.9072017" lon="12.7228133"><ele>207.0</ele><time>2026-04-12T09:40:07.438Z</time></trkpt><trkpt lat="42.9069917" lon="12.722635"><ele>207.0</ele><time>2026-04-12T09:40:08.442Z</time></trkpt><trkpt lat="42.90677" lon="12.722465"><ele>207.0</ele><time>2026-04-12T09:40:09.439Z</time></trkpt><trkpt lat="42.9065417" lon="12.7222933"><ele>207.0</ele><time>2026-04-12T09:40:10.437Z</time></trkpt><trkpt lat="42.9063133" lon="12.7221217"><ele>207.0</ele><time>2026-04-12T09:40:11.438Z</time></trkpt><trkpt lat="42.9060817" lon="12.7219567"><ele>207.5</ele><time>2026-04-12T09:40:12.431Z</time></trkpt><trkpt lat="42.905845" lon="12.7217967"><ele>208.0</ele><time>2026-04-12T09:40:13.441Z</time></trkpt><trkpt lat="42.9056067" lon="12.7216467"><ele>208.0</ele><time>2026-04-12T09:40:14.441Z</time></trkpt><trkpt lat="42.9053633" lon="12.7215033"><ele>208.0</ele><time>2026-04-12T09:40:15.438Z</time></trkpt><trkpt lat="42.905115" lon="12.721375"><ele>208.0</ele><time>2026-04-12T09:40:16.435Z</time></trkpt><trkpt lat="42.9048617" lon="12.7212567"><ele>208.0</ele><time>2026-04-12T09:40:17.438Z</time></trkpt><trkpt lat="42.9046067" lon="12.7211433"><ele>207.5</ele><time>2026-04-12T09:40:18.438Z</time></trkpt><trkpt lat="42.904345" lon="12.7210417"><ele>207.0</ele><time>2026-04-12T09:40:19.438Z</time></trkpt><trkpt lat="42.9040833" lon="12.7209517"><ele>207.0</ele><time>2026-04-12T09:40:20.445Z</time></trkpt><trkpt lat="42.9038183" lon="12.7208717"><ele>207.0</ele><time>2026-04-12T09:40:21.435Z</time></trkpt><trkpt lat="42.90355" lon="12.720805"><ele>206.5</ele><time>2026-04-12T09:40:22.442Z</time></trkpt><trkpt lat="42.9032783" lon="12.7207533"><ele>206.0</ele><time>2026-04-12T09:40:23.433Z</time></trkpt><trkpt lat="42.90301" lon="12.720715"><ele>206.0</ele><time>2026-04-12T09:40:24.44Z</time></trkpt><trkpt lat="42.9027417" lon="12.7206833"><ele>206.0</ele><time>2026-04-12T09:40:25.439Z</time></trkpt><trkpt lat="42.90247" lon="12.72066"><ele>206.5</ele><time>2026-04-12T09:40:26.445Z</time></trkpt><trkpt lat="42.9021983" lon="12.7206367"><ele>207.0</ele><time>2026-04-12T09:40:27.441Z</time></trkpt><trkpt lat="42.9019283" lon="12.7206167"><ele>207.5</ele><time>2026-04-12T09:40:28.439Z</time></trkpt><trkpt lat="42.9016583" lon="12.7206033"><ele>208.0</ele><time>2026-04-12T09:40:29.432Z</time></trkpt><trkpt lat="42.9013883" lon="12.7205933"><ele>208.0</ele><time>2026-04-12T09:40:30.432Z</time></trkpt><trkpt lat="42.9011183" lon="12.7205867"><ele>208.0</ele><time>2026-04-12T09:40:31.443Z</time></trkpt><trkpt lat="42.9008483" lon="12.720585"><ele>207.5</ele><time>2026-04-12T09:40:32.433Z</time></trkpt><trkpt lat="42.90058" lon="12.7205867"><ele>207.0</ele><time>2026-04-12T09:40:33.432Z</time></trkpt><trkpt lat="42.9003083" lon="12.7205917"><ele>207.0</ele><time>2026-04-12T09:40:34.435Z</time></trkpt><trkpt lat="42.9000367" lon="12.7206017"><ele>207.0</ele><time>2026-04-12T09:40:35.434Z</time></trkpt><trkpt lat="42.8997683" lon="12.7206117"><ele>207.0</ele><time>2026-04-12T09:40:36.434Z</time></trkpt><trkpt lat="42.8994967" lon="12.7206283"><ele>207.0</ele><time>2026-04-12T09:40:37.433Z</time></trkpt><trkpt lat="42.8992283" lon="12.7206433"><ele>206.5</ele><time>2026-04-12T09:40:38.44Z</time></trkpt><trkpt lat="42.8989583" lon="12.720665"><ele>206.0</ele><time>2026-04-12T09:40:39.425Z</time></trkpt><trkpt lat="42.89869" lon="12.72069"><ele>206.0</ele><time>2026-04-12T09:40:40.442Z</time></trkpt><trkpt lat="42.8984217" lon="12.7207183"><ele>206.0</ele><time>2026-04-12T09:40:41.432Z</time></trkpt><trkpt lat="42.898155" lon="12.7207567"><ele>204.5</ele><time>2026-04-12T09:40:42.443Z</time></trkpt><trkpt lat="42.897885" lon="12.7207983"><ele>203.0</ele><time>2026-04-12T09:40:43.435Z</time></trkpt><trkpt lat="42.8976167" lon="12.7208417"><ele>205.0</ele><time>2026-04-12T09:40:44.442Z</time></trkpt><trkpt lat="42.8973483" lon="12.7208867"><ele>207.0</ele><time>2026-04-12T09:40:45.443Z</time></trkpt><trkpt lat="42.8970783" lon="12.720935"><ele>207.0</ele><time>2026-04-12T09:40:46.436Z</time></trkpt><trkpt lat="42.89681" lon="12.720985"><ele>207.0</ele><time>2026-04-12T09:40:47.442Z</time></trkpt><trkpt lat="42.8965433" lon="12.7210383"><ele>206.5</ele><time>2026-04-12T09:40:48.44Z</time></trkpt><trkpt lat="42.89628" lon="12.7210933"><ele>206.0</ele><time>2026-04-12T09:40:49.43Z</time></trkpt><trkpt lat="42.896015" lon="12.721155"><ele>206.5</ele><time>2026-04-12T09:40:50.442Z</time></trkpt><trkpt lat="42.8957533" lon="12.72122"><ele>207.0</ele><time>2026-04-12T09:40:51.434Z</time></trkpt><trkpt lat="42.89549" lon="12.7212867"><ele>207.0</ele><time>2026-04-12T09:40:52.438Z</time></trkpt><trkpt lat="42.895225" lon="12.7213583"><ele>207.0</ele><time>2026-04-12T09:40:53.439Z</time></trkpt><trkpt lat="42.89496" lon="12.7214367"><ele>207.0</ele><time>2026-04-12T09:40:54.433Z</time></trkpt><trkpt lat="42.8946967" lon="12.721515"><ele>207.0</ele><time>2026-04-12T09:40:55.45Z</time></trkpt><trkpt lat="42.89443" lon="12.7216"><ele>206.5</ele><time>2026-04-12T09:40:56.441Z</time></trkpt><trkpt lat="42.894165" lon="12.7216817"><ele>206.0</ele><time>2026-04-12T09:40:57.436Z</time></trkpt><trkpt lat="42.8939017" lon="12.7217667"><ele>206.0</ele><time>2026-04-12T09:40:58.433Z</time></trkpt><trkpt lat="42.89364" lon="12.7218567"><ele>206.0</ele><time>2026-04-12T09:40:59.436Z</time></trkpt><trkpt lat="42.8933783" lon="12.7219517"><ele>207.5</ele><time>2026-04-12T09:41:00.429Z</time></trkpt><trkpt lat="42.8931167" lon="12.72205"><ele>209.0</ele><time>2026-04-12T09:41:01.44Z</time></trkpt><trkpt lat="42.8928567" lon="12.7221533"><ele>209.0</ele><time>2026-04-12T09:41:02.438Z</time></trkpt><trkpt lat="42.8925983" lon="12.72226"><ele>209.0</ele><time>2026-04-12T09:41:03.445Z</time></trkpt><trkpt lat="42.89234" lon="12.7223717"><ele>207.0</ele><time>2026-04-12T09:41:04.431Z</time></trkpt><trkpt lat="42.8920833" lon="12.7224817"><ele>205.0</ele><time>2026-04-12T09:41:05.445Z</time></trkpt><trkpt lat="42.8918283" lon="12.722595"><ele>205.5</ele><time>2026-04-12T09:41:06.438Z</time></trkpt><trkpt lat="42.8915733" lon="12.7227133"><ele>206.0</ele><time>2026-04-12T09:41:07.445Z</time></trkpt><trkpt lat="42.8913217" lon="12.7228333"><ele>206.0</ele><time>2026-04-12T09:41:08.443Z</time></trkpt><trkpt lat="42.8910733" lon="12.722955"><ele>206.0</ele><time>2026-04-12T09:41:09.439Z</time></trkpt><trkpt lat="42.8908233" lon="12.7230817"><ele>205.0</ele><time>2026-04-12T09:41:10.441Z</time></trkpt><trkpt lat="42.8905767" lon="12.723215"><ele>204.0</ele><time>2026-04-12T09:41:11.444Z</time></trkpt><trkpt lat="42.8903283" lon="12.7233533"><ele>205.0</ele><time>2026-04-12T09:41:12.435Z</time></trkpt><trkpt lat="42.8900817" lon="12.7234983"><ele>206.0</ele><time>2026-04-12T09:41:13.438Z</time></trkpt><trkpt lat="42.889835" lon="12.7236483"><ele>206.5</ele><time>2026-04-12T09:41:14.435Z</time></trkpt><trkpt lat="42.8895883" lon="12.7238017"><ele>207.0</ele><time>2026-04-12T09:41:15.438Z</time></trkpt><trkpt lat="42.8893383" lon="12.723955"><ele>206.5</ele><time>2026-04-12T09:41:16.432Z</time></trkpt><trkpt lat="42.88909" lon="12.7241017"><ele>206.0</ele><time>2026-04-12T09:41:17.439Z</time></trkpt><trkpt lat="42.8888383" lon="12.7242433"><ele>206.0</ele><time>2026-04-12T09:41:18.438Z</time></trkpt><trkpt lat="42.8885867" lon="12.7243817"><ele>206.0</ele><time>2026-04-12T09:41:19.445Z</time></trkpt><trkpt lat="42.8883267" lon="12.7245267"><ele>206.5</ele><time>2026-04-12T09:41:20.443Z</time></trkpt><trkpt lat="42.8880733" lon="12.7246683"><ele>207.0</ele><time>2026-04-12T09:41:21.429Z</time></trkpt><trkpt lat="42.8878267" lon="12.7248117"><ele>208.0</ele><time>2026-04-12T09:41:22.43Z</time></trkpt><trkpt lat="42.8875783" lon="12.7249567"><ele>209.0</ele><time>2026-04-12T09:41:23.432Z</time></trkpt><trkpt lat="42.8873283" lon="12.725095"><ele>209.0</ele><time>2026-04-12T09:41:24.424Z</time></trkpt><trkpt lat="42.8870833" lon="12.72524"><ele>209.0</ele><time>2026-04-12T09:41:25.428Z</time></trkpt><trkpt lat="42.8868383" lon="12.7253883"><ele>208.0</ele><time>2026-04-12T09:41:26.429Z</time></trkpt><trkpt lat="42.886595" lon="12.7255333"><ele>207.0</ele><time>2026-04-12T09:41:27.434Z</time></trkpt><trkpt lat="42.88635" lon="12.7256817"><ele>207.0</ele><time>2026-04-12T09:41:28.436Z</time></trkpt><trkpt lat="42.8861083" lon="12.7258267"><ele>207.0</ele><time>2026-04-12T09:41:29.431Z</time></trkpt><trkpt lat="42.885865" lon="12.7259717"><ele>207.0</ele><time>2026-04-12T09:41:30.441Z</time></trkpt><trkpt lat="42.8856217" lon="12.7261183"><ele>207.0</ele><time>2026-04-12T09:41:31.436Z</time></trkpt><trkpt lat="42.8853767" lon="12.7262633"><ele>207.0</ele><time>2026-04-12T09:41:32.441Z</time></trkpt><trkpt lat="42.8851317" lon="12.7264117"><ele>207.0</ele><time>2026-04-12T09:41:33.44Z</time></trkpt><trkpt lat="42.8848867" lon="12.7265583"><ele>207.0</ele><time>2026-04-12T09:41:34.438Z</time></trkpt><trkpt lat="42.8846417" lon="12.7267067"><ele>207.0</ele><time>2026-04-12T09:41:35.432Z</time></trkpt><trkpt lat="42.884395" lon="12.7268517"><ele>208.0</ele><time>2026-04-12T09:41:36.435Z</time></trkpt><trkpt lat="42.88415" lon="12.726995"><ele>209.0</ele><time>2026-04-12T09:41:37.433Z</time></trkpt><trkpt lat="42.883905" lon="12.7271383"><ele>209.0</ele><time>2026-04-12T09:41:38.444Z</time></trkpt><trkpt lat="42.8836583" lon="12.7272817"><ele>209.0</ele><time>2026-04-12T09:41:39.437Z</time></trkpt><trkpt lat="42.8834117" lon="12.7274267"><ele>209.0</ele><time>2026-04-12T09:41:40.442Z</time></trkpt><trkpt lat="42.8831667" lon="12.727575"><ele>209.0</ele><time>2026-04-12T09:41:41.433Z</time></trkpt><trkpt lat="42.88292" lon="12.7277233"><ele>208.5</ele><time>2026-04-12T09:41:42.441Z</time></trkpt><trkpt lat="42.8826767" lon="12.72787"><ele>208.0</ele><time>2026-04-12T09:41:43.428Z</time></trkpt><trkpt lat="42.8824333" lon="12.7280183"><ele>209.0</ele><time>2026-04-12T09:41:44.425Z</time></trkpt><trkpt lat="42.8821883" lon="12.7281683"><ele>210.0</ele><time>2026-04-12T09:41:45.44Z</time></trkpt><trkpt lat="42.881945" lon="12.7283167"><ele>209.5</ele><time>2026-04-12T09:41:46.43Z</time></trkpt><trkpt lat="42.8817" lon="12.728465"><ele>209.0</ele><time>2026-04-12T09:41:47.434Z</time></trkpt><trkpt lat="42.881455" lon="12.7286133"><ele>209.0</ele><time>2026-04-12T09:41:48.447Z</time></trkpt><trkpt lat="42.8812083" lon="12.72876"><ele>209.0</ele><time>2026-04-12T09:41:49.438Z</time></trkpt><trkpt lat="42.8809633" lon="12.7289067"><ele>208.0</ele><time>2026-04-12T09:41:50.444Z</time></trkpt><trkpt lat="42.880715" lon="12.729055"><ele>207.0</ele><time>2026-04-12T09:41:51.431Z</time></trkpt><trkpt lat="42.880465" lon="12.7292033"><ele>207.0</ele><time>2026-04-12T09:41:52.442Z</time></trkpt><trkpt lat="42.8802167" lon="12.729355"><ele>207.0</ele><time>2026-04-12T09:41:53.435Z</time></trkpt><trkpt lat="42.879965" lon="12.7295033"><ele>207.5</ele><time>2026-04-12T09:41:54.423Z</time></trkpt><trkpt lat="42.879715" lon="12.7296533"><ele>208.0</ele><time>2026-04-12T09:41:55.436Z</time></trkpt><trkpt lat="42.8794633" lon="12.7297933"><ele>208.0</ele><time>2026-04-12T09:41:56.444Z</time></trkpt><trkpt lat="42.8792117" lon="12.729925"><ele>208.0</ele><time>2026-04-12T09:41:57.438Z</time></trkpt><trkpt lat="42.878955" lon="12.7300433"><ele>208.0</ele><time>2026-04-12T09:41:58.439Z</time></trkpt><trkpt lat="42.878695" lon="12.73015"><ele>208.0</ele><time>2026-04-12T09:41:59.437Z</time></trkpt><trkpt lat="42.8784333" lon="12.7302433"><ele>208.0</ele><time>2026-04-12T09:42:00.434Z</time></trkpt><trkpt lat="42.87817" lon="12.7303183"><ele>208.0</ele><time>2026-04-12T09:42:01.435Z</time></trkpt><trkpt lat="42.877905" lon="12.7303767"><ele>208.0</ele><time>2026-04-12T09:42:02.432Z</time></trkpt><trkpt lat="42.8776383" lon="12.7304167"><ele>208.0</ele><time>2026-04-12T09:42:03.443Z</time></trkpt><trkpt lat="42.8773683" lon="12.7304383"><ele>208.0</ele><time>2026-04-12T09:42:04.431Z</time></trkpt><trkpt lat="42.8770967" lon="12.7304483"><ele>208.0</ele><time>2026-04-12T09:42:05.436Z</time></trkpt><trkpt lat="42.8768267" lon="12.730445"><ele>208.0</ele><time>2026-04-12T09:42:06.447Z</time></trkpt><trkpt lat="42.8765567" lon="12.7304283"><ele>208.0</ele><time>2026-04-12T09:42:07.443Z</time></trkpt><trkpt lat="42.8762883" lon="12.7304033"><ele>208.0</ele><time>2026-04-12T09:42:08.433Z</time></trkpt><trkpt lat="42.8760183" lon="12.7303667"><ele>208.0</ele><time>2026-04-12T09:42:09.445Z</time></trkpt><trkpt lat="42.8757517" lon="12.7303133"><ele>208.5</ele><time>2026-04-12T09:42:10.443Z</time></trkpt><trkpt lat="42.8754933" lon="12.73024"><ele>209.0</ele><time>2026-04-12T09:42:11.44Z</time></trkpt><trkpt lat="42.8752433" lon="12.7301467"><ele>209.5</ele><time>2026-04-12T09:42:12.443Z</time></trkpt><trkpt lat="42.8749917" lon="12.730045"><ele>210.0</ele><time>2026-04-12T09:42:13.444Z</time></trkpt><trkpt lat="42.8747433" lon="12.729935"><ele>210.0</ele><time>2026-04-12T09:42:14.441Z</time></trkpt><trkpt lat="42.8745" lon="12.7298217"><ele>210.0</ele><time>2026-04-12T09:42:15.434Z</time></trkpt><trkpt lat="42.8742583" lon="12.7297083"><ele>211.0</ele><time>2026-04-12T09:42:16.428Z</time></trkpt><trkpt lat="42.8740167" lon="12.7295967"><ele>212.0</ele><time>2026-04-12T09:42:17.426Z</time></trkpt><trkpt lat="42.8737717" lon="12.7294867"><ele>212.0</ele><time>2026-04-12T09:42:18.426Z</time></trkpt><trkpt lat="42.8735233" lon="12.7293833"><ele>212.0</ele><time>2026-04-12T09:42:19.428Z</time></trkpt><trkpt lat="42.873275" lon="12.72929"><ele>212.0</ele><time>2026-04-12T09:42:20.433Z</time></trkpt><trkpt lat="42.87302" lon="12.72921"><ele>212.0</ele><time>2026-04-12T09:42:21.437Z</time></trkpt><trkpt lat="42.8727617" lon="12.7291417"><ele>212.0</ele><time>2026-04-12T09:42:22.432Z</time></trkpt><trkpt lat="42.8725033" lon="12.7290833"><ele>212.0</ele><time>2026-04-12T09:42:23.442Z</time></trkpt><trkpt lat="42.8722417" lon="12.7290467"><ele>212.0</ele><time>2026-04-12T09:42:24.44Z</time></trkpt><trkpt lat="42.8719767" lon="12.7290283"><ele>212.0</ele><time>2026-04-12T09:42:25.444Z</time></trkpt><trkpt lat="42.8717133" lon="12.7290233"><ele>211.5</ele><time>2026-04-12T09:42:26.439Z</time></trkpt><trkpt lat="42.8714517" lon="12.7290317"><ele>211.0</ele><time>2026-04-12T09:42:27.44Z</time></trkpt><trkpt lat="42.8711917" lon="12.7290533"><ele>212.0</ele><time>2026-04-12T09:42:28.43Z</time></trkpt><trkpt lat="42.87093" lon="12.7290867"><ele>213.0</ele><time>2026-04-12T09:42:29.432Z</time></trkpt><trkpt lat="42.8706733" lon="12.7291417"><ele>213.0</ele><time>2026-04-12T09:42:30.436Z</time></trkpt><trkpt lat="42.8704183" lon="12.72921"><ele>213.0</ele><time>2026-04-12T09:42:31.44Z</time></trkpt><trkpt lat="42.8701633" lon="12.7292933"><ele>211.5</ele><time>2026-04-12T09:42:32.44Z</time></trkpt><trkpt lat="42.8699083" lon="12.7293967"><ele>210.0</ele><time>2026-04-12T09:42:33.44Z</time></trkpt><trkpt lat="42.8696617" lon="12.7295133"><ele>210.0</ele><time>2026-04-12T09:42:34.43Z</time></trkpt><trkpt lat="42.8694183" lon="12.7296417"><ele>210.0</ele><time>2026-04-12T09:42:35.441Z</time></trkpt><trkpt lat="42.8691733" lon="12.729785"><ele>211.0</ele><time>2026-04-12T09:42:36.442Z</time></trkpt><trkpt lat="42.8689333" lon="12.72994"><ele>212.0</ele><time>2026-04-12T09:42:37.444Z</time></trkpt><trkpt lat="42.868695" lon="12.7301067"><ele>212.5</ele><time>2026-04-12T09:42:38.433Z</time></trkpt><trkpt lat="42.86846" lon="12.7302833"><ele>213.0</ele><time>2026-04-12T09:42:39.445Z</time></trkpt><trkpt lat="42.868225" lon="12.7304717"><ele>213.0</ele><time>2026-04-12T09:42:40.435Z</time></trkpt><trkpt lat="42.867995" lon="12.7306583"><ele>213.0</ele><time>2026-04-12T09:42:41.443Z</time></trkpt><trkpt lat="42.8677683" lon="12.730845"><ele>212.5</ele><time>2026-04-12T09:42:42.439Z</time></trkpt><trkpt lat="42.8675433" lon="12.7310333"><ele>212.0</ele><time>2026-04-12T09:42:43.446Z</time></trkpt><trkpt lat="42.8673167" lon="12.7312217"><ele>212.0</ele><time>2026-04-12T09:42:44.427Z</time></trkpt><trkpt lat="42.8670867" lon="12.731405"><ele>212.0</ele><time>2026-04-12T09:42:45.436Z</time></trkpt><trkpt lat="42.8668567" lon="12.73159"><ele>212.0</ele><time>2026-04-12T09:42:46.442Z</time></trkpt><trkpt lat="42.8666283" lon="12.7317767"><ele>212.0</ele><time>2026-04-12T09:42:47.443Z</time></trkpt><trkpt lat="42.8663983" lon="12.7319683"><ele>212.0</ele><time>2026-04-12T09:42:48.438Z</time></trkpt><trkpt lat="42.86617" lon="12.732165"><ele>212.0</ele><time>2026-04-12T09:42:49.437Z</time></trkpt><trkpt lat="42.8659467" lon="12.7323683"><ele>213.0</ele><time>2026-04-12T09:42:50.425Z</time></trkpt><trkpt lat="42.86573" lon="12.732585"><ele>214.0</ele><time>2026-04-12T09:42:51.441Z</time></trkpt><trkpt lat="42.86552" lon="12.7328117"><ele>214.0</ele><time>2026-04-12T09:42:52.433Z</time></trkpt><trkpt lat="42.865315" lon="12.7330483"><ele>214.0</ele><time>2026-04-12T09:42:53.436Z</time></trkpt><trkpt lat="42.8651133" lon="12.73329"><ele>214.5</ele><time>2026-04-12T09:42:54.435Z</time></trkpt><trkpt lat="42.864915" lon="12.733535"><ele>215.0</ele><time>2026-04-12T09:42:55.44Z</time></trkpt><trkpt lat="42.864715" lon="12.73378"><ele>214.0</ele><time>2026-04-12T09:42:56.438Z</time></trkpt><trkpt lat="42.864515" lon="12.7340267"><ele>213.0</ele><time>2026-04-12T09:42:57.439Z</time></trkpt><trkpt lat="42.864315" lon="12.7342717"><ele>213.0</ele><time>2026-04-12T09:42:58.437Z</time></trkpt><trkpt lat="42.8641117" lon="12.7345133"><ele>213.0</ele><time>2026-04-12T09:42:59.437Z</time></trkpt><trkpt lat="42.863905" lon="12.7347533"><ele>213.0</ele><time>2026-04-12T09:43:00.43Z</time></trkpt><trkpt lat="42.863695" lon="12.7349917"><ele>213.0</ele><time>2026-04-12T09:43:01.433Z</time></trkpt><trkpt lat="42.8634833" lon="12.7352233"><ele>212.5</ele><time>2026-04-12T09:43:02.442Z</time></trkpt><trkpt lat="42.863265" lon="12.7354467"><ele>212.0</ele><time>2026-04-12T09:43:03.436Z</time></trkpt><trkpt lat="42.8630467" lon="12.73566"><ele>212.0</ele><time>2026-04-12T09:43:04.433Z</time></trkpt><trkpt lat="42.8628217" lon="12.735865"><ele>212.0</ele><time>2026-04-12T09:43:05.432Z</time></trkpt><trkpt lat="42.8625933" lon="12.736065"><ele>214.0</ele><time>2026-04-12T09:43:06.444Z</time></trkpt><trkpt lat="42.8623633" lon="12.7362583"><ele>216.0</ele><time>2026-04-12T09:43:07.438Z</time></trkpt><trkpt lat="42.8621283" lon="12.736445"><ele>216.0</ele><time>2026-04-12T09:43:08.441Z</time></trkpt><trkpt lat="42.8618917" lon="12.736625"><ele>216.0</ele><time>2026-04-12T09:43:09.435Z</time></trkpt><trkpt lat="42.86165" lon="12.7367967"><ele>215.5</ele><time>2026-04-12T09:43:10.423Z</time></trkpt><trkpt lat="42.8614067" lon="12.7369667"><ele>215.0</ele><time>2026-04-12T09:43:11.433Z</time></trkpt><trkpt lat="42.8611633" lon="12.7371333"><ele>215.0</ele><time>2026-04-12T09:43:12.435Z</time></trkpt><trkpt lat="42.860915" lon="12.7373017"><ele>215.0</ele><time>2026-04-12T09:43:13.436Z</time></trkpt><trkpt lat="42.8606667" lon="12.7374683"><ele>215.0</ele><time>2026-04-12T09:43:14.429Z</time></trkpt><trkpt lat="42.8604183" lon="12.7376333"><ele>215.0</ele><time>2026-04-12T09:43:15.434Z</time></trkpt><trkpt lat="42.86017" lon="12.737795"><ele>215.0</ele><time>2026-04-12T09:43:16.427Z</time></trkpt><trkpt lat="42.8599217" lon="12.737955"><ele>215.0</ele><time>2026-04-12T09:43:17.438Z</time></trkpt><trkpt lat="42.8596717" lon="12.738115"><ele>215.0</ele><time>2026-04-12T09:43:18.443Z</time></trkpt><trkpt lat="42.8594217" lon="12.7382733"><ele>215.0</ele><time>2026-04-12T09:43:19.434Z</time></trkpt><trkpt lat="42.8591717" lon="12.738435"><ele>215.5</ele><time>2026-04-12T09:43:20.446Z</time></trkpt><trkpt lat="42.8589217" lon="12.7385983"><ele>216.0</ele><time>2026-04-12T09:43:21.438Z</time></trkpt><trkpt lat="42.8586717" lon="12.7387617"><ele>216.0</ele><time>2026-04-12T09:43:22.436Z</time></trkpt><trkpt lat="42.8584233" lon="12.738925"><ele>216.0</ele><time>2026-04-12T09:43:23.441Z</time></trkpt><trkpt lat="42.8581783" lon="12.73909"><ele>216.0</ele><time>2026-04-12T09:43:24.443Z</time></trkpt><trkpt lat="42.8579333" lon="12.7392567"><ele>216.0</ele><time>2026-04-12T09:43:25.44Z</time></trkpt><trkpt lat="42.8576917" lon="12.7394233"><ele>216.0</ele><time>2026-04-12T09:43:26.442Z</time></trkpt><trkpt lat="42.8574517" lon="12.7395933"><ele>216.0</ele><time>2026-04-12T09:43:27.433Z</time></trkpt><trkpt lat="42.8572167" lon="12.739765"><ele>216.0</ele><time>2026-04-12T09:43:28.433Z</time></trkpt><trkpt lat="42.856985" lon="12.7399417"><ele>216.0</ele><time>2026-04-12T09:43:29.443Z</time></trkpt><trkpt lat="42.8567533" lon="12.7401217"><ele>215.5</ele><time>2026-04-12T09:43:30.436Z</time></trkpt><trkpt lat="42.8565217" lon="12.7403033"><ele>215.0</ele><time>2026-04-12T09:43:31.436Z</time></trkpt><trkpt lat="42.8562933" lon="12.74049"><ele>215.0</ele><time>2026-04-12T09:43:32.44Z</time></trkpt><trkpt lat="42.856065" lon="12.74068"><ele>215.0</ele><time>2026-04-12T09:43:33.438Z</time></trkpt><trkpt lat="42.8558383" lon="12.7408733"><ele>216.5</ele><time>2026-04-12T09:43:34.431Z</time></trkpt><trkpt lat="42.85561" lon="12.74107"><ele>218.0</ele><time>2026-04-12T09:43:35.438Z</time></trkpt><trkpt lat="42.8553817" lon="12.74127"><ele>218.0</ele><time>2026-04-12T09:43:36.43Z</time></trkpt><trkpt lat="42.8551567" lon="12.7414733"><ele>218.0</ele><time>2026-04-12T09:43:37.439Z</time></trkpt><trkpt lat="42.8549367" lon="12.7416767"><ele>218.0</ele><time>2026-04-12T09:43:38.431Z</time></trkpt><trkpt lat="42.854715" lon="12.7418817"><ele>218.0</ele><time>2026-04-12T09:43:39.435Z</time></trkpt><trkpt lat="42.854495" lon="12.74209"><ele>217.5</ele><time>2026-04-12T09:43:40.446Z</time></trkpt><trkpt lat="42.8542767" lon="12.7423017"><ele>217.0</ele><time>2026-04-12T09:43:41.442Z</time></trkpt><trkpt lat="42.8540583" lon="12.74252"><ele>217.0</ele><time>2026-04-12T09:43:42.436Z</time></trkpt><trkpt lat="42.85384" lon="12.742745"><ele>217.0</ele><time>2026-04-12T09:43:43.436Z</time></trkpt><trkpt lat="42.8536267" lon="12.74297"><ele>216.5</ele><time>2026-04-12T09:43:44.436Z</time></trkpt><trkpt lat="42.85341" lon="12.7431983"><ele>216.0</ele><time>2026-04-12T09:43:45.436Z</time></trkpt><trkpt lat="42.8531967" lon="12.7434283"><ele>217.0</ele><time>2026-04-12T09:43:46.441Z</time></trkpt><trkpt lat="42.852985" lon="12.74366"><ele>218.0</ele><time>2026-04-12T09:43:47.443Z</time></trkpt><trkpt lat="42.8527733" lon="12.7438967"><ele>217.0</ele><time>2026-04-12T09:43:48.441Z</time></trkpt><trkpt lat="42.8525617" lon="12.744135"><ele>216.0</ele><time>2026-04-12T09:43:49.44Z</time></trkpt><trkpt lat="42.85235" lon="12.74437"><ele>216.0</ele><time>2026-04-12T09:43:50.446Z</time></trkpt><trkpt lat="42.8521383" lon="12.744605"><ele>216.0</ele><time>2026-04-12T09:43:51.432Z</time></trkpt><trkpt lat="42.8519267" lon="12.74484"><ele>216.0</ele><time>2026-04-12T09:43:52.436Z</time></trkpt><trkpt lat="42.8517133" lon="12.74507"><ele>216.0</ele><time>2026-04-12T09:43:53.446Z</time></trkpt><trkpt lat="42.8514983" lon="12.7452967"><ele>216.0</ele><time>2026-04-12T09:43:54.438Z</time></trkpt><trkpt lat="42.8512833" lon="12.7455233"><ele>216.0</ele><time>2026-04-12T09:43:55.44Z</time></trkpt><trkpt lat="42.8510667" lon="12.7457467"><ele>216.0</ele><time>2026-04-12T09:43:56.438Z</time></trkpt><trkpt lat="42.8508467" lon="12.7459683"><ele>216.0</ele><time>2026-04-12T09:43:57.431Z</time></trkpt><trkpt lat="42.8506217" lon="12.74618"><ele>216.5</ele><time>2026-04-12T09:43:58.441Z</time></trkpt><trkpt lat="42.8503917" lon="12.7463767"><ele>217.0</ele><time>2026-04-12T09:43:59.433Z</time></trkpt><trkpt lat="42.8501567" lon="12.746565"><ele>217.0</ele><time>2026-04-12T09:44:00.441Z</time></trkpt><trkpt lat="42.84992" lon="12.74674"><ele>217.0</ele><time>2026-04-12T09:44:01.433Z</time></trkpt><trkpt lat="42.84968" lon="12.746905"><ele>216.5</ele><time>2026-04-12T09:44:02.449Z</time></trkpt><trkpt lat="42.8494383" lon="12.747065"><ele>216.0</ele><time>2026-04-12T09:44:03.435Z</time></trkpt><trkpt lat="42.8492" lon="12.7472267"><ele>215.5</ele><time>2026-04-12T09:44:04.433Z</time></trkpt><trkpt lat="42.8489633" lon="12.74739"><ele>215.0</ele><time>2026-04-12T09:44:05.432Z</time></trkpt><trkpt lat="42.8487217" lon="12.7475533"><ele>215.5</ele><time>2026-04-12T09:44:06.436Z</time></trkpt><trkpt lat="42.8484867" lon="12.747725"><ele>216.0</ele><time>2026-04-12T09:44:07.443Z</time></trkpt><trkpt lat="42.84825" lon="12.7479017"><ele>216.0</ele><time>2026-04-12T09:44:08.437Z</time></trkpt><trkpt lat="42.8480117" lon="12.748095"><ele>216.0</ele><time>2026-04-12T09:44:09.443Z</time></trkpt><trkpt lat="42.84778" lon="12.7483"><ele>216.0</ele><time>2026-04-12T09:44:10.428Z</time></trkpt><trkpt lat="42.8475517" lon="12.7485017"><ele>216.0</ele><time>2026-04-12T09:44:11.443Z</time></trkpt><trkpt lat="42.8473267" lon="12.7486983"><ele>216.0</ele><time>2026-04-12T09:44:12.443Z</time></trkpt><trkpt lat="42.8471033" lon="12.7489"><ele>216.0</ele><time>2026-04-12T09:44:13.441Z</time></trkpt><trkpt lat="42.8468783" lon="12.749105"><ele>215.5</ele><time>2026-04-12T09:44:14.436Z</time></trkpt><trkpt lat="42.8466567" lon="12.74931"><ele>215.0</ele><time>2026-04-12T09:44:15.428Z</time></trkpt><trkpt lat="42.8464333" lon="12.7495217"><ele>215.0</ele><time>2026-04-12T09:44:16.433Z</time></trkpt><trkpt lat="42.84621" lon="12.7497317"><ele>215.0</ele><time>2026-04-12T09:44:17.436Z</time></trkpt><trkpt lat="42.8459883" lon="12.749945"><ele>215.0</ele><time>2026-04-12T09:44:18.427Z</time></trkpt><trkpt lat="42.8457667" lon="12.75016"><ele>215.0</ele><time>2026-04-12T09:44:19.436Z</time></trkpt><trkpt lat="42.8455433" lon="12.750375"><ele>215.5</ele><time>2026-04-12T09:44:20.446Z</time></trkpt><trkpt lat="42.84532" lon="12.75059"><ele>216.0</ele><time>2026-04-12T09:44:21.425Z</time></trkpt><trkpt lat="42.845095" lon="12.7508033"><ele>216.5</ele><time>2026-04-12T09:44:22.436Z</time></trkpt><trkpt lat="42.84487" lon="12.751015"><ele>217.0</ele><time>2026-04-12T09:44:23.429Z</time></trkpt><trkpt lat="42.8446417" lon="12.751225"><ele>217.0</ele><time>2026-04-12T09:44:24.428Z</time></trkpt><trkpt lat="42.8444083" lon="12.7514317"><ele>217.0</ele><time>2026-04-12T09:44:25.437Z</time></trkpt><trkpt lat="42.8441767" lon="12.7516367"><ele>217.0</ele><time>2026-04-12T09:44:26.442Z</time></trkpt><trkpt lat="42.8439433" lon="12.751835"><ele>217.0</ele><time>2026-04-12T09:44:27.44Z</time></trkpt><trkpt lat="42.8437067" lon="12.752025"><ele>217.0</ele><time>2026-04-12T09:44:28.437Z</time></trkpt><trkpt lat="42.8434683" lon="12.7522083"><ele>217.0</ele><time>2026-04-12T09:44:29.435Z</time></trkpt><trkpt lat="42.84323" lon="12.7523833"><ele>217.0</ele><time>2026-04-12T09:44:30.443Z</time></trkpt><trkpt lat="42.8429867" lon="12.7525517"><ele>217.0</ele><time>2026-04-12T09:44:31.434Z</time></trkpt><trkpt lat="42.8427417" lon="12.752715"><ele>217.0</ele><time>2026-04-12T09:44:32.448Z</time></trkpt><trkpt lat="42.8424933" lon="12.75287"><ele>217.0</ele><time>2026-04-12T09:44:33.443Z</time></trkpt><trkpt lat="42.842245" lon="12.7530183"><ele>217.0</ele><time>2026-04-12T09:44:34.434Z</time></trkpt><trkpt lat="42.84199" lon="12.7531567"><ele>217.0</ele><time>2026-04-12T09:44:35.431Z</time></trkpt><trkpt lat="42.8417333" lon="12.7532883"><ele>217.0</ele><time>2026-04-12T09:44:36.443Z</time></trkpt><trkpt lat="42.8414767" lon="12.753415"><ele>217.0</ele><time>2026-04-12T09:44:37.428Z</time></trkpt><trkpt lat="42.8412217" lon="12.7535367"><ele>217.5</ele><time>2026-04-12T09:44:38.428Z</time></trkpt><trkpt lat="42.840965" lon="12.7536517"><ele>218.0</ele><time>2026-04-12T09:44:39.447Z</time></trkpt><trkpt lat="42.84071" lon="12.7537667"><ele>218.0</ele><time>2026-04-12T09:44:40.443Z</time></trkpt><trkpt lat="42.840455" lon="12.75388"><ele>218.0</ele><time>2026-04-12T09:44:41.428Z</time></trkpt><trkpt lat="42.8401983" lon="12.75399"><ele>218.5</ele><time>2026-04-12T09:44:42.436Z</time></trkpt><trkpt lat="42.83994" lon="12.7540983"><ele>219.0</ele><time>2026-04-12T09:44:43.432Z</time></trkpt><trkpt lat="42.83968" lon="12.7542067"><ele>219.0</ele><time>2026-04-12T09:44:44.435Z</time></trkpt><trkpt lat="42.83942" lon="12.7543167"><ele>219.0</ele><time>2026-04-12T09:44:45.436Z</time></trkpt><trkpt lat="42.8391583" lon="12.75443"><ele>219.0</ele><time>2026-04-12T09:44:46.439Z</time></trkpt><trkpt lat="42.8388967" lon="12.754545"><ele>219.0</ele><time>2026-04-12T09:44:47.434Z</time></trkpt><trkpt lat="42.838635" lon="12.754665"><ele>218.0</ele><time>2026-04-12T09:44:48.443Z</time></trkpt><trkpt lat="42.8383767" lon="12.7547933"><ele>217.0</ele><time>2026-04-12T09:44:49.429Z</time></trkpt><trkpt lat="42.8381217" lon="12.7549333"><ele>217.0</ele><time>2026-04-12T09:44:50.432Z</time></trkpt><trkpt lat="42.8378617" lon="12.75508"><ele>217.0</ele><time>2026-04-12T09:44:51.438Z</time></trkpt><trkpt lat="42.837605" lon="12.755235"><ele>218.0</ele><time>2026-04-12T09:44:52.43Z</time></trkpt><trkpt lat="42.8373533" lon="12.7553967"><ele>219.0</ele><time>2026-04-12T09:44:53.432Z</time></trkpt><trkpt lat="42.837105" lon="12.7555617"><ele>219.0</ele><time>2026-04-12T09:44:54.449Z</time></trkpt><trkpt lat="42.83686" lon="12.7557283"><ele>219.0</ele><time>2026-04-12T09:44:55.427Z</time></trkpt><trkpt lat="42.8366167" lon="12.7558983"><ele>219.0</ele><time>2026-04-12T09:44:56.438Z</time></trkpt><trkpt lat="42.8363733" lon="12.7560667"><ele>219.0</ele><time>2026-04-12T09:44:57.439Z</time></trkpt><trkpt lat="42.8361283" lon="12.756235"><ele>219.0</ele><time>2026-04-12T09:44:58.437Z</time></trkpt><trkpt lat="42.8358833" lon="12.756405"><ele>219.0</ele><time>2026-04-12T09:44:59.442Z</time></trkpt><trkpt lat="42.8356383" lon="12.756575"><ele>219.0</ele><time>2026-04-12T09:45:00.437Z</time></trkpt><trkpt lat="42.8353917" lon="12.756745"><ele>219.0</ele><time>2026-04-12T09:45:01.436Z</time></trkpt><trkpt lat="42.8351467" lon="12.756915"><ele>219.5</ele><time>2026-04-12T09:45:02.437Z</time></trkpt><trkpt lat="42.8349017" lon="12.757085"><ele>220.0</ele><time>2026-04-12T09:45:03.435Z</time></trkpt><trkpt lat="42.8346567" lon="12.757255"><ele>220.0</ele><time>2026-04-12T09:45:04.441Z</time></trkpt><trkpt lat="42.834415" lon="12.7574267"><ele>220.0</ele><time>2026-04-12T09:45:05.439Z</time></trkpt><trkpt lat="42.8341733" lon="12.7575967"><ele>220.5</ele><time>2026-04-12T09:45:06.44Z</time></trkpt><trkpt lat="42.8339317" lon="12.7577633"><ele>221.0</ele><time>2026-04-12T09:45:07.45Z</time></trkpt><trkpt lat="42.8336917" lon="12.7579333"><ele>220.5</ele><time>2026-04-12T09:45:08.429Z</time></trkpt><trkpt lat="42.8334483" lon="12.7581033"><ele>220.0</ele><time>2026-04-12T09:45:09.442Z</time></trkpt><trkpt lat="42.833205" lon="12.7582767"><ele>220.0</ele><time>2026-04-12T09:45:10.447Z</time></trkpt><trkpt lat="42.8329633" lon="12.7584467"><ele>220.0</ele><time>2026-04-12T09:45:11.433Z</time></trkpt><trkpt lat="42.8327233" lon="12.7586167"><ele>219.5</ele><time>2026-04-12T09:45:12.436Z</time></trkpt><trkpt lat="42.8324817" lon="12.7587883"><ele>219.0</ele><time>2026-04-12T09:45:13.431Z</time></trkpt><trkpt lat="42.83224" lon="12.7589583"><ele>219.0</ele><time>2026-04-12T09:45:14.431Z</time></trkpt><trkpt lat="42.8319917" lon="12.7591233"><ele>219.0</ele><time>2026-04-12T09:45:15.431Z</time></trkpt><trkpt lat="42.8317417" lon="12.7592817"><ele>220.0</ele><time>2026-04-12T09:45:16.447Z</time></trkpt><trkpt lat="42.8314933" lon="12.7594333"><ele>221.0</ele><time>2026-04-12T09:45:17.447Z</time></trkpt><trkpt lat="42.83124" lon="12.7595783"><ele>221.0</ele><time>2026-04-12T09:45:18.44Z</time></trkpt><trkpt lat="42.8309833" lon="12.7597083"><ele>221.0</ele><time>2026-04-12T09:45:19.437Z</time></trkpt><trkpt lat="42.83073" lon="12.75983"><ele>221.0</ele><time>2026-04-12T09:45:20.438Z</time></trkpt><trkpt lat="42.83047" lon="12.7599383"><ele>221.0</ele><time>2026-04-12T09:45:21.424Z</time></trkpt><trkpt lat="42.8302067" lon="12.7600367"><ele>221.0</ele><time>2026-04-12T09:45:22.428Z</time></trkpt><trkpt lat="42.8299417" lon="12.7601233"><ele>221.0</ele><time>2026-04-12T09:45:23.434Z</time></trkpt><trkpt lat="42.829675" lon="12.7601967"><ele>221.0</ele><time>2026-04-12T09:45:24.44Z</time></trkpt><trkpt lat="42.8294067" lon="12.7602583"><ele>221.0</ele><time>2026-04-12T09:45:25.433Z</time></trkpt><trkpt lat="42.829135" lon="12.7603133"><ele>221.5</ele><time>2026-04-12T09:45:26.441Z</time></trkpt><trkpt lat="42.82886" lon="12.7603567"><ele>222.0</ele><time>2026-04-12T09:45:27.447Z</time></trkpt><trkpt lat="42.8285867" lon="12.7603883"><ele>222.0</ele><time>2026-04-12T09:45:28.431Z</time></trkpt><trkpt lat="42.8283133" lon="12.7604083"><ele>222.0</ele><time>2026-04-12T09:45:29.438Z</time></trkpt><trkpt lat="42.828045" lon="12.7604117"><ele>222.0</ele><time>2026-04-12T09:45:30.436Z</time></trkpt><trkpt lat="42.827775" lon="12.7604067"><ele>222.0</ele><time>2026-04-12T09:45:31.431Z</time></trkpt><trkpt lat="42.827505" lon="12.7603983"><ele>223.0</ele><time>2026-04-12T09:45:32.439Z</time></trkpt><trkpt lat="42.82723" lon="12.7603933"><ele>224.0</ele><time>2026-04-12T09:45:33.432Z</time></trkpt><trkpt lat="42.82695" lon="12.7603717"><ele>224.5</ele><time>2026-04-12T09:45:34.437Z</time></trkpt><trkpt lat="42.826685" lon="12.76034"><ele>225.0</ele><time>2026-04-12T09:45:35.444Z</time></trkpt><trkpt lat="42.8264117" lon="12.7603167"><ele>225.0</ele><time>2026-04-12T09:45:36.446Z</time></trkpt><trkpt lat="42.826145" lon="12.7602933"><ele>225.0</ele><time>2026-04-12T09:45:37.441Z</time></trkpt><trkpt lat="42.8258717" lon="12.7602517"><ele>224.5</ele><time>2026-04-12T09:45:38.427Z</time></trkpt><trkpt lat="42.825605" lon="12.7601983"><ele>224.0</ele><time>2026-04-12T09:45:39.43Z</time></trkpt><trkpt lat="42.8253333" lon="12.7601333"><ele>223.5</ele><time>2026-04-12T09:45:40.436Z</time></trkpt><trkpt lat="42.825065" lon="12.7600533"><ele>223.0</ele><time>2026-04-12T09:45:41.445Z</time></trkpt><trkpt lat="42.824795" lon="12.7599667"><ele>223.0</ele><time>2026-04-12T09:45:42.44Z</time></trkpt><trkpt lat="42.8245267" lon="12.7598767"><ele>223.0</ele><time>2026-04-12T09:45:43.431Z</time></trkpt><trkpt lat="42.8242633" lon="12.75978"><ele>222.0</ele><time>2026-04-12T09:45:44.434Z</time></trkpt><trkpt lat="42.8240017" lon="12.7596783"><ele>221.0</ele><time>2026-04-12T09:45:45.437Z</time></trkpt><trkpt lat="42.82374" lon="12.759575"><ele>221.0</ele><time>2026-04-12T09:45:46.43Z</time></trkpt><trkpt lat="42.8234817" lon="12.759465"><ele>221.0</ele><time>2026-04-12T09:45:47.441Z</time></trkpt><trkpt lat="42.823225" lon="12.7593517"><ele>222.5</ele><time>2026-04-12T09:45:48.432Z</time></trkpt><trkpt lat="42.8229683" lon="12.7592317"><ele>224.0</ele><time>2026-04-12T09:45:49.436Z</time></trkpt><trkpt lat="42.8227133" lon="12.759105"><ele>224.0</ele><time>2026-04-12T09:45:50.437Z</time></trkpt><trkpt lat="42.8224583" lon="12.7589717"><ele>224.0</ele><time>2026-04-12T09:45:51.435Z</time></trkpt><trkpt lat="42.822205" lon="12.7588383"><ele>224.0</ele><time>2026-04-12T09:45:52.432Z</time></trkpt><trkpt lat="42.82195" lon="12.758705"><ele>224.0</ele><time>2026-04-12T09:45:53.441Z</time></trkpt><trkpt lat="42.8216967" lon="12.7585767"><ele>224.5</ele><time>2026-04-12T09:45:54.439Z</time></trkpt><trkpt lat="42.8214367" lon="12.7584483"><ele>225.0</ele><time>2026-04-12T09:45:55.439Z</time></trkpt><trkpt lat="42.821175" lon="12.7583233"><ele>225.5</ele><time>2026-04-12T09:45:56.435Z</time></trkpt><trkpt lat="42.8209067" lon="12.7582083"><ele>226.0</ele><time>2026-04-12T09:45:57.44Z</time></trkpt><trkpt lat="42.8206333" lon="12.7581"><ele>226.0</ele><time>2026-04-12T09:45:58.439Z</time></trkpt><trkpt lat="42.820365" lon="12.7579983"><ele>226.0</ele><time>2026-04-12T09:45:59.439Z</time></trkpt><trkpt lat="42.8201" lon="12.7579033"><ele>226.0</ele><time>2026-04-12T09:46:00.438Z</time></trkpt><trkpt lat="42.81984" lon="12.7578267"><ele>226.0</ele><time>2026-04-12T09:46:01.434Z</time></trkpt><trkpt lat="42.8195783" lon="12.7577617"><ele>226.0</ele><time>2026-04-12T09:46:02.44Z</time></trkpt><trkpt lat="42.8193117" lon="12.757705"><ele>226.0</ele><time>2026-04-12T09:46:03.45Z</time></trkpt><trkpt lat="42.81904" lon="12.757655"><ele>227.0</ele><time>2026-04-12T09:46:04.435Z</time></trkpt><trkpt lat="42.8187717" lon="12.757615"><ele>228.0</ele><time>2026-04-12T09:46:05.435Z</time></trkpt><trkpt lat="42.8185" lon="12.7575817"><ele>228.0</ele><time>2026-04-12T09:46:06.433Z</time></trkpt><trkpt lat="42.8182267" lon="12.757555"><ele>228.0</ele><time>2026-04-12T09:46:07.44Z</time></trkpt><trkpt lat="42.8179517" lon="12.7575333"><ele>228.0</ele><time>2026-04-12T09:46:08.436Z</time></trkpt><trkpt lat="42.8176783" lon="12.7575133"><ele>228.0</ele><time>2026-04-12T09:46:09.441Z</time></trkpt><trkpt lat="42.817405" lon="12.757495"><ele>228.0</ele><time>2026-04-12T09:46:10.431Z</time></trkpt><trkpt lat="42.817135" lon="12.757475"><ele>228.0</ele><time>2026-04-12T09:46:11.434Z</time></trkpt><trkpt lat="42.8168617" lon="12.7574567"><ele>228.5</ele><time>2026-04-12T09:46:12.427Z</time></trkpt><trkpt lat="42.8165917" lon="12.7574417"><ele>229.0</ele><time>2026-04-12T09:46:13.441Z</time></trkpt><trkpt lat="42.81632" lon="12.75743"><ele>229.0</ele><time>2026-04-12T09:46:14.439Z</time></trkpt><trkpt lat="42.816045" lon="12.7574233"><ele>229.0</ele><time>2026-04-12T09:46:15.435Z</time></trkpt><trkpt lat="42.8157717" lon="12.7574233"><ele>230.0</ele><time>2026-04-12T09:46:16.434Z</time></trkpt><trkpt lat="42.8154983" lon="12.757425"><ele>231.0</ele><time>2026-04-12T09:46:17.445Z</time></trkpt><trkpt lat="42.815225" lon="12.75743"><ele>231.0</ele><time>2026-04-12T09:46:18.427Z</time></trkpt><trkpt lat="42.814955" lon="12.7574333"><ele>231.0</ele><time>2026-04-12T09:46:19.436Z</time></trkpt><trkpt lat="42.8146817" lon="12.7574383"><ele>231.0</ele><time>2026-04-12T09:46:20.436Z</time></trkpt><trkpt lat="42.8144083" lon="12.757445"><ele>231.0</ele><time>2026-04-12T09:46:21.44Z</time></trkpt><trkpt lat="42.814135" lon="12.7574583"><ele>231.0</ele><time>2026-04-12T09:46:22.435Z</time></trkpt><trkpt lat="42.8138583" lon="12.7574733"><ele>231.0</ele><time>2026-04-12T09:46:23.438Z</time></trkpt><trkpt lat="42.8135833" lon="12.7574917"><ele>231.0</ele><time>2026-04-12T09:46:24.443Z</time></trkpt><trkpt lat="42.813305" lon="12.757515"><ele>231.0</ele><time>2026-04-12T09:46:25.436Z</time></trkpt><trkpt lat="42.81303" lon="12.7575433"><ele>231.0</ele><time>2026-04-12T09:46:26.435Z</time></trkpt><trkpt lat="42.8127533" lon="12.7575767"><ele>231.0</ele><time>2026-04-12T09:46:27.44Z</time></trkpt><trkpt lat="42.81248" lon="12.757615"><ele>232.5</ele><time>2026-04-12T09:46:28.434Z</time></trkpt><trkpt lat="42.8122117" lon="12.7576567"><ele>234.0</ele><time>2026-04-12T09:46:29.433Z</time></trkpt><trkpt lat="42.8119417" lon="12.7577033"><ele>235.5</ele><time>2026-04-12T09:46:30.439Z</time></trkpt><trkpt lat="42.81167" lon="12.757755"><ele>237.0</ele><time>2026-04-12T09:46:31.434Z</time></trkpt><trkpt lat="42.8114017" lon="12.7578133"><ele>237.0</ele><time>2026-04-12T09:46:32.441Z</time></trkpt><trkpt lat="42.8111317" lon="12.75788"><ele>237.0</ele><time>2026-04-12T09:46:33.435Z</time></trkpt><trkpt lat="42.8108617" lon="12.757955"><ele>238.5</ele><time>2026-04-12T09:46:34.444Z</time></trkpt><trkpt lat="42.8105917" lon="12.7580383"><ele>240.0</ele><time>2026-04-12T09:46:35.435Z</time></trkpt><trkpt lat="42.81032" lon="12.7581267"><ele>241.5</ele><time>2026-04-12T09:46:36.429Z</time></trkpt><trkpt lat="42.81005" lon="12.7582167"><ele>243.0</ele><time>2026-04-12T09:46:37.436Z</time></trkpt><trkpt lat="42.8097817" lon="12.7583133"><ele>243.0</ele><time>2026-04-12T09:46:38.446Z</time></trkpt><trkpt lat="42.8095167" lon="12.7584167"><ele>243.0</ele><time>2026-04-12T09:46:39.439Z</time></trkpt><trkpt lat="42.80925" lon="12.7585217"><ele>245.0</ele><time>2026-04-12T09:46:40.434Z</time></trkpt><trkpt lat="42.808985" lon="12.75863"><ele>247.0</ele><time>2026-04-12T09:46:41.437Z</time></trkpt><trkpt lat="42.8087217" lon="12.7587383"><ele>247.5</ele><time>2026-04-12T09:46:42.444Z</time></trkpt><trkpt lat="42.8084617" lon="12.7588467"><ele>248.0</ele><time>2026-04-12T09:46:43.452Z</time></trkpt><trkpt lat="42.8082" lon="12.7589583"><ele>248.0</ele><time>2026-04-12T09:46:44.429Z</time></trkpt><trkpt lat="42.80794" lon="12.7590717"><ele>248.0</ele><time>2026-04-12T09:46:45.433Z</time></trkpt><trkpt lat="42.80768" lon="12.7591917"><ele>249.0</ele><time>2026-04-12T09:46:46.432Z</time></trkpt><trkpt lat="42.8074167" lon="12.7593117"><ele>250.0</ele><time>2026-04-12T09:46:47.446Z</time></trkpt><trkpt lat="42.8071483" lon="12.75943"><ele>251.0</ele><time>2026-04-12T09:46:48.437Z</time></trkpt><trkpt lat="42.8068833" lon="12.759545"><ele>252.0</ele><time>2026-04-12T09:46:49.435Z</time></trkpt><trkpt lat="42.8066183" lon="12.759655"><ele>253.5</ele><time>2026-04-12T09:46:50.448Z</time></trkpt><trkpt lat="42.806355" lon="12.7597617"><ele>255.0</ele><time>2026-04-12T09:46:51.43Z</time></trkpt><trkpt lat="42.8060917" lon="12.7598567"><ele>256.0</ele><time>2026-04-12T09:46:52.423Z</time></trkpt><trkpt lat="42.8058267" lon="12.759945"><ele>257.0</ele><time>2026-04-12T09:46:53.447Z</time></trkpt><trkpt lat="42.8055583" lon="12.760025"><ele>257.0</ele><time>2026-04-12T09:46:54.433Z</time></trkpt><trkpt lat="42.8052883" lon="12.7600933"><ele>257.0</ele><time>2026-04-12T09:46:55.441Z</time></trkpt><trkpt lat="42.805015" lon="12.7601533"><ele>259.0</ele><time>2026-04-12T09:46:56.442Z</time></trkpt><trkpt lat="42.804735" lon="12.7602117"><ele>261.0</ele><time>2026-04-12T09:46:57.444Z</time></trkpt><trkpt lat="42.804455" lon="12.760265"><ele>262.5</ele><time>2026-04-12T09:46:58.439Z</time></trkpt><trkpt lat="42.8041767" lon="12.7603117"><ele>264.0</ele><time>2026-04-12T09:46:59.428Z</time></trkpt><trkpt lat="42.8038967" lon="12.7603567"><ele>264.0</ele><time>2026-04-12T09:47:00.435Z</time></trkpt><trkpt lat="42.8036183" lon="12.760405"><ele>264.0</ele><time>2026-04-12T09:47:01.439Z</time></trkpt><trkpt lat="42.8033433" lon="12.760455"><ele>265.0</ele><time>2026-04-12T09:47:02.437Z</time></trkpt><trkpt lat="42.8030667" lon="12.7605083"><ele>266.0</ele><time>2026-04-12T09:47:03.443Z</time></trkpt><trkpt lat="42.80279" lon="12.760565"><ele>267.0</ele><time>2026-04-12T09:47:04.426Z</time></trkpt><trkpt lat="42.802515" lon="12.760625"><ele>268.0</ele><time>2026-04-12T09:47:05.433Z</time></trkpt><trkpt lat="42.8022417" lon="12.7606933"><ele>268.0</ele><time>2026-04-12T09:47:06.453Z</time></trkpt><trkpt lat="42.80197" lon="12.7607733"><ele>268.0</ele><time>2026-04-12T09:47:07.436Z</time></trkpt><trkpt lat="42.8017" lon="12.76086"><ele>269.0</ele><time>2026-04-12T09:47:08.439Z</time></trkpt><trkpt lat="42.8014317" lon="12.7609533"><ele>270.0</ele><time>2026-04-12T09:47:09.43Z</time></trkpt><trkpt lat="42.8011633" lon="12.7610467"><ele>271.0</ele><time>2026-04-12T09:47:10.435Z</time></trkpt><trkpt lat="42.800895" lon="12.7611383"><ele>272.0</ele><time>2026-04-12T09:47:11.44Z</time></trkpt><trkpt lat="42.8006267" lon="12.761225"><ele>272.0</ele><time>2026-04-12T09:47:12.442Z</time></trkpt><trkpt lat="42.800355" lon="12.761315"><ele>272.0</ele><time>2026-04-12T09:47:13.432Z</time></trkpt><trkpt lat="42.8000817" lon="12.7614033"><ele>271.0</ele><time>2026-04-12T09:47:14.445Z</time></trkpt><trkpt lat="42.7998117" lon="12.7614933"><ele>270.0</ele><time>2026-04-12T09:47:15.448Z</time></trkpt><trkpt lat="42.7995417" lon="12.7615817"><ele>270.0</ele><time>2026-04-12T09:47:16.434Z</time></trkpt><trkpt lat="42.79927" lon="12.761675"><ele>270.0</ele><time>2026-04-12T09:47:17.435Z</time></trkpt><trkpt lat="42.7990017" lon="12.7617733"><ele>271.5</ele><time>2026-04-12T09:47:18.435Z</time></trkpt><trkpt lat="42.7987367" lon="12.7618667"><ele>273.0</ele><time>2026-04-12T09:47:19.446Z</time></trkpt><trkpt lat="42.7984717" lon="12.7619667"><ele>275.0</ele><time>2026-04-12T09:47:20.445Z</time></trkpt><trkpt lat="42.79821" lon="12.76207"><ele>277.0</ele><time>2026-04-12T09:47:21.444Z</time></trkpt><trkpt lat="42.7979483" lon="12.7621717"><ele>277.0</ele><time>2026-04-12T09:47:22.434Z</time></trkpt><trkpt lat="42.7976867" lon="12.76228"><ele>277.0</ele><time>2026-04-12T09:47:23.434Z</time></trkpt><trkpt lat="42.7974217" lon="12.7623917"><ele>279.0</ele><time>2026-04-12T09:47:24.437Z</time></trkpt><trkpt lat="42.7971583" lon="12.7625033"><ele>281.0</ele><time>2026-04-12T09:47:25.435Z</time></trkpt><trkpt lat="42.7969" lon="12.7626133"><ele>282.0</ele><time>2026-04-12T09:47:26.441Z</time></trkpt><trkpt lat="42.7966433" lon="12.76272"><ele>283.0</ele><time>2026-04-12T09:47:27.439Z</time></trkpt><trkpt lat="42.7963867" lon="12.7628317"><ele>283.0</ele><time>2026-04-12T09:47:28.436Z</time></trkpt><trkpt lat="42.7961267" lon="12.7629417"><ele>283.0</ele><time>2026-04-12T09:47:29.444Z</time></trkpt><trkpt lat="42.795865" lon="12.76305"><ele>281.5</ele><time>2026-04-12T09:47:30.44Z</time></trkpt><trkpt lat="42.7956067" lon="12.7631583"><ele>280.0</ele><time>2026-04-12T09:47:31.435Z</time></trkpt><trkpt lat="42.79535" lon="12.7632667"><ele>280.5</ele><time>2026-04-12T09:47:32.425Z</time></trkpt><trkpt lat="42.79509" lon="12.7633733"><ele>281.0</ele><time>2026-04-12T09:47:33.436Z</time></trkpt><trkpt lat="42.7948283" lon="12.7634783"><ele>282.0</ele><time>2026-04-12T09:47:34.446Z</time></trkpt><trkpt lat="42.794565" lon="12.763585"><ele>283.0</ele><time>2026-04-12T09:47:35.445Z</time></trkpt><trkpt lat="42.7943033" lon="12.7636917"><ele>283.5</ele><time>2026-04-12T09:47:36.443Z</time></trkpt><trkpt lat="42.7940417" lon="12.7638"><ele>284.0</ele><time>2026-04-12T09:47:37.435Z</time></trkpt><trkpt lat="42.7937783" lon="12.76391"><ele>284.0</ele><time>2026-04-12T09:47:38.445Z</time></trkpt><trkpt lat="42.793515" lon="12.7640133"><ele>284.0</ele><time>2026-04-12T09:47:39.438Z</time></trkpt><trkpt lat="42.7932533" lon="12.7641183"><ele>284.0</ele><time>2026-04-12T09:47:40.435Z</time></trkpt><trkpt lat="42.7929917" lon="12.7642167"><ele>284.0</ele><time>2026-04-12T09:47:41.448Z</time></trkpt><trkpt lat="42.7927317" lon="12.7643167"><ele>286.5</ele><time>2026-04-12T09:47:42.438Z</time></trkpt><trkpt lat="42.7924717" lon="12.7644183"><ele>289.0</ele><time>2026-04-12T09:47:43.436Z</time></trkpt><trkpt lat="42.79221" lon="12.7645217"><ele>289.0</ele><time>2026-04-12T09:47:44.437Z</time></trkpt><trkpt lat="42.7919467" lon="12.7646233"><ele>289.0</ele><time>2026-04-12T09:47:45.439Z</time></trkpt><trkpt lat="42.7916833" lon="12.7647267"><ele>289.5</ele><time>2026-04-12T09:47:46.442Z</time></trkpt><trkpt lat="42.7914217" lon="12.76483"><ele>290.0</ele><time>2026-04-12T09:47:47.438Z</time></trkpt><trkpt lat="42.7911583" lon="12.764935"><ele>288.5</ele><time>2026-04-12T09:47:48.437Z</time></trkpt><trkpt lat="42.7908933" lon="12.7650367"><ele>287.0</ele><time>2026-04-12T09:47:49.435Z</time></trkpt><trkpt lat="42.79063" lon="12.765135"><ele>287.5</ele><time>2026-04-12T09:47:50.433Z</time></trkpt><trkpt lat="42.790365" lon="12.7652367"><ele>288.0</ele><time>2026-04-12T09:47:51.431Z</time></trkpt><trkpt lat="42.7901" lon="12.7653383"><ele>288.0</ele><time>2026-04-12T09:47:52.434Z</time></trkpt><trkpt lat="42.7898333" lon="12.7654383"><ele>288.0</ele><time>2026-04-12T09:47:53.438Z</time></trkpt><trkpt lat="42.7895667" lon="12.7655383"><ele>286.5</ele><time>2026-04-12T09:47:54.444Z</time></trkpt><trkpt lat="42.7893" lon="12.7656367"><ele>285.0</ele><time>2026-04-12T09:47:55.43Z</time></trkpt><trkpt lat="42.7890317" lon="12.7657333"><ele>285.0</ele><time>2026-04-12T09:47:56.439Z</time></trkpt><trkpt lat="42.78876" lon="12.765825"><ele>285.0</ele><time>2026-04-12T09:47:57.435Z</time></trkpt><trkpt lat="42.78849" lon="12.7659133"><ele>285.0</ele><time>2026-04-12T09:47:58.438Z</time></trkpt><trkpt lat="42.78822" lon="12.7659983"><ele>285.0</ele><time>2026-04-12T09:47:59.434Z</time></trkpt><trkpt lat="42.7879517" lon="12.7660767"><ele>285.0</ele><time>2026-04-12T09:48:00.433Z</time></trkpt><trkpt lat="42.7876833" lon="12.7661483"><ele>285.0</ele><time>2026-04-12T09:48:01.433Z</time></trkpt><trkpt lat="42.7874133" lon="12.766215"><ele>284.5</ele><time>2026-04-12T09:48:02.446Z</time></trkpt><trkpt lat="42.7871433" lon="12.76628"><ele>284.0</ele><time>2026-04-12T09:48:03.433Z</time></trkpt><trkpt lat="42.7868733" lon="12.7663383"><ele>282.0</ele><time>2026-04-12T09:48:04.433Z</time></trkpt><trkpt lat="42.7866033" lon="12.7663917"><ele>280.0</ele><time>2026-04-12T09:48:05.433Z</time></trkpt><trkpt lat="42.7863383" lon="12.7664367"><ele>280.0</ele><time>2026-04-12T09:48:06.435Z</time></trkpt><trkpt lat="42.7860667" lon="12.76648"><ele>280.0</ele><time>2026-04-12T09:48:07.435Z</time></trkpt><trkpt lat="42.785795" lon="12.7665217"><ele>280.0</ele><time>2026-04-12T09:48:08.436Z</time></trkpt><trkpt lat="42.7855233" lon="12.76656"><ele>280.0</ele><time>2026-04-12T09:48:09.435Z</time></trkpt><trkpt lat="42.7852517" lon="12.7665933"><ele>277.5</ele><time>2026-04-12T09:48:10.439Z</time></trkpt><trkpt lat="42.7849817" lon="12.7666217"><ele>275.0</ele><time>2026-04-12T09:48:11.434Z</time></trkpt><trkpt lat="42.7847083" lon="12.76665"><ele>275.0</ele><time>2026-04-12T09:48:12.44Z</time></trkpt><trkpt lat="42.7844317" lon="12.7666717"><ele>275.0</ele><time>2026-04-12T09:48:13.433Z</time></trkpt><trkpt lat="42.7841583" lon="12.7666867"><ele>275.5</ele><time>2026-04-12T09:48:14.438Z</time></trkpt><trkpt lat="42.7838833" lon="12.7667067"><ele>276.0</ele><time>2026-04-12T09:48:15.441Z</time></trkpt><trkpt lat="42.7836067" lon="12.7667283"><ele>276.5</ele><time>2026-04-12T09:48:16.438Z</time></trkpt><trkpt lat="42.78333" lon="12.7667483"><ele>277.0</ele><time>2026-04-12T09:48:17.432Z</time></trkpt><trkpt lat="42.783055" lon="12.7667683"><ele>277.0</ele><time>2026-04-12T09:48:18.436Z</time></trkpt><trkpt lat="42.7827817" lon="12.7667867"><ele>277.0</ele><time>2026-04-12T09:48:19.435Z</time></trkpt><trkpt lat="42.7825067" lon="12.76681"><ele>276.5</ele><time>2026-04-12T09:48:20.435Z</time></trkpt><trkpt lat="42.7822317" lon="12.7668367"><ele>276.0</ele><time>2026-04-12T09:48:21.436Z</time></trkpt><trkpt lat="42.78196" lon="12.7668683"><ele>275.0</ele><time>2026-04-12T09:48:22.437Z</time></trkpt><trkpt lat="42.7816883" lon="12.7669117"><ele>274.0</ele><time>2026-04-12T09:48:23.434Z</time></trkpt><trkpt lat="42.7814183" lon="12.7669667"><ele>274.0</ele><time>2026-04-12T09:48:24.429Z</time></trkpt><trkpt lat="42.7811517" lon="12.7670367"><ele>274.0</ele><time>2026-04-12T09:48:25.437Z</time></trkpt><trkpt lat="42.78089" lon="12.7671167"><ele>273.5</ele><time>2026-04-12T09:48:26.438Z</time></trkpt><trkpt lat="42.7806333" lon="12.7672117"><ele>273.0</ele><time>2026-04-12T09:48:27.441Z</time></trkpt><trkpt lat="42.78038" lon="12.767325"><ele>273.0</ele><time>2026-04-12T09:48:28.436Z</time></trkpt><trkpt lat="42.7801317" lon="12.76745"><ele>273.0</ele><time>2026-04-12T09:48:29.443Z</time></trkpt><trkpt lat="42.779885" lon="12.7675933"><ele>274.5</ele><time>2026-04-12T09:48:30.441Z</time></trkpt><trkpt lat="42.7796433" lon="12.7677517"><ele>276.0</ele><time>2026-04-12T09:48:31.441Z</time></trkpt><trkpt lat="42.7794017" lon="12.7679217"><ele>276.0</ele><time>2026-04-12T09:48:32.455Z</time></trkpt><trkpt lat="42.7791617" lon="12.7681083"><ele>276.0</ele><time>2026-04-12T09:48:33.426Z</time></trkpt><trkpt lat="42.778925" lon="12.768305"><ele>276.0</ele><time>2026-04-12T09:48:34.436Z</time></trkpt><trkpt lat="42.7786917" lon="12.7685133"><ele>276.0</ele><time>2026-04-12T09:48:35.437Z</time></trkpt><trkpt lat="42.7784633" lon="12.7687233"><ele>275.5</ele><time>2026-04-12T09:48:36.438Z</time></trkpt><trkpt lat="42.7782367" lon="12.7689367"><ele>275.0</ele><time>2026-04-12T09:48:37.436Z</time></trkpt><trkpt lat="42.7780083" lon="12.7691467"><ele>275.0</ele><time>2026-04-12T09:48:38.438Z</time></trkpt><trkpt lat="42.77778" lon="12.769355"><ele>275.0</ele><time>2026-04-12T09:48:39.423Z</time></trkpt><trkpt lat="42.7775533" lon="12.7695517"><ele>276.5</ele><time>2026-04-12T09:48:40.436Z</time></trkpt><trkpt lat="42.7773233" lon="12.7697417"><ele>278.0</ele><time>2026-04-12T09:48:41.436Z</time></trkpt><trkpt lat="42.7770883" lon="12.7699183"><ele>277.5</ele><time>2026-04-12T09:48:42.434Z</time></trkpt><trkpt lat="42.77685" lon="12.770075"><ele>277.0</ele><time>2026-04-12T09:48:43.439Z</time></trkpt><trkpt lat="42.7766133" lon="12.7702117"><ele>279.0</ele><time>2026-04-12T09:48:44.429Z</time></trkpt><trkpt lat="42.7763867" lon="12.7703333"><ele>281.0</ele><time>2026-04-12T09:48:45.426Z</time></trkpt><trkpt lat="42.7761667" lon="12.7704417"><ele>281.5</ele><time>2026-04-12T09:48:46.438Z</time></trkpt><trkpt lat="42.7759417" lon="12.770545"><ele>282.0</ele><time>2026-04-12T09:48:47.434Z</time></trkpt><trkpt lat="42.77572" lon="12.77064"><ele>282.0</ele><time>2026-04-12T09:48:48.435Z</time></trkpt><trkpt lat="42.7754983" lon="12.7707467"><ele>282.0</ele><time>2026-04-12T09:48:49.424Z</time></trkpt><trkpt lat="42.77526" lon="12.7708567"><ele>282.0</ele><time>2026-04-12T09:48:50.448Z</time></trkpt><trkpt lat="42.7750183" lon="12.770965"><ele>282.0</ele><time>2026-04-12T09:48:51.44Z</time></trkpt><trkpt lat="42.7747817" lon="12.7710767"><ele>282.0</ele><time>2026-04-12T09:48:52.427Z</time></trkpt><trkpt lat="42.77447" lon="12.7711"><ele>282.0</ele><time>2026-04-12T09:48:53.433Z</time></trkpt><trkpt lat="42.7742233" lon="12.771075"><ele>282.0</ele><time>2026-04-12T09:48:54.437Z</time></trkpt><trkpt lat="42.7739833" lon="12.7710517"><ele>282.0</ele><time>2026-04-12T09:48:55.441Z</time></trkpt><trkpt lat="42.7737367" lon="12.7709933"><ele>280.0</ele><time>2026-04-12T09:48:56.447Z</time></trkpt><trkpt lat="42.7734833" lon="12.770925"><ele>278.0</ele><time>2026-04-12T09:48:57.435Z</time></trkpt><trkpt lat="42.7732367" lon="12.7708517"><ele>278.0</ele><time>2026-04-12T09:48:58.434Z</time></trkpt><trkpt lat="42.7729917" lon="12.770775"><ele>278.0</ele><time>2026-04-12T09:48:59.436Z</time></trkpt><trkpt lat="42.772745" lon="12.7707017"><ele>277.0</ele><time>2026-04-12T09:49:00.449Z</time></trkpt><trkpt lat="42.7725033" lon="12.7706333"><ele>276.0</ele><time>2026-04-12T09:49:01.437Z</time></trkpt><trkpt lat="42.7722533" lon="12.7705683"><ele>276.0</ele><time>2026-04-12T09:49:02.436Z</time></trkpt><trkpt lat="42.772005" lon="12.7705067"><ele>276.0</ele><time>2026-04-12T09:49:03.435Z</time></trkpt><trkpt lat="42.771755" lon="12.7704433"><ele>275.0</ele><time>2026-04-12T09:49:04.43Z</time></trkpt><trkpt lat="42.7715067" lon="12.77038"><ele>274.0</ele><time>2026-04-12T09:49:05.449Z</time></trkpt><trkpt lat="42.7712617" lon="12.7703133"><ele>274.0</ele><time>2026-04-12T09:49:06.438Z</time></trkpt><trkpt lat="42.77102" lon="12.7702417"><ele>274.0</ele><time>2026-04-12T09:49:07.431Z</time></trkpt><trkpt lat="42.77078" lon="12.77017"><ele>273.66666666666663</ele><time>2026-04-12T09:49:08.438Z</time></trkpt><trkpt lat="42.770555" lon="12.770105"><ele>273.3333333333333</ele><time>2026-04-12T09:49:09.441Z</time></trkpt><trkpt lat="42.77035" lon="12.770045"><ele>273.0</ele><time>2026-04-12T09:49:10.441Z</time></trkpt><trkpt lat="42.770165" lon="12.7699883"><ele>272.6666666666667</ele><time>2026-04-12T09:49:11.452Z</time></trkpt><trkpt lat="42.7699917" lon="12.7699333"><ele>272.33333333333337</ele><time>2026-04-12T09:49:12.442Z</time></trkpt><trkpt lat="42.76983" lon="12.76988"><ele>272.0</ele><time>2026-04-12T09:49:13.438Z</time></trkpt><trkpt lat="42.7696717" lon="12.769825"><ele>272.0</ele><time>2026-04-12T09:49:14.435Z</time></trkpt><trkpt lat="42.76951" lon="12.76977"><ele>272.0</ele><time>2026-04-12T09:49:15.43Z</time></trkpt><trkpt lat="42.7693483" lon="12.7697167"><ele>272.0</ele><time>2026-04-12T09:49:16.428Z</time></trkpt><trkpt lat="42.7691883" lon="12.769665"><ele>273.6666666666667</ele><time>2026-04-12T09:49:17.437Z</time></trkpt><trkpt lat="42.7690317" lon="12.7696083"><ele>275.3333333333333</ele><time>2026-04-12T09:49:18.45Z</time></trkpt><trkpt lat="42.7688717" lon="12.76955"><ele>277.0</ele><time>2026-04-12T09:49:19.438Z</time></trkpt><trkpt lat="42.7687117" lon="12.7694917"><ele>277.0</ele><time>2026-04-12T09:49:20.439Z</time></trkpt><trkpt lat="42.7685533" lon="12.769435"><ele>277.0</ele><time>2026-04-12T09:49:21.436Z</time></trkpt><trkpt lat="42.7683967" lon="12.76938"><ele>277.0</ele><time>2026-04-12T09:49:22.441Z</time></trkpt><trkpt lat="42.7682433" lon="12.769325"><ele>276.66666666666663</ele><time>2026-04-12T09:49:23.433Z</time></trkpt><trkpt lat="42.7680917" lon="12.7692667"><ele>276.3333333333333</ele><time>2026-04-12T09:49:24.439Z</time></trkpt><trkpt lat="42.7679417" lon="12.76921"><ele>276.0</ele><time>2026-04-12T09:49:25.432Z</time></trkpt><trkpt lat="42.7677933" lon="12.76915"><ele>277.0</ele><time>2026-04-12T09:49:26.441Z</time></trkpt><trkpt lat="42.7676417" lon="12.769085"><ele>278.0</ele><time>2026-04-12T09:49:27.428Z</time></trkpt><trkpt lat="42.7674883" lon="12.7690233"><ele>279.0</ele><time>2026-04-12T09:49:28.439Z</time></trkpt><trkpt lat="42.7673367" lon="12.7689617"><ele>279.0</ele><time>2026-04-12T09:49:29.442Z</time></trkpt><trkpt lat="42.7671867" lon="12.768895"><ele>279.0</ele><time>2026-04-12T09:49:30.437Z</time></trkpt><trkpt lat="42.7670317" lon="12.768825"><ele>279.0</ele><time>2026-04-12T09:49:31.436Z</time></trkpt><trkpt lat="42.7668733" lon="12.7687483"><ele>278.6666666666667</ele><time>2026-04-12T09:49:32.436Z</time></trkpt><trkpt lat="42.766715" lon="12.7686667"><ele>278.33333333333337</ele><time>2026-04-12T09:49:33.441Z</time></trkpt><trkpt lat="42.7665567" lon="12.7685767"><ele>278.0</ele><time>2026-04-12T09:49:34.43Z</time></trkpt><trkpt lat="42.7664067" lon="12.768485"><ele>278.0</ele><time>2026-04-12T09:49:35.431Z</time></trkpt><trkpt lat="42.76627" lon="12.7683933"><ele>278.0</ele><time>2026-04-12T09:49:36.428Z</time></trkpt><trkpt lat="42.7661383" lon="12.7682967"><ele>278.0</ele><time>2026-04-12T09:49:37.423Z</time></trkpt><trkpt lat="42.7660167" lon="12.7681933"><ele>278.0</ele><time>2026-04-12T09:49:38.425Z</time></trkpt><trkpt lat="42.7659033" lon="12.76809"><ele>278.25</ele><time>2026-04-12T09:49:39.427Z</time></trkpt><trkpt lat="42.765805" lon="12.7679833"><ele>278.5</ele><time>2026-04-12T09:49:40.446Z</time></trkpt><trkpt lat="42.7657183" lon="12.7678667"><ele>278.75</ele><time>2026-04-12T09:49:41.435Z</time></trkpt><trkpt lat="42.7656517" lon="12.7677383"><ele>279.0</ele><time>2026-04-12T09:49:42.438Z</time></trkpt><trkpt lat="42.7656167" lon="12.767605"><ele>279.0</ele><time>2026-04-12T09:49:43.437Z</time></trkpt><trkpt lat="42.7656033" lon="12.76747"><ele>279.0</ele><time>2026-04-12T09:49:44.433Z</time></trkpt><trkpt lat="42.76561" lon="12.76733"><ele>279.0</ele><time>2026-04-12T09:49:45.436Z</time></trkpt><trkpt lat="42.765635" lon="12.7671967"><ele>279.0</ele><time>2026-04-12T09:49:46.434Z</time></trkpt><trkpt lat="42.7656917" lon="12.767075"><ele>279.0</ele><time>2026-04-12T09:49:47.435Z</time></trkpt><trkpt lat="42.7657733" lon="12.7669733"><ele>279.0</ele><time>2026-04-12T09:49:48.433Z</time></trkpt><trkpt lat="42.765875" lon="12.7668967"><ele>279.0</ele><time>2026-04-12T09:49:49.436Z</time></trkpt><trkpt lat="42.76599" lon="12.7668667"><ele>279.0</ele><time>2026-04-12T09:49:50.437Z</time></trkpt><trkpt lat="42.76611" lon="12.7668783"><ele>279.0</ele><time>2026-04-12T09:49:51.437Z</time></trkpt><trkpt lat="42.766225" lon="12.766925"><ele>278.0</ele><time>2026-04-12T09:49:52.433Z</time></trkpt><trkpt lat="42.7663217" lon="12.767025"><ele>277.0</ele><time>2026-04-12T09:49:53.432Z</time></trkpt><trkpt lat="42.7663967" lon="12.7671633"><ele>276.0</ele><time>2026-04-12T09:49:54.431Z</time></trkpt><trkpt lat="42.7664267" lon="12.7673117"><ele>275.0</ele><time>2026-04-12T09:49:55.444Z</time></trkpt><trkpt lat="42.7664333" lon="12.7674733"><ele>275.0</ele><time>2026-04-12T09:49:56.438Z</time></trkpt><trkpt lat="42.7664133" lon="12.7676433"><ele>275.0</ele><time>2026-04-12T09:49:57.433Z</time></trkpt><trkpt lat="42.7663633" lon="12.7677933"><ele>275.0</ele><time>2026-04-12T09:49:58.454Z</time></trkpt><trkpt lat="42.7662867" lon="12.7679067"><ele>275.0</ele><time>2026-04-12T09:49:59.431Z</time></trkpt><trkpt lat="42.766205" lon="12.7680183"><ele>275.6</ele><time>2026-04-12T09:50:00.444Z</time></trkpt><trkpt lat="42.7661333" lon="12.76811"><ele>276.2</ele><time>2026-04-12T09:50:01.437Z</time></trkpt><trkpt lat="42.7660667" lon="12.7681867"><ele>276.8</ele><time>2026-04-12T09:50:02.448Z</time></trkpt><trkpt lat="42.766005" lon="12.7682567"><ele>277.4</ele><time>2026-04-12T09:50:03.436Z</time></trkpt><trkpt lat="42.7659517" lon="12.768325"><ele>278.0</ele><time>2026-04-12T09:50:04.446Z</time></trkpt><trkpt lat="42.7658633" lon="12.7684217"><ele>278.4</ele><time>2026-04-12T09:50:06.44Z</time></trkpt><trkpt lat="42.7658" lon="12.7685083"><ele>278.8</ele><time>2026-04-12T09:50:08.438Z</time></trkpt><trkpt lat="42.7657417" lon="12.7685933"><ele>279.2</ele><time>2026-04-12T09:50:10.438Z</time></trkpt><trkpt lat="42.7656517" lon="12.7687233"><ele>279.6</ele><time>2026-04-12T09:50:12.436Z</time></trkpt><trkpt lat="42.765575" lon="12.76881"><ele>280.0</ele><time>2026-04-12T09:50:13.436Z</time></trkpt><trkpt lat="42.7654717" lon="12.7689217"><ele>280.0</ele><time>2026-04-12T09:50:14.433Z</time></trkpt><trkpt lat="42.76537" lon="12.769045"><ele>280.0</ele><time>2026-04-12T09:50:15.433Z</time></trkpt><trkpt lat="42.7652483" lon="12.7691967"><ele>280.0</ele><time>2026-04-12T09:50:16.435Z</time></trkpt><trkpt lat="42.765105" lon="12.7693667"><ele>281.66666666666663</ele><time>2026-04-12T09:50:17.436Z</time></trkpt><trkpt lat="42.7649433" lon="12.769535"><ele>283.3333333333333</ele><time>2026-04-12T09:50:18.434Z</time></trkpt><trkpt lat="42.76477" lon="12.769705"><ele>285.0</ele><time>2026-04-12T09:50:19.433Z</time></trkpt><trkpt lat="42.764595" lon="12.7698767"><ele>285.0</ele><time>2026-04-12T09:50:20.443Z</time></trkpt><trkpt lat="42.7644083" lon="12.7700567"><ele>285.0</ele><time>2026-04-12T09:50:21.44Z</time></trkpt><trkpt lat="42.7642167" lon="12.7702333"><ele>288.0</ele><time>2026-04-12T09:50:22.438Z</time></trkpt><trkpt lat="42.7640217" lon="12.770405"><ele>291.0</ele><time>2026-04-12T09:50:23.439Z</time></trkpt><trkpt lat="42.76382" lon="12.7705683"><ele>291.0</ele><time>2026-04-12T09:50:24.427Z</time></trkpt><trkpt lat="42.7636083" lon="12.77073"><ele>291.0</ele><time>2026-04-12T09:50:25.433Z</time></trkpt><trkpt lat="42.7633983" lon="12.7708783"><ele>292.5</ele><time>2026-04-12T09:50:26.44Z</time></trkpt><trkpt lat="42.7631833" lon="12.7710167"><ele>294.0</ele><time>2026-04-12T09:50:27.44Z</time></trkpt><trkpt lat="42.7629683" lon="12.7711483"><ele>294.0</ele><time>2026-04-12T09:50:28.435Z</time></trkpt><trkpt lat="42.7627517" lon="12.771265"><ele>294.0</ele><time>2026-04-12T09:50:29.442Z</time></trkpt><trkpt lat="42.7625317" lon="12.77137"><ele>296.5</ele><time>2026-04-12T09:50:30.437Z</time></trkpt><trkpt lat="42.76231" lon="12.7714617"><ele>299.0</ele><time>2026-04-12T09:50:31.448Z</time></trkpt><trkpt lat="42.7620883" lon="12.7715517"><ele>299.0</ele><time>2026-04-12T09:50:32.435Z</time></trkpt><trkpt lat="42.7618667" lon="12.7716517"><ele>299.0</ele><time>2026-04-12T09:50:33.437Z</time></trkpt><trkpt lat="42.76165" lon="12.7717517"><ele>300.5</ele><time>2026-04-12T09:50:34.439Z</time></trkpt><trkpt lat="42.7614283" lon="12.7718533"><ele>302.0</ele><time>2026-04-12T09:50:35.438Z</time></trkpt><trkpt lat="42.7612067" lon="12.7719567"><ele>305.5</ele><time>2026-04-12T09:50:36.437Z</time></trkpt><trkpt lat="42.7609817" lon="12.7720733"><ele>309.0</ele><time>2026-04-12T09:50:37.436Z</time></trkpt><trkpt lat="42.76076" lon="12.772195"><ele>309.0</ele><time>2026-04-12T09:50:38.441Z</time></trkpt><trkpt lat="42.7605383" lon="12.7723233"><ele>309.0</ele><time>2026-04-12T09:50:39.448Z</time></trkpt><trkpt lat="42.7603167" lon="12.7724517"><ele>311.5</ele><time>2026-04-12T09:50:40.442Z</time></trkpt><trkpt lat="42.7600917" lon="12.772585"><ele>314.0</ele><time>2026-04-12T09:50:41.438Z</time></trkpt><trkpt lat="42.7598783" lon="12.7727217"><ele>314.0</ele><time>2026-04-12T09:50:42.445Z</time></trkpt><trkpt lat="42.75967" lon="12.7728667"><ele>314.0</ele><time>2026-04-12T09:50:43.44Z</time></trkpt><trkpt lat="42.7594617" lon="12.773015"><ele>316.0</ele><time>2026-04-12T09:50:44.443Z</time></trkpt><trkpt lat="42.7592533" lon="12.7731667"><ele>318.0</ele><time>2026-04-12T09:50:45.447Z</time></trkpt><trkpt lat="42.7590467" lon="12.7733233"><ele>318.0</ele><time>2026-04-12T09:50:46.435Z</time></trkpt><trkpt lat="42.75884" lon="12.77348"><ele>318.0</ele><time>2026-04-12T09:50:47.436Z</time></trkpt><trkpt lat="42.7586333" lon="12.7736417"><ele>319.0</ele><time>2026-04-12T09:50:48.437Z</time></trkpt><trkpt lat="42.758425" lon="12.7738067"><ele>320.0</ele><time>2026-04-12T09:50:49.44Z</time></trkpt><trkpt lat="42.7582183" lon="12.773975"><ele>320.0</ele><time>2026-04-12T09:50:50.439Z</time></trkpt><trkpt lat="42.7580117" lon="12.7741433"><ele>320.0</ele><time>2026-04-12T09:50:51.438Z</time></trkpt><trkpt lat="42.7578067" lon="12.7743117"><ele>325.0</ele><time>2026-04-12T09:50:52.428Z</time></trkpt><trkpt lat="42.7576" lon="12.77448"><ele>330.0</ele><time>2026-04-12T09:50:53.435Z</time></trkpt><trkpt lat="42.757395" lon="12.7746467"><ele>330.0</ele><time>2026-04-12T09:50:54.435Z</time></trkpt><trkpt lat="42.75719" lon="12.7748167"><ele>330.0</ele><time>2026-04-12T09:50:55.436Z</time></trkpt><trkpt lat="42.756985" lon="12.7749883"><ele>332.5</ele><time>2026-04-12T09:50:56.438Z</time></trkpt><trkpt lat="42.7567767" lon="12.77516"><ele>335.0</ele><time>2026-04-12T09:50:57.432Z</time></trkpt><trkpt lat="42.7565733" lon="12.7753267"><ele>335.0</ele><time>2026-04-12T09:50:58.431Z</time></trkpt><trkpt lat="42.7563783" lon="12.7754833"><ele>335.0</ele><time>2026-04-12T09:50:59.434Z</time></trkpt><trkpt lat="42.7561967" lon="12.7756333"><ele>335.0</ele><time>2026-04-12T09:51:00.448Z</time></trkpt><trkpt lat="42.75602" lon="12.7757817"><ele>337.33333333333337</ele><time>2026-04-12T09:51:01.441Z</time></trkpt><trkpt lat="42.7558417" lon="12.775935"><ele>339.6666666666667</ele><time>2026-04-12T09:51:02.434Z</time></trkpt><trkpt lat="42.7556583" lon="12.7760933"><ele>342.0</ele><time>2026-04-12T09:51:03.439Z</time></trkpt><trkpt lat="42.7554783" lon="12.7762583"><ele>342.3333333333333</ele><time>2026-04-12T09:51:04.43Z</time></trkpt><trkpt lat="42.7552967" lon="12.7764283"><ele>342.66666666666663</ele><time>2026-04-12T09:51:05.444Z</time></trkpt><trkpt lat="42.755115" lon="12.7766017"><ele>343.0</ele><time>2026-04-12T09:51:06.435Z</time></trkpt><trkpt lat="42.754935" lon="12.7767833"><ele>349.5</ele><time>2026-04-12T09:51:07.432Z</time></trkpt><trkpt lat="42.7547533" lon="12.7769767"><ele>356.0</ele><time>2026-04-12T09:51:08.449Z</time></trkpt><trkpt lat="42.7545767" lon="12.77718"><ele>356.0</ele><time>2026-04-12T09:51:09.444Z</time></trkpt><trkpt lat="42.7544033" lon="12.7773933"><ele>356.0</ele><time>2026-04-12T09:51:10.434Z</time></trkpt><trkpt lat="42.7542333" lon="12.7776117"><ele>361.0</ele><time>2026-04-12T09:51:11.435Z</time></trkpt><trkpt lat="42.75407" lon="12.7778383"><ele>366.0</ele><time>2026-04-12T09:51:12.435Z</time></trkpt><trkpt lat="42.7539067" lon="12.77807"><ele>366.0</ele><time>2026-04-12T09:51:13.426Z</time></trkpt><trkpt lat="42.7537483" lon="12.7783067"><ele>366.0</ele><time>2026-04-12T09:51:14.437Z</time></trkpt><trkpt lat="42.7535983" lon="12.77855"><ele>375.5</ele><time>2026-04-12T09:51:15.434Z</time></trkpt><trkpt lat="42.75344" lon="12.7787833"><ele>385.0</ele><time>2026-04-12T09:51:16.43Z</time></trkpt><trkpt lat="42.7532817" lon="12.77902"><ele>385.0</ele><time>2026-04-12T09:51:17.45Z</time></trkpt><trkpt lat="42.75312" lon="12.7792583"><ele>385.0</ele><time>2026-04-12T09:51:18.426Z</time></trkpt><trkpt lat="42.752955" lon="12.7794917"><ele>341.0</ele><time>2026-04-12T09:51:19.444Z</time></trkpt><trkpt lat="42.74239" lon="12.8247183"><ele>329.0</ele><time>2026-04-12T09:53:56.426Z</time></trkpt><trkpt lat="42.74212" lon="12.8252333"><ele>329.0</ele><time>2026-04-12T09:53:57.439Z</time></trkpt><trkpt lat="42.741995" lon="12.8254267"><ele>329.0</ele><time>2026-04-12T09:53:58.442Z</time></trkpt><trkpt lat="42.7418767" lon="12.82561"><ele>329.0</ele><time>2026-04-12T09:53:59.435Z</time></trkpt><trkpt lat="42.7417567" lon="12.8257533"><ele>329.33333333333337</ele><time>2026-04-12T09:54:00.435Z</time></trkpt><trkpt lat="42.741625" lon="12.8258933"><ele>329.6666666666667</ele><time>2026-04-12T09:54:01.424Z</time></trkpt><trkpt lat="42.741485" lon="12.8260383"><ele>330.0</ele><time>2026-04-12T09:54:02.425Z</time></trkpt><trkpt lat="42.74134" lon="12.8261883"><ele>327.6666666666667</ele><time>2026-04-12T09:54:03.425Z</time></trkpt><trkpt lat="42.741185" lon="12.82633"><ele>325.33333333333337</ele><time>2026-04-12T09:54:04.432Z</time></trkpt><trkpt lat="42.7410283" lon="12.826465"><ele>323.0</ele><time>2026-04-12T09:54:05.447Z</time></trkpt><trkpt lat="42.7408733" lon="12.8265933"><ele>323.0</ele><time>2026-04-12T09:54:06.436Z</time></trkpt><trkpt lat="42.740715" lon="12.826715"><ele>323.0</ele><time>2026-04-12T09:54:07.438Z</time></trkpt><trkpt lat="42.740555" lon="12.8268317"><ele>323.0</ele><time>2026-04-12T09:54:08.436Z</time></trkpt><trkpt lat="42.74039" lon="12.826945"><ele>323.0</ele><time>2026-04-12T09:54:09.433Z</time></trkpt><trkpt lat="42.7402217" lon="12.827055"><ele>323.0</ele><time>2026-04-12T09:54:10.437Z</time></trkpt><trkpt lat="42.74005" lon="12.8271583"><ele>323.0</ele><time>2026-04-12T09:54:11.439Z</time></trkpt><trkpt lat="42.7398767" lon="12.8272567"><ele>320.0</ele><time>2026-04-12T09:54:12.43Z</time></trkpt><trkpt lat="42.7397067" lon="12.8273517"><ele>317.0</ele><time>2026-04-12T09:54:13.441Z</time></trkpt><trkpt lat="42.73954" lon="12.8274467"><ele>314.0</ele><time>2026-04-12T09:54:14.435Z</time></trkpt><trkpt lat="42.7393683" lon="12.8275417"><ele>313.33333333333337</ele><time>2026-04-12T09:54:15.435Z</time></trkpt><trkpt lat="42.7391917" lon="12.82764"><ele>312.6666666666667</ele><time>2026-04-12T09:54:16.441Z</time></trkpt><trkpt lat="42.7390133" lon="12.8277383"><ele>312.0</ele><time>2026-04-12T09:54:17.428Z</time></trkpt><trkpt lat="42.73884" lon="12.827835"><ele>310.6666666666667</ele><time>2026-04-12T09:54:18.428Z</time></trkpt><trkpt lat="42.7386667" lon="12.8279283"><ele>309.33333333333337</ele><time>2026-04-12T09:54:19.426Z</time></trkpt><trkpt lat="42.7384883" lon="12.828025"><ele>308.0</ele><time>2026-04-12T09:54:20.433Z</time></trkpt><trkpt lat="42.7383167" lon="12.828115"><ele>307.0</ele><time>2026-04-12T09:54:21.446Z</time></trkpt><trkpt lat="42.7381467" lon="12.8281933"><ele>306.0</ele><time>2026-04-12T09:54:22.428Z</time></trkpt><trkpt lat="42.7379767" lon="12.8282633"><ele>305.0</ele><time>2026-04-12T09:54:23.436Z</time></trkpt><trkpt lat="42.737805" lon="12.828335"><ele>306.0</ele><time>2026-04-12T09:54:24.433Z</time></trkpt><trkpt lat="42.7376317" lon="12.8284083"><ele>307.0</ele><time>2026-04-12T09:54:25.441Z</time></trkpt><trkpt lat="42.7374517" lon="12.8284883"><ele>308.0</ele><time>2026-04-12T09:54:26.442Z</time></trkpt><trkpt lat="42.7372733" lon="12.82857"><ele>306.0</ele><time>2026-04-12T09:54:27.437Z</time></trkpt><trkpt lat="42.7371017" lon="12.828655"><ele>304.0</ele><time>2026-04-12T09:54:28.436Z</time></trkpt><trkpt lat="42.7369317" lon="12.8287383"><ele>302.0</ele><time>2026-04-12T09:54:29.436Z</time></trkpt><trkpt lat="42.7367667" lon="12.8288217"><ele>301.33333333333337</ele><time>2026-04-12T09:54:30.434Z</time></trkpt><trkpt lat="42.7366067" lon="12.8289067"><ele>300.6666666666667</ele><time>2026-04-12T09:54:31.442Z</time></trkpt><trkpt lat="42.7364517" lon="12.8289817"><ele>300.0</ele><time>2026-04-12T09:54:32.434Z</time></trkpt><trkpt lat="42.7363" lon="12.82904"><ele>300.0</ele><time>2026-04-12T09:54:33.44Z</time></trkpt><trkpt lat="42.73615" lon="12.8290683"><ele>300.0</ele><time>2026-04-12T09:54:34.441Z</time></trkpt><trkpt lat="42.7360017" lon="12.8290617"><ele>300.0</ele><time>2026-04-12T09:54:35.429Z</time></trkpt><trkpt lat="42.7358633" lon="12.8290117"><ele>300.0</ele><time>2026-04-12T09:54:36.439Z</time></trkpt><trkpt lat="42.7357417" lon="12.8289317"><ele>298.75</ele><time>2026-04-12T09:54:37.442Z</time></trkpt><trkpt lat="42.735625" lon="12.828845"><ele>297.5</ele><time>2026-04-12T09:54:38.438Z</time></trkpt><trkpt lat="42.7355167" lon="12.828765"><ele>296.25</ele><time>2026-04-12T09:54:39.433Z</time></trkpt><trkpt lat="42.7354017" lon="12.8287117"><ele>295.0</ele><time>2026-04-12T09:54:40.432Z</time></trkpt><trkpt lat="42.7352817" lon="12.8286717"><ele>293.0</ele><time>2026-04-12T09:54:41.446Z</time></trkpt><trkpt lat="42.73514" lon="12.8286583"><ele>291.0</ele><time>2026-04-12T09:54:42.437Z</time></trkpt><trkpt lat="42.7349783" lon="12.82866"><ele>289.0</ele><time>2026-04-12T09:54:43.442Z</time></trkpt><trkpt lat="42.7348033" lon="12.8286683"><ele>289.0</ele><time>2026-04-12T09:54:44.431Z</time></trkpt><trkpt lat="42.7346233" lon="12.8286783"><ele>289.0</ele><time>2026-04-12T09:54:45.438Z</time></trkpt><trkpt lat="42.7344417" lon="12.8286783"><ele>289.0</ele><time>2026-04-12T09:54:46.442Z</time></trkpt><trkpt lat="42.7342517" lon="12.8286833"><ele>289.0</ele><time>2026-04-12T09:54:47.433Z</time></trkpt><trkpt lat="42.7340617" lon="12.828685"><ele>289.0</ele><time>2026-04-12T09:54:48.436Z</time></trkpt><trkpt lat="42.73386" lon="12.8286983"><ele>289.0</ele><time>2026-04-12T09:54:49.426Z</time></trkpt><trkpt lat="42.7336483" lon="12.8287167"><ele>288.5</ele><time>2026-04-12T09:54:50.439Z</time></trkpt><trkpt lat="42.7334217" lon="12.8287217"><ele>288.0</ele><time>2026-04-12T09:54:51.431Z</time></trkpt><trkpt lat="42.7331833" lon="12.8287233"><ele>288.0</ele><time>2026-04-12T09:54:52.437Z</time></trkpt><trkpt lat="42.7329367" lon="12.82873"><ele>288.0</ele><time>2026-04-12T09:54:53.438Z</time></trkpt><trkpt lat="42.7326967" lon="12.8287283"><ele>286.5</ele><time>2026-04-12T09:54:54.444Z</time></trkpt><trkpt lat="42.7324633" lon="12.8287167"><ele>285.0</ele><time>2026-04-12T09:54:55.434Z</time></trkpt><trkpt lat="42.7322317" lon="12.828705"><ele>285.0</ele><time>2026-04-12T09:54:56.439Z</time></trkpt><trkpt lat="42.7320083" lon="12.828705"><ele>285.0</ele><time>2026-04-12T09:54:57.44Z</time></trkpt><trkpt lat="42.7317817" lon="12.8287217"><ele>285.0</ele><time>2026-04-12T09:54:58.44Z</time></trkpt><trkpt lat="42.73155" lon="12.82876"><ele>285.0</ele><time>2026-04-12T09:54:59.431Z</time></trkpt><trkpt lat="42.7313183" lon="12.8288133"><ele>285.0</ele><time>2026-04-12T09:55:00.44Z</time></trkpt><trkpt lat="42.7310867" lon="12.8288833"><ele>285.0</ele><time>2026-04-12T09:55:01.441Z</time></trkpt><trkpt lat="42.730855" lon="12.828955"><ele>287.0</ele><time>2026-04-12T09:55:02.438Z</time></trkpt><trkpt lat="42.7306233" lon="12.82903"><ele>289.0</ele><time>2026-04-12T09:55:03.434Z</time></trkpt><trkpt lat="42.7303933" lon="12.8291017"><ele>288.5</ele><time>2026-04-12T09:55:04.427Z</time></trkpt><trkpt lat="42.73016" lon="12.8291767"><ele>288.0</ele><time>2026-04-12T09:55:05.433Z</time></trkpt><trkpt lat="42.7299267" lon="12.829255"><ele>286.0</ele><time>2026-04-12T09:55:06.44Z</time></trkpt><trkpt lat="42.7296933" lon="12.8293267"><ele>284.0</ele><time>2026-04-12T09:55:07.442Z</time></trkpt><trkpt lat="42.7294583" lon="12.829395"><ele>283.5</ele><time>2026-04-12T09:55:08.441Z</time></trkpt><trkpt lat="42.7292283" lon="12.8294633"><ele>283.0</ele><time>2026-04-12T09:55:09.424Z</time></trkpt><trkpt lat="42.729005" lon="12.8295283"><ele>283.0</ele><time>2026-04-12T09:55:10.437Z</time></trkpt><trkpt lat="42.72879" lon="12.8295833"><ele>283.0</ele><time>2026-04-12T09:55:11.437Z</time></trkpt><trkpt lat="42.728585" lon="12.8296167"><ele>283.0</ele><time>2026-04-12T09:55:12.438Z</time></trkpt><trkpt lat="42.7283867" lon="12.8296217"><ele>283.66666666666663</ele><time>2026-04-12T09:55:13.443Z</time></trkpt><trkpt lat="42.7281917" lon="12.829575"><ele>284.3333333333333</ele><time>2026-04-12T09:55:14.43Z</time></trkpt><trkpt lat="42.727985" lon="12.8294783"><ele>285.0</ele><time>2026-04-12T09:55:15.44Z</time></trkpt><trkpt lat="42.7277783" lon="12.8293367"><ele>285.5</ele><time>2026-04-12T09:55:16.446Z</time></trkpt><trkpt lat="42.72757" lon="12.8291833"><ele>286.0</ele><time>2026-04-12T09:55:17.439Z</time></trkpt><trkpt lat="42.7273583" lon="12.8290283"><ele>286.0</ele><time>2026-04-12T09:55:18.441Z</time></trkpt><trkpt lat="42.727145" lon="12.8288767"><ele>286.0</ele><time>2026-04-12T09:55:19.424Z</time></trkpt><trkpt lat="42.7269317" lon="12.82874"><ele>284.0</ele><time>2026-04-12T09:55:20.444Z</time></trkpt><trkpt lat="42.72671" lon="12.828625"><ele>282.0</ele><time>2026-04-12T09:55:21.436Z</time></trkpt><trkpt lat="42.72648" lon="12.8285483"><ele>282.0</ele><time>2026-04-12T09:55:22.436Z</time></trkpt><trkpt lat="42.7262383" lon="12.8285067"><ele>282.0</ele><time>2026-04-12T09:55:23.44Z</time></trkpt><trkpt lat="42.726" lon="12.8284883"><ele>285.3333333333333</ele><time>2026-04-12T09:55:24.433Z</time></trkpt><trkpt lat="42.7257767" lon="12.8284683"><ele>288.66666666666663</ele><time>2026-04-12T09:55:25.43Z</time></trkpt><trkpt lat="42.7255617" lon="12.8284467"><ele>292.0</ele><time>2026-04-12T09:55:26.444Z</time></trkpt><trkpt lat="42.7253283" lon="12.8284333"><ele>291.5</ele><time>2026-04-12T09:55:27.44Z</time></trkpt><trkpt lat="42.7250967" lon="12.8283933"><ele>291.0</ele><time>2026-04-12T09:55:28.437Z</time></trkpt><trkpt lat="42.7248733" lon="12.82831"><ele>291.0</ele><time>2026-04-12T09:55:29.437Z</time></trkpt><trkpt lat="42.7246517" lon="12.8282033"><ele>291.0</ele><time>2026-04-12T09:55:30.44Z</time></trkpt><trkpt lat="42.72443" lon="12.8280883"><ele>289.0</ele><time>2026-04-12T09:55:31.429Z</time></trkpt><trkpt lat="42.7242067" lon="12.8279683"><ele>287.0</ele><time>2026-04-12T09:55:32.438Z</time></trkpt><trkpt lat="42.72398" lon="12.8278467"><ele>287.0</ele><time>2026-04-12T09:55:33.437Z</time></trkpt><trkpt lat="42.7237517" lon="12.827725"><ele>287.0</ele><time>2026-04-12T09:55:34.423Z</time></trkpt><trkpt lat="42.72353" lon="12.8276117"><ele>289.33333333333337</ele><time>2026-04-12T09:55:35.436Z</time></trkpt><trkpt lat="42.7233233" lon="12.8274983"><ele>291.6666666666667</ele><time>2026-04-12T09:55:36.439Z</time></trkpt><trkpt lat="42.723125" lon="12.8273933"><ele>294.0</ele><time>2026-04-12T09:55:37.442Z</time></trkpt><trkpt lat="42.722935" lon="12.8273033"><ele>294.0</ele><time>2026-04-12T09:55:38.438Z</time></trkpt><trkpt lat="42.722755" lon="12.8272417"><ele>294.0</ele><time>2026-04-12T09:55:39.427Z</time></trkpt><trkpt lat="42.7225783" lon="12.82721"><ele>294.0</ele><time>2026-04-12T09:55:40.44Z</time></trkpt><trkpt lat="42.7224033" lon="12.82719"><ele>291.0</ele><time>2026-04-12T09:55:41.432Z</time></trkpt><trkpt lat="42.7222083" lon="12.827165"><ele>288.0</ele><time>2026-04-12T09:55:42.432Z</time></trkpt><trkpt lat="42.7219967" lon="12.8271317"><ele>285.0</ele><time>2026-04-12T09:55:43.449Z</time></trkpt><trkpt lat="42.7217733" lon="12.827085"><ele>284.6666666666667</ele><time>2026-04-12T09:55:44.439Z</time></trkpt><trkpt lat="42.72155" lon="12.8270483"><ele>284.33333333333337</ele><time>2026-04-12T09:55:45.425Z</time></trkpt><trkpt lat="42.7213383" lon="12.8270083"><ele>284.0</ele><time>2026-04-12T09:55:46.434Z</time></trkpt><trkpt lat="42.7211283" lon="12.8269817"><ele>285.0</ele><time>2026-04-12T09:55:47.431Z</time></trkpt><trkpt lat="42.7209267" lon="12.8269533"><ele>286.0</ele><time>2026-04-12T09:55:48.432Z</time></trkpt><trkpt lat="42.7207283" lon="12.8269317"><ele>287.0</ele><time>2026-04-12T09:55:49.431Z</time></trkpt><trkpt lat="42.7205267" lon="12.8269083"><ele>287.0</ele><time>2026-04-12T09:55:50.444Z</time></trkpt><trkpt lat="42.7203267" lon="12.8268883"><ele>287.0</ele><time>2026-04-12T09:55:51.424Z</time></trkpt><trkpt lat="42.7201133" lon="12.8268733"><ele>287.0</ele><time>2026-04-12T09:55:52.436Z</time></trkpt><trkpt lat="42.7198933" lon="12.8268683"><ele>286.5</ele><time>2026-04-12T09:55:53.43Z</time></trkpt><trkpt lat="42.7196683" lon="12.82688"><ele>286.0</ele><time>2026-04-12T09:55:54.436Z</time></trkpt><trkpt lat="42.7194417" lon="12.8269233"><ele>286.5</ele><time>2026-04-12T09:55:55.441Z</time></trkpt><trkpt lat="42.7192167" lon="12.8270017"><ele>287.0</ele><time>2026-04-12T09:55:56.434Z</time></trkpt><trkpt lat="42.7189917" lon="12.827105"><ele>287.0</ele><time>2026-04-12T09:55:57.431Z</time></trkpt><trkpt lat="42.7187717" lon="12.8272283"><ele>287.0</ele><time>2026-04-12T09:55:58.43Z</time></trkpt><trkpt lat="42.7185617" lon="12.82737"><ele>286.5</ele><time>2026-04-12T09:55:59.437Z</time></trkpt><trkpt lat="42.7183633" lon="12.8275467"><ele>286.0</ele><time>2026-04-12T09:56:00.446Z</time></trkpt><trkpt lat="42.718185" lon="12.8277467"><ele>286.0</ele><time>2026-04-12T09:56:01.435Z</time></trkpt><trkpt lat="42.71802" lon="12.8279533"><ele>286.0</ele><time>2026-04-12T09:56:02.455Z</time></trkpt><trkpt lat="42.7178583" lon="12.8281433"><ele>286.0</ele><time>2026-04-12T09:56:03.433Z</time></trkpt><trkpt lat="42.7176883" lon="12.8283133"><ele>284.0</ele><time>2026-04-12T09:56:04.433Z</time></trkpt><trkpt lat="42.7174983" lon="12.82846"><ele>282.0</ele><time>2026-04-12T09:56:05.438Z</time></trkpt><trkpt lat="42.7173017" lon="12.8285783"><ele>280.0</ele><time>2026-04-12T09:56:06.439Z</time></trkpt><trkpt lat="42.717115" lon="12.8286633"><ele>280.0</ele><time>2026-04-12T09:56:07.435Z</time></trkpt><trkpt lat="42.716955" lon="12.8287233"><ele>280.0</ele><time>2026-04-12T09:56:08.44Z</time></trkpt><trkpt lat="42.7168133" lon="12.8287683"><ele>280.0</ele><time>2026-04-12T09:56:09.422Z</time></trkpt><trkpt lat="42.716675" lon="12.828815"><ele>280.25</ele><time>2026-04-12T09:56:10.434Z</time></trkpt><trkpt lat="42.7165433" lon="12.8288567"><ele>280.5</ele><time>2026-04-12T09:56:11.438Z</time></trkpt><trkpt lat="42.716415" lon="12.8289083"><ele>280.75</ele><time>2026-04-12T09:56:12.435Z</time></trkpt><trkpt lat="42.7162967" lon="12.8289433"><ele>281.0</ele><time>2026-04-12T09:56:13.438Z</time></trkpt><trkpt lat="42.7161867" lon="12.8289783"><ele>281.0</ele><time>2026-04-12T09:56:14.443Z</time></trkpt><trkpt lat="42.7160767" lon="12.82902"><ele>281.0</ele><time>2026-04-12T09:56:15.431Z</time></trkpt><trkpt lat="42.7159683" lon="12.82906"><ele>281.0</ele><time>2026-04-12T09:56:16.431Z</time></trkpt><trkpt lat="42.715855" lon="12.829105"><ele>281.0</ele><time>2026-04-12T09:56:17.431Z</time></trkpt><trkpt lat="42.7157383" lon="12.82915"><ele>279.5</ele><time>2026-04-12T09:56:18.44Z</time></trkpt><trkpt lat="42.7156217" lon="12.829195"><ele>278.0</ele><time>2026-04-12T09:56:19.426Z</time></trkpt><trkpt lat="42.715505" lon="12.82924"><ele>276.5</ele><time>2026-04-12T09:56:20.431Z</time></trkpt><trkpt lat="42.71539" lon="12.82928"><ele>275.0</ele><time>2026-04-12T09:56:21.434Z</time></trkpt><trkpt lat="42.71527" lon="12.8293217"><ele>275.4</ele><time>2026-04-12T09:56:22.432Z</time></trkpt><trkpt lat="42.715155" lon="12.8293667"><ele>275.8</ele><time>2026-04-12T09:56:23.454Z</time></trkpt><trkpt lat="42.71505" lon="12.82941"><ele>276.2</ele><time>2026-04-12T09:56:24.44Z</time></trkpt><trkpt lat="42.714955" lon="12.8294483"><ele>276.6</ele><time>2026-04-12T09:56:25.438Z</time></trkpt><trkpt lat="42.7148617" lon="12.8294817"><ele>277.0</ele><time>2026-04-12T09:56:26.441Z</time></trkpt><trkpt lat="42.7147683" lon="12.8295133"><ele>277.0</ele><time>2026-04-12T09:56:27.431Z</time></trkpt><trkpt lat="42.714675" lon="12.8295467"><ele>277.0</ele><time>2026-04-12T09:56:28.442Z</time></trkpt><trkpt lat="42.714585" lon="12.8295767"><ele>277.0</ele><time>2026-04-12T09:56:29.433Z</time></trkpt><trkpt lat="42.714495" lon="12.82961"><ele>277.0</ele><time>2026-04-12T09:56:30.44Z</time></trkpt><trkpt lat="42.7144067" lon="12.8296383"><ele>277.0</ele><time>2026-04-12T09:56:31.441Z</time></trkpt><trkpt lat="42.71432" lon="12.8296683"><ele>277.8333333333333</ele><time>2026-04-12T09:56:32.433Z</time></trkpt><trkpt lat="42.7142333" lon="12.829705"><ele>278.66666666666663</ele><time>2026-04-12T09:56:33.444Z</time></trkpt><trkpt lat="42.7141517" lon="12.8297317"><ele>279.5</ele><time>2026-04-12T09:56:34.426Z</time></trkpt><trkpt lat="42.714085" lon="12.8297567"><ele>280.3333333333333</ele><time>2026-04-12T09:56:35.453Z</time></trkpt><trkpt lat="42.7140233" lon="12.8297833"><ele>281.1666666666667</ele><time>2026-04-12T09:56:36.432Z</time></trkpt><trkpt lat="42.7139633" lon="12.8298133"><ele>282.0</ele><time>2026-04-12T09:56:37.432Z</time></trkpt><trkpt lat="42.7138567" lon="12.8298517"><ele>282.0</ele><time>2026-04-12T09:56:39.435Z</time></trkpt><trkpt lat="42.713755" lon="12.8298717"><ele>282.0</ele><time>2026-04-12T09:56:41.436Z</time></trkpt><trkpt lat="42.7136617" lon="12.8298667"><ele>282.0</ele><time>2026-04-12T09:56:43.441Z</time></trkpt><trkpt lat="42.713565" lon="12.8298333"><ele>282.0</ele><time>2026-04-12T09:56:45.423Z</time></trkpt><trkpt lat="42.71347" lon="12.8298067"><ele>282.0</ele><time>2026-04-12T09:56:47.439Z</time></trkpt><trkpt lat="42.7133733" lon="12.82976"><ele>282.0</ele><time>2026-04-12T09:56:49.438Z</time></trkpt><trkpt lat="42.71327" lon="12.8297183"><ele>282.0</ele><time>2026-04-12T09:56:51.436Z</time></trkpt><trkpt lat="42.713155" lon="12.8296767"><ele>282.0</ele><time>2026-04-12T09:56:53.436Z</time></trkpt><trkpt lat="42.7130883" lon="12.8296567"><ele>282.0</ele><time>2026-04-12T09:56:54.435Z</time></trkpt><trkpt lat="42.7130183" lon="12.8296383"><ele>282.0</ele><time>2026-04-12T09:56:55.435Z</time></trkpt><trkpt lat="42.7129433" lon="12.8296183"><ele>282.0</ele><time>2026-04-12T09:56:56.441Z</time></trkpt><trkpt lat="42.71286" lon="12.8295933"><ele>282.0</ele><time>2026-04-12T09:56:57.434Z</time></trkpt><trkpt lat="42.7127767" lon="12.8295583"><ele>282.0</ele><time>2026-04-12T09:56:58.445Z</time></trkpt><trkpt lat="42.7126833" lon="12.829525"><ele>282.0</ele><time>2026-04-12T09:56:59.426Z</time></trkpt><trkpt lat="42.712585" lon="12.8294967"><ele>282.0</ele><time>2026-04-12T09:57:00.439Z</time></trkpt><trkpt lat="42.71248" lon="12.82947"><ele>282.0</ele><time>2026-04-12T09:57:01.436Z</time></trkpt><trkpt lat="42.7123767" lon="12.829445"><ele>281.75</ele><time>2026-04-12T09:57:02.425Z</time></trkpt><trkpt lat="42.7122767" lon="12.8294183"><ele>281.5</ele><time>2026-04-12T09:57:03.433Z</time></trkpt><trkpt lat="42.7121617" lon="12.8293933"><ele>281.25</ele><time>2026-04-12T09:57:04.442Z</time></trkpt><trkpt lat="42.7120417" lon="12.8293733"><ele>281.0</ele><time>2026-04-12T09:57:05.431Z</time></trkpt><trkpt lat="42.71191" lon="12.8293583"><ele>280.5</ele><time>2026-04-12T09:57:06.44Z</time></trkpt><trkpt lat="42.711775" lon="12.8293483"><ele>280.0</ele><time>2026-04-12T09:57:07.439Z</time></trkpt><trkpt lat="42.7116383" lon="12.8293433"><ele>279.5</ele><time>2026-04-12T09:57:08.444Z</time></trkpt><trkpt lat="42.711495" lon="12.829345"><ele>279.0</ele><time>2026-04-12T09:57:09.435Z</time></trkpt><trkpt lat="42.7113483" lon="12.82935"><ele>279.0</ele><time>2026-04-12T09:57:10.437Z</time></trkpt><trkpt lat="42.7112" lon="12.8293617"><ele>279.0</ele><time>2026-04-12T09:57:11.444Z</time></trkpt><trkpt lat="42.71105" lon="12.829375"><ele>279.0</ele><time>2026-04-12T09:57:12.431Z</time></trkpt><trkpt lat="42.7108967" lon="12.8293883"><ele>278.6666666666667</ele><time>2026-04-12T09:57:13.441Z</time></trkpt><trkpt lat="42.7107433" lon="12.8293983"><ele>278.33333333333337</ele><time>2026-04-12T09:57:14.451Z</time></trkpt><trkpt lat="42.71059" lon="12.8294067"><ele>278.0</ele><time>2026-04-12T09:57:15.431Z</time></trkpt><trkpt lat="42.7104367" lon="12.8294133"><ele>278.0</ele><time>2026-04-12T09:57:16.435Z</time></trkpt><trkpt lat="42.7102833" lon="12.8294217"><ele>278.0</ele><time>2026-04-12T09:57:17.438Z</time></trkpt><trkpt lat="42.7101317" lon="12.8294233"><ele>278.0</ele><time>2026-04-12T09:57:18.439Z</time></trkpt><trkpt lat="42.709985" lon="12.8294283"><ele>278.25</ele><time>2026-04-12T09:57:19.443Z</time></trkpt><trkpt lat="42.7098433" lon="12.8294167"><ele>278.5</ele><time>2026-04-12T09:57:20.438Z</time></trkpt><trkpt lat="42.7096983" lon="12.829395"><ele>278.75</ele><time>2026-04-12T09:57:21.442Z</time></trkpt><trkpt lat="42.70956" lon="12.8293533"><ele>279.0</ele><time>2026-04-12T09:57:22.438Z</time></trkpt><trkpt lat="42.7094317" lon="12.8293"><ele>280.75</ele><time>2026-04-12T09:57:23.437Z</time></trkpt><trkpt lat="42.7093167" lon="12.8292267"><ele>282.5</ele><time>2026-04-12T09:57:24.447Z</time></trkpt><trkpt lat="42.7092117" lon="12.8291333"><ele>284.25</ele><time>2026-04-12T09:57:25.426Z</time></trkpt><trkpt lat="42.709115" lon="12.8290233"><ele>286.0</ele><time>2026-04-12T09:57:26.443Z</time></trkpt><trkpt lat="42.709025" lon="12.8288983"><ele>286.0</ele><time>2026-04-12T09:57:27.422Z</time></trkpt><trkpt lat="42.7089383" lon="12.8287717"><ele>286.0</ele><time>2026-04-12T09:57:28.436Z</time></trkpt><trkpt lat="42.7088533" lon="12.8286467"><ele>286.0</ele><time>2026-04-12T09:57:29.43Z</time></trkpt><trkpt lat="42.70877" lon="12.828515"><ele>286.0</ele><time>2026-04-12T09:57:30.442Z</time></trkpt><trkpt lat="42.7086833" lon="12.8283817"><ele>285.5</ele><time>2026-04-12T09:57:31.433Z</time></trkpt><trkpt lat="42.7085933" lon="12.82825"><ele>285.0</ele><time>2026-04-12T09:57:32.443Z</time></trkpt><trkpt lat="42.7085017" lon="12.82812"><ele>284.5</ele><time>2026-04-12T09:57:33.438Z</time></trkpt><trkpt lat="42.7084133" lon="12.82799"><ele>284.0</ele><time>2026-04-12T09:57:34.442Z</time></trkpt><trkpt lat="42.708325" lon="12.8278733"><ele>284.0</ele><time>2026-04-12T09:57:35.444Z</time></trkpt><trkpt lat="42.70823" lon="12.8277667"><ele>284.0</ele><time>2026-04-12T09:57:36.439Z</time></trkpt><trkpt lat="42.7081267" lon="12.8276683"><ele>284.0</ele><time>2026-04-12T09:57:37.431Z</time></trkpt><trkpt lat="42.7080133" lon="12.82759"><ele>284.0</ele><time>2026-04-12T09:57:38.43Z</time></trkpt><trkpt lat="42.70789" lon="12.82753"><ele>285.75</ele><time>2026-04-12T09:57:39.434Z</time></trkpt><trkpt lat="42.7077667" lon="12.827485"><ele>287.5</ele><time>2026-04-12T09:57:40.432Z</time></trkpt><trkpt lat="42.7076483" lon="12.8274483"><ele>289.25</ele><time>2026-04-12T09:57:41.433Z</time></trkpt><trkpt lat="42.70753" lon="12.8274167"><ele>291.0</ele><time>2026-04-12T09:57:42.438Z</time></trkpt><trkpt lat="42.707405" lon="12.8273983"><ele>291.0</ele><time>2026-04-12T09:57:43.436Z</time></trkpt><trkpt lat="42.7072767" lon="12.8273817"><ele>291.0</ele><time>2026-04-12T09:57:44.442Z</time></trkpt><trkpt lat="42.7071517" lon="12.8273633"><ele>291.0</ele><time>2026-04-12T09:57:45.442Z</time></trkpt><trkpt lat="42.7070317" lon="12.8273417"><ele>291.0</ele><time>2026-04-12T09:57:46.431Z</time></trkpt><trkpt lat="42.7069167" lon="12.8273217"><ele>288.75</ele><time>2026-04-12T09:57:47.431Z</time></trkpt><trkpt lat="42.7068017" lon="12.827295"><ele>286.5</ele><time>2026-04-12T09:57:48.437Z</time></trkpt><trkpt lat="42.7066867" lon="12.8272683"><ele>284.25</ele><time>2026-04-12T09:57:49.436Z</time></trkpt><trkpt lat="42.7065667" lon="12.8272467"><ele>282.0</ele><time>2026-04-12T09:57:50.437Z</time></trkpt><trkpt lat="42.70645" lon="12.8272267"><ele>282.0</ele><time>2026-04-12T09:57:51.432Z</time></trkpt><trkpt lat="42.7063333" lon="12.827205"><ele>282.0</ele><time>2026-04-12T09:57:52.44Z</time></trkpt><trkpt lat="42.7062133" lon="12.8271933"><ele>282.0</ele><time>2026-04-12T09:57:53.44Z</time></trkpt><trkpt lat="42.70609" lon="12.8271983"><ele>282.0</ele><time>2026-04-12T09:57:54.441Z</time></trkpt><trkpt lat="42.705965" lon="12.8272267"><ele>282.75</ele><time>2026-04-12T09:57:55.44Z</time></trkpt><trkpt lat="42.7058417" lon="12.827265"><ele>283.5</ele><time>2026-04-12T09:57:56.447Z</time></trkpt><trkpt lat="42.705725" lon="12.8273117"><ele>284.25</ele><time>2026-04-12T09:57:57.442Z</time></trkpt><trkpt lat="42.7056083" lon="12.8273667"><ele>285.0</ele><time>2026-04-12T09:57:58.437Z</time></trkpt><trkpt lat="42.7054917" lon="12.827405"><ele>285.0</ele><time>2026-04-12T09:57:59.434Z</time></trkpt><trkpt lat="42.705375" lon="12.827425"><ele>285.0</ele><time>2026-04-12T09:58:00.433Z</time></trkpt><trkpt lat="42.7052633" lon="12.827415"><ele>285.0</ele><time>2026-04-12T09:58:01.442Z</time></trkpt><trkpt lat="42.7051617" lon="12.8273433"><ele>285.0</ele><time>2026-04-12T09:58:02.424Z</time></trkpt><trkpt lat="42.705075" lon="12.82727"><ele>285.0</ele><time>2026-04-12T09:58:03.436Z</time></trkpt><trkpt lat="42.705005" lon="12.8271883"><ele>284.6</ele><time>2026-04-12T09:58:04.426Z</time></trkpt><trkpt lat="42.70494" lon="12.8270933"><ele>284.2</ele><time>2026-04-12T09:58:05.442Z</time></trkpt><trkpt lat="42.7048767" lon="12.8269867"><ele>283.8</ele><time>2026-04-12T09:58:06.424Z</time></trkpt><trkpt lat="42.7048067" lon="12.82688"><ele>283.4</ele><time>2026-04-12T09:58:07.443Z</time></trkpt><trkpt lat="42.7047417" lon="12.8267617"><ele>283.0</ele><time>2026-04-12T09:58:08.443Z</time></trkpt><trkpt lat="42.704675" lon="12.8266433"><ele>283.0</ele><time>2026-04-12T09:58:09.444Z</time></trkpt><trkpt lat="42.7046067" lon="12.8265267"><ele>283.0</ele><time>2026-04-12T09:58:10.436Z</time></trkpt><trkpt lat="42.7045317" lon="12.8264217"><ele>283.0</ele><time>2026-04-12T09:58:11.438Z</time></trkpt><trkpt lat="42.704445" lon="12.826335"><ele>283.0</ele><time>2026-04-12T09:58:12.448Z</time></trkpt><trkpt lat="42.7043367" lon="12.826275"><ele>283.0</ele><time>2026-04-12T09:58:13.432Z</time></trkpt><trkpt lat="42.7042217" lon="12.8262383"><ele>283.0</ele><time>2026-04-12T09:58:14.443Z</time></trkpt><trkpt lat="42.7041033" lon="12.82622"><ele>283.0</ele><time>2026-04-12T09:58:15.434Z</time></trkpt><trkpt lat="42.70398" lon="12.8262233"><ele>283.0</ele><time>2026-04-12T09:58:16.435Z</time></trkpt><trkpt lat="42.7038583" lon="12.8262517"><ele>283.0</ele><time>2026-04-12T09:58:17.433Z</time></trkpt><trkpt lat="42.7037383" lon="12.826285"><ele>283.0</ele><time>2026-04-12T09:58:18.433Z</time></trkpt><trkpt lat="42.70362" lon="12.8262917"><ele>283.0</ele><time>2026-04-12T09:58:19.429Z</time></trkpt><trkpt lat="42.7035067" lon="12.8262567"><ele>283.0</ele><time>2026-04-12T09:58:20.436Z</time></trkpt><trkpt lat="42.7034067" lon="12.8261817"><ele>283.0</ele><time>2026-04-12T09:58:21.444Z</time></trkpt><trkpt lat="42.7033183" lon="12.8260917"><ele>282.8</ele><time>2026-04-12T09:58:22.433Z</time></trkpt><trkpt lat="42.7032467" lon="12.8259933"><ele>282.6</ele><time>2026-04-12T09:58:23.442Z</time></trkpt><trkpt lat="42.703185" lon="12.8258883"><ele>282.4</ele><time>2026-04-12T09:58:24.445Z</time></trkpt><trkpt lat="42.703125" lon="12.8257733"><ele>282.2</ele><time>2026-04-12T09:58:25.435Z</time></trkpt><trkpt lat="42.703065" lon="12.825655"><ele>282.0</ele><time>2026-04-12T09:58:26.441Z</time></trkpt><trkpt lat="42.702995" lon="12.825545"><ele>281.75</ele><time>2026-04-12T09:58:27.432Z</time></trkpt><trkpt lat="42.7029217" lon="12.82544"><ele>281.5</ele><time>2026-04-12T09:58:28.442Z</time></trkpt><trkpt lat="42.7028333" lon="12.8253467"><ele>281.25</ele><time>2026-04-12T09:58:29.426Z</time></trkpt><trkpt lat="42.7027317" lon="12.825265"><ele>281.0</ele><time>2026-04-12T09:58:30.437Z</time></trkpt><trkpt lat="42.7026117" lon="12.825205"><ele>281.0</ele><time>2026-04-12T09:58:31.441Z</time></trkpt><trkpt lat="42.702485" lon="12.825175"><ele>281.0</ele><time>2026-04-12T09:58:32.441Z</time></trkpt><trkpt lat="42.70235" lon="12.8251817"><ele>281.0</ele><time>2026-04-12T09:58:33.443Z</time></trkpt><trkpt lat="42.7022183" lon="12.8252117"><ele>281.0</ele><time>2026-04-12T09:58:34.433Z</time></trkpt><trkpt lat="42.70209" lon="12.8252567"><ele>281.0</ele><time>2026-04-12T09:58:35.431Z</time></trkpt><trkpt lat="42.70197" lon="12.8253033"><ele>281.0</ele><time>2026-04-12T09:58:36.438Z</time></trkpt><trkpt lat="42.7018483" lon="12.8253633"><ele>281.0</ele><time>2026-04-12T09:58:37.44Z</time></trkpt><trkpt lat="42.7017233" lon="12.8254233"><ele>281.0</ele><time>2026-04-12T09:58:38.445Z</time></trkpt><trkpt lat="42.7015933" lon="12.8254833"><ele>281.25</ele><time>2026-04-12T09:58:39.442Z</time></trkpt><trkpt lat="42.701465" lon="12.8255467"><ele>281.5</ele><time>2026-04-12T09:58:40.432Z</time></trkpt><trkpt lat="42.7013333" lon="12.82561"><ele>281.75</ele><time>2026-04-12T09:58:41.436Z</time></trkpt><trkpt lat="42.7012017" lon="12.8256717"><ele>282.0</ele><time>2026-04-12T09:58:42.436Z</time></trkpt><trkpt lat="42.70107" lon="12.8257383"><ele>285.5</ele><time>2026-04-12T09:58:43.439Z</time></trkpt><trkpt lat="42.700955" lon="12.8257917"><ele>289.0</ele><time>2026-04-12T09:58:44.448Z</time></trkpt><trkpt lat="42.7008433" lon="12.82584"><ele>292.5</ele><time>2026-04-12T09:58:45.445Z</time></trkpt><trkpt lat="42.700735" lon="12.82589"><ele>296.0</ele><time>2026-04-12T09:58:46.439Z</time></trkpt><trkpt lat="42.700625" lon="12.8259317"><ele>296.0</ele><time>2026-04-12T09:58:47.438Z</time></trkpt><trkpt lat="42.7005117" lon="12.8259567"><ele>296.0</ele><time>2026-04-12T09:58:48.436Z</time></trkpt><trkpt lat="42.7003933" lon="12.8259533"><ele>296.0</ele><time>2026-04-12T09:58:49.441Z</time></trkpt><trkpt lat="42.7002683" lon="12.82594"><ele>296.0</ele><time>2026-04-12T09:58:50.441Z</time></trkpt><trkpt lat="42.7001367" lon="12.8259217"><ele>296.0</ele><time>2026-04-12T09:58:51.439Z</time></trkpt><trkpt lat="42.6999867" lon="12.82591"><ele>296.0</ele><time>2026-04-12T09:58:52.441Z</time></trkpt><trkpt lat="42.6998317" lon="12.8258833"><ele>296.0</ele><time>2026-04-12T09:58:53.433Z</time></trkpt><trkpt lat="42.69968" lon="12.8258517"><ele>296.0</ele><time>2026-04-12T09:58:54.439Z</time></trkpt><trkpt lat="42.6995317" lon="12.8258183"><ele>296.0</ele><time>2026-04-12T09:58:55.444Z</time></trkpt><trkpt lat="42.699385" lon="12.8257983"><ele>296.0</ele><time>2026-04-12T09:58:56.435Z</time></trkpt><trkpt lat="42.6992467" lon="12.8257733"><ele>296.0</ele><time>2026-04-12T09:58:57.431Z</time></trkpt><trkpt lat="42.69911" lon="12.8257367"><ele>293.0</ele><time>2026-04-12T09:58:58.431Z</time></trkpt><trkpt lat="42.6989767" lon="12.8257"><ele>290.0</ele><time>2026-04-12T09:58:59.436Z</time></trkpt><trkpt lat="42.6988483" lon="12.8256667"><ele>287.0</ele><time>2026-04-12T09:59:00.437Z</time></trkpt><trkpt lat="42.6987183" lon="12.8256383"><ele>284.0</ele><time>2026-04-12T09:59:01.441Z</time></trkpt><trkpt lat="42.6985883" lon="12.8256117"><ele>283.25</ele><time>2026-04-12T09:59:02.436Z</time></trkpt><trkpt lat="42.6984583" lon="12.825575"><ele>282.5</ele><time>2026-04-12T09:59:03.435Z</time></trkpt><trkpt lat="42.6983267" lon="12.8255283"><ele>281.75</ele><time>2026-04-12T09:59:04.438Z</time></trkpt><trkpt lat="42.6981883" lon="12.8254567"><ele>281.0</ele><time>2026-04-12T09:59:05.433Z</time></trkpt><trkpt lat="42.698035" lon="12.82536"><ele>281.0</ele><time>2026-04-12T09:59:06.44Z</time></trkpt><trkpt lat="42.6978683" lon="12.8252333"><ele>281.0</ele><time>2026-04-12T09:59:07.435Z</time></trkpt><trkpt lat="42.6977117" lon="12.825085"><ele>281.0</ele><time>2026-04-12T09:59:08.434Z</time></trkpt><trkpt lat="42.6975583" lon="12.8249433"><ele>283.33333333333337</ele><time>2026-04-12T09:59:09.432Z</time></trkpt><trkpt lat="42.6974167" lon="12.8248167"><ele>285.6666666666667</ele><time>2026-04-12T09:59:10.444Z</time></trkpt><trkpt lat="42.697265" lon="12.8247083"><ele>288.0</ele><time>2026-04-12T09:59:11.437Z</time></trkpt><trkpt lat="42.697095" lon="12.8246233"><ele>284.0</ele><time>2026-04-12T09:59:12.435Z</time></trkpt><trkpt lat="42.696915" lon="12.8245383"><ele>280.0</ele><time>2026-04-12T09:59:13.427Z</time></trkpt><trkpt lat="42.6967333" lon="12.824445"><ele>276.0</ele><time>2026-04-12T09:59:14.433Z</time></trkpt><trkpt lat="42.6965483" lon="12.8243467"><ele>278.6666666666667</ele><time>2026-04-12T09:59:15.441Z</time></trkpt><trkpt lat="42.6963533" lon="12.824255"><ele>281.33333333333337</ele><time>2026-04-12T09:59:16.429Z</time></trkpt><trkpt lat="42.696155" lon="12.8241717"><ele>284.0</ele><time>2026-04-12T09:59:17.441Z</time></trkpt><trkpt lat="42.6959533" lon="12.8240883"><ele>284.0</ele><time>2026-04-12T09:59:18.431Z</time></trkpt><trkpt lat="42.695755" lon="12.8239967"><ele>284.0</ele><time>2026-04-12T09:59:19.435Z</time></trkpt><trkpt lat="42.6955617" lon="12.8238867"><ele>284.0</ele><time>2026-04-12T09:59:20.432Z</time></trkpt><trkpt lat="42.6953767" lon="12.82375"><ele>285.33333333333337</ele><time>2026-04-12T09:59:21.447Z</time></trkpt><trkpt lat="42.6951933" lon="12.8236133"><ele>286.6666666666667</ele><time>2026-04-12T09:59:22.441Z</time></trkpt><trkpt lat="42.6949983" lon="12.8235117"><ele>288.0</ele><time>2026-04-12T09:59:23.436Z</time></trkpt><trkpt lat="42.6947933" lon="12.8234433"><ele>288.0</ele><time>2026-04-12T09:59:24.444Z</time></trkpt><trkpt lat="42.6945833" lon="12.8234"><ele>288.0</ele><time>2026-04-12T09:59:25.454Z</time></trkpt><trkpt lat="42.6943717" lon="12.8233633"><ele>288.0</ele><time>2026-04-12T09:59:26.432Z</time></trkpt><trkpt lat="42.694165" lon="12.82332"><ele>286.3333333333333</ele><time>2026-04-12T09:59:27.433Z</time></trkpt><trkpt lat="42.6939667" lon="12.8232483"><ele>284.66666666666663</ele><time>2026-04-12T09:59:28.442Z</time></trkpt><trkpt lat="42.6937717" lon="12.8231467"><ele>283.0</ele><time>2026-04-12T09:59:29.438Z</time></trkpt><trkpt lat="42.6935767" lon="12.823025"><ele>280.0</ele><time>2026-04-12T09:59:30.438Z</time></trkpt><trkpt lat="42.6933783" lon="12.82291"><ele>277.0</ele><time>2026-04-12T09:59:31.445Z</time></trkpt><trkpt lat="42.693185" lon="12.8227917"><ele>274.0</ele><time>2026-04-12T09:59:32.434Z</time></trkpt><trkpt lat="42.6930117" lon="12.8226583"><ele>275.66666666666663</ele><time>2026-04-12T09:59:33.434Z</time></trkpt><trkpt lat="42.6928583" lon="12.822505"><ele>277.3333333333333</ele><time>2026-04-12T09:59:34.432Z</time></trkpt><trkpt lat="42.6927367" lon="12.8223267"><ele>279.0</ele><time>2026-04-12T09:59:35.434Z</time></trkpt><trkpt lat="42.6926367" lon="12.8221333"><ele>279.0</ele><time>2026-04-12T09:59:36.431Z</time></trkpt><trkpt lat="42.6925267" lon="12.8219583"><ele>279.0</ele><time>2026-04-12T09:59:37.436Z</time></trkpt><trkpt lat="42.692395" lon="12.8218167"><ele>279.0</ele><time>2026-04-12T09:59:38.445Z</time></trkpt><trkpt lat="42.6922267" lon="12.8217367"><ele>280.6666666666667</ele><time>2026-04-12T09:59:39.443Z</time></trkpt><trkpt lat="42.6920283" lon="12.8217"><ele>282.33333333333337</ele><time>2026-04-12T09:59:40.439Z</time></trkpt><trkpt lat="42.6918117" lon="12.8216817"><ele>284.0</ele><time>2026-04-12T09:59:41.442Z</time></trkpt><trkpt lat="42.6915933" lon="12.8216383"><ele>284.0</ele><time>2026-04-12T09:59:42.435Z</time></trkpt><trkpt lat="42.6913717" lon="12.8215617"><ele>284.0</ele><time>2026-04-12T09:59:43.441Z</time></trkpt><trkpt lat="42.691145" lon="12.821485"><ele>282.33333333333337</ele><time>2026-04-12T09:59:44.431Z</time></trkpt><trkpt lat="42.6909233" lon="12.8214233"><ele>280.6666666666667</ele><time>2026-04-12T09:59:45.426Z</time></trkpt><trkpt lat="42.69071" lon="12.82138"><ele>279.0</ele><time>2026-04-12T09:59:46.446Z</time></trkpt><trkpt lat="42.6905033" lon="12.82137"><ele>279.0</ele><time>2026-04-12T09:59:47.437Z</time></trkpt><trkpt lat="42.6902883" lon="12.8214083"><ele>279.0</ele><time>2026-04-12T09:59:48.438Z</time></trkpt><trkpt lat="42.6900883" lon="12.8214567"><ele>279.0</ele><time>2026-04-12T09:59:49.434Z</time></trkpt><trkpt lat="42.6899" lon="12.8214717"><ele>278.3333333333333</ele><time>2026-04-12T09:59:50.437Z</time></trkpt><trkpt lat="42.6897217" lon="12.8214167"><ele>277.66666666666663</ele><time>2026-04-12T09:59:51.435Z</time></trkpt><trkpt lat="42.6895317" lon="12.821325"><ele>277.0</ele><time>2026-04-12T09:59:52.439Z</time></trkpt><trkpt lat="42.68933" lon="12.8212467"><ele>277.0</ele><time>2026-04-12T09:59:53.442Z</time></trkpt><trkpt lat="42.6891083" lon="12.8212283"><ele>277.0</ele><time>2026-04-12T09:59:54.435Z</time></trkpt><trkpt lat="42.688885" lon="12.8212583"><ele>277.0</ele><time>2026-04-12T09:59:55.438Z</time></trkpt><trkpt lat="42.688675" lon="12.821315"><ele>278.3333333333333</ele><time>2026-04-12T09:59:56.437Z</time></trkpt><trkpt lat="42.68847" lon="12.82135"><ele>279.6666666666667</ele><time>2026-04-12T09:59:57.44Z</time></trkpt><trkpt lat="42.6882633" lon="12.8213533"><ele>281.0</ele><time>2026-04-12T09:59:58.439Z</time></trkpt><trkpt lat="42.688065" lon="12.8213117"><ele>281.0</ele><time>2026-04-12T09:59:59.434Z</time></trkpt><trkpt lat="42.68788" lon="12.8212083"><ele>281.0</ele><time>2026-04-12T10:00:00.428Z</time></trkpt><trkpt lat="42.6876983" lon="12.8210467"><ele>281.0</ele><time>2026-04-12T10:00:01.432Z</time></trkpt><trkpt lat="42.6875417" lon="12.82085"><ele>281.6666666666667</ele><time>2026-04-12T10:00:02.432Z</time></trkpt><trkpt lat="42.6874017" lon="12.820645"><ele>282.3333333333333</ele><time>2026-04-12T10:00:03.428Z</time></trkpt><trkpt lat="42.687265" lon="12.8204367"><ele>283.0</ele><time>2026-04-12T10:00:04.43Z</time></trkpt><trkpt lat="42.68711" lon="12.82028"><ele>283.0</ele><time>2026-04-12T10:00:05.427Z</time></trkpt><trkpt lat="42.6869267" lon="12.820175"><ele>283.0</ele><time>2026-04-12T10:00:06.433Z</time></trkpt><trkpt lat="42.686745" lon="12.8201117"><ele>283.0</ele><time>2026-04-12T10:00:07.433Z</time></trkpt><trkpt lat="42.6865717" lon="12.82006"><ele>283.0</ele><time>2026-04-12T10:00:08.442Z</time></trkpt><trkpt lat="42.6864183" lon="12.8199917"><ele>283.0</ele><time>2026-04-12T10:00:09.424Z</time></trkpt><trkpt lat="42.6862983" lon="12.8198767"><ele>283.0</ele><time>2026-04-12T10:00:10.422Z</time></trkpt><trkpt lat="42.6862333" lon="12.8196933"><ele>283.0</ele><time>2026-04-12T10:00:11.432Z</time></trkpt><trkpt lat="42.6861983" lon="12.81947"><ele>283.0</ele><time>2026-04-12T10:00:12.427Z</time></trkpt><trkpt lat="42.6861733" lon="12.8192383"><ele>283.0</ele><time>2026-04-12T10:00:13.43Z</time></trkpt><trkpt lat="42.6861483" lon="12.8190083"><ele>284.25</ele><time>2026-04-12T10:00:14.445Z</time></trkpt><trkpt lat="42.6861183" lon="12.818795"><ele>285.5</ele><time>2026-04-12T10:00:15.433Z</time></trkpt><trkpt lat="42.68609" lon="12.8185967"><ele>286.75</ele><time>2026-04-12T10:00:16.44Z</time></trkpt><trkpt lat="42.6860167" lon="12.8184367"><ele>288.0</ele><time>2026-04-12T10:00:17.433Z</time></trkpt><trkpt lat="42.685915" lon="12.8183133"><ele>284.5</ele><time>2026-04-12T10:00:18.452Z</time></trkpt><trkpt lat="42.6858017" lon="12.8182233"><ele>281.0</ele><time>2026-04-12T10:00:19.437Z</time></trkpt><trkpt lat="42.68567" lon="12.8181517"><ele>277.5</ele><time>2026-04-12T10:00:20.425Z</time></trkpt><trkpt lat="42.6855183" lon="12.8180983"><ele>274.0</ele><time>2026-04-12T10:00:21.424Z</time></trkpt><trkpt lat="42.685345" lon="12.8180633"><ele>274.66666666666663</ele><time>2026-04-12T10:00:22.434Z</time></trkpt><trkpt lat="42.6851533" lon="12.8180533"><ele>275.3333333333333</ele><time>2026-04-12T10:00:23.437Z</time></trkpt><trkpt lat="42.6849617" lon="12.8180583"><ele>276.0</ele><time>2026-04-12T10:00:24.438Z</time></trkpt><trkpt lat="42.6847817" lon="12.8180433"><ele>276.0</ele><time>2026-04-12T10:00:25.432Z</time></trkpt><trkpt lat="42.6846217" lon="12.817985"><ele>276.0</ele><time>2026-04-12T10:00:26.434Z</time></trkpt><trkpt lat="42.6844733" lon="12.8178617"><ele>276.0</ele><time>2026-04-12T10:00:27.445Z</time></trkpt><trkpt lat="42.6843383" lon="12.8176833"><ele>277.6666666666667</ele><time>2026-04-12T10:00:28.438Z</time></trkpt><trkpt lat="42.6842" lon="12.8174717"><ele>279.33333333333337</ele><time>2026-04-12T10:00:29.438Z</time></trkpt><trkpt lat="42.6840567" lon="12.817245"><ele>281.0</ele><time>2026-04-12T10:00:30.428Z</time></trkpt><trkpt lat="42.6839033" lon="12.8170283"><ele>281.0</ele><time>2026-04-12T10:00:31.44Z</time></trkpt><trkpt lat="42.6837333" lon="12.8168283"><ele>281.0</ele><time>2026-04-12T10:00:32.436Z</time></trkpt><trkpt lat="42.683545" lon="12.81667"><ele>281.0</ele><time>2026-04-12T10:00:33.439Z</time></trkpt><trkpt lat="42.6833317" lon="12.8165583"><ele>278.0</ele><time>2026-04-12T10:00:34.432Z</time></trkpt><trkpt lat="42.6831" lon="12.816475"><ele>275.0</ele><time>2026-04-12T10:00:35.438Z</time></trkpt><trkpt lat="42.6828667" lon="12.8164017"><ele>274.0</ele><time>2026-04-12T10:00:36.441Z</time></trkpt><trkpt lat="42.682645" lon="12.8163267"><ele>273.0</ele><time>2026-04-12T10:00:37.45Z</time></trkpt><trkpt lat="42.6824267" lon="12.8162467"><ele>273.0</ele><time>2026-04-12T10:00:38.437Z</time></trkpt><trkpt lat="42.6822117" lon="12.81617"><ele>273.0</ele><time>2026-04-12T10:00:39.443Z</time></trkpt><trkpt lat="42.6819967" lon="12.8160983"><ele>273.0</ele><time>2026-04-12T10:00:40.432Z</time></trkpt><trkpt lat="42.6817867" lon="12.81603"><ele>272.6666666666667</ele><time>2026-04-12T10:00:41.438Z</time></trkpt><trkpt lat="42.6815783" lon="12.8159583"><ele>272.33333333333337</ele><time>2026-04-12T10:00:42.435Z</time></trkpt><trkpt lat="42.681375" lon="12.8159017"><ele>272.0</ele><time>2026-04-12T10:00:43.433Z</time></trkpt><trkpt lat="42.68117" lon="12.8158867"><ele>271.6666666666667</ele><time>2026-04-12T10:00:44.433Z</time></trkpt><trkpt lat="42.6809633" lon="12.81593"><ele>271.3333333333333</ele><time>2026-04-12T10:00:45.429Z</time></trkpt><trkpt lat="42.6807717" lon="12.816025"><ele>271.0</ele><time>2026-04-12T10:00:46.434Z</time></trkpt><trkpt lat="42.6805983" lon="12.8161367"><ele>271.0</ele><time>2026-04-12T10:00:47.434Z</time></trkpt><trkpt lat="42.680445" lon="12.816225"><ele>271.0</ele><time>2026-04-12T10:00:48.434Z</time></trkpt><trkpt lat="42.68031" lon="12.8162817"><ele>271.0</ele><time>2026-04-12T10:00:49.433Z</time></trkpt><trkpt lat="42.6801817" lon="12.8163067"><ele>271.0</ele><time>2026-04-12T10:00:50.435Z</time></trkpt><trkpt lat="42.68007" lon="12.8163017"><ele>270.75</ele><time>2026-04-12T10:00:51.439Z</time></trkpt><trkpt lat="42.67996" lon="12.81628"><ele>270.5</ele><time>2026-04-12T10:00:52.431Z</time></trkpt><trkpt lat="42.6798483" lon="12.8162667"><ele>270.25</ele><time>2026-04-12T10:00:53.433Z</time></trkpt><trkpt lat="42.6797333" lon="12.8162617"><ele>270.0</ele><time>2026-04-12T10:00:54.438Z</time></trkpt><trkpt lat="42.6796167" lon="12.8162667"><ele>270.0</ele><time>2026-04-12T10:00:55.437Z</time></trkpt><trkpt lat="42.6794967" lon="12.816295"><ele>270.0</ele><time>2026-04-12T10:00:56.438Z</time></trkpt><trkpt lat="42.67937" lon="12.8163567"><ele>270.0</ele><time>2026-04-12T10:00:57.432Z</time></trkpt><trkpt lat="42.6792383" lon="12.816465"><ele>270.0</ele><time>2026-04-12T10:00:58.444Z</time></trkpt><trkpt lat="42.6790967" lon="12.8165867"><ele>269.3333333333333</ele><time>2026-04-12T10:00:59.437Z</time></trkpt><trkpt lat="42.6789383" lon="12.8167167"><ele>268.66666666666663</ele><time>2026-04-12T10:01:00.449Z</time></trkpt><trkpt lat="42.678775" lon="12.8168483"><ele>268.0</ele><time>2026-04-12T10:01:01.434Z</time></trkpt><trkpt lat="42.6786067" lon="12.8169817"><ele>269.3333333333333</ele><time>2026-04-12T10:01:02.438Z</time></trkpt><trkpt lat="42.6784283" lon="12.817105"><ele>270.6666666666667</ele><time>2026-04-12T10:01:03.43Z</time></trkpt><trkpt lat="42.6782367" lon="12.8172033"><ele>272.0</ele><time>2026-04-12T10:01:04.435Z</time></trkpt><trkpt lat="42.6780367" lon="12.8172817"><ele>272.0</ele><time>2026-04-12T10:01:05.434Z</time></trkpt><trkpt lat="42.67783" lon="12.8173383"><ele>272.0</ele><time>2026-04-12T10:01:06.433Z</time></trkpt><trkpt lat="42.67762" lon="12.817395"><ele>272.0</ele><time>2026-04-12T10:01:07.43Z</time></trkpt><trkpt lat="42.677415" lon="12.8174683"><ele>270.33333333333337</ele><time>2026-04-12T10:01:08.435Z</time></trkpt><trkpt lat="42.677225" lon="12.8175783"><ele>268.6666666666667</ele><time>2026-04-12T10:01:09.43Z</time></trkpt><trkpt lat="42.6770517" lon="12.8177333"><ele>267.0</ele><time>2026-04-12T10:01:10.426Z</time></trkpt><trkpt lat="42.67688" lon="12.8179133"><ele>271.0</ele><time>2026-04-12T10:01:11.423Z</time></trkpt><trkpt lat="42.6767067" lon="12.8180767"><ele>275.0</ele><time>2026-04-12T10:01:12.436Z</time></trkpt><trkpt lat="42.6765317" lon="12.8182383"><ele>279.0</ele><time>2026-04-12T10:01:13.428Z</time></trkpt><trkpt lat="42.67636" lon="12.8183983"><ele>277.0</ele><time>2026-04-12T10:01:14.445Z</time></trkpt><trkpt lat="42.6761983" lon="12.8185517"><ele>275.0</ele><time>2026-04-12T10:01:15.437Z</time></trkpt><trkpt lat="42.6760483" lon="12.8186933"><ele>273.0</ele><time>2026-04-12T10:01:16.434Z</time></trkpt><trkpt lat="42.6759017" lon="12.81883"><ele>273.0</ele><time>2026-04-12T10:01:17.438Z</time></trkpt><trkpt lat="42.6757583" lon="12.8189733"><ele>273.0</ele><time>2026-04-12T10:01:18.435Z</time></trkpt><trkpt lat="42.6756033" lon="12.8191117"><ele>273.0</ele><time>2026-04-12T10:01:19.436Z</time></trkpt><trkpt lat="42.6754517" lon="12.8192483"><ele>271.3333333333333</ele><time>2026-04-12T10:01:20.432Z</time></trkpt><trkpt lat="42.6753183" lon="12.8194067"><ele>269.66666666666663</ele><time>2026-04-12T10:01:21.441Z</time></trkpt><trkpt lat="42.6752117" lon="12.819595"><ele>268.0</ele><time>2026-04-12T10:01:22.431Z</time></trkpt><trkpt lat="42.6751367" lon="12.8198083"><ele>274.3333333333333</ele><time>2026-04-12T10:01:23.434Z</time></trkpt><trkpt lat="42.6750917" lon="12.8200667"><ele>280.6666666666667</ele><time>2026-04-12T10:01:24.433Z</time></trkpt><trkpt lat="42.6750567" lon="12.8203433"><ele>287.0</ele><time>2026-04-12T10:01:25.435Z</time></trkpt><trkpt lat="42.67502" lon="12.8206183"><ele>287.0</ele><time>2026-04-12T10:01:26.447Z</time></trkpt><trkpt lat="42.6749817" lon="12.8208883"><ele>287.0</ele><time>2026-04-12T10:01:27.433Z</time></trkpt><trkpt lat="42.6749383" lon="12.8211533"><ele>287.0</ele><time>2026-04-12T10:01:28.438Z</time></trkpt><trkpt lat="42.674875" lon="12.8214133"><ele>283.33333333333337</ele><time>2026-04-12T10:01:29.431Z</time></trkpt><trkpt lat="42.6747967" lon="12.821665"><ele>279.6666666666667</ele><time>2026-04-12T10:01:30.432Z</time></trkpt><trkpt lat="42.6747017" lon="12.8219167"><ele>276.0</ele><time>2026-04-12T10:01:31.43Z</time></trkpt><trkpt lat="42.6745833" lon="12.8221617"><ele>273.3333333333333</ele><time>2026-04-12T10:01:32.44Z</time></trkpt><trkpt lat="42.674465" lon="12.8224117"><ele>270.66666666666663</ele><time>2026-04-12T10:01:33.435Z</time></trkpt><trkpt lat="42.6743567" lon="12.822675"><ele>268.0</ele><time>2026-04-12T10:01:34.436Z</time></trkpt><trkpt lat="42.6742533" lon="12.82295"><ele>271.0</ele><time>2026-04-12T10:01:35.435Z</time></trkpt><trkpt lat="42.6741617" lon="12.8232283"><ele>274.0</ele><time>2026-04-12T10:01:36.444Z</time></trkpt><trkpt lat="42.6740833" lon="12.8235083"><ele>277.0</ele><time>2026-04-12T10:01:37.435Z</time></trkpt><trkpt lat="42.674015" lon="12.8237933"><ele>277.0</ele><time>2026-04-12T10:01:38.433Z</time></trkpt><trkpt lat="42.67396" lon="12.824085"><ele>277.0</ele><time>2026-04-12T10:01:39.429Z</time></trkpt><trkpt lat="42.673915" lon="12.824375"><ele>277.0</ele><time>2026-04-12T10:01:40.437Z</time></trkpt><trkpt lat="42.6738983" lon="12.8246467"><ele>275.3333333333333</ele><time>2026-04-12T10:01:41.432Z</time></trkpt><trkpt lat="42.6738783" lon="12.8249017"><ele>273.6666666666667</ele><time>2026-04-12T10:01:42.434Z</time></trkpt><trkpt lat="42.6738583" lon="12.82513"><ele>272.0</ele><time>2026-04-12T10:01:43.437Z</time></trkpt><trkpt lat="42.6738117" lon="12.8253233"><ele>271.5</ele><time>2026-04-12T10:01:44.436Z</time></trkpt><trkpt lat="42.67371" lon="12.8254683"><ele>271.0</ele><time>2026-04-12T10:01:45.433Z</time></trkpt><trkpt lat="42.6735967" lon="12.82555"><ele>270.5</ele><time>2026-04-12T10:01:46.427Z</time></trkpt><trkpt lat="42.6734533" lon="12.825545"><ele>270.0</ele><time>2026-04-12T10:01:47.428Z</time></trkpt><trkpt lat="42.673285" lon="12.8254817"><ele>270.0</ele><time>2026-04-12T10:01:48.444Z</time></trkpt><trkpt lat="42.6730933" lon="12.8253717"><ele>270.0</ele><time>2026-04-12T10:01:49.437Z</time></trkpt><trkpt lat="42.672895" lon="12.8252533"><ele>270.0</ele><time>2026-04-12T10:01:50.44Z</time></trkpt><trkpt lat="42.672685" lon="12.825165"><ele>276.6666666666667</ele><time>2026-04-12T10:01:51.434Z</time></trkpt><trkpt lat="42.672465" lon="12.8251133"><ele>283.33333333333337</ele><time>2026-04-12T10:01:52.436Z</time></trkpt><trkpt lat="42.67224" lon="12.82509"><ele>290.0</ele><time>2026-04-12T10:01:53.432Z</time></trkpt><trkpt lat="42.6720117" lon="12.825075"><ele>286.0</ele><time>2026-04-12T10:01:54.43Z</time></trkpt><trkpt lat="42.6717817" lon="12.8250667"><ele>282.0</ele><time>2026-04-12T10:01:55.44Z</time></trkpt><trkpt lat="42.6715467" lon="12.82506"><ele>282.0</ele><time>2026-04-12T10:01:56.43Z</time></trkpt><trkpt lat="42.67131" lon="12.8250483"><ele>282.0</ele><time>2026-04-12T10:01:57.437Z</time></trkpt><trkpt lat="42.67107" lon="12.8250533"><ele>282.0</ele><time>2026-04-12T10:01:58.443Z</time></trkpt><trkpt lat="42.6708283" lon="12.82507"><ele>282.0</ele><time>2026-04-12T10:01:59.44Z</time></trkpt><trkpt lat="42.67059" lon="12.8250983"><ele>282.0</ele><time>2026-04-12T10:02:00.446Z</time></trkpt><trkpt lat="42.6703617" lon="12.82512"><ele>282.0</ele><time>2026-04-12T10:02:01.439Z</time></trkpt><trkpt lat="42.670135" lon="12.825135"><ele>280.5</ele><time>2026-04-12T10:02:02.433Z</time></trkpt><trkpt lat="42.669895" lon="12.825135"><ele>279.0</ele><time>2026-04-12T10:02:03.441Z</time></trkpt><trkpt lat="42.669655" lon="12.8251217"><ele>278.5</ele><time>2026-04-12T10:02:04.433Z</time></trkpt><trkpt lat="42.6694133" lon="12.8250983"><ele>278.0</ele><time>2026-04-12T10:02:05.453Z</time></trkpt><trkpt lat="42.6691667" lon="12.8250917"><ele>278.0</ele><time>2026-04-12T10:02:06.451Z</time></trkpt><trkpt lat="42.6689233" lon="12.8250983"><ele>278.0</ele><time>2026-04-12T10:02:07.452Z</time></trkpt><trkpt lat="42.6686833" lon="12.82512"><ele>272.0</ele><time>2026-04-12T10:02:08.436Z</time></trkpt><trkpt lat="42.668445" lon="12.8251483"><ele>266.0</ele><time>2026-04-12T10:02:09.444Z</time></trkpt><trkpt lat="42.6682017" lon="12.8251867"><ele>266.0</ele><time>2026-04-12T10:02:10.438Z</time></trkpt><trkpt lat="42.6679617" lon="12.825215"><ele>266.0</ele><time>2026-04-12T10:02:11.433Z</time></trkpt><trkpt lat="42.6677233" lon="12.8252433"><ele>266.0</ele><time>2026-04-12T10:02:12.437Z</time></trkpt><trkpt lat="42.6674867" lon="12.82527"><ele>266.0</ele><time>2026-04-12T10:02:13.436Z</time></trkpt><trkpt lat="42.6672517" lon="12.8253017"><ele>266.0</ele><time>2026-04-12T10:02:14.432Z</time></trkpt><trkpt lat="42.6670367" lon="12.8253533"><ele>266.0</ele><time>2026-04-12T10:02:15.435Z</time></trkpt><trkpt lat="42.6668383" lon="12.8254417"><ele>266.0</ele><time>2026-04-12T10:02:16.435Z</time></trkpt><trkpt lat="42.6666433" lon="12.8255833"><ele>266.0</ele><time>2026-04-12T10:02:17.433Z</time></trkpt><trkpt lat="42.6664683" lon="12.8257633"><ele>266.0</ele><time>2026-04-12T10:02:18.437Z</time></trkpt><trkpt lat="42.66631" lon="12.825955"><ele>266.0</ele><time>2026-04-12T10:02:19.435Z</time></trkpt><trkpt lat="42.66616" lon="12.82615"><ele>270.33333333333337</ele><time>2026-04-12T10:02:20.425Z</time></trkpt><trkpt lat="42.6660283" lon="12.8263433"><ele>274.6666666666667</ele><time>2026-04-12T10:02:21.432Z</time></trkpt><trkpt lat="42.66592" lon="12.8265583"><ele>279.0</ele><time>2026-04-12T10:02:22.441Z</time></trkpt><trkpt lat="42.6658433" lon="12.8268"><ele>275.6666666666667</ele><time>2026-04-12T10:02:23.433Z</time></trkpt><trkpt lat="42.6657633" lon="12.8270483"><ele>272.33333333333337</ele><time>2026-04-12T10:02:24.434Z</time></trkpt><trkpt lat="42.6656833" lon="12.8273083"><ele>269.0</ele><time>2026-04-12T10:02:25.44Z</time></trkpt><trkpt lat="42.6656" lon="12.8275617"><ele>269.33333333333337</ele><time>2026-04-12T10:02:26.45Z</time></trkpt><trkpt lat="42.6655133" lon="12.8278"><ele>269.6666666666667</ele><time>2026-04-12T10:02:27.435Z</time></trkpt><trkpt lat="42.66541" lon="12.827995"><ele>270.0</ele><time>2026-04-12T10:02:28.429Z</time></trkpt><trkpt lat="42.665275" lon="12.8281383"><ele>270.0</ele><time>2026-04-12T10:02:29.444Z</time></trkpt><trkpt lat="42.6651167" lon="12.828225"><ele>270.0</ele><time>2026-04-12T10:02:30.438Z</time></trkpt><trkpt lat="42.664925" lon="12.82826"><ele>270.0</ele><time>2026-04-12T10:02:31.428Z</time></trkpt><trkpt lat="42.6647033" lon="12.8282617"><ele>270.0</ele><time>2026-04-12T10:02:32.441Z</time></trkpt><trkpt lat="42.664475" lon="12.8282783"><ele>270.0</ele><time>2026-04-12T10:02:33.44Z</time></trkpt><trkpt lat="42.6642417" lon="12.828295"><ele>271.0</ele><time>2026-04-12T10:02:34.453Z</time></trkpt><trkpt lat="42.664005" lon="12.8283233"><ele>272.0</ele><time>2026-04-12T10:02:35.438Z</time></trkpt><trkpt lat="42.6637667" lon="12.8283633"><ele>274.0</ele><time>2026-04-12T10:02:36.434Z</time></trkpt><trkpt lat="42.6635267" lon="12.8284083"><ele>276.0</ele><time>2026-04-12T10:02:37.434Z</time></trkpt><trkpt lat="42.6632833" lon="12.8284617"><ele>269.0</ele><time>2026-04-12T10:02:38.435Z</time></trkpt><trkpt lat="42.66304" lon="12.8285167"><ele>262.0</ele><time>2026-04-12T10:02:39.44Z</time></trkpt><trkpt lat="42.6627967" lon="12.82856"><ele>262.5</ele><time>2026-04-12T10:02:40.433Z</time></trkpt><trkpt lat="42.6625517" lon="12.8286067"><ele>263.0</ele><time>2026-04-12T10:02:41.435Z</time></trkpt><trkpt lat="42.6623033" lon="12.8286567"><ele>263.0</ele><time>2026-04-12T10:02:42.434Z</time></trkpt><trkpt lat="42.6620567" lon="12.8287067"><ele>263.0</ele><time>2026-04-12T10:02:43.43Z</time></trkpt><trkpt lat="42.661805" lon="12.82876"><ele>264.5</ele><time>2026-04-12T10:02:44.435Z</time></trkpt><trkpt lat="42.6615567" lon="12.8288083"><ele>266.0</ele><time>2026-04-12T10:02:45.438Z</time></trkpt><trkpt lat="42.661315" lon="12.82885"><ele>267.33333333333337</ele><time>2026-04-12T10:02:46.439Z</time></trkpt><trkpt lat="42.6610917" lon="12.8288833"><ele>268.6666666666667</ele><time>2026-04-12T10:02:47.432Z</time></trkpt><trkpt lat="42.660875" lon="12.828925"><ele>270.0</ele><time>2026-04-12T10:02:48.448Z</time></trkpt><trkpt lat="42.6606633" lon="12.8289483"><ele>270.0</ele><time>2026-04-12T10:02:49.44Z</time></trkpt><trkpt lat="42.660455" lon="12.8289467"><ele>270.0</ele><time>2026-04-12T10:02:50.439Z</time></trkpt><trkpt lat="42.6602583" lon="12.8288933"><ele>270.0</ele><time>2026-04-12T10:02:51.433Z</time></trkpt><trkpt lat="42.6600583" lon="12.82882"><ele>268.3333333333333</ele><time>2026-04-12T10:02:52.436Z</time></trkpt><trkpt lat="42.65987" lon="12.8287217"><ele>266.66666666666663</ele><time>2026-04-12T10:02:53.435Z</time></trkpt><trkpt lat="42.6596967" lon="12.8286217"><ele>265.0</ele><time>2026-04-12T10:02:54.44Z</time></trkpt><trkpt lat="42.659535" lon="12.8285283"><ele>267.0</ele><time>2026-04-12T10:02:55.433Z</time></trkpt><trkpt lat="42.65937" lon="12.8284367"><ele>269.0</ele><time>2026-04-12T10:02:56.436Z</time></trkpt><trkpt lat="42.6591883" lon="12.8283433"><ele>271.0</ele><time>2026-04-12T10:02:57.434Z</time></trkpt><trkpt lat="42.659" lon="12.8282417"><ele>271.0</ele><time>2026-04-12T10:02:58.433Z</time></trkpt><trkpt lat="42.6588067" lon="12.8281333"><ele>271.0</ele><time>2026-04-12T10:02:59.436Z</time></trkpt><trkpt lat="42.6586017" lon="12.8280317"><ele>271.0</ele><time>2026-04-12T10:03:00.431Z</time></trkpt><trkpt lat="42.65839" lon="12.8279283"><ele>268.5</ele><time>2026-04-12T10:03:01.44Z</time></trkpt><trkpt lat="42.6581683" lon="12.82785"><ele>266.0</ele><time>2026-04-12T10:03:02.44Z</time></trkpt><trkpt lat="42.6579383" lon="12.8277933"><ele>263.0</ele><time>2026-04-12T10:03:03.444Z</time></trkpt><trkpt lat="42.6577017" lon="12.82778"><ele>260.0</ele><time>2026-04-12T10:03:04.436Z</time></trkpt><trkpt lat="42.657465" lon="12.8277933"><ele>260.0</ele><time>2026-04-12T10:03:05.434Z</time></trkpt><trkpt lat="42.6572333" lon="12.827825"><ele>260.0</ele><time>2026-04-12T10:03:06.436Z</time></trkpt><trkpt lat="42.6570067" lon="12.8278633"><ele>259.5</ele><time>2026-04-12T10:03:07.435Z</time></trkpt><trkpt lat="42.6567817" lon="12.82789"><ele>259.0</ele><time>2026-04-12T10:03:08.441Z</time></trkpt><trkpt lat="42.656555" lon="12.8278833"><ele>259.0</ele><time>2026-04-12T10:03:09.433Z</time></trkpt><trkpt lat="42.65633" lon="12.8278383"><ele>259.0</ele><time>2026-04-12T10:03:10.432Z</time></trkpt><trkpt lat="42.65611" lon="12.8277533"><ele>266.5</ele><time>2026-04-12T10:03:11.434Z</time></trkpt><trkpt lat="42.655895" lon="12.8276417"><ele>274.0</ele><time>2026-04-12T10:03:12.434Z</time></trkpt><trkpt lat="42.6556967" lon="12.8275083"><ele>274.0</ele><time>2026-04-12T10:03:13.432Z</time></trkpt><trkpt lat="42.6555033" lon="12.8273617"><ele>274.0</ele><time>2026-04-12T10:03:14.444Z</time></trkpt><trkpt lat="42.655315" lon="12.8271983"><ele>274.0</ele><time>2026-04-12T10:03:15.44Z</time></trkpt><trkpt lat="42.655145" lon="12.8270133"><ele>274.0</ele><time>2026-04-12T10:03:16.428Z</time></trkpt><trkpt lat="42.6549933" lon="12.826815"><ele>274.0</ele><time>2026-04-12T10:03:17.442Z</time></trkpt><trkpt lat="42.6548417" lon="12.8266217"><ele>274.0</ele><time>2026-04-12T10:03:18.442Z</time></trkpt><trkpt lat="42.65469" lon="12.8264717"><ele>274.0</ele><time>2026-04-12T10:03:19.438Z</time></trkpt><trkpt lat="42.6545083" lon="12.8263817"><ele>274.0</ele><time>2026-04-12T10:03:20.436Z</time></trkpt><trkpt lat="42.6543067" lon="12.8263517"><ele>274.0</ele><time>2026-04-12T10:03:21.435Z</time></trkpt><trkpt lat="42.65409" lon="12.82635"><ele>271.0</ele><time>2026-04-12T10:03:22.436Z</time></trkpt><trkpt lat="42.653875" lon="12.82634"><ele>268.0</ele><time>2026-04-12T10:03:23.438Z</time></trkpt><trkpt lat="42.6536633" lon="12.8263417"><ele>265.0</ele><time>2026-04-12T10:03:24.435Z</time></trkpt><trkpt lat="42.6534517" lon="12.826355"><ele>265.0</ele><time>2026-04-12T10:03:25.432Z</time></trkpt><trkpt lat="42.6532533" lon="12.8264"><ele>265.0</ele><time>2026-04-12T10:03:26.438Z</time></trkpt><trkpt lat="42.653075" lon="12.82648"><ele>265.0</ele><time>2026-04-12T10:03:27.451Z</time></trkpt><trkpt lat="42.65292" lon="12.8265783"><ele>266.66666666666663</ele><time>2026-04-12T10:03:28.431Z</time></trkpt><trkpt lat="42.65278" lon="12.8266717"><ele>268.3333333333333</ele><time>2026-04-12T10:03:29.438Z</time></trkpt><trkpt lat="42.6526417" lon="12.826755"><ele>270.0</ele><time>2026-04-12T10:03:30.442Z</time></trkpt><trkpt lat="42.6525083" lon="12.826825"><ele>267.75</ele><time>2026-04-12T10:03:31.433Z</time></trkpt><trkpt lat="42.65238" lon="12.8268533"><ele>265.5</ele><time>2026-04-12T10:03:32.44Z</time></trkpt><trkpt lat="42.6522417" lon="12.826855"><ele>263.25</ele><time>2026-04-12T10:03:33.44Z</time></trkpt><trkpt lat="42.6520917" lon="12.8268367"><ele>261.0</ele><time>2026-04-12T10:03:34.437Z</time></trkpt><trkpt lat="42.6519333" lon="12.8268183"><ele>265.6666666666667</ele><time>2026-04-12T10:03:35.452Z</time></trkpt><trkpt lat="42.65176" lon="12.8267967"><ele>270.33333333333337</ele><time>2026-04-12T10:03:36.432Z</time></trkpt><trkpt lat="42.65158" lon="12.826785"><ele>275.0</ele><time>2026-04-12T10:03:37.443Z</time></trkpt><trkpt lat="42.6514033" lon="12.8267567"><ele>275.0</ele><time>2026-04-12T10:03:38.438Z</time></trkpt><trkpt lat="42.65124" lon="12.8266833"><ele>275.0</ele><time>2026-04-12T10:03:39.447Z</time></trkpt><trkpt lat="42.6510867" lon="12.8265733"><ele>275.0</ele><time>2026-04-12T10:03:40.437Z</time></trkpt><trkpt lat="42.6509233" lon="12.826455"><ele>272.0</ele><time>2026-04-12T10:03:41.447Z</time></trkpt><trkpt lat="42.650755" lon="12.8263317"><ele>269.0</ele><time>2026-04-12T10:03:42.434Z</time></trkpt><trkpt lat="42.6505867" lon="12.8262033"><ele>266.0</ele><time>2026-04-12T10:03:43.434Z</time></trkpt><trkpt lat="42.6504183" lon="12.8260583"><ele>266.6666666666667</ele><time>2026-04-12T10:03:44.439Z</time></trkpt><trkpt lat="42.6502567" lon="12.82588"><ele>267.3333333333333</ele><time>2026-04-12T10:03:45.434Z</time></trkpt><trkpt lat="42.6501017" lon="12.8257017"><ele>268.0</ele><time>2026-04-12T10:03:46.432Z</time></trkpt><trkpt lat="42.6499617" lon="12.825525"><ele>268.0</ele><time>2026-04-12T10:03:47.435Z</time></trkpt><trkpt lat="42.6498283" lon="12.8253533"><ele>268.0</ele><time>2026-04-12T10:03:48.444Z</time></trkpt><trkpt lat="42.6497" lon="12.8252017"><ele>268.0</ele><time>2026-04-12T10:03:49.435Z</time></trkpt><trkpt lat="42.6495883" lon="12.82507"><ele>267.75</ele><time>2026-04-12T10:03:50.433Z</time></trkpt><trkpt lat="42.6494883" lon="12.824955"><ele>267.5</ele><time>2026-04-12T10:03:51.435Z</time></trkpt><trkpt lat="42.6494" lon="12.8248533"><ele>267.25</ele><time>2026-04-12T10:03:52.433Z</time></trkpt><trkpt lat="42.6493117" lon="12.8247633"><ele>267.0</ele><time>2026-04-12T10:03:53.437Z</time></trkpt><trkpt lat="42.64922" lon="12.8246783"><ele>267.0</ele><time>2026-04-12T10:03:54.437Z</time></trkpt><trkpt lat="42.6491233" lon="12.824605"><ele>267.0</ele><time>2026-04-12T10:03:55.432Z</time></trkpt><trkpt lat="42.6490117" lon="12.8245467"><ele>267.0</ele><time>2026-04-12T10:03:56.433Z</time></trkpt><trkpt lat="42.648895" lon="12.8244933"><ele>267.0</ele><time>2026-04-12T10:03:57.436Z</time></trkpt><trkpt lat="42.64878" lon="12.8244383"><ele>267.0</ele><time>2026-04-12T10:03:58.44Z</time></trkpt><trkpt lat="42.6486683" lon="12.8243783"><ele>267.0</ele><time>2026-04-12T10:03:59.434Z</time></trkpt><trkpt lat="42.64856" lon="12.8243167"><ele>267.0</ele><time>2026-04-12T10:04:00.426Z</time></trkpt><trkpt lat="42.6484483" lon="12.82426"><ele>267.0</ele><time>2026-04-12T10:04:01.442Z</time></trkpt><trkpt lat="42.6483283" lon="12.82421"><ele>271.25</ele><time>2026-04-12T10:04:02.439Z</time></trkpt><trkpt lat="42.6482017" lon="12.8241717"><ele>275.5</ele><time>2026-04-12T10:04:03.429Z</time></trkpt><trkpt lat="42.64807" lon="12.824145"><ele>279.75</ele><time>2026-04-12T10:04:04.433Z</time></trkpt><trkpt lat="42.6479383" lon="12.8241283"><ele>284.0</ele><time>2026-04-12T10:04:05.443Z</time></trkpt><trkpt lat="42.6478083" lon="12.8241333"><ele>283.5</ele><time>2026-04-12T10:04:06.436Z</time></trkpt><trkpt lat="42.6476833" lon="12.8241533"><ele>283.0</ele><time>2026-04-12T10:04:07.442Z</time></trkpt><trkpt lat="42.6475683" lon="12.8241883"><ele>282.5</ele><time>2026-04-12T10:04:08.436Z</time></trkpt><trkpt lat="42.6474617" lon="12.8242333"><ele>282.0</ele><time>2026-04-12T10:04:09.437Z</time></trkpt><trkpt lat="42.6473617" lon="12.82429"><ele>280.8</ele><time>2026-04-12T10:04:10.432Z</time></trkpt><trkpt lat="42.6472667" lon="12.8243583"><ele>279.6</ele><time>2026-04-12T10:04:11.431Z</time></trkpt><trkpt lat="42.6471717" lon="12.8244433"><ele>278.40000000000003</ele><time>2026-04-12T10:04:12.442Z</time></trkpt><trkpt lat="42.6470867" lon="12.8245217"><ele>277.2</ele><time>2026-04-12T10:04:13.434Z</time></trkpt><trkpt lat="42.6470033" lon="12.8246133"><ele>276.0</ele><time>2026-04-12T10:04:14.439Z</time></trkpt><trkpt lat="42.646925" lon="12.82471"><ele>276.0</ele><time>2026-04-12T10:04:15.439Z</time></trkpt><trkpt lat="42.6468517" lon="12.8248083"><ele>276.0</ele><time>2026-04-12T10:04:16.437Z</time></trkpt><trkpt lat="42.64678" lon="12.82491"><ele>276.0</ele><time>2026-04-12T10:04:17.431Z</time></trkpt><trkpt lat="42.6467083" lon="12.825005"><ele>276.0</ele><time>2026-04-12T10:04:18.433Z</time></trkpt><trkpt lat="42.6466383" lon="12.8250983"><ele>276.0</ele><time>2026-04-12T10:04:19.436Z</time></trkpt><trkpt lat="42.646565" lon="12.8251767"><ele>276.0</ele><time>2026-04-12T10:04:20.438Z</time></trkpt><trkpt lat="42.646495" lon="12.8252417"><ele>276.0</ele><time>2026-04-12T10:04:21.433Z</time></trkpt><trkpt lat="42.6464333" lon="12.8252867"><ele>276.0</ele><time>2026-04-12T10:04:22.433Z</time></trkpt><trkpt lat="42.6463233" lon="12.825255"><ele>276.0</ele><time>2026-04-12T10:04:24.437Z</time></trkpt><trkpt lat="42.6462667" lon="12.8251933"><ele>276.0</ele><time>2026-04-12T10:04:25.437Z</time></trkpt><trkpt lat="42.6462067" lon="12.8251267"><ele>276.0</ele><time>2026-04-12T10:04:26.439Z</time></trkpt><trkpt lat="42.6461367" lon="12.82505"><ele>275.0</ele><time>2026-04-12T10:04:27.438Z</time></trkpt><trkpt lat="42.6460583" lon="12.8249833"><ele>274.0</ele><time>2026-04-12T10:04:28.436Z</time></trkpt><trkpt lat="42.6459817" lon="12.8249017"><ele>273.0</ele><time>2026-04-12T10:04:29.441Z</time></trkpt><trkpt lat="42.6459033" lon="12.8248233"><ele>272.0</ele><time>2026-04-12T10:04:30.435Z</time></trkpt><trkpt lat="42.6458217" lon="12.8247567"><ele>271.0</ele><time>2026-04-12T10:04:31.432Z</time></trkpt><trkpt lat="42.6457333" lon="12.8246917"><ele>271.0</ele><time>2026-04-12T10:04:32.437Z</time></trkpt><trkpt lat="42.6456433" lon="12.8246417"><ele>271.0</ele><time>2026-04-12T10:04:33.433Z</time></trkpt><trkpt lat="42.6455467" lon="12.8245967"><ele>271.0</ele><time>2026-04-12T10:04:34.437Z</time></trkpt><trkpt lat="42.645445" lon="12.8245533"><ele>271.0</ele><time>2026-04-12T10:04:35.43Z</time></trkpt><trkpt lat="42.6453333" lon="12.8245083"><ele>271.0</ele><time>2026-04-12T10:04:36.44Z</time></trkpt><trkpt lat="42.6452217" lon="12.82444"><ele>270.25</ele><time>2026-04-12T10:04:37.427Z</time></trkpt><trkpt lat="42.6451267" lon="12.8243333"><ele>269.5</ele><time>2026-04-12T10:04:38.446Z</time></trkpt><trkpt lat="42.645065" lon="12.824195"><ele>268.75</ele><time>2026-04-12T10:04:39.433Z</time></trkpt><trkpt lat="42.64503" lon="12.824045"><ele>268.0</ele><time>2026-04-12T10:04:40.431Z</time></trkpt><trkpt lat="42.6450233" lon="12.8238867"><ele>268.0</ele><time>2026-04-12T10:04:41.438Z</time></trkpt><trkpt lat="42.6450283" lon="12.8237367"><ele>268.0</ele><time>2026-04-12T10:04:42.43Z</time></trkpt><trkpt lat="42.6450483" lon="12.8235883"><ele>268.0</ele><time>2026-04-12T10:04:43.44Z</time></trkpt><trkpt lat="42.6450867" lon="12.82345"><ele>268.0</ele><time>2026-04-12T10:04:44.435Z</time></trkpt><trkpt lat="42.645145" lon="12.823335"><ele>268.0</ele><time>2026-04-12T10:04:45.434Z</time></trkpt><trkpt lat="42.6452233" lon="12.823235"><ele>275.25</ele><time>2026-04-12T10:04:46.433Z</time></trkpt><trkpt lat="42.645305" lon="12.8231267"><ele>282.5</ele><time>2026-04-12T10:04:47.437Z</time></trkpt><trkpt lat="42.6453833" lon="12.8230117"><ele>289.75</ele><time>2026-04-12T10:04:48.44Z</time></trkpt><trkpt lat="42.6454533" lon="12.8228767"><ele>297.0</ele><time>2026-04-12T10:04:49.433Z</time></trkpt><trkpt lat="42.6455083" lon="12.82274"><ele>293.5</ele><time>2026-04-12T10:04:50.435Z</time></trkpt><trkpt lat="42.6455533" lon="12.822595"><ele>290.0</ele><time>2026-04-12T10:04:51.432Z</time></trkpt><trkpt lat="42.6455917" lon="12.82245"><ele>286.5</ele><time>2026-04-12T10:04:52.431Z</time></trkpt><trkpt lat="42.64562" lon="12.822305"><ele>283.0</ele><time>2026-04-12T10:04:53.442Z</time></trkpt><trkpt lat="42.6456333" lon="12.8221533"><ele>283.0</ele><time>2026-04-12T10:04:54.438Z</time></trkpt><trkpt lat="42.6456083" lon="12.822"><ele>283.0</ele><time>2026-04-12T10:04:55.425Z</time></trkpt><trkpt lat="42.6455467" lon="12.8218533"><ele>283.0</ele><time>2026-04-12T10:04:56.441Z</time></trkpt><trkpt lat="42.6454633" lon="12.8216933"><ele>283.0</ele><time>2026-04-12T10:04:57.447Z</time></trkpt><trkpt lat="42.6453667" lon="12.8215067"><ele>277.3333333333333</ele><time>2026-04-12T10:04:58.431Z</time></trkpt><trkpt lat="42.6452667" lon="12.821305"><ele>271.6666666666667</ele><time>2026-04-12T10:04:59.439Z</time></trkpt><trkpt lat="42.6451667" lon="12.8210883"><ele>266.0</ele><time>2026-04-12T10:05:00.436Z</time></trkpt><trkpt lat="42.6450683" lon="12.82085"><ele>266.0</ele><time>2026-04-12T10:05:01.443Z</time></trkpt><trkpt lat="42.6449783" lon="12.8205983"><ele>266.0</ele><time>2026-04-12T10:05:02.435Z</time></trkpt><trkpt lat="42.6449033" lon="12.8203417"><ele>266.0</ele><time>2026-04-12T10:05:03.436Z</time></trkpt><trkpt lat="42.6448483" lon="12.82009"><ele>267.0</ele><time>2026-04-12T10:05:04.438Z</time></trkpt><trkpt lat="42.6448283" lon="12.8198367"><ele>268.0</ele><time>2026-04-12T10:05:05.432Z</time></trkpt><trkpt lat="42.6448217" lon="12.8195817"><ele>269.0</ele><time>2026-04-12T10:05:06.438Z</time></trkpt><trkpt lat="42.6448133" lon="12.819315"><ele>269.33333333333337</ele><time>2026-04-12T10:05:07.435Z</time></trkpt><trkpt lat="42.6447567" lon="12.8190533"><ele>269.6666666666667</ele><time>2026-04-12T10:05:08.438Z</time></trkpt><trkpt lat="42.6446633" lon="12.8188017"><ele>270.0</ele><time>2026-04-12T10:05:09.437Z</time></trkpt><trkpt lat="42.6445483" lon="12.818575"><ele>266.3333333333333</ele><time>2026-04-12T10:05:10.431Z</time></trkpt><trkpt lat="42.6444383" lon="12.8183583"><ele>262.66666666666663</ele><time>2026-04-12T10:05:11.436Z</time></trkpt><trkpt lat="42.6443317" lon="12.8181483"><ele>259.0</ele><time>2026-04-12T10:05:12.434Z</time></trkpt><trkpt lat="42.6442233" lon="12.817945"><ele>259.0</ele><time>2026-04-12T10:05:13.434Z</time></trkpt><trkpt lat="42.6441117" lon="12.817745"><ele>259.0</ele><time>2026-04-12T10:05:14.438Z</time></trkpt><trkpt lat="42.6439883" lon="12.8175583"><ele>259.0</ele><time>2026-04-12T10:05:15.423Z</time></trkpt><trkpt lat="42.6438433" lon="12.8173967"><ele>258.0</ele><time>2026-04-12T10:05:16.434Z</time></trkpt><trkpt lat="42.6436783" lon="12.8172567"><ele>257.0</ele><time>2026-04-12T10:05:17.424Z</time></trkpt><trkpt lat="42.643495" lon="12.8171233"><ele>256.0</ele><time>2026-04-12T10:05:18.442Z</time></trkpt><trkpt lat="42.6433133" lon="12.8169933"><ele>256.0</ele><time>2026-04-12T10:05:19.438Z</time></trkpt><trkpt lat="42.6431483" lon="12.8168667"><ele>256.0</ele><time>2026-04-12T10:05:20.434Z</time></trkpt><trkpt lat="42.6430033" lon="12.8167367"><ele>256.0</ele><time>2026-04-12T10:05:21.442Z</time></trkpt><trkpt lat="42.6428967" lon="12.8165783"><ele>257.3333333333333</ele><time>2026-04-12T10:05:22.438Z</time></trkpt><trkpt lat="42.6428283" lon="12.8163983"><ele>258.6666666666667</ele><time>2026-04-12T10:05:23.438Z</time></trkpt><trkpt lat="42.6428017" lon="12.8161883"><ele>260.0</ele><time>2026-04-12T10:05:24.431Z</time></trkpt><trkpt lat="42.642785" lon="12.8159433"><ele>260.0</ele><time>2026-04-12T10:05:25.439Z</time></trkpt><trkpt lat="42.642765" lon="12.815675"><ele>260.0</ele><time>2026-04-12T10:05:26.438Z</time></trkpt><trkpt lat="42.6427383" lon="12.8154083"><ele>260.0</ele><time>2026-04-12T10:05:27.436Z</time></trkpt><trkpt lat="42.6427067" lon="12.81516"><ele>263.0</ele><time>2026-04-12T10:05:28.434Z</time></trkpt><trkpt lat="42.64267" lon="12.8149283"><ele>266.0</ele><time>2026-04-12T10:05:29.436Z</time></trkpt><trkpt lat="42.6426067" lon="12.814725"><ele>269.0</ele><time>2026-04-12T10:05:30.437Z</time></trkpt><trkpt lat="42.64251" lon="12.8145667"><ele>269.0</ele><time>2026-04-12T10:05:31.438Z</time></trkpt><trkpt lat="42.642395" lon="12.8144483"><ele>269.0</ele><time>2026-04-12T10:05:32.434Z</time></trkpt><trkpt lat="42.6422733" lon="12.8143517"><ele>269.0</ele><time>2026-04-12T10:05:33.435Z</time></trkpt><trkpt lat="42.6421367" lon="12.8142667"><ele>269.0</ele><time>2026-04-12T10:05:34.424Z</time></trkpt><trkpt lat="42.64201" lon="12.814165"><ele>265.0</ele><time>2026-04-12T10:05:35.435Z</time></trkpt><trkpt lat="42.6418883" lon="12.8140383"><ele>261.0</ele><time>2026-04-12T10:05:36.433Z</time></trkpt><trkpt lat="42.6417667" lon="12.8138967"><ele>257.0</ele><time>2026-04-12T10:05:37.44Z</time></trkpt><trkpt lat="42.641645" lon="12.8137417"><ele>257.0</ele><time>2026-04-12T10:05:38.435Z</time></trkpt><trkpt lat="42.6415217" lon="12.8135667"><ele>257.0</ele><time>2026-04-12T10:05:39.432Z</time></trkpt><trkpt lat="42.641405" lon="12.8133617"><ele>257.0</ele><time>2026-04-12T10:05:40.424Z</time></trkpt><trkpt lat="42.6413083" lon="12.8131317"><ele>255.66666666666669</ele><time>2026-04-12T10:05:41.437Z</time></trkpt><trkpt lat="42.6412267" lon="12.812875"><ele>254.33333333333331</ele><time>2026-04-12T10:05:42.438Z</time></trkpt><trkpt lat="42.6411717" lon="12.812595"><ele>253.0</ele><time>2026-04-12T10:05:43.438Z</time></trkpt><trkpt lat="42.6411283" lon="12.8122917"><ele>253.0</ele><time>2026-04-12T10:05:44.441Z</time></trkpt><trkpt lat="42.641085" lon="12.811975"><ele>253.0</ele><time>2026-04-12T10:05:45.433Z</time></trkpt><trkpt lat="42.64104" lon="12.8116517"><ele>256.0</ele><time>2026-04-12T10:05:46.434Z</time></trkpt><trkpt lat="42.640995" lon="12.8113283"><ele>259.0</ele><time>2026-04-12T10:05:47.44Z</time></trkpt><trkpt lat="42.6409483" lon="12.811005"><ele>260.0</ele><time>2026-04-12T10:05:48.435Z</time></trkpt><trkpt lat="42.6409017" lon="12.8106833"><ele>261.0</ele><time>2026-04-12T10:05:49.43Z</time></trkpt><trkpt lat="42.6408567" lon="12.8103733"><ele>263.3333333333333</ele><time>2026-04-12T10:05:50.433Z</time></trkpt><trkpt lat="42.64081" lon="12.81008"><ele>265.66666666666663</ele><time>2026-04-12T10:05:51.433Z</time></trkpt><trkpt lat="42.6407567" lon="12.8098033"><ele>268.0</ele><time>2026-04-12T10:05:52.436Z</time></trkpt><trkpt lat="42.64068" lon="12.8095517"><ele>268.0</ele><time>2026-04-12T10:05:53.438Z</time></trkpt><trkpt lat="42.6405667" lon="12.8093317"><ele>268.0</ele><time>2026-04-12T10:05:54.433Z</time></trkpt><trkpt lat="42.6404183" lon="12.8091433"><ele>268.0</ele><time>2026-04-12T10:05:55.436Z</time></trkpt><trkpt lat="42.640265" lon="12.8089667"><ele>265.66666666666663</ele><time>2026-04-12T10:05:56.43Z</time></trkpt><trkpt lat="42.6400917" lon="12.8088133"><ele>263.3333333333333</ele><time>2026-04-12T10:05:57.429Z</time></trkpt><trkpt lat="42.6399217" lon="12.8086417"><ele>261.0</ele><time>2026-04-12T10:05:58.435Z</time></trkpt><trkpt lat="42.639765" lon="12.808445"><ele>261.0</ele><time>2026-04-12T10:05:59.439Z</time></trkpt><trkpt lat="42.639625" lon="12.8082233"><ele>261.0</ele><time>2026-04-12T10:06:00.435Z</time></trkpt><trkpt lat="42.6394967" lon="12.8079833"><ele>261.0</ele><time>2026-04-12T10:06:01.436Z</time></trkpt><trkpt lat="42.63937" lon="12.8077283"><ele>259.3333333333333</ele><time>2026-04-12T10:06:02.435Z</time></trkpt><trkpt lat="42.6392417" lon="12.8074767"><ele>257.66666666666663</ele><time>2026-04-12T10:06:03.431Z</time></trkpt><trkpt lat="42.6391117" lon="12.8072433"><ele>256.0</ele><time>2026-04-12T10:06:04.439Z</time></trkpt><trkpt lat="42.6389667" lon="12.8070567"><ele>256.0</ele><time>2026-04-12T10:06:05.442Z</time></trkpt><trkpt lat="42.6388233" lon="12.8068983"><ele>256.0</ele><time>2026-04-12T10:06:06.429Z</time></trkpt><trkpt lat="42.6387017" lon="12.8067467"><ele>256.0</ele><time>2026-04-12T10:06:07.436Z</time></trkpt><trkpt lat="42.6386317" lon="12.8065967"><ele>256.25</ele><time>2026-04-12T10:06:08.435Z</time></trkpt><trkpt lat="42.6385967" lon="12.8064383"><ele>256.5</ele><time>2026-04-12T10:06:09.444Z</time></trkpt><trkpt lat="42.6385817" lon="12.8062783"><ele>256.75</ele><time>2026-04-12T10:06:10.435Z</time></trkpt><trkpt lat="42.6385683" lon="12.8061217"><ele>257.0</ele><time>2026-04-12T10:06:11.451Z</time></trkpt><trkpt lat="42.638535" lon="12.80597"><ele>257.0</ele><time>2026-04-12T10:06:12.44Z</time></trkpt><trkpt lat="42.6384683" lon="12.8058367"><ele>257.0</ele><time>2026-04-12T10:06:13.433Z</time></trkpt><trkpt lat="42.63839" lon="12.8056883"><ele>257.0</ele><time>2026-04-12T10:06:14.43Z</time></trkpt><trkpt lat="42.6382933" lon="12.80553"><ele>257.0</ele><time>2026-04-12T10:06:15.435Z</time></trkpt><trkpt lat="42.63816" lon="12.8053"><ele>279.0</ele><time>2026-04-12T10:06:16.434Z</time></trkpt><trkpt lat="42.6379867" lon="12.80505"><ele>301.0</ele><time>2026-04-12T10:06:17.435Z</time></trkpt><trkpt lat="42.6378267" lon="12.8047733"><ele>278.0</ele><time>2026-04-12T10:06:18.435Z</time></trkpt><trkpt lat="42.63765" lon="12.8045417"><ele>255.0</ele><time>2026-04-12T10:06:19.446Z</time></trkpt><trkpt lat="42.637465" lon="12.8043683"><ele>254.0</ele><time>2026-04-12T10:06:20.439Z</time></trkpt><trkpt lat="42.6372767" lon="12.80424"><ele>253.0</ele><time>2026-04-12T10:06:21.434Z</time></trkpt><trkpt lat="42.63709" lon="12.8041233"><ele>252.0</ele><time>2026-04-12T10:06:22.436Z</time></trkpt><trkpt lat="42.6369317" lon="12.8039717"><ele>252.0</ele><time>2026-04-12T10:06:23.435Z</time></trkpt><trkpt lat="42.636785" lon="12.8037783"><ele>252.0</ele><time>2026-04-12T10:06:24.438Z</time></trkpt><trkpt lat="42.636645" lon="12.8035533"><ele>252.0</ele><time>2026-04-12T10:06:25.435Z</time></trkpt><trkpt lat="42.6365033" lon="12.8033183"><ele>258.5</ele><time>2026-04-12T10:06:26.436Z</time></trkpt><trkpt lat="42.6363583" lon="12.8030583"><ele>265.0</ele><time>2026-04-12T10:06:27.437Z</time></trkpt><trkpt lat="42.6362167" lon="12.8027933"><ele>261.0</ele><time>2026-04-12T10:06:28.434Z</time></trkpt><trkpt lat="42.63607" lon="12.80253"><ele>257.0</ele><time>2026-04-12T10:06:29.436Z</time></trkpt><trkpt lat="42.6359267" lon="12.80226"><ele>257.0</ele><time>2026-04-12T10:06:30.434Z</time></trkpt><trkpt lat="42.6357867" lon="12.801995"><ele>257.0</ele><time>2026-04-12T10:06:31.433Z</time></trkpt><trkpt lat="42.6356533" lon="12.8017283"><ele>263.5</ele><time>2026-04-12T10:06:32.438Z</time></trkpt><trkpt lat="42.635525" lon="12.80146"><ele>270.0</ele><time>2026-04-12T10:06:33.439Z</time></trkpt><trkpt lat="42.635395" lon="12.8011917"><ele>261.5</ele><time>2026-04-12T10:06:34.436Z</time></trkpt><trkpt lat="42.6352633" lon="12.800915"><ele>253.0</ele><time>2026-04-12T10:06:35.434Z</time></trkpt><trkpt lat="42.6351283" lon="12.8006333"><ele>253.0</ele><time>2026-04-12T10:06:36.439Z</time></trkpt><trkpt lat="42.63499" lon="12.8003517"><ele>253.0</ele><time>2026-04-12T10:06:37.437Z</time></trkpt><trkpt lat="42.6348433" lon="12.80008"><ele>262.0</ele><time>2026-04-12T10:06:38.436Z</time></trkpt><trkpt lat="42.6346817" lon="12.799825"><ele>271.0</ele><time>2026-04-12T10:06:39.433Z</time></trkpt><trkpt lat="42.6345067" lon="12.7995833"><ele>263.0</ele><time>2026-04-12T10:06:40.434Z</time></trkpt><trkpt lat="42.63433" lon="12.7993467"><ele>255.0</ele><time>2026-04-12T10:06:41.435Z</time></trkpt><trkpt lat="42.634155" lon="12.7991133"><ele>255.0</ele><time>2026-04-12T10:06:42.427Z</time></trkpt><trkpt lat="42.6339917" lon="12.7988733"><ele>255.0</ele><time>2026-04-12T10:06:43.429Z</time></trkpt><trkpt lat="42.6338217" lon="12.7986433"><ele>253.0</ele><time>2026-04-12T10:06:44.429Z</time></trkpt><trkpt lat="42.6336467" lon="12.7984183"><ele>251.0</ele><time>2026-04-12T10:06:45.429Z</time></trkpt><trkpt lat="42.6334717" lon="12.7982033"><ele>251.0</ele><time>2026-04-12T10:06:46.436Z</time></trkpt><trkpt lat="42.63329" lon="12.7980033"><ele>251.0</ele><time>2026-04-12T10:06:47.43Z</time></trkpt><trkpt lat="42.6331067" lon="12.797815"><ele>252.0</ele><time>2026-04-12T10:06:48.431Z</time></trkpt><trkpt lat="42.6329167" lon="12.797635"><ele>253.0</ele><time>2026-04-12T10:06:49.437Z</time></trkpt><trkpt lat="42.6327167" lon="12.797465"><ele>253.0</ele><time>2026-04-12T10:06:50.439Z</time></trkpt><trkpt lat="42.6325067" lon="12.7973117"><ele>253.0</ele><time>2026-04-12T10:06:51.436Z</time></trkpt><trkpt lat="42.6322883" lon="12.7971767"><ele>253.0</ele><time>2026-04-12T10:06:52.427Z</time></trkpt><trkpt lat="42.6320667" lon="12.7970617"><ele>253.0</ele><time>2026-04-12T10:06:53.433Z</time></trkpt><trkpt lat="42.6318383" lon="12.7969633"><ele>249.5</ele><time>2026-04-12T10:06:54.437Z</time></trkpt><trkpt lat="42.6316033" lon="12.7968783"><ele>246.0</ele><time>2026-04-12T10:06:55.434Z</time></trkpt><trkpt lat="42.6313617" lon="12.7968117"><ele>253.0</ele><time>2026-04-12T10:06:56.442Z</time></trkpt><trkpt lat="42.631115" lon="12.7967583"><ele>260.0</ele><time>2026-04-12T10:06:57.439Z</time></trkpt><trkpt lat="42.630865" lon="12.796715"><ele>260.0</ele><time>2026-04-12T10:06:58.437Z</time></trkpt><trkpt lat="42.63061" lon="12.796675"><ele>260.0</ele><time>2026-04-12T10:06:59.438Z</time></trkpt><trkpt lat="42.6303533" lon="12.796635"><ele>255.0</ele><time>2026-04-12T10:07:00.435Z</time></trkpt><trkpt lat="42.6301067" lon="12.7965817"><ele>250.0</ele><time>2026-04-12T10:07:01.429Z</time></trkpt><trkpt lat="42.6298717" lon="12.796515"><ele>250.0</ele><time>2026-04-12T10:07:02.438Z</time></trkpt><trkpt lat="42.6296433" lon="12.7964383"><ele>250.0</ele><time>2026-04-12T10:07:03.434Z</time></trkpt><trkpt lat="42.6294183" lon="12.7963467"><ele>248.5</ele><time>2026-04-12T10:07:04.436Z</time></trkpt><trkpt lat="42.6291983" lon="12.79624"><ele>247.0</ele><time>2026-04-12T10:07:05.44Z</time></trkpt><trkpt lat="42.6289833" lon="12.7961217"><ele>252.0</ele><time>2026-04-12T10:07:06.434Z</time></trkpt><trkpt lat="42.6287683" lon="12.7959883"><ele>257.0</ele><time>2026-04-12T10:07:07.436Z</time></trkpt><trkpt lat="42.62855" lon="12.7958483"><ele>257.0</ele><time>2026-04-12T10:07:08.437Z</time></trkpt><trkpt lat="42.62833" lon="12.7956933"><ele>257.0</ele><time>2026-04-12T10:07:09.436Z</time></trkpt><trkpt lat="42.6281083" lon="12.7955433"><ele>257.0</ele><time>2026-04-12T10:07:10.428Z</time></trkpt><trkpt lat="42.6278867" lon="12.7954033"><ele>257.0</ele><time>2026-04-12T10:07:11.438Z</time></trkpt><trkpt lat="42.6276633" lon="12.7952783"><ele>263.0</ele><time>2026-04-12T10:07:12.44Z</time></trkpt><trkpt lat="42.62744" lon="12.79517"><ele>269.0</ele><time>2026-04-12T10:07:13.45Z</time></trkpt><trkpt lat="42.6272117" lon="12.7950767"><ele>269.0</ele><time>2026-04-12T10:07:14.437Z</time></trkpt><trkpt lat="42.6269783" lon="12.7950033"><ele>269.0</ele><time>2026-04-12T10:07:15.44Z</time></trkpt><trkpt lat="42.6267383" lon="12.794945"><ele>262.5</ele><time>2026-04-12T10:07:16.43Z</time></trkpt><trkpt lat="42.6264933" lon="12.7949067"><ele>256.0</ele><time>2026-04-12T10:07:17.441Z</time></trkpt><trkpt lat="42.6262417" lon="12.7948833"><ele>255.0</ele><time>2026-04-12T10:07:18.43Z</time></trkpt><trkpt lat="42.6259933" lon="12.7948683"><ele>254.0</ele><time>2026-04-12T10:07:19.436Z</time></trkpt><trkpt lat="42.625745" lon="12.7948667"><ele>254.0</ele><time>2026-04-12T10:07:20.448Z</time></trkpt><trkpt lat="42.625495" lon="12.7948683"><ele>254.0</ele><time>2026-04-12T10:07:21.437Z</time></trkpt><trkpt lat="42.6252467" lon="12.7948683"><ele>254.5</ele><time>2026-04-12T10:07:22.439Z</time></trkpt><trkpt lat="42.6249983" lon="12.7948767"><ele>255.0</ele><time>2026-04-12T10:07:23.435Z</time></trkpt><trkpt lat="42.62475" lon="12.7948767"><ele>255.0</ele><time>2026-04-12T10:07:24.432Z</time></trkpt><trkpt lat="42.6245017" lon="12.7948733"><ele>255.0</ele><time>2026-04-12T10:07:25.435Z</time></trkpt><trkpt lat="42.624255" lon="12.79486"><ele>254.5</ele><time>2026-04-12T10:07:26.433Z</time></trkpt><trkpt lat="42.6240217" lon="12.7948517"><ele>254.0</ele><time>2026-04-12T10:07:27.439Z</time></trkpt><trkpt lat="42.6238" lon="12.79484"><ele>252.33333333333334</ele><time>2026-04-12T10:07:28.433Z</time></trkpt><trkpt lat="42.6235867" lon="12.79483"><ele>250.66666666666669</ele><time>2026-04-12T10:07:29.435Z</time></trkpt><trkpt lat="42.6233767" lon="12.7948217"><ele>249.0</ele><time>2026-04-12T10:07:30.431Z</time></trkpt><trkpt lat="42.62317" lon="12.7948167"><ele>249.0</ele><time>2026-04-12T10:07:31.431Z</time></trkpt><trkpt lat="42.6229583" lon="12.7948167"><ele>249.0</ele><time>2026-04-12T10:07:32.437Z</time></trkpt><trkpt lat="42.6227383" lon="12.7948067"><ele>249.0</ele><time>2026-04-12T10:07:33.453Z</time></trkpt><trkpt lat="42.622515" lon="12.7947883"><ele>248.0</ele><time>2026-04-12T10:07:34.437Z</time></trkpt><trkpt lat="42.6222867" lon="12.7947633"><ele>247.0</ele><time>2026-04-12T10:07:35.441Z</time></trkpt><trkpt lat="42.622055" lon="12.7947117"><ele>249.5</ele><time>2026-04-12T10:07:36.438Z</time></trkpt><trkpt lat="42.6218283" lon="12.7946333"><ele>252.0</ele><time>2026-04-12T10:07:37.441Z</time></trkpt><trkpt lat="42.6216033" lon="12.7945317"><ele>252.0</ele><time>2026-04-12T10:07:38.434Z</time></trkpt><trkpt lat="42.62139" lon="12.7944067"><ele>252.0</ele><time>2026-04-12T10:07:39.432Z</time></trkpt><trkpt lat="42.6211917" lon="12.79425"><ele>249.33333333333331</ele><time>2026-04-12T10:07:40.431Z</time></trkpt><trkpt lat="42.6210067" lon="12.7940783"><ele>246.66666666666666</ele><time>2026-04-12T10:07:41.43Z</time></trkpt><trkpt lat="42.620845" lon="12.79389"><ele>244.0</ele><time>2026-04-12T10:07:42.441Z</time></trkpt><trkpt lat="42.6207" lon="12.7936967"><ele>246.66666666666666</ele><time>2026-04-12T10:07:43.436Z</time></trkpt><trkpt lat="42.6205767" lon="12.7935017"><ele>249.33333333333331</ele><time>2026-04-12T10:07:44.425Z</time></trkpt><trkpt lat="42.6204717" lon="12.793305"><ele>252.0</ele><time>2026-04-12T10:07:45.44Z</time></trkpt><trkpt lat="42.62038" lon="12.79311"><ele>249.66666666666669</ele><time>2026-04-12T10:07:46.437Z</time></trkpt><trkpt lat="42.6203117" lon="12.792905"><ele>247.33333333333334</ele><time>2026-04-12T10:07:47.435Z</time></trkpt><trkpt lat="42.620245" lon="12.7927067"><ele>245.0</ele><time>2026-04-12T10:07:48.432Z</time></trkpt><trkpt lat="42.6201833" lon="12.7924933"><ele>245.0</ele><time>2026-04-12T10:07:49.43Z</time></trkpt><trkpt lat="42.62013" lon="12.7922717"><ele>245.0</ele><time>2026-04-12T10:07:50.433Z</time></trkpt><trkpt lat="42.620085" lon="12.7920367"><ele>245.0</ele><time>2026-04-12T10:07:51.429Z</time></trkpt><trkpt lat="42.620045" lon="12.7917867"><ele>246.0</ele><time>2026-04-12T10:07:52.434Z</time></trkpt><trkpt lat="42.6200133" lon="12.7915183"><ele>247.0</ele><time>2026-04-12T10:07:53.427Z</time></trkpt><trkpt lat="42.619985" lon="12.7912317"><ele>248.0</ele><time>2026-04-12T10:07:54.438Z</time></trkpt><trkpt lat="42.6199483" lon="12.7909367"><ele>248.0</ele><time>2026-04-12T10:07:55.443Z</time></trkpt><trkpt lat="42.6199133" lon="12.7906467"><ele>248.0</ele><time>2026-04-12T10:07:56.444Z</time></trkpt><trkpt lat="42.6198767" lon="12.7903533"><ele>248.0</ele><time>2026-04-12T10:07:57.458Z</time></trkpt><trkpt lat="42.6198433" lon="12.7900633"><ele>247.5</ele><time>2026-04-12T10:07:58.431Z</time></trkpt><trkpt lat="42.6198033" lon="12.7897633"><ele>247.0</ele><time>2026-04-12T10:07:59.439Z</time></trkpt><trkpt lat="42.619755" lon="12.7894583"><ele>248.0</ele><time>2026-04-12T10:08:00.43Z</time></trkpt><trkpt lat="42.6196967" lon="12.78915"><ele>249.0</ele><time>2026-04-12T10:08:01.452Z</time></trkpt><trkpt lat="42.6196233" lon="12.78884"><ele>249.0</ele><time>2026-04-12T10:08:02.439Z</time></trkpt><trkpt lat="42.6195483" lon="12.78853"><ele>249.0</ele><time>2026-04-12T10:08:03.437Z</time></trkpt><trkpt lat="42.61948" lon="12.7882167"><ele>244.0</ele><time>2026-04-12T10:08:04.431Z</time></trkpt><trkpt lat="42.619425" lon="12.7879117"><ele>239.0</ele><time>2026-04-12T10:08:05.432Z</time></trkpt><trkpt lat="42.6193767" lon="12.7876017"><ele>239.0</ele><time>2026-04-12T10:08:06.443Z</time></trkpt><trkpt lat="42.6193183" lon="12.7872867"><ele>239.0</ele><time>2026-04-12T10:08:07.436Z</time></trkpt><trkpt lat="42.6192533" lon="12.7869667"><ele>239.5</ele><time>2026-04-12T10:08:08.439Z</time></trkpt><trkpt lat="42.6191867" lon="12.786645"><ele>240.0</ele><time>2026-04-12T10:08:09.433Z</time></trkpt><trkpt lat="42.6191217" lon="12.78633"><ele>240.0</ele><time>2026-04-12T10:08:10.43Z</time></trkpt><trkpt lat="42.6190617" lon="12.7860217"><ele>240.0</ele><time>2026-04-12T10:08:11.435Z</time></trkpt><trkpt lat="42.6190117" lon="12.7857117"><ele>240.33333333333331</ele><time>2026-04-12T10:08:12.441Z</time></trkpt><trkpt lat="42.6189833" lon="12.7854117"><ele>240.66666666666666</ele><time>2026-04-12T10:08:13.437Z</time></trkpt><trkpt lat="42.61897" lon="12.7851133"><ele>241.0</ele><time>2026-04-12T10:08:14.432Z</time></trkpt><trkpt lat="42.6189683" lon="12.7848117"><ele>242.0</ele><time>2026-04-12T10:08:15.435Z</time></trkpt><trkpt lat="42.618975" lon="12.784505"><ele>243.0</ele><time>2026-04-12T10:08:16.432Z</time></trkpt><trkpt lat="42.6189817" lon="12.7842"><ele>243.0</ele><time>2026-04-12T10:08:17.429Z</time></trkpt><trkpt lat="42.6189883" lon="12.783905"><ele>243.0</ele><time>2026-04-12T10:08:18.438Z</time></trkpt><trkpt lat="42.6189917" lon="12.7836233"><ele>243.0</ele><time>2026-04-12T10:08:19.436Z</time></trkpt><trkpt lat="42.6189967" lon="12.783355"><ele>243.0</ele><time>2026-04-12T10:08:20.438Z</time></trkpt><trkpt lat="42.619" lon="12.7830917"><ele>243.0</ele><time>2026-04-12T10:08:21.433Z</time></trkpt><trkpt lat="42.6190033" lon="12.78282"><ele>243.0</ele><time>2026-04-12T10:08:22.434Z</time></trkpt><trkpt lat="42.6190083" lon="12.7825417"><ele>242.66666666666669</ele><time>2026-04-12T10:08:23.444Z</time></trkpt><trkpt lat="42.6190133" lon="12.7822517"><ele>242.33333333333334</ele><time>2026-04-12T10:08:24.43Z</time></trkpt><trkpt lat="42.619025" lon="12.781955"><ele>242.0</ele><time>2026-04-12T10:08:25.436Z</time></trkpt><trkpt lat="42.619035" lon="12.7816683"><ele>242.66666666666669</ele><time>2026-04-12T10:08:26.438Z</time></trkpt><trkpt lat="42.6190417" lon="12.7814017"><ele>243.33333333333331</ele><time>2026-04-12T10:08:27.434Z</time></trkpt><trkpt lat="42.619045" lon="12.7811533"><ele>244.0</ele><time>2026-04-12T10:08:28.436Z</time></trkpt><trkpt lat="42.61904" lon="12.7809217"><ele>245.0</ele><time>2026-04-12T10:08:29.439Z</time></trkpt><trkpt lat="42.6190217" lon="12.7807017"><ele>246.0</ele><time>2026-04-12T10:08:30.436Z</time></trkpt><trkpt lat="42.6189667" lon="12.78048"><ele>247.0</ele><time>2026-04-12T10:08:31.431Z</time></trkpt><trkpt lat="42.61888" lon="12.7802633"><ele>247.66666666666666</ele><time>2026-04-12T10:08:32.444Z</time></trkpt><trkpt lat="42.6187617" lon="12.780055"><ele>248.33333333333331</ele><time>2026-04-12T10:08:33.432Z</time></trkpt><trkpt lat="42.6186233" lon="12.779845"><ele>249.0</ele><time>2026-04-12T10:08:34.434Z</time></trkpt><trkpt lat="42.6184783" lon="12.7796367"><ele>247.66666666666669</ele><time>2026-04-12T10:08:35.439Z</time></trkpt><trkpt lat="42.6183333" lon="12.7794283"><ele>246.33333333333334</ele><time>2026-04-12T10:08:36.439Z</time></trkpt><trkpt lat="42.6181833" lon="12.7792233"><ele>245.0</ele><time>2026-04-12T10:08:37.434Z</time></trkpt><trkpt lat="42.61803" lon="12.7790267"><ele>245.0</ele><time>2026-04-12T10:08:38.432Z</time></trkpt><trkpt lat="42.6178667" lon="12.77884"><ele>245.0</ele><time>2026-04-12T10:08:39.431Z</time></trkpt><trkpt lat="42.6176867" lon="12.778665"><ele>245.0</ele><time>2026-04-12T10:08:40.424Z</time></trkpt><trkpt lat="42.6174933" lon="12.7784917"><ele>248.5</ele><time>2026-04-12T10:08:41.442Z</time></trkpt><trkpt lat="42.6172883" lon="12.7783317"><ele>252.0</ele><time>2026-04-12T10:08:42.428Z</time></trkpt><trkpt lat="42.6170783" lon="12.7781867"><ele>247.0</ele><time>2026-04-12T10:08:43.438Z</time></trkpt><trkpt lat="42.6168683" lon="12.778065"><ele>242.0</ele><time>2026-04-12T10:08:44.438Z</time></trkpt><trkpt lat="42.6166583" lon="12.77797"><ele>242.0</ele><time>2026-04-12T10:08:45.432Z</time></trkpt><trkpt lat="42.6164517" lon="12.777895"><ele>242.0</ele><time>2026-04-12T10:08:46.439Z</time></trkpt><trkpt lat="42.6162567" lon="12.77782"><ele>242.0</ele><time>2026-04-12T10:08:47.431Z</time></trkpt><trkpt lat="42.61607" lon="12.777755"><ele>242.0</ele><time>2026-04-12T10:08:48.432Z</time></trkpt><trkpt lat="42.6158883" lon="12.7776867"><ele>242.0</ele><time>2026-04-12T10:08:49.441Z</time></trkpt><trkpt lat="42.6157033" lon="12.777625"><ele>242.0</ele><time>2026-04-12T10:08:50.442Z</time></trkpt><trkpt lat="42.61551" lon="12.77756"><ele>241.66666666666669</ele><time>2026-04-12T10:08:51.442Z</time></trkpt><trkpt lat="42.6153067" lon="12.77749"><ele>241.33333333333331</ele><time>2026-04-12T10:08:52.441Z</time></trkpt><trkpt lat="42.6150967" lon="12.7774117"><ele>241.0</ele><time>2026-04-12T10:08:53.44Z</time></trkpt><trkpt lat="42.61488" lon="12.7773317"><ele>241.0</ele><time>2026-04-12T10:08:54.432Z</time></trkpt><trkpt lat="42.6146567" lon="12.7772483"><ele>241.0</ele><time>2026-04-12T10:08:55.431Z</time></trkpt><trkpt lat="42.6144233" lon="12.7771667"><ele>238.5</ele><time>2026-04-12T10:08:56.433Z</time></trkpt><trkpt lat="42.6141883" lon="12.7770833"><ele>236.0</ele><time>2026-04-12T10:08:57.432Z</time></trkpt><trkpt lat="42.6139533" lon="12.777"><ele>236.0</ele><time>2026-04-12T10:08:58.439Z</time></trkpt><trkpt lat="42.613715" lon="12.776915"><ele>236.0</ele><time>2026-04-12T10:08:59.427Z</time></trkpt><trkpt lat="42.6134733" lon="12.7768267"><ele>237.5</ele><time>2026-04-12T10:09:00.441Z</time></trkpt><trkpt lat="42.61323" lon="12.7767383"><ele>239.0</ele><time>2026-04-12T10:09:01.435Z</time></trkpt><trkpt lat="42.6129833" lon="12.7766467"><ele>236.5</ele><time>2026-04-12T10:09:02.439Z</time></trkpt><trkpt lat="42.6127383" lon="12.7765583"><ele>234.0</ele><time>2026-04-12T10:09:03.432Z</time></trkpt><trkpt lat="42.6124917" lon="12.7764717"><ele>234.0</ele><time>2026-04-12T10:09:04.431Z</time></trkpt><trkpt lat="42.612245" lon="12.776385"><ele>234.0</ele><time>2026-04-12T10:09:05.44Z</time></trkpt><trkpt lat="42.6119967" lon="12.7762983"><ele>233.0</ele><time>2026-04-12T10:09:06.44Z</time></trkpt><trkpt lat="42.61175" lon="12.77621"><ele>232.0</ele><time>2026-04-12T10:09:07.433Z</time></trkpt><trkpt lat="42.6115067" lon="12.7761233"><ele>232.0</ele><time>2026-04-12T10:09:08.431Z</time></trkpt><trkpt lat="42.6112667" lon="12.7760367"><ele>232.0</ele><time>2026-04-12T10:09:09.434Z</time></trkpt><trkpt lat="42.6110217" lon="12.7759467"><ele>234.5</ele><time>2026-04-12T10:09:10.44Z</time></trkpt><trkpt lat="42.61078" lon="12.775855"><ele>237.0</ele><time>2026-04-12T10:09:11.438Z</time></trkpt><trkpt lat="42.6105433" lon="12.77576"><ele>236.0</ele><time>2026-04-12T10:09:12.439Z</time></trkpt><trkpt lat="42.610305" lon="12.77566"><ele>235.0</ele><time>2026-04-12T10:09:13.433Z</time></trkpt><trkpt lat="42.610065" lon="12.7755667"><ele>235.0</ele><time>2026-04-12T10:09:14.441Z</time></trkpt><trkpt lat="42.609825" lon="12.7754767"><ele>235.0</ele><time>2026-04-12T10:09:15.437Z</time></trkpt><trkpt lat="42.60958" lon="12.7753883"><ele>233.5</ele><time>2026-04-12T10:09:16.431Z</time></trkpt><trkpt lat="42.609335" lon="12.7753033"><ele>232.0</ele><time>2026-04-12T10:09:17.433Z</time></trkpt><trkpt lat="42.60909" lon="12.7752183"><ele>240.0</ele><time>2026-04-12T10:09:18.44Z</time></trkpt><trkpt lat="42.6088467" lon="12.77513"><ele>248.0</ele><time>2026-04-12T10:09:19.435Z</time></trkpt><trkpt lat="42.60861" lon="12.775035"><ele>248.0</ele><time>2026-04-12T10:09:20.438Z</time></trkpt><trkpt lat="42.6083767" lon="12.7749217"><ele>248.0</ele><time>2026-04-12T10:09:21.435Z</time></trkpt><trkpt lat="42.6081467" lon="12.7747917"><ele>248.0</ele><time>2026-04-12T10:09:22.434Z</time></trkpt><trkpt lat="42.6079217" lon="12.7746517"><ele>248.0</ele><time>2026-04-12T10:09:23.432Z</time></trkpt><trkpt lat="42.607695" lon="12.7745083"><ele>246.5</ele><time>2026-04-12T10:09:24.44Z</time></trkpt><trkpt lat="42.6074667" lon="12.774355"><ele>245.0</ele><time>2026-04-12T10:09:25.431Z</time></trkpt><trkpt lat="42.6072367" lon="12.77421"><ele>245.0</ele><time>2026-04-12T10:09:26.442Z</time></trkpt><trkpt lat="42.607015" lon="12.77406"><ele>245.0</ele><time>2026-04-12T10:09:27.438Z</time></trkpt><trkpt lat="42.6067883" lon="12.7739167"><ele>239.5</ele><time>2026-04-12T10:09:28.438Z</time></trkpt><trkpt lat="42.6065567" lon="12.7737767"><ele>234.0</ele><time>2026-04-12T10:09:29.437Z</time></trkpt><trkpt lat="42.6063283" lon="12.7736383"><ele>236.5</ele><time>2026-04-12T10:09:30.438Z</time></trkpt><trkpt lat="42.6061017" lon="12.7734983"><ele>239.0</ele><time>2026-04-12T10:09:31.424Z</time></trkpt><trkpt lat="42.6058717" lon="12.77337"><ele>239.0</ele><time>2026-04-12T10:09:32.442Z</time></trkpt><trkpt lat="42.6056383" lon="12.7732483"><ele>239.0</ele><time>2026-04-12T10:09:33.439Z</time></trkpt><trkpt lat="42.6054033" lon="12.773135"><ele>237.5</ele><time>2026-04-12T10:09:34.437Z</time></trkpt><trkpt lat="42.605165" lon="12.7730367"><ele>236.0</ele><time>2026-04-12T10:09:35.44Z</time></trkpt><trkpt lat="42.6049233" lon="12.772945"><ele>236.0</ele><time>2026-04-12T10:09:36.44Z</time></trkpt><trkpt lat="42.60468" lon="12.7728567"><ele>236.0</ele><time>2026-04-12T10:09:37.429Z</time></trkpt><trkpt lat="42.6044333" lon="12.772775"><ele>234.0</ele><time>2026-04-12T10:09:38.438Z</time></trkpt><trkpt lat="42.604185" lon="12.7726967"><ele>232.0</ele><time>2026-04-12T10:09:39.44Z</time></trkpt><trkpt lat="42.6039333" lon="12.7726217"><ele>235.5</ele><time>2026-04-12T10:09:40.428Z</time></trkpt><trkpt lat="42.6036767" lon="12.7725483"><ele>239.0</ele><time>2026-04-12T10:09:41.439Z</time></trkpt><trkpt lat="42.603425" lon="12.77248"><ele>239.0</ele><time>2026-04-12T10:09:42.441Z</time></trkpt><trkpt lat="42.603185" lon="12.7724183"><ele>239.0</ele><time>2026-04-12T10:09:43.442Z</time></trkpt><trkpt lat="42.6029583" lon="12.7723617"><ele>236.66666666666669</ele><time>2026-04-12T10:09:44.439Z</time></trkpt><trkpt lat="42.6027433" lon="12.772305"><ele>234.33333333333331</ele><time>2026-04-12T10:09:45.433Z</time></trkpt><trkpt lat="42.602535" lon="12.7722533"><ele>232.0</ele><time>2026-04-12T10:09:46.44Z</time></trkpt><trkpt lat="42.6023333" lon="12.7721833"><ele>232.0</ele><time>2026-04-12T10:09:47.433Z</time></trkpt><trkpt lat="42.6021367" lon="12.7721067"><ele>232.0</ele><time>2026-04-12T10:09:48.44Z</time></trkpt><trkpt lat="42.6019533" lon="12.7720267"><ele>232.0</ele><time>2026-04-12T10:09:49.436Z</time></trkpt><trkpt lat="42.6017783" lon="12.771945"><ele>231.33333333333331</ele><time>2026-04-12T10:09:50.46Z</time></trkpt><trkpt lat="42.6016117" lon="12.7718667"><ele>230.66666666666669</ele><time>2026-04-12T10:09:51.432Z</time></trkpt><trkpt lat="42.60145" lon="12.7717883"><ele>230.0</ele><time>2026-04-12T10:09:52.432Z</time></trkpt><trkpt lat="42.60129" lon="12.7717083"><ele>230.66666666666669</ele><time>2026-04-12T10:09:53.437Z</time></trkpt><trkpt lat="42.6011333" lon="12.7716283"><ele>231.33333333333331</ele><time>2026-04-12T10:09:54.426Z</time></trkpt><trkpt lat="42.6009717" lon="12.77155"><ele>232.0</ele><time>2026-04-12T10:09:55.441Z</time></trkpt><trkpt lat="42.6008067" lon="12.77147"><ele>232.0</ele><time>2026-04-12T10:09:56.429Z</time></trkpt><trkpt lat="42.6006367" lon="12.77139"><ele>232.0</ele><time>2026-04-12T10:09:57.432Z</time></trkpt><trkpt lat="42.6004533" lon="12.7713"><ele>232.0</ele><time>2026-04-12T10:09:58.433Z</time></trkpt><trkpt lat="42.600255" lon="12.7711967"><ele>231.5</ele><time>2026-04-12T10:09:59.437Z</time></trkpt><trkpt lat="42.6000433" lon="12.7710917"><ele>231.0</ele><time>2026-04-12T10:10:00.429Z</time></trkpt><trkpt lat="42.5998217" lon="12.7709833"><ele>232.5</ele><time>2026-04-12T10:10:01.435Z</time></trkpt><trkpt lat="42.5995983" lon="12.770875"><ele>234.0</ele><time>2026-04-12T10:10:02.432Z</time></trkpt><trkpt lat="42.5993733" lon="12.770765"><ele>234.0</ele><time>2026-04-12T10:10:03.434Z</time></trkpt><trkpt lat="42.59915" lon="12.7706567"><ele>234.0</ele><time>2026-04-12T10:10:04.433Z</time></trkpt><trkpt lat="42.5989233" lon="12.7705567"><ele>234.0</ele><time>2026-04-12T10:10:05.436Z</time></trkpt><trkpt lat="42.598695" lon="12.770465"><ele>234.0</ele><time>2026-04-12T10:10:06.441Z</time></trkpt><trkpt lat="42.59846" lon="12.7704017"><ele>233.0</ele><time>2026-04-12T10:10:07.433Z</time></trkpt><trkpt lat="42.5982233" lon="12.7703633"><ele>232.0</ele><time>2026-04-12T10:10:08.445Z</time></trkpt><trkpt lat="42.597975" lon="12.7703417"><ele>232.5</ele><time>2026-04-12T10:10:09.424Z</time></trkpt><trkpt lat="42.5977283" lon="12.7703267"><ele>233.0</ele><time>2026-04-12T10:10:10.432Z</time></trkpt><trkpt lat="42.59749" lon="12.7703217"><ele>233.0</ele><time>2026-04-12T10:10:11.443Z</time></trkpt><trkpt lat="42.5972667" lon="12.7703083"><ele>233.0</ele><time>2026-04-12T10:10:12.439Z</time></trkpt><trkpt lat="42.597055" lon="12.770295"><ele>233.0</ele><time>2026-04-12T10:10:13.434Z</time></trkpt><trkpt lat="42.5968567" lon="12.770285"><ele>233.0</ele><time>2026-04-12T10:10:14.444Z</time></trkpt><trkpt lat="42.5966767" lon="12.7702783"><ele>233.0</ele><time>2026-04-12T10:10:15.434Z</time></trkpt><trkpt lat="42.5965117" lon="12.7702683"><ele>233.0</ele><time>2026-04-12T10:10:16.439Z</time></trkpt><trkpt lat="42.5963633" lon="12.7702617"><ele>233.0</ele><time>2026-04-12T10:10:17.435Z</time></trkpt><trkpt lat="42.5962217" lon="12.7702533"><ele>233.0</ele><time>2026-04-12T10:10:18.44Z</time></trkpt><trkpt lat="42.5960883" lon="12.77025"><ele>233.0</ele><time>2026-04-12T10:10:19.436Z</time></trkpt><trkpt lat="42.5959583" lon="12.7702417"><ele>233.0</ele><time>2026-04-12T10:10:20.431Z</time></trkpt><trkpt lat="42.5958267" lon="12.770235"><ele>232.0</ele><time>2026-04-12T10:10:21.432Z</time></trkpt><trkpt lat="42.5956883" lon="12.770225"><ele>231.0</ele><time>2026-04-12T10:10:22.438Z</time></trkpt><trkpt lat="42.5955483" lon="12.7702083"><ele>230.0</ele><time>2026-04-12T10:10:23.449Z</time></trkpt><trkpt lat="42.59541" lon="12.77019"><ele>229.0</ele><time>2026-04-12T10:10:24.432Z</time></trkpt><trkpt lat="42.5952633" lon="12.770175"><ele>232.33333333333331</ele><time>2026-04-12T10:10:25.441Z</time></trkpt><trkpt lat="42.5951117" lon="12.7701583"><ele>235.66666666666669</ele><time>2026-04-12T10:10:26.443Z</time></trkpt><trkpt lat="42.5949567" lon="12.7701483"><ele>239.0</ele><time>2026-04-12T10:10:27.431Z</time></trkpt><trkpt lat="42.5948067" lon="12.7701367"><ele>239.0</ele><time>2026-04-12T10:10:28.43Z</time></trkpt><trkpt lat="42.5946533" lon="12.77012"><ele>239.0</ele><time>2026-04-12T10:10:29.444Z</time></trkpt><trkpt lat="42.5945017" lon="12.77009"><ele>239.0</ele><time>2026-04-12T10:10:30.44Z</time></trkpt><trkpt lat="42.594355" lon="12.77004"><ele>237.5</ele><time>2026-04-12T10:10:31.445Z</time></trkpt><trkpt lat="42.5942133" lon="12.769975"><ele>236.0</ele><time>2026-04-12T10:10:32.442Z</time></trkpt><trkpt lat="42.5940817" lon="12.7698883"><ele>234.5</ele><time>2026-04-12T10:10:33.433Z</time></trkpt><trkpt lat="42.5939533" lon="12.7697933"><ele>233.0</ele><time>2026-04-12T10:10:34.435Z</time></trkpt><trkpt lat="42.59383" lon="12.7696917"><ele>233.0</ele><time>2026-04-12T10:10:35.43Z</time></trkpt><trkpt lat="42.5937" lon="12.76959"><ele>233.0</ele><time>2026-04-12T10:10:36.442Z</time></trkpt><trkpt lat="42.5935717" lon="12.7694983"><ele>233.0</ele><time>2026-04-12T10:10:37.424Z</time></trkpt><trkpt lat="42.5934417" lon="12.7694083"><ele>233.0</ele><time>2026-04-12T10:10:38.427Z</time></trkpt><trkpt lat="42.5933083" lon="12.7693217"><ele>234.0</ele><time>2026-04-12T10:10:39.435Z</time></trkpt><trkpt lat="42.593175" lon="12.7692333"><ele>235.0</ele><time>2026-04-12T10:10:40.44Z</time></trkpt><trkpt lat="42.593045" lon="12.7691417"><ele>236.0</ele><time>2026-04-12T10:10:41.432Z</time></trkpt><trkpt lat="42.5929167" lon="12.76905"><ele>237.0</ele><time>2026-04-12T10:10:42.435Z</time></trkpt><trkpt lat="42.59279" lon="12.7689667"><ele>234.25</ele><time>2026-04-12T10:10:43.437Z</time></trkpt><trkpt lat="42.5926683" lon="12.7688833"><ele>231.5</ele><time>2026-04-12T10:10:44.429Z</time></trkpt><trkpt lat="42.592545" lon="12.7687983"><ele>228.75</ele><time>2026-04-12T10:10:45.437Z</time></trkpt><trkpt lat="42.5924217" lon="12.768715"><ele>226.0</ele><time>2026-04-12T10:10:46.445Z</time></trkpt><trkpt lat="42.5922983" lon="12.76863"><ele>226.0</ele><time>2026-04-12T10:10:47.439Z</time></trkpt><trkpt lat="42.5921717" lon="12.7685433"><ele>226.0</ele><time>2026-04-12T10:10:48.434Z</time></trkpt><trkpt lat="42.5920417" lon="12.768455"><ele>226.0</ele><time>2026-04-12T10:10:49.449Z</time></trkpt><trkpt lat="42.5919067" lon="12.768365"><ele>226.0</ele><time>2026-04-12T10:10:50.43Z</time></trkpt><trkpt lat="42.5917767" lon="12.768275"><ele>225.66666666666666</ele><time>2026-04-12T10:10:51.431Z</time></trkpt><trkpt lat="42.591645" lon="12.768185"><ele>225.33333333333331</ele><time>2026-04-12T10:10:52.429Z</time></trkpt><trkpt lat="42.59151" lon="12.7680967"><ele>225.0</ele><time>2026-04-12T10:10:53.44Z</time></trkpt><trkpt lat="42.5913733" lon="12.7680033"><ele>225.0</ele><time>2026-04-12T10:10:54.427Z</time></trkpt><trkpt lat="42.59124" lon="12.7679133"><ele>225.0</ele><time>2026-04-12T10:10:55.432Z</time></trkpt><trkpt lat="42.5911117" lon="12.7678283"><ele>225.0</ele><time>2026-04-12T10:10:56.433Z</time></trkpt><trkpt lat="42.59099" lon="12.7677483"><ele>225.0</ele><time>2026-04-12T10:10:57.43Z</time></trkpt><trkpt lat="42.590875" lon="12.7676667"><ele>226.0</ele><time>2026-04-12T10:10:58.443Z</time></trkpt><trkpt lat="42.5907683" lon="12.7675883"><ele>227.0</ele><time>2026-04-12T10:10:59.428Z</time></trkpt><trkpt lat="42.5906683" lon="12.7675083"><ele>228.0</ele><time>2026-04-12T10:11:00.431Z</time></trkpt><trkpt lat="42.5905667" lon="12.7674183"><ele>229.0</ele><time>2026-04-12T10:11:01.429Z</time></trkpt><trkpt lat="42.5904633" lon="12.767305"><ele>229.0</ele><time>2026-04-12T10:11:02.433Z</time></trkpt><trkpt lat="42.5903633" lon="12.7671717"><ele>229.0</ele><time>2026-04-12T10:11:03.44Z</time></trkpt><trkpt lat="42.5902667" lon="12.76703"><ele>229.0</ele><time>2026-04-12T10:11:04.441Z</time></trkpt><trkpt lat="42.590175" lon="12.76689"><ele>229.0</ele><time>2026-04-12T10:11:05.442Z</time></trkpt><trkpt lat="42.5900867" lon="12.76675"><ele>229.0</ele><time>2026-04-12T10:11:06.429Z</time></trkpt><trkpt lat="42.5900017" lon="12.7666133"><ele>229.0</ele><time>2026-04-12T10:11:07.436Z</time></trkpt><trkpt lat="42.589915" lon="12.7664833"><ele>229.0</ele><time>2026-04-12T10:11:08.438Z</time></trkpt><trkpt lat="42.5898267" lon="12.7663517"><ele>229.0</ele><time>2026-04-12T10:11:09.443Z</time></trkpt><trkpt lat="42.5897333" lon="12.766215"><ele>229.0</ele><time>2026-04-12T10:11:10.44Z</time></trkpt><trkpt lat="42.5896433" lon="12.7660833"><ele>229.0</ele><time>2026-04-12T10:11:11.437Z</time></trkpt><trkpt lat="42.5895533" lon="12.7659483"><ele>229.0</ele><time>2026-04-12T10:11:12.432Z</time></trkpt><trkpt lat="42.5894633" lon="12.7658117"><ele>229.0</ele><time>2026-04-12T10:11:13.425Z</time></trkpt><trkpt lat="42.5893717" lon="12.7656783"><ele>228.5</ele><time>2026-04-12T10:11:14.43Z</time></trkpt><trkpt lat="42.5892817" lon="12.7655567"><ele>228.0</ele><time>2026-04-12T10:11:15.443Z</time></trkpt><trkpt lat="42.5891967" lon="12.76544"><ele>227.5</ele><time>2026-04-12T10:11:16.437Z</time></trkpt><trkpt lat="42.589115" lon="12.7653333"><ele>227.0</ele><time>2026-04-12T10:11:17.437Z</time></trkpt><trkpt lat="42.5890383" lon="12.7652283"><ele>227.2</ele><time>2026-04-12T10:11:18.44Z</time></trkpt><trkpt lat="42.5889583" lon="12.7651367"><ele>227.39999999999998</ele><time>2026-04-12T10:11:19.437Z</time></trkpt><trkpt lat="42.5888817" lon="12.7650517"><ele>227.60000000000002</ele><time>2026-04-12T10:11:20.432Z</time></trkpt><trkpt lat="42.5888083" lon="12.7649733"><ele>227.8</ele><time>2026-04-12T10:11:21.44Z</time></trkpt><trkpt lat="42.5887383" lon="12.7649017"><ele>228.0</ele><time>2026-04-12T10:11:22.431Z</time></trkpt><trkpt lat="42.5886783" lon="12.7648283"><ele>227.16666666666666</ele><time>2026-04-12T10:11:23.425Z</time></trkpt><trkpt lat="42.5886317" lon="12.76477"><ele>226.33333333333331</ele><time>2026-04-12T10:11:24.429Z</time></trkpt><trkpt lat="42.588585" lon="12.76469"><ele>225.5</ele><time>2026-04-12T10:11:26.433Z</time></trkpt><trkpt lat="42.588545" lon="12.7645717"><ele>224.66666666666666</ele><time>2026-04-12T10:11:29.431Z</time></trkpt><trkpt lat="42.5884617" lon="12.76447"><ele>223.83333333333331</ele><time>2026-04-12T10:11:31.427Z</time></trkpt><trkpt lat="42.5883917" lon="12.7644217"><ele>223.0</ele><time>2026-04-12T10:11:32.431Z</time></trkpt><trkpt lat="42.5883133" lon="12.7643767"><ele>223.0</ele><time>2026-04-12T10:11:33.431Z</time></trkpt><trkpt lat="42.5882283" lon="12.76432"><ele>223.0</ele><time>2026-04-12T10:11:34.437Z</time></trkpt><trkpt lat="42.588135" lon="12.764245"><ele>223.0</ele><time>2026-04-12T10:11:35.428Z</time></trkpt><trkpt lat="42.58804" lon="12.7641517"><ele>223.0</ele><time>2026-04-12T10:11:36.438Z</time></trkpt><trkpt lat="42.5879417" lon="12.7640467"><ele>223.0</ele><time>2026-04-12T10:11:37.436Z</time></trkpt><trkpt lat="42.587845" lon="12.763945"><ele>223.25</ele><time>2026-04-12T10:11:38.439Z</time></trkpt><trkpt lat="42.5877417" lon="12.7638367"><ele>223.5</ele><time>2026-04-12T10:11:39.43Z</time></trkpt><trkpt lat="42.5876417" lon="12.7637283"><ele>223.75</ele><time>2026-04-12T10:11:40.443Z</time></trkpt><trkpt lat="42.5875483" lon="12.7636217"><ele>224.0</ele><time>2026-04-12T10:11:41.43Z</time></trkpt><trkpt lat="42.5874583" lon="12.7635217"><ele>224.2</ele><time>2026-04-12T10:11:42.441Z</time></trkpt><trkpt lat="42.58737" lon="12.7634233"><ele>224.39999999999998</ele><time>2026-04-12T10:11:43.43Z</time></trkpt><trkpt lat="42.5872817" lon="12.7633233"><ele>224.6</ele><time>2026-04-12T10:11:44.437Z</time></trkpt><trkpt lat="42.587195" lon="12.7632267"><ele>224.8</ele><time>2026-04-12T10:11:45.429Z</time></trkpt><trkpt lat="42.58712" lon="12.76314"><ele>225.0</ele><time>2026-04-12T10:11:46.431Z</time></trkpt><trkpt lat="42.5870467" lon="12.7630617"><ele>224.71428571428575</ele><time>2026-04-12T10:11:47.43Z</time></trkpt><trkpt lat="42.5869883" lon="12.7629883"><ele>224.42857142857144</ele><time>2026-04-12T10:11:48.441Z</time></trkpt><trkpt lat="42.5869433" lon="12.7629233"><ele>224.14285714285717</ele><time>2026-04-12T10:11:49.436Z</time></trkpt><trkpt lat="42.5869033" lon="12.762815"><ele>223.8571428571429</ele><time>2026-04-12T10:11:51.426Z</time></trkpt><trkpt lat="42.58687" lon="12.7627333"><ele>223.57142857142856</ele><time>2026-04-12T10:11:53.434Z</time></trkpt><trkpt lat="42.586835" lon="12.7626567"><ele>223.28571428571428</ele><time>2026-04-12T10:11:56.433Z</time></trkpt><trkpt lat="42.5867983" lon="12.7625617"><ele>223.0</ele><time>2026-04-12T10:12:02.436Z</time></trkpt><trkpt lat="42.5867417" lon="12.7624733"><ele>223.0</ele><time>2026-04-12T10:12:06.432Z</time></trkpt><trkpt lat="42.5867883" lon="12.7625533"><ele>223.0</ele><time>2026-04-12T10:12:16.432Z</time></trkpt></trkseg><trkseg><trkpt lat="42.5873333" lon="12.7632667"><ele>225.0</ele><time>2026-04-12T10:49:10.431Z</time></trkpt><trkpt lat="42.5872717" lon="12.7632967"><ele>225.0</ele><time>2026-04-12T10:49:21.435Z</time></trkpt><trkpt lat="42.5871917" lon="12.76322"><ele>225.0</ele><time>2026-04-12T10:49:23.446Z</time></trkpt><trkpt lat="42.58713" lon="12.76315"><ele>225.0</ele><time>2026-04-12T10:49:24.434Z</time></trkpt><trkpt lat="42.58707" lon="12.7630783"><ele>225.0</ele><time>2026-04-12T10:49:25.438Z</time></trkpt><trkpt lat="42.587" lon="12.7629917"><ele>225.0</ele><time>2026-04-12T10:49:26.432Z</time></trkpt><trkpt lat="42.5869183" lon="12.762895"><ele>224.5</ele><time>2026-04-12T10:49:27.427Z</time></trkpt><trkpt lat="42.5868317" lon="12.7628"><ele>224.0</ele><time>2026-04-12T10:49:28.428Z</time></trkpt><trkpt lat="42.586745" lon="12.762705"><ele>223.5</ele><time>2026-04-12T10:49:29.435Z</time></trkpt><trkpt lat="42.5866533" lon="12.762605"><ele>223.0</ele><time>2026-04-12T10:49:30.439Z</time></trkpt><trkpt lat="42.5865567" lon="12.7624967"><ele>223.0</ele><time>2026-04-12T10:49:31.436Z</time></trkpt><trkpt lat="42.5864533" lon="12.7623833"><ele>223.0</ele><time>2026-04-12T10:49:32.445Z</time></trkpt><trkpt lat="42.58635" lon="12.7622683"><ele>223.0</ele><time>2026-04-12T10:49:33.428Z</time></trkpt><trkpt lat="42.5862483" lon="12.7621583"><ele>223.0</ele><time>2026-04-12T10:49:34.426Z</time></trkpt><trkpt lat="42.5861383" lon="12.7620433"><ele>222.75</ele><time>2026-04-12T10:49:35.432Z</time></trkpt><trkpt lat="42.5860283" lon="12.7619217"><ele>222.5</ele><time>2026-04-12T10:49:36.428Z</time></trkpt><trkpt lat="42.585915" lon="12.761795"><ele>222.25</ele><time>2026-04-12T10:49:37.431Z</time></trkpt><trkpt lat="42.5857967" lon="12.7616667"><ele>222.0</ele><time>2026-04-12T10:49:38.437Z</time></trkpt><trkpt lat="42.5856817" lon="12.7615383"><ele>222.0</ele><time>2026-04-12T10:49:39.431Z</time></trkpt><trkpt lat="42.585565" lon="12.7614117"><ele>222.0</ele><time>2026-04-12T10:49:40.431Z</time></trkpt><trkpt lat="42.5854467" lon="12.7612833"><ele>222.0</ele><time>2026-04-12T10:49:41.443Z</time></trkpt><trkpt lat="42.5853233" lon="12.7611517"><ele>222.0</ele><time>2026-04-12T10:49:42.44Z</time></trkpt><trkpt lat="42.5851983" lon="12.761015"><ele>222.0</ele><time>2026-04-12T10:49:43.433Z</time></trkpt><trkpt lat="42.5850733" lon="12.7608767"><ele>222.0</ele><time>2026-04-12T10:49:44.431Z</time></trkpt><trkpt lat="42.5849483" lon="12.7607383"><ele>222.0</ele><time>2026-04-12T10:49:45.43Z</time></trkpt><trkpt lat="42.5848217" lon="12.7605967"><ele>222.0</ele><time>2026-04-12T10:49:46.435Z</time></trkpt><trkpt lat="42.584695" lon="12.7604583"><ele>222.0</ele><time>2026-04-12T10:49:47.429Z</time></trkpt><trkpt lat="42.584565" lon="12.7603217"><ele>222.0</ele><time>2026-04-12T10:49:48.447Z</time></trkpt><trkpt lat="42.5844333" lon="12.7601817"><ele>222.0</ele><time>2026-04-12T10:49:49.433Z</time></trkpt><trkpt lat="42.5843033" lon="12.7600417"><ele>222.0</ele><time>2026-04-12T10:49:50.436Z</time></trkpt><trkpt lat="42.5841767" lon="12.7599033"><ele>222.0</ele><time>2026-04-12T10:49:51.432Z</time></trkpt><trkpt lat="42.5840517" lon="12.7597667"><ele>222.0</ele><time>2026-04-12T10:49:52.437Z</time></trkpt><trkpt lat="42.583935" lon="12.7596383"><ele>222.0</ele><time>2026-04-12T10:49:53.437Z</time></trkpt><trkpt lat="42.58383" lon="12.7595183"><ele>222.0</ele><time>2026-04-12T10:49:54.425Z</time></trkpt><trkpt lat="42.583735" lon="12.7594117"><ele>222.0</ele><time>2026-04-12T10:49:55.429Z</time></trkpt><trkpt lat="42.5836483" lon="12.7593183"><ele>222.0</ele><time>2026-04-12T10:49:56.434Z</time></trkpt><trkpt lat="42.5835733" lon="12.759235"><ele>222.0</ele><time>2026-04-12T10:49:57.432Z</time></trkpt><trkpt lat="42.5835067" lon="12.75916"><ele>222.0</ele><time>2026-04-12T10:49:58.424Z</time></trkpt><trkpt lat="42.58345" lon="12.7590983"><ele>222.0</ele><time>2026-04-12T10:49:59.43Z</time></trkpt><trkpt lat="42.5833767" lon="12.7590167"><ele>222.0</ele><time>2026-04-12T10:50:01.434Z</time></trkpt><trkpt lat="42.58331" lon="12.7589733"><ele>222.0</ele><time>2026-04-12T10:50:04.432Z</time></trkpt><trkpt lat="42.5832167" lon="12.759035"><ele>222.0</ele><time>2026-04-12T10:50:06.437Z</time></trkpt><trkpt lat="42.5831717" lon="12.7591133"><ele>222.0</ele><time>2026-04-12T10:50:07.435Z</time></trkpt><trkpt lat="42.5831333" lon="12.75922"><ele>222.0</ele><time>2026-04-12T10:50:08.438Z</time></trkpt><trkpt lat="42.5830983" lon="12.759325"><ele>222.0</ele><time>2026-04-12T10:50:09.43Z</time></trkpt><trkpt lat="42.5830567" lon="12.7594833"><ele>222.25</ele><time>2026-04-12T10:50:10.438Z</time></trkpt><trkpt lat="42.5830067" lon="12.7596567"><ele>222.5</ele><time>2026-04-12T10:50:11.435Z</time></trkpt><trkpt lat="42.58295" lon="12.7598233"><ele>222.75</ele><time>2026-04-12T10:50:12.429Z</time></trkpt><trkpt lat="42.5828867" lon="12.7600067"><ele>223.0</ele><time>2026-04-12T10:50:13.429Z</time></trkpt><trkpt lat="42.5828267" lon="12.7601933"><ele>222.33333333333331</ele><time>2026-04-12T10:50:14.434Z</time></trkpt><trkpt lat="42.58276" lon="12.7603783"><ele>221.66666666666669</ele><time>2026-04-12T10:50:15.437Z</time></trkpt><trkpt lat="42.5826917" lon="12.7605717"><ele>221.0</ele><time>2026-04-12T10:50:16.442Z</time></trkpt><trkpt lat="42.582625" lon="12.7607717"><ele>221.0</ele><time>2026-04-12T10:50:17.433Z</time></trkpt><trkpt lat="42.582555" lon="12.7609817"><ele>221.0</ele><time>2026-04-12T10:50:18.438Z</time></trkpt><trkpt lat="42.582485" lon="12.7611933"><ele>221.0</ele><time>2026-04-12T10:50:19.438Z</time></trkpt><trkpt lat="42.58242" lon="12.76141"><ele>221.0</ele><time>2026-04-12T10:50:20.437Z</time></trkpt><trkpt lat="42.5823633" lon="12.76164"><ele>221.0</ele><time>2026-04-12T10:50:21.429Z</time></trkpt><trkpt lat="42.5823183" lon="12.7618833"><ele>221.0</ele><time>2026-04-12T10:50:22.436Z</time></trkpt><trkpt lat="42.5822883" lon="12.7621417"><ele>221.0</ele><time>2026-04-12T10:50:23.438Z</time></trkpt><trkpt lat="42.5822717" lon="12.762405"><ele>221.0</ele><time>2026-04-12T10:50:24.433Z</time></trkpt><trkpt lat="42.582265" lon="12.7626667"><ele>221.0</ele><time>2026-04-12T10:50:25.444Z</time></trkpt><trkpt lat="42.58226" lon="12.76293"><ele>221.0</ele><time>2026-04-12T10:50:26.438Z</time></trkpt><trkpt lat="42.582255" lon="12.7631917"><ele>221.0</ele><time>2026-04-12T10:50:27.436Z</time></trkpt><trkpt lat="42.5822533" lon="12.763455"><ele>221.0</ele><time>2026-04-12T10:50:28.433Z</time></trkpt><trkpt lat="42.5822483" lon="12.7637217"><ele>221.33333333333334</ele><time>2026-04-12T10:50:29.43Z</time></trkpt><trkpt lat="42.582245" lon="12.7639917"><ele>221.66666666666669</ele><time>2026-04-12T10:50:30.435Z</time></trkpt><trkpt lat="42.5822417" lon="12.7642683"><ele>222.0</ele><time>2026-04-12T10:50:31.432Z</time></trkpt><trkpt lat="42.58224" lon="12.7645467"><ele>222.66666666666669</ele><time>2026-04-12T10:50:32.435Z</time></trkpt><trkpt lat="42.5822383" lon="12.764825"><ele>223.33333333333334</ele><time>2026-04-12T10:50:33.439Z</time></trkpt><trkpt lat="42.5822367" lon="12.7651033"><ele>224.0</ele><time>2026-04-12T10:50:34.436Z</time></trkpt><trkpt lat="42.5822333" lon="12.76538"><ele>224.33333333333334</ele><time>2026-04-12T10:50:35.446Z</time></trkpt><trkpt lat="42.58223" lon="12.765655"><ele>224.66666666666669</ele><time>2026-04-12T10:50:36.444Z</time></trkpt><trkpt lat="42.5822283" lon="12.7659283"><ele>225.0</ele><time>2026-04-12T10:50:37.432Z</time></trkpt><trkpt lat="42.582225" lon="12.7662033"><ele>228.0</ele><time>2026-04-12T10:50:38.436Z</time></trkpt><trkpt lat="42.5822217" lon="12.76648"><ele>231.0</ele><time>2026-04-12T10:50:39.439Z</time></trkpt><trkpt lat="42.582215" lon="12.76676"><ele>234.0</ele><time>2026-04-12T10:50:40.435Z</time></trkpt><trkpt lat="42.5822117" lon="12.7670417"><ele>234.0</ele><time>2026-04-12T10:50:41.434Z</time></trkpt><trkpt lat="42.5822083" lon="12.7673233"><ele>234.0</ele><time>2026-04-12T10:50:42.44Z</time></trkpt><trkpt lat="42.582205" lon="12.7676017"><ele>234.0</ele><time>2026-04-12T10:50:43.433Z</time></trkpt><trkpt lat="42.5821983" lon="12.7678817"><ele>234.0</ele><time>2026-04-12T10:50:44.431Z</time></trkpt><trkpt lat="42.5821933" lon="12.7681667"><ele>234.0</ele><time>2026-04-12T10:50:45.428Z</time></trkpt><trkpt lat="42.5821917" lon="12.7684567"><ele>234.0</ele><time>2026-04-12T10:50:46.439Z</time></trkpt><trkpt lat="42.5821917" lon="12.76875"><ele>233.33333333333331</ele><time>2026-04-12T10:50:47.446Z</time></trkpt><trkpt lat="42.5821983" lon="12.7690433"><ele>232.66666666666666</ele><time>2026-04-12T10:50:48.43Z</time></trkpt><trkpt lat="42.58222" lon="12.76934"><ele>232.0</ele><time>2026-04-12T10:50:49.43Z</time></trkpt><trkpt lat="42.582255" lon="12.7696367"><ele>232.0</ele><time>2026-04-12T10:50:50.435Z</time></trkpt><trkpt lat="42.5823017" lon="12.7699333"><ele>232.0</ele><time>2026-04-12T10:50:51.441Z</time></trkpt><trkpt lat="42.5823583" lon="12.770225"><ele>232.0</ele><time>2026-04-12T10:50:52.43Z</time></trkpt><trkpt lat="42.5824133" lon="12.770515"><ele>234.33333333333331</ele><time>2026-04-12T10:50:53.433Z</time></trkpt><trkpt lat="42.5824583" lon="12.7708083"><ele>236.66666666666669</ele><time>2026-04-12T10:50:54.435Z</time></trkpt><trkpt lat="42.5824983" lon="12.7710983"><ele>239.0</ele><time>2026-04-12T10:50:55.434Z</time></trkpt><trkpt lat="42.58254" lon="12.771385"><ele>239.0</ele><time>2026-04-12T10:50:56.436Z</time></trkpt><trkpt lat="42.5825817" lon="12.7716633"><ele>239.0</ele><time>2026-04-12T10:50:57.427Z</time></trkpt><trkpt lat="42.5826233" lon="12.7719433"><ele>239.0</ele><time>2026-04-12T10:50:58.436Z</time></trkpt><trkpt lat="42.58266" lon="12.7722233"><ele>238.66666666666669</ele><time>2026-04-12T10:50:59.435Z</time></trkpt><trkpt lat="42.5826933" lon="12.7725033"><ele>238.33333333333331</ele><time>2026-04-12T10:51:00.435Z</time></trkpt><trkpt lat="42.5827017" lon="12.7727883"><ele>238.0</ele><time>2026-04-12T10:51:01.424Z</time></trkpt><trkpt lat="42.5826883" lon="12.7730783"><ele>238.0</ele><time>2026-04-12T10:51:02.434Z</time></trkpt><trkpt lat="42.5826583" lon="12.77337"><ele>238.0</ele><time>2026-04-12T10:51:03.427Z</time></trkpt><trkpt lat="42.5826217" lon="12.7736583"><ele>238.0</ele><time>2026-04-12T10:51:04.431Z</time></trkpt><trkpt lat="42.5825833" lon="12.7739517"><ele>237.5</ele><time>2026-04-12T10:51:05.431Z</time></trkpt><trkpt lat="42.5825467" lon="12.7742517"><ele>237.0</ele><time>2026-04-12T10:51:06.432Z</time></trkpt><trkpt lat="42.58251" lon="12.774555"><ele>237.0</ele><time>2026-04-12T10:51:07.429Z</time></trkpt><trkpt lat="42.5824783" lon="12.7748583"><ele>237.0</ele><time>2026-04-12T10:51:08.446Z</time></trkpt><trkpt lat="42.58245" lon="12.7751667"><ele>237.0</ele><time>2026-04-12T10:51:09.436Z</time></trkpt><trkpt lat="42.5824217" lon="12.775475"><ele>237.0</ele><time>2026-04-12T10:51:10.433Z</time></trkpt><trkpt lat="42.5823917" lon="12.7757817"><ele>237.33333333333331</ele><time>2026-04-12T10:51:11.436Z</time></trkpt><trkpt lat="42.5823633" lon="12.7760867"><ele>237.66666666666666</ele><time>2026-04-12T10:51:12.433Z</time></trkpt><trkpt lat="42.5823367" lon="12.7763833"><ele>238.0</ele><time>2026-04-12T10:51:13.435Z</time></trkpt><trkpt lat="42.5823167" lon="12.7766567"><ele>239.33333333333331</ele><time>2026-04-12T10:51:14.43Z</time></trkpt><trkpt lat="42.58231" lon="12.7769067"><ele>240.66666666666669</ele><time>2026-04-12T10:51:15.423Z</time></trkpt><trkpt lat="42.5823167" lon="12.7771233"><ele>242.0</ele><time>2026-04-12T10:51:16.427Z</time></trkpt><trkpt lat="42.5823383" lon="12.777315"><ele>242.0</ele><time>2026-04-12T10:51:17.423Z</time></trkpt><trkpt lat="42.5823633" lon="12.77748"><ele>242.0</ele><time>2026-04-12T10:51:18.426Z</time></trkpt><trkpt lat="42.5823767" lon="12.777625"><ele>242.0</ele><time>2026-04-12T10:51:19.427Z</time></trkpt><trkpt lat="42.582375" lon="12.7777533"><ele>242.0</ele><time>2026-04-12T10:51:20.433Z</time></trkpt><trkpt lat="42.5823467" lon="12.7778583"><ele>242.0</ele><time>2026-04-12T10:51:21.426Z</time></trkpt><trkpt lat="42.5823067" lon="12.7779383"><ele>242.2</ele><time>2026-04-12T10:51:22.431Z</time></trkpt><trkpt lat="42.58225" lon="12.77799"><ele>242.39999999999998</ele><time>2026-04-12T10:51:23.434Z</time></trkpt><trkpt lat="42.5821733" lon="12.7780067"><ele>242.60000000000002</ele><time>2026-04-12T10:51:24.424Z</time></trkpt><trkpt lat="42.5820833" lon="12.77802"><ele>242.8</ele><time>2026-04-12T10:51:25.429Z</time></trkpt><trkpt lat="42.5819483" lon="12.7780083"><ele>243.0</ele><time>2026-04-12T10:51:26.424Z</time></trkpt><trkpt lat="42.5817933" lon="12.7779883"><ele>243.33333333333331</ele><time>2026-04-12T10:51:27.431Z</time></trkpt><trkpt lat="42.5816233" lon="12.77797"><ele>243.66666666666666</ele><time>2026-04-12T10:51:28.427Z</time></trkpt><trkpt lat="42.5814483" lon="12.7779633"><ele>244.0</ele><time>2026-04-12T10:51:29.423Z</time></trkpt><trkpt lat="42.581265" lon="12.7779567"><ele>245.0</ele><time>2026-04-12T10:51:30.43Z</time></trkpt><trkpt lat="42.5810883" lon="12.777955"><ele>246.0</ele><time>2026-04-12T10:51:31.434Z</time></trkpt><trkpt lat="42.580925" lon="12.7779717"><ele>247.0</ele><time>2026-04-12T10:51:32.441Z</time></trkpt><trkpt lat="42.5807783" lon="12.7780283"><ele>247.0</ele><time>2026-04-12T10:51:33.434Z</time></trkpt><trkpt lat="42.58065" lon="12.77813"><ele>247.0</ele><time>2026-04-12T10:51:34.437Z</time></trkpt><trkpt lat="42.5805517" lon="12.7782883"><ele>247.0</ele><time>2026-04-12T10:51:35.431Z</time></trkpt><trkpt lat="42.5804783" lon="12.778485"><ele>246.0</ele><time>2026-04-12T10:51:36.432Z</time></trkpt><trkpt lat="42.5804283" lon="12.77871"><ele>245.0</ele><time>2026-04-12T10:51:37.427Z</time></trkpt><trkpt lat="42.5803683" lon="12.77895"><ele>244.0</ele><time>2026-04-12T10:51:38.439Z</time></trkpt><trkpt lat="42.5802917" lon="12.7791867"><ele>248.0</ele><time>2026-04-12T10:51:39.43Z</time></trkpt><trkpt lat="42.580195" lon="12.7793983"><ele>252.0</ele><time>2026-04-12T10:51:40.426Z</time></trkpt><trkpt lat="42.5800717" lon="12.77959"><ele>256.0</ele><time>2026-04-12T10:51:41.43Z</time></trkpt><trkpt lat="42.579925" lon="12.7797667"><ele>256.0</ele><time>2026-04-12T10:51:42.434Z</time></trkpt><trkpt lat="42.5797667" lon="12.77994"><ele>256.0</ele><time>2026-04-12T10:51:43.433Z</time></trkpt><trkpt lat="42.5796" lon="12.7801067"><ele>256.0</ele><time>2026-04-12T10:51:44.433Z</time></trkpt><trkpt lat="42.5794467" lon="12.7802767"><ele>261.0</ele><time>2026-04-12T10:51:45.43Z</time></trkpt><trkpt lat="42.57931" lon="12.7804433"><ele>266.0</ele><time>2026-04-12T10:51:46.436Z</time></trkpt><trkpt lat="42.5791917" lon="12.780625"><ele>271.0</ele><time>2026-04-12T10:51:47.441Z</time></trkpt><trkpt lat="42.5791033" lon="12.7808383"><ele>270.3333333333333</ele><time>2026-04-12T10:51:48.435Z</time></trkpt><trkpt lat="42.5790367" lon="12.7810733"><ele>269.6666666666667</ele><time>2026-04-12T10:51:49.431Z</time></trkpt><trkpt lat="42.578985" lon="12.7813167"><ele>269.0</ele><time>2026-04-12T10:51:50.423Z</time></trkpt><trkpt lat="42.5789317" lon="12.78156"><ele>269.0</ele><time>2026-04-12T10:51:51.435Z</time></trkpt><trkpt lat="42.5788533" lon="12.7817933"><ele>269.0</ele><time>2026-04-12T10:51:52.434Z</time></trkpt><trkpt lat="42.578745" lon="12.78202"><ele>269.0</ele><time>2026-04-12T10:51:53.43Z</time></trkpt><trkpt lat="42.5786233" lon="12.78225"><ele>270.6666666666667</ele><time>2026-04-12T10:51:54.436Z</time></trkpt><trkpt lat="42.57849" lon="12.7824833"><ele>272.3333333333333</ele><time>2026-04-12T10:51:55.429Z</time></trkpt><trkpt lat="42.5783617" lon="12.7827117"><ele>274.0</ele><time>2026-04-12T10:51:56.432Z</time></trkpt><trkpt lat="42.5782383" lon="12.782925"><ele>274.0</ele><time>2026-04-12T10:51:57.439Z</time></trkpt><trkpt lat="42.5781233" lon="12.78313"><ele>274.0</ele><time>2026-04-12T10:51:58.429Z</time></trkpt><trkpt lat="42.5780183" lon="12.7833167"><ele>274.0</ele><time>2026-04-12T10:51:59.439Z</time></trkpt><trkpt lat="42.57792" lon="12.7834883"><ele>276.5</ele><time>2026-04-12T10:52:00.435Z</time></trkpt><trkpt lat="42.57783" lon="12.7836483"><ele>279.0</ele><time>2026-04-12T10:52:01.436Z</time></trkpt><trkpt lat="42.5777383" lon="12.7837883"><ele>281.5</ele><time>2026-04-12T10:52:02.435Z</time></trkpt><trkpt lat="42.5776233" lon="12.7839067"><ele>284.0</ele><time>2026-04-12T10:52:03.439Z</time></trkpt><trkpt lat="42.5774717" lon="12.7839933"><ele>284.0</ele><time>2026-04-12T10:52:04.429Z</time></trkpt><trkpt lat="42.5773033" lon="12.7840517"><ele>284.0</ele><time>2026-04-12T10:52:05.444Z</time></trkpt><trkpt lat="42.5771283" lon="12.7841033"><ele>284.0</ele><time>2026-04-12T10:52:06.434Z</time></trkpt><trkpt lat="42.576955" lon="12.7841633"><ele>285.6666666666667</ele><time>2026-04-12T10:52:07.437Z</time></trkpt><trkpt lat="42.576785" lon="12.78425"><ele>287.3333333333333</ele><time>2026-04-12T10:52:08.434Z</time></trkpt><trkpt lat="42.5766133" lon="12.78437"><ele>289.0</ele><time>2026-04-12T10:52:09.432Z</time></trkpt><trkpt lat="42.5764467" lon="12.7845133"><ele>289.0</ele><time>2026-04-12T10:52:10.431Z</time></trkpt><trkpt lat="42.5762867" lon="12.7846567"><ele>289.0</ele><time>2026-04-12T10:52:11.429Z</time></trkpt><trkpt lat="42.5761417" lon="12.7847933"><ele>289.0</ele><time>2026-04-12T10:52:12.445Z</time></trkpt><trkpt lat="42.57601" lon="12.7849133"><ele>291.3333333333333</ele><time>2026-04-12T10:52:13.43Z</time></trkpt><trkpt lat="42.57588" lon="12.7850117"><ele>293.6666666666667</ele><time>2026-04-12T10:52:14.433Z</time></trkpt><trkpt lat="42.57574" lon="12.7850867"><ele>296.0</ele><time>2026-04-12T10:52:15.436Z</time></trkpt><trkpt lat="42.5755917" lon="12.785155"><ele>297.5</ele><time>2026-04-12T10:52:16.43Z</time></trkpt><trkpt lat="42.5754467" lon="12.7852033"><ele>299.0</ele><time>2026-04-12T10:52:17.431Z</time></trkpt><trkpt lat="42.5753217" lon="12.7852133"><ele>300.5</ele><time>2026-04-12T10:52:18.43Z</time></trkpt><trkpt lat="42.5752167" lon="12.7851917"><ele>302.0</ele><time>2026-04-12T10:52:19.429Z</time></trkpt><trkpt lat="42.5751433" lon="12.78513"><ele>302.6</ele><time>2026-04-12T10:52:20.442Z</time></trkpt><trkpt lat="42.57508" lon="12.785065"><ele>303.2</ele><time>2026-04-12T10:52:21.436Z</time></trkpt><trkpt lat="42.5750433" lon="12.78499"><ele>303.8</ele><time>2026-04-12T10:52:22.432Z</time></trkpt><trkpt lat="42.5751667" lon="12.784895"><ele>304.4</ele><time>2026-04-12T10:52:23.431Z</time></trkpt><trkpt lat="42.57529" lon="12.78482"><ele>305.0</ele><time>2026-04-12T10:52:24.427Z</time></trkpt><trkpt lat="42.5754283" lon="12.7847617"><ele>302.0</ele><time>2026-04-12T10:52:25.437Z</time></trkpt><trkpt lat="42.57558" lon="12.784725"><ele>299.0</ele><time>2026-04-12T10:52:26.434Z</time></trkpt><trkpt lat="42.57574" lon="12.7846617"><ele>296.0</ele><time>2026-04-12T10:52:27.427Z</time></trkpt><trkpt lat="42.5759" lon="12.7845717"><ele>296.0</ele><time>2026-04-12T10:52:28.432Z</time></trkpt><trkpt lat="42.57605" lon="12.78445"><ele>296.0</ele><time>2026-04-12T10:52:29.432Z</time></trkpt><trkpt lat="42.5762" lon="12.7842983"><ele>296.0</ele><time>2026-04-12T10:52:30.428Z</time></trkpt><trkpt lat="42.576355" lon="12.7841483"><ele>298.33333333333337</ele><time>2026-04-12T10:52:31.433Z</time></trkpt><trkpt lat="42.57652" lon="12.7840117"><ele>300.6666666666667</ele><time>2026-04-12T10:52:32.427Z</time></trkpt><trkpt lat="42.57669" lon="12.7838983"><ele>303.0</ele><time>2026-04-12T10:52:33.432Z</time></trkpt><trkpt lat="42.576855" lon="12.78378"><ele>303.0</ele><time>2026-04-12T10:52:34.428Z</time></trkpt><trkpt lat="42.577015" lon="12.78364"><ele>303.0</ele><time>2026-04-12T10:52:35.434Z</time></trkpt><trkpt lat="42.57719" lon="12.7834817"><ele>303.0</ele><time>2026-04-12T10:52:36.439Z</time></trkpt><trkpt lat="42.5773483" lon="12.7833283"><ele>304.6666666666667</ele><time>2026-04-12T10:52:37.442Z</time></trkpt><trkpt lat="42.5774967" lon="12.7831883"><ele>306.33333333333337</ele><time>2026-04-12T10:52:38.441Z</time></trkpt><trkpt lat="42.5776417" lon="12.78304"><ele>308.0</ele><time>2026-04-12T10:52:39.424Z</time></trkpt><trkpt lat="42.5777717" lon="12.7828583"><ele>303.0</ele><time>2026-04-12T10:52:40.444Z</time></trkpt><trkpt lat="42.5778883" lon="12.782635"><ele>298.0</ele><time>2026-04-12T10:52:41.434Z</time></trkpt><trkpt lat="42.5779917" lon="12.7823967"><ele>293.0</ele><time>2026-04-12T10:52:42.431Z</time></trkpt><trkpt lat="42.57809" lon="12.7821667"><ele>293.0</ele><time>2026-04-12T10:52:43.428Z</time></trkpt><trkpt lat="42.5781883" lon="12.7819533"><ele>293.0</ele><time>2026-04-12T10:52:44.44Z</time></trkpt><trkpt lat="42.5782783" lon="12.7817683"><ele>293.0</ele><time>2026-04-12T10:52:45.441Z</time></trkpt><trkpt lat="42.5783417" lon="12.7816083"><ele>298.25</ele><time>2026-04-12T10:52:46.426Z</time></trkpt><trkpt lat="42.5784033" lon="12.78146"><ele>303.5</ele><time>2026-04-12T10:52:47.431Z</time></trkpt><trkpt lat="42.5784317" lon="12.7813033"><ele>308.75</ele><time>2026-04-12T10:52:48.431Z</time></trkpt><trkpt lat="42.5784117" lon="12.7811267"><ele>314.0</ele><time>2026-04-12T10:52:49.438Z</time></trkpt><trkpt lat="42.578365" lon="12.780935"><ele>314.75</ele><time>2026-04-12T10:52:50.432Z</time></trkpt><trkpt lat="42.5783083" lon="12.7807483"><ele>315.5</ele><time>2026-04-12T10:52:51.444Z</time></trkpt><trkpt lat="42.5782567" lon="12.780565"><ele>316.25</ele><time>2026-04-12T10:52:52.426Z</time></trkpt><trkpt lat="42.5782117" lon="12.7803967"><ele>317.0</ele><time>2026-04-12T10:52:53.43Z</time></trkpt><trkpt lat="42.578185" lon="12.7802467"><ele>317.25</ele><time>2026-04-12T10:52:54.43Z</time></trkpt><trkpt lat="42.578165" lon="12.780095"><ele>317.5</ele><time>2026-04-12T10:52:55.431Z</time></trkpt><trkpt lat="42.578155" lon="12.77993"><ele>317.75</ele><time>2026-04-12T10:52:56.439Z</time></trkpt><trkpt lat="42.5781583" lon="12.7797517"><ele>318.0</ele><time>2026-04-12T10:52:57.431Z</time></trkpt><trkpt lat="42.57817" lon="12.77957"><ele>318.0</ele><time>2026-04-12T10:52:58.433Z</time></trkpt><trkpt lat="42.578195" lon="12.7793817"><ele>318.0</ele><time>2026-04-12T10:52:59.434Z</time></trkpt><trkpt lat="42.5782467" lon="12.7791883"><ele>318.0</ele><time>2026-04-12T10:53:00.431Z</time></trkpt><trkpt lat="42.5783083" lon="12.7789967"><ele>318.0</ele><time>2026-04-12T10:53:01.432Z</time></trkpt><trkpt lat="42.5783917" lon="12.7788117"><ele>314.6666666666667</ele><time>2026-04-12T10:53:02.433Z</time></trkpt><trkpt lat="42.57849" lon="12.7786217"><ele>311.33333333333337</ele><time>2026-04-12T10:53:03.436Z</time></trkpt><trkpt lat="42.578595" lon="12.7784267"><ele>308.0</ele><time>2026-04-12T10:53:04.426Z</time></trkpt><trkpt lat="42.5787033" lon="12.778225"><ele>308.0</ele><time>2026-04-12T10:53:05.426Z</time></trkpt><trkpt lat="42.5788267" lon="12.7780133"><ele>308.0</ele><time>2026-04-12T10:53:06.433Z</time></trkpt><trkpt lat="42.5789467" lon="12.777795"><ele>308.0</ele><time>2026-04-12T10:53:07.434Z</time></trkpt><trkpt lat="42.579065" lon="12.77758"><ele>318.6666666666667</ele><time>2026-04-12T10:53:08.433Z</time></trkpt><trkpt lat="42.57917" lon="12.7773883"><ele>329.3333333333333</ele><time>2026-04-12T10:53:09.429Z</time></trkpt><trkpt lat="42.5792667" lon="12.7772083"><ele>340.0</ele><time>2026-04-12T10:53:10.432Z</time></trkpt><trkpt lat="42.5793483" lon="12.7770383"><ele>340.0</ele><time>2026-04-12T10:53:11.434Z</time></trkpt><trkpt lat="42.5794283" lon="12.776895"><ele>340.0</ele><time>2026-04-12T10:53:12.437Z</time></trkpt><trkpt lat="42.5794967" lon="12.77676"><ele>340.0</ele><time>2026-04-12T10:53:13.431Z</time></trkpt><trkpt lat="42.579555" lon="12.7766367"><ele>340.0</ele><time>2026-04-12T10:53:14.424Z</time></trkpt><trkpt lat="42.5795783" lon="12.77652"><ele>342.0</ele><time>2026-04-12T10:53:15.434Z</time></trkpt><trkpt lat="42.5795833" lon="12.77641"><ele>344.0</ele><time>2026-04-12T10:53:16.432Z</time></trkpt><trkpt lat="42.5795233" lon="12.7763167"><ele>346.0</ele><time>2026-04-12T10:53:17.437Z</time></trkpt><trkpt lat="42.5794483" lon="12.7762383"><ele>348.0</ele><time>2026-04-12T10:53:18.435Z</time></trkpt><trkpt lat="42.5793117" lon="12.7762033"><ele>350.0</ele><time>2026-04-12T10:53:19.435Z</time></trkpt><trkpt lat="42.5791767" lon="12.776145"><ele>350.0</ele><time>2026-04-12T10:53:20.435Z</time></trkpt><trkpt lat="42.57906" lon="12.77606"><ele>350.0</ele><time>2026-04-12T10:53:21.434Z</time></trkpt><trkpt lat="42.5789533" lon="12.7759633"><ele>350.0</ele><time>2026-04-12T10:53:22.432Z</time></trkpt><trkpt lat="42.5788683" lon="12.7758467"><ele>350.0</ele><time>2026-04-12T10:53:23.435Z</time></trkpt><trkpt lat="42.578825" lon="12.7756917"><ele>351.5</ele><time>2026-04-12T10:53:24.428Z</time></trkpt><trkpt lat="42.5787767" lon="12.7755517"><ele>353.0</ele><time>2026-04-12T10:53:25.433Z</time></trkpt><trkpt lat="42.578715" lon="12.7754283"><ele>354.5</ele><time>2026-04-12T10:53:26.426Z</time></trkpt><trkpt lat="42.5786067" lon="12.77534"><ele>356.0</ele><time>2026-04-12T10:53:27.439Z</time></trkpt><trkpt lat="42.5784583" lon="12.7752983"><ele>356.0</ele><time>2026-04-12T10:53:28.427Z</time></trkpt><trkpt lat="42.578285" lon="12.77529"><ele>356.0</ele><time>2026-04-12T10:53:29.433Z</time></trkpt><trkpt lat="42.5781017" lon="12.775305"><ele>356.0</ele><time>2026-04-12T10:53:30.437Z</time></trkpt><trkpt lat="42.5779133" lon="12.775315"><ele>357.6666666666667</ele><time>2026-04-12T10:53:31.437Z</time></trkpt><trkpt lat="42.5777233" lon="12.775305"><ele>359.3333333333333</ele><time>2026-04-12T10:53:32.434Z</time></trkpt><trkpt lat="42.577535" lon="12.77525"><ele>361.0</ele><time>2026-04-12T10:53:33.432Z</time></trkpt><trkpt lat="42.5773483" lon="12.7751433"><ele>362.3333333333333</ele><time>2026-04-12T10:53:34.432Z</time></trkpt><trkpt lat="42.57716" lon="12.7750083"><ele>363.6666666666667</ele><time>2026-04-12T10:53:35.437Z</time></trkpt><trkpt lat="42.57698" lon="12.7748733"><ele>365.0</ele><time>2026-04-12T10:53:36.435Z</time></trkpt><trkpt lat="42.5768133" lon="12.7747467"><ele>365.0</ele><time>2026-04-12T10:53:37.443Z</time></trkpt><trkpt lat="42.57666" lon="12.774635"><ele>365.0</ele><time>2026-04-12T10:53:38.434Z</time></trkpt><trkpt lat="42.5765233" lon="12.7745317"><ele>365.0</ele><time>2026-04-12T10:53:39.436Z</time></trkpt><trkpt lat="42.5764017" lon="12.7744467"><ele>365.0</ele><time>2026-04-12T10:53:40.437Z</time></trkpt><trkpt lat="42.576285" lon="12.77439"><ele>365.0</ele><time>2026-04-12T10:53:41.433Z</time></trkpt><trkpt lat="42.5761783" lon="12.7743767"><ele>365.0</ele><time>2026-04-12T10:53:42.434Z</time></trkpt><trkpt lat="42.5760933" lon="12.7744267"><ele>365.0</ele><time>2026-04-12T10:53:43.43Z</time></trkpt><trkpt lat="42.57604" lon="12.7745333"><ele>365.0</ele><time>2026-04-12T10:53:44.434Z</time></trkpt><trkpt lat="42.576035" lon="12.774645"><ele>365.0</ele><time>2026-04-12T10:53:45.432Z</time></trkpt><trkpt lat="42.5760567" lon="12.7747517"><ele>365.0</ele><time>2026-04-12T10:53:46.433Z</time></trkpt><trkpt lat="42.5761" lon="12.7748417"><ele>365.0</ele><time>2026-04-12T10:53:47.432Z</time></trkpt><trkpt lat="42.5762433" lon="12.774855"><ele>365.0</ele><time>2026-04-12T10:53:48.437Z</time></trkpt><trkpt lat="42.5763883" lon="12.7749017"><ele>365.0</ele><time>2026-04-12T10:53:49.434Z</time></trkpt><trkpt lat="42.57654" lon="12.7749783"><ele>365.0</ele><time>2026-04-12T10:53:50.443Z</time></trkpt><trkpt lat="42.5766867" lon="12.7750817"><ele>365.0</ele><time>2026-04-12T10:53:51.435Z</time></trkpt><trkpt lat="42.5768217" lon="12.7752183"><ele>363.6666666666667</ele><time>2026-04-12T10:53:52.437Z</time></trkpt><trkpt lat="42.5769417" lon="12.775405"><ele>362.3333333333333</ele><time>2026-04-12T10:53:53.429Z</time></trkpt><trkpt lat="42.577065" lon="12.7756033"><ele>361.0</ele><time>2026-04-12T10:53:54.436Z</time></trkpt><trkpt lat="42.577205" lon="12.7758033"><ele>361.0</ele><time>2026-04-12T10:53:55.433Z</time></trkpt><trkpt lat="42.5773783" lon="12.7759633"><ele>361.0</ele><time>2026-04-12T10:53:56.431Z</time></trkpt><trkpt lat="42.577565" lon="12.7761033"><ele>361.0</ele><time>2026-04-12T10:53:57.438Z</time></trkpt><trkpt lat="42.5777833" lon="12.77624"><ele>368.0</ele><time>2026-04-12T10:53:58.433Z</time></trkpt><trkpt lat="42.57801" lon="12.7763783"><ele>375.0</ele><time>2026-04-12T10:53:59.429Z</time></trkpt><trkpt lat="42.5782267" lon="12.7764983"><ele>375.0</ele><time>2026-04-12T10:54:00.435Z</time></trkpt><trkpt lat="42.57842" lon="12.7766033"><ele>375.0</ele><time>2026-04-12T10:54:01.438Z</time></trkpt><trkpt lat="42.578585" lon="12.7766917"><ele>375.0</ele><time>2026-04-12T10:54:02.428Z</time></trkpt><trkpt lat="42.5787233" lon="12.7767717"><ele>376.8</ele><time>2026-04-12T10:54:03.432Z</time></trkpt><trkpt lat="42.5788017" lon="12.7768833"><ele>378.6</ele><time>2026-04-12T10:54:04.433Z</time></trkpt><trkpt lat="42.5788283" lon="12.7770167"><ele>380.4</ele><time>2026-04-12T10:54:05.433Z</time></trkpt><trkpt lat="42.5787983" lon="12.7771417"><ele>382.2</ele><time>2026-04-12T10:54:06.435Z</time></trkpt><trkpt lat="42.57874" lon="12.7772533"><ele>384.0</ele><time>2026-04-12T10:54:07.431Z</time></trkpt><trkpt lat="42.5786183" lon="12.77739"><ele>384.0</ele><time>2026-04-12T10:54:08.434Z</time></trkpt><trkpt lat="42.57848" lon="12.7775517"><ele>384.0</ele><time>2026-04-12T10:54:09.44Z</time></trkpt><trkpt lat="42.5783383" lon="12.77772"><ele>384.0</ele><time>2026-04-12T10:54:10.443Z</time></trkpt><trkpt lat="42.5781867" lon="12.77791"><ele>386.0</ele><time>2026-04-12T10:54:11.435Z</time></trkpt><trkpt lat="42.578045" lon="12.7781083"><ele>388.0</ele><time>2026-04-12T10:54:12.428Z</time></trkpt><trkpt lat="42.5779017" lon="12.778315"><ele>390.0</ele><time>2026-04-12T10:54:13.427Z</time></trkpt><trkpt lat="42.5777667" lon="12.7785417"><ele>390.0</ele><time>2026-04-12T10:54:14.428Z</time></trkpt><trkpt lat="42.5776417" lon="12.7788033"><ele>390.0</ele><time>2026-04-12T10:54:15.431Z</time></trkpt><trkpt lat="42.57753" lon="12.77907"><ele>390.0</ele><time>2026-04-12T10:54:16.427Z</time></trkpt><trkpt lat="42.5774317" lon="12.7793483"><ele>390.0</ele><time>2026-04-12T10:54:17.438Z</time></trkpt><trkpt lat="42.57736" lon="12.77966"><ele>383.5</ele><time>2026-04-12T10:54:18.434Z</time></trkpt><trkpt lat="42.5773117" lon="12.7799817"><ele>377.0</ele><time>2026-04-12T10:54:19.434Z</time></trkpt><trkpt lat="42.5772633" lon="12.7802783"><ele>375.6666666666667</ele><time>2026-04-12T10:54:20.429Z</time></trkpt><trkpt lat="42.5772267" lon="12.7805567"><ele>374.3333333333333</ele><time>2026-04-12T10:54:21.429Z</time></trkpt><trkpt lat="42.577185" lon="12.7808083"><ele>373.0</ele><time>2026-04-12T10:54:22.43Z</time></trkpt><trkpt lat="42.5771417" lon="12.78104"><ele>370.0</ele><time>2026-04-12T10:54:23.452Z</time></trkpt><trkpt lat="42.5770833" lon="12.7812367"><ele>367.0</ele><time>2026-04-12T10:54:24.436Z</time></trkpt><trkpt lat="42.5769867" lon="12.7813883"><ele>364.0</ele><time>2026-04-12T10:54:25.434Z</time></trkpt><trkpt lat="42.57685" lon="12.7815167"><ele>364.0</ele><time>2026-04-12T10:54:26.431Z</time></trkpt><trkpt lat="42.5766783" lon="12.7816317"><ele>364.0</ele><time>2026-04-12T10:54:27.429Z</time></trkpt><trkpt lat="42.5764917" lon="12.7817633"><ele>364.0</ele><time>2026-04-12T10:54:28.431Z</time></trkpt><trkpt lat="42.576295" lon="12.781895"><ele>373.0</ele><time>2026-04-12T10:54:29.438Z</time></trkpt><trkpt lat="42.5760967" lon="12.7820317"><ele>382.0</ele><time>2026-04-12T10:54:30.431Z</time></trkpt><trkpt lat="42.575905" lon="12.7821667"><ele>391.0</ele><time>2026-04-12T10:54:31.433Z</time></trkpt><trkpt lat="42.5757267" lon="12.7822917"><ele>391.0</ele><time>2026-04-12T10:54:32.438Z</time></trkpt><trkpt lat="42.57556" lon="12.7824067"><ele>391.0</ele><time>2026-04-12T10:54:33.431Z</time></trkpt><trkpt lat="42.5753983" lon="12.7824933"><ele>391.0</ele><time>2026-04-12T10:54:34.437Z</time></trkpt><trkpt lat="42.575225" lon="12.78254"><ele>397.6666666666667</ele><time>2026-04-12T10:54:35.429Z</time></trkpt><trkpt lat="42.5750267" lon="12.782545"><ele>404.33333333333337</ele><time>2026-04-12T10:54:36.435Z</time></trkpt><trkpt lat="42.5748217" lon="12.782525"><ele>411.0</ele><time>2026-04-12T10:54:37.436Z</time></trkpt><trkpt lat="42.5746167" lon="12.7824983"><ele>406.0</ele><time>2026-04-12T10:54:38.437Z</time></trkpt><trkpt lat="42.5744167" lon="12.7824617"><ele>401.0</ele><time>2026-04-12T10:54:39.432Z</time></trkpt><trkpt lat="42.5742217" lon="12.7823933"><ele>396.0</ele><time>2026-04-12T10:54:40.435Z</time></trkpt><trkpt lat="42.574025" lon="12.7823017"><ele>396.0</ele><time>2026-04-12T10:54:41.433Z</time></trkpt><trkpt lat="42.57383" lon="12.7822167"><ele>396.0</ele><time>2026-04-12T10:54:42.436Z</time></trkpt><trkpt lat="42.57365" lon="12.7821283"><ele>396.0</ele><time>2026-04-12T10:54:43.436Z</time></trkpt><trkpt lat="42.573495" lon="12.7820217"><ele>394.0</ele><time>2026-04-12T10:54:44.435Z</time></trkpt><trkpt lat="42.57336" lon="12.781885"><ele>392.0</ele><time>2026-04-12T10:54:45.429Z</time></trkpt><trkpt lat="42.5732433" lon="12.781715"><ele>390.0</ele><time>2026-04-12T10:54:46.437Z</time></trkpt><trkpt lat="42.573125" lon="12.7815583"><ele>396.25</ele><time>2026-04-12T10:54:47.435Z</time></trkpt><trkpt lat="42.573" lon="12.78145"><ele>402.5</ele><time>2026-04-12T10:54:48.429Z</time></trkpt><trkpt lat="42.5728717" lon="12.7814217"><ele>408.75</ele><time>2026-04-12T10:54:49.426Z</time></trkpt><trkpt lat="42.5727417" lon="12.78146"><ele>415.0</ele><time>2026-04-12T10:54:50.434Z</time></trkpt><trkpt lat="42.57261" lon="12.7815417"><ele>415.0</ele><time>2026-04-12T10:54:51.43Z</time></trkpt><trkpt lat="42.5724717" lon="12.78161"><ele>415.0</ele><time>2026-04-12T10:54:52.428Z</time></trkpt><trkpt lat="42.5723233" lon="12.7816167"><ele>415.0</ele><time>2026-04-12T10:54:53.429Z</time></trkpt><trkpt lat="42.57216" lon="12.78157"><ele>412.33333333333337</ele><time>2026-04-12T10:54:54.428Z</time></trkpt><trkpt lat="42.5720033" lon="12.7814883"><ele>409.66666666666663</ele><time>2026-04-12T10:54:55.433Z</time></trkpt><trkpt lat="42.5718317" lon="12.7813717"><ele>407.0</ele><time>2026-04-12T10:54:56.437Z</time></trkpt><trkpt lat="42.5716617" lon="12.7812483"><ele>407.0</ele><time>2026-04-12T10:54:57.437Z</time></trkpt><trkpt lat="42.571505" lon="12.78113"><ele>407.0</ele><time>2026-04-12T10:54:58.426Z</time></trkpt><trkpt lat="42.5713667" lon="12.7810217"><ele>407.0</ele><time>2026-04-12T10:54:59.436Z</time></trkpt><trkpt lat="42.571265" lon="12.7809017"><ele>412.0</ele><time>2026-04-12T10:55:00.433Z</time></trkpt><trkpt lat="42.5711917" lon="12.78074"><ele>417.0</ele><time>2026-04-12T10:55:01.427Z</time></trkpt><trkpt lat="42.57114" lon="12.780555"><ele>422.0</ele><time>2026-04-12T10:55:02.427Z</time></trkpt><trkpt lat="42.5710883" lon="12.7803867"><ele>427.0</ele><time>2026-04-12T10:55:03.429Z</time></trkpt><trkpt lat="42.57104" lon="12.78023"><ele>427.0</ele><time>2026-04-12T10:55:04.434Z</time></trkpt><trkpt lat="42.57098" lon="12.7801067"><ele>427.00000000000006</ele><time>2026-04-12T10:55:05.426Z</time></trkpt><trkpt lat="42.570905" lon="12.78004"><ele>427.00000000000006</ele><time>2026-04-12T10:55:06.433Z</time></trkpt><trkpt lat="42.5708233" lon="12.7800133"><ele>427.0</ele><time>2026-04-12T10:55:07.427Z</time></trkpt><trkpt lat="42.570735" lon="12.7800817"><ele>427.0</ele><time>2026-04-12T10:55:08.436Z</time></trkpt><trkpt lat="42.570655" lon="12.7801933"><ele>427.0</ele><time>2026-04-12T10:55:09.436Z</time></trkpt><trkpt lat="42.5705683" lon="12.78036"><ele>427.0</ele><time>2026-04-12T10:55:10.43Z</time></trkpt><trkpt lat="42.5704783" lon="12.7805383"><ele>427.0</ele><time>2026-04-12T10:55:11.426Z</time></trkpt><trkpt lat="42.5703933" lon="12.78071"><ele>421.75</ele><time>2026-04-12T10:55:12.428Z</time></trkpt><trkpt lat="42.570305" lon="12.78086"><ele>416.5</ele><time>2026-04-12T10:55:13.432Z</time></trkpt><trkpt lat="42.5702" lon="12.7809783"><ele>411.25</ele><time>2026-04-12T10:55:14.436Z</time></trkpt><trkpt lat="42.5700633" lon="12.7810483"><ele>406.0</ele><time>2026-04-12T10:55:15.438Z</time></trkpt><trkpt lat="42.569905" lon="12.7810633"><ele>406.0</ele><time>2026-04-12T10:55:16.43Z</time></trkpt><trkpt lat="42.569725" lon="12.7810617"><ele>406.0</ele><time>2026-04-12T10:55:17.424Z</time></trkpt><trkpt lat="42.5695333" lon="12.7810467"><ele>406.0</ele><time>2026-04-12T10:55:18.433Z</time></trkpt><trkpt lat="42.5693467" lon="12.7810183"><ele>422.33333333333337</ele><time>2026-04-12T10:55:19.438Z</time></trkpt><trkpt lat="42.5691717" lon="12.7809783"><ele>438.66666666666663</ele><time>2026-04-12T10:55:20.431Z</time></trkpt><trkpt lat="42.569" lon="12.7809117"><ele>455.0</ele><time>2026-04-12T10:55:21.438Z</time></trkpt><trkpt lat="42.5688317" lon="12.7808117"><ele>447.66666666666663</ele><time>2026-04-12T10:55:22.428Z</time></trkpt><trkpt lat="42.568655" lon="12.780685"><ele>440.33333333333337</ele><time>2026-04-12T10:55:23.44Z</time></trkpt><trkpt lat="42.5684717" lon="12.780535"><ele>433.0</ele><time>2026-04-12T10:55:24.434Z</time></trkpt><trkpt lat="42.5682883" lon="12.7803817"><ele>433.0</ele><time>2026-04-12T10:55:25.431Z</time></trkpt><trkpt lat="42.5681267" lon="12.7802267"><ele>433.0</ele><time>2026-04-12T10:55:26.435Z</time></trkpt><trkpt lat="42.567985" lon="12.7800583"><ele>433.0</ele><time>2026-04-12T10:55:27.434Z</time></trkpt><trkpt lat="42.5678583" lon="12.779895"><ele>438.0</ele><time>2026-04-12T10:55:28.43Z</time></trkpt><trkpt lat="42.56774" lon="12.7797517"><ele>443.0</ele><time>2026-04-12T10:55:29.432Z</time></trkpt><trkpt lat="42.567605" lon="12.7796567"><ele>448.0</ele><time>2026-04-12T10:55:30.438Z</time></trkpt><trkpt lat="42.5674567" lon="12.7796"><ele>448.0</ele><time>2026-04-12T10:55:31.431Z</time></trkpt><trkpt lat="42.5672933" lon="12.779555"><ele>448.0</ele><time>2026-04-12T10:55:32.44Z</time></trkpt><trkpt lat="42.56713" lon="12.779485"><ele>448.0</ele><time>2026-04-12T10:55:33.44Z</time></trkpt><trkpt lat="42.5669733" lon="12.77937"><ele>450.0</ele><time>2026-04-12T10:55:34.433Z</time></trkpt><trkpt lat="42.5668267" lon="12.7792183"><ele>452.0</ele><time>2026-04-12T10:55:35.436Z</time></trkpt><trkpt lat="42.566705" lon="12.77905"><ele>454.0</ele><time>2026-04-12T10:55:36.428Z</time></trkpt><trkpt lat="42.5665983" lon="12.7788633"><ele>454.0</ele><time>2026-04-12T10:55:37.434Z</time></trkpt><trkpt lat="42.566515" lon="12.7786417"><ele>454.0</ele><time>2026-04-12T10:55:38.446Z</time></trkpt><trkpt lat="42.5664367" lon="12.7784117"><ele>454.0</ele><time>2026-04-12T10:55:39.438Z</time></trkpt><trkpt lat="42.566335" lon="12.778195"><ele>453.6666666666667</ele><time>2026-04-12T10:55:40.429Z</time></trkpt><trkpt lat="42.5661817" lon="12.7780083"><ele>453.33333333333337</ele><time>2026-04-12T10:55:41.436Z</time></trkpt><trkpt lat="42.5659783" lon="12.77784"><ele>453.0</ele><time>2026-04-12T10:55:42.437Z</time></trkpt><trkpt lat="42.56577" lon="12.7776783"><ele>463.5</ele><time>2026-04-12T10:55:43.429Z</time></trkpt><trkpt lat="42.5655417" lon="12.777515"><ele>474.0</ele><time>2026-04-12T10:55:44.442Z</time></trkpt><trkpt lat="42.5653167" lon="12.77735"><ele>474.0</ele><time>2026-04-12T10:55:45.434Z</time></trkpt><trkpt lat="42.5651067" lon="12.777195"><ele>474.0</ele><time>2026-04-12T10:55:46.437Z</time></trkpt><trkpt lat="42.564905" lon="12.7770783"><ele>474.0</ele><time>2026-04-12T10:55:47.435Z</time></trkpt><trkpt lat="42.5646983" lon="12.7770083"><ele>474.0</ele><time>2026-04-12T10:55:48.439Z</time></trkpt><trkpt lat="42.5644933" lon="12.77699"><ele>474.0</ele><time>2026-04-12T10:55:49.432Z</time></trkpt><trkpt lat="42.5643017" lon="12.7770217"><ele>473.66666666666663</ele><time>2026-04-12T10:55:50.44Z</time></trkpt><trkpt lat="42.5641267" lon="12.77708"><ele>473.3333333333333</ele><time>2026-04-12T10:55:51.431Z</time></trkpt><trkpt lat="42.5639717" lon="12.777105"><ele>473.0</ele><time>2026-04-12T10:55:52.438Z</time></trkpt><trkpt lat="42.5638167" lon="12.777085"><ele>473.0</ele><time>2026-04-12T10:55:53.445Z</time></trkpt><trkpt lat="42.5636433" lon="12.7770033"><ele>473.0</ele><time>2026-04-12T10:55:54.44Z</time></trkpt><trkpt lat="42.5634617" lon="12.7768667"><ele>473.0</ele><time>2026-04-12T10:55:55.436Z</time></trkpt><trkpt lat="42.5632717" lon="12.7767217"><ele>478.0</ele><time>2026-04-12T10:55:56.435Z</time></trkpt><trkpt lat="42.5630783" lon="12.7766033"><ele>483.0</ele><time>2026-04-12T10:55:57.441Z</time></trkpt><trkpt lat="42.5628783" lon="12.77651"><ele>488.0</ele><time>2026-04-12T10:55:58.428Z</time></trkpt><trkpt lat="42.562665" lon="12.7764533"><ele>488.0</ele><time>2026-04-12T10:55:59.425Z</time></trkpt><trkpt lat="42.56244" lon="12.7764217"><ele>488.0</ele><time>2026-04-12T10:56:00.435Z</time></trkpt><trkpt lat="42.562215" lon="12.7763933"><ele>489.66666666666663</ele><time>2026-04-12T10:56:01.437Z</time></trkpt><trkpt lat="42.562" lon="12.77636"><ele>491.33333333333337</ele><time>2026-04-12T10:56:02.447Z</time></trkpt><trkpt lat="42.5617883" lon="12.7763283"><ele>493.0</ele><time>2026-04-12T10:56:03.43Z</time></trkpt><trkpt lat="42.5615833" lon="12.7763167"><ele>493.0</ele><time>2026-04-12T10:56:04.431Z</time></trkpt><trkpt lat="42.5613983" lon="12.77635"><ele>493.0</ele><time>2026-04-12T10:56:05.434Z</time></trkpt><trkpt lat="42.56123" lon="12.776445"><ele>493.0</ele><time>2026-04-12T10:56:06.426Z</time></trkpt><trkpt lat="42.561065" lon="12.77659"><ele>497.0</ele><time>2026-04-12T10:56:07.433Z</time></trkpt><trkpt lat="42.5609083" lon="12.776745"><ele>501.0</ele><time>2026-04-12T10:56:08.447Z</time></trkpt><trkpt lat="42.560765" lon="12.7768917"><ele>505.0</ele><time>2026-04-12T10:56:09.44Z</time></trkpt><trkpt lat="42.5606417" lon="12.7770117"><ele>505.5</ele><time>2026-04-12T10:56:10.432Z</time></trkpt><trkpt lat="42.56053" lon="12.777075"><ele>506.0</ele><time>2026-04-12T10:56:11.43Z</time></trkpt><trkpt lat="42.5604267" lon="12.77707"><ele>506.5</ele><time>2026-04-12T10:56:12.442Z</time></trkpt><trkpt lat="42.5603233" lon="12.7769967"><ele>507.0</ele><time>2026-04-12T10:56:13.431Z</time></trkpt><trkpt lat="42.5602383" lon="12.776845"><ele>510.0</ele><time>2026-04-12T10:56:14.429Z</time></trkpt><trkpt lat="42.5601683" lon="12.7766467"><ele>513.0</ele><time>2026-04-12T10:56:15.432Z</time></trkpt><trkpt lat="42.5601017" lon="12.776455"><ele>516.0</ele><time>2026-04-12T10:56:16.444Z</time></trkpt><trkpt lat="42.5600283" lon="12.7762933"><ele>516.0</ele><time>2026-04-12T10:56:17.432Z</time></trkpt><trkpt lat="42.55994" lon="12.77616"><ele>516.0</ele><time>2026-04-12T10:56:18.437Z</time></trkpt><trkpt lat="42.5598333" lon="12.7760667"><ele>516.0</ele><time>2026-04-12T10:56:19.443Z</time></trkpt><trkpt lat="42.5597017" lon="12.77601"><ele>516.0</ele><time>2026-04-12T10:56:20.436Z</time></trkpt><trkpt lat="42.5595633" lon="12.77599"><ele>515.0</ele><time>2026-04-12T10:56:21.446Z</time></trkpt><trkpt lat="42.5594167" lon="12.7760283"><ele>514.0</ele><time>2026-04-12T10:56:22.435Z</time></trkpt><trkpt lat="42.5592617" lon="12.7761133"><ele>513.0</ele><time>2026-04-12T10:56:23.43Z</time></trkpt><trkpt lat="42.5591083" lon="12.7762283"><ele>513.0</ele><time>2026-04-12T10:56:24.435Z</time></trkpt><trkpt lat="42.5589617" lon="12.776375"><ele>513.0</ele><time>2026-04-12T10:56:25.425Z</time></trkpt><trkpt lat="42.558815" lon="12.776555"><ele>513.0</ele><time>2026-04-12T10:56:26.434Z</time></trkpt><trkpt lat="42.558665" lon="12.7767617"><ele>513.3333333333334</ele><time>2026-04-12T10:56:27.432Z</time></trkpt><trkpt lat="42.5585133" lon="12.7769767"><ele>513.6666666666667</ele><time>2026-04-12T10:56:28.431Z</time></trkpt><trkpt lat="42.5583617" lon="12.7771867"><ele>514.0</ele><time>2026-04-12T10:56:29.436Z</time></trkpt><trkpt lat="42.55821" lon="12.777385"><ele>514.0</ele><time>2026-04-12T10:56:30.436Z</time></trkpt><trkpt lat="42.558065" lon="12.777565"><ele>514.0</ele><time>2026-04-12T10:56:31.44Z</time></trkpt><trkpt lat="42.55791" lon="12.77771"><ele>514.0</ele><time>2026-04-12T10:56:32.431Z</time></trkpt><trkpt lat="42.5577417" lon="12.7778033"><ele>517.6666666666667</ele><time>2026-04-12T10:56:33.436Z</time></trkpt><trkpt lat="42.5575533" lon="12.7778167"><ele>521.3333333333334</ele><time>2026-04-12T10:56:34.431Z</time></trkpt><trkpt lat="42.55735" lon="12.77778"><ele>525.0</ele><time>2026-04-12T10:56:35.435Z</time></trkpt><trkpt lat="42.5571317" lon="12.7777083"><ele>515.0</ele><time>2026-04-12T10:56:36.437Z</time></trkpt><trkpt lat="42.5568983" lon="12.7776333"><ele>505.0</ele><time>2026-04-12T10:56:37.449Z</time></trkpt><trkpt lat="42.5566683" lon="12.7775717"><ele>505.0</ele><time>2026-04-12T10:56:38.433Z</time></trkpt><trkpt lat="42.5564533" lon="12.7775083"><ele>505.0</ele><time>2026-04-12T10:56:39.432Z</time></trkpt><trkpt lat="42.5562533" lon="12.77746"><ele>505.0</ele><time>2026-04-12T10:56:40.429Z</time></trkpt><trkpt lat="42.5560683" lon="12.77744"><ele>504.0</ele><time>2026-04-12T10:56:41.439Z</time></trkpt><trkpt lat="42.555895" lon="12.7774667"><ele>503.0</ele><time>2026-04-12T10:56:42.431Z</time></trkpt><trkpt lat="42.5557283" lon="12.777555"><ele>502.0</ele><time>2026-04-12T10:56:43.437Z</time></trkpt><trkpt lat="42.55557" lon="12.7777133"><ele>500.33333333333337</ele><time>2026-04-12T10:56:44.44Z</time></trkpt><trkpt lat="42.5554367" lon="12.7779433"><ele>498.66666666666663</ele><time>2026-04-12T10:56:45.431Z</time></trkpt><trkpt lat="42.55532" lon="12.7781717"><ele>497.0</ele><time>2026-04-12T10:56:46.44Z</time></trkpt><trkpt lat="42.5552233" lon="12.7783967"><ele>502.66666666666663</ele><time>2026-04-12T10:56:47.43Z</time></trkpt><trkpt lat="42.5551317" lon="12.7785883"><ele>508.33333333333337</ele><time>2026-04-12T10:56:48.437Z</time></trkpt><trkpt lat="42.5550233" lon="12.7787267"><ele>514.0</ele><time>2026-04-12T10:56:49.438Z</time></trkpt><trkpt lat="42.5549017" lon="12.7788067"><ele>514.0</ele><time>2026-04-12T10:56:50.432Z</time></trkpt><trkpt lat="42.5547717" lon="12.77882"><ele>514.0</ele><time>2026-04-12T10:56:51.44Z</time></trkpt><trkpt lat="42.554635" lon="12.7787683"><ele>514.0</ele><time>2026-04-12T10:56:52.439Z</time></trkpt><trkpt lat="42.5544783" lon="12.778655"><ele>514.0</ele><time>2026-04-12T10:56:53.432Z</time></trkpt><trkpt lat="42.5543117" lon="12.77853"><ele>514.0</ele><time>2026-04-12T10:56:54.44Z</time></trkpt><trkpt lat="42.5541383" lon="12.7784067"><ele>514.0</ele><time>2026-04-12T10:56:55.438Z</time></trkpt><trkpt lat="42.5539583" lon="12.7782783"><ele>511.33333333333337</ele><time>2026-04-12T10:56:56.434Z</time></trkpt><trkpt lat="42.5537717" lon="12.7781467"><ele>508.66666666666663</ele><time>2026-04-12T10:56:57.44Z</time></trkpt><trkpt lat="42.553575" lon="12.7780117"><ele>506.0</ele><time>2026-04-12T10:56:58.43Z</time></trkpt><trkpt lat="42.5533767" lon="12.77788"><ele>506.0</ele><time>2026-04-12T10:56:59.429Z</time></trkpt><trkpt lat="42.5531833" lon="12.7777667"><ele>506.0</ele><time>2026-04-12T10:57:00.44Z</time></trkpt><trkpt lat="42.5529933" lon="12.7776683"><ele>506.0</ele><time>2026-04-12T10:57:01.428Z</time></trkpt><trkpt lat="42.5527967" lon="12.77758"><ele>504.3333333333333</ele><time>2026-04-12T10:57:02.428Z</time></trkpt><trkpt lat="42.5525933" lon="12.7774967"><ele>502.66666666666663</ele><time>2026-04-12T10:57:03.44Z</time></trkpt><trkpt lat="42.55238" lon="12.77742"><ele>501.0</ele><time>2026-04-12T10:57:04.437Z</time></trkpt><trkpt lat="42.5521633" lon="12.777345"><ele>505.0</ele><time>2026-04-12T10:57:05.428Z</time></trkpt><trkpt lat="42.5519583" lon="12.77727"><ele>509.0</ele><time>2026-04-12T10:57:06.427Z</time></trkpt><trkpt lat="42.5517617" lon="12.7771933"><ele>513.0</ele><time>2026-04-12T10:57:07.442Z</time></trkpt><trkpt lat="42.551575" lon="12.777115"><ele>513.0</ele><time>2026-04-12T10:57:08.437Z</time></trkpt><trkpt lat="42.551405" lon="12.777025"><ele>513.0</ele><time>2026-04-12T10:57:09.439Z</time></trkpt><trkpt lat="42.551245" lon="12.776925"><ele>513.0</ele><time>2026-04-12T10:57:10.442Z</time></trkpt><trkpt lat="42.5510967" lon="12.7768267"><ele>506.33333333333337</ele><time>2026-04-12T10:57:11.437Z</time></trkpt><trkpt lat="42.550945" lon="12.7767517"><ele>499.6666666666667</ele><time>2026-04-12T10:57:12.431Z</time></trkpt><trkpt lat="42.55078" lon="12.7767217"><ele>493.0</ele><time>2026-04-12T10:57:13.445Z</time></trkpt><trkpt lat="42.5505933" lon="12.7767517"><ele>493.0</ele><time>2026-04-12T10:57:14.436Z</time></trkpt><trkpt lat="42.550395" lon="12.77681"><ele>493.0</ele><time>2026-04-12T10:57:15.438Z</time></trkpt><trkpt lat="42.550195" lon="12.776885"><ele>493.0</ele><time>2026-04-12T10:57:16.437Z</time></trkpt><trkpt lat="42.5499967" lon="12.7769483"><ele>499.6666666666667</ele><time>2026-04-12T10:57:17.441Z</time></trkpt><trkpt lat="42.549795" lon="12.7769817"><ele>506.33333333333337</ele><time>2026-04-12T10:57:18.437Z</time></trkpt><trkpt lat="42.549585" lon="12.77698"><ele>513.0</ele><time>2026-04-12T10:57:19.437Z</time></trkpt><trkpt lat="42.54937" lon="12.7769483"><ele>513.0</ele><time>2026-04-12T10:57:20.433Z</time></trkpt><trkpt lat="42.5491583" lon="12.7768917"><ele>513.0</ele><time>2026-04-12T10:57:21.439Z</time></trkpt><trkpt lat="42.548945" lon="12.776815"><ele>513.0</ele><time>2026-04-12T10:57:22.435Z</time></trkpt><trkpt lat="42.5487383" lon="12.7767283"><ele>507.66666666666663</ele><time>2026-04-12T10:57:23.433Z</time></trkpt><trkpt lat="42.5485367" lon="12.7766283"><ele>502.3333333333333</ele><time>2026-04-12T10:57:24.44Z</time></trkpt><trkpt lat="42.5483533" lon="12.7765167"><ele>497.0</ele><time>2026-04-12T10:57:25.437Z</time></trkpt><trkpt lat="42.5481867" lon="12.7763917"><ele>497.0</ele><time>2026-04-12T10:57:26.439Z</time></trkpt><trkpt lat="42.5480517" lon="12.7762467"><ele>497.0</ele><time>2026-04-12T10:57:27.434Z</time></trkpt><trkpt lat="42.54794" lon="12.776085"><ele>497.0</ele><time>2026-04-12T10:57:28.43Z</time></trkpt><trkpt lat="42.5478567" lon="12.7758967"><ele>499.0</ele><time>2026-04-12T10:57:29.433Z</time></trkpt><trkpt lat="42.5477983" lon="12.7756767"><ele>501.0</ele><time>2026-04-12T10:57:30.436Z</time></trkpt><trkpt lat="42.5477517" lon="12.7754467"><ele>503.0</ele><time>2026-04-12T10:57:31.447Z</time></trkpt><trkpt lat="42.5476933" lon="12.775225"><ele>497.66666666666663</ele><time>2026-04-12T10:57:32.441Z</time></trkpt><trkpt lat="42.5476033" lon="12.7750317"><ele>492.33333333333337</ele><time>2026-04-12T10:57:33.429Z</time></trkpt><trkpt lat="42.547475" lon="12.7748933"><ele>487.0</ele><time>2026-04-12T10:57:34.425Z</time></trkpt><trkpt lat="42.54732" lon="12.7748017"><ele>487.0</ele><time>2026-04-12T10:57:35.436Z</time></trkpt><trkpt lat="42.54715" lon="12.7747583"><ele>487.0</ele><time>2026-04-12T10:57:36.427Z</time></trkpt><trkpt lat="42.5469683" lon="12.7747567"><ele>487.0</ele><time>2026-04-12T10:57:37.437Z</time></trkpt><trkpt lat="42.546775" lon="12.7748133"><ele>487.0</ele><time>2026-04-12T10:57:38.445Z</time></trkpt><trkpt lat="42.5465833" lon="12.7749"><ele>487.0</ele><time>2026-04-12T10:57:39.436Z</time></trkpt><trkpt lat="42.5464033" lon="12.7749983"><ele>487.0</ele><time>2026-04-12T10:57:40.427Z</time></trkpt><trkpt lat="42.5462333" lon="12.775095"><ele>484.33333333333337</ele><time>2026-04-12T10:57:41.436Z</time></trkpt><trkpt lat="42.5460617" lon="12.77515"><ele>481.66666666666663</ele><time>2026-04-12T10:57:42.433Z</time></trkpt><trkpt lat="42.54589" lon="12.7751483"><ele>479.0</ele><time>2026-04-12T10:57:43.432Z</time></trkpt><trkpt lat="42.54572" lon="12.7750883"><ele>479.0</ele><time>2026-04-12T10:57:44.436Z</time></trkpt><trkpt lat="42.545545" lon="12.774995"><ele>479.0</ele><time>2026-04-12T10:57:45.434Z</time></trkpt><trkpt lat="42.545385" lon="12.7748783"><ele>479.0</ele><time>2026-04-12T10:57:46.43Z</time></trkpt><trkpt lat="42.5452317" lon="12.7747633"><ele>481.0</ele><time>2026-04-12T10:57:47.432Z</time></trkpt><trkpt lat="42.54508" lon="12.7746533"><ele>483.0</ele><time>2026-04-12T10:57:48.44Z</time></trkpt><trkpt lat="42.54492" lon="12.774565"><ele>485.0</ele><time>2026-04-12T10:57:49.439Z</time></trkpt><trkpt lat="42.5447567" lon="12.7745117"><ele>485.0</ele><time>2026-04-12T10:57:50.431Z</time></trkpt><trkpt lat="42.5446033" lon="12.7745"><ele>485.0</ele><time>2026-04-12T10:57:51.431Z</time></trkpt><trkpt lat="42.5444667" lon="12.774545"><ele>485.0</ele><time>2026-04-12T10:57:52.431Z</time></trkpt><trkpt lat="42.5443283" lon="12.7746433"><ele>480.0</ele><time>2026-04-12T10:57:53.436Z</time></trkpt><trkpt lat="42.544205" lon="12.7747983"><ele>475.0</ele><time>2026-04-12T10:57:54.438Z</time></trkpt><trkpt lat="42.544085" lon="12.77497"><ele>470.0</ele><time>2026-04-12T10:57:55.433Z</time></trkpt><trkpt lat="42.543975" lon="12.775145"><ele>466.66666666666663</ele><time>2026-04-12T10:57:56.441Z</time></trkpt><trkpt lat="42.5438617" lon="12.7753283"><ele>463.33333333333337</ele><time>2026-04-12T10:57:57.431Z</time></trkpt><trkpt lat="42.54374" lon="12.775525"><ele>460.0</ele><time>2026-04-12T10:57:58.434Z</time></trkpt><trkpt lat="42.5436117" lon="12.7757233"><ele>460.0</ele><time>2026-04-12T10:57:59.429Z</time></trkpt><trkpt lat="42.543475" lon="12.77592"><ele>460.0</ele><time>2026-04-12T10:58:00.435Z</time></trkpt><trkpt lat="42.543335" lon="12.7760967"><ele>460.0</ele><time>2026-04-12T10:58:01.432Z</time></trkpt><trkpt lat="42.5431917" lon="12.7762517"><ele>463.6666666666667</ele><time>2026-04-12T10:58:02.433Z</time></trkpt><trkpt lat="42.54306" lon="12.7763883"><ele>467.33333333333337</ele><time>2026-04-12T10:58:03.438Z</time></trkpt><trkpt lat="42.5429467" lon="12.7765267"><ele>471.0</ele><time>2026-04-12T10:58:04.435Z</time></trkpt><trkpt lat="42.542855" lon="12.7766817"><ele>463.66666666666663</ele><time>2026-04-12T10:58:05.441Z</time></trkpt><trkpt lat="42.5427883" lon="12.7768783"><ele>456.3333333333333</ele><time>2026-04-12T10:58:06.434Z</time></trkpt><trkpt lat="42.5427483" lon="12.777095"><ele>449.0</ele><time>2026-04-12T10:58:07.436Z</time></trkpt><trkpt lat="42.5427367" lon="12.7773117"><ele>449.0</ele><time>2026-04-12T10:58:08.441Z</time></trkpt><trkpt lat="42.5427317" lon="12.7775067"><ele>449.0</ele><time>2026-04-12T10:58:09.438Z</time></trkpt><trkpt lat="42.5427217" lon="12.7776683"><ele>449.0</ele><time>2026-04-12T10:58:10.433Z</time></trkpt><trkpt lat="42.5427117" lon="12.7777917"><ele>449.0</ele><time>2026-04-12T10:58:11.433Z</time></trkpt><trkpt lat="42.5427067" lon="12.7778867"><ele>449.0</ele><time>2026-04-12T10:58:12.444Z</time></trkpt><trkpt lat="42.54271" lon="12.7780467"><ele>450.25</ele><time>2026-04-12T10:58:14.448Z</time></trkpt><trkpt lat="42.5426967" lon="12.7781567"><ele>451.5</ele><time>2026-04-12T10:58:15.433Z</time></trkpt><trkpt lat="42.5426533" lon="12.7783067"><ele>452.75</ele><time>2026-04-12T10:58:16.437Z</time></trkpt><trkpt lat="42.5425917" lon="12.7784783"><ele>454.0</ele><time>2026-04-12T10:58:17.434Z</time></trkpt><trkpt lat="42.54251" lon="12.7786583"><ele>457.0</ele><time>2026-04-12T10:58:18.433Z</time></trkpt><trkpt lat="42.542405" lon="12.7788367"><ele>460.0</ele><time>2026-04-12T10:58:19.44Z</time></trkpt><trkpt lat="42.542285" lon="12.778995"><ele>463.0</ele><time>2026-04-12T10:58:20.437Z</time></trkpt><trkpt lat="42.5421533" lon="12.7791183"><ele>460.0</ele><time>2026-04-12T10:58:21.426Z</time></trkpt><trkpt lat="42.54201" lon="12.7792017"><ele>457.0</ele><time>2026-04-12T10:58:22.433Z</time></trkpt><trkpt lat="42.5418683" lon="12.77923"><ele>454.0</ele><time>2026-04-12T10:58:23.443Z</time></trkpt><trkpt lat="42.5417333" lon="12.779215"><ele>451.0</ele><time>2026-04-12T10:58:24.434Z</time></trkpt><trkpt lat="42.5416133" lon="12.7791717"><ele>451.0</ele><time>2026-04-12T10:58:25.428Z</time></trkpt><trkpt lat="42.54151" lon="12.779095"><ele>451.0</ele><time>2026-04-12T10:58:26.444Z</time></trkpt><trkpt lat="42.5414167" lon="12.7789833"><ele>451.0</ele><time>2026-04-12T10:58:27.434Z</time></trkpt><trkpt lat="42.541305" lon="12.7788683"><ele>451.0</ele><time>2026-04-12T10:58:28.431Z</time></trkpt><trkpt lat="42.5411833" lon="12.77875"><ele>451.6666666666667</ele><time>2026-04-12T10:58:29.444Z</time></trkpt><trkpt lat="42.54106" lon="12.7786367"><ele>452.33333333333337</ele><time>2026-04-12T10:58:30.438Z</time></trkpt><trkpt lat="42.5409267" lon="12.778535"><ele>453.0</ele><time>2026-04-12T10:58:31.439Z</time></trkpt><trkpt lat="42.54078" lon="12.7784483"><ele>448.66666666666663</ele><time>2026-04-12T10:58:32.442Z</time></trkpt><trkpt lat="42.5406267" lon="12.7783767"><ele>444.3333333333333</ele><time>2026-04-12T10:58:33.437Z</time></trkpt><trkpt lat="42.5404633" lon="12.7783267"><ele>440.0</ele><time>2026-04-12T10:58:34.441Z</time></trkpt><trkpt lat="42.5403" lon="12.7782933"><ele>440.0</ele><time>2026-04-12T10:58:35.452Z</time></trkpt><trkpt lat="42.5401467" lon="12.7782617"><ele>440.0</ele><time>2026-04-12T10:58:36.441Z</time></trkpt><trkpt lat="42.540005" lon="12.7782367"><ele>440.0</ele><time>2026-04-12T10:58:37.435Z</time></trkpt><trkpt lat="42.53987" lon="12.7782517"><ele>440.0</ele><time>2026-04-12T10:58:38.439Z</time></trkpt><trkpt lat="42.539745" lon="12.778305"><ele>440.0</ele><time>2026-04-12T10:58:39.428Z</time></trkpt><trkpt lat="42.539635" lon="12.7783817"><ele>440.0</ele><time>2026-04-12T10:58:40.426Z</time></trkpt><trkpt lat="42.5395417" lon="12.7784783"><ele>440.0</ele><time>2026-04-12T10:58:41.44Z</time></trkpt><trkpt lat="42.5394567" lon="12.77857"><ele>440.0</ele><time>2026-04-12T10:58:42.433Z</time></trkpt><trkpt lat="42.539375" lon="12.7786583"><ele>438.4</ele><time>2026-04-12T10:58:43.442Z</time></trkpt><trkpt lat="42.5392917" lon="12.77874"><ele>436.8</ele><time>2026-04-12T10:58:44.44Z</time></trkpt><trkpt lat="42.53921" lon="12.7788033"><ele>435.20000000000005</ele><time>2026-04-12T10:58:45.433Z</time></trkpt><trkpt lat="42.5391133" lon="12.7788467"><ele>433.6</ele><time>2026-04-12T10:58:46.442Z</time></trkpt><trkpt lat="42.5390083" lon="12.7788783"><ele>432.0</ele><time>2026-04-12T10:58:47.428Z</time></trkpt><trkpt lat="42.5388867" lon="12.77889"><ele>432.0</ele><time>2026-04-12T10:58:48.437Z</time></trkpt><trkpt lat="42.538755" lon="12.7788733"><ele>432.0</ele><time>2026-04-12T10:58:49.424Z</time></trkpt><trkpt lat="42.5386217" lon="12.7788333"><ele>432.0</ele><time>2026-04-12T10:58:50.427Z</time></trkpt><trkpt lat="42.53849" lon="12.77878"><ele>432.0</ele><time>2026-04-12T10:58:51.435Z</time></trkpt><trkpt lat="42.5383733" lon="12.778715"><ele>432.20000000000005</ele><time>2026-04-12T10:58:52.438Z</time></trkpt><trkpt lat="42.5382667" lon="12.778645"><ele>432.40000000000003</ele><time>2026-04-12T10:58:53.442Z</time></trkpt><trkpt lat="42.5381617" lon="12.7785933"><ele>432.59999999999997</ele><time>2026-04-12T10:58:54.443Z</time></trkpt><trkpt lat="42.538055" lon="12.7785617"><ele>432.79999999999995</ele><time>2026-04-12T10:58:55.439Z</time></trkpt><trkpt lat="42.5379483" lon="12.778555"><ele>433.0</ele><time>2026-04-12T10:58:56.448Z</time></trkpt><trkpt lat="42.5378467" lon="12.77857"><ele>430.59999999999997</ele><time>2026-04-12T10:58:57.446Z</time></trkpt><trkpt lat="42.53775" lon="12.7786"><ele>428.19999999999993</ele><time>2026-04-12T10:58:58.431Z</time></trkpt><trkpt lat="42.5376633" lon="12.77864"><ele>425.8</ele><time>2026-04-12T10:58:59.427Z</time></trkpt><trkpt lat="42.5375833" lon="12.7786933"><ele>423.4</ele><time>2026-04-12T10:59:00.44Z</time></trkpt><trkpt lat="42.53751" lon="12.7787583"><ele>421.0</ele><time>2026-04-12T10:59:01.438Z</time></trkpt><trkpt lat="42.5374467" lon="12.7788417"><ele>421.00000000000006</ele><time>2026-04-12T10:59:02.441Z</time></trkpt><trkpt lat="42.5373917" lon="12.7789333"><ele>421.0</ele><time>2026-04-12T10:59:03.439Z</time></trkpt><trkpt lat="42.5373517" lon="12.7790433"><ele>421.0</ele><time>2026-04-12T10:59:04.432Z</time></trkpt><trkpt lat="42.5373267" lon="12.77916"><ele>421.0</ele><time>2026-04-12T10:59:05.442Z</time></trkpt><trkpt lat="42.5373283" lon="12.77928"><ele>421.00000000000006</ele><time>2026-04-12T10:59:06.434Z</time></trkpt><trkpt lat="42.5373483" lon="12.7794033"><ele>421.0</ele><time>2026-04-12T10:59:07.432Z</time></trkpt><trkpt lat="42.5373933" lon="12.7795283"><ele>419.33333333333337</ele><time>2026-04-12T10:59:08.451Z</time></trkpt><trkpt lat="42.53748" lon="12.7796567"><ele>417.66666666666663</ele><time>2026-04-12T10:59:09.434Z</time></trkpt><trkpt lat="42.53759" lon="12.7797917"><ele>416.0</ele><time>2026-04-12T10:59:10.446Z</time></trkpt><trkpt lat="42.5377267" lon="12.77995"><ele>416.0</ele><time>2026-04-12T10:59:11.436Z</time></trkpt><trkpt lat="42.53786" lon="12.7801167"><ele>416.0</ele><time>2026-04-12T10:59:12.438Z</time></trkpt><trkpt lat="42.53798" lon="12.7802733"><ele>416.0</ele><time>2026-04-12T10:59:13.443Z</time></trkpt><trkpt lat="42.538075" lon="12.7804317"><ele>416.25</ele><time>2026-04-12T10:59:14.439Z</time></trkpt><trkpt lat="42.538125" lon="12.78059"><ele>416.5</ele><time>2026-04-12T10:59:15.439Z</time></trkpt><trkpt lat="42.5381267" lon="12.7807383"><ele>416.75</ele><time>2026-04-12T10:59:16.439Z</time></trkpt><trkpt lat="42.5380983" lon="12.7808783"><ele>417.0</ele><time>2026-04-12T10:59:17.432Z</time></trkpt><trkpt lat="42.538035" lon="12.7810033"><ele>421.0</ele><time>2026-04-12T10:59:18.437Z</time></trkpt><trkpt lat="42.5379533" lon="12.7811033"><ele>425.0</ele><time>2026-04-12T10:59:19.439Z</time></trkpt><trkpt lat="42.5378583" lon="12.78115"><ele>429.00000000000006</ele><time>2026-04-12T10:59:20.438Z</time></trkpt><trkpt lat="42.53776" lon="12.781165"><ele>433.0</ele><time>2026-04-12T10:59:21.451Z</time></trkpt><trkpt lat="42.537655" lon="12.7811533"><ele>437.0</ele><time>2026-04-12T10:59:22.427Z</time></trkpt><trkpt lat="42.537555" lon="12.7811267"><ele>437.0</ele><time>2026-04-12T10:59:23.423Z</time></trkpt><trkpt lat="42.5374617" lon="12.78109"><ele>437.00000000000006</ele><time>2026-04-12T10:59:24.427Z</time></trkpt><trkpt lat="42.53737" lon="12.78105"><ele>437.00000000000006</ele><time>2026-04-12T10:59:25.435Z</time></trkpt><trkpt lat="42.53728" lon="12.781"><ele>437.0</ele><time>2026-04-12T10:59:26.431Z</time></trkpt><trkpt lat="42.5371883" lon="12.78094"><ele>437.0</ele><time>2026-04-12T10:59:27.44Z</time></trkpt><trkpt lat="42.537105" lon="12.7808683"><ele>432.20000000000005</ele><time>2026-04-12T10:59:28.432Z</time></trkpt><trkpt lat="42.5370267" lon="12.78079"><ele>427.40000000000003</ele><time>2026-04-12T10:59:29.425Z</time></trkpt><trkpt lat="42.5369533" lon="12.780695"><ele>422.6</ele><time>2026-04-12T10:59:30.456Z</time></trkpt><trkpt lat="42.5368967" lon="12.7805667"><ele>417.79999999999995</ele><time>2026-04-12T10:59:31.441Z</time></trkpt><trkpt lat="42.5368617" lon="12.7804217"><ele>413.0</ele><time>2026-04-12T10:59:32.453Z</time></trkpt><trkpt lat="42.536835" lon="12.7802767"><ele>411.0</ele><time>2026-04-12T10:59:33.433Z</time></trkpt><trkpt lat="42.53681" lon="12.7801267"><ele>409.0</ele><time>2026-04-12T10:59:34.436Z</time></trkpt><trkpt lat="42.53678" lon="12.77998"><ele>407.0</ele><time>2026-04-12T10:59:35.436Z</time></trkpt><trkpt lat="42.5367483" lon="12.7798317"><ele>405.0</ele><time>2026-04-12T10:59:36.445Z</time></trkpt><trkpt lat="42.5367133" lon="12.7796817"><ele>405.0</ele><time>2026-04-12T10:59:37.435Z</time></trkpt><trkpt lat="42.536665" lon="12.77954"><ele>405.0</ele><time>2026-04-12T10:59:38.443Z</time></trkpt><trkpt lat="42.5366033" lon="12.77941"><ele>405.0</ele><time>2026-04-12T10:59:39.437Z</time></trkpt><trkpt lat="42.53653" lon="12.779295"><ele>405.0</ele><time>2026-04-12T10:59:40.435Z</time></trkpt><trkpt lat="42.536445" lon="12.7791983"><ele>404.5</ele><time>2026-04-12T10:59:41.437Z</time></trkpt><trkpt lat="42.536345" lon="12.77911"><ele>404.0</ele><time>2026-04-12T10:59:42.442Z</time></trkpt><trkpt lat="42.5362367" lon="12.77903"><ele>403.5</ele><time>2026-04-12T10:59:43.432Z</time></trkpt><trkpt lat="42.5361183" lon="12.7789483"><ele>403.0</ele><time>2026-04-12T10:59:44.443Z</time></trkpt><trkpt lat="42.536" lon="12.778865"><ele>400.5</ele><time>2026-04-12T10:59:45.436Z</time></trkpt><trkpt lat="42.535885" lon="12.7787817"><ele>398.0</ele><time>2026-04-12T10:59:46.432Z</time></trkpt><trkpt lat="42.5357717" lon="12.778695"><ele>395.5</ele><time>2026-04-12T10:59:47.435Z</time></trkpt><trkpt lat="42.535655" lon="12.7786067"><ele>393.0</ele><time>2026-04-12T10:59:48.435Z</time></trkpt><trkpt lat="42.5355383" lon="12.77852"><ele>392.5</ele><time>2026-04-12T10:59:49.434Z</time></trkpt><trkpt lat="42.535425" lon="12.7784317"><ele>392.0</ele><time>2026-04-12T10:59:50.431Z</time></trkpt><trkpt lat="42.535315" lon="12.7783483"><ele>391.5</ele><time>2026-04-12T10:59:51.428Z</time></trkpt><trkpt lat="42.5352067" lon="12.7782717"><ele>391.0</ele><time>2026-04-12T10:59:52.429Z</time></trkpt><trkpt lat="42.5351067" lon="12.778195"><ele>390.0</ele><time>2026-04-12T10:59:53.432Z</time></trkpt><trkpt lat="42.5350117" lon="12.7781167"><ele>389.0</ele><time>2026-04-12T10:59:54.428Z</time></trkpt><trkpt lat="42.5349317" lon="12.778035"><ele>388.0</ele><time>2026-04-12T10:59:55.429Z</time></trkpt><trkpt lat="42.534855" lon="12.7779633"><ele>387.0</ele><time>2026-04-12T10:59:56.429Z</time></trkpt><trkpt lat="42.534785" lon="12.7779"><ele>386.0</ele><time>2026-04-12T10:59:57.424Z</time></trkpt><trkpt lat="42.5347233" lon="12.7778667"><ele>386.0</ele><time>2026-04-12T10:59:58.428Z</time></trkpt><trkpt lat="42.534645" lon="12.7778533"><ele>386.0</ele><time>2026-04-12T11:00:00.432Z</time></trkpt><trkpt lat="42.5345583" lon="12.7779183"><ele>386.0</ele><time>2026-04-12T11:00:03.423Z</time></trkpt><trkpt lat="42.5345183" lon="12.7780083"><ele>386.0</ele><time>2026-04-12T11:00:04.432Z</time></trkpt><trkpt lat="42.5344867" lon="12.778135"><ele>386.0</ele><time>2026-04-12T11:00:05.428Z</time></trkpt><trkpt lat="42.53446" lon="12.77827"><ele>385.25</ele><time>2026-04-12T11:00:06.431Z</time></trkpt><trkpt lat="42.5344333" lon="12.7784217"><ele>384.5</ele><time>2026-04-12T11:00:07.425Z</time></trkpt><trkpt lat="42.534395" lon="12.7786033"><ele>383.75</ele><time>2026-04-12T11:00:08.425Z</time></trkpt><trkpt lat="42.5343483" lon="12.778795"><ele>383.0</ele><time>2026-04-12T11:00:09.43Z</time></trkpt><trkpt lat="42.5342983" lon="12.77901"><ele>383.0</ele><time>2026-04-12T11:00:10.439Z</time></trkpt><trkpt lat="42.534245" lon="12.779235"><ele>383.0</ele><time>2026-04-12T11:00:11.434Z</time></trkpt><trkpt lat="42.534185" lon="12.77948"><ele>383.0</ele><time>2026-04-12T11:00:12.441Z</time></trkpt><trkpt lat="42.5341133" lon="12.7797433"><ele>384.0</ele><time>2026-04-12T11:00:13.439Z</time></trkpt><trkpt lat="42.5340283" lon="12.7800067"><ele>385.0</ele><time>2026-04-12T11:00:14.441Z</time></trkpt><trkpt lat="42.5339367" lon="12.7802783"><ele>386.0</ele><time>2026-04-12T11:00:15.442Z</time></trkpt><trkpt lat="42.53384" lon="12.7805567"><ele>385.66666666666663</ele><time>2026-04-12T11:00:16.438Z</time></trkpt><trkpt lat="42.5337517" lon="12.780825"><ele>385.33333333333337</ele><time>2026-04-12T11:00:17.439Z</time></trkpt><trkpt lat="42.533675" lon="12.7810833"><ele>385.0</ele><time>2026-04-12T11:00:18.442Z</time></trkpt><trkpt lat="42.5336083" lon="12.7813283"><ele>385.0</ele><time>2026-04-12T11:00:19.433Z</time></trkpt><trkpt lat="42.53354" lon="12.7815633"><ele>385.0</ele><time>2026-04-12T11:00:20.427Z</time></trkpt><trkpt lat="42.5334733" lon="12.78179"><ele>385.0</ele><time>2026-04-12T11:00:21.425Z</time></trkpt><trkpt lat="42.5333733" lon="12.7819617"><ele>385.33333333333337</ele><time>2026-04-12T11:00:22.425Z</time></trkpt><trkpt lat="42.5332467" lon="12.782065"><ele>385.66666666666663</ele><time>2026-04-12T11:00:23.428Z</time></trkpt><trkpt lat="42.5330983" lon="12.7821317"><ele>386.0</ele><time>2026-04-12T11:00:24.431Z</time></trkpt><trkpt lat="42.53293" lon="12.78215"><ele>385.3333333333333</ele><time>2026-04-12T11:00:25.451Z</time></trkpt><trkpt lat="42.5327467" lon="12.78216"><ele>384.66666666666663</ele><time>2026-04-12T11:00:26.427Z</time></trkpt><trkpt lat="42.53255" lon="12.782175"><ele>384.0</ele><time>2026-04-12T11:00:27.449Z</time></trkpt><trkpt lat="42.5323533" lon="12.78219"><ele>384.0</ele><time>2026-04-12T11:00:28.427Z</time></trkpt><trkpt lat="42.5321733" lon="12.782205"><ele>384.0</ele><time>2026-04-12T11:00:29.429Z</time></trkpt><trkpt lat="42.5320117" lon="12.7822167"><ele>384.0</ele><time>2026-04-12T11:00:30.425Z</time></trkpt><trkpt lat="42.53186" lon="12.78222"><ele>385.25</ele><time>2026-04-12T11:00:31.433Z</time></trkpt><trkpt lat="42.5317283" lon="12.7821983"><ele>386.5</ele><time>2026-04-12T11:00:32.448Z</time></trkpt><trkpt lat="42.53162" lon="12.782135"><ele>387.75</ele><time>2026-04-12T11:00:33.435Z</time></trkpt><trkpt lat="42.5315283" lon="12.7820367"><ele>389.0</ele><time>2026-04-12T11:00:34.431Z</time></trkpt><trkpt lat="42.5314483" lon="12.7819133"><ele>388.25</ele><time>2026-04-12T11:00:35.437Z</time></trkpt><trkpt lat="42.531385" lon="12.7817683"><ele>387.5</ele><time>2026-04-12T11:00:36.441Z</time></trkpt><trkpt lat="42.531335" lon="12.7816067"><ele>386.75</ele><time>2026-04-12T11:00:37.435Z</time></trkpt><trkpt lat="42.5312933" lon="12.7814367"><ele>386.0</ele><time>2026-04-12T11:00:38.443Z</time></trkpt><trkpt lat="42.53126" lon="12.7812933"><ele>385.99999999999994</ele><time>2026-04-12T11:00:39.434Z</time></trkpt><trkpt lat="42.531235" lon="12.7811883"><ele>386.0</ele><time>2026-04-12T11:00:40.433Z</time></trkpt><trkpt lat="42.5312133" lon="12.7810583"><ele>386.0</ele><time>2026-04-12T11:00:42.437Z</time></trkpt><trkpt lat="42.5312117" lon="12.7811917"><ele>386.0</ele><time>2026-04-12T11:00:50.445Z</time></trkpt><trkpt lat="42.531235" lon="12.7812817"><ele>385.99999999999994</ele><time>2026-04-12T11:00:51.432Z</time></trkpt><trkpt lat="42.5312683" lon="12.781395"><ele>386.0</ele><time>2026-04-12T11:00:52.429Z</time></trkpt><trkpt lat="42.5313033" lon="12.7815233"><ele>386.0</ele><time>2026-04-12T11:00:53.431Z</time></trkpt><trkpt lat="42.531335" lon="12.78165"><ele>386.0</ele><time>2026-04-12T11:00:54.437Z</time></trkpt><trkpt lat="42.531375" lon="12.7817733"><ele>386.0</ele><time>2026-04-12T11:00:55.431Z</time></trkpt><trkpt lat="42.5314133" lon="12.7818833"><ele>386.0</ele><time>2026-04-12T11:00:56.43Z</time></trkpt><trkpt lat="42.5314617" lon="12.7819867"><ele>386.0</ele><time>2026-04-12T11:00:57.429Z</time></trkpt><trkpt lat="42.5315217" lon="12.7820767"><ele>386.49999999999994</ele><time>2026-04-12T11:00:58.437Z</time></trkpt><trkpt lat="42.5315867" lon="12.7821467"><ele>387.0</ele><time>2026-04-12T11:00:59.434Z</time></trkpt><trkpt lat="42.5316517" lon="12.7821983"><ele>387.5</ele><time>2026-04-12T11:01:00.429Z</time></trkpt><trkpt lat="42.5317417" lon="12.7822617"><ele>388.0</ele><time>2026-04-12T11:01:02.429Z</time></trkpt><trkpt lat="42.5317583" lon="12.782345"><ele>388.49999999999994</ele><time>2026-04-12T11:01:06.443Z</time></trkpt><trkpt lat="42.53166" lon="12.782395"><ele>389.0</ele><time>2026-04-12T11:01:09.443Z</time></trkpt><trkpt lat="42.53157" lon="12.7824383"><ele>389.0</ele><time>2026-04-12T11:01:11.428Z</time></trkpt><trkpt lat="42.5314633" lon="12.7824917"><ele>389.0</ele><time>2026-04-12T11:01:13.435Z</time></trkpt><trkpt lat="42.5313533" lon="12.7825483"><ele>389.0</ele><time>2026-04-12T11:01:15.425Z</time></trkpt><trkpt lat="42.531275" lon="12.7826017"><ele>389.0</ele><time>2026-04-12T11:01:17.441Z</time></trkpt><trkpt lat="42.5312017" lon="12.7826067"><ele>389.0</ele><time>2026-04-12T11:01:19.444Z</time></trkpt><trkpt lat="42.53121" lon="12.7825117"><ele>389.0</ele><time>2026-04-12T11:01:22.436Z</time></trkpt><trkpt lat="42.5312817" lon="12.782435"><ele>389.0</ele><time>2026-04-12T11:01:24.44Z</time></trkpt><trkpt lat="42.531315" lon="12.78231"><ele>389.0</ele><time>2026-04-12T11:01:26.437Z</time></trkpt><trkpt lat="42.5312617" lon="12.7822283"><ele>389.0</ele><time>2026-04-12T11:01:28.436Z</time></trkpt><trkpt lat="42.5311283" lon="12.78224"><ele>389.0</ele><time>2026-04-12T11:01:30.436Z</time></trkpt><trkpt lat="42.53106" lon="12.782275"><ele>392.8333333333333</ele><time>2026-04-12T11:01:31.439Z</time></trkpt><trkpt lat="42.5309883" lon="12.78231"><ele>396.66666666666663</ele><time>2026-04-12T11:01:32.43Z</time></trkpt><trkpt lat="42.530915" lon="12.7823483"><ele>400.5</ele><time>2026-04-12T11:01:33.44Z</time></trkpt><trkpt lat="42.5308383" lon="12.7823833"><ele>404.33333333333337</ele><time>2026-04-12T11:01:34.429Z</time></trkpt><trkpt lat="42.5307533" lon="12.78241"><ele>408.1666666666667</ele><time>2026-04-12T11:01:35.441Z</time></trkpt><trkpt lat="42.5306633" lon="12.78242"><ele>412.0</ele><time>2026-04-12T11:01:36.436Z</time></trkpt><trkpt lat="42.5305733" lon="12.7823817"><ele>412.0</ele><time>2026-04-12T11:01:37.432Z</time></trkpt><trkpt lat="42.5304717" lon="12.7823133"><ele>412.0</ele><time>2026-04-12T11:01:38.441Z</time></trkpt><trkpt lat="42.5303617" lon="12.782235"><ele>412.0</ele><time>2026-04-12T11:01:39.443Z</time></trkpt><trkpt lat="42.5302483" lon="12.782165"><ele>412.0</ele><time>2026-04-12T11:01:40.433Z</time></trkpt><trkpt lat="42.5301317" lon="12.78211"><ele>416.20000000000005</ele><time>2026-04-12T11:01:41.43Z</time></trkpt><trkpt lat="42.5300183" lon="12.7820717"><ele>420.4</ele><time>2026-04-12T11:01:42.429Z</time></trkpt><trkpt lat="42.5299117" lon="12.782055"><ele>424.59999999999997</ele><time>2026-04-12T11:01:43.433Z</time></trkpt><trkpt lat="42.52981" lon="12.782055"><ele>428.79999999999995</ele><time>2026-04-12T11:01:44.44Z</time></trkpt><trkpt lat="42.5297183" lon="12.78208"><ele>433.0</ele><time>2026-04-12T11:01:45.446Z</time></trkpt><trkpt lat="42.5296383" lon="12.782135"><ele>433.00000000000006</ele><time>2026-04-12T11:01:46.433Z</time></trkpt><trkpt lat="42.5295683" lon="12.78221"><ele>433.0</ele><time>2026-04-12T11:01:47.432Z</time></trkpt><trkpt lat="42.52952" lon="12.7823033"><ele>433.0</ele><time>2026-04-12T11:01:48.442Z</time></trkpt><trkpt lat="42.52947" lon="12.7823917"><ele>433.0</ele><time>2026-04-12T11:01:49.434Z</time></trkpt><trkpt lat="42.5294183" lon="12.7824633"><ele>433.00000000000006</ele><time>2026-04-12T11:01:50.435Z</time></trkpt><trkpt lat="42.52936" lon="12.7825083"><ele>433.0</ele><time>2026-04-12T11:01:51.437Z</time></trkpt><trkpt lat="42.5292883" lon="12.7825233"><ele>435.79999999999995</ele><time>2026-04-12T11:01:52.433Z</time></trkpt><trkpt lat="42.5292133" lon="12.7825217"><ele>438.59999999999997</ele><time>2026-04-12T11:01:53.444Z</time></trkpt><trkpt lat="42.5291333" lon="12.7825"><ele>441.40000000000003</ele><time>2026-04-12T11:01:54.435Z</time></trkpt><trkpt lat="42.5290317" lon="12.7824717"><ele>444.20000000000005</ele><time>2026-04-12T11:01:55.433Z</time></trkpt><trkpt lat="42.52891" lon="12.7824383"><ele>447.0</ele><time>2026-04-12T11:01:56.425Z</time></trkpt><trkpt lat="42.5288033" lon="12.7824067"><ele>448.8</ele><time>2026-04-12T11:01:57.432Z</time></trkpt><trkpt lat="42.52872" lon="12.7823833"><ele>450.6</ele><time>2026-04-12T11:01:58.426Z</time></trkpt><trkpt lat="42.5286467" lon="12.7823733"><ele>452.40000000000003</ele><time>2026-04-12T11:01:59.427Z</time></trkpt><trkpt lat="42.52854" lon="12.7823783"><ele>454.20000000000005</ele><time>2026-04-12T11:02:01.436Z</time></trkpt><trkpt lat="42.528435" lon="12.7824233"><ele>456.0</ele><time>2026-04-12T11:02:03.423Z</time></trkpt><trkpt lat="42.5283517" lon="12.7824517"><ele>456.0</ele><time>2026-04-12T11:02:04.437Z</time></trkpt><trkpt lat="42.5282467" lon="12.7824767"><ele>456.0</ele><time>2026-04-12T11:02:05.435Z</time></trkpt><trkpt lat="42.5281133" lon="12.7824983"><ele>456.0</ele><time>2026-04-12T11:02:06.435Z</time></trkpt><trkpt lat="42.52797" lon="12.7825183"><ele>456.0</ele><time>2026-04-12T11:02:07.431Z</time></trkpt><trkpt lat="42.5278067" lon="12.782555"><ele>458.66666666666663</ele><time>2026-04-12T11:02:08.433Z</time></trkpt><trkpt lat="42.5276333" lon="12.78261"><ele>461.3333333333333</ele><time>2026-04-12T11:02:09.441Z</time></trkpt><trkpt lat="42.5274483" lon="12.7826833"><ele>464.0</ele><time>2026-04-12T11:02:10.433Z</time></trkpt><trkpt lat="42.5272567" lon="12.78278"><ele>464.0</ele><time>2026-04-12T11:02:11.433Z</time></trkpt><trkpt lat="42.5270733" lon="12.7828967"><ele>464.0</ele><time>2026-04-12T11:02:12.44Z</time></trkpt><trkpt lat="42.52691" lon="12.7830133"><ele>464.0</ele><time>2026-04-12T11:02:13.436Z</time></trkpt><trkpt lat="42.5267633" lon="12.7831333"><ele>470.0</ele><time>2026-04-12T11:02:14.433Z</time></trkpt><trkpt lat="42.52664" lon="12.78327"><ele>476.0</ele><time>2026-04-12T11:02:15.432Z</time></trkpt><trkpt lat="42.5265417" lon="12.7834367"><ele>482.0</ele><time>2026-04-12T11:02:16.439Z</time></trkpt><trkpt lat="42.526475" lon="12.7836133"><ele>482.5</ele><time>2026-04-12T11:02:17.437Z</time></trkpt><trkpt lat="42.526435" lon="12.7837983"><ele>483.0</ele><time>2026-04-12T11:02:18.434Z</time></trkpt><trkpt lat="42.5264333" lon="12.7839633"><ele>483.5</ele><time>2026-04-12T11:02:19.428Z</time></trkpt><trkpt lat="42.526475" lon="12.7840967"><ele>484.0</ele><time>2026-04-12T11:02:20.435Z</time></trkpt><trkpt lat="42.5265567" lon="12.784195"><ele>484.0</ele><time>2026-04-12T11:02:21.437Z</time></trkpt><trkpt lat="42.5266767" lon="12.7842533"><ele>484.0</ele><time>2026-04-12T11:02:22.441Z</time></trkpt><trkpt lat="42.526845" lon="12.7842883"><ele>484.0</ele><time>2026-04-12T11:02:23.445Z</time></trkpt><trkpt lat="42.5270183" lon="12.784335"><ele>487.0</ele><time>2026-04-12T11:02:24.44Z</time></trkpt><trkpt lat="42.5272067" lon="12.7843917"><ele>490.0</ele><time>2026-04-12T11:02:25.434Z</time></trkpt><trkpt lat="42.5274017" lon="12.7844533"><ele>493.0</ele><time>2026-04-12T11:02:26.426Z</time></trkpt><trkpt lat="42.5275933" lon="12.78452"><ele>493.0</ele><time>2026-04-12T11:02:27.427Z</time></trkpt><trkpt lat="42.52778" lon="12.7845917"><ele>493.0</ele><time>2026-04-12T11:02:28.438Z</time></trkpt><trkpt lat="42.5279517" lon="12.784655"><ele>493.0</ele><time>2026-04-12T11:02:29.437Z</time></trkpt><trkpt lat="42.5280883" lon="12.7847367"><ele>490.59999999999997</ele><time>2026-04-12T11:02:30.429Z</time></trkpt><trkpt lat="42.5281767" lon="12.7848467"><ele>488.19999999999993</ele><time>2026-04-12T11:02:31.444Z</time></trkpt><trkpt lat="42.52821" lon="12.7849683"><ele>485.8</ele><time>2026-04-12T11:02:32.43Z</time></trkpt><trkpt lat="42.5281867" lon="12.7850933"><ele>483.4</ele><time>2026-04-12T11:02:33.434Z</time></trkpt><trkpt lat="42.5281333" lon="12.7852433"><ele>481.0</ele><time>2026-04-12T11:02:34.432Z</time></trkpt><trkpt lat="42.528085" lon="12.7854217"><ele>480.6666666666667</ele><time>2026-04-12T11:02:35.436Z</time></trkpt><trkpt lat="42.52807" lon="12.785635"><ele>480.33333333333337</ele><time>2026-04-12T11:02:36.435Z</time></trkpt><trkpt lat="42.5280817" lon="12.78586"><ele>480.0</ele><time>2026-04-12T11:02:37.432Z</time></trkpt><trkpt lat="42.5280733" lon="12.7860817"><ele>478.33333333333337</ele><time>2026-04-12T11:02:38.432Z</time></trkpt><trkpt lat="42.528035" lon="12.7863033"><ele>476.6666666666667</ele><time>2026-04-12T11:02:39.424Z</time></trkpt><trkpt lat="42.5279917" lon="12.7865333"><ele>475.0</ele><time>2026-04-12T11:02:40.437Z</time></trkpt><trkpt lat="42.52794" lon="12.7867783"><ele>485.6666666666667</ele><time>2026-04-12T11:02:41.433Z</time></trkpt><trkpt lat="42.5278917" lon="12.787015"><ele>496.33333333333337</ele><time>2026-04-12T11:02:42.433Z</time></trkpt><trkpt lat="42.52783" lon="12.7872283"><ele>507.0</ele><time>2026-04-12T11:02:43.432Z</time></trkpt><trkpt lat="42.5277633" lon="12.787405"><ele>507.0</ele><time>2026-04-12T11:02:44.438Z</time></trkpt><trkpt lat="42.527705" lon="12.7875283"><ele>507.00000000000006</ele><time>2026-04-12T11:02:45.436Z</time></trkpt><trkpt lat="42.5276167" lon="12.78759"><ele>507.00000000000006</ele><time>2026-04-12T11:02:46.437Z</time></trkpt><trkpt lat="42.5275083" lon="12.7876333"><ele>507.0</ele><time>2026-04-12T11:02:47.434Z</time></trkpt><trkpt lat="42.5274067" lon="12.787725"><ele>507.0</ele><time>2026-04-12T11:02:48.443Z</time></trkpt><trkpt lat="42.5273267" lon="12.7878583"><ele>504.0</ele><time>2026-04-12T11:02:49.437Z</time></trkpt><trkpt lat="42.5272733" lon="12.7880333"><ele>501.0</ele><time>2026-04-12T11:02:50.442Z</time></trkpt><trkpt lat="42.5272733" lon="12.7882533"><ele>498.0</ele><time>2026-04-12T11:02:51.431Z</time></trkpt><trkpt lat="42.52729" lon="12.788465"><ele>495.0</ele><time>2026-04-12T11:02:52.431Z</time></trkpt><trkpt lat="42.52728" lon="12.78866"><ele>492.0</ele><time>2026-04-12T11:02:53.436Z</time></trkpt><trkpt lat="42.5272333" lon="12.7888617"><ele>489.0</ele><time>2026-04-12T11:02:54.443Z</time></trkpt><trkpt lat="42.5271483" lon="12.7890517"><ele>495.0</ele><time>2026-04-12T11:02:55.425Z</time></trkpt><trkpt lat="42.527025" lon="12.78923"><ele>501.0</ele><time>2026-04-12T11:02:56.437Z</time></trkpt><trkpt lat="42.5268683" lon="12.7894083"><ele>507.0</ele><time>2026-04-12T11:02:57.433Z</time></trkpt><trkpt lat="42.5267133" lon="12.789575"><ele>507.0</ele><time>2026-04-12T11:02:58.445Z</time></trkpt><trkpt lat="42.52657" lon="12.7897367"><ele>507.0</ele><time>2026-04-12T11:02:59.433Z</time></trkpt><trkpt lat="42.52645" lon="12.7899167"><ele>507.0</ele><time>2026-04-12T11:03:00.428Z</time></trkpt><trkpt lat="42.5263567" lon="12.7901267"><ele>501.0</ele><time>2026-04-12T11:03:01.437Z</time></trkpt><trkpt lat="42.5262667" lon="12.7903683"><ele>495.0</ele><time>2026-04-12T11:03:02.433Z</time></trkpt><trkpt lat="42.5261683" lon="12.79062"><ele>489.0</ele><time>2026-04-12T11:03:03.438Z</time></trkpt><trkpt lat="42.5260583" lon="12.790875"><ele>503.5</ele><time>2026-04-12T11:03:04.436Z</time></trkpt><trkpt lat="42.5259483" lon="12.7911417"><ele>518.0</ele><time>2026-04-12T11:03:05.438Z</time></trkpt><trkpt lat="42.5258267" lon="12.7914"><ele>518.0</ele><time>2026-04-12T11:03:06.434Z</time></trkpt><trkpt lat="42.525695" lon="12.7916517"><ele>518.0</ele><time>2026-04-12T11:03:07.442Z</time></trkpt><trkpt lat="42.5255533" lon="12.7919033"><ele>509.5</ele><time>2026-04-12T11:03:08.435Z</time></trkpt><trkpt lat="42.5254067" lon="12.79216"><ele>501.0</ele><time>2026-04-12T11:03:09.435Z</time></trkpt><trkpt lat="42.5252617" lon="12.7924133"><ele>507.66666666666663</ele><time>2026-04-12T11:03:10.441Z</time></trkpt><trkpt lat="42.5251233" lon="12.792655"><ele>514.3333333333333</ele><time>2026-04-12T11:03:11.435Z</time></trkpt><trkpt lat="42.524995" lon="12.792885"><ele>521.0</ele><time>2026-04-12T11:03:12.429Z</time></trkpt><trkpt lat="42.5248733" lon="12.7931067"><ele>521.0</ele><time>2026-04-12T11:03:13.429Z</time></trkpt><trkpt lat="42.5247467" lon="12.7933283"><ele>521.0</ele><time>2026-04-12T11:03:14.431Z</time></trkpt><trkpt lat="42.5246367" lon="12.79355"><ele>521.0</ele><time>2026-04-12T11:03:15.434Z</time></trkpt><trkpt lat="42.52453" lon="12.7937483"><ele>527.0</ele><time>2026-04-12T11:03:16.436Z</time></trkpt><trkpt lat="42.524435" lon="12.7939167"><ele>533.0</ele><time>2026-04-12T11:03:17.435Z</time></trkpt><trkpt lat="42.5243533" lon="12.794075"><ele>539.0</ele><time>2026-04-12T11:03:18.445Z</time></trkpt><trkpt lat="42.5243017" lon="12.7942283"><ele>545.0</ele><time>2026-04-12T11:03:19.434Z</time></trkpt><trkpt lat="42.5242967" lon="12.7943817"><ele>545.0</ele><time>2026-04-12T11:03:20.433Z</time></trkpt><trkpt lat="42.5243283" lon="12.79455"><ele>545.0</ele><time>2026-04-12T11:03:21.44Z</time></trkpt><trkpt lat="42.524395" lon="12.7947233"><ele>545.0</ele><time>2026-04-12T11:03:22.434Z</time></trkpt><trkpt lat="42.5244717" lon="12.794925"><ele>545.0</ele><time>2026-04-12T11:03:23.441Z</time></trkpt><trkpt lat="42.5245433" lon="12.7951383"><ele>538.25</ele><time>2026-04-12T11:03:24.439Z</time></trkpt><trkpt lat="42.5246017" lon="12.7953317"><ele>531.5</ele><time>2026-04-12T11:03:25.427Z</time></trkpt><trkpt lat="42.524635" lon="12.7955067"><ele>524.75</ele><time>2026-04-12T11:03:26.432Z</time></trkpt><trkpt lat="42.52463" lon="12.795665"><ele>518.0</ele><time>2026-04-12T11:03:27.438Z</time></trkpt><trkpt lat="42.524575" lon="12.7958017"><ele>522.6666666666666</ele><time>2026-04-12T11:03:28.433Z</time></trkpt><trkpt lat="42.5244783" lon="12.79594"><ele>527.3333333333334</ele><time>2026-04-12T11:03:29.434Z</time></trkpt><trkpt lat="42.5243517" lon="12.796075"><ele>532.0</ele><time>2026-04-12T11:03:30.447Z</time></trkpt><trkpt lat="42.5242017" lon="12.7962117"><ele>532.0</ele><time>2026-04-12T11:03:31.431Z</time></trkpt><trkpt lat="42.5240583" lon="12.7963583"><ele>532.0</ele><time>2026-04-12T11:03:32.44Z</time></trkpt><trkpt lat="42.5239117" lon="12.7964833"><ele>532.0</ele><time>2026-04-12T11:03:33.43Z</time></trkpt><trkpt lat="42.5237867" lon="12.7965967"><ele>536.75</ele><time>2026-04-12T11:03:34.431Z</time></trkpt><trkpt lat="42.5236667" lon="12.796695"><ele>541.5</ele><time>2026-04-12T11:03:35.438Z</time></trkpt><trkpt lat="42.52353" lon="12.7967583"><ele>546.25</ele><time>2026-04-12T11:03:36.437Z</time></trkpt><trkpt lat="42.5233783" lon="12.796745"><ele>551.0</ele><time>2026-04-12T11:03:37.448Z</time></trkpt><trkpt lat="42.5232233" lon="12.79667"><ele>551.0</ele><time>2026-04-12T11:03:38.439Z</time></trkpt><trkpt lat="42.5230733" lon="12.7966117"><ele>551.0</ele><time>2026-04-12T11:03:39.43Z</time></trkpt><trkpt lat="42.5229367" lon="12.796615"><ele>551.0</ele><time>2026-04-12T11:03:40.43Z</time></trkpt><trkpt lat="42.5227867" lon="12.7966817"><ele>550.3333333333333</ele><time>2026-04-12T11:03:41.428Z</time></trkpt><trkpt lat="42.5226633" lon="12.796825"><ele>549.6666666666666</ele><time>2026-04-12T11:03:42.44Z</time></trkpt><trkpt lat="42.5225317" lon="12.797005"><ele>549.0</ele><time>2026-04-12T11:03:43.437Z</time></trkpt><trkpt lat="42.5223917" lon="12.7971817"><ele>549.0</ele><time>2026-04-12T11:03:44.438Z</time></trkpt><trkpt lat="42.5222633" lon="12.7973467"><ele>549.0</ele><time>2026-04-12T11:03:45.432Z</time></trkpt><trkpt lat="42.52218" lon="12.7975117"><ele>549.0</ele><time>2026-04-12T11:03:46.434Z</time></trkpt><trkpt lat="42.52214" lon="12.7976967"><ele>549.0</ele><time>2026-04-12T11:03:47.437Z</time></trkpt><trkpt lat="42.5221417" lon="12.797915"><ele>549.0</ele><time>2026-04-12T11:03:48.434Z</time></trkpt><trkpt lat="42.5221583" lon="12.7981667"><ele>549.0</ele><time>2026-04-12T11:03:49.447Z</time></trkpt><trkpt lat="42.5221517" lon="12.7984383"><ele>548.6666666666666</ele><time>2026-04-12T11:03:50.448Z</time></trkpt><trkpt lat="42.5221133" lon="12.7987083"><ele>548.3333333333333</ele><time>2026-04-12T11:03:51.436Z</time></trkpt><trkpt lat="42.5220683" lon="12.7989667"><ele>548.0</ele><time>2026-04-12T11:03:52.445Z</time></trkpt><trkpt lat="42.5220233" lon="12.7992083"><ele>558.0</ele><time>2026-04-12T11:03:53.435Z</time></trkpt><trkpt lat="42.5219733" lon="12.7994333"><ele>568.0</ele><time>2026-04-12T11:03:54.435Z</time></trkpt><trkpt lat="42.5219433" lon="12.7996433"><ele>578.0</ele><time>2026-04-12T11:03:55.439Z</time></trkpt><trkpt lat="42.5219367" lon="12.799855"><ele>578.0</ele><time>2026-04-12T11:03:56.434Z</time></trkpt><trkpt lat="42.521975" lon="12.800085"><ele>578.0</ele><time>2026-04-12T11:03:57.443Z</time></trkpt><trkpt lat="42.5220533" lon="12.8003217"><ele>578.0</ele><time>2026-04-12T11:03:58.433Z</time></trkpt><trkpt lat="42.52217" lon="12.8005583"><ele>578.3333333333333</ele><time>2026-04-12T11:03:59.438Z</time></trkpt><trkpt lat="42.5223017" lon="12.8007917"><ele>578.6666666666666</ele><time>2026-04-12T11:04:00.433Z</time></trkpt><trkpt lat="42.5224367" lon="12.8010167"><ele>579.0</ele><time>2026-04-12T11:04:01.432Z</time></trkpt><trkpt lat="42.5225583" lon="12.801225"><ele>579.0</ele><time>2026-04-12T11:04:02.437Z</time></trkpt><trkpt lat="42.5226667" lon="12.801425"><ele>579.0</ele><time>2026-04-12T11:04:03.438Z</time></trkpt><trkpt lat="42.52276" lon="12.8016417"><ele>579.0</ele><time>2026-04-12T11:04:04.432Z</time></trkpt><trkpt lat="42.5228367" lon="12.8018883"><ele>575.6666666666666</ele><time>2026-04-12T11:04:05.434Z</time></trkpt><trkpt lat="42.5228967" lon="12.802155"><ele>572.3333333333333</ele><time>2026-04-12T11:04:06.441Z</time></trkpt><trkpt lat="42.5229517" lon="12.802435"><ele>569.0</ele><time>2026-04-12T11:04:07.444Z</time></trkpt><trkpt lat="42.5229883" lon="12.8027317"><ele>569.0</ele><time>2026-04-12T11:04:08.447Z</time></trkpt><trkpt lat="42.5230067" lon="12.80303"><ele>569.0</ele><time>2026-04-12T11:04:09.479Z</time></trkpt><trkpt lat="42.5230383" lon="12.803305"><ele>569.0</ele><time>2026-04-12T11:04:10.429Z</time></trkpt><trkpt lat="42.5230883" lon="12.8035667"><ele>572.0</ele><time>2026-04-12T11:04:11.433Z</time></trkpt><trkpt lat="42.5231883" lon="12.803815"><ele>575.0</ele><time>2026-04-12T11:04:12.431Z</time></trkpt><trkpt lat="42.523275" lon="12.8040617"><ele>578.0</ele><time>2026-04-12T11:04:13.451Z</time></trkpt><trkpt lat="42.5233633" lon="12.804295"><ele>580.6666666666666</ele><time>2026-04-12T11:04:14.437Z</time></trkpt><trkpt lat="42.523445" lon="12.8045083"><ele>583.3333333333334</ele><time>2026-04-12T11:04:15.433Z</time></trkpt><trkpt lat="42.5235267" lon="12.8046983"><ele>586.0</ele><time>2026-04-12T11:04:16.436Z</time></trkpt><trkpt lat="42.5236233" lon="12.8048483"><ele>586.0</ele><time>2026-04-12T11:04:17.433Z</time></trkpt><trkpt lat="42.5237167" lon="12.8049583"><ele>586.0</ele><time>2026-04-12T11:04:18.433Z</time></trkpt><trkpt lat="42.5237833" lon="12.8050667"><ele>586.0</ele><time>2026-04-12T11:04:19.436Z</time></trkpt><trkpt lat="42.5238067" lon="12.8051783"><ele>586.0</ele><time>2026-04-12T11:04:20.436Z</time></trkpt><trkpt lat="42.5238067" lon="12.805285"><ele>586.0</ele><time>2026-04-12T11:04:21.439Z</time></trkpt><trkpt lat="42.5237767" lon="12.8054"><ele>586.3333333333334</ele><time>2026-04-12T11:04:22.446Z</time></trkpt><trkpt lat="42.5236933" lon="12.8055183"><ele>586.6666666666666</ele><time>2026-04-12T11:04:23.445Z</time></trkpt><trkpt lat="42.52356" lon="12.8056767"><ele>587.0</ele><time>2026-04-12T11:04:24.442Z</time></trkpt><trkpt lat="42.523415" lon="12.8058333"><ele>584.6666666666666</ele><time>2026-04-12T11:04:25.441Z</time></trkpt><trkpt lat="42.5232483" lon="12.8060117"><ele>582.3333333333334</ele><time>2026-04-12T11:04:26.456Z</time></trkpt><trkpt lat="42.5230933" lon="12.8062033"><ele>580.0</ele><time>2026-04-12T11:04:27.445Z</time></trkpt><trkpt lat="42.5229317" lon="12.8064033"><ele>580.6666666666667</ele><time>2026-04-12T11:04:28.432Z</time></trkpt><trkpt lat="42.5227683" lon="12.8065967"><ele>581.3333333333334</ele><time>2026-04-12T11:04:29.435Z</time></trkpt><trkpt lat="42.5226017" lon="12.8067733"><ele>582.0</ele><time>2026-04-12T11:04:30.435Z</time></trkpt><trkpt lat="42.5224283" lon="12.806915"><ele>582.0</ele><time>2026-04-12T11:04:31.437Z</time></trkpt><trkpt lat="42.522255" lon="12.8070467"><ele>582.0</ele><time>2026-04-12T11:04:32.431Z</time></trkpt><trkpt lat="42.5220883" lon="12.8071683"><ele>582.0</ele><time>2026-04-12T11:04:33.435Z</time></trkpt><trkpt lat="42.5219383" lon="12.8072883"><ele>589.6666666666666</ele><time>2026-04-12T11:04:34.432Z</time></trkpt><trkpt lat="42.5218083" lon="12.8074333"><ele>597.3333333333333</ele><time>2026-04-12T11:04:35.436Z</time></trkpt><trkpt lat="42.5217067" lon="12.80761"><ele>605.0</ele><time>2026-04-12T11:04:36.434Z</time></trkpt><trkpt lat="42.5216467" lon="12.807795"><ele>605.25</ele><time>2026-04-12T11:04:37.439Z</time></trkpt><trkpt lat="42.5216283" lon="12.80797"><ele>605.5</ele><time>2026-04-12T11:04:38.438Z</time></trkpt><trkpt lat="42.52165" lon="12.8081333"><ele>605.75</ele><time>2026-04-12T11:04:39.436Z</time></trkpt><trkpt lat="42.52173" lon="12.8082733"><ele>606.0</ele><time>2026-04-12T11:04:40.427Z</time></trkpt><trkpt lat="42.5218417" lon="12.8084"><ele>608.5</ele><time>2026-04-12T11:04:41.436Z</time></trkpt><trkpt lat="42.5219667" lon="12.8085233"><ele>611.0</ele><time>2026-04-12T11:04:42.44Z</time></trkpt><trkpt lat="42.5220583" lon="12.8086667"><ele>613.5</ele><time>2026-04-12T11:04:43.428Z</time></trkpt><trkpt lat="42.5221117" lon="12.8088183"><ele>616.0</ele><time>2026-04-12T11:04:44.433Z</time></trkpt><trkpt lat="42.5221183" lon="12.8089783"><ele>613.25</ele><time>2026-04-12T11:04:45.435Z</time></trkpt><trkpt lat="42.5221033" lon="12.8091583"><ele>610.5</ele><time>2026-04-12T11:04:46.427Z</time></trkpt><trkpt lat="42.522085" lon="12.809345"><ele>607.75</ele><time>2026-04-12T11:04:47.447Z</time></trkpt><trkpt lat="42.522055" lon="12.8095233"><ele>605.0</ele><time>2026-04-12T11:04:48.43Z</time></trkpt><trkpt lat="42.522015" lon="12.809675"><ele>605.0</ele><time>2026-04-12T11:04:49.432Z</time></trkpt><trkpt lat="42.52194" lon="12.8097883"><ele>605.0</ele><time>2026-04-12T11:04:50.433Z</time></trkpt><trkpt lat="42.5218383" lon="12.8098417"><ele>605.0</ele><time>2026-04-12T11:04:51.434Z</time></trkpt><trkpt lat="42.52172" lon="12.8098733"><ele>605.0</ele><time>2026-04-12T11:04:52.435Z</time></trkpt><trkpt lat="42.52155" lon="12.8098767"><ele>605.0</ele><time>2026-04-12T11:04:53.439Z</time></trkpt><trkpt lat="42.52137" lon="12.8098783"><ele>605.0</ele><time>2026-04-12T11:04:54.436Z</time></trkpt><trkpt lat="42.52119" lon="12.809875"><ele>605.0</ele><time>2026-04-12T11:04:55.44Z</time></trkpt><trkpt lat="42.5210133" lon="12.8098533"><ele>607.75</ele><time>2026-04-12T11:04:56.434Z</time></trkpt><trkpt lat="42.52086" lon="12.8098317"><ele>610.5</ele><time>2026-04-12T11:04:57.433Z</time></trkpt><trkpt lat="42.520725" lon="12.8098167"><ele>613.25</ele><time>2026-04-12T11:04:58.426Z</time></trkpt><trkpt lat="42.52061" lon="12.8098433"><ele>616.0</ele><time>2026-04-12T11:04:59.439Z</time></trkpt><trkpt lat="42.5205183" lon="12.8099117"><ele>616.0</ele><time>2026-04-12T11:05:00.439Z</time></trkpt><trkpt lat="42.52045" lon="12.8100217"><ele>616.0</ele><time>2026-04-12T11:05:01.439Z</time></trkpt><trkpt lat="42.5204067" lon="12.8101617"><ele>616.0</ele><time>2026-04-12T11:05:02.436Z</time></trkpt><trkpt lat="42.52041" lon="12.8103333"><ele>616.0</ele><time>2026-04-12T11:05:03.431Z</time></trkpt><trkpt lat="42.5204683" lon="12.810525"><ele>614.75</ele><time>2026-04-12T11:05:04.432Z</time></trkpt><trkpt lat="42.52052" lon="12.8107283"><ele>613.5</ele><time>2026-04-12T11:05:05.435Z</time></trkpt><trkpt lat="42.5205583" lon="12.8109117"><ele>612.25</ele><time>2026-04-12T11:05:06.429Z</time></trkpt><trkpt lat="42.5205683" lon="12.8110767"><ele>611.0</ele><time>2026-04-12T11:05:07.441Z</time></trkpt><trkpt lat="42.5205367" lon="12.8112383"><ele>607.3333333333333</ele><time>2026-04-12T11:05:08.436Z</time></trkpt><trkpt lat="42.5204567" lon="12.81142"><ele>603.6666666666666</ele><time>2026-04-12T11:05:09.43Z</time></trkpt><trkpt lat="42.5203533" lon="12.811595"><ele>600.0</ele><time>2026-04-12T11:05:10.424Z</time></trkpt><trkpt lat="42.5202217" lon="12.81176"><ele>606.0</ele><time>2026-04-12T11:05:11.446Z</time></trkpt><trkpt lat="42.5200733" lon="12.8119017"><ele>612.0</ele><time>2026-04-12T11:05:12.432Z</time></trkpt><trkpt lat="42.519925" lon="12.8120317"><ele>618.0</ele><time>2026-04-12T11:05:13.436Z</time></trkpt><trkpt lat="42.5197817" lon="12.8121517"><ele>618.0</ele><time>2026-04-12T11:05:14.435Z</time></trkpt><trkpt lat="42.5196217" lon="12.8122467"><ele>618.0</ele><time>2026-04-12T11:05:15.434Z</time></trkpt><trkpt lat="42.519465" lon="12.8123133"><ele>618.0</ele><time>2026-04-12T11:05:16.432Z</time></trkpt><trkpt lat="42.5193167" lon="12.8123683"><ele>621.3333333333334</ele><time>2026-04-12T11:05:17.433Z</time></trkpt><trkpt lat="42.5191717" lon="12.81242"><ele>624.6666666666667</ele><time>2026-04-12T11:05:18.434Z</time></trkpt><trkpt lat="42.5190283" lon="12.8124917"><ele>628.0</ele><time>2026-04-12T11:05:19.434Z</time></trkpt><trkpt lat="42.5188867" lon="12.812585"><ele>627.5</ele><time>2026-04-12T11:05:20.436Z</time></trkpt><trkpt lat="42.5187633" lon="12.8127"><ele>627.0</ele><time>2026-04-12T11:05:21.433Z</time></trkpt><trkpt lat="42.5186567" lon="12.81283"><ele>626.5</ele><time>2026-04-12T11:05:22.434Z</time></trkpt><trkpt lat="42.5185617" lon="12.8129783"><ele>626.0</ele><time>2026-04-12T11:05:23.431Z</time></trkpt><trkpt lat="42.51849" lon="12.813165"><ele>626.0</ele><time>2026-04-12T11:05:24.44Z</time></trkpt><trkpt lat="42.5184467" lon="12.813405"><ele>626.0</ele><time>2026-04-12T11:05:25.432Z</time></trkpt><trkpt lat="42.5184183" lon="12.81367"><ele>626.0</ele><time>2026-04-12T11:05:26.439Z</time></trkpt><trkpt lat="42.5183983" lon="12.8139483"><ele>627.3333333333333</ele><time>2026-04-12T11:05:27.434Z</time></trkpt><trkpt lat="42.51838" lon="12.8142467"><ele>628.6666666666666</ele><time>2026-04-12T11:05:28.429Z</time></trkpt><trkpt lat="42.5183617" lon="12.81455"><ele>630.0</ele><time>2026-04-12T11:05:29.432Z</time></trkpt><trkpt lat="42.518345" lon="12.8148583"><ele>631.3333333333334</ele><time>2026-04-12T11:05:30.435Z</time></trkpt><trkpt lat="42.5183317" lon="12.81516"><ele>632.6666666666667</ele><time>2026-04-12T11:05:31.439Z</time></trkpt><trkpt lat="42.51833" lon="12.81544"><ele>634.0</ele><time>2026-04-12T11:05:32.435Z</time></trkpt><trkpt lat="42.51835" lon="12.8157167"><ele>634.3333333333334</ele><time>2026-04-12T11:05:33.423Z</time></trkpt><trkpt lat="42.5183783" lon="12.8159933"><ele>634.6666666666666</ele><time>2026-04-12T11:05:34.438Z</time></trkpt><trkpt lat="42.5184333" lon="12.8162683"><ele>635.0</ele><time>2026-04-12T11:05:35.43Z</time></trkpt><trkpt lat="42.5185033" lon="12.8165433"><ele>636.0</ele><time>2026-04-12T11:05:36.439Z</time></trkpt><trkpt lat="42.51857" lon="12.81682"><ele>637.0</ele><time>2026-04-12T11:05:37.436Z</time></trkpt><trkpt lat="42.51862" lon="12.8170867"><ele>638.0</ele><time>2026-04-12T11:05:38.433Z</time></trkpt><trkpt lat="42.5186433" lon="12.817345"><ele>638.0</ele><time>2026-04-12T11:05:39.44Z</time></trkpt><trkpt lat="42.5186333" lon="12.8176083"><ele>638.0</ele><time>2026-04-12T11:05:40.447Z</time></trkpt><trkpt lat="42.5186133" lon="12.8178833"><ele>638.0</ele><time>2026-04-12T11:05:41.444Z</time></trkpt><trkpt lat="42.5185983" lon="12.8181467"><ele>638.0</ele><time>2026-04-12T11:05:42.431Z</time></trkpt><trkpt lat="42.5185967" lon="12.8183933"><ele>638.0</ele><time>2026-04-12T11:05:43.435Z</time></trkpt><trkpt lat="42.51861" lon="12.818625"><ele>638.0</ele><time>2026-04-12T11:05:44.441Z</time></trkpt><trkpt lat="42.5186533" lon="12.8188333"><ele>637.3333333333333</ele><time>2026-04-12T11:05:45.426Z</time></trkpt><trkpt lat="42.518725" lon="12.81902"><ele>636.6666666666666</ele><time>2026-04-12T11:05:46.436Z</time></trkpt><trkpt lat="42.5188317" lon="12.8191817"><ele>636.0</ele><time>2026-04-12T11:05:47.434Z</time></trkpt><trkpt lat="42.5189617" lon="12.8193217"><ele>640.6666666666666</ele><time>2026-04-12T11:05:48.425Z</time></trkpt><trkpt lat="42.519125" lon="12.8194317"><ele>645.3333333333333</ele><time>2026-04-12T11:05:49.432Z</time></trkpt><trkpt lat="42.5193017" lon="12.8195217"><ele>650.0</ele><time>2026-04-12T11:05:50.439Z</time></trkpt><trkpt lat="42.5194867" lon="12.8195917"><ele>658.3333333333333</ele><time>2026-04-12T11:05:51.44Z</time></trkpt><trkpt lat="42.5196517" lon="12.81967"><ele>666.6666666666666</ele><time>2026-04-12T11:05:52.441Z</time></trkpt><trkpt lat="42.5198017" lon="12.8197733"><ele>675.0</ele><time>2026-04-12T11:05:53.434Z</time></trkpt><trkpt lat="42.519935" lon="12.8198983"><ele>675.0</ele><time>2026-04-12T11:05:54.436Z</time></trkpt><trkpt lat="42.52005" lon="12.8200267"><ele>675.0</ele><time>2026-04-12T11:05:55.434Z</time></trkpt><trkpt lat="42.5201483" lon="12.8201383"><ele>675.0</ele><time>2026-04-12T11:05:56.431Z</time></trkpt><trkpt lat="42.5202217" lon="12.820245"><ele>675.0</ele><time>2026-04-12T11:05:57.444Z</time></trkpt><trkpt lat="42.5202633" lon="12.8203483"><ele>676.2</ele><time>2026-04-12T11:05:58.432Z</time></trkpt><trkpt lat="42.52029" lon="12.820445"><ele>677.4</ele><time>2026-04-12T11:05:59.432Z</time></trkpt><trkpt lat="42.5202917" lon="12.82054"><ele>678.5999999999999</ele><time>2026-04-12T11:06:00.443Z</time></trkpt><trkpt lat="42.5202117" lon="12.8206717"><ele>679.8</ele><time>2026-04-12T11:06:02.432Z</time></trkpt><trkpt lat="42.5200933" lon="12.8206733"><ele>681.0</ele><time>2026-04-12T11:06:03.436Z</time></trkpt><trkpt lat="42.5199833" lon="12.8206817"><ele>681.0</ele><time>2026-04-12T11:06:04.434Z</time></trkpt><trkpt lat="42.51987" lon="12.8207033"><ele>681.0</ele><time>2026-04-12T11:06:05.432Z</time></trkpt><trkpt lat="42.5197517" lon="12.820755"><ele>681.0</ele><time>2026-04-12T11:06:06.442Z</time></trkpt><trkpt lat="42.5196367" lon="12.8208483"><ele>681.0</ele><time>2026-04-12T11:06:07.438Z</time></trkpt><trkpt lat="42.5195167" lon="12.82097"><ele>680.25</ele><time>2026-04-12T11:06:08.431Z</time></trkpt><trkpt lat="42.519405" lon="12.8211017"><ele>679.5</ele><time>2026-04-12T11:06:09.434Z</time></trkpt><trkpt lat="42.5193067" lon="12.8212217"><ele>678.75</ele><time>2026-04-12T11:06:10.441Z</time></trkpt><trkpt lat="42.51922" lon="12.821345"><ele>678.0</ele><time>2026-04-12T11:06:11.435Z</time></trkpt><trkpt lat="42.51916" lon="12.821495"><ele>678.0</ele><time>2026-04-12T11:06:12.431Z</time></trkpt><trkpt lat="42.51913" lon="12.821675"><ele>678.0</ele><time>2026-04-12T11:06:13.433Z</time></trkpt><trkpt lat="42.5191217" lon="12.82189"><ele>678.0</ele><time>2026-04-12T11:06:14.433Z</time></trkpt><trkpt lat="42.5191317" lon="12.8221267"><ele>678.6666666666666</ele><time>2026-04-12T11:06:15.434Z</time></trkpt><trkpt lat="42.5191533" lon="12.822365"><ele>679.3333333333333</ele><time>2026-04-12T11:06:16.435Z</time></trkpt><trkpt lat="42.5191867" lon="12.8225967"><ele>680.0</ele><time>2026-04-12T11:06:17.444Z</time></trkpt><trkpt lat="42.5192317" lon="12.822805"><ele>677.25</ele><time>2026-04-12T11:06:18.427Z</time></trkpt><trkpt lat="42.5192933" lon="12.82298"><ele>674.5</ele><time>2026-04-12T11:06:19.433Z</time></trkpt><trkpt lat="42.5193783" lon="12.823125"><ele>671.75</ele><time>2026-04-12T11:06:20.434Z</time></trkpt><trkpt lat="42.5194867" lon="12.8232383"><ele>669.0</ele><time>2026-04-12T11:06:21.429Z</time></trkpt><trkpt lat="42.5196183" lon="12.8233367"><ele>673.6666666666666</ele><time>2026-04-12T11:06:22.431Z</time></trkpt><trkpt lat="42.5197583" lon="12.8234583"><ele>678.3333333333333</ele><time>2026-04-12T11:06:23.475Z</time></trkpt><trkpt lat="42.5199117" lon="12.8236017"><ele>683.0</ele><time>2026-04-12T11:06:24.43Z</time></trkpt><trkpt lat="42.52006" lon="12.8237733"><ele>683.0</ele><time>2026-04-12T11:06:25.434Z</time></trkpt><trkpt lat="42.5202017" lon="12.8239433"><ele>683.0</ele><time>2026-04-12T11:06:26.44Z</time></trkpt><trkpt lat="42.5203267" lon="12.8241067"><ele>683.0</ele><time>2026-04-12T11:06:27.435Z</time></trkpt><trkpt lat="42.5204367" lon="12.82425"><ele>687.5</ele><time>2026-04-12T11:06:28.429Z</time></trkpt><trkpt lat="42.520535" lon="12.8243817"><ele>692.0</ele><time>2026-04-12T11:06:29.441Z</time></trkpt><trkpt lat="42.520595" lon="12.8245267"><ele>696.5</ele><time>2026-04-12T11:06:30.433Z</time></trkpt><trkpt lat="42.520615" lon="12.8246833"><ele>701.0</ele><time>2026-04-12T11:06:31.446Z</time></trkpt><trkpt lat="42.5206233" lon="12.82487"><ele>701.0</ele><time>2026-04-12T11:06:32.445Z</time></trkpt><trkpt lat="42.52063" lon="12.8250883"><ele>701.0</ele><time>2026-04-12T11:06:33.438Z</time></trkpt><trkpt lat="42.52065" lon="12.8253"><ele>701.0</ele><time>2026-04-12T11:06:34.434Z</time></trkpt><trkpt lat="42.5206933" lon="12.8254967"><ele>702.25</ele><time>2026-04-12T11:06:35.426Z</time></trkpt><trkpt lat="42.5207433" lon="12.8256733"><ele>703.5</ele><time>2026-04-12T11:06:36.427Z</time></trkpt><trkpt lat="42.5207883" lon="12.825845"><ele>704.75</ele><time>2026-04-12T11:06:37.438Z</time></trkpt><trkpt lat="42.5208067" lon="12.826"><ele>706.0</ele><time>2026-04-12T11:06:38.451Z</time></trkpt><trkpt lat="42.5207817" lon="12.8261367"><ele>707.1999999999999</ele><time>2026-04-12T11:06:39.437Z</time></trkpt><trkpt lat="42.5207183" lon="12.826235"><ele>708.4</ele><time>2026-04-12T11:06:40.431Z</time></trkpt><trkpt lat="42.5206283" lon="12.8262967"><ele>709.6</ele><time>2026-04-12T11:06:41.435Z</time></trkpt><trkpt lat="42.5205217" lon="12.8263333"><ele>710.8</ele><time>2026-04-12T11:06:42.432Z</time></trkpt><trkpt lat="42.5204183" lon="12.82638"><ele>712.0</ele><time>2026-04-12T11:06:43.438Z</time></trkpt><trkpt lat="42.520325" lon="12.8264367"><ele>708.8</ele><time>2026-04-12T11:06:44.437Z</time></trkpt><trkpt lat="42.520255" lon="12.8265133"><ele>705.6</ele><time>2026-04-12T11:06:45.433Z</time></trkpt><trkpt lat="42.5202033" lon="12.8266067"><ele>702.4</ele><time>2026-04-12T11:06:46.44Z</time></trkpt><trkpt lat="42.5201933" lon="12.82674"><ele>699.1999999999999</ele><time>2026-04-12T11:06:47.434Z</time></trkpt><trkpt lat="42.5202133" lon="12.8268917"><ele>696.0</ele><time>2026-04-12T11:06:48.431Z</time></trkpt><trkpt lat="42.5202617" lon="12.8270467"><ele>695.0</ele><time>2026-04-12T11:06:49.439Z</time></trkpt><trkpt lat="42.5203333" lon="12.8271867"><ele>694.0</ele><time>2026-04-12T11:06:50.433Z</time></trkpt><trkpt lat="42.5204367" lon="12.8272867"><ele>693.0</ele><time>2026-04-12T11:06:51.436Z</time></trkpt><trkpt lat="42.5205633" lon="12.82737"><ele>692.0</ele><time>2026-04-12T11:06:52.434Z</time></trkpt><trkpt lat="42.5207" lon="12.8274483"><ele>698.0</ele><time>2026-04-12T11:06:53.44Z</time></trkpt><trkpt lat="42.5208083" lon="12.82755"><ele>704.0</ele><time>2026-04-12T11:06:54.447Z</time></trkpt><trkpt lat="42.52089" lon="12.8276767"><ele>710.0</ele><time>2026-04-12T11:06:55.446Z</time></trkpt><trkpt lat="42.5209417" lon="12.82784"><ele>716.0</ele><time>2026-04-12T11:06:56.432Z</time></trkpt><trkpt lat="42.5209817" lon="12.8280317"><ele>716.0</ele><time>2026-04-12T11:06:57.431Z</time></trkpt><trkpt lat="42.521015" lon="12.828235"><ele>716.0</ele><time>2026-04-12T11:06:58.426Z</time></trkpt><trkpt lat="42.5210517" lon="12.82844"><ele>716.0</ele><time>2026-04-12T11:06:59.428Z</time></trkpt><trkpt lat="42.52109" lon="12.828655"><ele>717.6666666666666</ele><time>2026-04-12T11:07:00.427Z</time></trkpt><trkpt lat="42.521125" lon="12.8288833"><ele>719.3333333333334</ele><time>2026-04-12T11:07:01.425Z</time></trkpt><trkpt lat="42.5211567" lon="12.8291133"><ele>721.0</ele><time>2026-04-12T11:07:02.438Z</time></trkpt><trkpt lat="42.5211817" lon="12.8293383"><ele>724.3333333333334</ele><time>2026-04-12T11:07:03.431Z</time></trkpt><trkpt lat="42.5211867" lon="12.8295733"><ele>727.6666666666666</ele><time>2026-04-12T11:07:04.434Z</time></trkpt><trkpt lat="42.5211667" lon="12.8298167"><ele>731.0</ele><time>2026-04-12T11:07:05.436Z</time></trkpt><trkpt lat="42.5211367" lon="12.830045"><ele>734.0</ele><time>2026-04-12T11:07:06.431Z</time></trkpt><trkpt lat="42.521105" lon="12.8302467"><ele>737.0</ele><time>2026-04-12T11:07:07.433Z</time></trkpt><trkpt lat="42.52106" lon="12.8304017"><ele>740.0</ele><time>2026-04-12T11:07:08.424Z</time></trkpt><trkpt lat="42.52099" lon="12.8304967"><ele>743.0</ele><time>2026-04-12T11:07:09.442Z</time></trkpt><trkpt lat="42.52091" lon="12.8305183"><ele>743.0</ele><time>2026-04-12T11:07:10.436Z</time></trkpt><trkpt lat="42.5208133" lon="12.8304667"><ele>743.0</ele><time>2026-04-12T11:07:11.44Z</time></trkpt><trkpt lat="42.5207117" lon="12.8303717"><ele>743.0</ele><time>2026-04-12T11:07:12.431Z</time></trkpt><trkpt lat="42.520605" lon="12.830245"><ele>743.0</ele><time>2026-04-12T11:07:13.437Z</time></trkpt><trkpt lat="42.5205017" lon="12.8301217"><ele>741.2</ele><time>2026-04-12T11:07:14.438Z</time></trkpt><trkpt lat="42.5204067" lon="12.830005"><ele>739.4</ele><time>2026-04-12T11:07:15.44Z</time></trkpt><trkpt lat="42.5203183" lon="12.8299133"><ele>737.6</ele><time>2026-04-12T11:07:16.428Z</time></trkpt><trkpt lat="42.52023" lon="12.8298433"><ele>735.8000000000001</ele><time>2026-04-12T11:07:17.444Z</time></trkpt><trkpt lat="42.52014" lon="12.829815"><ele>734.0</ele><time>2026-04-12T11:07:18.427Z</time></trkpt><trkpt lat="42.5200517" lon="12.8298267"><ele>734.0</ele><time>2026-04-12T11:07:19.428Z</time></trkpt><trkpt lat="42.5199833" lon="12.8298983"><ele>734.0</ele><time>2026-04-12T11:07:20.433Z</time></trkpt><trkpt lat="42.5199467" lon="12.8300083"><ele>734.0</ele><time>2026-04-12T11:07:21.425Z</time></trkpt><trkpt lat="42.5199567" lon="12.830115"><ele>734.0</ele><time>2026-04-12T11:07:22.427Z</time></trkpt><trkpt lat="42.5199767" lon="12.8302167"><ele>734.0</ele><time>2026-04-12T11:07:23.428Z</time></trkpt><trkpt lat="42.5200283" lon="12.8303633"><ele>734.1666666666666</ele><time>2026-04-12T11:07:25.423Z</time></trkpt><trkpt lat="42.5200717" lon="12.8304883"><ele>734.3333333333333</ele><time>2026-04-12T11:07:27.425Z</time></trkpt><trkpt lat="42.5201067" lon="12.830565"><ele>734.5</ele><time>2026-04-12T11:07:30.439Z</time></trkpt><trkpt lat="42.5201783" lon="12.8305933"><ele>734.6666666666666</ele><time>2026-04-12T11:07:32.444Z</time></trkpt><trkpt lat="42.52024" lon="12.83063"><ele>734.8333333333334</ele><time>2026-04-12T11:07:33.433Z</time></trkpt><trkpt lat="42.5203233" lon="12.830705"><ele>735.0</ele><time>2026-04-12T11:07:34.439Z</time></trkpt><trkpt lat="42.5204117" lon="12.8308"><ele>737.0</ele><time>2026-04-12T11:07:35.423Z</time></trkpt><trkpt lat="42.520515" lon="12.8309283"><ele>739.0</ele><time>2026-04-12T11:07:36.432Z</time></trkpt><trkpt lat="42.5206217" lon="12.83107"><ele>741.0</ele><time>2026-04-12T11:07:37.441Z</time></trkpt><trkpt lat="42.520735" lon="12.8312183"><ele>743.0</ele><time>2026-04-12T11:07:38.432Z</time></trkpt><trkpt lat="42.5208567" lon="12.8313783"><ele>744.6666666666666</ele><time>2026-04-12T11:07:39.431Z</time></trkpt><trkpt lat="42.5209917" lon="12.831545"><ele>746.3333333333334</ele><time>2026-04-12T11:07:40.435Z</time></trkpt><trkpt lat="42.5211267" lon="12.8317133"><ele>748.0</ele><time>2026-04-12T11:07:41.443Z</time></trkpt><trkpt lat="42.52125" lon="12.8318817"><ele>750.6666666666667</ele><time>2026-04-12T11:07:42.425Z</time></trkpt><trkpt lat="42.521345" lon="12.8320717"><ele>753.3333333333334</ele><time>2026-04-12T11:07:43.43Z</time></trkpt><trkpt lat="42.5214083" lon="12.8322833"><ele>756.0</ele><time>2026-04-12T11:07:44.423Z</time></trkpt><trkpt lat="42.52143" lon="12.8325067"><ele>756.75</ele><time>2026-04-12T11:07:45.438Z</time></trkpt><trkpt lat="42.5214283" lon="12.832725"><ele>757.5</ele><time>2026-04-12T11:07:46.426Z</time></trkpt><trkpt lat="42.5214133" lon="12.8329117"><ele>758.25</ele><time>2026-04-12T11:07:47.425Z</time></trkpt><trkpt lat="42.5213967" lon="12.83307"><ele>759.0</ele><time>2026-04-12T11:07:48.425Z</time></trkpt><trkpt lat="42.5213883" lon="12.8332017"><ele>759.0</ele><time>2026-04-12T11:07:49.425Z</time></trkpt><trkpt lat="42.5214017" lon="12.8333233"><ele>759.0</ele><time>2026-04-12T11:07:50.427Z</time></trkpt><trkpt lat="42.5214317" lon="12.8334333"><ele>759.0</ele><time>2026-04-12T11:07:51.425Z</time></trkpt><trkpt lat="42.521485" lon="12.8335267"><ele>759.0</ele><time>2026-04-12T11:07:52.426Z</time></trkpt><trkpt lat="42.5215567" lon="12.83362"><ele>759.0</ele><time>2026-04-12T11:07:53.427Z</time></trkpt><trkpt lat="42.5216733" lon="12.8336833"><ele>760.4000000000001</ele><time>2026-04-12T11:07:54.426Z</time></trkpt><trkpt lat="42.5217983" lon="12.8337183"><ele>761.8</ele><time>2026-04-12T11:07:55.429Z</time></trkpt><trkpt lat="42.5219167" lon="12.8337083"><ele>763.2</ele><time>2026-04-12T11:07:56.434Z</time></trkpt><trkpt lat="42.52202" lon="12.83367"><ele>764.5999999999999</ele><time>2026-04-12T11:07:57.431Z</time></trkpt><trkpt lat="42.5221033" lon="12.8336333"><ele>766.0</ele><time>2026-04-12T11:07:58.435Z</time></trkpt><trkpt lat="42.5221717" lon="12.8335967"><ele>766.0</ele><time>2026-04-12T11:07:59.432Z</time></trkpt><trkpt lat="42.5222333" lon="12.8335617"><ele>766.0</ele><time>2026-04-12T11:08:00.454Z</time></trkpt><trkpt lat="42.5223217" lon="12.8335267"><ele>766.0</ele><time>2026-04-12T11:08:02.433Z</time></trkpt><trkpt lat="42.5222417" lon="12.8335167"><ele>766.0</ele><time>2026-04-12T11:08:08.427Z</time></trkpt><trkpt lat="42.52209" lon="12.8335833"><ele>766.0</ele><time>2026-04-12T11:08:10.435Z</time></trkpt><trkpt lat="42.522" lon="12.833615"><ele>766.0</ele><time>2026-04-12T11:08:11.435Z</time></trkpt><trkpt lat="42.521915" lon="12.833645"><ele>766.0</ele><time>2026-04-12T11:08:12.433Z</time></trkpt><trkpt lat="42.5218433" lon="12.8336633"><ele>766.0</ele><time>2026-04-12T11:08:13.434Z</time></trkpt><trkpt lat="42.5217733" lon="12.833665"><ele>766.0</ele><time>2026-04-12T11:08:14.444Z</time></trkpt><trkpt lat="42.52171" lon="12.8336483"><ele>766.0</ele><time>2026-04-12T11:08:15.429Z</time></trkpt><trkpt lat="42.521645" lon="12.833615"><ele>766.0</ele><time>2026-04-12T11:08:16.436Z</time></trkpt><trkpt lat="42.5215883" lon="12.8335717"><ele>766.0</ele><time>2026-04-12T11:08:17.432Z</time></trkpt><trkpt lat="42.5215017" lon="12.8334833"><ele>766.0</ele><time>2026-04-12T11:08:19.431Z</time></trkpt><trkpt lat="42.5214367" lon="12.8334533"><ele>766.0</ele><time>2026-04-12T11:08:21.433Z</time></trkpt><trkpt lat="42.5215433" lon="12.8335717"><ele>766.0</ele><time>2026-04-12T11:09:42.445Z</time></trkpt><trkpt lat="42.52161" lon="12.8336317"><ele>766.0</ele><time>2026-04-12T11:09:43.435Z</time></trkpt><trkpt lat="42.521685" lon="12.83368"><ele>766.0</ele><time>2026-04-12T11:09:44.447Z</time></trkpt><trkpt lat="42.521765" lon="12.8337083"><ele>766.0</ele><time>2026-04-12T11:09:45.431Z</time></trkpt><trkpt lat="42.521855" lon="12.833715"><ele>766.0</ele><time>2026-04-12T11:09:46.434Z</time></trkpt><trkpt lat="42.5219617" lon="12.8336883"><ele>766.0</ele><time>2026-04-12T11:09:47.431Z</time></trkpt><trkpt lat="42.5220783" lon="12.833635"><ele>766.0</ele><time>2026-04-12T11:09:48.431Z</time></trkpt><trkpt lat="42.52219" lon="12.8335833"><ele>766.0</ele><time>2026-04-12T11:09:49.429Z</time></trkpt><trkpt lat="42.5223083" lon="12.8335283"><ele>767.0</ele><time>2026-04-12T11:09:50.429Z</time></trkpt><trkpt lat="42.5224483" lon="12.8334833"><ele>768.0</ele><time>2026-04-12T11:09:51.437Z</time></trkpt><trkpt lat="42.522605" lon="12.8334667"><ele>769.0</ele><time>2026-04-12T11:09:52.427Z</time></trkpt><trkpt lat="42.5227617" lon="12.833475"><ele>770.25</ele><time>2026-04-12T11:09:53.43Z</time></trkpt><trkpt lat="42.5229067" lon="12.8335"><ele>771.5</ele><time>2026-04-12T11:09:54.428Z</time></trkpt><trkpt lat="42.5230317" lon="12.8335067"><ele>772.75</ele><time>2026-04-12T11:09:55.427Z</time></trkpt><trkpt lat="42.5231417" lon="12.8334617"><ele>774.0</ele><time>2026-04-12T11:09:56.437Z</time></trkpt><trkpt lat="42.523235" lon="12.833375"><ele>770.0</ele><time>2026-04-12T11:09:57.423Z</time></trkpt><trkpt lat="42.5233267" lon="12.8332283"><ele>766.0</ele><time>2026-04-12T11:09:58.429Z</time></trkpt><trkpt lat="42.52343" lon="12.8330633"><ele>762.0</ele><time>2026-04-12T11:09:59.427Z</time></trkpt><trkpt lat="42.523535" lon="12.8329"><ele>762.0</ele><time>2026-04-12T11:10:00.441Z</time></trkpt><trkpt lat="42.5236583" lon="12.8327767"><ele>762.0</ele><time>2026-04-12T11:10:01.432Z</time></trkpt><trkpt lat="42.5237883" lon="12.8326833"><ele>762.0</ele><time>2026-04-12T11:10:02.439Z</time></trkpt><trkpt lat="42.5239317" lon="12.8326333"><ele>762.0</ele><time>2026-04-12T11:10:03.435Z</time></trkpt><trkpt lat="42.5240633" lon="12.8326283"><ele>762.25</ele><time>2026-04-12T11:10:04.431Z</time></trkpt><trkpt lat="42.5241917" lon="12.8326783"><ele>762.5</ele><time>2026-04-12T11:10:05.427Z</time></trkpt><trkpt lat="42.5243117" lon="12.8327767"><ele>762.75</ele><time>2026-04-12T11:10:06.436Z</time></trkpt><trkpt lat="42.524435" lon="12.8328783"><ele>763.0</ele><time>2026-04-12T11:10:07.435Z</time></trkpt><trkpt lat="42.52458" lon="12.83292"><ele>761.6666666666667</ele><time>2026-04-12T11:10:08.439Z</time></trkpt><trkpt lat="42.5247467" lon="12.8328867"><ele>760.3333333333334</ele><time>2026-04-12T11:10:09.434Z</time></trkpt><trkpt lat="42.5249333" lon="12.83283"><ele>759.0</ele><time>2026-04-12T11:10:10.438Z</time></trkpt><trkpt lat="42.5251217" lon="12.83277"><ele>759.0</ele><time>2026-04-12T11:10:11.44Z</time></trkpt><trkpt lat="42.5252933" lon="12.8326833"><ele>759.0</ele><time>2026-04-12T11:10:12.438Z</time></trkpt><trkpt lat="42.525445" lon="12.8325667"><ele>759.0</ele><time>2026-04-12T11:10:13.432Z</time></trkpt><trkpt lat="42.5255717" lon="12.83243"><ele>756.0</ele><time>2026-04-12T11:10:14.429Z</time></trkpt><trkpt lat="42.5256683" lon="12.8322733"><ele>753.0</ele><time>2026-04-12T11:10:15.424Z</time></trkpt><trkpt lat="42.5257583" lon="12.8321533"><ele>750.0</ele><time>2026-04-12T11:10:16.433Z</time></trkpt><trkpt lat="42.5258467" lon="12.8320817"><ele>747.0</ele><time>2026-04-12T11:10:17.434Z</time></trkpt><trkpt lat="42.525955" lon="12.832065"><ele>747.0</ele><time>2026-04-12T11:10:18.43Z</time></trkpt><trkpt lat="42.5260633" lon="12.8320933"><ele>747.0</ele><time>2026-04-12T11:10:19.436Z</time></trkpt><trkpt lat="42.526165" lon="12.8321683"><ele>747.0</ele><time>2026-04-12T11:10:20.432Z</time></trkpt><trkpt lat="42.5262617" lon="12.8322583"><ele>747.0</ele><time>2026-04-12T11:10:21.442Z</time></trkpt><trkpt lat="42.5263567" lon="12.8323517"><ele>745.2</ele><time>2026-04-12T11:10:22.436Z</time></trkpt><trkpt lat="42.5264433" lon="12.83244"><ele>743.4000000000001</ele><time>2026-04-12T11:10:23.432Z</time></trkpt><trkpt lat="42.5265033" lon="12.8325417"><ele>741.5999999999999</ele><time>2026-04-12T11:10:24.424Z</time></trkpt><trkpt lat="42.5265267" lon="12.83266"><ele>739.8</ele><time>2026-04-12T11:10:25.426Z</time></trkpt><trkpt lat="42.5264867" lon="12.8327933"><ele>738.0</ele><time>2026-04-12T11:10:26.427Z</time></trkpt><trkpt lat="42.5264117" lon="12.8329267"><ele>740.3333333333334</ele><time>2026-04-12T11:10:27.429Z</time></trkpt><trkpt lat="42.526295" lon="12.833085"><ele>742.6666666666667</ele><time>2026-04-12T11:10:28.431Z</time></trkpt><trkpt lat="42.526145" lon="12.83327"><ele>745.0</ele><time>2026-04-12T11:10:29.428Z</time></trkpt><trkpt lat="42.52598" lon="12.833445"><ele>739.0</ele><time>2026-04-12T11:10:30.429Z</time></trkpt><trkpt lat="42.52581" lon="12.8336083"><ele>733.0</ele><time>2026-04-12T11:10:31.433Z</time></trkpt><trkpt lat="42.5256417" lon="12.8337517"><ele>727.0</ele><time>2026-04-12T11:10:32.432Z</time></trkpt><trkpt lat="42.52549" lon="12.83389"><ele>734.0</ele><time>2026-04-12T11:10:33.44Z</time></trkpt><trkpt lat="42.52536" lon="12.834055"><ele>741.0</ele><time>2026-04-12T11:10:34.437Z</time></trkpt><trkpt lat="42.525275" lon="12.8342467"><ele>748.0</ele><time>2026-04-12T11:10:35.434Z</time></trkpt><trkpt lat="42.5252267" lon="12.8344767"><ele>748.0</ele><time>2026-04-12T11:10:36.432Z</time></trkpt><trkpt lat="42.525195" lon="12.834735"><ele>748.0</ele><time>2026-04-12T11:10:37.433Z</time></trkpt><trkpt lat="42.5251983" lon="12.8350317"><ele>748.0</ele><time>2026-04-12T11:10:38.433Z</time></trkpt><trkpt lat="42.5251833" lon="12.8353267"><ele>747.3333333333334</ele><time>2026-04-12T11:10:39.435Z</time></trkpt><trkpt lat="42.5251483" lon="12.835605"><ele>746.6666666666666</ele><time>2026-04-12T11:10:40.429Z</time></trkpt><trkpt lat="42.5251" lon="12.8358617"><ele>746.0</ele><time>2026-04-12T11:10:41.43Z</time></trkpt><trkpt lat="42.5250167" lon="12.83609"><ele>741.3333333333333</ele><time>2026-04-12T11:10:42.429Z</time></trkpt><trkpt lat="42.5248967" lon="12.83628"><ele>736.6666666666666</ele><time>2026-04-12T11:10:43.441Z</time></trkpt><trkpt lat="42.5247633" lon="12.8364367"><ele>732.0</ele><time>2026-04-12T11:10:44.448Z</time></trkpt><trkpt lat="42.524635" lon="12.83657"><ele>734.75</ele><time>2026-04-12T11:10:45.426Z</time></trkpt><trkpt lat="42.52452" lon="12.8366683"><ele>737.5</ele><time>2026-04-12T11:10:46.432Z</time></trkpt><trkpt lat="42.5244017" lon="12.8367117"><ele>740.25</ele><time>2026-04-12T11:10:47.436Z</time></trkpt><trkpt lat="42.524265" lon="12.8366783"><ele>743.0</ele><time>2026-04-12T11:10:48.433Z</time></trkpt><trkpt lat="42.5241433" lon="12.8365783"><ele>743.0</ele><time>2026-04-12T11:10:49.438Z</time></trkpt><trkpt lat="42.52402" lon="12.8365167"><ele>743.0</ele><time>2026-04-12T11:10:50.442Z</time></trkpt><trkpt lat="42.5239117" lon="12.8365067"><ele>743.0</ele><time>2026-04-12T11:10:51.429Z</time></trkpt><trkpt lat="42.5238083" lon="12.8365667"><ele>743.0</ele><time>2026-04-12T11:10:52.439Z</time></trkpt><trkpt lat="42.5237233" lon="12.836685"><ele>742.0</ele><time>2026-04-12T11:10:53.435Z</time></trkpt><trkpt lat="42.5236383" lon="12.8368783"><ele>741.0</ele><time>2026-04-12T11:10:54.439Z</time></trkpt><trkpt lat="42.5235367" lon="12.837045"><ele>740.0</ele><time>2026-04-12T11:10:55.432Z</time></trkpt><trkpt lat="42.5234133" lon="12.8371667"><ele>740.0</ele><time>2026-04-12T11:10:56.437Z</time></trkpt><trkpt lat="42.5232683" lon="12.837255"><ele>740.0</ele><time>2026-04-12T11:10:57.439Z</time></trkpt><trkpt lat="42.5230933" lon="12.8372933"><ele>740.0</ele><time>2026-04-12T11:10:58.437Z</time></trkpt><trkpt lat="42.5229167" lon="12.83731"><ele>742.6666666666666</ele><time>2026-04-12T11:10:59.43Z</time></trkpt><trkpt lat="42.5227567" lon="12.8373317"><ele>745.3333333333334</ele><time>2026-04-12T11:11:00.43Z</time></trkpt><trkpt lat="42.522615" lon="12.8373833"><ele>748.0</ele><time>2026-04-12T11:11:01.437Z</time></trkpt><trkpt lat="42.5224983" lon="12.837495"><ele>747.0</ele><time>2026-04-12T11:11:02.443Z</time></trkpt><trkpt lat="42.5224033" lon="12.83767"><ele>746.0</ele><time>2026-04-12T11:11:03.436Z</time></trkpt><trkpt lat="42.5223433" lon="12.837905"><ele>745.0</ele><time>2026-04-12T11:11:04.434Z</time></trkpt><trkpt lat="42.5223183" lon="12.83815"><ele>745.0</ele><time>2026-04-12T11:11:05.429Z</time></trkpt><trkpt lat="42.5223233" lon="12.8383783"><ele>745.0</ele><time>2026-04-12T11:11:06.426Z</time></trkpt><trkpt lat="42.522345" lon="12.8385833"><ele>745.0</ele><time>2026-04-12T11:11:07.431Z</time></trkpt><trkpt lat="42.52233" lon="12.8387633"><ele>744.3333333333334</ele><time>2026-04-12T11:11:08.423Z</time></trkpt><trkpt lat="42.5222817" lon="12.8389283"><ele>743.6666666666666</ele><time>2026-04-12T11:11:09.427Z</time></trkpt><trkpt lat="42.5221783" lon="12.8390883"><ele>743.0</ele><time>2026-04-12T11:11:10.426Z</time></trkpt><trkpt lat="42.52206" lon="12.8392583"><ele>743.5</ele><time>2026-04-12T11:11:11.427Z</time></trkpt><trkpt lat="42.5219633" lon="12.8394333"><ele>744.0</ele><time>2026-04-12T11:11:12.428Z</time></trkpt><trkpt lat="42.5219083" lon="12.839615"><ele>744.5</ele><time>2026-04-12T11:11:13.424Z</time></trkpt><trkpt lat="42.5218867" lon="12.8398067"><ele>745.0</ele><time>2026-04-12T11:11:14.436Z</time></trkpt><trkpt lat="42.5218883" lon="12.8400083"><ele>745.3333333333334</ele><time>2026-04-12T11:11:15.427Z</time></trkpt><trkpt lat="42.5219333" lon="12.8402083"><ele>745.6666666666666</ele><time>2026-04-12T11:11:16.436Z</time></trkpt><trkpt lat="42.5220233" lon="12.840415"><ele>746.0</ele><time>2026-04-12T11:11:17.438Z</time></trkpt><trkpt lat="42.5221333" lon="12.8406183"><ele>746.0</ele><time>2026-04-12T11:11:18.428Z</time></trkpt><trkpt lat="42.5222583" lon="12.8408033"><ele>746.0</ele><time>2026-04-12T11:11:19.426Z</time></trkpt><trkpt lat="42.522405" lon="12.840965"><ele>746.0</ele><time>2026-04-12T11:11:20.458Z</time></trkpt><trkpt lat="42.52257" lon="12.841105"><ele>748.6666666666666</ele><time>2026-04-12T11:11:21.435Z</time></trkpt><trkpt lat="42.5227433" lon="12.8412033"><ele>751.3333333333334</ele><time>2026-04-12T11:11:22.437Z</time></trkpt><trkpt lat="42.5229217" lon="12.8412567"><ele>754.0</ele><time>2026-04-12T11:11:23.432Z</time></trkpt><trkpt lat="42.523115" lon="12.84128"><ele>754.0</ele><time>2026-04-12T11:11:24.437Z</time></trkpt><trkpt lat="42.5233083" lon="12.8412767"><ele>754.0</ele><time>2026-04-12T11:11:25.428Z</time></trkpt><trkpt lat="42.5235017" lon="12.8412383"><ele>754.0</ele><time>2026-04-12T11:11:26.433Z</time></trkpt><trkpt lat="42.5237017" lon="12.841185"><ele>755.6666666666667</ele><time>2026-04-12T11:11:27.431Z</time></trkpt><trkpt lat="42.5239133" lon="12.8411217"><ele>757.3333333333334</ele><time>2026-04-12T11:11:28.428Z</time></trkpt><trkpt lat="42.5241317" lon="12.8410617"><ele>759.0</ele><time>2026-04-12T11:11:29.434Z</time></trkpt><trkpt lat="42.52435" lon="12.8410083"><ele>755.6666666666666</ele><time>2026-04-12T11:11:30.446Z</time></trkpt><trkpt lat="42.5245633" lon="12.8409567"><ele>752.3333333333333</ele><time>2026-04-12T11:11:31.44Z</time></trkpt><trkpt lat="42.5247617" lon="12.8409017"><ele>749.0</ele><time>2026-04-12T11:11:32.442Z</time></trkpt><trkpt lat="42.5249433" lon="12.8408567"><ele>749.0</ele><time>2026-04-12T11:11:33.443Z</time></trkpt><trkpt lat="42.5251067" lon="12.8408133"><ele>749.0</ele><time>2026-04-12T11:11:34.443Z</time></trkpt><trkpt lat="42.5252583" lon="12.8408033"><ele>749.0</ele><time>2026-04-12T11:11:35.439Z</time></trkpt><trkpt lat="42.5253917" lon="12.84085"><ele>750.3333333333333</ele><time>2026-04-12T11:11:36.438Z</time></trkpt><trkpt lat="42.525505" lon="12.84097"><ele>751.6666666666666</ele><time>2026-04-12T11:11:37.438Z</time></trkpt><trkpt lat="42.5256017" lon="12.84116"><ele>753.0</ele><time>2026-04-12T11:11:38.444Z</time></trkpt><trkpt lat="42.525705" lon="12.8413817"><ele>753.0</ele><time>2026-04-12T11:11:39.434Z</time></trkpt><trkpt lat="42.52582" lon="12.8416083"><ele>753.0</ele><time>2026-04-12T11:11:40.43Z</time></trkpt><trkpt lat="42.5259483" lon="12.841835"><ele>753.0</ele><time>2026-04-12T11:11:41.437Z</time></trkpt><trkpt lat="42.5260633" lon="12.8420567"><ele>750.6666666666666</ele><time>2026-04-12T11:11:42.435Z</time></trkpt><trkpt lat="42.5261817" lon="12.8422667"><ele>748.3333333333333</ele><time>2026-04-12T11:11:43.43Z</time></trkpt><trkpt lat="42.52626" lon="12.84249"><ele>746.0</ele><time>2026-04-12T11:11:44.439Z</time></trkpt><trkpt lat="42.5263067" lon="12.84271"><ele>750.75</ele><time>2026-04-12T11:11:45.435Z</time></trkpt><trkpt lat="42.5263467" lon="12.84291"><ele>755.5</ele><time>2026-04-12T11:11:46.437Z</time></trkpt><trkpt lat="42.5264017" lon="12.8430717"><ele>760.25</ele><time>2026-04-12T11:11:47.432Z</time></trkpt><trkpt lat="42.5264883" lon="12.8431833"><ele>765.0</ele><time>2026-04-12T11:11:48.453Z</time></trkpt><trkpt lat="42.5266083" lon="12.8432417"><ele>765.0</ele><time>2026-04-12T11:11:49.431Z</time></trkpt><trkpt lat="42.5267533" lon="12.8432483"><ele>765.0</ele><time>2026-04-12T11:11:50.433Z</time></trkpt><trkpt lat="42.5268983" lon="12.8431733"><ele>765.0</ele><time>2026-04-12T11:11:51.439Z</time></trkpt><trkpt lat="42.5270567" lon="12.8430367"><ele>764.6666666666666</ele><time>2026-04-12T11:11:52.437Z</time></trkpt><trkpt lat="42.5272133" lon="12.8428733"><ele>764.3333333333333</ele><time>2026-04-12T11:11:53.448Z</time></trkpt><trkpt lat="42.5273467" lon="12.842625"><ele>764.0</ele><time>2026-04-12T11:11:54.44Z</time></trkpt><trkpt lat="42.5274417" lon="12.842335"><ele>764.0</ele><time>2026-04-12T11:11:55.434Z</time></trkpt><trkpt lat="42.5275167" lon="12.8420633"><ele>764.0</ele><time>2026-04-12T11:11:56.429Z</time></trkpt><trkpt lat="42.527555" lon="12.8417817"><ele>764.0</ele><time>2026-04-12T11:11:57.434Z</time></trkpt><trkpt lat="42.5275683" lon="12.8415067"><ele>760.3333333333333</ele><time>2026-04-12T11:11:58.435Z</time></trkpt><trkpt lat="42.52759" lon="12.841245"><ele>756.6666666666666</ele><time>2026-04-12T11:11:59.441Z</time></trkpt><trkpt lat="42.52764" lon="12.84104"><ele>753.0</ele><time>2026-04-12T11:12:00.438Z</time></trkpt><trkpt lat="42.52771" lon="12.840885"><ele>749.5</ele><time>2026-04-12T11:12:01.435Z</time></trkpt><trkpt lat="42.5278" lon="12.840785"><ele>746.0</ele><time>2026-04-12T11:12:02.438Z</time></trkpt><trkpt lat="42.5279133" lon="12.8407717"><ele>742.5</ele><time>2026-04-12T11:12:03.432Z</time></trkpt><trkpt lat="42.5280367" lon="12.840835"><ele>739.0</ele><time>2026-04-12T11:12:04.428Z</time></trkpt><trkpt lat="42.5281883" lon="12.840965"><ele>749.6666666666667</ele><time>2026-04-12T11:12:05.441Z</time></trkpt><trkpt lat="42.5283517" lon="12.8411433"><ele>760.3333333333334</ele><time>2026-04-12T11:12:06.431Z</time></trkpt><trkpt lat="42.5284917" lon="12.8413367"><ele>771.0</ele><time>2026-04-12T11:12:07.438Z</time></trkpt><trkpt lat="42.5286117" lon="12.8415667"><ele>775.6666666666667</ele><time>2026-04-12T11:12:08.436Z</time></trkpt><trkpt lat="42.5287083" lon="12.8418167"><ele>780.3333333333334</ele><time>2026-04-12T11:12:09.441Z</time></trkpt><trkpt lat="42.5287917" lon="12.8420617"><ele>785.0</ele><time>2026-04-12T11:12:10.437Z</time></trkpt><trkpt lat="42.5288533" lon="12.84231"><ele>776.0</ele><time>2026-04-12T11:12:11.428Z</time></trkpt><trkpt lat="42.52888" lon="12.8425783"><ele>767.0</ele><time>2026-04-12T11:12:12.449Z</time></trkpt><trkpt lat="42.5288783" lon="12.84286"><ele>758.0</ele><time>2026-04-12T11:12:13.439Z</time></trkpt><trkpt lat="42.5288567" lon="12.8431267"><ele>758.0</ele><time>2026-04-12T11:12:14.435Z</time></trkpt><trkpt lat="42.5288283" lon="12.84337"><ele>758.0</ele><time>2026-04-12T11:12:15.433Z</time></trkpt><trkpt lat="42.5287983" lon="12.8435733"><ele>758.0</ele><time>2026-04-12T11:12:16.438Z</time></trkpt><trkpt lat="42.5287783" lon="12.8437417"><ele>761.5999999999999</ele><time>2026-04-12T11:12:17.435Z</time></trkpt><trkpt lat="42.5287833" lon="12.8438817"><ele>765.1999999999999</ele><time>2026-04-12T11:12:18.439Z</time></trkpt><trkpt lat="42.5288133" lon="12.8439983"><ele>768.8</ele><time>2026-04-12T11:12:19.437Z</time></trkpt><trkpt lat="42.5288917" lon="12.844055"><ele>772.4</ele><time>2026-04-12T11:12:20.429Z</time></trkpt><trkpt lat="42.528975" lon="12.8440417"><ele>776.0</ele><time>2026-04-12T11:12:21.442Z</time></trkpt><trkpt lat="42.5290517" lon="12.8439967"><ele>776.0</ele><time>2026-04-12T11:12:22.439Z</time></trkpt><trkpt lat="42.5291333" lon="12.8438133"><ele>776.0</ele><time>2026-04-12T11:12:23.445Z</time></trkpt><trkpt lat="42.52922" lon="12.8436117"><ele>776.0</ele><time>2026-04-12T11:12:24.437Z</time></trkpt><trkpt lat="42.529315" lon="12.8433983"><ele>775.6666666666667</ele><time>2026-04-12T11:12:25.44Z</time></trkpt><trkpt lat="42.5294383" lon="12.8432033"><ele>775.3333333333333</ele><time>2026-04-12T11:12:26.432Z</time></trkpt><trkpt lat="42.52959" lon="12.8430317"><ele>775.0</ele><time>2026-04-12T11:12:27.438Z</time></trkpt><trkpt lat="42.529745" lon="12.8428983"><ele>775.0</ele><time>2026-04-12T11:12:28.44Z</time></trkpt><trkpt lat="42.5298983" lon="12.8428183"><ele>775.0</ele><time>2026-04-12T11:12:29.443Z</time></trkpt><trkpt lat="42.5300483" lon="12.8428017"><ele>775.0</ele><time>2026-04-12T11:12:30.434Z</time></trkpt><trkpt lat="42.530215" lon="12.8428583"><ele>775.0</ele><time>2026-04-12T11:12:31.423Z</time></trkpt><trkpt lat="42.530385" lon="12.8428817"><ele>775.0</ele><time>2026-04-12T11:12:32.433Z</time></trkpt><trkpt lat="42.5305717" lon="12.842855"><ele>775.0</ele><time>2026-04-12T11:12:33.441Z</time></trkpt><trkpt lat="42.5307583" lon="12.84278"><ele>776.6666666666666</ele><time>2026-04-12T11:12:34.426Z</time></trkpt><trkpt lat="42.53094" lon="12.8426833"><ele>778.3333333333333</ele><time>2026-04-12T11:12:35.436Z</time></trkpt><trkpt lat="42.5311333" lon="12.8426217"><ele>780.0</ele><time>2026-04-12T11:12:36.439Z</time></trkpt><trkpt lat="42.5313267" lon="12.8426"><ele>775.6666666666666</ele><time>2026-04-12T11:12:37.443Z</time></trkpt><trkpt lat="42.5315033" lon="12.8426283"><ele>771.3333333333333</ele><time>2026-04-12T11:12:38.438Z</time></trkpt><trkpt lat="42.5316617" lon="12.8427183"><ele>767.0</ele><time>2026-04-12T11:12:39.44Z</time></trkpt><trkpt lat="42.5318083" lon="12.84288"><ele>767.0</ele><time>2026-04-12T11:12:40.439Z</time></trkpt><trkpt lat="42.53192" lon="12.843085"><ele>767.0</ele><time>2026-04-12T11:12:41.438Z</time></trkpt><trkpt lat="42.53199" lon="12.8433233"><ele>767.0</ele><time>2026-04-12T11:12:42.438Z</time></trkpt><trkpt lat="42.5320383" lon="12.8435733"><ele>767.6666666666666</ele><time>2026-04-12T11:12:43.432Z</time></trkpt><trkpt lat="42.53209" lon="12.8438233"><ele>768.3333333333333</ele><time>2026-04-12T11:12:44.429Z</time></trkpt><trkpt lat="42.5321817" lon="12.8440767"><ele>769.0</ele><time>2026-04-12T11:12:45.44Z</time></trkpt><trkpt lat="42.53231" lon="12.844325"><ele>769.0</ele><time>2026-04-12T11:12:46.434Z</time></trkpt><trkpt lat="42.532455" lon="12.844575"><ele>769.0</ele><time>2026-04-12T11:12:47.438Z</time></trkpt><trkpt lat="42.532605" lon="12.8448217"><ele>769.0</ele><time>2026-04-12T11:12:48.438Z</time></trkpt><trkpt lat="42.5327583" lon="12.8450383"><ele>769.0</ele><time>2026-04-12T11:12:49.446Z</time></trkpt><trkpt lat="42.5329283" lon="12.845225"><ele>769.0</ele><time>2026-04-12T11:12:50.44Z</time></trkpt><trkpt lat="42.5331133" lon="12.8453833"><ele>767.0</ele><time>2026-04-12T11:12:51.433Z</time></trkpt><trkpt lat="42.5332967" lon="12.8455233"><ele>765.0</ele><time>2026-04-12T11:12:52.433Z</time></trkpt><trkpt lat="42.53346" lon="12.8456417"><ele>763.0</ele><time>2026-04-12T11:12:53.433Z</time></trkpt><trkpt lat="42.53362" lon="12.8457167"><ele>763.6666666666667</ele><time>2026-04-12T11:12:54.441Z</time></trkpt><trkpt lat="42.53377" lon="12.84572"><ele>764.3333333333334</ele><time>2026-04-12T11:12:55.435Z</time></trkpt><trkpt lat="42.5339383" lon="12.8456467"><ele>765.0</ele><time>2026-04-12T11:12:56.441Z</time></trkpt><trkpt lat="42.5341367" lon="12.845545"><ele>765.0</ele><time>2026-04-12T11:12:57.435Z</time></trkpt><trkpt lat="42.534345" lon="12.8454417"><ele>765.0</ele><time>2026-04-12T11:12:58.433Z</time></trkpt><trkpt lat="42.53454" lon="12.8453283"><ele>765.0</ele><time>2026-04-12T11:12:59.443Z</time></trkpt><trkpt lat="42.5347217" lon="12.845205"><ele>758.6666666666666</ele><time>2026-04-12T11:13:00.445Z</time></trkpt><trkpt lat="42.5348983" lon="12.8450933"><ele>752.3333333333333</ele><time>2026-04-12T11:13:01.435Z</time></trkpt><trkpt lat="42.5350833" lon="12.8450117"><ele>746.0</ele><time>2026-04-12T11:13:02.438Z</time></trkpt><trkpt lat="42.5352567" lon="12.844965"><ele>744.0</ele><time>2026-04-12T11:13:03.438Z</time></trkpt><trkpt lat="42.5354083" lon="12.8449467"><ele>742.0</ele><time>2026-04-12T11:13:04.43Z</time></trkpt><trkpt lat="42.5355283" lon="12.8449783"><ele>740.0</ele><time>2026-04-12T11:13:05.434Z</time></trkpt><trkpt lat="42.5355983" lon="12.8450517"><ele>738.0</ele><time>2026-04-12T11:13:06.431Z</time></trkpt><trkpt lat="42.5356183" lon="12.8452"><ele>738.0</ele><time>2026-04-12T11:13:07.436Z</time></trkpt><trkpt lat="42.535625" lon="12.8453917"><ele>738.0</ele><time>2026-04-12T11:13:08.438Z</time></trkpt><trkpt lat="42.535615" lon="12.84563"><ele>738.0</ele><time>2026-04-12T11:13:09.428Z</time></trkpt><trkpt lat="42.5356067" lon="12.845895"><ele>738.6666666666666</ele><time>2026-04-12T11:13:10.434Z</time></trkpt><trkpt lat="42.5356167" lon="12.8461733"><ele>739.3333333333333</ele><time>2026-04-12T11:13:11.441Z</time></trkpt><trkpt lat="42.535635" lon="12.8464583"><ele>740.0</ele><time>2026-04-12T11:13:12.44Z</time></trkpt><trkpt lat="42.535635" lon="12.8467467"><ele>736.5</ele><time>2026-04-12T11:13:13.439Z</time></trkpt><trkpt lat="42.5355967" lon="12.847055"><ele>733.0</ele><time>2026-04-12T11:13:14.434Z</time></trkpt><trkpt lat="42.5355633" lon="12.84738"><ele>732.5</ele><time>2026-04-12T11:13:15.437Z</time></trkpt><trkpt lat="42.53552" lon="12.8476983"><ele>732.0</ele><time>2026-04-12T11:13:16.434Z</time></trkpt><trkpt lat="42.5354867" lon="12.848005"><ele>732.0</ele><time>2026-04-12T11:13:17.437Z</time></trkpt><trkpt lat="42.5354817" lon="12.84831"><ele>732.0</ele><time>2026-04-12T11:13:18.436Z</time></trkpt><trkpt lat="42.5355067" lon="12.8486267"><ele>735.0</ele><time>2026-04-12T11:13:19.44Z</time></trkpt><trkpt lat="42.535545" lon="12.8489467"><ele>738.0</ele><time>2026-04-12T11:13:20.432Z</time></trkpt><trkpt lat="42.5355933" lon="12.8492617"><ele>742.0</ele><time>2026-04-12T11:13:21.444Z</time></trkpt><trkpt lat="42.5356217" lon="12.849575"><ele>746.0</ele><time>2026-04-12T11:13:22.439Z</time></trkpt><trkpt lat="42.535635" lon="12.849905"><ele>747.5</ele><time>2026-04-12T11:13:23.432Z</time></trkpt><trkpt lat="42.5356433" lon="12.850245"><ele>749.0</ele><time>2026-04-12T11:13:24.443Z</time></trkpt><trkpt lat="42.53566" lon="12.8505717"><ele>749.0</ele><time>2026-04-12T11:13:25.431Z</time></trkpt><trkpt lat="42.5357033" lon="12.8508817"><ele>749.0</ele><time>2026-04-12T11:13:26.438Z</time></trkpt><trkpt lat="42.5357633" lon="12.85117"><ele>751.0</ele><time>2026-04-12T11:13:27.443Z</time></trkpt><trkpt lat="42.5358183" lon="12.8514433"><ele>753.0</ele><time>2026-04-12T11:13:28.432Z</time></trkpt><trkpt lat="42.5358383" lon="12.8517267"><ele>755.0</ele><time>2026-04-12T11:13:29.432Z</time></trkpt><trkpt lat="42.5358433" lon="12.852035"><ele>755.6666666666666</ele><time>2026-04-12T11:13:30.435Z</time></trkpt><trkpt lat="42.5358533" lon="12.852345"><ele>756.3333333333334</ele><time>2026-04-12T11:13:31.437Z</time></trkpt><trkpt lat="42.5358733" lon="12.85264"><ele>757.0</ele><time>2026-04-12T11:13:32.434Z</time></trkpt><trkpt lat="42.5358933" lon="12.8529283"><ele>759.0</ele><time>2026-04-12T11:13:33.431Z</time></trkpt><trkpt lat="42.5358867" lon="12.85322"><ele>761.0</ele><time>2026-04-12T11:13:34.434Z</time></trkpt><trkpt lat="42.5358683" lon="12.8535167"><ele>763.0</ele><time>2026-04-12T11:13:35.44Z</time></trkpt><trkpt lat="42.5358517" lon="12.85382"><ele>763.6666666666667</ele><time>2026-04-12T11:13:36.442Z</time></trkpt><trkpt lat="42.5358467" lon="12.8541283"><ele>764.3333333333334</ele><time>2026-04-12T11:13:37.435Z</time></trkpt><trkpt lat="42.5358567" lon="12.8544233"><ele>765.0</ele><time>2026-04-12T11:13:38.431Z</time></trkpt><trkpt lat="42.5358517" lon="12.85471"><ele>763.3333333333334</ele><time>2026-04-12T11:13:39.433Z</time></trkpt><trkpt lat="42.53583" lon="12.8549867"><ele>761.6666666666667</ele><time>2026-04-12T11:13:40.441Z</time></trkpt><trkpt lat="42.5357867" lon="12.8552383"><ele>760.0</ele><time>2026-04-12T11:13:41.442Z</time></trkpt><trkpt lat="42.5357517" lon="12.8554717"><ele>760.0</ele><time>2026-04-12T11:13:42.431Z</time></trkpt><trkpt lat="42.5357367" lon="12.8557"><ele>760.0</ele><time>2026-04-12T11:13:43.434Z</time></trkpt><trkpt lat="42.5357583" lon="12.8559383"><ele>760.0</ele><time>2026-04-12T11:13:44.434Z</time></trkpt><trkpt lat="42.535775" lon="12.8561767"><ele>760.0</ele><time>2026-04-12T11:13:45.434Z</time></trkpt><trkpt lat="42.53581" lon="12.8563917"><ele>760.0</ele><time>2026-04-12T11:13:46.429Z</time></trkpt><trkpt lat="42.5358333" lon="12.8565967"><ele>760.0</ele><time>2026-04-12T11:13:47.432Z</time></trkpt><trkpt lat="42.535835" lon="12.8567867"><ele>760.8</ele><time>2026-04-12T11:13:48.43Z</time></trkpt><trkpt lat="42.5358033" lon="12.8569533"><ele>761.6</ele><time>2026-04-12T11:13:49.428Z</time></trkpt><trkpt lat="42.5357733" lon="12.8571017"><ele>762.4000000000001</ele><time>2026-04-12T11:13:50.434Z</time></trkpt><trkpt lat="42.535775" lon="12.8572317"><ele>763.2</ele><time>2026-04-12T11:13:51.443Z</time></trkpt><trkpt lat="42.5358233" lon="12.8573367"><ele>764.0</ele><time>2026-04-12T11:13:52.431Z</time></trkpt><trkpt lat="42.5359167" lon="12.85739"><ele>764.0</ele><time>2026-04-12T11:13:53.44Z</time></trkpt><trkpt lat="42.5360283" lon="12.85742"><ele>764.0</ele><time>2026-04-12T11:13:54.431Z</time></trkpt><trkpt lat="42.5362133" lon="12.8573233"><ele>764.0</ele><time>2026-04-12T11:13:55.429Z</time></trkpt><trkpt lat="42.5363567" lon="12.8572017"><ele>767.0</ele><time>2026-04-12T11:13:56.434Z</time></trkpt><trkpt lat="42.5365" lon="12.8570233"><ele>770.0</ele><time>2026-04-12T11:13:57.438Z</time></trkpt><trkpt lat="42.53662" lon="12.8568333"><ele>773.0</ele><time>2026-04-12T11:13:58.435Z</time></trkpt><trkpt lat="42.5367133" lon="12.8566217"><ele>766.0</ele><time>2026-04-12T11:13:59.442Z</time></trkpt><trkpt lat="42.5367817" lon="12.85638"><ele>759.0</ele><time>2026-04-12T11:14:00.436Z</time></trkpt><trkpt lat="42.5368583" lon="12.8561467"><ele>752.0</ele><time>2026-04-12T11:14:01.442Z</time></trkpt><trkpt lat="42.5369617" lon="12.8559267"><ele>761.6666666666666</ele><time>2026-04-12T11:14:02.441Z</time></trkpt><trkpt lat="42.5370817" lon="12.8557167"><ele>771.3333333333333</ele><time>2026-04-12T11:14:03.445Z</time></trkpt><trkpt lat="42.5372067" lon="12.855505"><ele>781.0</ele><time>2026-04-12T11:14:04.437Z</time></trkpt><trkpt lat="42.53733" lon="12.855305"><ele>781.0</ele><time>2026-04-12T11:14:05.434Z</time></trkpt><trkpt lat="42.53744" lon="12.855135"><ele>781.0</ele><time>2026-04-12T11:14:06.432Z</time></trkpt><trkpt lat="42.5375183" lon="12.8549333"><ele>781.0</ele><time>2026-04-12T11:14:07.43Z</time></trkpt><trkpt lat="42.5375833" lon="12.8546933"><ele>783.3333333333333</ele><time>2026-04-12T11:14:08.438Z</time></trkpt><trkpt lat="42.5376733" lon="12.854445"><ele>785.6666666666667</ele><time>2026-04-12T11:14:09.442Z</time></trkpt><trkpt lat="42.5377783" lon="12.8542017"><ele>788.0</ele><time>2026-04-12T11:14:10.434Z</time></trkpt><trkpt lat="42.5378917" lon="12.8539967"><ele>788.0</ele><time>2026-04-12T11:14:11.428Z</time></trkpt><trkpt lat="42.5380283" lon="12.8538317"><ele>788.0</ele><time>2026-04-12T11:14:12.439Z</time></trkpt><trkpt lat="42.538155" lon="12.8536767"><ele>788.0</ele><time>2026-04-12T11:14:13.44Z</time></trkpt><trkpt lat="42.53825" lon="12.8534933"><ele>781.0</ele><time>2026-04-12T11:14:14.434Z</time></trkpt><trkpt lat="42.5383167" lon="12.85327"><ele>774.0</ele><time>2026-04-12T11:14:15.442Z</time></trkpt><trkpt lat="42.5383733" lon="12.8530017"><ele>767.0</ele><time>2026-04-12T11:14:16.443Z</time></trkpt><trkpt lat="42.5384367" lon="12.8527167"><ele>759.0</ele><time>2026-04-12T11:14:17.436Z</time></trkpt><trkpt lat="42.5385017" lon="12.852415"><ele>751.0</ele><time>2026-04-12T11:14:18.427Z</time></trkpt><trkpt lat="42.5385833" lon="12.852115"><ele>751.0</ele><time>2026-04-12T11:14:19.429Z</time></trkpt><trkpt lat="42.5386817" lon="12.851815"><ele>751.0</ele><time>2026-04-12T11:14:20.435Z</time></trkpt><trkpt lat="42.5388" lon="12.8515133"><ele>765.5</ele><time>2026-04-12T11:14:21.435Z</time></trkpt><trkpt lat="42.5389133" lon="12.8511983"><ele>780.0</ele><time>2026-04-12T11:14:22.431Z</time></trkpt><trkpt lat="42.5390183" lon="12.85089"><ele>780.0</ele><time>2026-04-12T11:14:23.425Z</time></trkpt><trkpt lat="42.5391" lon="12.8505767"><ele>780.0</ele><time>2026-04-12T11:14:24.435Z</time></trkpt><trkpt lat="42.5391667" lon="12.8502833"><ele>775.3333333333334</ele><time>2026-04-12T11:14:25.44Z</time></trkpt><trkpt lat="42.5392283" lon="12.850015"><ele>770.6666666666667</ele><time>2026-04-12T11:14:26.442Z</time></trkpt><trkpt lat="42.5393083" lon="12.8497767"><ele>766.0</ele><time>2026-04-12T11:14:27.44Z</time></trkpt><trkpt lat="42.5394067" lon="12.8495817"><ele>766.0</ele><time>2026-04-12T11:14:28.437Z</time></trkpt><trkpt lat="42.5395183" lon="12.8494283"><ele>766.0</ele><time>2026-04-12T11:14:29.441Z</time></trkpt><trkpt lat="42.539635" lon="12.84933"><ele>766.0</ele><time>2026-04-12T11:14:30.436Z</time></trkpt><trkpt lat="42.5397767" lon="12.8492933"><ele>766.0</ele><time>2026-04-12T11:14:31.432Z</time></trkpt><trkpt lat="42.5399467" lon="12.849315"><ele>772.0</ele><time>2026-04-12T11:14:32.438Z</time></trkpt><trkpt lat="42.5401133" lon="12.8493933"><ele>778.0</ele><time>2026-04-12T11:14:33.432Z</time></trkpt><trkpt lat="42.5402633" lon="12.84953"><ele>784.0</ele><time>2026-04-12T11:14:34.434Z</time></trkpt><trkpt lat="42.54041" lon="12.84972"><ele>784.0</ele><time>2026-04-12T11:14:35.439Z</time></trkpt><trkpt lat="42.5405667" lon="12.8499133"><ele>784.0</ele><time>2026-04-12T11:14:36.431Z</time></trkpt><trkpt lat="42.5407517" lon="12.850095"><ele>784.0</ele><time>2026-04-12T11:14:37.434Z</time></trkpt><trkpt lat="42.5409633" lon="12.85024"><ele>787.5</ele><time>2026-04-12T11:14:38.439Z</time></trkpt><trkpt lat="42.54119" lon="12.8503567"><ele>791.0</ele><time>2026-04-12T11:14:39.442Z</time></trkpt><trkpt lat="42.5414117" lon="12.8504733"><ele>791.0</ele><time>2026-04-12T11:14:40.431Z</time></trkpt><trkpt lat="42.541625" lon="12.8505983"><ele>791.0</ele><time>2026-04-12T11:14:41.435Z</time></trkpt><trkpt lat="42.5418317" lon="12.8507567"><ele>791.5</ele><time>2026-04-12T11:14:42.433Z</time></trkpt><trkpt lat="42.5420117" lon="12.8509583"><ele>792.0</ele><time>2026-04-12T11:14:43.429Z</time></trkpt><trkpt lat="42.5421733" lon="12.851195"><ele>792.0</ele><time>2026-04-12T11:14:44.437Z</time></trkpt><trkpt lat="42.54232" lon="12.8514667"><ele>792.0</ele><time>2026-04-12T11:14:45.428Z</time></trkpt><trkpt lat="42.5424533" lon="12.851755"><ele>803.5</ele><time>2026-04-12T11:14:46.446Z</time></trkpt><trkpt lat="42.5425933" lon="12.852045"><ele>815.0</ele><time>2026-04-12T11:14:47.429Z</time></trkpt><trkpt lat="42.5427333" lon="12.852325"><ele>816.5</ele><time>2026-04-12T11:14:48.437Z</time></trkpt><trkpt lat="42.54289" lon="12.85257"><ele>818.0</ele><time>2026-04-12T11:14:49.431Z</time></trkpt><trkpt lat="42.5430417" lon="12.852775"><ele>818.0</ele><time>2026-04-12T11:14:50.437Z</time></trkpt><trkpt lat="42.543195" lon="12.8529467"><ele>818.0</ele><time>2026-04-12T11:14:51.433Z</time></trkpt><trkpt lat="42.5433467" lon="12.8530783"><ele>818.0</ele><time>2026-04-12T11:14:52.43Z</time></trkpt><trkpt lat="42.5435267" lon="12.8531517"><ele>813.0</ele><time>2026-04-12T11:14:53.434Z</time></trkpt><trkpt lat="42.5437167" lon="12.853205"><ele>808.0</ele><time>2026-04-12T11:14:54.427Z</time></trkpt><trkpt lat="42.5439217" lon="12.853265"><ele>803.0</ele><time>2026-04-12T11:14:55.433Z</time></trkpt><trkpt lat="42.5441267" lon="12.8533317"><ele>803.0</ele><time>2026-04-12T11:14:56.443Z</time></trkpt><trkpt lat="42.5443483" lon="12.8533917"><ele>803.0</ele><time>2026-04-12T11:14:57.436Z</time></trkpt><trkpt lat="42.544565" lon="12.8534517"><ele>803.0</ele><time>2026-04-12T11:14:58.446Z</time></trkpt><trkpt lat="42.5447617" lon="12.8535017"><ele>812.0</ele><time>2026-04-12T11:14:59.434Z</time></trkpt><trkpt lat="42.54494" lon="12.85354"><ele>821.0</ele><time>2026-04-12T11:15:00.447Z</time></trkpt><trkpt lat="42.5450917" lon="12.853605"><ele>830.0</ele><time>2026-04-12T11:15:01.439Z</time></trkpt><trkpt lat="42.545225" lon="12.853735"><ele>830.0</ele><time>2026-04-12T11:15:02.442Z</time></trkpt><trkpt lat="42.545355" lon="12.8539133"><ele>830.0</ele><time>2026-04-12T11:15:03.433Z</time></trkpt><trkpt lat="42.5454967" lon="12.8541167"><ele>830.0</ele><time>2026-04-12T11:15:04.436Z</time></trkpt><trkpt lat="42.5456383" lon="12.85435"><ele>827.6666666666667</ele><time>2026-04-12T11:15:05.444Z</time></trkpt><trkpt lat="42.54577" lon="12.8546"><ele>825.3333333333333</ele><time>2026-04-12T11:15:06.433Z</time></trkpt><trkpt lat="42.5458683" lon="12.8548567"><ele>823.0</ele><time>2026-04-12T11:15:07.437Z</time></trkpt><trkpt lat="42.5459983" lon="12.855095"><ele>823.0</ele><time>2026-04-12T11:15:08.435Z</time></trkpt><trkpt lat="42.5461417" lon="12.8553283"><ele>823.0</ele><time>2026-04-12T11:15:09.444Z</time></trkpt><trkpt lat="42.54628" lon="12.85554"><ele>823.0</ele><time>2026-04-12T11:15:10.442Z</time></trkpt><trkpt lat="42.5464233" lon="12.8557433"><ele>823.0</ele><time>2026-04-12T11:15:11.44Z</time></trkpt><trkpt lat="42.5465783" lon="12.8559067"><ele>823.0</ele><time>2026-04-12T11:15:12.436Z</time></trkpt><trkpt lat="42.546735" lon="12.85601"><ele>823.0</ele><time>2026-04-12T11:15:13.433Z</time></trkpt><trkpt lat="42.5468933" lon="12.8560517"><ele>822.3333333333333</ele><time>2026-04-12T11:15:14.436Z</time></trkpt><trkpt lat="42.5470683" lon="12.856015"><ele>821.6666666666667</ele><time>2026-04-12T11:15:15.438Z</time></trkpt><trkpt lat="42.54723" lon="12.85594"><ele>821.0</ele><time>2026-04-12T11:15:16.434Z</time></trkpt><trkpt lat="42.54737" lon="12.855875"><ele>821.0</ele><time>2026-04-12T11:15:17.438Z</time></trkpt><trkpt lat="42.5474933" lon="12.8558733"><ele>821.0</ele><time>2026-04-12T11:15:18.436Z</time></trkpt><trkpt lat="42.547605" lon="12.8559533"><ele>821.0</ele><time>2026-04-12T11:15:19.427Z</time></trkpt><trkpt lat="42.54772" lon="12.8561083"><ele>821.0</ele><time>2026-04-12T11:15:20.428Z</time></trkpt><trkpt lat="42.5478333" lon="12.8562983"><ele>820.0</ele><time>2026-04-12T11:15:21.441Z</time></trkpt><trkpt lat="42.5479317" lon="12.856505"><ele>819.0</ele><time>2026-04-12T11:15:22.43Z</time></trkpt><trkpt lat="42.54799" lon="12.8567133"><ele>818.0</ele><time>2026-04-12T11:15:23.436Z</time></trkpt><trkpt lat="42.5480383" lon="12.8569183"><ele>825.0</ele><time>2026-04-12T11:15:24.439Z</time></trkpt><trkpt lat="42.5481083" lon="12.8571117"><ele>832.0</ele><time>2026-04-12T11:15:25.434Z</time></trkpt><trkpt lat="42.5482133" lon="12.857285"><ele>839.0</ele><time>2026-04-12T11:15:26.437Z</time></trkpt><trkpt lat="42.548345" lon="12.857425"><ele>839.0</ele><time>2026-04-12T11:15:27.442Z</time></trkpt><trkpt lat="42.548465" lon="12.857545"><ele>839.0</ele><time>2026-04-12T11:15:28.427Z</time></trkpt><trkpt lat="42.548565" lon="12.8576583"><ele>839.0</ele><time>2026-04-12T11:15:29.435Z</time></trkpt><trkpt lat="42.5486467" lon="12.8577683"><ele>839.0</ele><time>2026-04-12T11:15:30.442Z</time></trkpt><trkpt lat="42.5487017" lon="12.8578983"><ele>842.6</ele><time>2026-04-12T11:15:31.445Z</time></trkpt><trkpt lat="42.5487217" lon="12.85805"><ele>846.2</ele><time>2026-04-12T11:15:32.437Z</time></trkpt><trkpt lat="42.5487067" lon="12.8582"><ele>849.8000000000001</ele><time>2026-04-12T11:15:33.431Z</time></trkpt><trkpt lat="42.5486783" lon="12.8583233"><ele>853.4000000000001</ele><time>2026-04-12T11:15:34.441Z</time></trkpt><trkpt lat="42.54865" lon="12.858425"><ele>857.0</ele><time>2026-04-12T11:15:35.435Z</time></trkpt><trkpt lat="42.5486217" lon="12.8585117"><ele>858.4000000000001</ele><time>2026-04-12T11:15:36.435Z</time></trkpt><trkpt lat="42.548595" lon="12.858645"><ele>859.8000000000001</ele><time>2026-04-12T11:15:38.436Z</time></trkpt><trkpt lat="42.54857" lon="12.858755"><ele>861.2</ele><time>2026-04-12T11:15:41.439Z</time></trkpt><trkpt lat="42.548545" lon="12.85888"><ele>862.6</ele><time>2026-04-12T11:15:44.442Z</time></trkpt><trkpt lat="42.5485167" lon="12.8589833"><ele>864.0</ele><time>2026-04-12T11:15:47.438Z</time></trkpt><trkpt lat="42.5484833" lon="12.85915"><ele>866.5</ele><time>2026-04-12T11:16:01.436Z</time></trkpt><trkpt lat="42.5485683" lon="12.8593133"><ele>869.0</ele><time>2026-04-12T11:16:03.485Z</time></trkpt><trkpt lat="42.54869" lon="12.8593933"><ele>871.5</ele><time>2026-04-12T11:16:04.443Z</time></trkpt><trkpt lat="42.5488283" lon="12.8594217"><ele>874.0</ele><time>2026-04-12T11:16:05.436Z</time></trkpt><trkpt lat="42.5490167" lon="12.8594333"><ele>874.0</ele><time>2026-04-12T11:16:06.438Z</time></trkpt><trkpt lat="42.5492067" lon="12.8594333"><ele>874.0</ele><time>2026-04-12T11:16:07.437Z</time></trkpt><trkpt lat="42.5494117" lon="12.8594233"><ele>874.0</ele><time>2026-04-12T11:16:08.433Z</time></trkpt><trkpt lat="42.5496267" lon="12.8594017"><ele>872.3333333333333</ele><time>2026-04-12T11:16:09.438Z</time></trkpt><trkpt lat="42.5498283" lon="12.8594"><ele>870.6666666666667</ele><time>2026-04-12T11:16:10.438Z</time></trkpt><trkpt lat="42.550005" lon="12.8594133"><ele>869.0</ele><time>2026-04-12T11:16:11.436Z</time></trkpt><trkpt lat="42.550155" lon="12.859445"><ele>869.0</ele><time>2026-04-12T11:16:12.439Z</time></trkpt><trkpt lat="42.5502967" lon="12.8595217"><ele>869.0</ele><time>2026-04-12T11:16:13.428Z</time></trkpt><trkpt lat="42.5504417" lon="12.859645"><ele>869.0</ele><time>2026-04-12T11:16:14.435Z</time></trkpt><trkpt lat="42.5505767" lon="12.859795"><ele>869.0</ele><time>2026-04-12T11:16:15.434Z</time></trkpt><trkpt lat="42.5507083" lon="12.8599867"><ele>869.0</ele><time>2026-04-12T11:16:16.432Z</time></trkpt><trkpt lat="42.5508317" lon="12.8602"><ele>869.0</ele><time>2026-04-12T11:16:17.435Z</time></trkpt><trkpt lat="42.55093" lon="12.8604183"><ele>869.0</ele><time>2026-04-12T11:16:18.438Z</time></trkpt><trkpt lat="42.5509967" lon="12.8606317"><ele>869.0</ele><time>2026-04-12T11:16:19.443Z</time></trkpt><trkpt lat="42.5510367" lon="12.8608483"><ele>869.0</ele><time>2026-04-12T11:16:20.434Z</time></trkpt><trkpt lat="42.5510317" lon="12.8610733"><ele>870.3333333333334</ele><time>2026-04-12T11:16:21.446Z</time></trkpt><trkpt lat="42.5509883" lon="12.8613017"><ele>871.6666666666667</ele><time>2026-04-12T11:16:22.433Z</time></trkpt><trkpt lat="42.550945" lon="12.8615433"><ele>873.0</ele><time>2026-04-12T11:16:23.447Z</time></trkpt><trkpt lat="42.5509033" lon="12.8617833"><ele>874.3333333333333</ele><time>2026-04-12T11:16:24.438Z</time></trkpt><trkpt lat="42.55086" lon="12.8620017"><ele>875.6666666666666</ele><time>2026-04-12T11:16:25.434Z</time></trkpt><trkpt lat="42.5508033" lon="12.8621967"><ele>877.0</ele><time>2026-04-12T11:16:26.448Z</time></trkpt><trkpt lat="42.5507683" lon="12.8623717"><ele>877.0</ele><time>2026-04-12T11:16:27.443Z</time></trkpt><trkpt lat="42.5507417" lon="12.8625317"><ele>877.0</ele><time>2026-04-12T11:16:28.432Z</time></trkpt><trkpt lat="42.55077" lon="12.862655"><ele>877.0</ele><time>2026-04-12T11:16:29.429Z</time></trkpt><trkpt lat="42.5508783" lon="12.8627167"><ele>877.0</ele><time>2026-04-12T11:16:30.439Z</time></trkpt><trkpt lat="42.551005" lon="12.8627267"><ele>877.0</ele><time>2026-04-12T11:16:31.435Z</time></trkpt><trkpt lat="42.5511517" lon="12.86267"><ele>877.0</ele><time>2026-04-12T11:16:32.424Z</time></trkpt><trkpt lat="42.5513067" lon="12.86257"><ele>877.0</ele><time>2026-04-12T11:16:33.429Z</time></trkpt><trkpt lat="42.5514733" lon="12.862425"><ele>877.0</ele><time>2026-04-12T11:16:34.434Z</time></trkpt><trkpt lat="42.55162" lon="12.8622917"><ele>877.0</ele><time>2026-04-12T11:16:35.435Z</time></trkpt><trkpt lat="42.5517517" lon="12.86217"><ele>877.0</ele><time>2026-04-12T11:16:36.442Z</time></trkpt><trkpt lat="42.5518817" lon="12.8621017"><ele>877.0</ele><time>2026-04-12T11:16:37.439Z</time></trkpt><trkpt lat="42.5520083" lon="12.8620883"><ele>877.0</ele><time>2026-04-12T11:16:38.446Z</time></trkpt><trkpt lat="42.552115" lon="12.8621583"><ele>877.0</ele><time>2026-04-12T11:16:39.441Z</time></trkpt><trkpt lat="42.5521883" lon="12.8622817"><ele>877.0</ele><time>2026-04-12T11:16:40.434Z</time></trkpt><trkpt lat="42.55224" lon="12.862455"><ele>880.6666666666666</ele><time>2026-04-12T11:16:41.438Z</time></trkpt><trkpt lat="42.5522917" lon="12.8626767"><ele>884.3333333333333</ele><time>2026-04-12T11:16:42.437Z</time></trkpt><trkpt lat="42.55237" lon="12.8629167"><ele>888.0</ele><time>2026-04-12T11:16:43.431Z</time></trkpt><trkpt lat="42.5524567" lon="12.863165"><ele>888.0</ele><time>2026-04-12T11:16:44.431Z</time></trkpt><trkpt lat="42.5525517" lon="12.8634"><ele>888.0</ele><time>2026-04-12T11:16:45.445Z</time></trkpt><trkpt lat="42.55268" lon="12.8636017"><ele>888.0</ele><time>2026-04-12T11:16:46.444Z</time></trkpt><trkpt lat="42.5528333" lon="12.8637867"><ele>884.0</ele><time>2026-04-12T11:16:47.436Z</time></trkpt><trkpt lat="42.55302" lon="12.863955"><ele>880.0</ele><time>2026-04-12T11:16:48.429Z</time></trkpt><trkpt lat="42.553215" lon="12.8641117"><ele>880.0</ele><time>2026-04-12T11:16:49.434Z</time></trkpt><trkpt lat="42.5533817" lon="12.8642767"><ele>880.0</ele><time>2026-04-12T11:16:50.44Z</time></trkpt><trkpt lat="42.55352" lon="12.8644483"><ele>880.0</ele><time>2026-04-12T11:16:51.431Z</time></trkpt><trkpt lat="42.5536183" lon="12.8646083"><ele>886.0</ele><time>2026-04-12T11:16:52.433Z</time></trkpt><trkpt lat="42.5536667" lon="12.8647583"><ele>892.0</ele><time>2026-04-12T11:16:53.437Z</time></trkpt><trkpt lat="42.5536517" lon="12.86492"><ele>898.0</ele><time>2026-04-12T11:16:54.439Z</time></trkpt><trkpt lat="42.5536067" lon="12.865105"><ele>904.0</ele><time>2026-04-12T11:16:55.437Z</time></trkpt><trkpt lat="42.5535517" lon="12.86531"><ele>906.0</ele><time>2026-04-12T11:16:56.444Z</time></trkpt><trkpt lat="42.5534967" lon="12.8655067"><ele>908.0</ele><time>2026-04-12T11:16:57.432Z</time></trkpt><trkpt lat="42.5534617" lon="12.8656833"><ele>910.0</ele><time>2026-04-12T11:16:58.436Z</time></trkpt><trkpt lat="42.5534717" lon="12.8658367"><ele>912.0</ele><time>2026-04-12T11:16:59.442Z</time></trkpt><trkpt lat="42.5535283" lon="12.865945"><ele>914.3333333333333</ele><time>2026-04-12T11:17:00.439Z</time></trkpt><trkpt lat="42.553625" lon="12.8660217"><ele>916.6666666666666</ele><time>2026-04-12T11:17:01.429Z</time></trkpt><trkpt lat="42.5537983" lon="12.8660417"><ele>919.0</ele><time>2026-04-12T11:17:02.44Z</time></trkpt><trkpt lat="42.5539983" lon="12.8660517"><ele>919.0</ele><time>2026-04-12T11:17:03.435Z</time></trkpt><trkpt lat="42.5541933" lon="12.8660567"><ele>919.0</ele><time>2026-04-12T11:17:04.439Z</time></trkpt><trkpt lat="42.55438" lon="12.8660467"><ele>919.0</ele><time>2026-04-12T11:17:05.428Z</time></trkpt><trkpt lat="42.5545483" lon="12.8660167"><ele>912.75</ele><time>2026-04-12T11:17:06.442Z</time></trkpt><trkpt lat="42.554695" lon="12.86599"><ele>906.5</ele><time>2026-04-12T11:17:07.441Z</time></trkpt><trkpt lat="42.5548167" lon="12.8659983"><ele>900.25</ele><time>2026-04-12T11:17:08.445Z</time></trkpt><trkpt lat="42.55492" lon="12.86606"><ele>894.0</ele><time>2026-04-12T11:17:09.434Z</time></trkpt><trkpt lat="42.554985" lon="12.8661833"><ele>894.0</ele><time>2026-04-12T11:17:10.442Z</time></trkpt><trkpt lat="42.5550033" lon="12.86635"><ele>894.0</ele><time>2026-04-12T11:17:11.444Z</time></trkpt><trkpt lat="42.5549767" lon="12.8665617"><ele>894.0</ele><time>2026-04-12T11:17:12.435Z</time></trkpt><trkpt lat="42.5549033" lon="12.8667717"><ele>898.5</ele><time>2026-04-12T11:17:13.44Z</time></trkpt><trkpt lat="42.5548333" lon="12.8669467"><ele>903.0</ele><time>2026-04-12T11:17:14.432Z</time></trkpt><trkpt lat="42.5547717" lon="12.8671133"><ele>907.5</ele><time>2026-04-12T11:17:15.433Z</time></trkpt><trkpt lat="42.5547633" lon="12.8672717"><ele>912.0</ele><time>2026-04-12T11:17:16.44Z</time></trkpt><trkpt lat="42.5548" lon="12.8673983"><ele>912.0</ele><time>2026-04-12T11:17:17.433Z</time></trkpt><trkpt lat="42.5548767" lon="12.86748"><ele>912.0</ele><time>2026-04-12T11:17:18.438Z</time></trkpt><trkpt lat="42.5549983" lon="12.867505"><ele>912.0</ele><time>2026-04-12T11:17:19.441Z</time></trkpt><trkpt lat="42.555145" lon="12.86747"><ele>912.0</ele><time>2026-04-12T11:17:20.442Z</time></trkpt><trkpt lat="42.55536" lon="12.8674083"><ele>912.3333333333333</ele><time>2026-04-12T11:17:21.489Z</time></trkpt><trkpt lat="42.5555733" lon="12.8673783"><ele>912.6666666666666</ele><time>2026-04-12T11:17:22.442Z</time></trkpt><trkpt lat="42.5557733" lon="12.8673333"><ele>913.0</ele><time>2026-04-12T11:17:23.435Z</time></trkpt><trkpt lat="42.55596" lon="12.8672633"><ele>913.0</ele><time>2026-04-12T11:17:24.445Z</time></trkpt><trkpt lat="42.5561217" lon="12.8672133"><ele>913.0</ele><time>2026-04-12T11:17:25.429Z</time></trkpt><trkpt lat="42.5562667" lon="12.8671933"><ele>913.0</ele><time>2026-04-12T11:17:26.431Z</time></trkpt><trkpt lat="42.5564" lon="12.8672383"><ele>913.0</ele><time>2026-04-12T11:17:27.436Z</time></trkpt><trkpt lat="42.5565133" lon="12.867355"><ele>910.5</ele><time>2026-04-12T11:17:28.433Z</time></trkpt><trkpt lat="42.556605" lon="12.8675217"><ele>908.0</ele><time>2026-04-12T11:17:29.432Z</time></trkpt><trkpt lat="42.556675" lon="12.867695"><ele>905.5</ele><time>2026-04-12T11:17:30.443Z</time></trkpt><trkpt lat="42.55676" lon="12.8678567"><ele>903.0</ele><time>2026-04-12T11:17:31.435Z</time></trkpt><trkpt lat="42.5568733" lon="12.8679683"><ele>901.75</ele><time>2026-04-12T11:17:32.435Z</time></trkpt><trkpt lat="42.5570133" lon="12.868045"><ele>900.5</ele><time>2026-04-12T11:17:33.43Z</time></trkpt><trkpt lat="42.5571417" lon="12.868145"><ele>899.25</ele><time>2026-04-12T11:17:34.443Z</time></trkpt><trkpt lat="42.5572367" lon="12.868275"><ele>898.0</ele><time>2026-04-12T11:17:35.436Z</time></trkpt><trkpt lat="42.557285" lon="12.8684283"><ele>902.75</ele><time>2026-04-12T11:17:36.448Z</time></trkpt><trkpt lat="42.5572817" lon="12.868605"><ele>907.5</ele><time>2026-04-12T11:17:37.434Z</time></trkpt><trkpt lat="42.5572467" lon="12.8688133"><ele>912.25</ele><time>2026-04-12T11:17:38.442Z</time></trkpt><trkpt lat="42.55723" lon="12.8690067"><ele>917.0</ele><time>2026-04-12T11:17:39.441Z</time></trkpt><trkpt lat="42.5572483" lon="12.86919"><ele>924.5</ele><time>2026-04-12T11:17:40.435Z</time></trkpt><trkpt lat="42.557315" lon="12.8693417"><ele>932.0</ele><time>2026-04-12T11:17:41.423Z</time></trkpt><trkpt lat="42.5573867" lon="12.8694867"><ele>939.5</ele><time>2026-04-12T11:17:42.443Z</time></trkpt><trkpt lat="42.5575117" lon="12.8696"><ele>947.0</ele><time>2026-04-12T11:17:43.451Z</time></trkpt><trkpt lat="42.5576667" lon="12.869735"><ele>947.0</ele><time>2026-04-12T11:17:44.443Z</time></trkpt><trkpt lat="42.557785" lon="12.8699317"><ele>947.0</ele><time>2026-04-12T11:17:45.438Z</time></trkpt><trkpt lat="42.5578767" lon="12.870175"><ele>947.0</ele><time>2026-04-12T11:17:46.439Z</time></trkpt><trkpt lat="42.5579717" lon="12.8704317"><ele>950.6666666666667</ele><time>2026-04-12T11:17:47.439Z</time></trkpt><trkpt lat="42.558075" lon="12.8706867"><ele>954.3333333333333</ele><time>2026-04-12T11:17:48.441Z</time></trkpt><trkpt lat="42.55817" lon="12.8709117"><ele>958.0</ele><time>2026-04-12T11:17:49.431Z</time></trkpt><trkpt lat="42.5582667" lon="12.8711183"><ele>958.0</ele><time>2026-04-12T11:17:50.438Z</time></trkpt><trkpt lat="42.558385" lon="12.8712933"><ele>958.0</ele><time>2026-04-12T11:17:51.444Z</time></trkpt><trkpt lat="42.5585217" lon="12.8714267"><ele>958.0</ele><time>2026-04-12T11:17:52.43Z</time></trkpt><trkpt lat="42.5586533" lon="12.8715417"><ele>946.25</ele><time>2026-04-12T11:17:53.435Z</time></trkpt><trkpt lat="42.5587617" lon="12.8716733"><ele>934.5</ele><time>2026-04-12T11:17:54.446Z</time></trkpt><trkpt lat="42.5588217" lon="12.8718183"><ele>922.75</ele><time>2026-04-12T11:17:55.433Z</time></trkpt><trkpt lat="42.55885" lon="12.871975"><ele>911.0</ele><time>2026-04-12T11:17:56.438Z</time></trkpt><trkpt lat="42.558805" lon="12.8721483"><ele>910.3333333333334</ele><time>2026-04-12T11:17:57.439Z</time></trkpt><trkpt lat="42.558735" lon="12.8723583"><ele>909.6666666666667</ele><time>2026-04-12T11:17:58.428Z</time></trkpt><trkpt lat="42.558645" lon="12.8726067"><ele>909.0</ele><time>2026-04-12T11:17:59.431Z</time></trkpt><trkpt lat="42.55858" lon="12.8728833"><ele>919.3333333333333</ele><time>2026-04-12T11:18:00.434Z</time></trkpt><trkpt lat="42.55852" lon="12.87317"><ele>929.6666666666666</ele><time>2026-04-12T11:18:01.446Z</time></trkpt><trkpt lat="42.5584417" lon="12.8734283"><ele>940.0</ele><time>2026-04-12T11:18:02.447Z</time></trkpt><trkpt lat="42.5583633" lon="12.8736617"><ele>940.0</ele><time>2026-04-12T11:18:03.443Z</time></trkpt><trkpt lat="42.558285" lon="12.8738683"><ele>940.0</ele><time>2026-04-12T11:18:04.432Z</time></trkpt><trkpt lat="42.558205" lon="12.87403"><ele>940.0</ele><time>2026-04-12T11:18:05.441Z</time></trkpt><trkpt lat="42.558095" lon="12.8741417"><ele>940.0</ele><time>2026-04-12T11:18:06.43Z</time></trkpt><trkpt lat="42.5579467" lon="12.8742133"><ele>940.0</ele><time>2026-04-12T11:18:07.436Z</time></trkpt><trkpt lat="42.5577483" lon="12.87429"><ele>940.0</ele><time>2026-04-12T11:18:08.441Z</time></trkpt><trkpt lat="42.5575517" lon="12.87441"><ele>944.5</ele><time>2026-04-12T11:18:09.435Z</time></trkpt><trkpt lat="42.55735" lon="12.874565"><ele>949.0</ele><time>2026-04-12T11:18:10.436Z</time></trkpt><trkpt lat="42.5571483" lon="12.874745"><ele>953.5</ele><time>2026-04-12T11:18:11.438Z</time></trkpt><trkpt lat="42.55693" lon="12.874935"><ele>958.0</ele><time>2026-04-12T11:18:12.432Z</time></trkpt><trkpt lat="42.5567067" lon="12.875155"><ele>958.0</ele><time>2026-04-12T11:18:13.44Z</time></trkpt><trkpt lat="42.5564917" lon="12.87539"><ele>958.0</ele><time>2026-04-12T11:18:14.446Z</time></trkpt><trkpt lat="42.5562867" lon="12.875615"><ele>964.3333333333333</ele><time>2026-04-12T11:18:15.433Z</time></trkpt><trkpt lat="42.556105" lon="12.875815"><ele>970.6666666666667</ele><time>2026-04-12T11:18:16.438Z</time></trkpt><trkpt lat="42.5559483" lon="12.87599"><ele>977.0</ele><time>2026-04-12T11:18:17.441Z</time></trkpt><trkpt lat="42.5558183" lon="12.87615"><ele>977.0</ele><time>2026-04-12T11:18:18.429Z</time></trkpt><trkpt lat="42.5557033" lon="12.8762833"><ele>977.0</ele><time>2026-04-12T11:18:19.432Z</time></trkpt><trkpt lat="42.55563" lon="12.876425"><ele>977.0</ele><time>2026-04-12T11:18:20.431Z</time></trkpt><trkpt lat="42.555585" lon="12.8765867"><ele>977.0</ele><time>2026-04-12T11:18:21.433Z</time></trkpt><trkpt lat="42.5555767" lon="12.876775"><ele>980.0</ele><time>2026-04-12T11:18:22.435Z</time></trkpt><trkpt lat="42.5556167" lon="12.8769417"><ele>983.0</ele><time>2026-04-12T11:18:23.439Z</time></trkpt><trkpt lat="42.55569" lon="12.8770617"><ele>986.0</ele><time>2026-04-12T11:18:24.437Z</time></trkpt><trkpt lat="42.555785" lon="12.8771317"><ele>989.0</ele><time>2026-04-12T11:18:25.436Z</time></trkpt><trkpt lat="42.5560367" lon="12.87705"><ele>995.0</ele><time>2026-04-12T11:18:26.433Z</time></trkpt><trkpt lat="42.5562183" lon="12.876945"><ele>1001.0</ele><time>2026-04-12T11:18:27.437Z</time></trkpt><trkpt lat="42.5563867" lon="12.8768517"><ele>1007.0</ele><time>2026-04-12T11:18:28.425Z</time></trkpt><trkpt lat="42.5565717" lon="12.8767817"><ele>999.0</ele><time>2026-04-12T11:18:29.437Z</time></trkpt><trkpt lat="42.5567833" lon="12.8767483"><ele>991.0</ele><time>2026-04-12T11:18:30.44Z</time></trkpt><trkpt lat="42.5570017" lon="12.8767167"><ele>983.0</ele><time>2026-04-12T11:18:31.429Z</time></trkpt><trkpt lat="42.5572333" lon="12.87668"><ele>983.0</ele><time>2026-04-12T11:18:32.431Z</time></trkpt><trkpt lat="42.5574733" lon="12.87664"><ele>983.0</ele><time>2026-04-12T11:18:33.43Z</time></trkpt><trkpt lat="42.557705" lon="12.8766033"><ele>985.3333333333334</ele><time>2026-04-12T11:18:34.434Z</time></trkpt><trkpt lat="42.5579117" lon="12.8765717"><ele>987.6666666666667</ele><time>2026-04-12T11:18:35.44Z</time></trkpt><trkpt lat="42.558095" lon="12.8765483"><ele>990.0</ele><time>2026-04-12T11:18:36.437Z</time></trkpt><trkpt lat="42.55826" lon="12.8765433"><ele>990.0</ele><time>2026-04-12T11:18:37.435Z</time></trkpt><trkpt lat="42.5584017" lon="12.8765617"><ele>990.0</ele><time>2026-04-12T11:18:38.432Z</time></trkpt><trkpt lat="42.5585317" lon="12.876625"><ele>990.0</ele><time>2026-04-12T11:18:39.433Z</time></trkpt><trkpt lat="42.5586483" lon="12.876755"><ele>990.0</ele><time>2026-04-12T11:18:40.438Z</time></trkpt><trkpt lat="42.5587383" lon="12.8769633"><ele>987.6666666666667</ele><time>2026-04-12T11:18:41.437Z</time></trkpt><trkpt lat="42.5588017" lon="12.8772083"><ele>985.3333333333334</ele><time>2026-04-12T11:18:42.438Z</time></trkpt><trkpt lat="42.5588617" lon="12.8774517"><ele>983.0</ele><time>2026-04-12T11:18:43.43Z</time></trkpt><trkpt lat="42.55894" lon="12.8776933"><ele>988.0</ele><time>2026-04-12T11:18:44.434Z</time></trkpt><trkpt lat="42.55902" lon="12.877935"><ele>993.0</ele><time>2026-04-12T11:18:45.433Z</time></trkpt><trkpt lat="42.5590817" lon="12.8782017"><ele>998.0</ele><time>2026-04-12T11:18:46.428Z</time></trkpt><trkpt lat="42.5591367" lon="12.87851"><ele>1007.5</ele><time>2026-04-12T11:18:47.437Z</time></trkpt><trkpt lat="42.5591933" lon="12.8788433"><ele>1017.0</ele><time>2026-04-12T11:18:48.436Z</time></trkpt><trkpt lat="42.5592633" lon="12.8791567"><ele>1020.6666666666667</ele><time>2026-04-12T11:18:49.43Z</time></trkpt><trkpt lat="42.5593233" lon="12.8794483"><ele>1024.3333333333335</ele><time>2026-04-12T11:18:50.443Z</time></trkpt><trkpt lat="42.559365" lon="12.879725"><ele>1028.0</ele><time>2026-04-12T11:18:51.438Z</time></trkpt><trkpt lat="42.5593717" lon="12.8800217"><ele>1031.0</ele><time>2026-04-12T11:18:52.431Z</time></trkpt><trkpt lat="42.5593533" lon="12.880335"><ele>1034.0</ele><time>2026-04-12T11:18:53.448Z</time></trkpt><trkpt lat="42.5593267" lon="12.88067"><ele>1036.5</ele><time>2026-04-12T11:18:54.435Z</time></trkpt><trkpt lat="42.55932" lon="12.8810083"><ele>1039.0</ele><time>2026-04-12T11:18:55.447Z</time></trkpt><trkpt lat="42.559335" lon="12.8813383"><ele>1039.0</ele><time>2026-04-12T11:18:56.434Z</time></trkpt><trkpt lat="42.55937" lon="12.8816633"><ele>1039.0</ele><time>2026-04-12T11:18:57.434Z</time></trkpt><trkpt lat="42.559425" lon="12.8819867"><ele>1046.5</ele><time>2026-04-12T11:18:58.434Z</time></trkpt><trkpt lat="42.55948" lon="12.8822967"><ele>1054.0</ele><time>2026-04-12T11:18:59.428Z</time></trkpt><trkpt lat="42.559555" lon="12.8825817"><ele>1036.3333333333333</ele><time>2026-04-12T11:19:00.436Z</time></trkpt><trkpt lat="42.55963" lon="12.88284"><ele>1018.6666666666667</ele><time>2026-04-12T11:19:01.432Z</time></trkpt><trkpt lat="42.5597" lon="12.8830783"><ele>1001.0</ele><time>2026-04-12T11:19:02.435Z</time></trkpt><trkpt lat="42.5597417" lon="12.88331"><ele>1001.6666666666667</ele><time>2026-04-12T11:19:03.44Z</time></trkpt><trkpt lat="42.55975" lon="12.8835217"><ele>1002.3333333333333</ele><time>2026-04-12T11:19:04.432Z</time></trkpt><trkpt lat="42.5597183" lon="12.8837117"><ele>1003.0</ele><time>2026-04-12T11:19:05.437Z</time></trkpt><trkpt lat="42.5596383" lon="12.8838867"><ele>1003.0</ele><time>2026-04-12T11:19:06.444Z</time></trkpt><trkpt lat="42.55956" lon="12.8840467"><ele>1003.0</ele><time>2026-04-12T11:19:07.439Z</time></trkpt><trkpt lat="42.5595033" lon="12.8842117"><ele>1003.0</ele><time>2026-04-12T11:19:08.44Z</time></trkpt><trkpt lat="42.5594833" lon="12.884385"><ele>1003.0</ele><time>2026-04-12T11:19:09.43Z</time></trkpt><trkpt lat="42.5595067" lon="12.8845633"><ele>1010.0</ele><time>2026-04-12T11:19:10.43Z</time></trkpt><trkpt lat="42.5595833" lon="12.8847283"><ele>1017.0</ele><time>2026-04-12T11:19:11.432Z</time></trkpt><trkpt lat="42.5597133" lon="12.8848767"><ele>1024.0</ele><time>2026-04-12T11:19:12.429Z</time></trkpt><trkpt lat="42.5598683" lon="12.885025"><ele>1033.3333333333333</ele><time>2026-04-12T11:19:13.431Z</time></trkpt><trkpt lat="42.560025" lon="12.8851917"><ele>1042.6666666666667</ele><time>2026-04-12T11:19:14.435Z</time></trkpt><trkpt lat="42.5601817" lon="12.885375"><ele>1052.0</ele><time>2026-04-12T11:19:15.433Z</time></trkpt><trkpt lat="42.560355" lon="12.8855567"><ele>1048.0</ele><time>2026-04-12T11:19:16.435Z</time></trkpt><trkpt lat="42.5605317" lon="12.88572"><ele>1044.0</ele><time>2026-04-12T11:19:17.429Z</time></trkpt><trkpt lat="42.56069" lon="12.8859083"><ele>1040.0</ele><time>2026-04-12T11:19:18.44Z</time></trkpt><trkpt lat="42.560835" lon="12.88613"><ele>1040.0</ele><time>2026-04-12T11:19:19.438Z</time></trkpt><trkpt lat="42.56097" lon="12.8863583"><ele>1040.0</ele><time>2026-04-12T11:19:20.434Z</time></trkpt><trkpt lat="42.5610933" lon="12.8865733"><ele>1040.0</ele><time>2026-04-12T11:19:21.438Z</time></trkpt><trkpt lat="42.56119" lon="12.886795"><ele>1037.6666666666667</ele><time>2026-04-12T11:19:22.43Z</time></trkpt><trkpt lat="42.5612683" lon="12.88704"><ele>1035.3333333333333</ele><time>2026-04-12T11:19:23.446Z</time></trkpt><trkpt lat="42.56132" lon="12.8873217"><ele>1033.0</ele><time>2026-04-12T11:19:24.438Z</time></trkpt><trkpt lat="42.5613583" lon="12.88762"><ele>1033.0</ele><time>2026-04-12T11:19:25.432Z</time></trkpt><trkpt lat="42.5613917" lon="12.8879333"><ele>1033.0</ele><time>2026-04-12T11:19:26.442Z</time></trkpt><trkpt lat="42.5614333" lon="12.8882517"><ele>1037.0</ele><time>2026-04-12T11:19:27.435Z</time></trkpt><trkpt lat="42.56148" lon="12.8885817"><ele>1041.0</ele><time>2026-04-12T11:19:28.436Z</time></trkpt><trkpt lat="42.5615233" lon="12.8889167"><ele>1041.0</ele><time>2026-04-12T11:19:29.435Z</time></trkpt><trkpt lat="42.5615667" lon="12.8892367"><ele>1041.0</ele><time>2026-04-12T11:19:30.435Z</time></trkpt><trkpt lat="42.561605" lon="12.889535"><ele>1042.6666666666667</ele><time>2026-04-12T11:19:31.436Z</time></trkpt><trkpt lat="42.561645" lon="12.8898133"><ele>1044.3333333333335</ele><time>2026-04-12T11:19:32.432Z</time></trkpt><trkpt lat="42.56168" lon="12.8900667"><ele>1046.0</ele><time>2026-04-12T11:19:33.433Z</time></trkpt><trkpt lat="42.5617117" lon="12.8902983"><ele>1048.3333333333335</ele><time>2026-04-12T11:19:34.441Z</time></trkpt><trkpt lat="42.5617567" lon="12.89051"><ele>1050.6666666666667</ele><time>2026-04-12T11:19:35.436Z</time></trkpt><trkpt lat="42.5618283" lon="12.8906983"><ele>1053.0</ele><time>2026-04-12T11:19:36.435Z</time></trkpt><trkpt lat="42.56194" lon="12.89087"><ele>1047.3333333333333</ele><time>2026-04-12T11:19:37.432Z</time></trkpt><trkpt lat="42.5620667" lon="12.8910333"><ele>1041.6666666666665</ele><time>2026-04-12T11:19:38.433Z</time></trkpt><trkpt lat="42.5621683" lon="12.89121"><ele>1036.0</ele><time>2026-04-12T11:19:39.43Z</time></trkpt><trkpt lat="42.562245" lon="12.8914133"><ele>1036.0</ele><time>2026-04-12T11:19:40.441Z</time></trkpt><trkpt lat="42.5622883" lon="12.8916467"><ele>1036.0</ele><time>2026-04-12T11:19:41.437Z</time></trkpt><trkpt lat="42.5623117" lon="12.8918717"><ele>1036.0</ele><time>2026-04-12T11:19:42.442Z</time></trkpt><trkpt lat="42.5623017" lon="12.8920733"><ele>1036.75</ele><time>2026-04-12T11:19:43.439Z</time></trkpt><trkpt lat="42.5622533" lon="12.89225"><ele>1037.5</ele><time>2026-04-12T11:19:44.436Z</time></trkpt><trkpt lat="42.56216" lon="12.89239"><ele>1038.25</ele><time>2026-04-12T11:19:45.443Z</time></trkpt><trkpt lat="42.5620833" lon="12.8925233"><ele>1039.0</ele><time>2026-04-12T11:19:46.439Z</time></trkpt><trkpt lat="42.5620333" lon="12.8926633"><ele>1042.0</ele><time>2026-04-12T11:19:47.436Z</time></trkpt><trkpt lat="42.5620233" lon="12.89281"><ele>1045.0</ele><time>2026-04-12T11:19:48.439Z</time></trkpt><trkpt lat="42.562065" lon="12.892935"><ele>1048.0</ele><time>2026-04-12T11:19:49.436Z</time></trkpt><trkpt lat="42.562165" lon="12.8930283"><ele>1051.0</ele><time>2026-04-12T11:19:50.437Z</time></trkpt><trkpt lat="42.5623083" lon="12.8930783"><ele>1051.0</ele><time>2026-04-12T11:19:51.427Z</time></trkpt><trkpt lat="42.5624483" lon="12.8930983"><ele>1051.0</ele><time>2026-04-12T11:19:52.434Z</time></trkpt><trkpt lat="42.5625667" lon="12.8931617"><ele>1051.0</ele><time>2026-04-12T11:19:53.433Z</time></trkpt><trkpt lat="42.5626367" lon="12.8932567"><ele>1051.0</ele><time>2026-04-12T11:19:54.442Z</time></trkpt><trkpt lat="42.5626833" lon="12.89338"><ele>1052.0</ele><time>2026-04-12T11:19:55.435Z</time></trkpt><trkpt lat="42.5626983" lon="12.8935367"><ele>1053.0</ele><time>2026-04-12T11:19:56.434Z</time></trkpt><trkpt lat="42.5626833" lon="12.8937367"><ele>1054.0</ele><time>2026-04-12T11:19:57.446Z</time></trkpt><trkpt lat="42.5626433" lon="12.8939883"><ele>1054.0</ele><time>2026-04-12T11:19:58.437Z</time></trkpt><trkpt lat="42.5625867" lon="12.8942417"><ele>1054.0</ele><time>2026-04-12T11:19:59.438Z</time></trkpt><trkpt lat="42.56251" lon="12.89446"><ele>1054.0</ele><time>2026-04-12T11:20:00.438Z</time></trkpt><trkpt lat="42.562435" lon="12.8946533"><ele>1054.0</ele><time>2026-04-12T11:20:01.43Z</time></trkpt><trkpt lat="42.56239" lon="12.8948683"><ele>1054.0</ele><time>2026-04-12T11:20:02.448Z</time></trkpt><trkpt lat="42.5623783" lon="12.8951133"><ele>1054.0</ele><time>2026-04-12T11:20:03.431Z</time></trkpt><trkpt lat="42.562405" lon="12.8953817"><ele>1054.0</ele><time>2026-04-12T11:20:04.438Z</time></trkpt><trkpt lat="42.562415" lon="12.8956617"><ele>1054.0</ele><time>2026-04-12T11:20:05.428Z</time></trkpt><trkpt lat="42.562395" lon="12.8959567"><ele>1054.0</ele><time>2026-04-12T11:20:06.434Z</time></trkpt><trkpt lat="42.5623683" lon="12.89625"><ele>1054.6666666666665</ele><time>2026-04-12T11:20:07.433Z</time></trkpt><trkpt lat="42.562365" lon="12.8965133"><ele>1055.3333333333333</ele><time>2026-04-12T11:20:08.438Z</time></trkpt><trkpt lat="42.5623833" lon="12.8967367"><ele>1056.0</ele><time>2026-04-12T11:20:09.435Z</time></trkpt><trkpt lat="42.5624267" lon="12.89692"><ele>1060.0</ele><time>2026-04-12T11:20:10.43Z</time></trkpt><trkpt lat="42.5625183" lon="12.8970867"><ele>1064.0</ele><time>2026-04-12T11:20:11.434Z</time></trkpt><trkpt lat="42.5626617" lon="12.8972517"><ele>1068.0</ele><time>2026-04-12T11:20:12.437Z</time></trkpt><trkpt lat="42.5628133" lon="12.8974317"><ele>1061.0</ele><time>2026-04-12T11:20:13.442Z</time></trkpt><trkpt lat="42.56295" lon="12.8976483"><ele>1054.0</ele><time>2026-04-12T11:20:14.435Z</time></trkpt><trkpt lat="42.5630717" lon="12.897915"><ele>1047.0</ele><time>2026-04-12T11:20:15.433Z</time></trkpt><trkpt lat="42.5631733" lon="12.8981917"><ele>1047.3333333333333</ele><time>2026-04-12T11:20:16.432Z</time></trkpt><trkpt lat="42.563245" lon="12.89845"><ele>1047.6666666666665</ele><time>2026-04-12T11:20:17.441Z</time></trkpt><trkpt lat="42.5632867" lon="12.89868"><ele>1048.0</ele><time>2026-04-12T11:20:18.436Z</time></trkpt><trkpt lat="42.5632967" lon="12.8989017"><ele>1048.0</ele><time>2026-04-12T11:20:19.432Z</time></trkpt><trkpt lat="42.563275" lon="12.89912"><ele>1048.0</ele><time>2026-04-12T11:20:20.441Z</time></trkpt><trkpt lat="42.5632133" lon="12.8993167"><ele>1048.0</ele><time>2026-04-12T11:20:21.45Z</time></trkpt><trkpt lat="42.5631617" lon="12.8995083"><ele>1049.6666666666665</ele><time>2026-04-12T11:20:22.443Z</time></trkpt><trkpt lat="42.5631433" lon="12.8997067"><ele>1051.3333333333333</ele><time>2026-04-12T11:20:23.436Z</time></trkpt><trkpt lat="42.5631767" lon="12.8999183"><ele>1053.0</ele><time>2026-04-12T11:20:24.443Z</time></trkpt><trkpt lat="42.5632567" lon="12.900135"><ele>1058.6666666666667</ele><time>2026-04-12T11:20:25.431Z</time></trkpt><trkpt lat="42.5633883" lon="12.90036"><ele>1064.3333333333335</ele><time>2026-04-12T11:20:26.44Z</time></trkpt><trkpt lat="42.5635283" lon="12.9005933"><ele>1070.0</ele><time>2026-04-12T11:20:27.436Z</time></trkpt><trkpt lat="42.5636683" lon="12.9008083"><ele>1061.3333333333335</ele><time>2026-04-12T11:20:28.441Z</time></trkpt><trkpt lat="42.5637883" lon="12.90103"><ele>1052.6666666666667</ele><time>2026-04-12T11:20:29.433Z</time></trkpt><trkpt lat="42.563875" lon="12.90126"><ele>1044.0</ele><time>2026-04-12T11:20:30.432Z</time></trkpt><trkpt lat="42.56393" lon="12.901475"><ele>1044.0</ele><time>2026-04-12T11:20:31.436Z</time></trkpt><trkpt lat="42.5639267" lon="12.9016917"><ele>1044.0</ele><time>2026-04-12T11:20:32.431Z</time></trkpt><trkpt lat="42.5638833" lon="12.901895"><ele>1044.0</ele><time>2026-04-12T11:20:33.433Z</time></trkpt><trkpt lat="42.5638333" lon="12.90208"><ele>1045.25</ele><time>2026-04-12T11:20:34.439Z</time></trkpt><trkpt lat="42.5638217" lon="12.9022467"><ele>1046.5</ele><time>2026-04-12T11:20:35.435Z</time></trkpt><trkpt lat="42.563855" lon="12.902405"><ele>1047.75</ele><time>2026-04-12T11:20:36.431Z</time></trkpt><trkpt lat="42.563945" lon="12.90253"><ele>1049.0</ele><time>2026-04-12T11:20:37.44Z</time></trkpt><trkpt lat="42.5640533" lon="12.9026217"><ele>1049.25</ele><time>2026-04-12T11:20:38.442Z</time></trkpt><trkpt lat="42.56416" lon="12.90272"><ele>1049.5</ele><time>2026-04-12T11:20:39.432Z</time></trkpt><trkpt lat="42.5642467" lon="12.902865"><ele>1049.75</ele><time>2026-04-12T11:20:40.43Z</time></trkpt><trkpt lat="42.5643" lon="12.9030583"><ele>1050.0</ele><time>2026-04-12T11:20:41.434Z</time></trkpt><trkpt lat="42.564355" lon="12.9032767"><ele>1048.6666666666667</ele><time>2026-04-12T11:20:42.436Z</time></trkpt><trkpt lat="42.5644283" lon="12.9035283"><ele>1047.3333333333335</ele><time>2026-04-12T11:20:43.433Z</time></trkpt><trkpt lat="42.5645233" lon="12.9037867"><ele>1046.0</ele><time>2026-04-12T11:20:44.435Z</time></trkpt><trkpt lat="42.5646217" lon="12.90404"><ele>1057.0</ele><time>2026-04-12T11:20:45.431Z</time></trkpt><trkpt lat="42.5647033" lon="12.9043183"><ele>1068.0</ele><time>2026-04-12T11:20:46.434Z</time></trkpt><trkpt lat="42.5647633" lon="12.9046317"><ele>1068.0</ele><time>2026-04-12T11:20:47.44Z</time></trkpt><trkpt lat="42.5648233" lon="12.9049567"><ele>1068.0</ele><time>2026-04-12T11:20:48.439Z</time></trkpt><trkpt lat="42.5648917" lon="12.9052917"><ele>1069.0</ele><time>2026-04-12T11:20:49.433Z</time></trkpt><trkpt lat="42.5649533" lon="12.90563"><ele>1070.0</ele><time>2026-04-12T11:20:50.445Z</time></trkpt><trkpt lat="42.5650017" lon="12.9059617"><ele>1070.5</ele><time>2026-04-12T11:20:51.436Z</time></trkpt><trkpt lat="42.565015" lon="12.9062983"><ele>1071.0</ele><time>2026-04-12T11:20:52.433Z</time></trkpt><trkpt lat="42.5650083" lon="12.9066517"><ele>1072.0</ele><time>2026-04-12T11:20:53.433Z</time></trkpt><trkpt lat="42.5650133" lon="12.9070083"><ele>1073.0</ele><time>2026-04-12T11:20:54.44Z</time></trkpt><trkpt lat="42.5650317" lon="12.907345"><ele>1072.3333333333335</ele><time>2026-04-12T11:20:55.435Z</time></trkpt><trkpt lat="42.5650517" lon="12.90765"><ele>1071.6666666666667</ele><time>2026-04-12T11:20:56.427Z</time></trkpt><trkpt lat="42.56507" lon="12.9079317"><ele>1071.0</ele><time>2026-04-12T11:20:57.433Z</time></trkpt><trkpt lat="42.5651033" lon="12.90818"><ele>1071.0</ele><time>2026-04-12T11:20:58.439Z</time></trkpt><trkpt lat="42.565165" lon="12.9083867"><ele>1071.0</ele><time>2026-04-12T11:20:59.432Z</time></trkpt><trkpt lat="42.5652633" lon="12.9085367"><ele>1071.0</ele><time>2026-04-12T11:21:00.435Z</time></trkpt><trkpt lat="42.5653667" lon="12.9086417"><ele>1071.0</ele><time>2026-04-12T11:21:01.43Z</time></trkpt><trkpt lat="42.5654433" lon="12.90876"><ele>1072.75</ele><time>2026-04-12T11:21:02.437Z</time></trkpt><trkpt lat="42.56548" lon="12.9089033"><ele>1074.5</ele><time>2026-04-12T11:21:03.438Z</time></trkpt><trkpt lat="42.5654633" lon="12.9090767"><ele>1076.25</ele><time>2026-04-12T11:21:04.442Z</time></trkpt><trkpt lat="42.565405" lon="12.9092867"><ele>1078.0</ele><time>2026-04-12T11:21:05.431Z</time></trkpt><trkpt lat="42.5653483" lon="12.9095383"><ele>1078.0</ele><time>2026-04-12T11:21:06.429Z</time></trkpt><trkpt lat="42.5652867" lon="12.9098233"><ele>1078.0</ele><time>2026-04-12T11:21:07.435Z</time></trkpt><trkpt lat="42.565205" lon="12.9101267"><ele>1084.5</ele><time>2026-04-12T11:21:08.439Z</time></trkpt><trkpt lat="42.5651" lon="12.91044"><ele>1091.0</ele><time>2026-04-12T11:21:09.434Z</time></trkpt><trkpt lat="42.5650017" lon="12.910775"><ele>1097.5</ele><time>2026-04-12T11:21:10.424Z</time></trkpt><trkpt lat="42.5649233" lon="12.911125"><ele>1104.0</ele><time>2026-04-12T11:21:11.436Z</time></trkpt><trkpt lat="42.5648567" lon="12.9114917"><ele>1111.0</ele><time>2026-04-12T11:21:12.449Z</time></trkpt><trkpt lat="42.5647833" lon="12.9118617"><ele>1118.0</ele><time>2026-04-12T11:21:13.435Z</time></trkpt><trkpt lat="42.5647033" lon="12.9122083"><ele>1118.0</ele><time>2026-04-12T11:21:14.442Z</time></trkpt><trkpt lat="42.5646233" lon="12.91253"><ele>1118.0</ele><time>2026-04-12T11:21:15.442Z</time></trkpt><trkpt lat="42.5645483" lon="12.912825"><ele>1114.0</ele><time>2026-04-12T11:21:16.427Z</time></trkpt><trkpt lat="42.5644783" lon="12.9131067"><ele>1110.0</ele><time>2026-04-12T11:21:17.435Z</time></trkpt><trkpt lat="42.5644233" lon="12.9133667"><ele>1106.0</ele><time>2026-04-12T11:21:18.432Z</time></trkpt><trkpt lat="42.5643867" lon="12.9136183"><ele>1106.0</ele><time>2026-04-12T11:21:19.44Z</time></trkpt><trkpt lat="42.5643767" lon="12.91385"><ele>1106.0</ele><time>2026-04-12T11:21:20.435Z</time></trkpt><trkpt lat="42.564375" lon="12.9140667"><ele>1106.0</ele><time>2026-04-12T11:21:21.429Z</time></trkpt><trkpt lat="42.564375" lon="12.914285"><ele>1108.3333333333335</ele><time>2026-04-12T11:21:22.438Z</time></trkpt><trkpt lat="42.5643733" lon="12.9144967"><ele>1110.6666666666667</ele><time>2026-04-12T11:21:23.434Z</time></trkpt><trkpt lat="42.5643767" lon="12.914715"><ele>1113.0</ele><time>2026-04-12T11:21:24.432Z</time></trkpt><trkpt lat="42.56437" lon="12.9149433"><ele>1112.6666666666667</ele><time>2026-04-12T11:21:25.439Z</time></trkpt><trkpt lat="42.5645133" lon="12.9150967"><ele>1112.3333333333335</ele><time>2026-04-12T11:21:26.441Z</time></trkpt><trkpt lat="42.5646517" lon="12.9152333"><ele>1112.0</ele><time>2026-04-12T11:21:27.447Z</time></trkpt><trkpt lat="42.5648417" lon="12.915345"><ele>1112.0</ele><time>2026-04-12T11:21:28.434Z</time></trkpt><trkpt lat="42.5650717" lon="12.9154367"><ele>1112.0</ele><time>2026-04-12T11:21:29.427Z</time></trkpt><trkpt lat="42.5652283" lon="12.9155417"><ele>1112.0</ele><time>2026-04-12T11:21:30.425Z</time></trkpt><trkpt lat="42.5653567" lon="12.9156367"><ele>1110.5</ele><time>2026-04-12T11:21:31.431Z</time></trkpt><trkpt lat="42.5654817" lon="12.9157267"><ele>1109.0</ele><time>2026-04-12T11:21:32.438Z</time></trkpt><trkpt lat="42.5655967" lon="12.9158133"><ele>1107.5</ele><time>2026-04-12T11:21:33.434Z</time></trkpt><trkpt lat="42.5657067" lon="12.9158933"><ele>1106.0</ele><time>2026-04-12T11:21:34.445Z</time></trkpt><trkpt lat="42.5658217" lon="12.9159733"><ele>1106.0</ele><time>2026-04-12T11:21:35.436Z</time></trkpt><trkpt lat="42.5659333" lon="12.9160517"><ele>1106.0</ele><time>2026-04-12T11:21:36.423Z</time></trkpt><trkpt lat="42.56604" lon="12.9161283"><ele>1106.0</ele><time>2026-04-12T11:21:37.423Z</time></trkpt><trkpt lat="42.566145" lon="12.9162083"><ele>1106.0</ele><time>2026-04-12T11:21:38.441Z</time></trkpt><trkpt lat="42.5662483" lon="12.9162883"><ele>1102.25</ele><time>2026-04-12T11:21:39.436Z</time></trkpt><trkpt lat="42.5663567" lon="12.9163667"><ele>1098.5</ele><time>2026-04-12T11:21:40.435Z</time></trkpt><trkpt lat="42.5664733" lon="12.9164433"><ele>1094.75</ele><time>2026-04-12T11:21:41.436Z</time></trkpt><trkpt lat="42.566605" lon="12.9165233"><ele>1091.0</ele><time>2026-04-12T11:21:42.424Z</time></trkpt><trkpt lat="42.5667583" lon="12.9166083"><ele>1091.0</ele><time>2026-04-12T11:21:43.43Z</time></trkpt><trkpt lat="42.5669383" lon="12.9166983"><ele>1091.0</ele><time>2026-04-12T11:21:44.432Z</time></trkpt><trkpt lat="42.5671333" lon="12.9167833"><ele>1091.0</ele><time>2026-04-12T11:21:45.44Z</time></trkpt><trkpt lat="42.567345" lon="12.9168567"><ele>1087.5</ele><time>2026-04-12T11:21:46.427Z</time></trkpt><trkpt lat="42.56757" lon="12.9169267"><ele>1084.0</ele><time>2026-04-12T11:21:47.433Z</time></trkpt><trkpt lat="42.5678117" lon="12.91699"><ele>1081.0</ele><time>2026-04-12T11:21:48.434Z</time></trkpt><trkpt lat="42.5680683" lon="12.917045"><ele>1078.0</ele><time>2026-04-12T11:21:49.431Z</time></trkpt><trkpt lat="42.5683317" lon="12.917095"><ele>1078.0</ele><time>2026-04-12T11:21:50.44Z</time></trkpt><trkpt lat="42.5686017" lon="12.917155"><ele>1078.0</ele><time>2026-04-12T11:21:51.435Z</time></trkpt><trkpt lat="42.5688683" lon="12.9172167"><ele>1076.5</ele><time>2026-04-12T11:21:52.434Z</time></trkpt><trkpt lat="42.56913" lon="12.9172767"><ele>1075.0</ele><time>2026-04-12T11:21:53.438Z</time></trkpt><trkpt lat="42.56939" lon="12.9173367"><ele>1076.5</ele><time>2026-04-12T11:21:54.437Z</time></trkpt><trkpt lat="42.56965" lon="12.9174017"><ele>1078.0</ele><time>2026-04-12T11:21:55.438Z</time></trkpt><trkpt lat="42.56991" lon="12.9174633"><ele>1078.0</ele><time>2026-04-12T11:21:56.439Z</time></trkpt><trkpt lat="42.5701667" lon="12.917525"><ele>1078.0</ele><time>2026-04-12T11:21:57.438Z</time></trkpt><trkpt lat="42.57042" lon="12.91759"><ele>1068.5</ele><time>2026-04-12T11:21:58.445Z</time></trkpt><trkpt lat="42.5706717" lon="12.9176617"><ele>1059.0</ele><time>2026-04-12T11:21:59.43Z</time></trkpt><trkpt lat="42.5709217" lon="12.9177367"><ele>1059.0</ele><time>2026-04-12T11:22:00.444Z</time></trkpt><trkpt lat="42.5711717" lon="12.9178217"><ele>1059.0</ele><time>2026-04-12T11:22:01.438Z</time></trkpt><trkpt lat="42.5714233" lon="12.917915"><ele>1061.0</ele><time>2026-04-12T11:22:02.433Z</time></trkpt><trkpt lat="42.5716733" lon="12.9180167"><ele>1063.0</ele><time>2026-04-12T11:22:03.431Z</time></trkpt><trkpt lat="42.571925" lon="12.9181267"><ele>1064.0</ele><time>2026-04-12T11:22:04.431Z</time></trkpt><trkpt lat="42.5721767" lon="12.9182383"><ele>1065.0</ele><time>2026-04-12T11:22:05.433Z</time></trkpt><trkpt lat="42.57243" lon="12.9183533"><ele>1055.5</ele><time>2026-04-12T11:22:06.431Z</time></trkpt><trkpt lat="42.57268" lon="12.9184683"><ele>1046.0</ele><time>2026-04-12T11:22:07.427Z</time></trkpt><trkpt lat="42.5729283" lon="12.9185767"><ele>1046.0</ele><time>2026-04-12T11:22:08.444Z</time></trkpt><trkpt lat="42.5731717" lon="12.9186683"><ele>1046.0</ele><time>2026-04-12T11:22:09.44Z</time></trkpt><trkpt lat="42.5734217" lon="12.9187383"><ele>1046.0</ele><time>2026-04-12T11:22:10.439Z</time></trkpt><trkpt lat="42.5736733" lon="12.91878"><ele>1046.0</ele><time>2026-04-12T11:22:11.435Z</time></trkpt><trkpt lat="42.5739283" lon="12.9187917"><ele>1045.0</ele><time>2026-04-12T11:22:12.44Z</time></trkpt><trkpt lat="42.5741883" lon="12.9187733"><ele>1044.0</ele><time>2026-04-12T11:22:13.436Z</time></trkpt><trkpt lat="42.5744533" lon="12.9187367"><ele>1038.0</ele><time>2026-04-12T11:22:14.432Z</time></trkpt><trkpt lat="42.57472" lon="12.9186817"><ele>1032.0</ele><time>2026-04-12T11:22:15.44Z</time></trkpt><trkpt lat="42.5749867" lon="12.918615"><ele>1032.0</ele><time>2026-04-12T11:22:16.436Z</time></trkpt><trkpt lat="42.575255" lon="12.9185433"><ele>1032.0</ele><time>2026-04-12T11:22:17.436Z</time></trkpt><trkpt lat="42.5755217" lon="12.9184717"><ele>1037.0</ele><time>2026-04-12T11:22:18.432Z</time></trkpt><trkpt lat="42.5757867" lon="12.9183983"><ele>1042.0</ele><time>2026-04-12T11:22:19.427Z</time></trkpt><trkpt lat="42.5760517" lon="12.918325"><ele>1038.0</ele><time>2026-04-12T11:22:20.441Z</time></trkpt><trkpt lat="42.576305" lon="12.918255"><ele>1034.0</ele><time>2026-04-12T11:22:21.438Z</time></trkpt><trkpt lat="42.576535" lon="12.9181883"><ele>1034.0</ele><time>2026-04-12T11:22:22.433Z</time></trkpt><trkpt lat="42.5767367" lon="12.918135"><ele>1034.0</ele><time>2026-04-12T11:22:23.433Z</time></trkpt><trkpt lat="42.5769117" lon="12.9180917"><ele>1034.0</ele><time>2026-04-12T11:22:24.441Z</time></trkpt><trkpt lat="42.5770633" lon="12.9180467"><ele>1032.0</ele><time>2026-04-12T11:22:25.435Z</time></trkpt><trkpt lat="42.5771917" lon="12.9180067"><ele>1030.0</ele><time>2026-04-12T11:22:26.432Z</time></trkpt><trkpt lat="42.5773033" lon="12.9179767"><ele>1028.0</ele><time>2026-04-12T11:22:27.431Z</time></trkpt><trkpt lat="42.5773933" lon="12.917955"><ele>1026.0</ele><time>2026-04-12T11:22:28.43Z</time></trkpt><trkpt lat="42.5774683" lon="12.9179383"><ele>1024.0</ele><time>2026-04-12T11:22:29.431Z</time></trkpt><trkpt lat="42.5775833" lon="12.9179033"><ele>1024.0</ele><time>2026-04-12T11:22:31.434Z</time></trkpt><trkpt lat="42.57769" lon="12.9178817"><ele>1024.0</ele><time>2026-04-12T11:22:33.434Z</time></trkpt><trkpt lat="42.57783" lon="12.9178533"><ele>1024.0</ele><time>2026-04-12T11:22:35.425Z</time></trkpt><trkpt lat="42.577935" lon="12.91784"><ele>1024.0</ele><time>2026-04-12T11:22:36.428Z</time></trkpt><trkpt lat="42.5780867" lon="12.9178333"><ele>1021.6666666666666</ele><time>2026-04-12T11:22:37.436Z</time></trkpt><trkpt lat="42.5782567" lon="12.9178517"><ele>1019.3333333333333</ele><time>2026-04-12T11:22:38.435Z</time></trkpt><trkpt lat="42.578445" lon="12.917885"><ele>1017.0</ele><time>2026-04-12T11:22:39.441Z</time></trkpt><trkpt lat="42.578655" lon="12.9179433"><ele>1018.5</ele><time>2026-04-12T11:22:40.429Z</time></trkpt><trkpt lat="42.5788783" lon="12.9180117"><ele>1020.0</ele><time>2026-04-12T11:22:41.429Z</time></trkpt><trkpt lat="42.5791083" lon="12.9181"><ele>1020.0</ele><time>2026-04-12T11:22:42.435Z</time></trkpt><trkpt lat="42.579335" lon="12.9182133"><ele>1020.0</ele><time>2026-04-12T11:22:43.436Z</time></trkpt><trkpt lat="42.5795633" lon="12.91835"><ele>1010.0</ele><time>2026-04-12T11:22:44.435Z</time></trkpt><trkpt lat="42.57979" lon="12.9185033"><ele>1000.0</ele><time>2026-04-12T11:22:45.429Z</time></trkpt><trkpt lat="42.58" lon="12.9186817"><ele>1000.0</ele><time>2026-04-12T11:22:46.428Z</time></trkpt><trkpt lat="42.580205" lon="12.9188817"><ele>1000.0</ele><time>2026-04-12T11:22:47.43Z</time></trkpt><trkpt lat="42.5804033" lon="12.9191"><ele>989.5</ele><time>2026-04-12T11:22:48.436Z</time></trkpt><trkpt lat="42.58059" lon="12.9193383"><ele>979.0</ele><time>2026-04-12T11:22:49.437Z</time></trkpt><trkpt lat="42.5807667" lon="12.9195967"><ele>979.0</ele><time>2026-04-12T11:22:50.437Z</time></trkpt><trkpt lat="42.58093" lon="12.9198733"><ele>979.0</ele><time>2026-04-12T11:22:51.435Z</time></trkpt><trkpt lat="42.581085" lon="12.9201667"><ele>966.5</ele><time>2026-04-12T11:22:52.437Z</time></trkpt><trkpt lat="42.5812183" lon="12.920475"><ele>954.0</ele><time>2026-04-12T11:22:53.441Z</time></trkpt><trkpt lat="42.5813333" lon="12.9207867"><ele>952.5</ele><time>2026-04-12T11:22:54.435Z</time></trkpt><trkpt lat="42.581425" lon="12.9211167"><ele>951.0</ele><time>2026-04-12T11:22:55.435Z</time></trkpt><trkpt lat="42.5815017" lon="12.9214483"><ele>950.0</ele><time>2026-04-12T11:22:56.43Z</time></trkpt><trkpt lat="42.58156" lon="12.92179"><ele>949.0</ele><time>2026-04-12T11:22:57.439Z</time></trkpt><trkpt lat="42.5816017" lon="12.9221333"><ele>949.0</ele><time>2026-04-12T11:22:58.428Z</time></trkpt><trkpt lat="42.5816267" lon="12.922485"><ele>949.0</ele><time>2026-04-12T11:22:59.436Z</time></trkpt><trkpt lat="42.5816333" lon="12.9228467"><ele>944.0</ele><time>2026-04-12T11:23:00.444Z</time></trkpt><trkpt lat="42.5816233" lon="12.92321"><ele>939.0</ele><time>2026-04-12T11:23:01.437Z</time></trkpt><trkpt lat="42.5815917" lon="12.9235717"><ele>930.5</ele><time>2026-04-12T11:23:02.439Z</time></trkpt><trkpt lat="42.5815367" lon="12.9239283"><ele>922.0</ele><time>2026-04-12T11:23:03.435Z</time></trkpt><trkpt lat="42.5814583" lon="12.9242783"><ele>914.5</ele><time>2026-04-12T11:23:04.443Z</time></trkpt><trkpt lat="42.5813633" lon="12.9246167"><ele>907.0</ele><time>2026-04-12T11:23:05.436Z</time></trkpt><trkpt lat="42.58125" lon="12.92495"><ele>911.0</ele><time>2026-04-12T11:23:06.433Z</time></trkpt><trkpt lat="42.5811183" lon="12.925275"><ele>915.0</ele><time>2026-04-12T11:23:07.434Z</time></trkpt><trkpt lat="42.5809683" lon="12.92558"><ele>915.0</ele><time>2026-04-12T11:23:08.437Z</time></trkpt><trkpt lat="42.580805" lon="12.9258767"><ele>915.0</ele><time>2026-04-12T11:23:09.439Z</time></trkpt><trkpt lat="42.5806283" lon="12.92616"><ele>912.5</ele><time>2026-04-12T11:23:10.435Z</time></trkpt><trkpt lat="42.5804383" lon="12.92642"><ele>910.0</ele><time>2026-04-12T11:23:11.452Z</time></trkpt><trkpt lat="42.5802433" lon="12.9266683"><ele>915.0</ele><time>2026-04-12T11:23:12.434Z</time></trkpt><trkpt lat="42.580045" lon="12.9269133"><ele>920.0</ele><time>2026-04-12T11:23:13.427Z</time></trkpt><trkpt lat="42.579845" lon="12.9271583"><ele>920.0</ele><time>2026-04-12T11:23:14.438Z</time></trkpt><trkpt lat="42.5796433" lon="12.927405"><ele>920.0</ele><time>2026-04-12T11:23:15.433Z</time></trkpt><trkpt lat="42.5794433" lon="12.92765"><ele>923.5</ele><time>2026-04-12T11:23:16.433Z</time></trkpt><trkpt lat="42.5792433" lon="12.9278933"><ele>927.0</ele><time>2026-04-12T11:23:17.441Z</time></trkpt><trkpt lat="42.579045" lon="12.9281383"><ele>927.0</ele><time>2026-04-12T11:23:18.44Z</time></trkpt><trkpt lat="42.5788433" lon="12.9283833"><ele>927.0</ele><time>2026-04-12T11:23:19.441Z</time></trkpt><trkpt lat="42.5786417" lon="12.9286367"><ele>928.5</ele><time>2026-04-12T11:23:20.451Z</time></trkpt><trkpt lat="42.5784433" lon="12.928895"><ele>930.0</ele><time>2026-04-12T11:23:21.425Z</time></trkpt><trkpt lat="42.5782517" lon="12.92916"><ele>929.0</ele><time>2026-04-12T11:23:22.44Z</time></trkpt><trkpt lat="42.5780683" lon="12.92944"><ele>928.0</ele><time>2026-04-12T11:23:23.437Z</time></trkpt><trkpt lat="42.5779033" lon="12.929735"><ele>937.0</ele><time>2026-04-12T11:23:24.431Z</time></trkpt><trkpt lat="42.5777567" lon="12.93005"><ele>946.0</ele><time>2026-04-12T11:23:25.43Z</time></trkpt><trkpt lat="42.5776317" lon="12.93038"><ele>946.0</ele><time>2026-04-12T11:23:26.436Z</time></trkpt><trkpt lat="42.577525" lon="12.9307267"><ele>946.0</ele><time>2026-04-12T11:23:27.431Z</time></trkpt><trkpt lat="42.5774367" lon="12.9310817"><ele>946.0</ele><time>2026-04-12T11:23:28.435Z</time></trkpt><trkpt lat="42.5773683" lon="12.931445"><ele>946.0</ele><time>2026-04-12T11:23:29.435Z</time></trkpt><trkpt lat="42.5773183" lon="12.9318167"><ele>947.0</ele><time>2026-04-12T11:23:30.435Z</time></trkpt><trkpt lat="42.5772883" lon="12.9321933"><ele>948.0</ele><time>2026-04-12T11:23:31.438Z</time></trkpt><trkpt lat="42.577275" lon="12.932575"><ele>948.0</ele><time>2026-04-12T11:23:32.439Z</time></trkpt><trkpt lat="42.5772867" lon="12.9329633"><ele>948.0</ele><time>2026-04-12T11:23:33.439Z</time></trkpt><trkpt lat="42.5773117" lon="12.933355"><ele>949.5</ele><time>2026-04-12T11:23:34.438Z</time></trkpt><trkpt lat="42.5773433" lon="12.9337517"><ele>951.0</ele><time>2026-04-12T11:23:35.437Z</time></trkpt><trkpt lat="42.5773783" lon="12.9341483"><ele>949.5</ele><time>2026-04-12T11:23:36.434Z</time></trkpt><trkpt lat="42.577415" lon="12.9345433"><ele>948.0</ele><time>2026-04-12T11:23:37.432Z</time></trkpt><trkpt lat="42.5774483" lon="12.9349267"><ele>947.0</ele><time>2026-04-12T11:23:38.444Z</time></trkpt><trkpt lat="42.57748" lon="12.935285"><ele>946.0</ele><time>2026-04-12T11:23:39.436Z</time></trkpt><trkpt lat="42.57751" lon="12.9356283"><ele>944.0</ele><time>2026-04-12T11:23:40.435Z</time></trkpt><trkpt lat="42.57754" lon="12.93597"><ele>942.0</ele><time>2026-04-12T11:23:41.438Z</time></trkpt><trkpt lat="42.5775717" lon="12.9363133"><ele>942.0</ele><time>2026-04-12T11:23:42.432Z</time></trkpt><trkpt lat="42.5776033" lon="12.9366583"><ele>942.0</ele><time>2026-04-12T11:23:43.432Z</time></trkpt><trkpt lat="42.5776333" lon="12.93701"><ele>940.5</ele><time>2026-04-12T11:23:44.439Z</time></trkpt><trkpt lat="42.5776633" lon="12.9373683"><ele>939.0</ele><time>2026-04-12T11:23:45.431Z</time></trkpt><trkpt lat="42.5776917" lon="12.9377333"><ele>937.5</ele><time>2026-04-12T11:23:46.432Z</time></trkpt><trkpt lat="42.5777117" lon="12.9381033"><ele>936.0</ele><time>2026-04-12T11:23:47.437Z</time></trkpt><trkpt lat="42.5777183" lon="12.9384733"><ele>933.5</ele><time>2026-04-12T11:23:48.434Z</time></trkpt><trkpt lat="42.5777083" lon="12.938845"><ele>931.0</ele><time>2026-04-12T11:23:49.437Z</time></trkpt><trkpt lat="42.5776817" lon="12.9392183"><ele>930.5</ele><time>2026-04-12T11:23:50.442Z</time></trkpt><trkpt lat="42.5776367" lon="12.9395883"><ele>930.0</ele><time>2026-04-12T11:23:51.435Z</time></trkpt><trkpt lat="42.5775683" lon="12.9399533"><ele>927.5</ele><time>2026-04-12T11:23:52.432Z</time></trkpt><trkpt lat="42.5774783" lon="12.9403133"><ele>925.0</ele><time>2026-04-12T11:23:53.439Z</time></trkpt><trkpt lat="42.5773767" lon="12.9406667"><ele>925.5</ele><time>2026-04-12T11:23:54.436Z</time></trkpt><trkpt lat="42.5772617" lon="12.94102"><ele>926.0</ele><time>2026-04-12T11:23:55.438Z</time></trkpt><trkpt lat="42.5771333" lon="12.9413717"><ele>926.5</ele><time>2026-04-12T11:23:56.437Z</time></trkpt><trkpt lat="42.5769967" lon="12.9417183"><ele>927.0</ele><time>2026-04-12T11:23:57.438Z</time></trkpt><trkpt lat="42.57686" lon="12.942065"><ele>927.0</ele><time>2026-04-12T11:23:58.435Z</time></trkpt><trkpt lat="42.5767233" lon="12.9424117"><ele>927.0</ele><time>2026-04-12T11:23:59.43Z</time></trkpt><trkpt lat="42.5765883" lon="12.9427533"><ele>925.0</ele><time>2026-04-12T11:24:00.43Z</time></trkpt><trkpt lat="42.5764567" lon="12.9430983"><ele>923.0</ele><time>2026-04-12T11:24:01.434Z</time></trkpt><trkpt lat="42.576325" lon="12.943445"><ele>923.0</ele><time>2026-04-12T11:24:02.442Z</time></trkpt><trkpt lat="42.5761933" lon="12.94379"><ele>923.0</ele><time>2026-04-12T11:24:03.438Z</time></trkpt><trkpt lat="42.576065" lon="12.944135"><ele>925.0</ele><time>2026-04-12T11:24:04.437Z</time></trkpt><trkpt lat="42.575935" lon="12.9444833"><ele>927.0</ele><time>2026-04-12T11:24:05.433Z</time></trkpt><trkpt lat="42.575805" lon="12.94483"><ele>928.0</ele><time>2026-04-12T11:24:06.44Z</time></trkpt><trkpt lat="42.575675" lon="12.9451767"><ele>929.0</ele><time>2026-04-12T11:24:07.431Z</time></trkpt><trkpt lat="42.575545" lon="12.9455233"><ele>929.0</ele><time>2026-04-12T11:24:08.43Z</time></trkpt><trkpt lat="42.5754133" lon="12.9458717"><ele>929.0</ele><time>2026-04-12T11:24:09.437Z</time></trkpt><trkpt lat="42.5752817" lon="12.9462167"><ele>929.0</ele><time>2026-04-12T11:24:10.429Z</time></trkpt><trkpt lat="42.57515" lon="12.9465617"><ele>929.0</ele><time>2026-04-12T11:24:11.438Z</time></trkpt><trkpt lat="42.57502" lon="12.9469067"><ele>929.0</ele><time>2026-04-12T11:24:12.441Z</time></trkpt><trkpt lat="42.57489" lon="12.9472483"><ele>929.0</ele><time>2026-04-12T11:24:13.437Z</time></trkpt><trkpt lat="42.5747583" lon="12.9475917"><ele>929.0</ele><time>2026-04-12T11:24:14.439Z</time></trkpt><trkpt lat="42.5746267" lon="12.94794"><ele>929.0</ele><time>2026-04-12T11:24:15.43Z</time></trkpt><trkpt lat="42.5744967" lon="12.948285"><ele>931.0</ele><time>2026-04-12T11:24:16.425Z</time></trkpt><trkpt lat="42.5743683" lon="12.9486267"><ele>933.0</ele><time>2026-04-12T11:24:17.44Z</time></trkpt><trkpt lat="42.57424" lon="12.9489683"><ele>933.0</ele><time>2026-04-12T11:24:18.438Z</time></trkpt><trkpt lat="42.5741133" lon="12.9493117"><ele>933.0</ele><time>2026-04-12T11:24:19.441Z</time></trkpt><trkpt lat="42.573985" lon="12.9496533"><ele>933.0</ele><time>2026-04-12T11:24:20.436Z</time></trkpt><trkpt lat="42.573855" lon="12.949995"><ele>933.0</ele><time>2026-04-12T11:24:21.431Z</time></trkpt><trkpt lat="42.573725" lon="12.9503333"><ele>933.0</ele><time>2026-04-12T11:24:22.429Z</time></trkpt><trkpt lat="42.5736" lon="12.9506717"><ele>933.0</ele><time>2026-04-12T11:24:23.427Z</time></trkpt><trkpt lat="42.5734817" lon="12.951015"><ele>933.0</ele><time>2026-04-12T11:24:24.436Z</time></trkpt><trkpt lat="42.5733733" lon="12.951365"><ele>933.0</ele><time>2026-04-12T11:24:25.436Z</time></trkpt><trkpt lat="42.5732767" lon="12.951725"><ele>930.5</ele><time>2026-04-12T11:24:26.43Z</time></trkpt><trkpt lat="42.57319" lon="12.95209"><ele>928.0</ele><time>2026-04-12T11:24:27.431Z</time></trkpt><trkpt lat="42.57311" lon="12.9524583"><ele>929.0</ele><time>2026-04-12T11:24:28.43Z</time></trkpt><trkpt lat="42.5730383" lon="12.9528283"><ele>930.0</ele><time>2026-04-12T11:24:29.425Z</time></trkpt><trkpt lat="42.5729733" lon="12.9531983"><ele>932.5</ele><time>2026-04-12T11:24:30.435Z</time></trkpt><trkpt lat="42.5729183" lon="12.9535633"><ele>935.0</ele><time>2026-04-12T11:24:31.439Z</time></trkpt><trkpt lat="42.5728567" lon="12.9539333"><ele>935.0</ele><time>2026-04-12T11:24:32.436Z</time></trkpt><trkpt lat="42.5728" lon="12.9542983"><ele>935.0</ele><time>2026-04-12T11:24:33.439Z</time></trkpt><trkpt lat="42.572745" lon="12.95466"><ele>935.0</ele><time>2026-04-12T11:24:34.428Z</time></trkpt><trkpt lat="42.57269" lon="12.955025"><ele>935.0</ele><time>2026-04-12T11:24:35.44Z</time></trkpt><trkpt lat="42.5726317" lon="12.955385"><ele>937.5</ele><time>2026-04-12T11:24:36.441Z</time></trkpt><trkpt lat="42.5725783" lon="12.9557217"><ele>940.0</ele><time>2026-04-12T11:24:37.439Z</time></trkpt><trkpt lat="42.5725267" lon="12.9560333"><ele>940.3333333333333</ele><time>2026-04-12T11:24:38.437Z</time></trkpt><trkpt lat="42.57248" lon="12.95633"><ele>940.6666666666667</ele><time>2026-04-12T11:24:39.44Z</time></trkpt><trkpt lat="42.572435" lon="12.9566033"><ele>941.0</ele><time>2026-04-12T11:24:40.434Z</time></trkpt><trkpt lat="42.572395" lon="12.9568533"><ele>941.6666666666667</ele><time>2026-04-12T11:24:41.428Z</time></trkpt><trkpt lat="42.5723567" lon="12.9570883"><ele>942.3333333333333</ele><time>2026-04-12T11:24:42.429Z</time></trkpt><trkpt lat="42.5723217" lon="12.9573083"><ele>943.0</ele><time>2026-04-12T11:24:43.427Z</time></trkpt><trkpt lat="42.5722883" lon="12.9575183"><ele>943.6666666666666</ele><time>2026-04-12T11:24:44.43Z</time></trkpt><trkpt lat="42.5722583" lon="12.9577267"><ele>944.3333333333333</ele><time>2026-04-12T11:24:45.426Z</time></trkpt><trkpt lat="42.572225" lon="12.9579367"><ele>945.0</ele><time>2026-04-12T11:24:46.426Z</time></trkpt><trkpt lat="42.5721917" lon="12.9581383"><ele>945.0</ele><time>2026-04-12T11:24:47.437Z</time></trkpt><trkpt lat="42.57216" lon="12.958325"><ele>945.0</ele><time>2026-04-12T11:24:48.428Z</time></trkpt><trkpt lat="42.5721317" lon="12.9584967"><ele>945.0</ele><time>2026-04-12T11:24:49.434Z</time></trkpt><trkpt lat="42.5721083" lon="12.9586583"><ele>945.0</ele><time>2026-04-12T11:24:50.431Z</time></trkpt><trkpt lat="42.5720833" lon="12.9588183"><ele>945.0</ele><time>2026-04-12T11:24:51.429Z</time></trkpt><trkpt lat="42.5720567" lon="12.9589783"><ele>945.0</ele><time>2026-04-12T11:24:52.429Z</time></trkpt><trkpt lat="42.57203" lon="12.95914"><ele>945.0</ele><time>2026-04-12T11:24:53.431Z</time></trkpt><trkpt lat="42.5720017" lon="12.9593"><ele>945.0</ele><time>2026-04-12T11:24:54.441Z</time></trkpt><trkpt lat="42.57198" lon="12.959455"><ele>945.4</ele><time>2026-04-12T11:24:55.427Z</time></trkpt><trkpt lat="42.5719567" lon="12.9596067"><ele>945.8</ele><time>2026-04-12T11:24:56.441Z</time></trkpt><trkpt lat="42.5719317" lon="12.9597583"><ele>946.2</ele><time>2026-04-12T11:24:57.44Z</time></trkpt><trkpt lat="42.5719083" lon="12.959905"><ele>946.6</ele><time>2026-04-12T11:24:58.435Z</time></trkpt><trkpt lat="42.571885" lon="12.96004"><ele>947.0</ele><time>2026-04-12T11:24:59.433Z</time></trkpt><trkpt lat="42.5718633" lon="12.9601617"><ele>947.5000000000001</ele><time>2026-04-12T11:25:00.435Z</time></trkpt><trkpt lat="42.57184" lon="12.9602783"><ele>948.0</ele><time>2026-04-12T11:25:01.432Z</time></trkpt><trkpt lat="42.571815" lon="12.9603917"><ele>948.5</ele><time>2026-04-12T11:25:02.437Z</time></trkpt><trkpt lat="42.57179" lon="12.9604967"><ele>949.0</ele><time>2026-04-12T11:25:03.448Z</time></trkpt><trkpt lat="42.5717683" lon="12.96059"><ele>949.5000000000001</ele><time>2026-04-12T11:25:04.438Z</time></trkpt><trkpt lat="42.5717367" lon="12.9607317"><ele>950.0</ele><time>2026-04-12T11:25:06.435Z</time></trkpt><trkpt lat="42.5717283" lon="12.9608667"><ele>950.2</ele><time>2026-04-12T11:25:54.438Z</time></trkpt><trkpt lat="42.5717183" lon="12.9609733"><ele>950.4</ele><time>2026-04-12T11:25:55.431Z</time></trkpt><trkpt lat="42.571705" lon="12.9610967"><ele>950.5999999999999</ele><time>2026-04-12T11:25:56.431Z</time></trkpt><trkpt lat="42.5716733" lon="12.9612267"><ele>950.8</ele><time>2026-04-12T11:25:57.429Z</time></trkpt><trkpt lat="42.5716067" lon="12.961345"><ele>951.0</ele><time>2026-04-12T11:25:58.431Z</time></trkpt><trkpt lat="42.57153" lon="12.961445"><ele>951.0</ele><time>2026-04-12T11:25:59.43Z</time></trkpt><trkpt lat="42.5714683" lon="12.9615417"><ele>950.9999999999999</ele><time>2026-04-12T11:26:00.433Z</time></trkpt><trkpt lat="42.5714283" lon="12.961645"><ele>950.9999999999999</ele><time>2026-04-12T11:26:01.43Z</time></trkpt><trkpt lat="42.5714183" lon="12.9617567"><ele>951.0</ele><time>2026-04-12T11:26:02.43Z</time></trkpt><trkpt lat="42.57147" lon="12.9618667"><ele>951.0</ele><time>2026-04-12T11:26:03.431Z</time></trkpt><trkpt lat="42.5715367" lon="12.9619583"><ele>951.0</ele><time>2026-04-12T11:26:04.433Z</time></trkpt><trkpt lat="42.5716217" lon="12.9620067"><ele>950.9999999999999</ele><time>2026-04-12T11:26:05.429Z</time></trkpt><trkpt lat="42.5717233" lon="12.9619717"><ele>950.9999999999999</ele><time>2026-04-12T11:26:06.428Z</time></trkpt><trkpt lat="42.5718167" lon="12.9619017"><ele>951.0</ele><time>2026-04-12T11:26:07.429Z</time></trkpt><trkpt lat="42.571905" lon="12.9617883"><ele>951.0</ele><time>2026-04-12T11:26:08.428Z</time></trkpt><trkpt lat="42.571995" lon="12.9616867"><ele>950.6666666666667</ele><time>2026-04-12T11:26:09.428Z</time></trkpt><trkpt lat="42.572115" lon="12.9616"><ele>950.3333333333334</ele><time>2026-04-12T11:26:10.431Z</time></trkpt><trkpt lat="42.5722667" lon="12.9615317"><ele>950.0</ele><time>2026-04-12T11:26:11.433Z</time></trkpt><trkpt lat="42.5724433" lon="12.961475"><ele>950.0</ele><time>2026-04-12T11:26:12.43Z</time></trkpt><trkpt lat="42.572635" lon="12.9614217"><ele>950.0</ele><time>2026-04-12T11:26:13.433Z</time></trkpt><trkpt lat="42.5728467" lon="12.961365"><ele>950.0</ele><time>2026-04-12T11:26:14.433Z</time></trkpt><trkpt lat="42.57307" lon="12.961305"><ele>948.0</ele><time>2026-04-12T11:26:15.433Z</time></trkpt><trkpt lat="42.5733067" lon="12.9612467"><ele>946.0</ele><time>2026-04-12T11:26:16.432Z</time></trkpt><trkpt lat="42.573555" lon="12.96118"><ele>945.5</ele><time>2026-04-12T11:26:17.432Z</time></trkpt><trkpt lat="42.57381" lon="12.96111"><ele>945.0</ele><time>2026-04-12T11:26:18.435Z</time></trkpt><trkpt lat="42.5740683" lon="12.9610383"><ele>945.0</ele><time>2026-04-12T11:26:19.432Z</time></trkpt><trkpt lat="42.5743333" lon="12.9609667"><ele>945.0</ele><time>2026-04-12T11:26:20.458Z</time></trkpt><trkpt lat="42.574595" lon="12.9608917"><ele>944.5</ele><time>2026-04-12T11:26:21.432Z</time></trkpt><trkpt lat="42.5748567" lon="12.96082"><ele>944.0</ele><time>2026-04-12T11:26:22.426Z</time></trkpt><trkpt lat="42.575125" lon="12.9607517"><ele>943.0</ele><time>2026-04-12T11:26:23.427Z</time></trkpt><trkpt lat="42.575395" lon="12.9606817"><ele>942.0</ele><time>2026-04-12T11:26:24.429Z</time></trkpt><trkpt lat="42.5756683" lon="12.9606067"><ele>942.0</ele><time>2026-04-12T11:26:25.43Z</time></trkpt><trkpt lat="42.5759483" lon="12.9605283"><ele>942.0</ele><time>2026-04-12T11:26:26.432Z</time></trkpt><trkpt lat="42.5762317" lon="12.960445"><ele>941.5</ele><time>2026-04-12T11:26:27.435Z</time></trkpt><trkpt lat="42.5765217" lon="12.9603617"><ele>941.0</ele><time>2026-04-12T11:26:28.428Z</time></trkpt><trkpt lat="42.5768133" lon="12.9602767"><ele>939.0</ele><time>2026-04-12T11:26:29.434Z</time></trkpt><trkpt lat="42.57711" lon="12.9601933"><ele>937.0</ele><time>2026-04-12T11:26:30.432Z</time></trkpt><trkpt lat="42.57741" lon="12.9601067"><ele>937.0</ele><time>2026-04-12T11:26:31.442Z</time></trkpt><trkpt lat="42.5777117" lon="12.9600217"><ele>937.0</ele><time>2026-04-12T11:26:32.434Z</time></trkpt><trkpt lat="42.578015" lon="12.9599333"><ele>936.5</ele><time>2026-04-12T11:26:33.434Z</time></trkpt><trkpt lat="42.5783167" lon="12.9598433"><ele>936.0</ele><time>2026-04-12T11:26:34.431Z</time></trkpt><trkpt lat="42.5786183" lon="12.9597533"><ele>935.5</ele><time>2026-04-12T11:26:35.43Z</time></trkpt><trkpt lat="42.5789183" lon="12.9596633"><ele>935.0</ele><time>2026-04-12T11:26:36.433Z</time></trkpt><trkpt lat="42.5792133" lon="12.95958"><ele>935.0</ele><time>2026-04-12T11:26:37.426Z</time></trkpt><trkpt lat="42.5795017" lon="12.959505"><ele>935.0</ele><time>2026-04-12T11:26:38.434Z</time></trkpt><trkpt lat="42.5797883" lon="12.959425"><ele>934.5</ele><time>2026-04-12T11:26:39.434Z</time></trkpt><trkpt lat="42.58007" lon="12.9593467"><ele>934.0</ele><time>2026-04-12T11:26:40.43Z</time></trkpt><trkpt lat="42.5803533" lon="12.959265"><ele>933.5</ele><time>2026-04-12T11:26:41.431Z</time></trkpt><trkpt lat="42.5806383" lon="12.9591817"><ele>933.0</ele><time>2026-04-12T11:26:42.433Z</time></trkpt><trkpt lat="42.5809317" lon="12.9591017"><ele>932.0</ele><time>2026-04-12T11:26:43.433Z</time></trkpt><trkpt lat="42.5812317" lon="12.9590217"><ele>931.0</ele><time>2026-04-12T11:26:44.433Z</time></trkpt><trkpt lat="42.581535" lon="12.9589417"><ele>931.0</ele><time>2026-04-12T11:26:45.433Z</time></trkpt><trkpt lat="42.58184" lon="12.9588533"><ele>931.0</ele><time>2026-04-12T11:26:46.437Z</time></trkpt><trkpt lat="42.5821483" lon="12.958765"><ele>930.0</ele><time>2026-04-12T11:26:47.432Z</time></trkpt><trkpt lat="42.5824567" lon="12.9586717"><ele>929.0</ele><time>2026-04-12T11:26:48.431Z</time></trkpt><trkpt lat="42.58277" lon="12.9585867"><ele>928.0</ele><time>2026-04-12T11:26:49.429Z</time></trkpt><trkpt lat="42.583085" lon="12.9585017"><ele>927.0</ele><time>2026-04-12T11:26:50.434Z</time></trkpt><trkpt lat="42.5833983" lon="12.958415"><ele>927.0</ele><time>2026-04-12T11:26:51.431Z</time></trkpt><trkpt lat="42.5837167" lon="12.9583283"><ele>927.0</ele><time>2026-04-12T11:26:52.431Z</time></trkpt><trkpt lat="42.584035" lon="12.9582367"><ele>927.0</ele><time>2026-04-12T11:26:53.434Z</time></trkpt><trkpt lat="42.5843533" lon="12.9581467"><ele>927.0</ele><time>2026-04-12T11:26:54.43Z</time></trkpt><trkpt lat="42.5846733" lon="12.9580583"><ele>926.0</ele><time>2026-04-12T11:26:55.434Z</time></trkpt><trkpt lat="42.584995" lon="12.9579717"><ele>925.0</ele><time>2026-04-12T11:26:56.435Z</time></trkpt><trkpt lat="42.5853133" lon="12.9578817"><ele>924.5</ele><time>2026-04-12T11:26:57.433Z</time></trkpt><trkpt lat="42.5856333" lon="12.95779"><ele>924.0</ele><time>2026-04-12T11:26:58.429Z</time></trkpt><trkpt lat="42.58595" lon="12.9576917"><ele>922.5</ele><time>2026-04-12T11:26:59.433Z</time></trkpt><trkpt lat="42.58627" lon="12.9575983"><ele>921.0</ele><time>2026-04-12T11:27:00.433Z</time></trkpt><trkpt lat="42.5865933" lon="12.957505"><ele>920.5</ele><time>2026-04-12T11:27:01.43Z</time></trkpt><trkpt lat="42.586915" lon="12.957415"><ele>920.0</ele><time>2026-04-12T11:27:02.434Z</time></trkpt><trkpt lat="42.58724" lon="12.9573267"><ele>919.0</ele><time>2026-04-12T11:27:03.432Z</time></trkpt><trkpt lat="42.5875633" lon="12.9572383"><ele>918.0</ele><time>2026-04-12T11:27:04.43Z</time></trkpt><trkpt lat="42.5878867" lon="12.9571483"><ele>917.0</ele><time>2026-04-12T11:27:05.433Z</time></trkpt><trkpt lat="42.58821" lon="12.9570567"><ele>916.0</ele><time>2026-04-12T11:27:06.433Z</time></trkpt><trkpt lat="42.588535" lon="12.9569683"><ele>915.0</ele><time>2026-04-12T11:27:07.43Z</time></trkpt><trkpt lat="42.58886" lon="12.9568767"><ele>914.0</ele><time>2026-04-12T11:27:08.431Z</time></trkpt><trkpt lat="42.5891833" lon="12.956785"><ele>913.5</ele><time>2026-04-12T11:27:09.433Z</time></trkpt><trkpt lat="42.5895083" lon="12.9566967"><ele>913.0</ele><time>2026-04-12T11:27:10.434Z</time></trkpt><trkpt lat="42.5898333" lon="12.9566"><ele>913.0</ele><time>2026-04-12T11:27:11.434Z</time></trkpt><trkpt lat="42.5901583" lon="12.9565083"><ele>913.0</ele><time>2026-04-12T11:27:12.437Z</time></trkpt><trkpt lat="42.5904817" lon="12.9564167"><ele>912.0</ele><time>2026-04-12T11:27:13.435Z</time></trkpt><trkpt lat="42.5908" lon="12.9563217"><ele>911.0</ele><time>2026-04-12T11:27:14.433Z</time></trkpt><trkpt lat="42.5911267" lon="12.9562317"><ele>910.0</ele><time>2026-04-12T11:27:15.436Z</time></trkpt><trkpt lat="42.5914517" lon="12.95614"><ele>909.0</ele><time>2026-04-12T11:27:16.431Z</time></trkpt><trkpt lat="42.5917767" lon="12.9560417"><ele>908.0</ele><time>2026-04-12T11:27:17.431Z</time></trkpt><trkpt lat="42.5921033" lon="12.955945"><ele>907.0</ele><time>2026-04-12T11:27:18.433Z</time></trkpt><trkpt lat="42.5924317" lon="12.9558483"><ele>907.0</ele><time>2026-04-12T11:27:19.429Z</time></trkpt><trkpt lat="42.5927667" lon="12.955755"><ele>907.0</ele><time>2026-04-12T11:27:20.432Z</time></trkpt><trkpt lat="42.5931" lon="12.9556583"><ele>906.5</ele><time>2026-04-12T11:27:21.43Z</time></trkpt><trkpt lat="42.5934333" lon="12.9555617"><ele>906.0</ele><time>2026-04-12T11:27:22.432Z</time></trkpt><trkpt lat="42.5937683" lon="12.9554683"><ele>906.0</ele><time>2026-04-12T11:27:23.433Z</time></trkpt><trkpt lat="42.5941033" lon="12.955375"><ele>906.0</ele><time>2026-04-12T11:27:24.43Z</time></trkpt><trkpt lat="42.59444" lon="12.9552867"><ele>905.5</ele><time>2026-04-12T11:27:25.429Z</time></trkpt><trkpt lat="42.594775" lon="12.9551917"><ele>905.0</ele><time>2026-04-12T11:27:26.436Z</time></trkpt><trkpt lat="42.5951117" lon="12.9550967"><ele>904.5</ele><time>2026-04-12T11:27:27.432Z</time></trkpt><trkpt lat="42.5954417" lon="12.9550067"><ele>904.0</ele><time>2026-04-12T11:27:28.431Z</time></trkpt><trkpt lat="42.5957533" lon="12.95492"><ele>904.0</ele><time>2026-04-12T11:27:29.431Z</time></trkpt><trkpt lat="42.5960467" lon="12.954835"><ele>904.0</ele><time>2026-04-12T11:27:30.432Z</time></trkpt><trkpt lat="42.5963267" lon="12.9547517"><ele>903.0</ele><time>2026-04-12T11:27:31.43Z</time></trkpt><trkpt lat="42.596595" lon="12.95468"><ele>902.0</ele><time>2026-04-12T11:27:32.433Z</time></trkpt><trkpt lat="42.59685" lon="12.954625"><ele>901.5</ele><time>2026-04-12T11:27:33.435Z</time></trkpt><trkpt lat="42.597095" lon="12.9546017"><ele>901.0</ele><time>2026-04-12T11:27:34.432Z</time></trkpt><trkpt lat="42.5973267" lon="12.954605"><ele>901.0</ele><time>2026-04-12T11:27:35.434Z</time></trkpt><trkpt lat="42.5975467" lon="12.9546283"><ele>901.0</ele><time>2026-04-12T11:27:36.432Z</time></trkpt><trkpt lat="42.5977567" lon="12.954655"><ele>901.0</ele><time>2026-04-12T11:27:37.432Z</time></trkpt><trkpt lat="42.5979533" lon="12.9546817"><ele>900.6666666666666</ele><time>2026-04-12T11:27:38.434Z</time></trkpt><trkpt lat="42.5981433" lon="12.9547017"><ele>900.3333333333333</ele><time>2026-04-12T11:27:39.431Z</time></trkpt><trkpt lat="42.5983267" lon="12.9547083"><ele>900.0</ele><time>2026-04-12T11:27:40.432Z</time></trkpt><trkpt lat="42.5985017" lon="12.9546967"><ele>901.0</ele><time>2026-04-12T11:27:41.431Z</time></trkpt><trkpt lat="42.59867" lon="12.95467"><ele>902.0</ele><time>2026-04-12T11:27:42.429Z</time></trkpt><trkpt lat="42.5988417" lon="12.9546317"><ele>903.0</ele><time>2026-04-12T11:27:43.431Z</time></trkpt><trkpt lat="42.5990117" lon="12.954575"><ele>903.0</ele><time>2026-04-12T11:27:44.435Z</time></trkpt><trkpt lat="42.5991733" lon="12.9544683"><ele>903.0</ele><time>2026-04-12T11:27:45.433Z</time></trkpt><trkpt lat="42.5993283" lon="12.95431"><ele>903.0</ele><time>2026-04-12T11:27:46.432Z</time></trkpt><trkpt lat="42.599485" lon="12.9541133"><ele>909.5</ele><time>2026-04-12T11:27:47.431Z</time></trkpt><trkpt lat="42.5996617" lon="12.9538883"><ele>916.0</ele><time>2026-04-12T11:27:48.433Z</time></trkpt><trkpt lat="42.5998533" lon="12.953655"><ele>916.0</ele><time>2026-04-12T11:27:49.433Z</time></trkpt><trkpt lat="42.600045" lon="12.953425"><ele>916.0</ele><time>2026-04-12T11:27:50.448Z</time></trkpt><trkpt lat="42.600245" lon="12.9531867"><ele>917.5</ele><time>2026-04-12T11:27:51.435Z</time></trkpt><trkpt lat="42.60045" lon="12.9529617"><ele>919.0</ele><time>2026-04-12T11:27:52.431Z</time></trkpt><trkpt lat="42.6006633" lon="12.9527533"><ele>919.0</ele><time>2026-04-12T11:27:53.433Z</time></trkpt><trkpt lat="42.60089" lon="12.9525617"><ele>919.0</ele><time>2026-04-12T11:27:54.433Z</time></trkpt><trkpt lat="42.6011267" lon="12.95238"><ele>916.0</ele><time>2026-04-12T11:27:55.432Z</time></trkpt><trkpt lat="42.60136" lon="12.9522"><ele>913.0</ele><time>2026-04-12T11:27:56.429Z</time></trkpt><trkpt lat="42.601575" lon="12.9520083"><ele>913.0</ele><time>2026-04-12T11:27:57.442Z</time></trkpt><trkpt lat="42.6017767" lon="12.95181"><ele>913.0</ele><time>2026-04-12T11:27:58.429Z</time></trkpt><trkpt lat="42.6019633" lon="12.9516017"><ele>913.5</ele><time>2026-04-12T11:27:59.433Z</time></trkpt><trkpt lat="42.6021417" lon="12.9513733"><ele>914.0</ele><time>2026-04-12T11:28:00.435Z</time></trkpt><trkpt lat="42.6023017" lon="12.951135"><ele>914.0</ele><time>2026-04-12T11:28:01.437Z</time></trkpt><trkpt lat="42.6024567" lon="12.9509083"><ele>914.0</ele><time>2026-04-12T11:28:02.43Z</time></trkpt><trkpt lat="42.60263" lon="12.9507017"><ele>913.5</ele><time>2026-04-12T11:28:03.431Z</time></trkpt><trkpt lat="42.60283" lon="12.9505067"><ele>913.0</ele><time>2026-04-12T11:28:04.429Z</time></trkpt><trkpt lat="42.6030483" lon="12.95032"><ele>913.0</ele><time>2026-04-12T11:28:05.428Z</time></trkpt><trkpt lat="42.6032767" lon="12.9501317"><ele>913.0</ele><time>2026-04-12T11:28:06.431Z</time></trkpt><trkpt lat="42.60351" lon="12.9499533"><ele>905.5</ele><time>2026-04-12T11:28:07.43Z</time></trkpt><trkpt lat="42.6037433" lon="12.9497833"><ele>898.0</ele><time>2026-04-12T11:28:08.434Z</time></trkpt><trkpt lat="42.6039817" lon="12.94963"><ele>898.0</ele><time>2026-04-12T11:28:09.43Z</time></trkpt><trkpt lat="42.6042217" lon="12.9495017"><ele>898.0</ele><time>2026-04-12T11:28:10.433Z</time></trkpt><trkpt lat="42.6044717" lon="12.9494033"><ele>900.0</ele><time>2026-04-12T11:28:11.438Z</time></trkpt><trkpt lat="42.604735" lon="12.9493567"><ele>902.0</ele><time>2026-04-12T11:28:12.435Z</time></trkpt><trkpt lat="42.605" lon="12.9493483"><ele>902.0</ele><time>2026-04-12T11:28:13.438Z</time></trkpt><trkpt lat="42.605255" lon="12.9493667"><ele>902.0</ele><time>2026-04-12T11:28:14.435Z</time></trkpt><trkpt lat="42.6055083" lon="12.9493583"><ele>903.0</ele><time>2026-04-12T11:28:15.435Z</time></trkpt><trkpt lat="42.6057533" lon="12.9493083"><ele>904.0</ele><time>2026-04-12T11:28:16.432Z</time></trkpt><trkpt lat="42.6059883" lon="12.9492617"><ele>903.6666666666666</ele><time>2026-04-12T11:28:17.433Z</time></trkpt><trkpt lat="42.60621" lon="12.94925"><ele>903.3333333333333</ele><time>2026-04-12T11:28:18.436Z</time></trkpt><trkpt lat="42.606425" lon="12.9492783"><ele>903.0</ele><time>2026-04-12T11:28:19.433Z</time></trkpt><trkpt lat="42.60664" lon="12.94929"><ele>903.0</ele><time>2026-04-12T11:28:20.434Z</time></trkpt><trkpt lat="42.60687" lon="12.9492617"><ele>903.0</ele><time>2026-04-12T11:28:21.432Z</time></trkpt><trkpt lat="42.607095" lon="12.9491983"><ele>896.6666666666667</ele><time>2026-04-12T11:28:22.432Z</time></trkpt><trkpt lat="42.6073083" lon="12.9491283"><ele>890.3333333333334</ele><time>2026-04-12T11:28:23.431Z</time></trkpt><trkpt lat="42.6075033" lon="12.9490783"><ele>884.0</ele><time>2026-04-12T11:28:24.431Z</time></trkpt><trkpt lat="42.60768" lon="12.9490617"><ele>882.3333333333334</ele><time>2026-04-12T11:28:25.434Z</time></trkpt><trkpt lat="42.6078383" lon="12.94911"><ele>880.6666666666667</ele><time>2026-04-12T11:28:26.438Z</time></trkpt><trkpt lat="42.6079767" lon="12.94922"><ele>879.0</ele><time>2026-04-12T11:28:27.433Z</time></trkpt><trkpt lat="42.6081183" lon="12.9493217"><ele>885.6666666666667</ele><time>2026-04-12T11:28:28.429Z</time></trkpt><trkpt lat="42.608265" lon="12.94938"><ele>892.3333333333334</ele><time>2026-04-12T11:28:29.432Z</time></trkpt><trkpt lat="42.6084317" lon="12.9493717"><ele>899.0</ele><time>2026-04-12T11:28:30.429Z</time></trkpt><trkpt lat="42.6086367" lon="12.9493017"><ele>901.0</ele><time>2026-04-12T11:28:31.43Z</time></trkpt><trkpt lat="42.6088533" lon="12.9492167"><ele>903.0</ele><time>2026-04-12T11:28:32.434Z</time></trkpt><trkpt lat="42.609075" lon="12.94912"><ele>895.6666666666667</ele><time>2026-04-12T11:28:33.434Z</time></trkpt><trkpt lat="42.6092933" lon="12.9490217"><ele>888.3333333333334</ele><time>2026-04-12T11:28:34.433Z</time></trkpt><trkpt lat="42.6094917" lon="12.94892"><ele>881.0</ele><time>2026-04-12T11:28:35.433Z</time></trkpt><trkpt lat="42.60966" lon="12.9488333"><ele>881.0</ele><time>2026-04-12T11:28:36.433Z</time></trkpt><trkpt lat="42.6098067" lon="12.94878"><ele>881.0</ele><time>2026-04-12T11:28:37.425Z</time></trkpt><trkpt lat="42.6099517" lon="12.94879"><ele>881.0</ele><time>2026-04-12T11:28:38.427Z</time></trkpt><trkpt lat="42.610105" lon="12.9488617"><ele>881.0</ele><time>2026-04-12T11:28:39.431Z</time></trkpt><trkpt lat="42.6102817" lon="12.9490267"><ele>881.0</ele><time>2026-04-12T11:28:40.432Z</time></trkpt><trkpt lat="42.6104683" lon="12.94921"><ele>881.0</ele><time>2026-04-12T11:28:41.433Z</time></trkpt><trkpt lat="42.610655" lon="12.949385"><ele>881.3333333333334</ele><time>2026-04-12T11:28:42.431Z</time></trkpt><trkpt lat="42.6108517" lon="12.9495183"><ele>881.6666666666667</ele><time>2026-04-12T11:28:43.434Z</time></trkpt><trkpt lat="42.6110617" lon="12.9496"><ele>882.0</ele><time>2026-04-12T11:28:44.457Z</time></trkpt><trkpt lat="42.6112683" lon="12.9496383"><ele>880.6666666666667</ele><time>2026-04-12T11:28:45.433Z</time></trkpt><trkpt lat="42.61147" lon="12.94968"><ele>879.3333333333334</ele><time>2026-04-12T11:28:46.433Z</time></trkpt><trkpt lat="42.6116583" lon="12.9497867"><ele>878.0</ele><time>2026-04-12T11:28:47.434Z</time></trkpt><trkpt lat="42.6118367" lon="12.9499583"><ele>879.5</ele><time>2026-04-12T11:28:48.432Z</time></trkpt><trkpt lat="42.6120233" lon="12.95014"><ele>881.0</ele><time>2026-04-12T11:28:49.432Z</time></trkpt><trkpt lat="42.6122233" lon="12.9502983"><ele>881.0</ele><time>2026-04-12T11:28:50.433Z</time></trkpt><trkpt lat="42.6124417" lon="12.9504133"><ele>881.0</ele><time>2026-04-12T11:28:51.431Z</time></trkpt><trkpt lat="42.6126633" lon="12.950475"><ele>881.0</ele><time>2026-04-12T11:28:52.433Z</time></trkpt><trkpt lat="42.61289" lon="12.950495"><ele>881.0</ele><time>2026-04-12T11:28:53.431Z</time></trkpt><trkpt lat="42.6131267" lon="12.95049"><ele>881.0</ele><time>2026-04-12T11:28:54.431Z</time></trkpt><trkpt lat="42.6133683" lon="12.9504667"><ele>881.0</ele><time>2026-04-12T11:28:55.435Z</time></trkpt><trkpt lat="42.61362" lon="12.95044"><ele>882.0</ele><time>2026-04-12T11:28:56.43Z</time></trkpt><trkpt lat="42.6138783" lon="12.9504033"><ele>883.0</ele><time>2026-04-12T11:28:57.431Z</time></trkpt><trkpt lat="42.61414" lon="12.9503567"><ele>883.0</ele><time>2026-04-12T11:28:58.432Z</time></trkpt><trkpt lat="42.6144083" lon="12.9503067"><ele>883.0</ele><time>2026-04-12T11:28:59.429Z</time></trkpt><trkpt lat="42.6146817" lon="12.9502583"><ele>883.5</ele><time>2026-04-12T11:29:00.432Z</time></trkpt><trkpt lat="42.6149517" lon="12.9502067"><ele>884.0</ele><time>2026-04-12T11:29:01.43Z</time></trkpt><trkpt lat="42.6152117" lon="12.950155"><ele>882.0</ele><time>2026-04-12T11:29:02.435Z</time></trkpt><trkpt lat="42.61546" lon="12.9501167"><ele>880.0</ele><time>2026-04-12T11:29:03.434Z</time></trkpt><trkpt lat="42.6156983" lon="12.9500983"><ele>880.0</ele><time>2026-04-12T11:29:04.436Z</time></trkpt><trkpt lat="42.615925" lon="12.9500683"><ele>880.0</ele><time>2026-04-12T11:29:05.431Z</time></trkpt><trkpt lat="42.6161517" lon="12.95001"><ele>872.0</ele><time>2026-04-12T11:29:06.433Z</time></trkpt><trkpt lat="42.61636" lon="12.9499017"><ele>864.0</ele><time>2026-04-12T11:29:07.435Z</time></trkpt><trkpt lat="42.6165717" lon="12.9498133"><ele>856.0</ele><time>2026-04-12T11:29:08.433Z</time></trkpt><trkpt lat="42.6168017" lon="12.9497667"><ele>855.5</ele><time>2026-04-12T11:29:09.437Z</time></trkpt><trkpt lat="42.6170483" lon="12.9497483"><ele>855.0</ele><time>2026-04-12T11:29:10.429Z</time></trkpt><trkpt lat="42.6172967" lon="12.9497367"><ele>855.0</ele><time>2026-04-12T11:29:11.43Z</time></trkpt><trkpt lat="42.6175333" lon="12.9497317"><ele>855.0</ele><time>2026-04-12T11:29:12.427Z</time></trkpt><trkpt lat="42.6177583" lon="12.9497283"><ele>857.0</ele><time>2026-04-12T11:29:13.431Z</time></trkpt><trkpt lat="42.6179667" lon="12.9496883"><ele>859.0</ele><time>2026-04-12T11:29:14.433Z</time></trkpt><trkpt lat="42.618165" lon="12.9496067"><ele>861.0</ele><time>2026-04-12T11:29:15.436Z</time></trkpt><trkpt lat="42.618365" lon="12.9494667"><ele>861.0</ele><time>2026-04-12T11:29:16.433Z</time></trkpt><trkpt lat="42.618565" lon="12.9493"><ele>861.0</ele><time>2026-04-12T11:29:17.433Z</time></trkpt><trkpt lat="42.6187667" lon="12.9491333"><ele>859.6666666666667</ele><time>2026-04-12T11:29:18.431Z</time></trkpt><trkpt lat="42.61896" lon="12.94898"><ele>858.3333333333334</ele><time>2026-04-12T11:29:19.433Z</time></trkpt><trkpt lat="42.6191433" lon="12.9488317"><ele>857.0</ele><time>2026-04-12T11:29:20.434Z</time></trkpt><trkpt lat="42.6193367" lon="12.9487217"><ele>859.3333333333334</ele><time>2026-04-12T11:29:21.438Z</time></trkpt><trkpt lat="42.6195483" lon="12.9486467"><ele>861.6666666666667</ele><time>2026-04-12T11:29:22.431Z</time></trkpt><trkpt lat="42.619775" lon="12.9485983"><ele>864.0</ele><time>2026-04-12T11:29:23.434Z</time></trkpt><trkpt lat="42.620015" lon="12.948575"><ele>864.0</ele><time>2026-04-12T11:29:24.433Z</time></trkpt><trkpt lat="42.620265" lon="12.9485467"><ele>864.0</ele><time>2026-04-12T11:29:25.438Z</time></trkpt><trkpt lat="42.6205217" lon="12.9484917"><ele>864.5</ele><time>2026-04-12T11:29:26.434Z</time></trkpt><trkpt lat="42.6207833" lon="12.9483983"><ele>865.0</ele><time>2026-04-12T11:29:27.434Z</time></trkpt><trkpt lat="42.62105" lon="12.9482933"><ele>857.0</ele><time>2026-04-12T11:29:28.434Z</time></trkpt><trkpt lat="42.621305" lon="12.9481767"><ele>849.0</ele><time>2026-04-12T11:29:29.434Z</time></trkpt><trkpt lat="42.621545" lon="12.9480667"><ele>849.0</ele><time>2026-04-12T11:29:30.431Z</time></trkpt><trkpt lat="42.62177" lon="12.9479617"><ele>849.0</ele><time>2026-04-12T11:29:31.434Z</time></trkpt><trkpt lat="42.621995" lon="12.9478833"><ele>849.5</ele><time>2026-04-12T11:29:32.43Z</time></trkpt><trkpt lat="42.6222317" lon="12.9478433"><ele>850.0</ele><time>2026-04-12T11:29:33.436Z</time></trkpt><trkpt lat="42.6224867" lon="12.9478333"><ele>850.0</ele><time>2026-04-12T11:29:34.43Z</time></trkpt><trkpt lat="42.62274" lon="12.9478233"><ele>850.0</ele><time>2026-04-12T11:29:35.431Z</time></trkpt><trkpt lat="42.62298" lon="12.9478183"><ele>850.0</ele><time>2026-04-12T11:29:36.428Z</time></trkpt><trkpt lat="42.6232183" lon="12.94781"><ele>850.0</ele><time>2026-04-12T11:29:37.428Z</time></trkpt><trkpt lat="42.6234633" lon="12.9478167"><ele>847.0</ele><time>2026-04-12T11:29:38.433Z</time></trkpt><trkpt lat="42.6237133" lon="12.947855"><ele>844.0</ele><time>2026-04-12T11:29:39.431Z</time></trkpt><trkpt lat="42.6239633" lon="12.9479217"><ele>844.0</ele><time>2026-04-12T11:29:40.429Z</time></trkpt><trkpt lat="42.6242183" lon="12.947995"><ele>844.0</ele><time>2026-04-12T11:29:41.429Z</time></trkpt><trkpt lat="42.6244867" lon="12.94806"><ele>841.5</ele><time>2026-04-12T11:29:42.431Z</time></trkpt><trkpt lat="42.6247567" lon="12.948115"><ele>839.0</ele><time>2026-04-12T11:29:43.435Z</time></trkpt><trkpt lat="42.62503" lon="12.9481617"><ele>839.0</ele><time>2026-04-12T11:29:44.432Z</time></trkpt><trkpt lat="42.625305" lon="12.948195"><ele>839.0</ele><time>2026-04-12T11:29:45.432Z</time></trkpt><trkpt lat="42.6255817" lon="12.9482"><ele>839.0</ele><time>2026-04-12T11:29:46.431Z</time></trkpt><trkpt lat="42.6258533" lon="12.948175"><ele>839.0</ele><time>2026-04-12T11:29:47.437Z</time></trkpt><trkpt lat="42.6261117" lon="12.948125"><ele>835.5</ele><time>2026-04-12T11:29:48.432Z</time></trkpt><trkpt lat="42.626355" lon="12.94808"><ele>832.0</ele><time>2026-04-12T11:29:49.43Z</time></trkpt><trkpt lat="42.6265833" lon="12.9480667"><ele>832.0</ele><time>2026-04-12T11:29:50.433Z</time></trkpt><trkpt lat="42.6268017" lon="12.9480983"><ele>832.0</ele><time>2026-04-12T11:29:51.432Z</time></trkpt><trkpt lat="42.6270233" lon="12.9481833"><ele>829.3333333333333</ele><time>2026-04-12T11:29:52.435Z</time></trkpt><trkpt lat="42.6272367" lon="12.948295"><ele>826.6666666666667</ele><time>2026-04-12T11:29:53.429Z</time></trkpt><trkpt lat="42.6274417" lon="12.9484"><ele>824.0</ele><time>2026-04-12T11:29:54.435Z</time></trkpt><trkpt lat="42.6276517" lon="12.948475"><ele>828.3333333333334</ele><time>2026-04-12T11:29:55.429Z</time></trkpt><trkpt lat="42.6278567" lon="12.9485067"><ele>832.6666666666667</ele><time>2026-04-12T11:29:56.439Z</time></trkpt><trkpt lat="42.6280683" lon="12.9484783"><ele>837.0</ele><time>2026-04-12T11:29:57.429Z</time></trkpt><trkpt lat="42.6282767" lon="12.948395"><ele>830.3333333333333</ele><time>2026-04-12T11:29:58.43Z</time></trkpt><trkpt lat="42.628485" lon="12.948285"><ele>823.6666666666666</ele><time>2026-04-12T11:29:59.431Z</time></trkpt><trkpt lat="42.628685" lon="12.9481783"><ele>817.0</ele><time>2026-04-12T11:30:00.431Z</time></trkpt><trkpt lat="42.6288783" lon="12.94811"><ele>817.0</ele><time>2026-04-12T11:30:01.431Z</time></trkpt><trkpt lat="42.6290717" lon="12.948085"><ele>817.0</ele><time>2026-04-12T11:30:02.431Z</time></trkpt><trkpt lat="42.6292633" lon="12.9481"><ele>817.0</ele><time>2026-04-12T11:30:03.43Z</time></trkpt><trkpt lat="42.6294567" lon="12.9481633"><ele>817.3333333333333</ele><time>2026-04-12T11:30:04.434Z</time></trkpt><trkpt lat="42.629645" lon="12.9482683"><ele>817.6666666666667</ele><time>2026-04-12T11:30:05.429Z</time></trkpt><trkpt lat="42.6298167" lon="12.9484067"><ele>818.0</ele><time>2026-04-12T11:30:06.429Z</time></trkpt><trkpt lat="42.629965" lon="12.948575"><ele>818.0</ele><time>2026-04-12T11:30:07.43Z</time></trkpt><trkpt lat="42.6300917" lon="12.948805"><ele>818.0</ele><time>2026-04-12T11:30:08.43Z</time></trkpt><trkpt lat="42.6302017" lon="12.94909"><ele>818.0</ele><time>2026-04-12T11:30:09.433Z</time></trkpt><trkpt lat="42.6302967" lon="12.9493817"><ele>818.0</ele><time>2026-04-12T11:30:10.429Z</time></trkpt><trkpt lat="42.6303867" lon="12.949655"><ele>818.0</ele><time>2026-04-12T11:30:11.43Z</time></trkpt><trkpt lat="42.6304933" lon="12.9498983"><ele>818.0</ele><time>2026-04-12T11:30:12.433Z</time></trkpt><trkpt lat="42.630625" lon="12.9500967"><ele>818.0</ele><time>2026-04-12T11:30:13.432Z</time></trkpt><trkpt lat="42.6307567" lon="12.9502683"><ele>818.0</ele><time>2026-04-12T11:30:14.433Z</time></trkpt><trkpt lat="42.6308617" lon="12.9504567"><ele>818.0</ele><time>2026-04-12T11:30:15.429Z</time></trkpt><trkpt lat="42.630935" lon="12.9506717"><ele>820.6666666666667</ele><time>2026-04-12T11:30:16.428Z</time></trkpt><trkpt lat="42.630985" lon="12.95092"><ele>823.3333333333333</ele><time>2026-04-12T11:30:17.433Z</time></trkpt><trkpt lat="42.6310283" lon="12.951175"><ele>826.0</ele><time>2026-04-12T11:30:18.433Z</time></trkpt><trkpt lat="42.6310767" lon="12.9514183"><ele>821.0</ele><time>2026-04-12T11:30:19.428Z</time></trkpt><trkpt lat="42.6311617" lon="12.9516467"><ele>816.0</ele><time>2026-04-12T11:30:20.43Z</time></trkpt><trkpt lat="42.6312833" lon="12.9518533"><ele>811.0</ele><time>2026-04-12T11:30:21.43Z</time></trkpt><trkpt lat="42.6314167" lon="12.9520333"><ele>811.0</ele><time>2026-04-12T11:30:22.431Z</time></trkpt><trkpt lat="42.6315733" lon="12.9521733"><ele>811.0</ele><time>2026-04-12T11:30:23.431Z</time></trkpt><trkpt lat="42.6317317" lon="12.952265"><ele>811.0</ele><time>2026-04-12T11:30:24.431Z</time></trkpt><trkpt lat="42.631895" lon="12.9522767"><ele>811.6666666666666</ele><time>2026-04-12T11:30:25.428Z</time></trkpt><trkpt lat="42.6320483" lon="12.9522317"><ele>812.3333333333333</ele><time>2026-04-12T11:30:26.431Z</time></trkpt><trkpt lat="42.6321833" lon="12.9521333"><ele>813.0</ele><time>2026-04-12T11:30:27.431Z</time></trkpt><trkpt lat="42.632315" lon="12.952035"><ele>813.0</ele><time>2026-04-12T11:30:28.446Z</time></trkpt><trkpt lat="42.6324533" lon="12.951985"><ele>813.0</ele><time>2026-04-12T11:30:29.434Z</time></trkpt><trkpt lat="42.6325917" lon="12.952"><ele>813.0</ele><time>2026-04-12T11:30:30.43Z</time></trkpt><trkpt lat="42.63273" lon="12.9520983"><ele>813.0</ele><time>2026-04-12T11:30:31.432Z</time></trkpt><trkpt lat="42.6328683" lon="12.9522783"><ele>814.3333333333333</ele><time>2026-04-12T11:30:32.436Z</time></trkpt><trkpt lat="42.6330117" lon="12.9524867"><ele>815.6666666666666</ele><time>2026-04-12T11:30:33.433Z</time></trkpt><trkpt lat="42.6331917" lon="12.9526733"><ele>817.0</ele><time>2026-04-12T11:30:34.433Z</time></trkpt><trkpt lat="42.63342" lon="12.952825"><ele>808.5</ele><time>2026-04-12T11:30:35.435Z</time></trkpt><trkpt lat="42.6336817" lon="12.95296"><ele>800.0</ele><time>2026-04-12T11:30:36.436Z</time></trkpt><trkpt lat="42.63396" lon="12.9531033"><ele>800.0</ele><time>2026-04-12T11:30:37.431Z</time></trkpt><trkpt lat="42.6342433" lon="12.9532567"><ele>800.0</ele><time>2026-04-12T11:30:38.431Z</time></trkpt><trkpt lat="42.634515" lon="12.9533983"><ele>805.0</ele><time>2026-04-12T11:30:39.434Z</time></trkpt><trkpt lat="42.63477" lon="12.9535333"><ele>810.0</ele><time>2026-04-12T11:30:40.433Z</time></trkpt><trkpt lat="42.6350217" lon="12.9536433"><ele>810.0</ele><time>2026-04-12T11:30:41.434Z</time></trkpt><trkpt lat="42.6352783" lon="12.9537217"><ele>810.0</ele><time>2026-04-12T11:30:42.431Z</time></trkpt><trkpt lat="42.6355467" lon="12.9537617"><ele>808.0</ele><time>2026-04-12T11:30:43.433Z</time></trkpt><trkpt lat="42.6358283" lon="12.9537767"><ele>806.0</ele><time>2026-04-12T11:30:44.435Z</time></trkpt><trkpt lat="42.636105" lon="12.9537867"><ele>802.5</ele><time>2026-04-12T11:30:45.431Z</time></trkpt><trkpt lat="42.636385" lon="12.953815"><ele>799.0</ele><time>2026-04-12T11:30:46.432Z</time></trkpt><trkpt lat="42.63666" lon="12.953865"><ele>799.0</ele><time>2026-04-12T11:30:47.431Z</time></trkpt><trkpt lat="42.6369317" lon="12.9539133"><ele>799.0</ele><time>2026-04-12T11:30:48.43Z</time></trkpt><trkpt lat="42.6371917" lon="12.95394"><ele>797.5</ele><time>2026-04-12T11:30:49.428Z</time></trkpt><trkpt lat="42.63743" lon="12.95393"><ele>796.0</ele><time>2026-04-12T11:30:50.434Z</time></trkpt><trkpt lat="42.6376467" lon="12.95391"><ele>792.0</ele><time>2026-04-12T11:30:51.433Z</time></trkpt><trkpt lat="42.6378367" lon="12.953885"><ele>788.0</ele><time>2026-04-12T11:30:52.431Z</time></trkpt><trkpt lat="42.6380033" lon="12.9538383"><ele>784.0</ele><time>2026-04-12T11:30:53.431Z</time></trkpt><trkpt lat="42.6381483" lon="12.95371"><ele>784.0</ele><time>2026-04-12T11:30:54.428Z</time></trkpt><trkpt lat="42.63827" lon="12.9534967"><ele>784.0</ele><time>2026-04-12T11:30:55.427Z</time></trkpt><trkpt lat="42.6383917" lon="12.953255"><ele>784.0</ele><time>2026-04-12T11:30:56.429Z</time></trkpt><trkpt lat="42.6385033" lon="12.9530233"><ele>784.6666666666666</ele><time>2026-04-12T11:30:57.429Z</time></trkpt><trkpt lat="42.638605" lon="12.95281"><ele>785.3333333333333</ele><time>2026-04-12T11:30:58.43Z</time></trkpt><trkpt lat="42.6387" lon="12.9526167"><ele>786.0</ele><time>2026-04-12T11:30:59.432Z</time></trkpt><trkpt lat="42.6388067" lon="12.9524633"><ele>786.0</ele><time>2026-04-12T11:31:00.431Z</time></trkpt><trkpt lat="42.6389267" lon="12.9523683"><ele>786.0</ele><time>2026-04-12T11:31:01.43Z</time></trkpt><trkpt lat="42.6390683" lon="12.95235"><ele>786.0</ele><time>2026-04-12T11:31:02.432Z</time></trkpt><trkpt lat="42.6392267" lon="12.9523917"><ele>786.0</ele><time>2026-04-12T11:31:03.432Z</time></trkpt><trkpt lat="42.63941" lon="12.9524983"><ele>782.0</ele><time>2026-04-12T11:31:04.431Z</time></trkpt><trkpt lat="42.639625" lon="12.9526333"><ele>778.0</ele><time>2026-04-12T11:31:05.43Z</time></trkpt><trkpt lat="42.6398317" lon="12.9527583"><ele>778.0</ele><time>2026-04-12T11:31:06.432Z</time></trkpt><trkpt lat="42.6400267" lon="12.9528617"><ele>778.0</ele><time>2026-04-12T11:31:07.433Z</time></trkpt><trkpt lat="42.640225" lon="12.9528967"><ele>778.0</ele><time>2026-04-12T11:31:08.442Z</time></trkpt><trkpt lat="42.640425" lon="12.9528733"><ele>779.0</ele><time>2026-04-12T11:31:09.431Z</time></trkpt><trkpt lat="42.6406233" lon="12.9528017"><ele>780.0</ele><time>2026-04-12T11:31:10.431Z</time></trkpt><trkpt lat="42.6407983" lon="12.9527567"><ele>781.0</ele><time>2026-04-12T11:31:11.433Z</time></trkpt><trkpt lat="42.6409717" lon="12.9527533"><ele>783.3333333333333</ele><time>2026-04-12T11:31:12.429Z</time></trkpt><trkpt lat="42.6411417" lon="12.952805"><ele>785.6666666666667</ele><time>2026-04-12T11:31:13.431Z</time></trkpt><trkpt lat="42.6412967" lon="12.9529033"><ele>788.0</ele><time>2026-04-12T11:31:14.429Z</time></trkpt><trkpt lat="42.6414467" lon="12.9530583"><ele>788.0</ele><time>2026-04-12T11:31:15.429Z</time></trkpt><trkpt lat="42.6415883" lon="12.9532683"><ele>788.0</ele><time>2026-04-12T11:31:16.43Z</time></trkpt><trkpt lat="42.6417167" lon="12.9535033"><ele>788.0</ele><time>2026-04-12T11:31:17.43Z</time></trkpt><trkpt lat="42.6418383" lon="12.953725"><ele>787.3333333333334</ele><time>2026-04-12T11:31:18.426Z</time></trkpt><trkpt lat="42.641965" lon="12.9539217"><ele>786.6666666666667</ele><time>2026-04-12T11:31:19.434Z</time></trkpt><trkpt lat="42.6421067" lon="12.9540817"><ele>786.0</ele><time>2026-04-12T11:31:20.432Z</time></trkpt><trkpt lat="42.6422733" lon="12.9541833"><ele>784.0</ele><time>2026-04-12T11:31:21.429Z</time></trkpt><trkpt lat="42.6424567" lon="12.9542517"><ele>782.0</ele><time>2026-04-12T11:31:22.429Z</time></trkpt><trkpt lat="42.6426583" lon="12.954305"><ele>780.0</ele><time>2026-04-12T11:31:23.431Z</time></trkpt><trkpt lat="42.6428667" lon="12.9543617"><ele>780.0</ele><time>2026-04-12T11:31:24.433Z</time></trkpt><trkpt lat="42.64307" lon="12.954415"><ele>780.0</ele><time>2026-04-12T11:31:25.431Z</time></trkpt><trkpt lat="42.643245" lon="12.95446"><ele>780.0</ele><time>2026-04-12T11:31:26.456Z</time></trkpt><trkpt lat="42.64339" lon="12.9545"><ele>780.0</ele><time>2026-04-12T11:31:27.426Z</time></trkpt><trkpt lat="42.6435283" lon="12.9545383"><ele>780.0</ele><time>2026-04-12T11:31:28.431Z</time></trkpt><trkpt lat="42.6436733" lon="12.9545883"><ele>780.0</ele><time>2026-04-12T11:31:29.431Z</time></trkpt><trkpt lat="42.643825" lon="12.9546617"><ele>782.0</ele><time>2026-04-12T11:31:30.433Z</time></trkpt><trkpt lat="42.6439683" lon="12.9547533"><ele>784.0</ele><time>2026-04-12T11:31:31.429Z</time></trkpt><trkpt lat="42.6441117" lon="12.9548567"><ele>786.0</ele><time>2026-04-12T11:31:32.434Z</time></trkpt><trkpt lat="42.644255" lon="12.95496"><ele>783.3333333333333</ele><time>2026-04-12T11:31:33.433Z</time></trkpt><trkpt lat="42.6444083" lon="12.955065"><ele>780.6666666666666</ele><time>2026-04-12T11:31:34.438Z</time></trkpt><trkpt lat="42.6445717" lon="12.95518"><ele>778.0</ele><time>2026-04-12T11:31:35.429Z</time></trkpt><trkpt lat="42.644755" lon="12.9552983"><ele>778.0</ele><time>2026-04-12T11:31:36.431Z</time></trkpt><trkpt lat="42.6449533" lon="12.9554033"><ele>778.0</ele><time>2026-04-12T11:31:37.429Z</time></trkpt><trkpt lat="42.6451633" lon="12.9554867"><ele>778.0</ele><time>2026-04-12T11:31:38.429Z</time></trkpt><trkpt lat="42.6453883" lon="12.9555583"><ele>778.0</ele><time>2026-04-12T11:31:39.429Z</time></trkpt><trkpt lat="42.6456133" lon="12.9556233"><ele>778.0</ele><time>2026-04-12T11:31:40.434Z</time></trkpt><trkpt lat="42.645835" lon="12.9556867"><ele>778.0</ele><time>2026-04-12T11:31:41.435Z</time></trkpt><trkpt lat="42.6460583" lon="12.9557517"><ele>778.0</ele><time>2026-04-12T11:31:42.43Z</time></trkpt><trkpt lat="42.6462817" lon="12.95582"><ele>773.0</ele><time>2026-04-12T11:31:43.427Z</time></trkpt><trkpt lat="42.6465083" lon="12.9558883"><ele>768.0</ele><time>2026-04-12T11:31:44.45Z</time></trkpt><trkpt lat="42.646735" lon="12.9559567"><ele>767.0</ele><time>2026-04-12T11:31:45.432Z</time></trkpt><trkpt lat="42.6469617" lon="12.956025"><ele>766.0</ele><time>2026-04-12T11:31:46.43Z</time></trkpt><trkpt lat="42.6471917" lon="12.9560933"><ele>766.0</ele><time>2026-04-12T11:31:47.431Z</time></trkpt><trkpt lat="42.6474283" lon="12.9561633"><ele>766.0</ele><time>2026-04-12T11:31:48.434Z</time></trkpt><trkpt lat="42.6476667" lon="12.9562317"><ele>764.5</ele><time>2026-04-12T11:31:49.431Z</time></trkpt><trkpt lat="42.64791" lon="12.956295"><ele>763.0</ele><time>2026-04-12T11:31:50.431Z</time></trkpt><trkpt lat="42.6481567" lon="12.9563617"><ele>763.0</ele><time>2026-04-12T11:31:51.431Z</time></trkpt><trkpt lat="42.6484083" lon="12.956435"><ele>763.0</ele><time>2026-04-12T11:31:52.427Z</time></trkpt><trkpt lat="42.64866" lon="12.9565083"><ele>765.5</ele><time>2026-04-12T11:31:53.433Z</time></trkpt><trkpt lat="42.6489133" lon="12.956585"><ele>768.0</ele><time>2026-04-12T11:31:54.436Z</time></trkpt><trkpt lat="42.64917" lon="12.95666"><ele>766.5</ele><time>2026-04-12T11:31:55.432Z</time></trkpt><trkpt lat="42.649425" lon="12.9567283"><ele>765.0</ele><time>2026-04-12T11:31:56.431Z</time></trkpt><trkpt lat="42.649685" lon="12.9567967"><ele>764.0</ele><time>2026-04-12T11:31:57.43Z</time></trkpt><trkpt lat="42.649945" lon="12.9568717"><ele>763.0</ele><time>2026-04-12T11:31:58.434Z</time></trkpt><trkpt lat="42.6502" lon="12.9569467"><ele>763.5</ele><time>2026-04-12T11:31:59.434Z</time></trkpt><trkpt lat="42.6504517" lon="12.9570233"><ele>764.0</ele><time>2026-04-12T11:32:00.432Z</time></trkpt><trkpt lat="42.650705" lon="12.957105"><ele>764.0</ele><time>2026-04-12T11:32:01.434Z</time></trkpt><trkpt lat="42.6509583" lon="12.957185"><ele>764.0</ele><time>2026-04-12T11:32:02.434Z</time></trkpt><trkpt lat="42.651215" lon="12.9572583"><ele>767.5</ele><time>2026-04-12T11:32:03.433Z</time></trkpt><trkpt lat="42.6514717" lon="12.9573283"><ele>771.0</ele><time>2026-04-12T11:32:04.429Z</time></trkpt><trkpt lat="42.6517283" lon="12.9573867"><ele>771.0</ele><time>2026-04-12T11:32:05.432Z</time></trkpt><trkpt lat="42.6519917" lon="12.95743"><ele>771.0</ele><time>2026-04-12T11:32:06.431Z</time></trkpt><trkpt lat="42.6522483" lon="12.9574517"><ele>771.0</ele><time>2026-04-12T11:32:07.43Z</time></trkpt><trkpt lat="42.6524883" lon="12.95746"><ele>771.0</ele><time>2026-04-12T11:32:08.43Z</time></trkpt><trkpt lat="42.6527117" lon="12.957465"><ele>769.3333333333334</ele><time>2026-04-12T11:32:09.434Z</time></trkpt><trkpt lat="42.652915" lon="12.9574833"><ele>767.6666666666667</ele><time>2026-04-12T11:32:10.433Z</time></trkpt><trkpt lat="42.6530983" lon="12.9575433"><ele>766.0</ele><time>2026-04-12T11:32:11.434Z</time></trkpt><trkpt lat="42.6532667" lon="12.9576667"><ele>766.0</ele><time>2026-04-12T11:32:12.431Z</time></trkpt><trkpt lat="42.65342" lon="12.9578483"><ele>766.0</ele><time>2026-04-12T11:32:13.433Z</time></trkpt><trkpt lat="42.6535567" lon="12.9580683"><ele>766.0</ele><time>2026-04-12T11:32:14.431Z</time></trkpt><trkpt lat="42.65368" lon="12.9583083"><ele>770.3333333333334</ele><time>2026-04-12T11:32:15.434Z</time></trkpt><trkpt lat="42.653785" lon="12.9585567"><ele>774.6666666666667</ele><time>2026-04-12T11:32:16.433Z</time></trkpt><trkpt lat="42.6538517" lon="12.9588217"><ele>779.0</ele><time>2026-04-12T11:32:17.433Z</time></trkpt><trkpt lat="42.6538717" lon="12.9590983"><ele>775.3333333333334</ele><time>2026-04-12T11:32:18.429Z</time></trkpt><trkpt lat="42.65388" lon="12.9593633"><ele>771.6666666666667</ele><time>2026-04-12T11:32:19.431Z</time></trkpt><trkpt lat="42.6539017" lon="12.95961"><ele>768.0</ele><time>2026-04-12T11:32:20.437Z</time></trkpt><trkpt lat="42.6539567" lon="12.9598417"><ele>764.6666666666666</ele><time>2026-04-12T11:32:21.431Z</time></trkpt><trkpt lat="42.654055" lon="12.960045"><ele>761.3333333333333</ele><time>2026-04-12T11:32:22.43Z</time></trkpt><trkpt lat="42.6542" lon="12.96021"><ele>758.0</ele><time>2026-04-12T11:32:23.427Z</time></trkpt><trkpt lat="42.65438" lon="12.960325"><ele>758.0</ele><time>2026-04-12T11:32:24.434Z</time></trkpt><trkpt lat="42.65457" lon="12.9603617"><ele>758.0</ele><time>2026-04-12T11:32:25.429Z</time></trkpt><trkpt lat="42.6547633" lon="12.9603083"><ele>758.0</ele><time>2026-04-12T11:32:26.433Z</time></trkpt><trkpt lat="42.65494" lon="12.960195"><ele>760.6666666666666</ele><time>2026-04-12T11:32:27.425Z</time></trkpt><trkpt lat="42.6551033" lon="12.960005"><ele>763.3333333333334</ele><time>2026-04-12T11:32:28.427Z</time></trkpt><trkpt lat="42.6552383" lon="12.95981"><ele>766.0</ele><time>2026-04-12T11:32:29.432Z</time></trkpt><trkpt lat="42.65536" lon="12.9596283"><ele>766.0</ele><time>2026-04-12T11:32:30.432Z</time></trkpt><trkpt lat="42.6554667" lon="12.9594633"><ele>766.0</ele><time>2026-04-12T11:32:31.431Z</time></trkpt><trkpt lat="42.6555717" lon="12.959335"><ele>766.0</ele><time>2026-04-12T11:32:32.43Z</time></trkpt><trkpt lat="42.6556767" lon="12.95928"><ele>766.0</ele><time>2026-04-12T11:32:33.43Z</time></trkpt><trkpt lat="42.6557817" lon="12.9592933"><ele>766.0</ele><time>2026-04-12T11:32:34.437Z</time></trkpt><trkpt lat="42.6558817" lon="12.9593667"><ele>766.0</ele><time>2026-04-12T11:32:35.432Z</time></trkpt><trkpt lat="42.6559733" lon="12.9595167"><ele>766.0</ele><time>2026-04-12T11:32:36.432Z</time></trkpt><trkpt lat="42.6560833" lon="12.959715"><ele>766.0</ele><time>2026-04-12T11:32:37.433Z</time></trkpt><trkpt lat="42.6562167" lon="12.95997"><ele>773.0</ele><time>2026-04-12T11:32:38.429Z</time></trkpt><trkpt lat="42.656375" lon="12.9602417"><ele>780.0</ele><time>2026-04-12T11:32:39.43Z</time></trkpt><trkpt lat="42.65652" lon="12.9605083"><ele>780.0</ele><time>2026-04-12T11:32:40.428Z</time></trkpt><trkpt lat="42.6566617" lon="12.96077"><ele>780.0</ele><time>2026-04-12T11:32:41.431Z</time></trkpt><trkpt lat="42.656795" lon="12.9610067"><ele>779.6666666666667</ele><time>2026-04-12T11:32:42.433Z</time></trkpt><trkpt lat="42.6569233" lon="12.9612117"><ele>779.3333333333334</ele><time>2026-04-12T11:32:43.434Z</time></trkpt><trkpt lat="42.65706" lon="12.9613767"><ele>779.0</ele><time>2026-04-12T11:32:44.435Z</time></trkpt><trkpt lat="42.6572233" lon="12.9614783"><ele>779.0</ele><time>2026-04-12T11:32:45.435Z</time></trkpt><trkpt lat="42.6574267" lon="12.9615267"><ele>779.0</ele><time>2026-04-12T11:32:46.431Z</time></trkpt><trkpt lat="42.6576367" lon="12.961565"><ele>779.0</ele><time>2026-04-12T11:32:47.432Z</time></trkpt><trkpt lat="42.6578383" lon="12.9616067"><ele>779.0</ele><time>2026-04-12T11:32:48.433Z</time></trkpt><trkpt lat="42.658025" lon="12.9616367"><ele>779.0</ele><time>2026-04-12T11:32:49.43Z</time></trkpt><trkpt lat="42.6581967" lon="12.9616583"><ele>779.0</ele><time>2026-04-12T11:32:50.434Z</time></trkpt><trkpt lat="42.6583333" lon="12.961685"><ele>781.4000000000001</ele><time>2026-04-12T11:32:51.434Z</time></trkpt><trkpt lat="42.6584283" lon="12.9617567"><ele>783.8</ele><time>2026-04-12T11:32:52.436Z</time></trkpt><trkpt lat="42.6584867" lon="12.9618817"><ele>786.2</ele><time>2026-04-12T11:32:53.431Z</time></trkpt><trkpt lat="42.6585367" lon="12.9620133"><ele>788.5999999999999</ele><time>2026-04-12T11:32:54.431Z</time></trkpt><trkpt lat="42.65861" lon="12.9621133"><ele>791.0</ele><time>2026-04-12T11:32:55.433Z</time></trkpt><trkpt lat="42.658715" lon="12.9621767"><ele>791.0</ele><time>2026-04-12T11:32:56.434Z</time></trkpt><trkpt lat="42.6588483" lon="12.962205"><ele>791.0</ele><time>2026-04-12T11:32:57.435Z</time></trkpt><trkpt lat="42.6590033" lon="12.9621833"><ele>791.0</ele><time>2026-04-12T11:32:58.43Z</time></trkpt><trkpt lat="42.65915" lon="12.9621733"><ele>791.0</ele><time>2026-04-12T11:32:59.425Z</time></trkpt><trkpt lat="42.659285" lon="12.9622217"><ele>791.0</ele><time>2026-04-12T11:33:00.427Z</time></trkpt><trkpt lat="42.6593967" lon="12.962315"><ele>791.0</ele><time>2026-04-12T11:33:01.427Z</time></trkpt><trkpt lat="42.6594983" lon="12.9624617"><ele>791.0</ele><time>2026-04-12T11:33:02.427Z</time></trkpt><trkpt lat="42.6595817" lon="12.9626583"><ele>791.0</ele><time>2026-04-12T11:33:03.428Z</time></trkpt><trkpt lat="42.65966" lon="12.96286"><ele>793.3333333333334</ele><time>2026-04-12T11:33:04.429Z</time></trkpt><trkpt lat="42.6597417" lon="12.9630383"><ele>795.6666666666667</ele><time>2026-04-12T11:33:05.43Z</time></trkpt><trkpt lat="42.659855" lon="12.9631767"><ele>798.0</ele><time>2026-04-12T11:33:06.429Z</time></trkpt><trkpt lat="42.659995" lon="12.96329"><ele>798.0</ele><time>2026-04-12T11:33:07.433Z</time></trkpt><trkpt lat="42.6602017" lon="12.9633383"><ele>798.0</ele><time>2026-04-12T11:33:08.432Z</time></trkpt><trkpt lat="42.6604533" lon="12.963395"><ele>820.0</ele><time>2026-04-12T11:33:09.431Z</time></trkpt><trkpt lat="42.6607133" lon="12.9634567"><ele>842.0</ele><time>2026-04-12T11:33:10.433Z</time></trkpt><trkpt lat="42.6609683" lon="12.9635067"><ele>828.0</ele><time>2026-04-12T11:33:11.435Z</time></trkpt><trkpt lat="42.661235" lon="12.9635867"><ele>814.0</ele><time>2026-04-12T11:33:12.43Z</time></trkpt><trkpt lat="42.6615067" lon="12.9636817"><ele>814.0</ele><time>2026-04-12T11:33:13.432Z</time></trkpt><trkpt lat="42.6617833" lon="12.9637767"><ele>814.0</ele><time>2026-04-12T11:33:14.427Z</time></trkpt><trkpt lat="42.66205" lon="12.9638583"><ele>807.5</ele><time>2026-04-12T11:33:15.429Z</time></trkpt><trkpt lat="42.6623033" lon="12.963955"><ele>801.0</ele><time>2026-04-12T11:33:16.434Z</time></trkpt><trkpt lat="42.6625333" lon="12.9640333"><ele>801.0</ele><time>2026-04-12T11:33:17.431Z</time></trkpt><trkpt lat="42.662735" lon="12.9641033"><ele>801.0</ele><time>2026-04-12T11:33:18.436Z</time></trkpt><trkpt lat="42.6629083" lon="12.9641783"><ele>801.0</ele><time>2026-04-12T11:33:19.43Z</time></trkpt><trkpt lat="42.6630717" lon="12.9642983"><ele>806.3333333333333</ele><time>2026-04-12T11:33:20.434Z</time></trkpt><trkpt lat="42.6632167" lon="12.9644333"><ele>811.6666666666666</ele><time>2026-04-12T11:33:21.435Z</time></trkpt><trkpt lat="42.6633633" lon="12.964615"><ele>817.0</ele><time>2026-04-12T11:33:22.432Z</time></trkpt><trkpt lat="42.6634917" lon="12.96481"><ele>822.6666666666666</ele><time>2026-04-12T11:33:23.43Z</time></trkpt><trkpt lat="42.663615" lon="12.964995"><ele>828.3333333333333</ele><time>2026-04-12T11:33:24.431Z</time></trkpt><trkpt lat="42.6637383" lon="12.965135"><ele>834.0</ele><time>2026-04-12T11:33:25.428Z</time></trkpt><trkpt lat="42.6638583" lon="12.96522"><ele>834.0</ele><time>2026-04-12T11:33:26.433Z</time></trkpt><trkpt lat="42.6639917" lon="12.9652367"><ele>834.0</ele><time>2026-04-12T11:33:27.431Z</time></trkpt><trkpt lat="42.66414" lon="12.9651917"><ele>834.0</ele><time>2026-04-12T11:33:28.427Z</time></trkpt><trkpt lat="42.6643017" lon="12.9651533"><ele>828.0</ele><time>2026-04-12T11:33:29.429Z</time></trkpt><trkpt lat="42.66446" lon="12.9651467"><ele>822.0</ele><time>2026-04-12T11:33:30.433Z</time></trkpt><trkpt lat="42.6646033" lon="12.9651867"><ele>816.0</ele><time>2026-04-12T11:33:31.435Z</time></trkpt><trkpt lat="42.6647383" lon="12.9652833"><ele>816.0</ele><time>2026-04-12T11:33:32.429Z</time></trkpt><trkpt lat="42.6648667" lon="12.9654633"><ele>816.0</ele><time>2026-04-12T11:33:33.431Z</time></trkpt><trkpt lat="42.6649783" lon="12.9656617"><ele>816.0</ele><time>2026-04-12T11:33:34.432Z</time></trkpt><trkpt lat="42.6651017" lon="12.9658117"><ele>822.6666666666667</ele><time>2026-04-12T11:33:35.433Z</time></trkpt><trkpt lat="42.665235" lon="12.965905"><ele>829.3333333333334</ele><time>2026-04-12T11:33:36.43Z</time></trkpt><trkpt lat="42.6654" lon="12.96594"><ele>836.0</ele><time>2026-04-12T11:33:37.43Z</time></trkpt><trkpt lat="42.66561" lon="12.9659183"><ele>836.0</ele><time>2026-04-12T11:33:38.432Z</time></trkpt><trkpt lat="42.665835" lon="12.9658833"><ele>836.0</ele><time>2026-04-12T11:33:39.432Z</time></trkpt><trkpt lat="42.666075" lon="12.965885"><ele>837.0</ele><time>2026-04-12T11:33:40.432Z</time></trkpt><trkpt lat="42.6663283" lon="12.965925"><ele>838.0</ele><time>2026-04-12T11:33:41.429Z</time></trkpt><trkpt lat="42.6665883" lon="12.9659867"><ele>838.0</ele><time>2026-04-12T11:33:42.433Z</time></trkpt><trkpt lat="42.6668567" lon="12.96605"><ele>838.0</ele><time>2026-04-12T11:33:43.433Z</time></trkpt><trkpt lat="42.6671283" lon="12.9661133"><ele>838.5</ele><time>2026-04-12T11:33:44.435Z</time></trkpt><trkpt lat="42.6673967" lon="12.9661733"><ele>839.0</ele><time>2026-04-12T11:33:45.432Z</time></trkpt><trkpt lat="42.6676433" lon="12.966225"><ele>838.3333333333334</ele><time>2026-04-12T11:33:46.43Z</time></trkpt><trkpt lat="42.667855" lon="12.9662633"><ele>837.6666666666667</ele><time>2026-04-12T11:33:47.431Z</time></trkpt><trkpt lat="42.6680317" lon="12.9663017"><ele>837.0</ele><time>2026-04-12T11:33:48.431Z</time></trkpt><trkpt lat="42.6681767" lon="12.9663717"><ele>837.0</ele><time>2026-04-12T11:33:49.43Z</time></trkpt><trkpt lat="42.6682867" lon="12.9664817"><ele>837.0</ele><time>2026-04-12T11:33:50.435Z</time></trkpt><trkpt lat="42.66836" lon="12.9666267"><ele>837.0</ele><time>2026-04-12T11:33:51.431Z</time></trkpt><trkpt lat="42.6684417" lon="12.966765"><ele>837.0</ele><time>2026-04-12T11:33:52.434Z</time></trkpt><trkpt lat="42.6685483" lon="12.9668617"><ele>845.6666666666667</ele><time>2026-04-12T11:33:53.434Z</time></trkpt><trkpt lat="42.6686783" lon="12.96691"><ele>854.3333333333334</ele><time>2026-04-12T11:33:54.43Z</time></trkpt><trkpt lat="42.6688283" lon="12.9668983"><ele>863.0</ele><time>2026-04-12T11:33:55.427Z</time></trkpt><trkpt lat="42.6690183" lon="12.966805"><ele>858.5</ele><time>2026-04-12T11:33:56.426Z</time></trkpt><trkpt lat="42.66924" lon="12.9666733"><ele>854.0</ele><time>2026-04-12T11:33:57.439Z</time></trkpt><trkpt lat="42.6694483" lon="12.9665567"><ele>854.0</ele><time>2026-04-12T11:33:58.429Z</time></trkpt><trkpt lat="42.669635" lon="12.966445"><ele>854.0</ele><time>2026-04-12T11:33:59.429Z</time></trkpt><trkpt lat="42.6698083" lon="12.966375"><ele>854.0</ele><time>2026-04-12T11:34:00.433Z</time></trkpt><trkpt lat="42.6699867" lon="12.966355"><ele>854.0</ele><time>2026-04-12T11:34:01.439Z</time></trkpt><trkpt lat="42.6701783" lon="12.9663933"><ele>854.0</ele><time>2026-04-12T11:34:02.434Z</time></trkpt><trkpt lat="42.6703767" lon="12.966455"><ele>854.0</ele><time>2026-04-12T11:34:03.434Z</time></trkpt><trkpt lat="42.67056" lon="12.96652"><ele>852.5</ele><time>2026-04-12T11:34:04.43Z</time></trkpt><trkpt lat="42.6707233" lon="12.96658"><ele>851.0</ele><time>2026-04-12T11:34:05.433Z</time></trkpt><trkpt lat="42.6708617" lon="12.9666417"><ele>849.5</ele><time>2026-04-12T11:34:06.432Z</time></trkpt><trkpt lat="42.670975" lon="12.9667167"><ele>848.0</ele><time>2026-04-12T11:34:07.431Z</time></trkpt><trkpt lat="42.6710483" lon="12.966835"><ele>851.25</ele><time>2026-04-12T11:34:08.435Z</time></trkpt><trkpt lat="42.6711033" lon="12.96698"><ele>854.5</ele><time>2026-04-12T11:34:09.432Z</time></trkpt><trkpt lat="42.6711333" lon="12.9671467"><ele>857.75</ele><time>2026-04-12T11:34:10.431Z</time></trkpt><trkpt lat="42.671155" lon="12.9673117"><ele>861.0</ele><time>2026-04-12T11:34:11.43Z</time></trkpt><trkpt lat="42.67119" lon="12.9674567"><ele>861.0</ele><time>2026-04-12T11:34:12.435Z</time></trkpt><trkpt lat="42.671255" lon="12.9675633"><ele>861.0</ele><time>2026-04-12T11:34:13.433Z</time></trkpt><trkpt lat="42.6713583" lon="12.967605"><ele>861.0</ele><time>2026-04-12T11:34:14.435Z</time></trkpt><trkpt lat="42.6714733" lon="12.9675883"><ele>861.0</ele><time>2026-04-12T11:34:15.435Z</time></trkpt><trkpt lat="42.671595" lon="12.967515"><ele>861.0</ele><time>2026-04-12T11:34:16.432Z</time></trkpt><trkpt lat="42.6717217" lon="12.96744"><ele>861.0</ele><time>2026-04-12T11:34:17.43Z</time></trkpt><trkpt lat="42.6718717" lon="12.9674033"><ele>861.0</ele><time>2026-04-12T11:34:18.431Z</time></trkpt><trkpt lat="42.6720583" lon="12.9674117"><ele>862.0</ele><time>2026-04-12T11:34:19.432Z</time></trkpt><trkpt lat="42.67227" lon="12.9674333"><ele>863.0</ele><time>2026-04-12T11:34:20.433Z</time></trkpt><trkpt lat="42.6724933" lon="12.96747"><ele>864.0</ele><time>2026-04-12T11:34:21.431Z</time></trkpt><trkpt lat="42.6727183" lon="12.9675067"><ele>877.0</ele><time>2026-04-12T11:34:22.431Z</time></trkpt><trkpt lat="42.67293" lon="12.967545"><ele>890.0</ele><time>2026-04-12T11:34:23.427Z</time></trkpt><trkpt lat="42.6731183" lon="12.9675783"><ele>903.0</ele><time>2026-04-12T11:34:24.43Z</time></trkpt><trkpt lat="42.6732767" lon="12.9676417"><ele>903.0</ele><time>2026-04-12T11:34:25.43Z</time></trkpt><trkpt lat="42.6734033" lon="12.9677517"><ele>903.0</ele><time>2026-04-12T11:34:26.433Z</time></trkpt><trkpt lat="42.6735033" lon="12.96788"><ele>903.0</ele><time>2026-04-12T11:34:27.429Z</time></trkpt><trkpt lat="42.6736083" lon="12.9679833"><ele>903.0</ele><time>2026-04-12T11:34:28.43Z</time></trkpt><trkpt lat="42.6737417" lon="12.96802"><ele>899.3333333333333</ele><time>2026-04-12T11:34:29.436Z</time></trkpt><trkpt lat="42.6739017" lon="12.9680133"><ele>895.6666666666666</ele><time>2026-04-12T11:34:30.433Z</time></trkpt><trkpt lat="42.6740983" lon="12.96802"><ele>892.0</ele><time>2026-04-12T11:34:31.434Z</time></trkpt><trkpt lat="42.6742967" lon="12.9680417"><ele>888.6666666666666</ele><time>2026-04-12T11:34:32.432Z</time></trkpt><trkpt lat="42.6744817" lon="12.96806"><ele>885.3333333333333</ele><time>2026-04-12T11:34:33.434Z</time></trkpt><trkpt lat="42.67464" lon="12.9680983"><ele>882.0</ele><time>2026-04-12T11:34:34.426Z</time></trkpt><trkpt lat="42.6747833" lon="12.9681767"><ele>882.0</ele><time>2026-04-12T11:34:35.431Z</time></trkpt><trkpt lat="42.6748983" lon="12.9682833"><ele>882.0</ele><time>2026-04-12T11:34:36.433Z</time></trkpt><trkpt lat="42.67501" lon="12.968375"><ele>882.0</ele><time>2026-04-12T11:34:37.432Z</time></trkpt><trkpt lat="42.6751517" lon="12.9683717"><ele>882.0</ele><time>2026-04-12T11:34:38.433Z</time></trkpt><trkpt lat="42.6753" lon="12.9683633"><ele>891.6666666666667</ele><time>2026-04-12T11:34:39.43Z</time></trkpt><trkpt lat="42.6754633" lon="12.9683833"><ele>901.3333333333334</ele><time>2026-04-12T11:34:40.428Z</time></trkpt><trkpt lat="42.6756383" lon="12.968455"><ele>911.0</ele><time>2026-04-12T11:34:41.429Z</time></trkpt><trkpt lat="42.6758017" lon="12.96855"><ele>911.0</ele><time>2026-04-12T11:34:42.431Z</time></trkpt><trkpt lat="42.67593" lon="12.9686683"><ele>911.0</ele><time>2026-04-12T11:34:43.433Z</time></trkpt><trkpt lat="42.6760067" lon="12.96883"><ele>911.0</ele><time>2026-04-12T11:34:44.431Z</time></trkpt><trkpt lat="42.6760667" lon="12.9690083"><ele>911.0</ele><time>2026-04-12T11:34:45.432Z</time></trkpt><trkpt lat="42.6761317" lon="12.96916"><ele>913.75</ele><time>2026-04-12T11:34:46.43Z</time></trkpt><trkpt lat="42.6762117" lon="12.96927"><ele>916.5</ele><time>2026-04-12T11:34:47.432Z</time></trkpt><trkpt lat="42.6763283" lon="12.9693433"><ele>919.25</ele><time>2026-04-12T11:34:48.432Z</time></trkpt><trkpt lat="42.676515" lon="12.9693467"><ele>922.0</ele><time>2026-04-12T11:34:49.432Z</time></trkpt><trkpt lat="42.6767267" lon="12.9693817"><ele>913.6666666666666</ele><time>2026-04-12T11:34:50.428Z</time></trkpt><trkpt lat="42.6769433" lon="12.969445"><ele>905.3333333333333</ele><time>2026-04-12T11:34:51.425Z</time></trkpt><trkpt lat="42.67714" lon="12.9695367"><ele>897.0</ele><time>2026-04-12T11:34:52.429Z</time></trkpt><trkpt lat="42.6773267" lon="12.9696083"><ele>897.0</ele><time>2026-04-12T11:34:53.43Z</time></trkpt><trkpt lat="42.6774617" lon="12.96967"><ele>897.0</ele><time>2026-04-12T11:34:54.431Z</time></trkpt><trkpt lat="42.6776" lon="12.969755"><ele>897.0</ele><time>2026-04-12T11:34:55.431Z</time></trkpt><trkpt lat="42.6777317" lon="12.9699017"><ele>898.3333333333333</ele><time>2026-04-12T11:34:56.432Z</time></trkpt><trkpt lat="42.677825" lon="12.9701217"><ele>899.6666666666666</ele><time>2026-04-12T11:34:57.429Z</time></trkpt><trkpt lat="42.6779033" lon="12.9703383"><ele>901.0</ele><time>2026-04-12T11:34:58.432Z</time></trkpt><trkpt lat="42.6779833" lon="12.9705133"><ele>901.0</ele><time>2026-04-12T11:34:59.431Z</time></trkpt><trkpt lat="42.67808" lon="12.970635"><ele>901.0</ele><time>2026-04-12T11:35:00.43Z</time></trkpt><trkpt lat="42.678205" lon="12.970685"><ele>901.0</ele><time>2026-04-12T11:35:01.43Z</time></trkpt><trkpt lat="42.67833" lon="12.97068"><ele>901.0</ele><time>2026-04-12T11:35:02.434Z</time></trkpt><trkpt lat="42.6784933" lon="12.970605"><ele>898.6666666666666</ele><time>2026-04-12T11:35:03.431Z</time></trkpt><trkpt lat="42.6786617" lon="12.970585"><ele>896.3333333333333</ele><time>2026-04-12T11:35:04.429Z</time></trkpt><trkpt lat="42.6788233" lon="12.9706083"><ele>894.0</ele><time>2026-04-12T11:35:05.431Z</time></trkpt><trkpt lat="42.6789817" lon="12.970685"><ele>894.0</ele><time>2026-04-12T11:35:06.431Z</time></trkpt><trkpt lat="42.6791467" lon="12.9708567"><ele>894.0</ele><time>2026-04-12T11:35:07.431Z</time></trkpt><trkpt lat="42.6793367" lon="12.9710517"><ele>894.0</ele><time>2026-04-12T11:35:08.43Z</time></trkpt><trkpt lat="42.679545" lon="12.9712217"><ele>897.5</ele><time>2026-04-12T11:35:09.433Z</time></trkpt><trkpt lat="42.6797517" lon="12.971385"><ele>901.0</ele><time>2026-04-12T11:35:10.43Z</time></trkpt><trkpt lat="42.6799383" lon="12.971535"><ele>901.0</ele><time>2026-04-12T11:35:11.432Z</time></trkpt><trkpt lat="42.6801217" lon="12.9716583"><ele>901.0</ele><time>2026-04-12T11:35:12.433Z</time></trkpt><trkpt lat="42.680305" lon="12.9717417"><ele>901.0</ele><time>2026-04-12T11:35:13.432Z</time></trkpt><trkpt lat="42.680485" lon="12.971765"><ele>907.3333333333333</ele><time>2026-04-12T11:35:14.428Z</time></trkpt><trkpt lat="42.6806517" lon="12.9718017"><ele>913.6666666666667</ele><time>2026-04-12T11:35:15.429Z</time></trkpt><trkpt lat="42.6808117" lon="12.9718933"><ele>920.0</ele><time>2026-04-12T11:35:16.43Z</time></trkpt><trkpt lat="42.6809717" lon="12.9720217"><ele>917.3333333333334</ele><time>2026-04-12T11:35:17.431Z</time></trkpt><trkpt lat="42.68116" lon="12.9721133"><ele>914.6666666666667</ele><time>2026-04-12T11:35:18.435Z</time></trkpt><trkpt lat="42.6813783" lon="12.9721667"><ele>912.0</ele><time>2026-04-12T11:35:19.432Z</time></trkpt><trkpt lat="42.6816233" lon="12.9721867"><ele>912.0</ele><time>2026-04-12T11:35:20.434Z</time></trkpt><trkpt lat="42.681885" lon="12.97219"><ele>912.0</ele><time>2026-04-12T11:35:21.431Z</time></trkpt><trkpt lat="42.6821433" lon="12.9721983"><ele>910.5</ele><time>2026-04-12T11:35:22.426Z</time></trkpt><trkpt lat="42.6823817" lon="12.97221"><ele>909.0</ele><time>2026-04-12T11:35:23.434Z</time></trkpt><trkpt lat="42.6826017" lon="12.97222"><ele>907.0</ele><time>2026-04-12T11:35:24.432Z</time></trkpt><trkpt lat="42.682805" lon="12.9722283"><ele>905.0</ele><time>2026-04-12T11:35:25.431Z</time></trkpt><trkpt lat="42.6829883" lon="12.9722567"><ele>903.0</ele><time>2026-04-12T11:35:26.428Z</time></trkpt><trkpt lat="42.68315" lon="12.9723017"><ele>903.0</ele><time>2026-04-12T11:35:27.436Z</time></trkpt><trkpt lat="42.6833033" lon="12.97238"><ele>903.0</ele><time>2026-04-12T11:35:28.433Z</time></trkpt><trkpt lat="42.6834517" lon="12.9724983"><ele>903.0</ele><time>2026-04-12T11:35:29.431Z</time></trkpt><trkpt lat="42.6835817" lon="12.97264"><ele>903.75</ele><time>2026-04-12T11:35:30.433Z</time></trkpt><trkpt lat="42.6837083" lon="12.9727717"><ele>904.5</ele><time>2026-04-12T11:35:31.43Z</time></trkpt><trkpt lat="42.6838233" lon="12.972875"><ele>905.25</ele><time>2026-04-12T11:35:32.433Z</time></trkpt><trkpt lat="42.6839367" lon="12.9729733"><ele>906.0</ele><time>2026-04-12T11:35:33.432Z</time></trkpt><trkpt lat="42.6840383" lon="12.9730667"><ele>906.0</ele><time>2026-04-12T11:35:34.429Z</time></trkpt><trkpt lat="42.6841217" lon="12.9731533"><ele>906.0</ele><time>2026-04-12T11:35:35.43Z</time></trkpt><trkpt lat="42.6841867" lon="12.97325"><ele>906.0</ele><time>2026-04-12T11:35:36.433Z</time></trkpt><trkpt lat="42.6842333" lon="12.9733517"><ele>906.0</ele><time>2026-04-12T11:35:37.432Z</time></trkpt><trkpt lat="42.684265" lon="12.973455"><ele>906.0</ele><time>2026-04-12T11:35:38.434Z</time></trkpt><trkpt lat="42.6842883" lon="12.9735533"><ele>906.0</ele><time>2026-04-12T11:35:39.431Z</time></trkpt><trkpt lat="42.68431" lon="12.9736433"><ele>909.0</ele><time>2026-04-12T11:35:40.431Z</time></trkpt><trkpt lat="42.68433" lon="12.9737317"><ele>911.9999999999999</ele><time>2026-04-12T11:35:41.433Z</time></trkpt><trkpt lat="42.6843583" lon="12.9738167"><ele>914.9999999999999</ele><time>2026-04-12T11:35:42.433Z</time></trkpt><trkpt lat="42.6844033" lon="12.9738833"><ele>918.0</ele><time>2026-04-12T11:35:43.431Z</time></trkpt><trkpt lat="42.6845383" lon="12.9739317"><ele>921.0</ele><time>2026-04-12T11:35:45.431Z</time></trkpt><trkpt lat="42.684645" lon="12.9738717"><ele>921.3333333333333</ele><time>2026-04-12T11:35:46.431Z</time></trkpt><trkpt lat="42.684785" lon="12.9737833"><ele>921.6666666666666</ele><time>2026-04-12T11:35:47.432Z</time></trkpt><trkpt lat="42.68495" lon="12.97369"><ele>922.0</ele><time>2026-04-12T11:35:48.431Z</time></trkpt><trkpt lat="42.6851383" lon="12.973585"><ele>915.6666666666666</ele><time>2026-04-12T11:35:49.434Z</time></trkpt><trkpt lat="42.685335" lon="12.9734667"><ele>909.3333333333333</ele><time>2026-04-12T11:35:50.43Z</time></trkpt><trkpt lat="42.6855417" lon="12.9733483"><ele>903.0</ele><time>2026-04-12T11:35:51.434Z</time></trkpt><trkpt lat="42.685765" lon="12.9732833"><ele>903.0</ele><time>2026-04-12T11:35:52.43Z</time></trkpt><trkpt lat="42.6860033" lon="12.97327"><ele>903.0</ele><time>2026-04-12T11:35:53.434Z</time></trkpt><trkpt lat="42.6862317" lon="12.973305"><ele>914.3333333333333</ele><time>2026-04-12T11:35:54.431Z</time></trkpt><trkpt lat="42.6864433" lon="12.973375"><ele>925.6666666666666</ele><time>2026-04-12T11:35:55.433Z</time></trkpt><trkpt lat="42.6866283" lon="12.973465"><ele>937.0</ele><time>2026-04-12T11:35:56.43Z</time></trkpt><trkpt lat="42.6867833" lon="12.9735817"><ele>937.0</ele><time>2026-04-12T11:35:57.432Z</time></trkpt><trkpt lat="42.6869233" lon="12.9736733"><ele>937.0</ele><time>2026-04-12T11:35:58.436Z</time></trkpt><trkpt lat="42.68707" lon="12.9737317"><ele>937.0</ele><time>2026-04-12T11:35:59.434Z</time></trkpt><trkpt lat="42.68723" lon="12.97367"><ele>937.6666666666666</ele><time>2026-04-12T11:36:00.434Z</time></trkpt><trkpt lat="42.6873933" lon="12.97355"><ele>938.3333333333333</ele><time>2026-04-12T11:36:01.427Z</time></trkpt><trkpt lat="42.68758" lon="12.9733883"><ele>939.0</ele><time>2026-04-12T11:36:02.432Z</time></trkpt><trkpt lat="42.68778" lon="12.9732117"><ele>939.0</ele><time>2026-04-12T11:36:03.443Z</time></trkpt><trkpt lat="42.6879883" lon="12.9730367"><ele>939.0</ele><time>2026-04-12T11:36:04.429Z</time></trkpt><trkpt lat="42.6882267" lon="12.9728733"><ele>939.0</ele><time>2026-04-12T11:36:05.43Z</time></trkpt><trkpt lat="42.6884833" lon="12.9727233"><ele>939.0</ele><time>2026-04-12T11:36:06.431Z</time></trkpt><trkpt lat="42.688735" lon="12.97258"><ele>931.5</ele><time>2026-04-12T11:36:07.434Z</time></trkpt><trkpt lat="42.6889717" lon="12.9724517"><ele>924.0</ele><time>2026-04-12T11:36:08.432Z</time></trkpt><trkpt lat="42.6891883" lon="12.972345"><ele>924.0</ele><time>2026-04-12T11:36:09.43Z</time></trkpt><trkpt lat="42.689415" lon="12.9722817"><ele>924.0</ele><time>2026-04-12T11:36:10.437Z</time></trkpt><trkpt lat="42.68964" lon="12.9722617"><ele>926.6666666666667</ele><time>2026-04-12T11:36:11.434Z</time></trkpt><trkpt lat="42.689845" lon="12.9722733"><ele>929.3333333333334</ele><time>2026-04-12T11:36:12.435Z</time></trkpt><trkpt lat="42.69002" lon="12.9722633"><ele>932.0</ele><time>2026-04-12T11:36:13.432Z</time></trkpt><trkpt lat="42.6901717" lon="12.9722067"><ele>938.3333333333334</ele><time>2026-04-12T11:36:14.436Z</time></trkpt><trkpt lat="42.690315" lon="12.972085"><ele>944.6666666666667</ele><time>2026-04-12T11:36:15.434Z</time></trkpt><trkpt lat="42.6904633" lon="12.9719283"><ele>951.0</ele><time>2026-04-12T11:36:16.432Z</time></trkpt><trkpt lat="42.6906317" lon="12.9717867"><ele>943.0</ele><time>2026-04-12T11:36:17.431Z</time></trkpt><trkpt lat="42.6908183" lon="12.9716783"><ele>935.0</ele><time>2026-04-12T11:36:18.434Z</time></trkpt><trkpt lat="42.6910167" lon="12.9716067"><ele>927.0</ele><time>2026-04-12T11:36:19.434Z</time></trkpt><trkpt lat="42.6912167" lon="12.9715667"><ele>927.0</ele><time>2026-04-12T11:36:20.434Z</time></trkpt><trkpt lat="42.691405" lon="12.9715533"><ele>927.0</ele><time>2026-04-12T11:36:21.433Z</time></trkpt><trkpt lat="42.6915817" lon="12.9715933"><ele>927.0</ele><time>2026-04-12T11:36:22.43Z</time></trkpt><trkpt lat="42.6917267" lon="12.971685"><ele>931.6666666666667</ele><time>2026-04-12T11:36:23.432Z</time></trkpt><trkpt lat="42.69185" lon="12.9718333"><ele>936.3333333333334</ele><time>2026-04-12T11:36:24.434Z</time></trkpt><trkpt lat="42.6919717" lon="12.9720233"><ele>941.0</ele><time>2026-04-12T11:36:25.432Z</time></trkpt><trkpt lat="42.6921133" lon="12.9721967"><ele>941.0</ele><time>2026-04-12T11:36:26.433Z</time></trkpt><trkpt lat="42.6922717" lon="12.9723167"><ele>941.0</ele><time>2026-04-12T11:36:27.435Z</time></trkpt><trkpt lat="42.69244" lon="12.9723783"><ele>941.0</ele><time>2026-04-12T11:36:28.432Z</time></trkpt><trkpt lat="42.6926517" lon="12.9723517"><ele>942.5</ele><time>2026-04-12T11:36:29.434Z</time></trkpt><trkpt lat="42.6928933" lon="12.97232"><ele>944.0</ele><time>2026-04-12T11:36:30.432Z</time></trkpt><trkpt lat="42.6931467" lon="12.97232"><ele>944.0</ele><time>2026-04-12T11:36:31.431Z</time></trkpt><trkpt lat="42.6934083" lon="12.9723467"><ele>944.0</ele><time>2026-04-12T11:36:32.435Z</time></trkpt><trkpt lat="42.6936817" lon="12.9723683"><ele>942.0</ele><time>2026-04-12T11:36:33.436Z</time></trkpt><trkpt lat="42.6939533" lon="12.9723917"><ele>940.0</ele><time>2026-04-12T11:36:34.432Z</time></trkpt><trkpt lat="42.6942067" lon="12.9724267"><ele>937.3333333333333</ele><time>2026-04-12T11:36:35.434Z</time></trkpt><trkpt lat="42.6944367" lon="12.972475"><ele>934.6666666666667</ele><time>2026-04-12T11:36:36.425Z</time></trkpt><trkpt lat="42.6946367" lon="12.97254"><ele>932.0</ele><time>2026-04-12T11:36:37.429Z</time></trkpt><trkpt lat="42.6948083" lon="12.9726283"><ele>939.6666666666667</ele><time>2026-04-12T11:36:38.424Z</time></trkpt><trkpt lat="42.6949433" lon="12.9727517"><ele>947.3333333333333</ele><time>2026-04-12T11:36:39.428Z</time></trkpt><trkpt lat="42.69505" lon="12.9729317"><ele>955.0</ele><time>2026-04-12T11:36:40.432Z</time></trkpt><trkpt lat="42.6951417" lon="12.973175"><ele>951.0</ele><time>2026-04-12T11:36:41.431Z</time></trkpt><trkpt lat="42.695255" lon="12.9734317"><ele>947.0</ele><time>2026-04-12T11:36:42.435Z</time></trkpt><trkpt lat="42.695395" lon="12.97369"><ele>947.0</ele><time>2026-04-12T11:36:43.427Z</time></trkpt><trkpt lat="42.6955667" lon="12.973945"><ele>947.0</ele><time>2026-04-12T11:36:44.435Z</time></trkpt><trkpt lat="42.695745" lon="12.9742067"><ele>953.5</ele><time>2026-04-12T11:36:45.43Z</time></trkpt><trkpt lat="42.6959183" lon="12.9744733"><ele>960.0</ele><time>2026-04-12T11:36:46.431Z</time></trkpt><trkpt lat="42.6960933" lon="12.9747283"><ele>960.0</ele><time>2026-04-12T11:36:47.43Z</time></trkpt><trkpt lat="42.69625" lon="12.974965"><ele>960.0</ele><time>2026-04-12T11:36:48.431Z</time></trkpt><trkpt lat="42.6964" lon="12.9751883"><ele>960.6666666666667</ele><time>2026-04-12T11:36:49.43Z</time></trkpt><trkpt lat="42.6965383" lon="12.975395"><ele>961.3333333333334</ele><time>2026-04-12T11:36:50.433Z</time></trkpt><trkpt lat="42.6966483" lon="12.9755933"><ele>962.0</ele><time>2026-04-12T11:36:51.428Z</time></trkpt><trkpt lat="42.6967167" lon="12.9757983"><ele>961.0</ele><time>2026-04-12T11:36:52.428Z</time></trkpt><trkpt lat="42.6967533" lon="12.9760233"><ele>960.0</ele><time>2026-04-12T11:36:53.448Z</time></trkpt><trkpt lat="42.696745" lon="12.97627"><ele>959.0</ele><time>2026-04-12T11:36:54.431Z</time></trkpt><trkpt lat="42.6966983" lon="12.9765317"><ele>958.0</ele><time>2026-04-12T11:36:55.432Z</time></trkpt><trkpt lat="42.696645" lon="12.976795"><ele>957.0</ele><time>2026-04-12T11:36:56.434Z</time></trkpt><trkpt lat="42.6965933" lon="12.977045"><ele>956.0</ele><time>2026-04-12T11:36:57.431Z</time></trkpt><trkpt lat="42.69657" lon="12.977285"><ele>954.3333333333334</ele><time>2026-04-12T11:36:58.429Z</time></trkpt><trkpt lat="42.6965883" lon="12.9775217"><ele>952.6666666666667</ele><time>2026-04-12T11:36:59.43Z</time></trkpt><trkpt lat="42.69665" lon="12.9777567"><ele>951.0</ele><time>2026-04-12T11:37:00.433Z</time></trkpt><trkpt lat="42.696755" lon="12.9779633"><ele>951.0</ele><time>2026-04-12T11:37:01.431Z</time></trkpt><trkpt lat="42.6968933" lon="12.9781267"><ele>951.0</ele><time>2026-04-12T11:37:02.436Z</time></trkpt><trkpt lat="42.697065" lon="12.9782467"><ele>951.0</ele><time>2026-04-12T11:37:03.436Z</time></trkpt><trkpt lat="42.6972533" lon="12.9783167"><ele>949.3333333333333</ele><time>2026-04-12T11:37:04.432Z</time></trkpt><trkpt lat="42.6974567" lon="12.97832"><ele>947.6666666666666</ele><time>2026-04-12T11:37:05.434Z</time></trkpt><trkpt lat="42.697675" lon="12.978275"><ele>946.0</ele><time>2026-04-12T11:37:06.434Z</time></trkpt><trkpt lat="42.6978983" lon="12.9782117"><ele>946.0</ele><time>2026-04-12T11:37:07.433Z</time></trkpt><trkpt lat="42.6981283" lon="12.9781483"><ele>946.0</ele><time>2026-04-12T11:37:08.438Z</time></trkpt><trkpt lat="42.69837" lon="12.9780867"><ele>949.5</ele><time>2026-04-12T11:37:09.431Z</time></trkpt><trkpt lat="42.6986217" lon="12.9780233"><ele>953.0</ele><time>2026-04-12T11:37:10.431Z</time></trkpt><trkpt lat="42.6988867" lon="12.9779567"><ele>953.0</ele><time>2026-04-12T11:37:11.429Z</time></trkpt><trkpt lat="42.6991667" lon="12.977885"><ele>953.0</ele><time>2026-04-12T11:37:12.43Z</time></trkpt><trkpt lat="42.6994517" lon="12.9778033"><ele>953.5</ele><time>2026-04-12T11:37:13.429Z</time></trkpt><trkpt lat="42.69973" lon="12.9777117"><ele>954.0</ele><time>2026-04-12T11:37:14.431Z</time></trkpt><trkpt lat="42.6999983" lon="12.9776133"><ele>944.5</ele><time>2026-04-12T11:37:15.43Z</time></trkpt><trkpt lat="42.7002717" lon="12.9775067"><ele>935.0</ele><time>2026-04-12T11:37:16.432Z</time></trkpt><trkpt lat="42.7005417" lon="12.977395"><ele>935.0</ele><time>2026-04-12T11:37:17.432Z</time></trkpt><trkpt lat="42.7007967" lon="12.9772883"><ele>935.0</ele><time>2026-04-12T11:37:18.431Z</time></trkpt><trkpt lat="42.7010383" lon="12.9771933"><ele>934.5</ele><time>2026-04-12T11:37:19.431Z</time></trkpt><trkpt lat="42.7012667" lon="12.9770967"><ele>934.0</ele><time>2026-04-12T11:37:20.43Z</time></trkpt><trkpt lat="42.7014783" lon="12.977005"><ele>934.0</ele><time>2026-04-12T11:37:21.434Z</time></trkpt><trkpt lat="42.701675" lon="12.9769283"><ele>934.0</ele><time>2026-04-12T11:37:22.429Z</time></trkpt><trkpt lat="42.701865" lon="12.976895"><ele>934.0</ele><time>2026-04-12T11:37:23.434Z</time></trkpt><trkpt lat="42.70205" lon="12.9769117"><ele>931.6666666666666</ele><time>2026-04-12T11:37:24.435Z</time></trkpt><trkpt lat="42.7022333" lon="12.9770017"><ele>929.3333333333333</ele><time>2026-04-12T11:37:25.431Z</time></trkpt><trkpt lat="42.7024217" lon="12.9771517"><ele>927.0</ele><time>2026-04-12T11:37:26.433Z</time></trkpt><trkpt lat="42.7026267" lon="12.97732"><ele>926.5</ele><time>2026-04-12T11:37:27.431Z</time></trkpt><trkpt lat="42.70285" lon="12.9774967"><ele>926.0</ele><time>2026-04-12T11:37:28.431Z</time></trkpt><trkpt lat="42.70308" lon="12.9776817"><ele>926.0</ele><time>2026-04-12T11:37:29.432Z</time></trkpt><trkpt lat="42.7033017" lon="12.977855"><ele>926.0</ele><time>2026-04-12T11:37:30.431Z</time></trkpt><trkpt lat="42.7035083" lon="12.9780217"><ele>922.0</ele><time>2026-04-12T11:37:31.431Z</time></trkpt><trkpt lat="42.7037017" lon="12.97819"><ele>918.0</ele><time>2026-04-12T11:37:32.432Z</time></trkpt><trkpt lat="42.70387" lon="12.9783783"><ele>914.0</ele><time>2026-04-12T11:37:33.43Z</time></trkpt><trkpt lat="42.7040067" lon="12.978605"><ele>914.0</ele><time>2026-04-12T11:37:34.432Z</time></trkpt><trkpt lat="42.70411" lon="12.97887"><ele>914.0</ele><time>2026-04-12T11:37:35.429Z</time></trkpt><trkpt lat="42.70418" lon="12.9791483"><ele>914.0</ele><time>2026-04-12T11:37:36.43Z</time></trkpt><trkpt lat="42.7042133" lon="12.9794367"><ele>912.6666666666667</ele><time>2026-04-12T11:37:37.432Z</time></trkpt><trkpt lat="42.70421" lon="12.9797333"><ele>911.3333333333333</ele><time>2026-04-12T11:37:38.433Z</time></trkpt><trkpt lat="42.7041683" lon="12.9800217"><ele>910.0</ele><time>2026-04-12T11:37:39.431Z</time></trkpt><trkpt lat="42.7041133" lon="12.980295"><ele>909.0</ele><time>2026-04-12T11:37:40.431Z</time></trkpt><trkpt lat="42.7040583" lon="12.9805617"><ele>908.0</ele><time>2026-04-12T11:37:41.423Z</time></trkpt><trkpt lat="42.704035" lon="12.98083"><ele>907.0</ele><time>2026-04-12T11:37:42.433Z</time></trkpt><trkpt lat="42.70405" lon="12.981105"><ele>907.0</ele><time>2026-04-12T11:37:43.433Z</time></trkpt><trkpt lat="42.70413" lon="12.9813633"><ele>907.0</ele><time>2026-04-12T11:37:44.452Z</time></trkpt><trkpt lat="42.704245" lon="12.9816083"><ele>907.0</ele><time>2026-04-12T11:37:45.429Z</time></trkpt><trkpt lat="42.7043817" lon="12.9818617"><ele>900.5</ele><time>2026-04-12T11:37:46.43Z</time></trkpt><trkpt lat="42.704495" lon="12.9821467"><ele>894.0</ele><time>2026-04-12T11:37:47.432Z</time></trkpt><trkpt lat="42.7045783" lon="12.98247"><ele>896.0</ele><time>2026-04-12T11:37:48.432Z</time></trkpt><trkpt lat="42.7046433" lon="12.9828267"><ele>898.0</ele><time>2026-04-12T11:37:49.432Z</time></trkpt><trkpt lat="42.7047117" lon="12.9832"><ele>898.5</ele><time>2026-04-12T11:37:50.433Z</time></trkpt><trkpt lat="42.70477" lon="12.9835717"><ele>899.0</ele><time>2026-04-12T11:37:51.434Z</time></trkpt><trkpt lat="42.7048167" lon="12.9839233"><ele>897.5</ele><time>2026-04-12T11:37:52.437Z</time></trkpt><trkpt lat="42.704865" lon="12.9842383"><ele>896.0</ele><time>2026-04-12T11:37:53.431Z</time></trkpt><trkpt lat="42.7049117" lon="12.98453"><ele>896.0</ele><time>2026-04-12T11:37:54.434Z</time></trkpt><trkpt lat="42.70499" lon="12.9848067"><ele>896.0</ele><time>2026-04-12T11:37:55.432Z</time></trkpt><trkpt lat="42.705105" lon="12.985075"><ele>896.0</ele><time>2026-04-12T11:37:56.434Z</time></trkpt><trkpt lat="42.705245" lon="12.98535"><ele>894.5</ele><time>2026-04-12T11:37:57.433Z</time></trkpt><trkpt lat="42.7054" lon="12.985635"><ele>893.0</ele><time>2026-04-12T11:37:58.436Z</time></trkpt><trkpt lat="42.70555" lon="12.98593"><ele>891.0</ele><time>2026-04-12T11:37:59.43Z</time></trkpt><trkpt lat="42.7056883" lon="12.986225"><ele>889.0</ele><time>2026-04-12T11:38:00.43Z</time></trkpt><trkpt lat="42.705825" lon="12.9864967"><ele>888.3333333333333</ele><time>2026-04-12T11:38:01.431Z</time></trkpt><trkpt lat="42.7059717" lon="12.9867333"><ele>887.6666666666667</ele><time>2026-04-12T11:38:02.435Z</time></trkpt><trkpt lat="42.706125" lon="12.9869467"><ele>887.0</ele><time>2026-04-12T11:38:03.431Z</time></trkpt><trkpt lat="42.7062683" lon="12.9871383"><ele>887.0</ele><time>2026-04-12T11:38:04.431Z</time></trkpt><trkpt lat="42.70638" lon="12.987355"><ele>887.0</ele><time>2026-04-12T11:38:05.43Z</time></trkpt><trkpt lat="42.7064517" lon="12.9876117"><ele>887.0</ele><time>2026-04-12T11:38:06.435Z</time></trkpt><trkpt lat="42.7064933" lon="12.98791"><ele>885.0</ele><time>2026-04-12T11:38:07.433Z</time></trkpt><trkpt lat="42.7065183" lon="12.98824"><ele>883.0</ele><time>2026-04-12T11:38:08.435Z</time></trkpt><trkpt lat="42.70654" lon="12.9885917"><ele>882.5</ele><time>2026-04-12T11:38:09.432Z</time></trkpt><trkpt lat="42.70655" lon="12.9889517"><ele>882.0</ele><time>2026-04-12T11:38:10.43Z</time></trkpt><trkpt lat="42.7065433" lon="12.9893067"><ele>881.0</ele><time>2026-04-12T11:38:11.434Z</time></trkpt><trkpt lat="42.7065283" lon="12.9896417"><ele>880.0</ele><time>2026-04-12T11:38:12.431Z</time></trkpt><trkpt lat="42.706525" lon="12.9899617"><ele>878.5</ele><time>2026-04-12T11:38:13.43Z</time></trkpt><trkpt lat="42.70655" lon="12.9902783"><ele>877.0</ele><time>2026-04-12T11:38:14.433Z</time></trkpt><trkpt lat="42.706615" lon="12.9905883"><ele>874.0</ele><time>2026-04-12T11:38:15.432Z</time></trkpt><trkpt lat="42.70671" lon="12.9909067"><ele>871.0</ele><time>2026-04-12T11:38:16.432Z</time></trkpt><trkpt lat="42.7068233" lon="12.9912217"><ele>872.5</ele><time>2026-04-12T11:38:17.432Z</time></trkpt><trkpt lat="42.706935" lon="12.9915267"><ele>874.0</ele><time>2026-04-12T11:38:18.433Z</time></trkpt><trkpt lat="42.7070517" lon="12.9918333"><ele>874.0</ele><time>2026-04-12T11:38:19.435Z</time></trkpt><trkpt lat="42.7071767" lon="12.99214"><ele>874.0</ele><time>2026-04-12T11:38:20.455Z</time></trkpt><trkpt lat="42.707315" lon="12.99244"><ele>871.0</ele><time>2026-04-12T11:38:21.431Z</time></trkpt><trkpt lat="42.7074733" lon="12.9927283"><ele>868.0</ele><time>2026-04-12T11:38:22.43Z</time></trkpt><trkpt lat="42.7076433" lon="12.9929917"><ele>871.0</ele><time>2026-04-12T11:38:23.434Z</time></trkpt><trkpt lat="42.7078067" lon="12.9932283"><ele>874.0</ele><time>2026-04-12T11:38:24.432Z</time></trkpt><trkpt lat="42.70795" lon="12.9934483"><ele>870.0</ele><time>2026-04-12T11:38:25.435Z</time></trkpt><trkpt lat="42.708065" lon="12.9936683"><ele>866.0</ele><time>2026-04-12T11:38:26.43Z</time></trkpt><trkpt lat="42.7081417" lon="12.9939117"><ele>862.0</ele><time>2026-04-12T11:38:27.438Z</time></trkpt><trkpt lat="42.70819" lon="12.9941867"><ele>860.6666666666666</ele><time>2026-04-12T11:38:28.432Z</time></trkpt><trkpt lat="42.7082233" lon="12.9944683"><ele>859.3333333333333</ele><time>2026-04-12T11:38:29.431Z</time></trkpt><trkpt lat="42.708265" lon="12.9947417"><ele>858.0</ele><time>2026-04-12T11:38:30.433Z</time></trkpt><trkpt lat="42.7083367" lon="12.9950067"><ele>862.0</ele><time>2026-04-12T11:38:31.435Z</time></trkpt><trkpt lat="42.7084317" lon="12.9952617"><ele>866.0</ele><time>2026-04-12T11:38:32.434Z</time></trkpt><trkpt lat="42.7085033" lon="12.9955383"><ele>870.0</ele><time>2026-04-12T11:38:33.431Z</time></trkpt><trkpt lat="42.7085817" lon="12.99583"><ele>849.5</ele><time>2026-04-12T11:38:34.434Z</time></trkpt><trkpt lat="42.7086817" lon="12.9961267"><ele>829.0</ele><time>2026-04-12T11:38:35.43Z</time></trkpt><trkpt lat="42.708765" lon="12.9964183"><ele>832.0</ele><time>2026-04-12T11:38:36.433Z</time></trkpt><trkpt lat="42.7088383" lon="12.996705"><ele>835.0</ele><time>2026-04-12T11:38:37.432Z</time></trkpt><trkpt lat="42.7088967" lon="12.9969817"><ele>838.0</ele><time>2026-04-12T11:38:38.433Z</time></trkpt><trkpt lat="42.7089433" lon="12.997245"><ele>838.0</ele><time>2026-04-12T11:38:39.433Z</time></trkpt><trkpt lat="42.7090117" lon="12.9974867"><ele>838.0</ele><time>2026-04-12T11:38:40.428Z</time></trkpt><trkpt lat="42.7091283" lon="12.9977017"><ele>838.0</ele><time>2026-04-12T11:38:41.43Z</time></trkpt><trkpt lat="42.70926" lon="12.997895"><ele>833.6666666666666</ele><time>2026-04-12T11:38:42.436Z</time></trkpt><trkpt lat="42.7093917" lon="12.9980883"><ele>829.3333333333333</ele><time>2026-04-12T11:38:43.431Z</time></trkpt><trkpt lat="42.7095" lon="12.99833"><ele>825.0</ele><time>2026-04-12T11:38:44.434Z</time></trkpt><trkpt lat="42.7096133" lon="12.9985933"><ele>825.0</ele><time>2026-04-12T11:38:45.432Z</time></trkpt><trkpt lat="42.7097067" lon="12.998845"><ele>825.0</ele><time>2026-04-12T11:38:46.429Z</time></trkpt><trkpt lat="42.7098183" lon="12.99906"><ele>825.0</ele><time>2026-04-12T11:38:47.434Z</time></trkpt><trkpt lat="42.7099583" lon="12.9992433"><ele>829.3333333333333</ele><time>2026-04-12T11:38:48.433Z</time></trkpt><trkpt lat="42.7101" lon="12.9994"><ele>833.6666666666666</ele><time>2026-04-12T11:38:49.434Z</time></trkpt><trkpt lat="42.7102317" lon="12.9995433"><ele>838.0</ele><time>2026-04-12T11:38:50.43Z</time></trkpt><trkpt lat="42.710315" lon="12.999705"><ele>823.3333333333333</ele><time>2026-04-12T11:38:51.432Z</time></trkpt><trkpt lat="42.7103533" lon="12.99988"><ele>808.6666666666667</ele><time>2026-04-12T11:38:52.429Z</time></trkpt><trkpt lat="42.7103583" lon="13.0000833"><ele>794.0</ele><time>2026-04-12T11:38:53.431Z</time></trkpt><trkpt lat="42.7103583" lon="13.0003317"><ele>794.0</ele><time>2026-04-12T11:38:54.428Z</time></trkpt><trkpt lat="42.7103867" lon="13.0006117"><ele>794.0</ele><time>2026-04-12T11:38:55.431Z</time></trkpt><trkpt lat="42.71045" lon="13.000895"><ele>794.0</ele><time>2026-04-12T11:38:56.434Z</time></trkpt><trkpt lat="42.7105533" lon="13.0011617"><ele>797.3333333333334</ele><time>2026-04-12T11:38:57.432Z</time></trkpt><trkpt lat="42.7106683" lon="13.001395"><ele>800.6666666666667</ele><time>2026-04-12T11:38:58.433Z</time></trkpt><trkpt lat="42.7107783" lon="13.0016167"><ele>804.0</ele><time>2026-04-12T11:38:59.432Z</time></trkpt><trkpt lat="42.7108917" lon="13.001825"><ele>808.6666666666667</ele><time>2026-04-12T11:39:00.436Z</time></trkpt><trkpt lat="42.7110267" lon="13.0020133"><ele>813.3333333333334</ele><time>2026-04-12T11:39:01.434Z</time></trkpt><trkpt lat="42.7111667" lon="13.0021667"><ele>818.0</ele><time>2026-04-12T11:39:02.435Z</time></trkpt><trkpt lat="42.71132" lon="13.0022867"><ele>813.25</ele><time>2026-04-12T11:39:03.432Z</time></trkpt><trkpt lat="42.71145" lon="13.0024083"><ele>808.5</ele><time>2026-04-12T11:39:04.432Z</time></trkpt><trkpt lat="42.7115467" lon="13.00253"><ele>803.75</ele><time>2026-04-12T11:39:05.433Z</time></trkpt><trkpt lat="42.71159" lon="13.0026767"><ele>799.0</ele><time>2026-04-12T11:39:06.433Z</time></trkpt><trkpt lat="42.7115667" lon="13.0028467"><ele>799.0</ele><time>2026-04-12T11:39:07.429Z</time></trkpt><trkpt lat="42.7115283" lon="13.0030567"><ele>799.0</ele><time>2026-04-12T11:39:08.43Z</time></trkpt><trkpt lat="42.71151" lon="13.00332"><ele>799.0</ele><time>2026-04-12T11:39:09.432Z</time></trkpt><trkpt lat="42.7114917" lon="13.0035933"><ele>797.6666666666666</ele><time>2026-04-12T11:39:10.43Z</time></trkpt><trkpt lat="42.711465" lon="13.00384"><ele>796.3333333333333</ele><time>2026-04-12T11:39:11.431Z</time></trkpt><trkpt lat="42.7114317" lon="13.0040683"><ele>795.0</ele><time>2026-04-12T11:39:12.428Z</time></trkpt><trkpt lat="42.71141" lon="13.0042917"><ele>794.6666666666667</ele><time>2026-04-12T11:39:13.433Z</time></trkpt><trkpt lat="42.7114167" lon="13.004525"><ele>794.3333333333334</ele><time>2026-04-12T11:39:14.441Z</time></trkpt><trkpt lat="42.7114483" lon="13.0047683"><ele>794.0</ele><time>2026-04-12T11:39:15.432Z</time></trkpt><trkpt lat="42.7114883" lon="13.0050067"><ele>794.0</ele><time>2026-04-12T11:39:16.433Z</time></trkpt><trkpt lat="42.7115417" lon="13.00523"><ele>794.0</ele><time>2026-04-12T11:39:17.432Z</time></trkpt><trkpt lat="42.71163" lon="13.0054167"><ele>794.0</ele><time>2026-04-12T11:39:18.433Z</time></trkpt><trkpt lat="42.7117583" lon="13.005565"><ele>786.3333333333334</ele><time>2026-04-12T11:39:19.438Z</time></trkpt><trkpt lat="42.71192" lon="13.005685"><ele>778.6666666666667</ele><time>2026-04-12T11:39:20.432Z</time></trkpt><trkpt lat="42.71209" lon="13.00576"><ele>771.0</ele><time>2026-04-12T11:39:21.431Z</time></trkpt><trkpt lat="42.7122667" lon="13.005775"><ele>771.0</ele><time>2026-04-12T11:39:22.43Z</time></trkpt><trkpt lat="42.7124517" lon="13.00574"><ele>771.0</ele><time>2026-04-12T11:39:23.439Z</time></trkpt><trkpt lat="42.712635" lon="13.0056533"><ele>771.0</ele><time>2026-04-12T11:39:24.434Z</time></trkpt><trkpt lat="42.7128033" lon="13.0055917"><ele>764.6666666666666</ele><time>2026-04-12T11:39:25.432Z</time></trkpt><trkpt lat="42.7129817" lon="13.00558"><ele>758.3333333333333</ele><time>2026-04-12T11:39:26.431Z</time></trkpt><trkpt lat="42.713165" lon="13.0056183"><ele>752.0</ele><time>2026-04-12T11:39:27.431Z</time></trkpt><trkpt lat="42.7133633" lon="13.0056883"><ele>752.0</ele><time>2026-04-12T11:39:28.431Z</time></trkpt><trkpt lat="42.7135717" lon="13.0057967"><ele>752.0</ele><time>2026-04-12T11:39:29.432Z</time></trkpt><trkpt lat="42.7137667" lon="13.0059417"><ele>752.0</ele><time>2026-04-12T11:39:30.431Z</time></trkpt><trkpt lat="42.713945" lon="13.006085"><ele>752.3333333333333</ele><time>2026-04-12T11:39:31.431Z</time></trkpt><trkpt lat="42.714095" lon="13.006225"><ele>752.6666666666666</ele><time>2026-04-12T11:39:32.436Z</time></trkpt><trkpt lat="42.71422" lon="13.0063667"><ele>753.0</ele><time>2026-04-12T11:39:33.433Z</time></trkpt><trkpt lat="42.7143017" lon="13.0065367"><ele>757.5</ele><time>2026-04-12T11:39:34.434Z</time></trkpt><trkpt lat="42.7143433" lon="13.0067117"><ele>762.0</ele><time>2026-04-12T11:39:35.432Z</time></trkpt><trkpt lat="42.7143483" lon="13.0068633"><ele>766.5</ele><time>2026-04-12T11:39:36.435Z</time></trkpt><trkpt lat="42.7143183" lon="13.0069967"><ele>771.0</ele><time>2026-04-12T11:39:37.431Z</time></trkpt><trkpt lat="42.7142133" lon="13.0071133"><ele>771.0</ele><time>2026-04-12T11:39:38.431Z</time></trkpt><trkpt lat="42.7140717" lon="13.007225"><ele>771.0</ele><time>2026-04-12T11:39:39.432Z</time></trkpt><trkpt lat="42.7139167" lon="13.0073733"><ele>771.0</ele><time>2026-04-12T11:39:40.429Z</time></trkpt><trkpt lat="42.71379" lon="13.0075633"><ele>772.0</ele><time>2026-04-12T11:39:41.43Z</time></trkpt><trkpt lat="42.71369" lon="13.0077917"><ele>773.0</ele><time>2026-04-12T11:39:42.432Z</time></trkpt><trkpt lat="42.7135983" lon="13.008055"><ele>774.0</ele><time>2026-04-12T11:39:43.431Z</time></trkpt><trkpt lat="42.7135167" lon="13.0083733"><ele>774.0</ele><time>2026-04-12T11:39:44.432Z</time></trkpt><trkpt lat="42.7134333" lon="13.008685"><ele>774.0</ele><time>2026-04-12T11:39:45.43Z</time></trkpt><trkpt lat="42.7133317" lon="13.008975"><ele>768.5</ele><time>2026-04-12T11:39:46.429Z</time></trkpt><trkpt lat="42.7132083" lon="13.009255"><ele>763.0</ele><time>2026-04-12T11:39:47.43Z</time></trkpt><trkpt lat="42.7130817" lon="13.0095183"><ele>763.0</ele><time>2026-04-12T11:39:48.43Z</time></trkpt><trkpt lat="42.712965" lon="13.009755"><ele>763.0</ele><time>2026-04-12T11:39:49.43Z</time></trkpt><trkpt lat="42.7128533" lon="13.0099617"><ele>763.0</ele><time>2026-04-12T11:39:50.434Z</time></trkpt><trkpt lat="42.7127383" lon="13.01015"><ele>767.25</ele><time>2026-04-12T11:39:51.429Z</time></trkpt><trkpt lat="42.7126333" lon="13.0103117"><ele>771.5</ele><time>2026-04-12T11:39:52.432Z</time></trkpt><trkpt lat="42.7125617" lon="13.0104533"><ele>775.75</ele><time>2026-04-12T11:39:53.428Z</time></trkpt><trkpt lat="42.712535" lon="13.01058"><ele>780.0</ele><time>2026-04-12T11:39:54.433Z</time></trkpt><trkpt lat="42.7125767" lon="13.01069"><ele>780.0</ele><time>2026-04-12T11:39:55.424Z</time></trkpt><trkpt lat="42.712645" lon="13.010775"><ele>780.0</ele><time>2026-04-12T11:39:56.427Z</time></trkpt><trkpt lat="42.712725" lon="13.0108233"><ele>780.0</ele><time>2026-04-12T11:39:57.428Z</time></trkpt><trkpt lat="42.7128067" lon="13.0108283"><ele>780.0</ele><time>2026-04-12T11:39:58.425Z</time></trkpt><trkpt lat="42.7129267" lon="13.0106283"><ele>770.3333333333334</ele><time>2026-04-12T11:39:59.431Z</time></trkpt><trkpt lat="42.71304" lon="13.0104383"><ele>760.6666666666667</ele><time>2026-04-12T11:40:00.431Z</time></trkpt><trkpt lat="42.7131583" lon="13.01026"><ele>751.0</ele><time>2026-04-12T11:40:01.427Z</time></trkpt><trkpt lat="42.71327" lon="13.01009"><ele>755.0</ele><time>2026-04-12T11:40:02.431Z</time></trkpt><trkpt lat="42.7133817" lon="13.0099133"><ele>759.0</ele><time>2026-04-12T11:40:03.431Z</time></trkpt><trkpt lat="42.7135017" lon="13.0097217"><ele>763.0</ele><time>2026-04-12T11:40:04.437Z</time></trkpt><trkpt lat="42.71362" lon="13.0094867"><ele>755.0</ele><time>2026-04-12T11:40:05.431Z</time></trkpt><trkpt lat="42.7137167" lon="13.00922"><ele>747.0</ele><time>2026-04-12T11:40:06.443Z</time></trkpt><trkpt lat="42.713795" lon="13.0089383"><ele>739.0</ele><time>2026-04-12T11:40:07.431Z</time></trkpt><trkpt lat="42.7138617" lon="13.0086567"><ele>739.0</ele><time>2026-04-12T11:40:08.438Z</time></trkpt><trkpt lat="42.7139383" lon="13.0084033"><ele>739.0</ele><time>2026-04-12T11:40:09.433Z</time></trkpt><trkpt lat="42.714025" lon="13.0081867"><ele>739.0</ele><time>2026-04-12T11:40:10.43Z</time></trkpt><trkpt lat="42.7141417" lon="13.0080217"><ele>735.75</ele><time>2026-04-12T11:40:11.43Z</time></trkpt><trkpt lat="42.7142767" lon="13.007915"><ele>732.5</ele><time>2026-04-12T11:40:12.427Z</time></trkpt><trkpt lat="42.7144133" lon="13.0078517"><ele>729.25</ele><time>2026-04-12T11:40:13.43Z</time></trkpt><trkpt lat="42.7145417" lon="13.0078033"><ele>726.0</ele><time>2026-04-12T11:40:14.432Z</time></trkpt><trkpt lat="42.7146583" lon="13.007755"><ele>726.0</ele><time>2026-04-12T11:40:15.426Z</time></trkpt><trkpt lat="42.7147533" lon="13.00768"><ele>726.0</ele><time>2026-04-12T11:40:16.432Z</time></trkpt><trkpt lat="42.7148383" lon="13.00758"><ele>726.0</ele><time>2026-04-12T11:40:17.429Z</time></trkpt><trkpt lat="42.714895" lon="13.0074383"><ele>726.0</ele><time>2026-04-12T11:40:18.43Z</time></trkpt><trkpt lat="42.7149167" lon="13.0072617"><ele>726.6666666666666</ele><time>2026-04-12T11:40:19.432Z</time></trkpt><trkpt lat="42.7149333" lon="13.00705"><ele>727.3333333333333</ele><time>2026-04-12T11:40:20.431Z</time></trkpt><trkpt lat="42.7149483" lon="13.00682"><ele>728.0</ele><time>2026-04-12T11:40:21.432Z</time></trkpt><trkpt lat="42.7149517" lon="13.0065883"><ele>725.3333333333333</ele><time>2026-04-12T11:40:22.43Z</time></trkpt><trkpt lat="42.7149283" lon="13.0063667"><ele>722.6666666666666</ele><time>2026-04-12T11:40:23.425Z</time></trkpt><trkpt lat="42.71487" lon="13.0061583"><ele>720.0</ele><time>2026-04-12T11:40:24.429Z</time></trkpt><trkpt lat="42.7147983" lon="13.005975"><ele>722.0</ele><time>2026-04-12T11:40:25.433Z</time></trkpt><trkpt lat="42.7147267" lon="13.0058017"><ele>724.0</ele><time>2026-04-12T11:40:26.434Z</time></trkpt><trkpt lat="42.7146617" lon="13.005645"><ele>726.0</ele><time>2026-04-12T11:40:27.434Z</time></trkpt><trkpt lat="42.714585" lon="13.0055017"><ele>728.0</ele><time>2026-04-12T11:40:28.429Z</time></trkpt><trkpt lat="42.7144883" lon="13.00537"><ele>727.75</ele><time>2026-04-12T11:40:29.433Z</time></trkpt><trkpt lat="42.7143783" lon="13.0052433"><ele>727.5</ele><time>2026-04-12T11:40:30.432Z</time></trkpt><trkpt lat="42.71428" lon="13.0051117"><ele>727.25</ele><time>2026-04-12T11:40:31.431Z</time></trkpt><trkpt lat="42.71421" lon="13.0049633"><ele>727.0</ele><time>2026-04-12T11:40:32.43Z</time></trkpt><trkpt lat="42.7141817" lon="13.0048167"><ele>727.8</ele><time>2026-04-12T11:40:33.428Z</time></trkpt><trkpt lat="42.7142117" lon="13.00469"><ele>728.6</ele><time>2026-04-12T11:40:34.429Z</time></trkpt><trkpt lat="42.7142883" lon="13.0045883"><ele>729.4</ele><time>2026-04-12T11:40:35.427Z</time></trkpt><trkpt lat="42.71438" lon="13.0045317"><ele>730.1999999999999</ele><time>2026-04-12T11:40:36.431Z</time></trkpt><trkpt lat="42.7144817" lon="13.0045367"><ele>731.0</ele><time>2026-04-12T11:40:37.428Z</time></trkpt><trkpt lat="42.7146083" lon="13.0046267"><ele>730.0</ele><time>2026-04-12T11:40:38.428Z</time></trkpt><trkpt lat="42.7147833" lon="13.0047917"><ele>729.0</ele><time>2026-04-12T11:40:39.43Z</time></trkpt><trkpt lat="42.714945" lon="13.0049267"><ele>728.0</ele><time>2026-04-12T11:40:40.429Z</time></trkpt><trkpt lat="42.7150967" lon="13.0050717"><ele>728.0</ele><time>2026-04-12T11:40:41.433Z</time></trkpt><trkpt lat="42.7152217" lon="13.0052667"><ele>728.0</ele><time>2026-04-12T11:40:42.427Z</time></trkpt><trkpt lat="42.7153467" lon="13.0055033"><ele>728.0</ele><time>2026-04-12T11:40:43.43Z</time></trkpt><trkpt lat="42.71548" lon="13.00574"><ele>731.0</ele><time>2026-04-12T11:40:44.433Z</time></trkpt><trkpt lat="42.715605" lon="13.00596"><ele>734.0</ele><time>2026-04-12T11:40:45.436Z</time></trkpt><trkpt lat="42.7157133" lon="13.006185"><ele>737.0</ele><time>2026-04-12T11:40:46.435Z</time></trkpt><trkpt lat="42.7157917" lon="13.0064233"><ele>730.6666666666666</ele><time>2026-04-12T11:40:47.43Z</time></trkpt><trkpt lat="42.7158267" lon="13.00667"><ele>724.3333333333334</ele><time>2026-04-12T11:40:48.435Z</time></trkpt><trkpt lat="42.71584" lon="13.0069"><ele>718.0</ele><time>2026-04-12T11:40:49.432Z</time></trkpt><trkpt lat="42.7158617" lon="13.007125"><ele>718.0</ele><time>2026-04-12T11:40:50.433Z</time></trkpt><trkpt lat="42.7159317" lon="13.0073317"><ele>718.0</ele><time>2026-04-12T11:40:51.434Z</time></trkpt><trkpt lat="42.716045" lon="13.007545"><ele>718.0</ele><time>2026-04-12T11:40:52.429Z</time></trkpt><trkpt lat="42.71619" lon="13.0077533"><ele>724.6666666666667</ele><time>2026-04-12T11:40:53.436Z</time></trkpt><trkpt lat="42.7163417" lon="13.0079167"><ele>731.3333333333334</ele><time>2026-04-12T11:40:54.431Z</time></trkpt><trkpt lat="42.71647" lon="13.0080767"><ele>738.0</ele><time>2026-04-12T11:40:55.431Z</time></trkpt><trkpt lat="42.7165783" lon="13.0082617"><ele>729.3333333333334</ele><time>2026-04-12T11:40:56.435Z</time></trkpt><trkpt lat="42.71665" lon="13.0085"><ele>720.6666666666667</ele><time>2026-04-12T11:40:57.434Z</time></trkpt><trkpt lat="42.7166767" lon="13.008785"><ele>712.0</ele><time>2026-04-12T11:40:58.428Z</time></trkpt><trkpt lat="42.716685" lon="13.0090817"><ele>708.0</ele><time>2026-04-12T11:40:59.432Z</time></trkpt><trkpt lat="42.7166917" lon="13.0093617"><ele>704.0</ele><time>2026-04-12T11:41:00.432Z</time></trkpt><trkpt lat="42.7166917" lon="13.00963"><ele>700.0</ele><time>2026-04-12T11:41:01.43Z</time></trkpt><trkpt lat="42.7166767" lon="13.0098767"><ele>699.3333333333334</ele><time>2026-04-12T11:41:02.436Z</time></trkpt><trkpt lat="42.71664" lon="13.01011"><ele>698.6666666666666</ele><time>2026-04-12T11:41:03.434Z</time></trkpt><trkpt lat="42.716605" lon="13.010335"><ele>698.0</ele><time>2026-04-12T11:41:04.429Z</time></trkpt><trkpt lat="42.716595" lon="13.0105467"><ele>698.0</ele><time>2026-04-12T11:41:05.43Z</time></trkpt><trkpt lat="42.71662" lon="13.0107533"><ele>698.0</ele><time>2026-04-12T11:41:06.433Z</time></trkpt><trkpt lat="42.7166567" lon="13.0109517"><ele>698.0</ele><time>2026-04-12T11:41:07.43Z</time></trkpt><trkpt lat="42.7166933" lon="13.0111417"><ele>698.0</ele><time>2026-04-12T11:41:08.432Z</time></trkpt><trkpt lat="42.7167317" lon="13.01131"><ele>696.5999999999999</ele><time>2026-04-12T11:41:09.431Z</time></trkpt><trkpt lat="42.7167733" lon="13.0114567"><ele>695.1999999999999</ele><time>2026-04-12T11:41:10.429Z</time></trkpt><trkpt lat="42.7168233" lon="13.0115867"><ele>693.8</ele><time>2026-04-12T11:41:11.429Z</time></trkpt><trkpt lat="42.71688" lon="13.0116917"><ele>692.4</ele><time>2026-04-12T11:41:12.43Z</time></trkpt><trkpt lat="42.71692" lon="13.0117817"><ele>691.0</ele><time>2026-04-12T11:41:13.432Z</time></trkpt><trkpt lat="42.7169517" lon="13.0118633"><ele>691.0</ele><time>2026-04-12T11:41:14.433Z</time></trkpt><trkpt lat="42.7168817" lon="13.01191"><ele>691.0</ele><time>2026-04-12T11:41:16.432Z</time></trkpt><trkpt lat="42.716795" lon="13.0117583"><ele>691.0</ele><time>2026-04-12T11:41:18.433Z</time></trkpt><trkpt lat="42.7167483" lon="13.0116367"><ele>691.0</ele><time>2026-04-12T11:41:19.432Z</time></trkpt><trkpt lat="42.7166933" lon="13.01148"><ele>691.0</ele><time>2026-04-12T11:41:20.432Z</time></trkpt><trkpt lat="42.7166417" lon="13.011315"><ele>691.0</ele><time>2026-04-12T11:41:21.429Z</time></trkpt><trkpt lat="42.7165967" lon="13.011165"><ele>691.0</ele><time>2026-04-12T11:41:22.423Z</time></trkpt><trkpt lat="42.7165567" lon="13.0110167"><ele>691.0</ele><time>2026-04-12T11:41:23.43Z</time></trkpt><trkpt lat="42.71652" lon="13.010875"><ele>691.0</ele><time>2026-04-12T11:41:24.428Z</time></trkpt><trkpt lat="42.716485" lon="13.0107467"><ele>691.0</ele><time>2026-04-12T11:41:25.43Z</time></trkpt><trkpt lat="42.7164567" lon="13.0106267"><ele>692.1666666666667</ele><time>2026-04-12T11:41:26.429Z</time></trkpt><trkpt lat="42.7164333" lon="13.01051"><ele>693.3333333333334</ele><time>2026-04-12T11:41:27.429Z</time></trkpt><trkpt lat="42.71641" lon="13.010395"><ele>694.5</ele><time>2026-04-12T11:41:28.428Z</time></trkpt><trkpt lat="42.716385" lon="13.0102883"><ele>695.6666666666666</ele><time>2026-04-12T11:41:29.428Z</time></trkpt><trkpt lat="42.716355" lon="13.0101883"><ele>696.8333333333333</ele><time>2026-04-12T11:41:30.428Z</time></trkpt><trkpt lat="42.7163167" lon="13.0101033"><ele>698.0</ele><time>2026-04-12T11:41:31.431Z</time></trkpt><trkpt lat="42.7162633" lon="13.0100333"><ele>698.3333333333333</ele><time>2026-04-12T11:41:32.428Z</time></trkpt><trkpt lat="42.7161967" lon="13.0099883"><ele>698.6666666666666</ele><time>2026-04-12T11:41:33.428Z</time></trkpt><trkpt lat="42.7161217" lon="13.0099633"><ele>699.0</ele><time>2026-04-12T11:41:34.432Z</time></trkpt><trkpt lat="42.7160433" lon="13.0099633"><ele>699.3333333333334</ele><time>2026-04-12T11:41:35.431Z</time></trkpt><trkpt lat="42.715965" lon="13.009995"><ele>699.6666666666667</ele><time>2026-04-12T11:41:36.431Z</time></trkpt><trkpt lat="42.71589" lon="13.0100467"><ele>700.0</ele><time>2026-04-12T11:41:37.432Z</time></trkpt><trkpt lat="42.7158183" lon="13.0101233"><ele>697.0</ele><time>2026-04-12T11:41:38.433Z</time></trkpt><trkpt lat="42.7157567" lon="13.01023"><ele>694.0</ele><time>2026-04-12T11:41:39.428Z</time></trkpt><trkpt lat="42.715725" lon="13.010345"><ele>691.0</ele><time>2026-04-12T11:41:40.428Z</time></trkpt><trkpt lat="42.7156917" lon="13.010465"><ele>688.0</ele><time>2026-04-12T11:41:41.43Z</time></trkpt><trkpt lat="42.7156633" lon="13.010575"><ele>685.0</ele><time>2026-04-12T11:41:42.43Z</time></trkpt><trkpt lat="42.715635" lon="13.0106833"><ele>685.0</ele><time>2026-04-12T11:41:43.428Z</time></trkpt><trkpt lat="42.71561" lon="13.0107967"><ele>685.0</ele><time>2026-04-12T11:41:44.428Z</time></trkpt><trkpt lat="42.7155833" lon="13.0109067"><ele>685.0</ele><time>2026-04-12T11:41:45.429Z</time></trkpt><trkpt lat="42.71556" lon="13.0110183"><ele>685.0</ele><time>2026-04-12T11:41:46.428Z</time></trkpt><trkpt lat="42.715525" lon="13.0111283"><ele>685.0</ele><time>2026-04-12T11:41:47.434Z</time></trkpt><trkpt lat="42.7155017" lon="13.0112367"><ele>685.0</ele><time>2026-04-12T11:41:48.433Z</time></trkpt><trkpt lat="42.715475" lon="13.0113417"><ele>682.8333333333334</ele><time>2026-04-12T11:41:49.431Z</time></trkpt><trkpt lat="42.7154433" lon="13.0114483"><ele>680.6666666666667</ele><time>2026-04-12T11:41:50.434Z</time></trkpt><trkpt lat="42.71541" lon="13.0115533"><ele>678.5</ele><time>2026-04-12T11:41:51.43Z</time></trkpt><trkpt lat="42.7153833" lon="13.0116617"><ele>676.3333333333334</ele><time>2026-04-12T11:41:52.431Z</time></trkpt><trkpt lat="42.7153633" lon="13.0117733"><ele>674.1666666666666</ele><time>2026-04-12T11:41:53.431Z</time></trkpt><trkpt lat="42.7153467" lon="13.011885"><ele>672.0</ele><time>2026-04-12T11:41:54.431Z</time></trkpt><trkpt lat="42.71534" lon="13.0119967"><ele>669.8333333333334</ele><time>2026-04-12T11:41:55.433Z</time></trkpt><trkpt lat="42.7153433" lon="13.0121083"><ele>667.6666666666666</ele><time>2026-04-12T11:41:56.432Z</time></trkpt><trkpt lat="42.7153633" lon="13.0122183"><ele>665.5</ele><time>2026-04-12T11:41:57.436Z</time></trkpt><trkpt lat="42.7154017" lon="13.0123167"><ele>663.3333333333333</ele><time>2026-04-12T11:41:58.428Z</time></trkpt><trkpt lat="42.7154483" lon="13.0123967"><ele>661.1666666666666</ele><time>2026-04-12T11:41:59.429Z</time></trkpt><trkpt lat="42.71551" lon="13.01246"><ele>659.0</ele><time>2026-04-12T11:42:00.432Z</time></trkpt><trkpt lat="42.7155917" lon="13.0125"><ele>657.6666666666666</ele><time>2026-04-12T11:42:01.446Z</time></trkpt><trkpt lat="42.715675" lon="13.01252"><ele>656.3333333333333</ele><time>2026-04-12T11:42:02.43Z</time></trkpt><trkpt lat="42.7157617" lon="13.0125233"><ele>655.0</ele><time>2026-04-12T11:42:03.432Z</time></trkpt><trkpt lat="42.7158467" lon="13.0125217"><ele>653.6666666666666</ele><time>2026-04-12T11:42:04.431Z</time></trkpt><trkpt lat="42.7159333" lon="13.0125117"><ele>652.3333333333334</ele><time>2026-04-12T11:42:05.43Z</time></trkpt><trkpt lat="42.71602" lon="13.0124967"><ele>651.0</ele><time>2026-04-12T11:42:06.428Z</time></trkpt><trkpt lat="42.7161067" lon="13.0124833"><ele>652.8</ele><time>2026-04-12T11:42:07.43Z</time></trkpt><trkpt lat="42.7161983" lon="13.012475"><ele>654.5999999999999</ele><time>2026-04-12T11:42:08.432Z</time></trkpt><trkpt lat="42.7162917" lon="13.01247"><ele>656.4</ele><time>2026-04-12T11:42:09.427Z</time></trkpt><trkpt lat="42.7163833" lon="13.0124767"><ele>658.2</ele><time>2026-04-12T11:42:10.43Z</time></trkpt><trkpt lat="42.7164733" lon="13.0125067"><ele>660.0</ele><time>2026-04-12T11:42:11.431Z</time></trkpt><trkpt lat="42.7165567" lon="13.0125617"><ele>660.0</ele><time>2026-04-12T11:42:12.429Z</time></trkpt><trkpt lat="42.716635" lon="13.012635"><ele>660.0</ele><time>2026-04-12T11:42:13.43Z</time></trkpt><trkpt lat="42.7166983" lon="13.0127333"><ele>660.0</ele><time>2026-04-12T11:42:14.431Z</time></trkpt><trkpt lat="42.71675" lon="13.0128417"><ele>660.0</ele><time>2026-04-12T11:42:15.43Z</time></trkpt><trkpt lat="42.7167867" lon="13.0129583"><ele>660.0</ele><time>2026-04-12T11:42:16.43Z</time></trkpt><trkpt lat="42.7168067" lon="13.0130867"><ele>660.0</ele><time>2026-04-12T11:42:17.429Z</time></trkpt><trkpt lat="42.7168133" lon="13.0132167"><ele>660.0</ele><time>2026-04-12T11:42:18.43Z</time></trkpt><trkpt lat="42.7168067" lon="13.01334"><ele>660.0</ele><time>2026-04-12T11:42:19.433Z</time></trkpt><trkpt lat="42.7168" lon="13.0134517"><ele>660.0</ele><time>2026-04-12T11:42:20.427Z</time></trkpt><trkpt lat="42.716785" lon="13.0135533"><ele>660.0</ele><time>2026-04-12T11:42:21.428Z</time></trkpt><trkpt lat="42.7167583" lon="13.0136417"><ele>660.0</ele><time>2026-04-12T11:42:22.429Z</time></trkpt><trkpt lat="42.7167383" lon="13.0137267"><ele>657.0</ele><time>2026-04-12T11:42:23.432Z</time></trkpt><trkpt lat="42.7167017" lon="13.01389"><ele>654.0</ele><time>2026-04-12T11:42:25.43Z</time></trkpt><trkpt lat="42.716655" lon="13.0139633"><ele>651.0</ele><time>2026-04-12T11:42:26.436Z</time></trkpt><trkpt lat="42.716595" lon="13.01403"><ele>648.0</ele><time>2026-04-12T11:42:27.427Z</time></trkpt><trkpt lat="42.7165283" lon="13.0141017"><ele>645.0</ele><time>2026-04-12T11:42:28.432Z</time></trkpt><trkpt lat="42.7164567" lon="13.01418"><ele>644.0</ele><time>2026-04-12T11:42:29.427Z</time></trkpt><trkpt lat="42.716385" lon="13.0142567"><ele>643.0</ele><time>2026-04-12T11:42:30.434Z</time></trkpt><trkpt lat="42.7163117" lon="13.01433"><ele>642.0</ele><time>2026-04-12T11:42:31.431Z</time></trkpt><trkpt lat="42.71624" lon="13.0144083"><ele>641.0</ele><time>2026-04-12T11:42:32.444Z</time></trkpt><trkpt lat="42.7161717" lon="13.0145033"><ele>640.0</ele><time>2026-04-12T11:42:33.435Z</time></trkpt><trkpt lat="42.7161167" lon="13.01461"><ele>640.0</ele><time>2026-04-12T11:42:34.432Z</time></trkpt><trkpt lat="42.7160733" lon="13.0147267"><ele>640.0</ele><time>2026-04-12T11:42:35.43Z</time></trkpt><trkpt lat="42.7160433" lon="13.01485"><ele>640.0</ele><time>2026-04-12T11:42:36.434Z</time></trkpt><trkpt lat="42.7160383" lon="13.014975"><ele>640.0</ele><time>2026-04-12T11:42:37.431Z</time></trkpt><trkpt lat="42.7160517" lon="13.0151"><ele>640.0</ele><time>2026-04-12T11:42:38.437Z</time></trkpt><trkpt lat="42.716075" lon="13.0152233"><ele>638.8</ele><time>2026-04-12T11:42:39.43Z</time></trkpt><trkpt lat="42.716105" lon="13.0153517"><ele>637.6</ele><time>2026-04-12T11:42:40.429Z</time></trkpt><trkpt lat="42.7161417" lon="13.015475"><ele>636.4</ele><time>2026-04-12T11:42:41.432Z</time></trkpt><trkpt lat="42.71618" lon="13.0156017"><ele>635.2</ele><time>2026-04-12T11:42:42.433Z</time></trkpt><trkpt lat="42.716215" lon="13.0157317"><ele>634.0</ele><time>2026-04-12T11:42:43.433Z</time></trkpt><trkpt lat="42.7162567" lon="13.01586"><ele>633.2</ele><time>2026-04-12T11:42:44.433Z</time></trkpt><trkpt lat="42.7163033" lon="13.0159833"><ele>632.4</ele><time>2026-04-12T11:42:45.43Z</time></trkpt><trkpt lat="42.716355" lon="13.01611"><ele>631.6</ele><time>2026-04-12T11:42:46.431Z</time></trkpt><trkpt lat="42.716415" lon="13.0162333"><ele>630.8</ele><time>2026-04-12T11:42:47.434Z</time></trkpt><trkpt lat="42.7164767" lon="13.01636"><ele>630.0</ele><time>2026-04-12T11:42:48.43Z</time></trkpt><trkpt lat="42.71654" lon="13.01649"><ele>630.0</ele><time>2026-04-12T11:42:49.432Z</time></trkpt><trkpt lat="42.71661" lon="13.0166167"><ele>630.0</ele><time>2026-04-12T11:42:50.431Z</time></trkpt><trkpt lat="42.71668" lon="13.01674"><ele>630.0</ele><time>2026-04-12T11:42:51.431Z</time></trkpt><trkpt lat="42.7167583" lon="13.0168583"><ele>630.0</ele><time>2026-04-12T11:42:52.433Z</time></trkpt><trkpt lat="42.7168467" lon="13.01697"><ele>627.0</ele><time>2026-04-12T11:42:53.432Z</time></trkpt><trkpt lat="42.7169483" lon="13.0170633"><ele>624.0</ele><time>2026-04-12T11:42:54.431Z</time></trkpt><trkpt lat="42.7170533" lon="13.01715"><ele>621.0</ele><time>2026-04-12T11:42:55.434Z</time></trkpt><trkpt lat="42.7171617" lon="13.0172217"><ele>618.0</ele><time>2026-04-12T11:42:56.434Z</time></trkpt><trkpt lat="42.7172717" lon="13.01729"><ele>618.0</ele><time>2026-04-12T11:42:57.434Z</time></trkpt><trkpt lat="42.717385" lon="13.01736"><ele>618.0</ele><time>2026-04-12T11:42:58.432Z</time></trkpt><trkpt lat="42.7175067" lon="13.0174317"><ele>618.0</ele><time>2026-04-12T11:42:59.434Z</time></trkpt><trkpt lat="42.7176267" lon="13.01751"><ele>618.0</ele><time>2026-04-12T11:43:00.432Z</time></trkpt><trkpt lat="42.7177467" lon="13.0175833"><ele>617.25</ele><time>2026-04-12T11:43:01.434Z</time></trkpt><trkpt lat="42.7178683" lon="13.017655"><ele>616.5</ele><time>2026-04-12T11:43:02.43Z</time></trkpt><trkpt lat="42.7179917" lon="13.0177283"><ele>615.75</ele><time>2026-04-12T11:43:03.433Z</time></trkpt><trkpt lat="42.7181167" lon="13.0178033"><ele>615.0</ele><time>2026-04-12T11:43:04.433Z</time></trkpt><trkpt lat="42.71824" lon="13.01788"><ele>615.0</ele><time>2026-04-12T11:43:05.436Z</time></trkpt><trkpt lat="42.7183633" lon="13.0179667"><ele>615.0</ele><time>2026-04-12T11:43:06.436Z</time></trkpt><trkpt lat="42.7184833" lon="13.0180617"><ele>615.0</ele><time>2026-04-12T11:43:07.433Z</time></trkpt><trkpt lat="42.7185983" lon="13.018165"><ele>615.0</ele><time>2026-04-12T11:43:08.455Z</time></trkpt><trkpt lat="42.7187117" lon="13.01827"><ele>614.25</ele><time>2026-04-12T11:43:09.433Z</time></trkpt><trkpt lat="42.7188267" lon="13.0183783"><ele>613.5</ele><time>2026-04-12T11:43:10.432Z</time></trkpt><trkpt lat="42.71894" lon="13.01849"><ele>612.75</ele><time>2026-04-12T11:43:11.431Z</time></trkpt><trkpt lat="42.71905" lon="13.0186067"><ele>612.0</ele><time>2026-04-12T11:43:12.431Z</time></trkpt><trkpt lat="42.7191517" lon="13.0187283"><ele>612.0</ele><time>2026-04-12T11:43:13.433Z</time></trkpt><trkpt lat="42.7192417" lon="13.018865"><ele>612.0</ele><time>2026-04-12T11:43:14.428Z</time></trkpt><trkpt lat="42.7193017" lon="13.0190283"><ele>612.0</ele><time>2026-04-12T11:43:15.431Z</time></trkpt><trkpt lat="42.719335" lon="13.0192067"><ele>612.0</ele><time>2026-04-12T11:43:16.429Z</time></trkpt><trkpt lat="42.71937" lon="13.019385"><ele>612.25</ele><time>2026-04-12T11:43:17.434Z</time></trkpt><trkpt lat="42.7193833" lon="13.019565"><ele>612.5</ele><time>2026-04-12T11:43:18.432Z</time></trkpt><trkpt lat="42.7193867" lon="13.019745"><ele>612.75</ele><time>2026-04-12T11:43:19.432Z</time></trkpt><trkpt lat="42.7193933" lon="13.0199283"><ele>613.0</ele><time>2026-04-12T11:43:20.429Z</time></trkpt><trkpt lat="42.719405" lon="13.0201067"><ele>611.0</ele><time>2026-04-12T11:43:21.432Z</time></trkpt><trkpt lat="42.7194417" lon="13.0202767"><ele>609.0</ele><time>2026-04-12T11:43:22.427Z</time></trkpt><trkpt lat="42.7194833" lon="13.0204417"><ele>607.0</ele><time>2026-04-12T11:43:23.43Z</time></trkpt><trkpt lat="42.7195533" lon="13.0205817"><ele>605.0</ele><time>2026-04-12T11:43:24.432Z</time></trkpt><trkpt lat="42.7196483" lon="13.0206867"><ele>605.0</ele><time>2026-04-12T11:43:25.43Z</time></trkpt><trkpt lat="42.7197617" lon="13.0207583"><ele>605.0</ele><time>2026-04-12T11:43:26.449Z</time></trkpt><trkpt lat="42.71988" lon="13.020795"><ele>605.0</ele><time>2026-04-12T11:43:27.429Z</time></trkpt><trkpt lat="42.719995" lon="13.02081"><ele>605.0</ele><time>2026-04-12T11:43:28.431Z</time></trkpt><trkpt lat="42.7201117" lon="13.0208133"><ele>605.25</ele><time>2026-04-12T11:43:29.43Z</time></trkpt><trkpt lat="42.7202283" lon="13.0208167"><ele>605.5</ele><time>2026-04-12T11:43:30.433Z</time></trkpt><trkpt lat="42.7203467" lon="13.020815"><ele>605.75</ele><time>2026-04-12T11:43:31.435Z</time></trkpt><trkpt lat="42.7204583" lon="13.02081"><ele>606.0</ele><time>2026-04-12T11:43:32.434Z</time></trkpt><trkpt lat="42.7205717" lon="13.02081"><ele>606.4</ele><time>2026-04-12T11:43:33.432Z</time></trkpt><trkpt lat="42.7206833" lon="13.0208117"><ele>606.8</ele><time>2026-04-12T11:43:34.429Z</time></trkpt><trkpt lat="42.7207883" lon="13.0208233"><ele>607.1999999999999</ele><time>2026-04-12T11:43:35.434Z</time></trkpt><trkpt lat="42.7208933" lon="13.0208333"><ele>607.6</ele><time>2026-04-12T11:43:36.436Z</time></trkpt><trkpt lat="42.7209933" lon="13.0208467"><ele>608.0</ele><time>2026-04-12T11:43:37.431Z</time></trkpt><trkpt lat="42.72109" lon="13.0208583"><ele>606.8</ele><time>2026-04-12T11:43:38.434Z</time></trkpt><trkpt lat="42.7211833" lon="13.0208733"><ele>605.5999999999999</ele><time>2026-04-12T11:43:39.431Z</time></trkpt><trkpt lat="42.7212767" lon="13.0209"><ele>604.4000000000001</ele><time>2026-04-12T11:43:40.435Z</time></trkpt><trkpt lat="42.7213633" lon="13.0209383"><ele>603.2</ele><time>2026-04-12T11:43:41.433Z</time></trkpt><trkpt lat="42.72145" lon="13.0209833"><ele>602.0</ele><time>2026-04-12T11:43:42.435Z</time></trkpt><trkpt lat="42.7215267" lon="13.021035"><ele>602.0</ele><time>2026-04-12T11:43:43.435Z</time></trkpt><trkpt lat="42.7215967" lon="13.0210933"><ele>602.0</ele><time>2026-04-12T11:43:44.444Z</time></trkpt><trkpt lat="42.7216617" lon="13.0211567"><ele>602.0</ele><time>2026-04-12T11:43:45.434Z</time></trkpt><trkpt lat="42.7217217" lon="13.0212233"><ele>602.0</ele><time>2026-04-12T11:43:46.433Z</time></trkpt><trkpt lat="42.7217683" lon="13.0212983"><ele>602.0</ele><time>2026-04-12T11:43:47.436Z</time></trkpt><trkpt lat="42.72181" lon="13.02138"><ele>602.0</ele><time>2026-04-12T11:43:48.431Z</time></trkpt><trkpt lat="42.7218433" lon="13.0214667"><ele>602.0</ele><time>2026-04-12T11:43:49.433Z</time></trkpt><trkpt lat="42.721875" lon="13.021555"><ele>602.0</ele><time>2026-04-12T11:43:50.432Z</time></trkpt><trkpt lat="42.7219033" lon="13.0216417"><ele>602.0</ele><time>2026-04-12T11:43:51.433Z</time></trkpt><trkpt lat="42.7219317" lon="13.0217233"><ele>602.0</ele><time>2026-04-12T11:43:52.432Z</time></trkpt><trkpt lat="42.7219617" lon="13.021805"><ele>602.0</ele><time>2026-04-12T11:43:53.437Z</time></trkpt><trkpt lat="42.72199" lon="13.0218817"><ele>602.0</ele><time>2026-04-12T11:43:54.435Z</time></trkpt><trkpt lat="42.7220233" lon="13.0219567"><ele>602.0</ele><time>2026-04-12T11:43:55.433Z</time></trkpt><trkpt lat="42.7220633" lon="13.0220383"><ele>601.6</ele><time>2026-04-12T11:43:56.434Z</time></trkpt><trkpt lat="42.7221133" lon="13.0221333"><ele>601.2</ele><time>2026-04-12T11:43:57.434Z</time></trkpt><trkpt lat="42.7221767" lon="13.0222333"><ele>600.8</ele><time>2026-04-12T11:43:58.433Z</time></trkpt><trkpt lat="42.7222483" lon="13.022335"><ele>600.4</ele><time>2026-04-12T11:43:59.433Z</time></trkpt><trkpt lat="42.72234" lon="13.022445"><ele>600.0</ele><time>2026-04-12T11:44:00.432Z</time></trkpt><trkpt lat="42.72245" lon="13.0225533"><ele>599.6666666666666</ele><time>2026-04-12T11:44:01.427Z</time></trkpt><trkpt lat="42.7225817" lon="13.0226517"><ele>599.3333333333333</ele><time>2026-04-12T11:44:02.43Z</time></trkpt><trkpt lat="42.7227267" lon="13.02274"><ele>599.0</ele><time>2026-04-12T11:44:03.431Z</time></trkpt><trkpt lat="42.7228817" lon="13.0228183"><ele>599.0</ele><time>2026-04-12T11:44:04.432Z</time></trkpt><trkpt lat="42.7230417" lon="13.0228767"><ele>599.0</ele><time>2026-04-12T11:44:05.432Z</time></trkpt><trkpt lat="42.7231933" lon="13.022905"><ele>599.0</ele><time>2026-04-12T11:44:06.435Z</time></trkpt><trkpt lat="42.72334" lon="13.0229117"><ele>599.0</ele><time>2026-04-12T11:44:07.435Z</time></trkpt><trkpt lat="42.72348" lon="13.0229117"><ele>599.0</ele><time>2026-04-12T11:44:08.434Z</time></trkpt><trkpt lat="42.72361" lon="13.022945"><ele>599.0</ele><time>2026-04-12T11:44:09.432Z</time></trkpt><trkpt lat="42.723715" lon="13.0230133"><ele>599.0</ele><time>2026-04-12T11:44:10.431Z</time></trkpt><trkpt lat="42.72378" lon="13.0231383"><ele>598.5</ele><time>2026-04-12T11:44:11.431Z</time></trkpt><trkpt lat="42.7238167" lon="13.0233"><ele>598.0</ele><time>2026-04-12T11:44:12.428Z</time></trkpt><trkpt lat="42.7238317" lon="13.0235033"><ele>597.5</ele><time>2026-04-12T11:44:13.429Z</time></trkpt><trkpt lat="42.7238433" lon="13.0237167"><ele>597.0</ele><time>2026-04-12T11:44:14.431Z</time></trkpt><trkpt lat="42.72385" lon="13.0239217"><ele>598.0</ele><time>2026-04-12T11:44:15.426Z</time></trkpt><trkpt lat="42.7238333" lon="13.024115"><ele>599.0</ele><time>2026-04-12T11:44:16.431Z</time></trkpt><trkpt lat="42.7237917" lon="13.0242967"><ele>600.0</ele><time>2026-04-12T11:44:17.43Z</time></trkpt><trkpt lat="42.7237433" lon="13.0244583"><ele>601.0</ele><time>2026-04-12T11:44:18.431Z</time></trkpt><trkpt lat="42.72369" lon="13.0246083"><ele>601.2</ele><time>2026-04-12T11:44:19.436Z</time></trkpt><trkpt lat="42.723645" lon="13.0247517"><ele>601.4000000000001</ele><time>2026-04-12T11:44:20.434Z</time></trkpt><trkpt lat="42.7236117" lon="13.0248817"><ele>601.6</ele><time>2026-04-12T11:44:21.43Z</time></trkpt><trkpt lat="42.7235917" lon="13.02501"><ele>601.8000000000001</ele><time>2026-04-12T11:44:22.429Z</time></trkpt><trkpt lat="42.723595" lon="13.02513"><ele>602.0</ele><time>2026-04-12T11:44:23.43Z</time></trkpt><trkpt lat="42.72361" lon="13.0252467"><ele>601.2</ele><time>2026-04-12T11:44:24.427Z</time></trkpt><trkpt lat="42.72364" lon="13.025355"><ele>600.4000000000001</ele><time>2026-04-12T11:44:25.427Z</time></trkpt><trkpt lat="42.723685" lon="13.0254633"><ele>599.5999999999999</ele><time>2026-04-12T11:44:26.428Z</time></trkpt><trkpt lat="42.723745" lon="13.0255467"><ele>598.8</ele><time>2026-04-12T11:44:27.429Z</time></trkpt><trkpt lat="42.7238217" lon="13.0256133"><ele>598.0</ele><time>2026-04-12T11:44:28.433Z</time></trkpt><trkpt lat="42.72392" lon="13.0256567"><ele>598.0</ele><time>2026-04-12T11:44:29.43Z</time></trkpt><trkpt lat="42.7240333" lon="13.0256733"><ele>598.0</ele><time>2026-04-12T11:44:30.432Z</time></trkpt><trkpt lat="42.7241683" lon="13.02565"><ele>598.0</ele><time>2026-04-12T11:44:31.43Z</time></trkpt><trkpt lat="42.7243167" lon="13.0255833"><ele>598.0</ele><time>2026-04-12T11:44:32.435Z</time></trkpt><trkpt lat="42.7244667" lon="13.0255083"><ele>597.3333333333334</ele><time>2026-04-12T11:44:33.43Z</time></trkpt><trkpt lat="42.724625" lon="13.0254533"><ele>596.6666666666666</ele><time>2026-04-12T11:44:34.429Z</time></trkpt><trkpt lat="42.7248" lon="13.02544"><ele>596.0</ele><time>2026-04-12T11:44:35.427Z</time></trkpt><trkpt lat="42.7249933" lon="13.0254733"><ele>596.0</ele><time>2026-04-12T11:44:36.429Z</time></trkpt><trkpt lat="42.7251983" lon="13.02554"><ele>596.0</ele><time>2026-04-12T11:44:37.431Z</time></trkpt><trkpt lat="42.7254133" lon="13.0256083"><ele>596.0</ele><time>2026-04-12T11:44:38.446Z</time></trkpt><trkpt lat="42.7256317" lon="13.02567"><ele>595.3333333333333</ele><time>2026-04-12T11:44:39.433Z</time></trkpt><trkpt lat="42.725845" lon="13.0257133"><ele>594.6666666666666</ele><time>2026-04-12T11:44:40.434Z</time></trkpt><trkpt lat="42.7260467" lon="13.025735"><ele>594.0</ele><time>2026-04-12T11:44:41.435Z</time></trkpt><trkpt lat="42.7262367" lon="13.025735"><ele>593.6666666666666</ele><time>2026-04-12T11:44:42.433Z</time></trkpt><trkpt lat="42.7264133" lon="13.0257033"><ele>593.3333333333333</ele><time>2026-04-12T11:44:43.435Z</time></trkpt><trkpt lat="42.7265833" lon="13.02565"><ele>593.0</ele><time>2026-04-12T11:44:44.434Z</time></trkpt><trkpt lat="42.7267367" lon="13.0255783"><ele>593.0</ele><time>2026-04-12T11:44:45.431Z</time></trkpt><trkpt lat="42.7268817" lon="13.0254967"><ele>593.0</ele><time>2026-04-12T11:44:46.431Z</time></trkpt><trkpt lat="42.7270267" lon="13.0253683"><ele>593.0</ele><time>2026-04-12T11:44:47.432Z</time></trkpt><trkpt lat="42.7271867" lon="13.0252117"><ele>593.0</ele><time>2026-04-12T11:44:48.433Z</time></trkpt><trkpt lat="42.7273533" lon="13.025035"><ele>593.0</ele><time>2026-04-12T11:44:49.434Z</time></trkpt><trkpt lat="42.7275167" lon="13.0248517"><ele>593.0</ele><time>2026-04-12T11:44:50.432Z</time></trkpt><trkpt lat="42.72767" lon="13.0246617"><ele>595.6666666666666</ele><time>2026-04-12T11:44:51.434Z</time></trkpt><trkpt lat="42.7278083" lon="13.0244583"><ele>598.3333333333334</ele><time>2026-04-12T11:44:52.434Z</time></trkpt><trkpt lat="42.7279333" lon="13.0242283"><ele>601.0</ele><time>2026-04-12T11:44:53.426Z</time></trkpt><trkpt lat="42.7280517" lon="13.0239733"><ele>601.0</ele><time>2026-04-12T11:44:54.433Z</time></trkpt><trkpt lat="42.7281583" lon="13.0236867"><ele>601.0</ele><time>2026-04-12T11:44:55.435Z</time></trkpt><trkpt lat="42.7282617" lon="13.0233883"><ele>601.5</ele><time>2026-04-12T11:44:56.453Z</time></trkpt><trkpt lat="42.72835" lon="13.0230883"><ele>602.0</ele><time>2026-04-12T11:44:57.43Z</time></trkpt><trkpt lat="42.728415" lon="13.0227633"><ele>600.0</ele><time>2026-04-12T11:44:58.426Z</time></trkpt><trkpt lat="42.7284533" lon="13.0224167"><ele>598.0</ele><time>2026-04-12T11:44:59.429Z</time></trkpt><trkpt lat="42.7284683" lon="13.02205"><ele>598.0</ele><time>2026-04-12T11:45:00.427Z</time></trkpt><trkpt lat="42.7284867" lon="13.021715"><ele>598.0</ele><time>2026-04-12T11:45:01.428Z</time></trkpt><trkpt lat="42.728505" lon="13.02139"><ele>596.0</ele><time>2026-04-12T11:45:02.428Z</time></trkpt><trkpt lat="42.72854" lon="13.0210917"><ele>594.0</ele><time>2026-04-12T11:45:03.431Z</time></trkpt><trkpt lat="42.72859" lon="13.020835"><ele>592.0</ele><time>2026-04-12T11:45:04.432Z</time></trkpt><trkpt lat="42.7286617" lon="13.0206267"><ele>591.0</ele><time>2026-04-12T11:45:05.435Z</time></trkpt><trkpt lat="42.7287633" lon="13.0204533"><ele>590.0</ele><time>2026-04-12T11:45:06.432Z</time></trkpt><trkpt lat="42.728895" lon="13.020325"><ele>589.0</ele><time>2026-04-12T11:45:07.434Z</time></trkpt><trkpt lat="42.7290383" lon="13.0202333"><ele>589.0</ele><time>2026-04-12T11:45:08.432Z</time></trkpt><trkpt lat="42.72919" lon="13.0201883"><ele>589.0</ele><time>2026-04-12T11:45:09.43Z</time></trkpt><trkpt lat="42.729355" lon="13.0202383"><ele>589.0</ele><time>2026-04-12T11:45:10.428Z</time></trkpt><trkpt lat="42.7295383" lon="13.0203333"><ele>588.6666666666667</ele><time>2026-04-12T11:45:11.43Z</time></trkpt><trkpt lat="42.7297333" lon="13.0204033"><ele>588.3333333333334</ele><time>2026-04-12T11:45:12.434Z</time></trkpt><trkpt lat="42.7299483" lon="13.0204783"><ele>588.0</ele><time>2026-04-12T11:45:13.436Z</time></trkpt><trkpt lat="42.7301767" lon="13.0205533"><ele>588.0</ele><time>2026-04-12T11:45:14.428Z</time></trkpt><trkpt lat="42.730415" lon="13.02062"><ele>588.0</ele><time>2026-04-12T11:45:15.427Z</time></trkpt><trkpt lat="42.7306483" lon="13.02065"><ele>588.0</ele><time>2026-04-12T11:45:16.429Z</time></trkpt><trkpt lat="42.7308983" lon="13.0206467"><ele>588.0</ele><time>2026-04-12T11:45:17.431Z</time></trkpt><trkpt lat="42.7311633" lon="13.0206267"><ele>585.0</ele><time>2026-04-12T11:45:18.43Z</time></trkpt><trkpt lat="42.731405" lon="13.0205983"><ele>582.0</ele><time>2026-04-12T11:45:19.432Z</time></trkpt><trkpt lat="42.7316333" lon="13.0206117"><ele>582.0</ele><time>2026-04-12T11:45:20.428Z</time></trkpt><trkpt lat="42.731855" lon="13.02061"><ele>582.0</ele><time>2026-04-12T11:45:21.429Z</time></trkpt><trkpt lat="42.732085" lon="13.020535"><ele>583.0</ele><time>2026-04-12T11:45:22.431Z</time></trkpt><trkpt lat="42.7323183" lon="13.0204133"><ele>584.0</ele><time>2026-04-12T11:45:23.434Z</time></trkpt><trkpt lat="42.7325633" lon="13.02028"><ele>590.5</ele><time>2026-04-12T11:45:24.427Z</time></trkpt><trkpt lat="42.7328133" lon="13.02015"><ele>597.0</ele><time>2026-04-12T11:45:25.433Z</time></trkpt><trkpt lat="42.7330683" lon="13.0200283"><ele>592.5</ele><time>2026-04-12T11:45:26.433Z</time></trkpt><trkpt lat="42.73332" lon="13.01989"><ele>588.0</ele><time>2026-04-12T11:45:27.433Z</time></trkpt><trkpt lat="42.7335683" lon="13.0197433"><ele>588.0</ele><time>2026-04-12T11:45:28.43Z</time></trkpt><trkpt lat="42.733805" lon="13.01959"><ele>588.0</ele><time>2026-04-12T11:45:29.434Z</time></trkpt><trkpt lat="42.7340183" lon="13.01941"><ele>588.0</ele><time>2026-04-12T11:45:30.433Z</time></trkpt><trkpt lat="42.7342133" lon="13.01922"><ele>588.0</ele><time>2026-04-12T11:45:31.432Z</time></trkpt><trkpt lat="42.7343967" lon="13.0190083"><ele>592.0</ele><time>2026-04-12T11:45:32.434Z</time></trkpt><trkpt lat="42.734565" lon="13.01877"><ele>596.0</ele><time>2026-04-12T11:45:33.432Z</time></trkpt><trkpt lat="42.734725" lon="13.0184983"><ele>591.0</ele><time>2026-04-12T11:45:34.433Z</time></trkpt><trkpt lat="42.7348833" lon="13.0182233"><ele>586.0</ele><time>2026-04-12T11:45:35.432Z</time></trkpt><trkpt lat="42.7350333" lon="13.0179567"><ele>586.0</ele><time>2026-04-12T11:45:36.432Z</time></trkpt><trkpt lat="42.735165" lon="13.0176883"><ele>586.0</ele><time>2026-04-12T11:45:37.429Z</time></trkpt><trkpt lat="42.7352683" lon="13.0174117"><ele>595.3333333333334</ele><time>2026-04-12T11:45:38.433Z</time></trkpt><trkpt lat="42.73535" lon="13.0171333"><ele>604.6666666666666</ele><time>2026-04-12T11:45:39.43Z</time></trkpt><trkpt lat="42.7353967" lon="13.0168467"><ele>614.0</ele><time>2026-04-12T11:45:40.431Z</time></trkpt><trkpt lat="42.7354" lon="13.0165367"><ele>614.0</ele><time>2026-04-12T11:45:41.429Z</time></trkpt><trkpt lat="42.735365" lon="13.01623"><ele>614.0</ele><time>2026-04-12T11:45:42.432Z</time></trkpt><trkpt lat="42.7353033" lon="13.0159433"><ele>614.0</ele><time>2026-04-12T11:45:43.431Z</time></trkpt><trkpt lat="42.73522" lon="13.015685"><ele>603.6666666666666</ele><time>2026-04-12T11:45:44.43Z</time></trkpt><trkpt lat="42.7351217" lon="13.01546"><ele>593.3333333333334</ele><time>2026-04-12T11:45:45.43Z</time></trkpt><trkpt lat="42.7350283" lon="13.015275"><ele>583.0</ele><time>2026-04-12T11:45:46.434Z</time></trkpt><trkpt lat="42.734965" lon="13.0151067"><ele>581.0</ele><time>2026-04-12T11:45:47.431Z</time></trkpt><trkpt lat="42.734955" lon="13.0149417"><ele>579.0</ele><time>2026-04-12T11:45:48.431Z</time></trkpt><trkpt lat="42.734995" lon="13.01481"><ele>577.0</ele><time>2026-04-12T11:45:49.434Z</time></trkpt><trkpt lat="42.7350717" lon="13.01469"><ele>575.0</ele><time>2026-04-12T11:45:50.433Z</time></trkpt><trkpt lat="42.735195" lon="13.01463"><ele>576.3333333333333</ele><time>2026-04-12T11:45:51.432Z</time></trkpt><trkpt lat="42.7353583" lon="13.0146383"><ele>577.6666666666666</ele><time>2026-04-12T11:45:52.431Z</time></trkpt><trkpt lat="42.73554" lon="13.0146667"><ele>579.0</ele><time>2026-04-12T11:45:53.433Z</time></trkpt><trkpt lat="42.7357433" lon="13.0146867"><ele>579.0</ele><time>2026-04-12T11:45:54.434Z</time></trkpt><trkpt lat="42.7359467" lon="13.0147067"><ele>579.0</ele><time>2026-04-12T11:45:55.432Z</time></trkpt><trkpt lat="42.7361433" lon="13.014715"><ele>579.0</ele><time>2026-04-12T11:45:56.434Z</time></trkpt><trkpt lat="42.736335" lon="13.0146933"><ele>578.6666666666666</ele><time>2026-04-12T11:45:57.437Z</time></trkpt><trkpt lat="42.7365233" lon="13.0146283"><ele>578.3333333333333</ele><time>2026-04-12T11:45:58.431Z</time></trkpt><trkpt lat="42.7367033" lon="13.0145183"><ele>578.0</ele><time>2026-04-12T11:45:59.433Z</time></trkpt><trkpt lat="42.7368883" lon="13.01437"><ele>577.5</ele><time>2026-04-12T11:46:00.436Z</time></trkpt><trkpt lat="42.7370817" lon="13.0142083"><ele>577.0</ele><time>2026-04-12T11:46:01.432Z</time></trkpt><trkpt lat="42.73728" lon="13.0140333"><ele>577.0</ele><time>2026-04-12T11:46:02.434Z</time></trkpt><trkpt lat="42.7374817" lon="13.0138367"><ele>577.0</ele><time>2026-04-12T11:46:03.434Z</time></trkpt><trkpt lat="42.737675" lon="13.0136217"><ele>578.5</ele><time>2026-04-12T11:46:04.432Z</time></trkpt><trkpt lat="42.7378567" lon="13.01338"><ele>580.0</ele><time>2026-04-12T11:46:05.429Z</time></trkpt><trkpt lat="42.7380117" lon="13.013095"><ele>580.0</ele><time>2026-04-12T11:46:06.431Z</time></trkpt><trkpt lat="42.7381383" lon="13.0127633"><ele>580.0</ele><time>2026-04-12T11:46:07.434Z</time></trkpt><trkpt lat="42.7382517" lon="13.0124167"><ele>578.5</ele><time>2026-04-12T11:46:08.436Z</time></trkpt><trkpt lat="42.7383483" lon="13.01207"><ele>577.0</ele><time>2026-04-12T11:46:09.432Z</time></trkpt><trkpt lat="42.7384133" lon="13.011735"><ele>576.5</ele><time>2026-04-12T11:46:10.433Z</time></trkpt><trkpt lat="42.738455" lon="13.0114033"><ele>576.0</ele><time>2026-04-12T11:46:11.432Z</time></trkpt><trkpt lat="42.738485" lon="13.0110783"><ele>576.0</ele><time>2026-04-12T11:46:12.433Z</time></trkpt><trkpt lat="42.7385267" lon="13.0107683"><ele>576.0</ele><time>2026-04-12T11:46:13.434Z</time></trkpt><trkpt lat="42.7385933" lon="13.0104817"><ele>581.6666666666666</ele><time>2026-04-12T11:46:14.434Z</time></trkpt><trkpt lat="42.73869" lon="13.0102133"><ele>587.3333333333333</ele><time>2026-04-12T11:46:15.431Z</time></trkpt><trkpt lat="42.7387967" lon="13.00996"><ele>593.0</ele><time>2026-04-12T11:46:16.431Z</time></trkpt><trkpt lat="42.7388817" lon="13.0097133"><ele>595.3333333333333</ele><time>2026-04-12T11:46:17.432Z</time></trkpt><trkpt lat="42.7389233" lon="13.009465"><ele>597.6666666666666</ele><time>2026-04-12T11:46:18.431Z</time></trkpt><trkpt lat="42.738895" lon="13.0092067"><ele>600.0</ele><time>2026-04-12T11:46:19.432Z</time></trkpt><trkpt lat="42.7388117" lon="13.0089283"><ele>610.5</ele><time>2026-04-12T11:46:20.435Z</time></trkpt><trkpt lat="42.738695" lon="13.008635"><ele>621.0</ele><time>2026-04-12T11:46:21.434Z</time></trkpt><trkpt lat="42.7385667" lon="13.0083533"><ele>609.0</ele><time>2026-04-12T11:46:22.436Z</time></trkpt><trkpt lat="42.73845" lon="13.0080867"><ele>597.0</ele><time>2026-04-12T11:46:23.433Z</time></trkpt><trkpt lat="42.73836" lon="13.00782"><ele>585.0</ele><time>2026-04-12T11:46:24.429Z</time></trkpt><trkpt lat="42.73831" lon="13.0075617"><ele>583.6666666666666</ele><time>2026-04-12T11:46:25.428Z</time></trkpt><trkpt lat="42.73829" lon="13.007295"><ele>582.3333333333333</ele><time>2026-04-12T11:46:26.436Z</time></trkpt><trkpt lat="42.7383183" lon="13.0070017"><ele>581.0</ele><time>2026-04-12T11:46:27.435Z</time></trkpt><trkpt lat="42.7383817" lon="13.0066833"><ele>578.0</ele><time>2026-04-12T11:46:28.434Z</time></trkpt><trkpt lat="42.738475" lon="13.0063567"><ele>575.0</ele><time>2026-04-12T11:46:29.429Z</time></trkpt><trkpt lat="42.738575" lon="13.0060283"><ele>588.0</ele><time>2026-04-12T11:46:30.43Z</time></trkpt><trkpt lat="42.738645" lon="13.0056917"><ele>601.0</ele><time>2026-04-12T11:46:31.432Z</time></trkpt><trkpt lat="42.7386833" lon="13.0053667"><ele>601.0</ele><time>2026-04-12T11:46:32.433Z</time></trkpt><trkpt lat="42.7387267" lon="13.005065"><ele>601.0</ele><time>2026-04-12T11:46:33.43Z</time></trkpt><trkpt lat="42.7387983" lon="13.004775"><ele>598.3333333333334</ele><time>2026-04-12T11:46:34.43Z</time></trkpt><trkpt lat="42.73889" lon="13.0045"><ele>595.6666666666666</ele><time>2026-04-12T11:46:35.433Z</time></trkpt><trkpt lat="42.7389833" lon="13.0042333"><ele>593.0</ele><time>2026-04-12T11:46:36.431Z</time></trkpt><trkpt lat="42.7390633" lon="13.0039683"><ele>593.0</ele><time>2026-04-12T11:46:37.433Z</time></trkpt><trkpt lat="42.73911" lon="13.0037033"><ele>593.0</ele><time>2026-04-12T11:46:38.433Z</time></trkpt><trkpt lat="42.7391" lon="13.0034267"><ele>593.0</ele><time>2026-04-12T11:46:39.434Z</time></trkpt><trkpt lat="42.739045" lon="13.0031217"><ele>593.5</ele><time>2026-04-12T11:46:40.431Z</time></trkpt><trkpt lat="42.7389883" lon="13.0027983"><ele>594.0</ele><time>2026-04-12T11:46:41.43Z</time></trkpt><trkpt lat="42.7389317" lon="13.0024633"><ele>599.0</ele><time>2026-04-12T11:46:42.435Z</time></trkpt><trkpt lat="42.73888" lon="13.0021433"><ele>604.0</ele><time>2026-04-12T11:46:43.437Z</time></trkpt><trkpt lat="42.7388367" lon="13.0018417"><ele>606.6666666666667</ele><time>2026-04-12T11:46:44.437Z</time></trkpt><trkpt lat="42.7387783" lon="13.001555"><ele>609.3333333333334</ele><time>2026-04-12T11:46:45.432Z</time></trkpt><trkpt lat="42.7386967" lon="13.0012817"><ele>612.0</ele><time>2026-04-12T11:46:46.432Z</time></trkpt><trkpt lat="42.7386267" lon="13.001015"><ele>608.0</ele><time>2026-04-12T11:46:47.431Z</time></trkpt><trkpt lat="42.7385917" lon="13.0007383"><ele>604.0</ele><time>2026-04-12T11:46:48.431Z</time></trkpt><trkpt lat="42.7385767" lon="13.0004583"><ele>600.0</ele><time>2026-04-12T11:46:49.43Z</time></trkpt><trkpt lat="42.73858" lon="13.0001983"><ele>600.0</ele><time>2026-04-12T11:46:50.435Z</time></trkpt><trkpt lat="42.738625" lon="12.9999383"><ele>600.0</ele><time>2026-04-12T11:46:51.43Z</time></trkpt><trkpt lat="42.7387067" lon="12.9996617"><ele>600.0</ele><time>2026-04-12T11:46:52.426Z</time></trkpt><trkpt lat="42.7387883" lon="12.999385"><ele>594.3333333333334</ele><time>2026-04-12T11:46:53.428Z</time></trkpt><trkpt lat="42.73887" lon="12.9991267"><ele>588.6666666666667</ele><time>2026-04-12T11:46:54.434Z</time></trkpt><trkpt lat="42.7389583" lon="12.9988933"><ele>583.0</ele><time>2026-04-12T11:46:55.432Z</time></trkpt><trkpt lat="42.7390517" lon="12.9986833"><ele>583.0</ele><time>2026-04-12T11:46:56.435Z</time></trkpt><trkpt lat="42.7391583" lon="12.9985233"><ele>583.0</ele><time>2026-04-12T11:46:57.429Z</time></trkpt><trkpt lat="42.7392767" lon="12.998425"><ele>583.0</ele><time>2026-04-12T11:46:58.43Z</time></trkpt><trkpt lat="42.7393983" lon="12.9984267"><ele>583.0</ele><time>2026-04-12T11:46:59.43Z</time></trkpt><trkpt lat="42.7395267" lon="12.9985067"><ele>580.6666666666667</ele><time>2026-04-12T11:47:00.43Z</time></trkpt><trkpt lat="42.7396717" lon="12.9986517"><ele>578.3333333333334</ele><time>2026-04-12T11:47:01.433Z</time></trkpt><trkpt lat="42.7398333" lon="12.9988283"><ele>576.0</ele><time>2026-04-12T11:47:02.435Z</time></trkpt><trkpt lat="42.7400183" lon="12.999015"><ele>582.5</ele><time>2026-04-12T11:47:03.426Z</time></trkpt><trkpt lat="42.74023" lon="12.9991883"><ele>589.0</ele><time>2026-04-12T11:47:04.432Z</time></trkpt><trkpt lat="42.740455" lon="12.9993217"><ele>589.0</ele><time>2026-04-12T11:47:05.431Z</time></trkpt><trkpt lat="42.7406833" lon="12.9994183"><ele>589.0</ele><time>2026-04-12T11:47:06.429Z</time></trkpt><trkpt lat="42.74092" lon="12.9994917"><ele>587.5</ele><time>2026-04-12T11:47:07.429Z</time></trkpt><trkpt lat="42.741165" lon="12.99953"><ele>586.0</ele><time>2026-04-12T11:47:08.433Z</time></trkpt><trkpt lat="42.7414183" lon="12.99953"><ele>586.0</ele><time>2026-04-12T11:47:09.43Z</time></trkpt><trkpt lat="42.741675" lon="12.9995017"><ele>586.0</ele><time>2026-04-12T11:47:10.428Z</time></trkpt><trkpt lat="42.7419367" lon="12.9994567"><ele>590.5</ele><time>2026-04-12T11:47:11.432Z</time></trkpt><trkpt lat="42.74219" lon="12.9994033"><ele>595.0</ele><time>2026-04-12T11:47:12.432Z</time></trkpt><trkpt lat="42.7424333" lon="12.9993417"><ele>595.0</ele><time>2026-04-12T11:47:13.435Z</time></trkpt><trkpt lat="42.74266" lon="12.9992667"><ele>595.0</ele><time>2026-04-12T11:47:14.434Z</time></trkpt><trkpt lat="42.7428683" lon="12.9992"><ele>595.0</ele><time>2026-04-12T11:47:15.433Z</time></trkpt><trkpt lat="42.7430583" lon="12.9991717"><ele>594.6666666666667</ele><time>2026-04-12T11:47:16.434Z</time></trkpt><trkpt lat="42.7432317" lon="12.99919"><ele>594.3333333333334</ele><time>2026-04-12T11:47:17.435Z</time></trkpt><trkpt lat="42.7433933" lon="12.999265"><ele>594.0</ele><time>2026-04-12T11:47:18.431Z</time></trkpt><trkpt lat="42.74356" lon="12.9994"><ele>580.5</ele><time>2026-04-12T11:47:19.434Z</time></trkpt><trkpt lat="42.743745" lon="12.9995633"><ele>567.0</ele><time>2026-04-12T11:47:20.438Z</time></trkpt><trkpt lat="42.74394" lon="12.99973"><ele>567.0</ele><time>2026-04-12T11:47:21.432Z</time></trkpt><trkpt lat="42.7441533" lon="12.999925"><ele>567.0</ele><time>2026-04-12T11:47:22.431Z</time></trkpt><trkpt lat="42.7443783" lon="13.0000883"><ele>563.0</ele><time>2026-04-12T11:47:23.432Z</time></trkpt><trkpt lat="42.744605" lon="13.0002183"><ele>559.0</ele><time>2026-04-12T11:47:24.432Z</time></trkpt><trkpt lat="42.744825" lon="13.00031"><ele>559.0</ele><time>2026-04-12T11:47:25.434Z</time></trkpt><trkpt lat="42.7450483" lon="13.0003517"><ele>559.0</ele><time>2026-04-12T11:47:26.431Z</time></trkpt><trkpt lat="42.7452867" lon="13.00034"><ele>558.0</ele><time>2026-04-12T11:47:27.427Z</time></trkpt><trkpt lat="42.7455433" lon="13.0002917"><ele>557.0</ele><time>2026-04-12T11:47:28.432Z</time></trkpt><trkpt lat="42.7458017" lon="13.0002133"><ele>565.0</ele><time>2026-04-12T11:47:29.434Z</time></trkpt><trkpt lat="42.746045" lon="13.00011"><ele>573.0</ele><time>2026-04-12T11:47:30.433Z</time></trkpt><trkpt lat="42.74628" lon="12.999965"><ele>573.0</ele><time>2026-04-12T11:47:31.432Z</time></trkpt><trkpt lat="42.7465083" lon="12.9997883"><ele>573.0</ele><time>2026-04-12T11:47:32.433Z</time></trkpt><trkpt lat="42.746745" lon="12.9996083"><ele>584.5</ele><time>2026-04-12T11:47:33.427Z</time></trkpt><trkpt lat="42.7469933" lon="12.9994533"><ele>596.0</ele><time>2026-04-12T11:47:34.434Z</time></trkpt><trkpt lat="42.7472517" lon="12.9993233"><ele>596.0</ele><time>2026-04-12T11:47:35.433Z</time></trkpt><trkpt lat="42.74752" lon="12.99922"><ele>596.0</ele><time>2026-04-12T11:47:36.432Z</time></trkpt><trkpt lat="42.7477967" lon="12.999125"><ele>581.5</ele><time>2026-04-12T11:47:37.433Z</time></trkpt><trkpt lat="42.748075" lon="12.9990367"><ele>567.0</ele><time>2026-04-12T11:47:38.432Z</time></trkpt><trkpt lat="42.748345" lon="12.9989367"><ele>572.5</ele><time>2026-04-12T11:47:39.429Z</time></trkpt><trkpt lat="42.7485983" lon="12.99884"><ele>578.0</ele><time>2026-04-12T11:47:40.438Z</time></trkpt><trkpt lat="42.7488217" lon="12.998725"><ele>578.0</ele><time>2026-04-12T11:47:41.434Z</time></trkpt><trkpt lat="42.7490133" lon="12.9986017"><ele>578.0</ele><time>2026-04-12T11:47:42.434Z</time></trkpt><trkpt lat="42.7491867" lon="12.998495"><ele>578.0</ele><time>2026-04-12T11:47:43.433Z</time></trkpt><trkpt lat="42.7493433" lon="12.9984217"><ele>576.0</ele><time>2026-04-12T11:47:44.436Z</time></trkpt><trkpt lat="42.7494867" lon="12.9984017"><ele>574.0</ele><time>2026-04-12T11:47:45.432Z</time></trkpt><trkpt lat="42.7496433" lon="12.9984767"><ele>572.0</ele><time>2026-04-12T11:47:46.431Z</time></trkpt><trkpt lat="42.749815" lon="12.998605"><ele>572.0</ele><time>2026-04-12T11:47:47.432Z</time></trkpt><trkpt lat="42.7500117" lon="12.9987517"><ele>572.0</ele><time>2026-04-12T11:47:48.431Z</time></trkpt><trkpt lat="42.7502217" lon="12.998905"><ele>574.0</ele><time>2026-04-12T11:47:49.433Z</time></trkpt><trkpt lat="42.7504333" lon="12.9990633"><ele>576.0</ele><time>2026-04-12T11:47:50.43Z</time></trkpt><trkpt lat="42.7506367" lon="12.999215"><ele>576.0</ele><time>2026-04-12T11:47:51.435Z</time></trkpt><trkpt lat="42.7508167" lon="12.99936"><ele>576.0</ele><time>2026-04-12T11:47:52.43Z</time></trkpt><trkpt lat="42.7509667" lon="12.9995067"><ele>576.0</ele><time>2026-04-12T11:47:53.428Z</time></trkpt><trkpt lat="42.7510717" lon="12.9996783"><ele>567.0</ele><time>2026-04-12T11:47:54.435Z</time></trkpt><trkpt lat="42.751145" lon="12.9998617"><ele>558.0</ele><time>2026-04-12T11:47:55.431Z</time></trkpt><trkpt lat="42.7512117" lon="13.00006"><ele>549.0</ele><time>2026-04-12T11:47:56.43Z</time></trkpt><trkpt lat="42.7512917" lon="13.00027"><ele>549.0</ele><time>2026-04-12T11:47:57.433Z</time></trkpt><trkpt lat="42.7513933" lon="13.000505"><ele>549.0</ele><time>2026-04-12T11:47:58.43Z</time></trkpt><trkpt lat="42.7515083" lon="13.000775"><ele>549.0</ele><time>2026-04-12T11:47:59.432Z</time></trkpt><trkpt lat="42.7516167" lon="13.0010683"><ele>548.0</ele><time>2026-04-12T11:48:00.432Z</time></trkpt><trkpt lat="42.75174" lon="13.0013517"><ele>547.0</ele><time>2026-04-12T11:48:01.43Z</time></trkpt><trkpt lat="42.7518883" lon="13.001625"><ele>547.0</ele><time>2026-04-12T11:48:02.431Z</time></trkpt><trkpt lat="42.752065" lon="13.0018867"><ele>547.0</ele><time>2026-04-12T11:48:03.432Z</time></trkpt><trkpt lat="42.75227" lon="13.0021267"><ele>547.0</ele><time>2026-04-12T11:48:04.433Z</time></trkpt><trkpt lat="42.7524917" lon="13.0023283"><ele>547.0</ele><time>2026-04-12T11:48:05.432Z</time></trkpt><trkpt lat="42.752715" lon="13.00251"><ele>545.5</ele><time>2026-04-12T11:48:06.427Z</time></trkpt><trkpt lat="42.7529383" lon="13.00269"><ele>544.0</ele><time>2026-04-12T11:48:07.432Z</time></trkpt><trkpt lat="42.7531617" lon="13.00288"><ele>544.0</ele><time>2026-04-12T11:48:08.434Z</time></trkpt><trkpt lat="42.75339" lon="13.0030617"><ele>544.0</ele><time>2026-04-12T11:48:09.433Z</time></trkpt><trkpt lat="42.75361" lon="13.003235"><ele>546.5</ele><time>2026-04-12T11:48:10.431Z</time></trkpt><trkpt lat="42.75382" lon="13.0033833"><ele>549.0</ele><time>2026-04-12T11:48:11.431Z</time></trkpt><trkpt lat="42.7540233" lon="13.0035"><ele>549.0</ele><time>2026-04-12T11:48:12.432Z</time></trkpt><trkpt lat="42.7542317" lon="13.003565"><ele>549.0</ele><time>2026-04-12T11:48:13.431Z</time></trkpt><trkpt lat="42.75444" lon="13.0035533"><ele>549.0</ele><time>2026-04-12T11:48:14.434Z</time></trkpt><trkpt lat="42.754655" lon="13.003505"><ele>550.3333333333334</ele><time>2026-04-12T11:48:15.433Z</time></trkpt><trkpt lat="42.7548617" lon="13.003455"><ele>551.6666666666667</ele><time>2026-04-12T11:48:16.437Z</time></trkpt><trkpt lat="42.75507" lon="13.00344"><ele>553.0</ele><time>2026-04-12T11:48:17.434Z</time></trkpt><trkpt lat="42.7552767" lon="13.0034483"><ele>553.0</ele><time>2026-04-12T11:48:18.435Z</time></trkpt><trkpt lat="42.755495" lon="13.00343"><ele>553.0</ele><time>2026-04-12T11:48:19.434Z</time></trkpt><trkpt lat="42.7557333" lon="13.00337"><ele>548.5</ele><time>2026-04-12T11:48:20.432Z</time></trkpt><trkpt lat="42.7559717" lon="13.0032967"><ele>544.0</ele><time>2026-04-12T11:48:21.437Z</time></trkpt><trkpt lat="42.7562017" lon="13.003245"><ele>544.0</ele><time>2026-04-12T11:48:22.432Z</time></trkpt><trkpt lat="42.756415" lon="13.0032333"><ele>544.0</ele><time>2026-04-12T11:48:23.431Z</time></trkpt><trkpt lat="42.7566267" lon="13.003275"><ele>544.0</ele><time>2026-04-12T11:48:24.433Z</time></trkpt><trkpt lat="42.7568267" lon="13.00335"><ele>546.6666666666667</ele><time>2026-04-12T11:48:25.435Z</time></trkpt><trkpt lat="42.7570117" lon="13.0034383"><ele>549.3333333333334</ele><time>2026-04-12T11:48:26.434Z</time></trkpt><trkpt lat="42.7571867" lon="13.0035067"><ele>552.0</ele><time>2026-04-12T11:48:27.435Z</time></trkpt><trkpt lat="42.7573483" lon="13.0035"><ele>552.0</ele><time>2026-04-12T11:48:28.435Z</time></trkpt><trkpt lat="42.7575033" lon="13.003445"><ele>552.0</ele><time>2026-04-12T11:48:29.431Z</time></trkpt><trkpt lat="42.7576383" lon="13.003355"><ele>552.0</ele><time>2026-04-12T11:48:30.43Z</time></trkpt><trkpt lat="42.75776" lon="13.0032667"><ele>552.0</ele><time>2026-04-12T11:48:31.43Z</time></trkpt><trkpt lat="42.7578817" lon="13.0031717"><ele>549.0</ele><time>2026-04-12T11:48:32.429Z</time></trkpt><trkpt lat="42.7580083" lon="13.0030767"><ele>546.0</ele><time>2026-04-12T11:48:33.429Z</time></trkpt><trkpt lat="42.758145" lon="13.0029617"><ele>543.0</ele><time>2026-04-12T11:48:34.431Z</time></trkpt><trkpt lat="42.7583067" lon="13.0028133"><ele>543.0</ele><time>2026-04-12T11:48:35.434Z</time></trkpt><trkpt lat="42.75849" lon="13.0026517"><ele>543.0</ele><time>2026-04-12T11:48:36.433Z</time></trkpt><trkpt lat="42.7586767" lon="13.0024867"><ele>543.0</ele><time>2026-04-12T11:48:37.434Z</time></trkpt><trkpt lat="42.7588667" lon="13.0023217"><ele>543.6666666666666</ele><time>2026-04-12T11:48:38.436Z</time></trkpt><trkpt lat="42.7590617" lon="13.0021833"><ele>544.3333333333333</ele><time>2026-04-12T11:48:39.433Z</time></trkpt><trkpt lat="42.7592517" lon="13.0020683"><ele>545.0</ele><time>2026-04-12T11:48:40.432Z</time></trkpt><trkpt lat="42.759435" lon="13.0019817"><ele>545.0</ele><time>2026-04-12T11:48:41.432Z</time></trkpt><trkpt lat="42.75963" lon="13.0019367"><ele>545.0</ele><time>2026-04-12T11:48:42.431Z</time></trkpt><trkpt lat="42.7598417" lon="13.00193"><ele>545.0</ele><time>2026-04-12T11:48:43.432Z</time></trkpt><trkpt lat="42.7600717" lon="13.0019467"><ele>541.5</ele><time>2026-04-12T11:48:44.432Z</time></trkpt><trkpt lat="42.7603117" lon="13.00197"><ele>538.0</ele><time>2026-04-12T11:48:45.431Z</time></trkpt><trkpt lat="42.7605417" lon="13.0019967"><ele>538.0</ele><time>2026-04-12T11:48:46.433Z</time></trkpt><trkpt lat="42.7607433" lon="13.0020283"><ele>538.0</ele><time>2026-04-12T11:48:47.434Z</time></trkpt><trkpt lat="42.760915" lon="13.0020867"><ele>538.0</ele><time>2026-04-12T11:48:48.429Z</time></trkpt><trkpt lat="42.7610617" lon="13.0021883"><ele>537.0</ele><time>2026-04-12T11:48:49.431Z</time></trkpt><trkpt lat="42.7611733" lon="13.00232"><ele>536.0</ele><time>2026-04-12T11:48:50.436Z</time></trkpt><trkpt lat="42.7612717" lon="13.002505"><ele>535.0</ele><time>2026-04-12T11:48:51.429Z</time></trkpt><trkpt lat="42.7613817" lon="13.0027167"><ele>535.0</ele><time>2026-04-12T11:48:52.431Z</time></trkpt><trkpt lat="42.7615283" lon="13.0029233"><ele>535.0</ele><time>2026-04-12T11:48:53.429Z</time></trkpt><trkpt lat="42.7617" lon="13.00312"><ele>535.0</ele><time>2026-04-12T11:48:54.43Z</time></trkpt><trkpt lat="42.7618833" lon="13.003295"><ele>537.0</ele><time>2026-04-12T11:48:55.439Z</time></trkpt><trkpt lat="42.762075" lon="13.0034317"><ele>539.0</ele><time>2026-04-12T11:48:56.428Z</time></trkpt><trkpt lat="42.7622833" lon="13.00352"><ele>541.0</ele><time>2026-04-12T11:48:57.431Z</time></trkpt><trkpt lat="42.7625033" lon="13.0035333"><ele>544.5</ele><time>2026-04-12T11:48:58.424Z</time></trkpt><trkpt lat="42.7627283" lon="13.0034783"><ele>548.0</ele><time>2026-04-12T11:48:59.43Z</time></trkpt><trkpt lat="42.7629533" lon="13.0033617"><ele>542.3333333333333</ele><time>2026-04-12T11:49:00.432Z</time></trkpt><trkpt lat="42.7631633" lon="13.003235"><ele>536.6666666666666</ele><time>2026-04-12T11:49:01.429Z</time></trkpt><trkpt lat="42.7633467" lon="13.0030883"><ele>531.0</ele><time>2026-04-12T11:49:02.432Z</time></trkpt><trkpt lat="42.7635033" lon="13.002955"><ele>531.0</ele><time>2026-04-12T11:49:03.431Z</time></trkpt><trkpt lat="42.7636433" lon="13.0028483"><ele>531.0</ele><time>2026-04-12T11:49:04.43Z</time></trkpt><trkpt lat="42.763785" lon="13.002805"><ele>531.0</ele><time>2026-04-12T11:49:05.432Z</time></trkpt><trkpt lat="42.7639267" lon="13.0028383"><ele>531.0</ele><time>2026-04-12T11:49:06.429Z</time></trkpt><trkpt lat="42.7640733" lon="13.0029583"><ele>531.0</ele><time>2026-04-12T11:49:07.435Z</time></trkpt><trkpt lat="42.76424" lon="13.0030867"><ele>531.0</ele><time>2026-04-12T11:49:08.432Z</time></trkpt><trkpt lat="42.7644533" lon="13.003185"><ele>531.0</ele><time>2026-04-12T11:49:09.432Z</time></trkpt><trkpt lat="42.7646883" lon="13.0032283"><ele>531.0</ele><time>2026-04-12T11:49:10.429Z</time></trkpt><trkpt lat="42.764945" lon="13.0032583"><ele>531.0</ele><time>2026-04-12T11:49:11.431Z</time></trkpt><trkpt lat="42.7652033" lon="13.003295"><ele>529.0</ele><time>2026-04-12T11:49:12.434Z</time></trkpt><trkpt lat="42.7654583" lon="13.0033217"><ele>527.0</ele><time>2026-04-12T11:49:13.433Z</time></trkpt><trkpt lat="42.7657067" lon="13.0033017"><ele>527.0</ele><time>2026-04-12T11:49:14.43Z</time></trkpt><trkpt lat="42.76596" lon="13.00323"><ele>527.0</ele><time>2026-04-12T11:49:15.43Z</time></trkpt><trkpt lat="42.7662067" lon="13.0031317"><ele>527.0</ele><time>2026-04-12T11:49:16.431Z</time></trkpt><trkpt lat="42.7664517" lon="13.0030517"><ele>527.0</ele><time>2026-04-12T11:49:17.432Z</time></trkpt><trkpt lat="42.7667033" lon="13.00302"><ele>526.5</ele><time>2026-04-12T11:49:18.433Z</time></trkpt><trkpt lat="42.7669567" lon="13.003025"><ele>526.0</ele><time>2026-04-12T11:49:19.433Z</time></trkpt><trkpt lat="42.767215" lon="13.003065"><ele>526.0</ele><time>2026-04-12T11:49:20.434Z</time></trkpt><trkpt lat="42.7674767" lon="13.0031317"><ele>526.0</ele><time>2026-04-12T11:49:21.434Z</time></trkpt><trkpt lat="42.7677433" lon="13.00319"><ele>529.0</ele><time>2026-04-12T11:49:22.432Z</time></trkpt><trkpt lat="42.767995" lon="13.0032417"><ele>532.0</ele><time>2026-04-12T11:49:23.431Z</time></trkpt><trkpt lat="42.76823" lon="13.0032833"><ele>532.3333333333334</ele><time>2026-04-12T11:49:24.433Z</time></trkpt><trkpt lat="42.76843" lon="13.0033367"><ele>532.6666666666666</ele><time>2026-04-12T11:49:25.435Z</time></trkpt><trkpt lat="42.7686" lon="13.0034467"><ele>533.0</ele><time>2026-04-12T11:49:26.433Z</time></trkpt><trkpt lat="42.7687417" lon="13.0035967"><ele>533.6666666666666</ele><time>2026-04-12T11:49:27.432Z</time></trkpt><trkpt lat="42.7688583" lon="13.0038083"><ele>534.3333333333334</ele><time>2026-04-12T11:49:28.429Z</time></trkpt><trkpt lat="42.7689717" lon="13.0040417"><ele>535.0</ele><time>2026-04-12T11:49:29.427Z</time></trkpt><trkpt lat="42.7691133" lon="13.004265"><ele>535.0</ele><time>2026-04-12T11:49:30.434Z</time></trkpt><trkpt lat="42.76929" lon="13.00446"><ele>535.0</ele><time>2026-04-12T11:49:31.43Z</time></trkpt><trkpt lat="42.769485" lon="13.0046383"><ele>531.5</ele><time>2026-04-12T11:49:32.428Z</time></trkpt><trkpt lat="42.7696883" lon="13.0047883"><ele>528.0</ele><time>2026-04-12T11:49:33.433Z</time></trkpt><trkpt lat="42.76991" lon="13.0048767"><ele>528.0</ele><time>2026-04-12T11:49:34.434Z</time></trkpt><trkpt lat="42.7701167" lon="13.0049483"><ele>528.0</ele><time>2026-04-12T11:49:35.436Z</time></trkpt><trkpt lat="42.770315" lon="13.0050183"><ele>528.0</ele><time>2026-04-12T11:49:36.434Z</time></trkpt><trkpt lat="42.7704983" lon="13.005105"><ele>528.0</ele><time>2026-04-12T11:49:37.433Z</time></trkpt><trkpt lat="42.7706633" lon="13.0052133"><ele>528.0</ele><time>2026-04-12T11:49:38.436Z</time></trkpt><trkpt lat="42.770805" lon="13.005365"><ele>528.0</ele><time>2026-04-12T11:49:39.431Z</time></trkpt><trkpt lat="42.7709067" lon="13.005575"><ele>528.0</ele><time>2026-04-12T11:49:40.431Z</time></trkpt><trkpt lat="42.77097" lon="13.00582"><ele>528.0</ele><time>2026-04-12T11:49:41.431Z</time></trkpt><trkpt lat="42.77099" lon="13.006125"><ele>528.0</ele><time>2026-04-12T11:49:42.431Z</time></trkpt><trkpt lat="42.7710017" lon="13.00644"><ele>525.5</ele><time>2026-04-12T11:49:43.43Z</time></trkpt><trkpt lat="42.7710217" lon="13.0067617"><ele>523.0</ele><time>2026-04-12T11:49:44.434Z</time></trkpt><trkpt lat="42.7710583" lon="13.0070833"><ele>523.0</ele><time>2026-04-12T11:49:45.432Z</time></trkpt><trkpt lat="42.77112" lon="13.0074017"><ele>523.0</ele><time>2026-04-12T11:49:46.436Z</time></trkpt><trkpt lat="42.7712" lon="13.0076817"><ele>523.0</ele><time>2026-04-12T11:49:47.432Z</time></trkpt><trkpt lat="42.7713017" lon="13.007935"><ele>523.0</ele><time>2026-04-12T11:49:48.433Z</time></trkpt><trkpt lat="42.77142" lon="13.0081567"><ele>523.0</ele><time>2026-04-12T11:49:49.428Z</time></trkpt><trkpt lat="42.77156" lon="13.0083333"><ele>524.0</ele><time>2026-04-12T11:49:50.431Z</time></trkpt><trkpt lat="42.7717283" lon="13.0084533"><ele>525.0</ele><time>2026-04-12T11:49:51.429Z</time></trkpt><trkpt lat="42.7719317" lon="13.0085033"><ele>526.0</ele><time>2026-04-12T11:49:52.432Z</time></trkpt><trkpt lat="42.772175" lon="13.0085017"><ele>526.0</ele><time>2026-04-12T11:49:53.435Z</time></trkpt><trkpt lat="42.7724167" lon="13.0084917"><ele>526.0</ele><time>2026-04-12T11:49:54.436Z</time></trkpt><trkpt lat="42.772655" lon="13.008485"><ele>524.5</ele><time>2026-04-12T11:49:55.433Z</time></trkpt><trkpt lat="42.7728817" lon="13.0085183"><ele>523.0</ele><time>2026-04-12T11:49:56.433Z</time></trkpt><trkpt lat="42.7731117" lon="13.008585"><ele>523.0</ele><time>2026-04-12T11:49:57.434Z</time></trkpt><trkpt lat="42.7733467" lon="13.0086717"><ele>523.0</ele><time>2026-04-12T11:49:58.435Z</time></trkpt><trkpt lat="42.773585" lon="13.0087633"><ele>522.0</ele><time>2026-04-12T11:49:59.43Z</time></trkpt><trkpt lat="42.773815" lon="13.0088783"><ele>521.0</ele><time>2026-04-12T11:50:00.433Z</time></trkpt><trkpt lat="42.7740217" lon="13.0089833"><ele>521.0</ele><time>2026-04-12T11:50:01.431Z</time></trkpt><trkpt lat="42.7741983" lon="13.0090717"><ele>521.0</ele><time>2026-04-12T11:50:02.434Z</time></trkpt><trkpt lat="42.77435" lon="13.0091867"><ele>521.0</ele><time>2026-04-12T11:50:03.435Z</time></trkpt><trkpt lat="42.7744617" lon="13.0093283"><ele>520.6666666666666</ele><time>2026-04-12T11:50:04.43Z</time></trkpt><trkpt lat="42.7745133" lon="13.0095067"><ele>520.3333333333334</ele><time>2026-04-12T11:50:05.432Z</time></trkpt><trkpt lat="42.7745083" lon="13.0097183"><ele>520.0</ele><time>2026-04-12T11:50:06.434Z</time></trkpt><trkpt lat="42.7744617" lon="13.00997"><ele>519.5</ele><time>2026-04-12T11:50:07.431Z</time></trkpt><trkpt lat="42.7744033" lon="13.01025"><ele>519.0</ele><time>2026-04-12T11:50:08.434Z</time></trkpt><trkpt lat="42.7743367" lon="13.0105617"><ele>526.5</ele><time>2026-04-12T11:50:09.427Z</time></trkpt><trkpt lat="42.7742683" lon="13.010885"><ele>534.0</ele><time>2026-04-12T11:50:10.434Z</time></trkpt><trkpt lat="42.7742033" lon="13.0112083"><ele>534.0</ele><time>2026-04-12T11:50:11.433Z</time></trkpt><trkpt lat="42.7741433" lon="13.0115383"><ele>534.0</ele><time>2026-04-12T11:50:12.433Z</time></trkpt><trkpt lat="42.7741017" lon="13.0118817"><ele>532.0</ele><time>2026-04-12T11:50:13.436Z</time></trkpt><trkpt lat="42.7740933" lon="13.01222"><ele>530.0</ele><time>2026-04-12T11:50:14.433Z</time></trkpt><trkpt lat="42.77412" lon="13.0125583"><ele>529.5</ele><time>2026-04-12T11:50:15.434Z</time></trkpt><trkpt lat="42.7741833" lon="13.01289"><ele>529.0</ele><time>2026-04-12T11:50:16.431Z</time></trkpt><trkpt lat="42.7742667" lon="13.0132233"><ele>523.0</ele><time>2026-04-12T11:50:17.431Z</time></trkpt><trkpt lat="42.77437" lon="13.0135533"><ele>517.0</ele><time>2026-04-12T11:50:18.427Z</time></trkpt><trkpt lat="42.7744933" lon="13.0138667"><ele>517.5</ele><time>2026-04-12T11:50:19.437Z</time></trkpt><trkpt lat="42.774635" lon="13.01417"><ele>518.0</ele><time>2026-04-12T11:50:20.431Z</time></trkpt><trkpt lat="42.77479" lon="13.01447"><ele>518.0</ele><time>2026-04-12T11:50:21.432Z</time></trkpt><trkpt lat="42.7749467" lon="13.0147667"><ele>518.0</ele><time>2026-04-12T11:50:22.432Z</time></trkpt><trkpt lat="42.7750867" lon="13.0150633"><ele>516.5</ele><time>2026-04-12T11:50:23.434Z</time></trkpt><trkpt lat="42.775215" lon="13.0153583"><ele>515.0</ele><time>2026-04-12T11:50:24.432Z</time></trkpt><trkpt lat="42.775335" lon="13.0156367"><ele>515.3333333333333</ele><time>2026-04-12T11:50:25.434Z</time></trkpt><trkpt lat="42.775455" lon="13.0158967"><ele>515.6666666666666</ele><time>2026-04-12T11:50:26.435Z</time></trkpt><trkpt lat="42.7755867" lon="13.016125"><ele>516.0</ele><time>2026-04-12T11:50:27.435Z</time></trkpt><trkpt lat="42.7757517" lon="13.01631"><ele>516.0</ele><time>2026-04-12T11:50:28.435Z</time></trkpt><trkpt lat="42.7759617" lon="13.0164383"><ele>516.0</ele><time>2026-04-12T11:50:29.433Z</time></trkpt><trkpt lat="42.7761967" lon="13.0165133"><ele>515.3333333333334</ele><time>2026-04-12T11:50:30.432Z</time></trkpt><trkpt lat="42.7764267" lon="13.0165483"><ele>514.6666666666667</ele><time>2026-04-12T11:50:31.433Z</time></trkpt><trkpt lat="42.776635" lon="13.0165433"><ele>514.0</ele><time>2026-04-12T11:50:32.432Z</time></trkpt><trkpt lat="42.7768183" lon="13.0165167"><ele>514.0</ele><time>2026-04-12T11:50:33.432Z</time></trkpt><trkpt lat="42.7769883" lon="13.0165233"><ele>514.0</ele><time>2026-04-12T11:50:34.43Z</time></trkpt><trkpt lat="42.7771367" lon="13.0165967"><ele>514.0</ele><time>2026-04-12T11:50:35.428Z</time></trkpt><trkpt lat="42.7772783" lon="13.0167567"><ele>514.6666666666667</ele><time>2026-04-12T11:50:36.43Z</time></trkpt><trkpt lat="42.7774267" lon="13.0169567"><ele>515.3333333333334</ele><time>2026-04-12T11:50:37.431Z</time></trkpt><trkpt lat="42.7775883" lon="13.0171533"><ele>516.0</ele><time>2026-04-12T11:50:38.433Z</time></trkpt><trkpt lat="42.77778" lon="13.0173417"><ele>519.5</ele><time>2026-04-12T11:50:39.434Z</time></trkpt><trkpt lat="42.77798" lon="13.017525"><ele>523.0</ele><time>2026-04-12T11:50:40.429Z</time></trkpt><trkpt lat="42.7781933" lon="13.017705"><ele>523.0</ele><time>2026-04-12T11:50:41.432Z</time></trkpt><trkpt lat="42.7784" lon="13.0178883"><ele>523.0</ele><time>2026-04-12T11:50:42.432Z</time></trkpt><trkpt lat="42.7785883" lon="13.0180817"><ele>522.0</ele><time>2026-04-12T11:50:43.433Z</time></trkpt><trkpt lat="42.77877" lon="13.0182983"><ele>521.0</ele><time>2026-04-12T11:50:44.435Z</time></trkpt><trkpt lat="42.778945" lon="13.0185417"><ele>517.0</ele><time>2026-04-12T11:50:45.432Z</time></trkpt><trkpt lat="42.7791283" lon="13.0187933"><ele>513.0</ele><time>2026-04-12T11:50:46.433Z</time></trkpt><trkpt lat="42.7793283" lon="13.019025"><ele>513.0</ele><time>2026-04-12T11:50:47.432Z</time></trkpt><trkpt lat="42.779535" lon="13.0192317"><ele>513.0</ele><time>2026-04-12T11:50:48.429Z</time></trkpt><trkpt lat="42.7797417" lon="13.0194117"><ele>513.0</ele><time>2026-04-12T11:50:49.429Z</time></trkpt><trkpt lat="42.779945" lon="13.0195783"><ele>513.0</ele><time>2026-04-12T11:50:50.433Z</time></trkpt><trkpt lat="42.7801367" lon="13.019765"><ele>509.5</ele><time>2026-04-12T11:50:51.43Z</time></trkpt><trkpt lat="42.7803167" lon="13.0199883"><ele>506.0</ele><time>2026-04-12T11:50:52.431Z</time></trkpt><trkpt lat="42.780485" lon="13.0202467"><ele>506.0</ele><time>2026-04-12T11:50:53.431Z</time></trkpt><trkpt lat="42.7806467" lon="13.0205167"><ele>506.0</ele><time>2026-04-12T11:50:54.433Z</time></trkpt><trkpt lat="42.7808017" lon="13.0207767"><ele>508.0</ele><time>2026-04-12T11:50:55.431Z</time></trkpt><trkpt lat="42.780945" lon="13.02102"><ele>510.0</ele><time>2026-04-12T11:50:56.432Z</time></trkpt><trkpt lat="42.7810917" lon="13.021245"><ele>510.0</ele><time>2026-04-12T11:50:57.428Z</time></trkpt><trkpt lat="42.7812367" lon="13.0214483"><ele>510.0</ele><time>2026-04-12T11:50:58.428Z</time></trkpt><trkpt lat="42.781395" lon="13.0216267"><ele>510.0</ele><time>2026-04-12T11:50:59.429Z</time></trkpt><trkpt lat="42.7815867" lon="13.0217767"><ele>509.5</ele><time>2026-04-12T11:51:00.439Z</time></trkpt><trkpt lat="42.7818" lon="13.021925"><ele>509.0</ele><time>2026-04-12T11:51:01.428Z</time></trkpt><trkpt lat="42.7820233" lon="13.0220767"><ele>509.0</ele><time>2026-04-12T11:51:02.428Z</time></trkpt><trkpt lat="42.7822333" lon="13.022235"><ele>509.0</ele><time>2026-04-12T11:51:03.429Z</time></trkpt><trkpt lat="42.7824433" lon="13.0223783"><ele>509.5</ele><time>2026-04-12T11:51:04.432Z</time></trkpt><trkpt lat="42.7826533" lon="13.0225117"><ele>510.0</ele><time>2026-04-12T11:51:05.429Z</time></trkpt><trkpt lat="42.78287" lon="13.0226383"><ele>510.0</ele><time>2026-04-12T11:51:06.43Z</time></trkpt><trkpt lat="42.7831" lon="13.0227317"><ele>510.0</ele><time>2026-04-12T11:51:07.432Z</time></trkpt><trkpt lat="42.7833333" lon="13.0227967"><ele>508.5</ele><time>2026-04-12T11:51:08.431Z</time></trkpt><trkpt lat="42.78356" lon="13.0228233"><ele>507.0</ele><time>2026-04-12T11:51:09.433Z</time></trkpt><trkpt lat="42.7837833" lon="13.0228433"><ele>507.0</ele><time>2026-04-12T11:51:10.43Z</time></trkpt><trkpt lat="42.7839883" lon="13.0228483"><ele>507.0</ele><time>2026-04-12T11:51:11.431Z</time></trkpt><trkpt lat="42.7841817" lon="13.0228367"><ele>507.0</ele><time>2026-04-12T11:51:12.432Z</time></trkpt><trkpt lat="42.7843583" lon="13.0227967"><ele>506.0</ele><time>2026-04-12T11:51:13.433Z</time></trkpt><trkpt lat="42.7845267" lon="13.0227683"><ele>505.0</ele><time>2026-04-12T11:51:14.433Z</time></trkpt><trkpt lat="42.784685" lon="13.022745"><ele>504.0</ele><time>2026-04-12T11:51:15.434Z</time></trkpt><trkpt lat="42.7848317" lon="13.0227183"><ele>504.0</ele><time>2026-04-12T11:51:16.433Z</time></trkpt><trkpt lat="42.7849667" lon="13.0226967"><ele>504.0</ele><time>2026-04-12T11:51:17.431Z</time></trkpt><trkpt lat="42.78509" lon="13.0226783"><ele>504.0</ele><time>2026-04-12T11:51:18.432Z</time></trkpt><trkpt lat="42.7852033" lon="13.02266"><ele>504.0</ele><time>2026-04-12T11:51:19.433Z</time></trkpt><trkpt lat="42.78531" lon="13.022645"><ele>507.0</ele><time>2026-04-12T11:51:20.432Z</time></trkpt><trkpt lat="42.7854067" lon="13.0226317"><ele>510.0</ele><time>2026-04-12T11:51:21.43Z</time></trkpt><trkpt lat="42.7854933" lon="13.02262"><ele>513.0</ele><time>2026-04-12T11:51:22.43Z</time></trkpt><trkpt lat="42.7855667" lon="13.02261"><ele>516.0</ele><time>2026-04-12T11:51:23.431Z</time></trkpt><trkpt lat="42.7856783" lon="13.022585"><ele>519.0</ele><time>2026-04-12T11:51:25.428Z</time></trkpt><trkpt lat="42.7857633" lon="13.02252"><ele>519.0</ele><time>2026-04-12T11:51:27.434Z</time></trkpt><trkpt lat="42.785765" lon="13.022375"><ele>519.0</ele><time>2026-04-12T11:51:29.434Z</time></trkpt><trkpt lat="42.7857383" lon="13.0222067"><ele>519.0</ele><time>2026-04-12T11:51:30.432Z</time></trkpt><trkpt lat="42.7857117" lon="13.0220233"><ele>519.0</ele><time>2026-04-12T11:51:31.43Z</time></trkpt><trkpt lat="42.785695" lon="13.0218367"><ele>516.5</ele><time>2026-04-12T11:51:32.436Z</time></trkpt><trkpt lat="42.7856817" lon="13.0216467"><ele>514.0</ele><time>2026-04-12T11:51:33.434Z</time></trkpt><trkpt lat="42.78568" lon="13.0214533"><ele>511.5</ele><time>2026-04-12T11:51:34.433Z</time></trkpt><trkpt lat="42.785695" lon="13.0212733"><ele>509.0</ele><time>2026-04-12T11:51:35.434Z</time></trkpt><trkpt lat="42.7857467" lon="13.0211033"><ele>509.0</ele><time>2026-04-12T11:51:36.436Z</time></trkpt><trkpt lat="42.7858317" lon="13.02096"><ele>509.0</ele><time>2026-04-12T11:51:37.438Z</time></trkpt><trkpt lat="42.7859383" lon="13.020815"><ele>509.0</ele><time>2026-04-12T11:51:38.435Z</time></trkpt><trkpt lat="42.786055" lon="13.020665"><ele>509.0</ele><time>2026-04-12T11:51:39.434Z</time></trkpt><trkpt lat="42.7861767" lon="13.02054"><ele>507.0</ele><time>2026-04-12T11:51:40.433Z</time></trkpt><trkpt lat="42.7863133" lon="13.0204667"><ele>505.0</ele><time>2026-04-12T11:51:41.43Z</time></trkpt><trkpt lat="42.7864733" lon="13.0204583"><ele>503.0</ele><time>2026-04-12T11:51:42.433Z</time></trkpt><trkpt lat="42.7866533" lon="13.0204933"><ele>502.3333333333333</ele><time>2026-04-12T11:51:43.436Z</time></trkpt><trkpt lat="42.78685" lon="13.0205217"><ele>501.66666666666663</ele><time>2026-04-12T11:51:44.431Z</time></trkpt><trkpt lat="42.7870717" lon="13.020525"><ele>501.0</ele><time>2026-04-12T11:51:45.433Z</time></trkpt><trkpt lat="42.78731" lon="13.0205283"><ele>501.0</ele><time>2026-04-12T11:51:46.433Z</time></trkpt><trkpt lat="42.78756" lon="13.02051"><ele>501.0</ele><time>2026-04-12T11:51:47.432Z</time></trkpt><trkpt lat="42.7878067" lon="13.020445"><ele>500.66666666666663</ele><time>2026-04-12T11:51:48.431Z</time></trkpt><trkpt lat="42.788035" lon="13.02038"><ele>500.3333333333333</ele><time>2026-04-12T11:51:49.432Z</time></trkpt><trkpt lat="42.7882383" lon="13.020335"><ele>500.0</ele><time>2026-04-12T11:51:50.436Z</time></trkpt><trkpt lat="42.7884283" lon="13.020295"><ele>510.0</ele><time>2026-04-12T11:51:51.437Z</time></trkpt><trkpt lat="42.7886" lon="13.0202317"><ele>520.0</ele><time>2026-04-12T11:51:52.434Z</time></trkpt><trkpt lat="42.7887533" lon="13.0201667"><ele>530.0</ele><time>2026-04-12T11:51:53.431Z</time></trkpt><trkpt lat="42.7888833" lon="13.0200667"><ele>526.25</ele><time>2026-04-12T11:51:54.431Z</time></trkpt><trkpt lat="42.7889883" lon="13.019945"><ele>522.5</ele><time>2026-04-12T11:51:55.431Z</time></trkpt><trkpt lat="42.7890733" lon="13.019805"><ele>518.75</ele><time>2026-04-12T11:51:56.435Z</time></trkpt><trkpt lat="42.7891383" lon="13.0196633"><ele>515.0</ele><time>2026-04-12T11:51:57.43Z</time></trkpt><trkpt lat="42.789185" lon="13.0195117"><ele>515.0</ele><time>2026-04-12T11:51:58.433Z</time></trkpt><trkpt lat="42.7892167" lon="13.0193433"><ele>515.0</ele><time>2026-04-12T11:51:59.433Z</time></trkpt><trkpt lat="42.7892283" lon="13.0191517"><ele>515.0</ele><time>2026-04-12T11:52:00.431Z</time></trkpt><trkpt lat="42.7892217" lon="13.0189533"><ele>515.0</ele><time>2026-04-12T11:52:01.43Z</time></trkpt><trkpt lat="42.7891983" lon="13.0187467"><ele>514.6666666666666</ele><time>2026-04-12T11:52:02.438Z</time></trkpt><trkpt lat="42.7891683" lon="13.01854"><ele>514.3333333333334</ele><time>2026-04-12T11:52:03.437Z</time></trkpt><trkpt lat="42.789135" lon="13.018325"><ele>514.0</ele><time>2026-04-12T11:52:04.432Z</time></trkpt><trkpt lat="42.7890967" lon="13.01812"><ele>512.0</ele><time>2026-04-12T11:52:05.432Z</time></trkpt><trkpt lat="42.7890517" lon="13.0179217"><ele>510.0</ele><time>2026-04-12T11:52:06.432Z</time></trkpt><trkpt lat="42.7889983" lon="13.017725"><ele>508.0</ele><time>2026-04-12T11:52:07.43Z</time></trkpt><trkpt lat="42.7889517" lon="13.0175333"><ele>506.5</ele><time>2026-04-12T11:52:08.436Z</time></trkpt><trkpt lat="42.7889167" lon="13.0173567"><ele>505.0</ele><time>2026-04-12T11:52:09.432Z</time></trkpt><trkpt lat="42.7888967" lon="13.0171833"><ele>503.5</ele><time>2026-04-12T11:52:10.429Z</time></trkpt><trkpt lat="42.7888883" lon="13.0170033"><ele>502.0</ele><time>2026-04-12T11:52:11.432Z</time></trkpt><trkpt lat="42.7888833" lon="13.0168083"><ele>501.0</ele><time>2026-04-12T11:52:12.433Z</time></trkpt><trkpt lat="42.7888867" lon="13.0166017"><ele>500.0</ele><time>2026-04-12T11:52:13.434Z</time></trkpt><trkpt lat="42.7889033" lon="13.0163933"><ele>499.0</ele><time>2026-04-12T11:52:14.434Z</time></trkpt><trkpt lat="42.7889333" lon="13.0161933"><ele>499.0</ele><time>2026-04-12T11:52:15.43Z</time></trkpt><trkpt lat="42.78898" lon="13.016005"><ele>499.0</ele><time>2026-04-12T11:52:16.432Z</time></trkpt><trkpt lat="42.7890383" lon="13.0158283"><ele>499.0</ele><time>2026-04-12T11:52:17.431Z</time></trkpt><trkpt lat="42.7891083" lon="13.0156633"><ele>499.0</ele><time>2026-04-12T11:52:18.432Z</time></trkpt><trkpt lat="42.7891933" lon="13.0155083"><ele>498.5</ele><time>2026-04-12T11:52:19.434Z</time></trkpt><trkpt lat="42.789295" lon="13.015365"><ele>498.0</ele><time>2026-04-12T11:52:20.432Z</time></trkpt><trkpt lat="42.78941" lon="13.0152383"><ele>497.5</ele><time>2026-04-12T11:52:21.431Z</time></trkpt><trkpt lat="42.78953" lon="13.0151283"><ele>497.0</ele><time>2026-04-12T11:52:22.432Z</time></trkpt><trkpt lat="42.7896483" lon="13.0150267"><ele>496.25</ele><time>2026-04-12T11:52:23.431Z</time></trkpt><trkpt lat="42.7897633" lon="13.0149233"><ele>495.5</ele><time>2026-04-12T11:52:24.429Z</time></trkpt><trkpt lat="42.7898767" lon="13.0148117"><ele>494.75</ele><time>2026-04-12T11:52:25.432Z</time></trkpt><trkpt lat="42.78999" lon="13.0146767"><ele>494.0</ele><time>2026-04-12T11:52:26.441Z</time></trkpt><trkpt lat="42.7900967" lon="13.01453"><ele>495.3333333333333</ele><time>2026-04-12T11:52:27.432Z</time></trkpt><trkpt lat="42.7901867" lon="13.0143683"><ele>496.66666666666663</ele><time>2026-04-12T11:52:28.432Z</time></trkpt><trkpt lat="42.7902633" lon="13.0141967"><ele>498.0</ele><time>2026-04-12T11:52:29.434Z</time></trkpt><trkpt lat="42.79033" lon="13.0139933"><ele>500.33333333333337</ele><time>2026-04-12T11:52:30.434Z</time></trkpt><trkpt lat="42.7903867" lon="13.0137433"><ele>502.6666666666667</ele><time>2026-04-12T11:52:31.432Z</time></trkpt><trkpt lat="42.7904333" lon="13.0134333"><ele>505.0</ele><time>2026-04-12T11:52:32.433Z</time></trkpt><trkpt lat="42.7904833" lon="13.0130567"><ele>507.0</ele><time>2026-04-12T11:52:33.431Z</time></trkpt><trkpt lat="42.7905417" lon="13.0126567"><ele>509.0</ele><time>2026-04-12T11:52:34.429Z</time></trkpt><trkpt lat="42.7906083" lon="13.01228"><ele>509.0</ele><time>2026-04-12T11:52:35.433Z</time></trkpt><trkpt lat="42.7906733" lon="13.0119217"><ele>509.0</ele><time>2026-04-12T11:52:36.433Z</time></trkpt><trkpt lat="42.7907483" lon="13.0115783"><ele>503.0</ele><time>2026-04-12T11:52:37.43Z</time></trkpt><trkpt lat="42.7908317" lon="13.0112617"><ele>497.0</ele><time>2026-04-12T11:52:38.434Z</time></trkpt><trkpt lat="42.79092" lon="13.010955"><ele>507.0</ele><time>2026-04-12T11:52:39.433Z</time></trkpt><trkpt lat="42.791025" lon="13.0106467"><ele>517.0</ele><time>2026-04-12T11:52:40.432Z</time></trkpt><trkpt lat="42.791145" lon="13.0103433"><ele>517.0</ele><time>2026-04-12T11:52:41.433Z</time></trkpt><trkpt lat="42.791275" lon="13.010055"><ele>517.0</ele><time>2026-04-12T11:52:42.435Z</time></trkpt><trkpt lat="42.7914017" lon="13.0097767"><ele>511.5</ele><time>2026-04-12T11:52:43.433Z</time></trkpt><trkpt lat="42.791515" lon="13.0095017"><ele>506.0</ele><time>2026-04-12T11:52:44.434Z</time></trkpt><trkpt lat="42.7916133" lon="13.009215"><ele>508.0</ele><time>2026-04-12T11:52:45.433Z</time></trkpt><trkpt lat="42.79169" lon="13.0089233"><ele>510.0</ele><time>2026-04-12T11:52:46.432Z</time></trkpt><trkpt lat="42.791745" lon="13.0086167"><ele>513.0</ele><time>2026-04-12T11:52:47.431Z</time></trkpt><trkpt lat="42.7917867" lon="13.0082833"><ele>516.0</ele><time>2026-04-12T11:52:48.432Z</time></trkpt><trkpt lat="42.791825" lon="13.0079433"><ele>544.5</ele><time>2026-04-12T11:52:49.431Z</time></trkpt><trkpt lat="42.79186" lon="13.0075983"><ele>573.0</ele><time>2026-04-12T11:52:50.431Z</time></trkpt><trkpt lat="42.79189" lon="13.0072433"><ele>577.5</ele><time>2026-04-12T11:52:51.433Z</time></trkpt><trkpt lat="42.7919317" lon="13.0068917"><ele>582.0</ele><time>2026-04-12T11:52:52.442Z</time></trkpt><trkpt lat="42.7919833" lon="13.0065233"><ele>582.0</ele><time>2026-04-12T11:52:53.431Z</time></trkpt><trkpt lat="42.79203" lon="13.0061583"><ele>582.0</ele><time>2026-04-12T11:52:54.429Z</time></trkpt><trkpt lat="42.79217" lon="13.0036667"><ele>557.5</ele><time>2026-04-12T11:53:01.431Z</time></trkpt><trkpt lat="42.7922017" lon="13.0033383"><ele>533.0</ele><time>2026-04-12T11:53:02.426Z</time></trkpt><trkpt lat="42.7921783" lon="13.0030033"><ele>533.0</ele><time>2026-04-12T11:53:03.431Z</time></trkpt><trkpt lat="42.7921383" lon="13.0026633"><ele>533.0</ele><time>2026-04-12T11:53:04.43Z</time></trkpt><trkpt lat="42.792095" lon="13.0023367"><ele>549.5</ele><time>2026-04-12T11:53:05.43Z</time></trkpt><trkpt lat="42.7920533" lon="13.0020083"><ele>566.0</ele><time>2026-04-12T11:53:06.427Z</time></trkpt><trkpt lat="42.7920083" lon="13.00168"><ele>593.5</ele><time>2026-04-12T11:53:07.431Z</time></trkpt><trkpt lat="42.7919633" lon="13.00134"><ele>621.0</ele><time>2026-04-12T11:53:08.43Z</time></trkpt><trkpt lat="42.7919183" lon="13.0009917"><ele>622.0</ele><time>2026-04-12T11:53:09.429Z</time></trkpt><trkpt lat="42.791875" lon="13.0006383"><ele>623.0</ele><time>2026-04-12T11:53:10.433Z</time></trkpt><trkpt lat="42.7918333" lon="13.0002733"><ele>623.0</ele><time>2026-04-12T11:53:11.432Z</time></trkpt><trkpt lat="42.7917867" lon="12.9999083"><ele>623.0</ele><time>2026-04-12T11:53:12.432Z</time></trkpt><trkpt lat="42.7909867" lon="12.9935433"><ele>552.0</ele><time>2026-04-12T11:53:28.428Z</time></trkpt><trkpt lat="42.7909367" lon="12.99319"><ele>481.0</ele><time>2026-04-12T11:53:29.43Z</time></trkpt><trkpt lat="42.7908883" lon="12.9928583"><ele>481.0</ele><time>2026-04-12T11:53:30.429Z</time></trkpt><trkpt lat="42.7908467" lon="12.9925183"><ele>481.0</ele><time>2026-04-12T11:53:31.43Z</time></trkpt><trkpt lat="42.7908083" lon="12.9921717"><ele>480.0</ele><time>2026-04-12T11:53:32.435Z</time></trkpt><trkpt lat="42.7907717" lon="12.9918117"><ele>479.0</ele><time>2026-04-12T11:53:33.436Z</time></trkpt><trkpt lat="42.79073" lon="12.991445"><ele>479.0</ele><time>2026-04-12T11:53:34.435Z</time></trkpt><trkpt lat="42.7906883" lon="12.99107"><ele>479.0</ele><time>2026-04-12T11:53:35.435Z</time></trkpt><trkpt lat="42.7906483" lon="12.9906933"><ele>484.0</ele><time>2026-04-12T11:53:36.433Z</time></trkpt><trkpt lat="42.790605" lon="12.9903117"><ele>489.0</ele><time>2026-04-12T11:53:37.433Z</time></trkpt><trkpt lat="42.7905617" lon="12.9899317"><ele>494.0</ele><time>2026-04-12T11:53:38.437Z</time></trkpt><trkpt lat="42.7905167" lon="12.989555"><ele>499.0</ele><time>2026-04-12T11:53:39.431Z</time></trkpt><trkpt lat="42.7904733" lon="12.9891783"><ele>494.5</ele><time>2026-04-12T11:53:40.433Z</time></trkpt><trkpt lat="42.7904283" lon="12.9888017"><ele>490.0</ele><time>2026-04-12T11:53:41.432Z</time></trkpt><trkpt lat="42.7903867" lon="12.9884283"><ele>487.0</ele><time>2026-04-12T11:53:42.432Z</time></trkpt><trkpt lat="42.790345" lon="12.9880683"><ele>484.0</ele><time>2026-04-12T11:53:43.432Z</time></trkpt><trkpt lat="42.7903067" lon="12.9877283"><ele>489.6666666666667</ele><time>2026-04-12T11:53:44.433Z</time></trkpt><trkpt lat="42.7902717" lon="12.987415"><ele>495.33333333333337</ele><time>2026-04-12T11:53:45.434Z</time></trkpt><trkpt lat="42.79026" lon="12.9871317"><ele>501.0</ele><time>2026-04-12T11:53:46.43Z</time></trkpt><trkpt lat="42.7902817" lon="12.9868733"><ele>501.66666666666663</ele><time>2026-04-12T11:53:47.449Z</time></trkpt><trkpt lat="42.7903433" lon="12.986645"><ele>502.3333333333333</ele><time>2026-04-12T11:53:48.429Z</time></trkpt><trkpt lat="42.7904433" lon="12.9864333"><ele>503.0</ele><time>2026-04-12T11:53:49.433Z</time></trkpt><trkpt lat="42.7905783" lon="12.9862267"><ele>503.0</ele><time>2026-04-12T11:53:50.435Z</time></trkpt><trkpt lat="42.790725" lon="12.9860067"><ele>503.0</ele><time>2026-04-12T11:53:51.434Z</time></trkpt><trkpt lat="42.79087" lon="12.9857783"><ele>503.0</ele><time>2026-04-12T11:53:52.429Z</time></trkpt><trkpt lat="42.7909983" lon="12.98555"><ele>508.0</ele><time>2026-04-12T11:53:53.433Z</time></trkpt><trkpt lat="42.7911017" lon="12.9853067"><ele>513.0</ele><time>2026-04-12T11:53:54.434Z</time></trkpt><trkpt lat="42.7911733" lon="12.9850383"><ele>518.0</ele><time>2026-04-12T11:53:55.434Z</time></trkpt><trkpt lat="42.7912133" lon="12.98476"><ele>518.0</ele><time>2026-04-12T11:53:56.435Z</time></trkpt><trkpt lat="42.79121" lon="12.984475"><ele>518.0</ele><time>2026-04-12T11:53:57.433Z</time></trkpt><trkpt lat="42.7911633" lon="12.9841983"><ele>518.0</ele><time>2026-04-12T11:53:58.435Z</time></trkpt><trkpt lat="42.7910667" lon="12.98396"><ele>505.3333333333333</ele><time>2026-04-12T11:53:59.436Z</time></trkpt><trkpt lat="42.7909217" lon="12.9837817"><ele>492.66666666666663</ele><time>2026-04-12T11:54:00.434Z</time></trkpt><trkpt lat="42.7907717" lon="12.98365"><ele>480.0</ele><time>2026-04-12T11:54:01.431Z</time></trkpt><trkpt lat="42.79061" lon="12.98356"><ele>480.0</ele><time>2026-04-12T11:54:02.432Z</time></trkpt><trkpt lat="42.7904583" lon="12.9834667"><ele>480.0</ele><time>2026-04-12T11:54:03.43Z</time></trkpt><trkpt lat="42.79033" lon="12.9833517"><ele>480.0</ele><time>2026-04-12T11:54:04.433Z</time></trkpt><trkpt lat="42.7902483" lon="12.9831817"><ele>479.33333333333337</ele><time>2026-04-12T11:54:05.431Z</time></trkpt><trkpt lat="42.7901867" lon="12.9829783"><ele>478.6666666666667</ele><time>2026-04-12T11:54:06.432Z</time></trkpt><trkpt lat="42.7901483" lon="12.982725"><ele>478.0</ele><time>2026-04-12T11:54:07.434Z</time></trkpt><trkpt lat="42.790115" lon="12.982425"><ele>478.0</ele><time>2026-04-12T11:54:08.433Z</time></trkpt><trkpt lat="42.79008" lon="12.982095"><ele>478.0</ele><time>2026-04-12T11:54:09.432Z</time></trkpt><trkpt lat="42.790045" lon="12.9817667"><ele>478.0</ele><time>2026-04-12T11:54:10.428Z</time></trkpt><trkpt lat="42.79" lon="12.98145"><ele>478.0</ele><time>2026-04-12T11:54:11.427Z</time></trkpt><trkpt lat="42.7899383" lon="12.9811467"><ele>478.0</ele><time>2026-04-12T11:54:12.434Z</time></trkpt><trkpt lat="42.7898367" lon="12.9808617"><ele>478.0</ele><time>2026-04-12T11:54:13.431Z</time></trkpt><trkpt lat="42.7897267" lon="12.98058"><ele>484.0</ele><time>2026-04-12T11:54:14.432Z</time></trkpt><trkpt lat="42.7896283" lon="12.9802867"><ele>490.0</ele><time>2026-04-12T11:54:15.434Z</time></trkpt><trkpt lat="42.7895517" lon="12.97997"><ele>501.0</ele><time>2026-04-12T11:54:16.43Z</time></trkpt><trkpt lat="42.7895" lon="12.979635"><ele>512.0</ele><time>2026-04-12T11:54:17.429Z</time></trkpt><trkpt lat="42.7894733" lon="12.9792833"><ele>515.5</ele><time>2026-04-12T11:54:18.432Z</time></trkpt><trkpt lat="42.789445" lon="12.9789417"><ele>519.0</ele><time>2026-04-12T11:54:19.436Z</time></trkpt><trkpt lat="42.7894067" lon="12.9786217"><ele>518.5</ele><time>2026-04-12T11:54:20.432Z</time></trkpt><trkpt lat="42.7893483" lon="12.9783133"><ele>518.0</ele><time>2026-04-12T11:54:21.433Z</time></trkpt><trkpt lat="42.7892717" lon="12.97802"><ele>506.66666666666663</ele><time>2026-04-12T11:54:22.433Z</time></trkpt><trkpt lat="42.78918" lon="12.9777483"><ele>495.33333333333337</ele><time>2026-04-12T11:54:23.43Z</time></trkpt><trkpt lat="42.7891017" lon="12.97748"><ele>484.0</ele><time>2026-04-12T11:54:24.43Z</time></trkpt><trkpt lat="42.78905" lon="12.9772033"><ele>484.0</ele><time>2026-04-12T11:54:25.43Z</time></trkpt><trkpt lat="42.789055" lon="12.976905"><ele>484.0</ele><time>2026-04-12T11:54:26.429Z</time></trkpt><trkpt lat="42.7890867" lon="12.97659"><ele>479.5</ele><time>2026-04-12T11:54:27.435Z</time></trkpt><trkpt lat="42.789165" lon="12.97626"><ele>475.0</ele><time>2026-04-12T11:54:28.432Z</time></trkpt><trkpt lat="42.7892433" lon="12.975935"><ele>475.0</ele><time>2026-04-12T11:54:29.43Z</time></trkpt><trkpt lat="42.78932" lon="12.9756167"><ele>475.0</ele><time>2026-04-12T11:54:30.432Z</time></trkpt><trkpt lat="42.7894033" lon="12.97531"><ele>493.5</ele><time>2026-04-12T11:54:31.439Z</time></trkpt><trkpt lat="42.789485" lon="12.9750133"><ele>512.0</ele><time>2026-04-12T11:54:32.432Z</time></trkpt><trkpt lat="42.7895733" lon="12.9747267"><ele>512.0</ele><time>2026-04-12T11:54:33.434Z</time></trkpt><trkpt lat="42.7896633" lon="12.974445"><ele>512.0</ele><time>2026-04-12T11:54:34.432Z</time></trkpt><trkpt lat="42.7897583" lon="12.9741583"><ele>520.0</ele><time>2026-04-12T11:54:35.429Z</time></trkpt><trkpt lat="42.789855" lon="12.97387"><ele>528.0</ele><time>2026-04-12T11:54:36.43Z</time></trkpt><trkpt lat="42.7899533" lon="12.9735833"><ele>528.0</ele><time>2026-04-12T11:54:37.43Z</time></trkpt><trkpt lat="42.7900483" lon="12.9732967"><ele>528.0</ele><time>2026-04-12T11:54:38.433Z</time></trkpt><trkpt lat="42.7902667" lon="12.972425"><ele>518.0</ele><time>2026-04-12T11:54:42.43Z</time></trkpt><trkpt lat="42.7900717" lon="12.9721483"><ele>508.0</ele><time>2026-04-12T11:54:43.427Z</time></trkpt><trkpt lat="42.790005" lon="12.97186"><ele>511.6666666666667</ele><time>2026-04-12T11:54:44.44Z</time></trkpt><trkpt lat="42.7900617" lon="12.9716333"><ele>515.3333333333334</ele><time>2026-04-12T11:54:45.431Z</time></trkpt><trkpt lat="42.7901817" lon="12.9713633"><ele>519.0</ele><time>2026-04-12T11:54:46.429Z</time></trkpt><trkpt lat="42.790345" lon="12.971125"><ele>519.0</ele><time>2026-04-12T11:54:47.431Z</time></trkpt><trkpt lat="42.7905267" lon="12.9709183"><ele>519.0</ele><time>2026-04-12T11:54:48.433Z</time></trkpt><trkpt lat="42.7907167" lon="12.97071"><ele>523.5</ele><time>2026-04-12T11:54:49.431Z</time></trkpt><trkpt lat="42.7908883" lon="12.9704883"><ele>528.0</ele><time>2026-04-12T11:54:50.436Z</time></trkpt><trkpt lat="42.7910383" lon="12.9702433"><ele>512.0</ele><time>2026-04-12T11:54:51.43Z</time></trkpt><trkpt lat="42.7911667" lon="12.969975"><ele>496.0</ele><time>2026-04-12T11:54:52.43Z</time></trkpt><trkpt lat="42.7912817" lon="12.9697033"><ele>496.0</ele><time>2026-04-12T11:54:53.433Z</time></trkpt><trkpt lat="42.791375" lon="12.9694217"><ele>496.0</ele><time>2026-04-12T11:54:54.435Z</time></trkpt><trkpt lat="42.7914467" lon="12.9691533"><ele>496.0</ele><time>2026-04-12T11:54:55.431Z</time></trkpt><trkpt lat="42.7915267" lon="12.9688867"><ele>494.0</ele><time>2026-04-12T11:54:56.434Z</time></trkpt><trkpt lat="42.79153" lon="12.9686267"><ele>492.0</ele><time>2026-04-12T11:54:57.433Z</time></trkpt><trkpt lat="42.7914867" lon="12.968395"><ele>490.0</ele><time>2026-04-12T11:54:58.432Z</time></trkpt><trkpt lat="42.7914067" lon="12.9681517"><ele>490.0</ele><time>2026-04-12T11:54:59.435Z</time></trkpt><trkpt lat="42.7913633" lon="12.9679017"><ele>490.0</ele><time>2026-04-12T11:55:00.43Z</time></trkpt><trkpt lat="42.7912467" lon="12.967575"><ele>496.0</ele><time>2026-04-12T11:55:01.429Z</time></trkpt><trkpt lat="42.791135" lon="12.9672817"><ele>502.0</ele><time>2026-04-12T11:55:02.429Z</time></trkpt><trkpt lat="42.7910467" lon="12.9669883"><ele>500.6666666666667</ele><time>2026-04-12T11:55:03.429Z</time></trkpt><trkpt lat="42.7909783" lon="12.9667367"><ele>499.33333333333337</ele><time>2026-04-12T11:55:04.428Z</time></trkpt><trkpt lat="42.7908517" lon="12.96646"><ele>498.0</ele><time>2026-04-12T11:55:05.434Z</time></trkpt><trkpt lat="42.79085" lon="12.9662317"><ele>498.0</ele><time>2026-04-12T11:55:06.436Z</time></trkpt><trkpt lat="42.7908583" lon="12.96604"><ele>498.0</ele><time>2026-04-12T11:55:07.439Z</time></trkpt><trkpt lat="42.7907783" lon="12.96596"><ele>498.0</ele><time>2026-04-12T11:55:09.428Z</time></trkpt><trkpt lat="42.7908" lon="12.9657517"><ele>498.0</ele><time>2026-04-12T11:55:10.43Z</time></trkpt><trkpt lat="42.7908333" lon="12.96556"><ele>458.0</ele><time>2026-04-12T11:55:11.431Z</time></trkpt><trkpt lat="42.7909617" lon="12.9600317"><ele>458.0</ele><time>2026-04-12T11:55:26.432Z</time></trkpt><trkpt lat="42.7909833" lon="12.95972"><ele>458.0</ele><time>2026-04-12T11:55:27.423Z</time></trkpt><trkpt lat="42.7910083" lon="12.9595883"><ele>458.0</ele><time>2026-04-12T11:55:28.431Z</time></trkpt><trkpt lat="42.7910083" lon="12.9593783"><ele>463.3333333333333</ele><time>2026-04-12T11:55:29.428Z</time></trkpt><trkpt lat="42.79105" lon="12.9591767"><ele>468.66666666666663</ele><time>2026-04-12T11:55:30.43Z</time></trkpt><trkpt lat="42.7911533" lon="12.9590017"><ele>474.0</ele><time>2026-04-12T11:55:31.43Z</time></trkpt><trkpt lat="42.79131" lon="12.9588383"><ele>474.0</ele><time>2026-04-12T11:55:32.428Z</time></trkpt><trkpt lat="42.7914883" lon="12.9586633"><ele>474.0</ele><time>2026-04-12T11:55:33.429Z</time></trkpt><trkpt lat="42.7916817" lon="12.9584767"><ele>468.0</ele><time>2026-04-12T11:55:34.429Z</time></trkpt><trkpt lat="42.7918983" lon="12.9583083"><ele>462.0</ele><time>2026-04-12T11:55:35.433Z</time></trkpt><trkpt lat="42.792135" lon="12.95817"><ele>462.0</ele><time>2026-04-12T11:55:36.435Z</time></trkpt><trkpt lat="42.7923817" lon="12.9580483"><ele>462.0</ele><time>2026-04-12T11:55:37.434Z</time></trkpt><trkpt lat="42.7926317" lon="12.95792"><ele>483.0</ele><time>2026-04-12T11:55:38.435Z</time></trkpt><trkpt lat="42.7928633" lon="12.9577583"><ele>504.0</ele><time>2026-04-12T11:55:39.434Z</time></trkpt><trkpt lat="42.79308" lon="12.95757"><ele>479.5</ele><time>2026-04-12T11:55:40.434Z</time></trkpt><trkpt lat="42.79329" lon="12.9573517"><ele>455.0</ele><time>2026-04-12T11:55:41.429Z</time></trkpt><trkpt lat="42.7934967" lon="12.95711"><ele>456.5</ele><time>2026-04-12T11:55:42.433Z</time></trkpt><trkpt lat="42.7936967" lon="12.9568733"><ele>458.0</ele><time>2026-04-12T11:55:43.432Z</time></trkpt><trkpt lat="42.793885" lon="12.9566467"><ele>458.0</ele><time>2026-04-12T11:55:44.435Z</time></trkpt><trkpt lat="42.794065" lon="12.9564283"><ele>458.0</ele><time>2026-04-12T11:55:45.438Z</time></trkpt><trkpt lat="42.794245" lon="12.9562167"><ele>455.0</ele><time>2026-04-12T11:55:46.431Z</time></trkpt><trkpt lat="42.7944333" lon="12.9560133"><ele>452.0</ele><time>2026-04-12T11:55:47.429Z</time></trkpt><trkpt lat="42.7946317" lon="12.955815"><ele>452.0</ele><time>2026-04-12T11:55:48.43Z</time></trkpt><trkpt lat="42.79485" lon="12.9556383"><ele>452.0</ele><time>2026-04-12T11:55:49.429Z</time></trkpt><trkpt lat="42.7950817" lon="12.9554783"><ele>462.0</ele><time>2026-04-12T11:55:50.434Z</time></trkpt><trkpt lat="42.7953233" lon="12.95532"><ele>472.0</ele><time>2026-04-12T11:55:51.429Z</time></trkpt><trkpt lat="42.7955667" lon="12.955155"><ele>466.5</ele><time>2026-04-12T11:55:52.429Z</time></trkpt><trkpt lat="42.795805" lon="12.9550017"><ele>461.0</ele><time>2026-04-12T11:55:53.433Z</time></trkpt><trkpt lat="42.7960367" lon="12.9548633"><ele>461.0</ele><time>2026-04-12T11:55:54.432Z</time></trkpt><trkpt lat="42.79626" lon="12.9547317"><ele>461.0</ele><time>2026-04-12T11:55:55.43Z</time></trkpt><trkpt lat="42.7964683" lon="12.9546017"><ele>461.0</ele><time>2026-04-12T11:55:56.432Z</time></trkpt><trkpt lat="42.7966633" lon="12.9544633"><ele>461.0</ele><time>2026-04-12T11:55:57.431Z</time></trkpt><trkpt lat="42.79685" lon="12.9543183"><ele>461.0</ele><time>2026-04-12T11:55:58.43Z</time></trkpt><trkpt lat="42.7970317" lon="12.954165"><ele>461.3333333333333</ele><time>2026-04-12T11:55:59.431Z</time></trkpt><trkpt lat="42.7972217" lon="12.9540233"><ele>461.66666666666663</ele><time>2026-04-12T11:56:00.429Z</time></trkpt><trkpt lat="42.797425" lon="12.95392"><ele>462.0</ele><time>2026-04-12T11:56:01.432Z</time></trkpt><trkpt lat="42.7976283" lon="12.953855"><ele>468.33333333333337</ele><time>2026-04-12T11:56:02.431Z</time></trkpt><trkpt lat="42.7978367" lon="12.9538517"><ele>474.6666666666667</ele><time>2026-04-12T11:56:03.434Z</time></trkpt><trkpt lat="42.7980317" lon="12.9538417"><ele>481.0</ele><time>2026-04-12T11:56:04.431Z</time></trkpt><trkpt lat="42.7982267" lon="12.9538033"><ele>481.0</ele><time>2026-04-12T11:56:05.431Z</time></trkpt><trkpt lat="42.7984283" lon="12.953765"><ele>481.0</ele><time>2026-04-12T11:56:06.433Z</time></trkpt><trkpt lat="42.79862" lon="12.9537083"><ele>481.0</ele><time>2026-04-12T11:56:07.431Z</time></trkpt><trkpt lat="42.7988117" lon="12.9536467"><ele>485.6666666666667</ele><time>2026-04-12T11:56:08.433Z</time></trkpt><trkpt lat="42.7990033" lon="12.9535817"><ele>490.33333333333337</ele><time>2026-04-12T11:56:09.432Z</time></trkpt><trkpt lat="42.7992" lon="12.9535233"><ele>495.0</ele><time>2026-04-12T11:56:10.432Z</time></trkpt><trkpt lat="42.7993967" lon="12.9534567"><ele>498.66666666666663</ele><time>2026-04-12T11:56:11.429Z</time></trkpt><trkpt lat="42.7995933" lon="12.9533967"><ele>502.3333333333333</ele><time>2026-04-12T11:56:12.431Z</time></trkpt><trkpt lat="42.79978" lon="12.9533417"><ele>506.0</ele><time>2026-04-12T11:56:13.431Z</time></trkpt><trkpt lat="42.7999617" lon="12.9533133"><ele>490.3333333333333</ele><time>2026-04-12T11:56:14.432Z</time></trkpt><trkpt lat="42.8001367" lon="12.9533083"><ele>474.66666666666663</ele><time>2026-04-12T11:56:15.432Z</time></trkpt><trkpt lat="42.8003" lon="12.9533033"><ele>459.0</ele><time>2026-04-12T11:56:16.429Z</time></trkpt><trkpt lat="42.8004617" lon="12.9532783"><ele>459.0</ele><time>2026-04-12T11:56:17.431Z</time></trkpt><trkpt lat="42.8006183" lon="12.9532167"><ele>459.0</ele><time>2026-04-12T11:56:18.433Z</time></trkpt><trkpt lat="42.800775" lon="12.9531367"><ele>459.0</ele><time>2026-04-12T11:56:19.432Z</time></trkpt><trkpt lat="42.80093" lon="12.9530467"><ele>472.0</ele><time>2026-04-12T11:56:20.429Z</time></trkpt><trkpt lat="42.80108" lon="12.9529433"><ele>485.0</ele><time>2026-04-12T11:56:21.433Z</time></trkpt><trkpt lat="42.8012317" lon="12.95284"><ele>498.0</ele><time>2026-04-12T11:56:22.426Z</time></trkpt><trkpt lat="42.801385" lon="12.9527267"><ele>498.0</ele><time>2026-04-12T11:56:23.427Z</time></trkpt><trkpt lat="42.8015333" lon="12.9526"><ele>498.0</ele><time>2026-04-12T11:56:24.431Z</time></trkpt><trkpt lat="42.80168" lon="12.9524683"><ele>498.0</ele><time>2026-04-12T11:56:25.429Z</time></trkpt><trkpt lat="42.8018233" lon="12.9523267"><ele>504.33333333333337</ele><time>2026-04-12T11:56:26.429Z</time></trkpt><trkpt lat="42.801965" lon="12.9521833"><ele>510.6666666666667</ele><time>2026-04-12T11:56:27.43Z</time></trkpt><trkpt lat="42.8021067" lon="12.952045"><ele>517.0</ele><time>2026-04-12T11:56:28.429Z</time></trkpt><trkpt lat="42.8022433" lon="12.9519067"><ele>504.0</ele><time>2026-04-12T11:56:29.432Z</time></trkpt><trkpt lat="42.802735" lon="12.951105"><ele>504.0</ele><time>2026-04-12T11:56:33.43Z</time></trkpt><trkpt lat="42.802855" lon="12.95089"><ele>504.0</ele><time>2026-04-12T11:56:34.43Z</time></trkpt><trkpt lat="42.8029983" lon="12.9507067"><ele>504.0</ele><time>2026-04-12T11:56:35.43Z</time></trkpt><trkpt lat="42.8031367" lon="12.9505533"><ele>494.33333333333337</ele><time>2026-04-12T11:56:36.431Z</time></trkpt><trkpt lat="42.80328" lon="12.9504167"><ele>484.6666666666667</ele><time>2026-04-12T11:56:37.431Z</time></trkpt><trkpt lat="42.8034133" lon="12.9502983"><ele>475.0</ele><time>2026-04-12T11:56:38.433Z</time></trkpt><trkpt lat="42.80354" lon="12.9501933"><ele>475.0</ele><time>2026-04-12T11:56:39.427Z</time></trkpt><trkpt lat="42.803665" lon="12.95011"><ele>475.0</ele><time>2026-04-12T11:56:40.43Z</time></trkpt><trkpt lat="42.8037917" lon="12.9500417"><ele>475.0</ele><time>2026-04-12T11:56:41.427Z</time></trkpt><trkpt lat="42.8039183" lon="12.9499933"><ele>475.0</ele><time>2026-04-12T11:56:42.43Z</time></trkpt><trkpt lat="42.8040467" lon="12.949955"><ele>468.5</ele><time>2026-04-12T11:56:43.428Z</time></trkpt><trkpt lat="42.8041767" lon="12.9499283"><ele>462.0</ele><time>2026-04-12T11:56:44.432Z</time></trkpt><trkpt lat="42.8043067" lon="12.9499167"><ele>455.5</ele><time>2026-04-12T11:56:45.439Z</time></trkpt><trkpt lat="42.8044367" lon="12.949915"><ele>449.0</ele><time>2026-04-12T11:56:46.432Z</time></trkpt><trkpt lat="42.8045667" lon="12.94992"><ele>449.0</ele><time>2026-04-12T11:56:47.433Z</time></trkpt><trkpt lat="42.8047067" lon="12.9499233"><ele>449.0</ele><time>2026-04-12T11:56:48.435Z</time></trkpt><trkpt lat="42.804855" lon="12.9499017"><ele>449.0</ele><time>2026-04-12T11:56:49.435Z</time></trkpt><trkpt lat="42.8049983" lon="12.9498517"><ele>449.0</ele><time>2026-04-12T11:56:50.434Z</time></trkpt><trkpt lat="42.805135" lon="12.9497817"><ele>455.5</ele><time>2026-04-12T11:56:51.429Z</time></trkpt><trkpt lat="42.8052667" lon="12.9497033"><ele>462.0</ele><time>2026-04-12T11:56:52.436Z</time></trkpt><trkpt lat="42.805395" lon="12.949625"><ele>468.5</ele><time>2026-04-12T11:56:53.429Z</time></trkpt><trkpt lat="42.8055167" lon="12.949545"><ele>475.0</ele><time>2026-04-12T11:56:54.433Z</time></trkpt><trkpt lat="42.8056317" lon="12.9494683"><ele>475.0</ele><time>2026-04-12T11:56:55.434Z</time></trkpt><trkpt lat="42.80575" lon="12.9493967"><ele>475.0</ele><time>2026-04-12T11:56:56.437Z</time></trkpt><trkpt lat="42.8058717" lon="12.94933"><ele>475.0</ele><time>2026-04-12T11:56:57.429Z</time></trkpt><trkpt lat="42.805995" lon="12.9492683"><ele>475.0</ele><time>2026-04-12T11:56:58.439Z</time></trkpt><trkpt lat="42.8061167" lon="12.949205"><ele>468.33333333333337</ele><time>2026-04-12T11:56:59.425Z</time></trkpt><trkpt lat="42.80624" lon="12.94914"><ele>461.66666666666663</ele><time>2026-04-12T11:57:00.43Z</time></trkpt><trkpt lat="42.80638" lon="12.9490617"><ele>455.0</ele><time>2026-04-12T11:57:01.43Z</time></trkpt><trkpt lat="42.80654" lon="12.9489783"><ele>455.0</ele><time>2026-04-12T11:57:02.432Z</time></trkpt><trkpt lat="42.8066983" lon="12.9489017"><ele>455.0</ele><time>2026-04-12T11:57:03.429Z</time></trkpt><trkpt lat="42.80685" lon="12.94883"><ele>455.0</ele><time>2026-04-12T11:57:04.432Z</time></trkpt><trkpt lat="42.8069883" lon="12.94876"><ele>464.66666666666663</ele><time>2026-04-12T11:57:05.432Z</time></trkpt><trkpt lat="42.8071267" lon="12.94869"><ele>474.33333333333337</ele><time>2026-04-12T11:57:06.433Z</time></trkpt><trkpt lat="42.8072683" lon="12.9486117"><ele>484.0</ele><time>2026-04-12T11:57:07.43Z</time></trkpt><trkpt lat="42.8074217" lon="12.94853"><ele>484.0</ele><time>2026-04-12T11:57:08.43Z</time></trkpt><trkpt lat="42.8075867" lon="12.948445"><ele>484.0</ele><time>2026-04-12T11:57:09.428Z</time></trkpt><trkpt lat="42.8077483" lon="12.94837"><ele>484.0</ele><time>2026-04-12T11:57:10.432Z</time></trkpt><trkpt lat="42.8079083" lon="12.9482967"><ele>475.33333333333337</ele><time>2026-04-12T11:57:11.425Z</time></trkpt><trkpt lat="42.808055" lon="12.948225"><ele>466.66666666666663</ele><time>2026-04-12T11:57:12.43Z</time></trkpt><trkpt lat="42.808195" lon="12.9481467"><ele>458.0</ele><time>2026-04-12T11:57:13.433Z</time></trkpt><trkpt lat="42.8083283" lon="12.9480783"><ele>458.0</ele><time>2026-04-12T11:57:14.434Z</time></trkpt><trkpt lat="42.808455" lon="12.9480117"><ele>458.0</ele><time>2026-04-12T11:57:15.43Z</time></trkpt><trkpt lat="42.8085817" lon="12.9479433"><ele>458.0</ele><time>2026-04-12T11:57:16.429Z</time></trkpt><trkpt lat="42.8087083" lon="12.9478783"><ele>458.0</ele><time>2026-04-12T11:57:17.428Z</time></trkpt><trkpt lat="42.8088333" lon="12.9478067"><ele>452.5</ele><time>2026-04-12T11:57:18.431Z</time></trkpt><trkpt lat="42.8089533" lon="12.9477333"><ele>447.0</ele><time>2026-04-12T11:57:19.476Z</time></trkpt><trkpt lat="42.809065" lon="12.9476517"><ele>441.5</ele><time>2026-04-12T11:57:20.43Z</time></trkpt><trkpt lat="42.8091767" lon="12.9475633"><ele>436.0</ele><time>2026-04-12T11:57:21.429Z</time></trkpt><trkpt lat="42.8092967" lon="12.9474633"><ele>449.0</ele><time>2026-04-12T11:57:22.43Z</time></trkpt><trkpt lat="42.8094217" lon="12.9473417"><ele>462.0</ele><time>2026-04-12T11:57:23.431Z</time></trkpt><trkpt lat="42.80955" lon="12.9472083"><ele>475.0</ele><time>2026-04-12T11:57:24.431Z</time></trkpt><trkpt lat="42.80968" lon="12.9470667"><ele>475.0</ele><time>2026-04-12T11:57:25.429Z</time></trkpt><trkpt lat="42.8098133" lon="12.9469333"><ele>475.0</ele><time>2026-04-12T11:57:26.431Z</time></trkpt><trkpt lat="42.8099433" lon="12.9467983"><ele>475.0</ele><time>2026-04-12T11:57:27.432Z</time></trkpt><trkpt lat="42.8100733" lon="12.946665"><ele>468.0</ele><time>2026-04-12T11:57:28.431Z</time></trkpt><trkpt lat="42.8102083" lon="12.946525"><ele>461.0</ele><time>2026-04-12T11:57:29.429Z</time></trkpt><trkpt lat="42.8103817" lon="12.94623"><ele>454.0</ele><time>2026-04-12T11:57:30.431Z</time></trkpt><trkpt lat="42.8105717" lon="12.946"><ele>440.0</ele><time>2026-04-12T11:57:31.431Z</time></trkpt><trkpt lat="42.810745" lon="12.9458017"><ele>426.0</ele><time>2026-04-12T11:57:32.434Z</time></trkpt><trkpt lat="42.8109167" lon="12.9455933"><ele>428.5</ele><time>2026-04-12T11:57:33.435Z</time></trkpt><trkpt lat="42.811085" lon="12.945385"><ele>431.0</ele><time>2026-04-12T11:57:34.428Z</time></trkpt><trkpt lat="42.8112633" lon="12.945175"><ele>435.0</ele><time>2026-04-12T11:57:35.426Z</time></trkpt><trkpt lat="42.811445" lon="12.9449667"><ele>439.0</ele><time>2026-04-12T11:57:36.431Z</time></trkpt><trkpt lat="42.8116317" lon="12.944755"><ele>439.0</ele><time>2026-04-12T11:57:37.43Z</time></trkpt><trkpt lat="42.81181" lon="12.9445433"><ele>439.0</ele><time>2026-04-12T11:57:38.43Z</time></trkpt><trkpt lat="42.8119867" lon="12.9443333"><ele>393.0</ele><time>2026-04-12T11:57:39.429Z</time></trkpt><trkpt lat="42.820035" lon="12.934995"><ele>392.33333333333337</ele><time>2026-04-12T11:58:17.429Z</time></trkpt><trkpt lat="42.8202067" lon="12.9348317"><ele>391.6666666666667</ele><time>2026-04-12T11:58:18.426Z</time></trkpt><trkpt lat="42.8203783" lon="12.934625"><ele>391.0</ele><time>2026-04-12T11:58:19.429Z</time></trkpt><trkpt lat="42.8205417" lon="12.9343833"><ele>380.0</ele><time>2026-04-12T11:58:20.434Z</time></trkpt><trkpt lat="42.8206967" lon="12.93412"><ele>369.0</ele><time>2026-04-12T11:58:21.431Z</time></trkpt><trkpt lat="42.8208417" lon="12.93383"><ele>369.0</ele><time>2026-04-12T11:58:22.431Z</time></trkpt><trkpt lat="42.8209717" lon="12.933525"><ele>369.0</ele><time>2026-04-12T11:58:23.435Z</time></trkpt><trkpt lat="42.8210783" lon="12.9332133"><ele>366.0</ele><time>2026-04-12T11:58:24.434Z</time></trkpt><trkpt lat="42.8211633" lon="12.9329117"><ele>363.0</ele><time>2026-04-12T11:58:25.432Z</time></trkpt><trkpt lat="42.8212317" lon="12.9326167"><ele>366.6666666666667</ele><time>2026-04-12T11:58:26.43Z</time></trkpt><trkpt lat="42.821285" lon="12.9323317"><ele>370.33333333333337</ele><time>2026-04-12T11:58:27.432Z</time></trkpt><trkpt lat="42.8213233" lon="12.9320633"><ele>374.0</ele><time>2026-04-12T11:58:28.43Z</time></trkpt><trkpt lat="42.8213483" lon="12.9318133"><ele>377.5</ele><time>2026-04-12T11:58:29.428Z</time></trkpt><trkpt lat="42.8213717" lon="12.9315883"><ele>381.0</ele><time>2026-04-12T11:58:30.434Z</time></trkpt><trkpt lat="42.8214" lon="12.9313917"><ele>384.5</ele><time>2026-04-12T11:58:31.431Z</time></trkpt><trkpt lat="42.82144" lon="12.9312183"><ele>388.0</ele><time>2026-04-12T11:58:32.432Z</time></trkpt><trkpt lat="42.8214917" lon="12.9310733"><ele>388.0</ele><time>2026-04-12T11:58:33.432Z</time></trkpt><trkpt lat="42.8215617" lon="12.9309567"><ele>388.0</ele><time>2026-04-12T11:58:34.429Z</time></trkpt><trkpt lat="42.8216483" lon="12.930865"><ele>388.0</ele><time>2026-04-12T11:58:35.435Z</time></trkpt><trkpt lat="42.821755" lon="12.9307817"><ele>388.0</ele><time>2026-04-12T11:58:36.436Z</time></trkpt><trkpt lat="42.8218867" lon="12.930715"><ele>391.0</ele><time>2026-04-12T11:58:37.432Z</time></trkpt><trkpt lat="42.8220467" lon="12.9306583"><ele>394.0</ele><time>2026-04-12T11:58:38.432Z</time></trkpt><trkpt lat="42.8222317" lon="12.9306133"><ele>397.0</ele><time>2026-04-12T11:58:39.427Z</time></trkpt><trkpt lat="42.82243" lon="12.9305717"><ele>397.0</ele><time>2026-04-12T11:58:40.434Z</time></trkpt><trkpt lat="42.8226317" lon="12.9305367"><ele>397.0</ele><time>2026-04-12T11:58:41.431Z</time></trkpt><trkpt lat="42.8228383" lon="12.9305067"><ele>397.0</ele><time>2026-04-12T11:58:42.431Z</time></trkpt><trkpt lat="42.823045" lon="12.930475"><ele>394.6666666666667</ele><time>2026-04-12T11:58:43.431Z</time></trkpt><trkpt lat="42.8232483" lon="12.930435"><ele>392.33333333333337</ele><time>2026-04-12T11:58:44.431Z</time></trkpt><trkpt lat="42.8234417" lon="12.9303767"><ele>390.0</ele><time>2026-04-12T11:58:45.43Z</time></trkpt><trkpt lat="42.823625" lon="12.930285"><ele>393.33333333333337</ele><time>2026-04-12T11:58:46.431Z</time></trkpt><trkpt lat="42.82381" lon="12.9301433"><ele>396.6666666666667</ele><time>2026-04-12T11:58:47.429Z</time></trkpt><trkpt lat="42.8239867" lon="12.929965"><ele>400.0</ele><time>2026-04-12T11:58:48.43Z</time></trkpt><trkpt lat="42.8241483" lon="12.9297933"><ele>400.0</ele><time>2026-04-12T11:58:49.431Z</time></trkpt><trkpt lat="42.82431" lon="12.9296367"><ele>400.0</ele><time>2026-04-12T11:58:50.428Z</time></trkpt><trkpt lat="42.8244733" lon="12.9295117"><ele>400.0</ele><time>2026-04-12T11:58:51.427Z</time></trkpt><trkpt lat="42.824655" lon="12.9294217"><ele>397.33333333333337</ele><time>2026-04-12T11:58:52.429Z</time></trkpt><trkpt lat="42.8248633" lon="12.9293783"><ele>394.66666666666663</ele><time>2026-04-12T11:58:53.429Z</time></trkpt><trkpt lat="42.82509" lon="12.9293817"><ele>392.0</ele><time>2026-04-12T11:58:54.432Z</time></trkpt><trkpt lat="42.8253217" lon="12.9294133"><ele>392.0</ele><time>2026-04-12T11:58:55.433Z</time></trkpt><trkpt lat="42.8255567" lon="12.9294767"><ele>392.0</ele><time>2026-04-12T11:58:56.434Z</time></trkpt><trkpt lat="42.8258033" lon="12.92955"><ele>395.5</ele><time>2026-04-12T11:58:57.43Z</time></trkpt><trkpt lat="42.826055" lon="12.9296233"><ele>399.0</ele><time>2026-04-12T11:58:58.431Z</time></trkpt><trkpt lat="42.8262933" lon="12.9296983"><ele>399.0</ele><time>2026-04-12T11:58:59.428Z</time></trkpt><trkpt lat="42.82652" lon="12.9297717"><ele>399.0</ele><time>2026-04-12T11:59:00.434Z</time></trkpt><trkpt lat="42.8267483" lon="12.929845"><ele>395.66666666666663</ele><time>2026-04-12T11:59:01.431Z</time></trkpt><trkpt lat="42.8269633" lon="12.9299267"><ele>392.3333333333333</ele><time>2026-04-12T11:59:02.433Z</time></trkpt><trkpt lat="42.8271733" lon="12.9300367"><ele>389.0</ele><time>2026-04-12T11:59:03.434Z</time></trkpt><trkpt lat="42.8273683" lon="12.9301683"><ele>389.0</ele><time>2026-04-12T11:59:04.428Z</time></trkpt><trkpt lat="42.8275467" lon="12.9303167"><ele>389.0</ele><time>2026-04-12T11:59:05.432Z</time></trkpt><trkpt lat="42.8277067" lon="12.9304767"><ele>389.0</ele><time>2026-04-12T11:59:06.431Z</time></trkpt><trkpt lat="42.8278517" lon="12.9306267"><ele>388.0</ele><time>2026-04-12T11:59:07.429Z</time></trkpt><trkpt lat="42.8279867" lon="12.9307633"><ele>387.0</ele><time>2026-04-12T11:59:08.437Z</time></trkpt><trkpt lat="42.8281183" lon="12.9308867"><ele>386.0</ele><time>2026-04-12T11:59:09.431Z</time></trkpt><trkpt lat="42.828245" lon="12.93099"><ele>386.0</ele><time>2026-04-12T11:59:10.428Z</time></trkpt><trkpt lat="42.8283717" lon="12.9310767"><ele>386.0</ele><time>2026-04-12T11:59:11.434Z</time></trkpt><trkpt lat="42.8284833" lon="12.9311683"><ele>386.0</ele><time>2026-04-12T11:59:12.427Z</time></trkpt><trkpt lat="42.8285767" lon="12.931275"><ele>386.0</ele><time>2026-04-12T11:59:13.431Z</time></trkpt><trkpt lat="42.828645" lon="12.931395"><ele>390.8</ele><time>2026-04-12T11:59:14.43Z</time></trkpt><trkpt lat="42.828695" lon="12.9315233"><ele>395.6</ele><time>2026-04-12T11:59:15.432Z</time></trkpt><trkpt lat="42.8287317" lon="12.9316567"><ele>400.4</ele><time>2026-04-12T11:59:16.427Z</time></trkpt><trkpt lat="42.8287517" lon="12.931795"><ele>405.2</ele><time>2026-04-12T11:59:17.44Z</time></trkpt><trkpt lat="42.8287617" lon="12.931935"><ele>410.0</ele><time>2026-04-12T11:59:18.432Z</time></trkpt><trkpt lat="42.8287633" lon="12.9320867"><ele>412.4</ele><time>2026-04-12T11:59:19.43Z</time></trkpt><trkpt lat="42.8287667" lon="12.932235"><ele>414.8</ele><time>2026-04-12T11:59:20.432Z</time></trkpt><trkpt lat="42.8287717" lon="12.9323783"><ele>417.20000000000005</ele><time>2026-04-12T11:59:21.431Z</time></trkpt><trkpt lat="42.82878" lon="12.93252"><ele>419.6</ele><time>2026-04-12T11:59:22.434Z</time></trkpt><trkpt lat="42.8287867" lon="12.9326633"><ele>422.0</ele><time>2026-04-12T11:59:23.431Z</time></trkpt><trkpt lat="42.8287817" lon="12.9328167"><ele>427.0</ele><time>2026-04-12T11:59:24.435Z</time></trkpt><trkpt lat="42.82878" lon="12.9329817"><ele>432.0</ele><time>2026-04-12T11:59:25.432Z</time></trkpt><trkpt lat="42.8287" lon="12.933365"><ele>437.0</ele><time>2026-04-12T11:59:26.43Z</time></trkpt><trkpt lat="42.828665" lon="12.9336667"><ele>442.0</ele><time>2026-04-12T11:59:27.43Z</time></trkpt><trkpt lat="42.828635" lon="12.9339317"><ele>447.0</ele><time>2026-04-12T11:59:28.426Z</time></trkpt><trkpt lat="42.8285933" lon="12.9341617"><ele>452.0</ele><time>2026-04-12T11:59:29.43Z</time></trkpt><trkpt lat="42.828515" lon="12.93435"><ele>443.0</ele><time>2026-04-12T11:59:30.427Z</time></trkpt><trkpt lat="42.8284117" lon="12.9345233"><ele>434.0</ele><time>2026-04-12T11:59:31.428Z</time></trkpt><trkpt lat="42.8282767" lon="12.9346767"><ele>425.0</ele><time>2026-04-12T11:59:32.432Z</time></trkpt><trkpt lat="42.828145" lon="12.9348167"><ele>425.0</ele><time>2026-04-12T11:59:33.432Z</time></trkpt><trkpt lat="42.828035" lon="12.9349533"><ele>425.0</ele><time>2026-04-12T11:59:34.427Z</time></trkpt><trkpt lat="42.8279583" lon="12.9350867"><ele>425.0</ele><time>2026-04-12T11:59:35.43Z</time></trkpt><trkpt lat="42.82792" lon="12.935215"><ele>425.0</ele><time>2026-04-12T11:59:36.432Z</time></trkpt><trkpt lat="42.82792" lon="12.9353633"><ele>426.4</ele><time>2026-04-12T11:59:37.432Z</time></trkpt><trkpt lat="42.8279367" lon="12.9355217"><ele>427.8</ele><time>2026-04-12T11:59:38.434Z</time></trkpt><trkpt lat="42.8279467" lon="12.9356733"><ele>429.20000000000005</ele><time>2026-04-12T11:59:39.432Z</time></trkpt><trkpt lat="42.8279467" lon="12.9358067"><ele>430.6</ele><time>2026-04-12T11:59:40.424Z</time></trkpt><trkpt lat="42.8279233" lon="12.93594"><ele>432.0</ele><time>2026-04-12T11:59:41.436Z</time></trkpt><trkpt lat="42.8278667" lon="12.9360667"><ele>433.75</ele><time>2026-04-12T11:59:42.435Z</time></trkpt><trkpt lat="42.8277817" lon="12.9361867"><ele>435.5</ele><time>2026-04-12T11:59:43.432Z</time></trkpt><trkpt lat="42.8276867" lon="12.9363117"><ele>437.25</ele><time>2026-04-12T11:59:44.433Z</time></trkpt><trkpt lat="42.8276117" lon="12.9364483"><ele>439.0</ele><time>2026-04-12T11:59:45.435Z</time></trkpt><trkpt lat="42.8275683" lon="12.936605"><ele>436.75</ele><time>2026-04-12T11:59:46.43Z</time></trkpt><trkpt lat="42.8275567" lon="12.9367867"><ele>434.5</ele><time>2026-04-12T11:59:47.433Z</time></trkpt><trkpt lat="42.827575" lon="12.9369767"><ele>432.25</ele><time>2026-04-12T11:59:48.431Z</time></trkpt><trkpt lat="42.8276133" lon="12.9371733"><ele>430.0</ele><time>2026-04-12T11:59:49.438Z</time></trkpt><trkpt lat="42.8276683" lon="12.9373783"><ele>421.0</ele><time>2026-04-12T11:59:50.439Z</time></trkpt><trkpt lat="42.8277267" lon="12.9375817"><ele>412.0</ele><time>2026-04-12T11:59:51.432Z</time></trkpt><trkpt lat="42.8277683" lon="12.93781"><ele>403.0</ele><time>2026-04-12T11:59:52.433Z</time></trkpt><trkpt lat="42.82778" lon="12.9380367"><ele>403.0</ele><time>2026-04-12T11:59:53.43Z</time></trkpt><trkpt lat="42.8277783" lon="12.9382567"><ele>403.0</ele><time>2026-04-12T11:59:54.429Z</time></trkpt><trkpt lat="42.8277867" lon="12.9384533"><ele>403.0</ele><time>2026-04-12T11:59:55.429Z</time></trkpt><trkpt lat="42.8278217" lon="12.9386117"><ele>403.0</ele><time>2026-04-12T11:59:56.433Z</time></trkpt><trkpt lat="42.827895" lon="12.9387533"><ele>403.33333333333337</ele><time>2026-04-12T11:59:57.429Z</time></trkpt><trkpt lat="42.82802" lon="12.9388783"><ele>403.66666666666663</ele><time>2026-04-12T11:59:58.433Z</time></trkpt><trkpt lat="42.8281683" lon="12.9390133"><ele>404.0</ele><time>2026-04-12T11:59:59.429Z</time></trkpt><trkpt lat="42.8283383" lon="12.9391767"><ele>404.66666666666663</ele><time>2026-04-12T12:00:00.429Z</time></trkpt><trkpt lat="42.8285133" lon="12.9393483"><ele>405.33333333333337</ele><time>2026-04-12T12:00:01.431Z</time></trkpt><trkpt lat="42.8286733" lon="12.93952"><ele>406.0</ele><time>2026-04-12T12:00:02.427Z</time></trkpt><trkpt lat="42.82882" lon="12.9396967"><ele>406.0</ele><time>2026-04-12T12:00:03.428Z</time></trkpt><trkpt lat="42.8289417" lon="12.9399117"><ele>406.0</ele><time>2026-04-12T12:00:04.427Z</time></trkpt><trkpt lat="42.8290333" lon="12.9401783"><ele>406.0</ele><time>2026-04-12T12:00:05.428Z</time></trkpt><trkpt lat="42.8291183" lon="12.9404367"><ele>412.6666666666667</ele><time>2026-04-12T12:00:06.43Z</time></trkpt><trkpt lat="42.829175" lon="12.9406917"><ele>419.33333333333337</ele><time>2026-04-12T12:00:07.428Z</time></trkpt><trkpt lat="42.8292133" lon="12.9409517"><ele>426.0</ele><time>2026-04-12T12:00:08.427Z</time></trkpt><trkpt lat="42.82923" lon="12.9412167"><ele>428.33333333333337</ele><time>2026-04-12T12:00:09.431Z</time></trkpt><trkpt lat="42.8292383" lon="12.941495"><ele>430.6666666666667</ele><time>2026-04-12T12:00:10.426Z</time></trkpt><trkpt lat="42.8292267" lon="12.9417733"><ele>433.0</ele><time>2026-04-12T12:00:11.43Z</time></trkpt><trkpt lat="42.8292167" lon="12.942035"><ele>433.6666666666667</ele><time>2026-04-12T12:00:12.434Z</time></trkpt><trkpt lat="42.829215" lon="12.9422783"><ele>434.33333333333337</ele><time>2026-04-12T12:00:13.434Z</time></trkpt><trkpt lat="42.82923" lon="12.942515"><ele>435.0</ele><time>2026-04-12T12:00:14.433Z</time></trkpt><trkpt lat="42.8292833" lon="12.94273"><ele>432.66666666666663</ele><time>2026-04-12T12:00:15.432Z</time></trkpt><trkpt lat="42.82939" lon="12.9429067"><ele>430.3333333333333</ele><time>2026-04-12T12:00:16.434Z</time></trkpt><trkpt lat="42.82954" lon="12.9430567"><ele>428.0</ele><time>2026-04-12T12:00:17.436Z</time></trkpt><trkpt lat="42.829725" lon="12.9431933"><ele>428.0</ele><time>2026-04-12T12:00:18.434Z</time></trkpt><trkpt lat="42.8299117" lon="12.9433283"><ele>428.0</ele><time>2026-04-12T12:00:19.431Z</time></trkpt><trkpt lat="42.830095" lon="12.94345"><ele>428.0</ele><time>2026-04-12T12:00:20.434Z</time></trkpt><trkpt lat="42.8302767" lon="12.9435417"><ele>431.3333333333333</ele><time>2026-04-12T12:00:21.429Z</time></trkpt><trkpt lat="42.8304683" lon="12.9435867"><ele>434.66666666666663</ele><time>2026-04-12T12:00:22.426Z</time></trkpt><trkpt lat="42.8306783" lon="12.9435833"><ele>438.0</ele><time>2026-04-12T12:00:23.424Z</time></trkpt><trkpt lat="42.8309067" lon="12.9435467"><ele>438.0</ele><time>2026-04-12T12:00:24.427Z</time></trkpt><trkpt lat="42.8311217" lon="12.94351"><ele>438.0</ele><time>2026-04-12T12:00:25.436Z</time></trkpt><trkpt lat="42.8313383" lon="12.9434767"><ele>438.0</ele><time>2026-04-12T12:00:26.435Z</time></trkpt><trkpt lat="42.83155" lon="12.943475"><ele>438.0</ele><time>2026-04-12T12:00:27.432Z</time></trkpt><trkpt lat="42.8317683" lon="12.943515"><ele>438.0</ele><time>2026-04-12T12:00:28.432Z</time></trkpt><trkpt lat="42.83198" lon="12.943595"><ele>438.0</ele><time>2026-04-12T12:00:29.437Z</time></trkpt><trkpt lat="42.8321817" lon="12.9437133"><ele>435.5</ele><time>2026-04-12T12:00:30.433Z</time></trkpt><trkpt lat="42.8323833" lon="12.9438583"><ele>433.0</ele><time>2026-04-12T12:00:31.43Z</time></trkpt><trkpt lat="42.8325867" lon="12.9439833"><ele>432.33333333333337</ele><time>2026-04-12T12:00:32.44Z</time></trkpt><trkpt lat="42.83279" lon="12.9440717"><ele>431.66666666666663</ele><time>2026-04-12T12:00:33.434Z</time></trkpt><trkpt lat="42.83298" lon="12.9441467"><ele>431.0</ele><time>2026-04-12T12:00:34.429Z</time></trkpt><trkpt lat="42.83315" lon="12.9442517"><ele>431.0</ele><time>2026-04-12T12:00:35.437Z</time></trkpt><trkpt lat="42.8333" lon="12.9444"><ele>431.0</ele><time>2026-04-12T12:00:36.43Z</time></trkpt><trkpt lat="42.8334417" lon="12.9446017"><ele>431.0</ele><time>2026-04-12T12:00:37.434Z</time></trkpt><trkpt lat="42.8335883" lon="12.94484"><ele>429.0</ele><time>2026-04-12T12:00:38.435Z</time></trkpt><trkpt lat="42.8337483" lon="12.94508"><ele>427.0</ele><time>2026-04-12T12:00:39.433Z</time></trkpt><trkpt lat="42.833935" lon="12.9452983"><ele>427.0</ele><time>2026-04-12T12:00:40.434Z</time></trkpt><trkpt lat="42.8341333" lon="12.945495"><ele>427.0</ele><time>2026-04-12T12:00:41.433Z</time></trkpt><trkpt lat="42.8343417" lon="12.9456667"><ele>430.0</ele><time>2026-04-12T12:00:42.433Z</time></trkpt><trkpt lat="42.8345433" lon="12.94583"><ele>433.0</ele><time>2026-04-12T12:00:43.439Z</time></trkpt><trkpt lat="42.8347417" lon="12.94599"><ele>433.0</ele><time>2026-04-12T12:00:44.431Z</time></trkpt><trkpt lat="42.834945" lon="12.946145"><ele>433.0</ele><time>2026-04-12T12:00:45.431Z</time></trkpt><trkpt lat="42.8351567" lon="12.9462833"><ele>427.5</ele><time>2026-04-12T12:00:46.432Z</time></trkpt><trkpt lat="42.835385" lon="12.946395"><ele>422.0</ele><time>2026-04-12T12:00:47.433Z</time></trkpt><trkpt lat="42.8356267" lon="12.946485"><ele>422.0</ele><time>2026-04-12T12:00:48.432Z</time></trkpt><trkpt lat="42.8358783" lon="12.9465617"><ele>422.0</ele><time>2026-04-12T12:00:49.434Z</time></trkpt><trkpt lat="42.83614" lon="12.9466467"><ele>430.5</ele><time>2026-04-12T12:00:50.436Z</time></trkpt><trkpt lat="42.8364067" lon="12.9467283"><ele>439.0</ele><time>2026-04-12T12:00:51.43Z</time></trkpt><trkpt lat="42.83668" lon="12.94681"><ele>430.5</ele><time>2026-04-12T12:00:52.429Z</time></trkpt><trkpt lat="42.8369483" lon="12.9469"><ele>422.0</ele><time>2026-04-12T12:00:53.431Z</time></trkpt><trkpt lat="42.8372033" lon="12.94699"><ele>422.0</ele><time>2026-04-12T12:00:54.434Z</time></trkpt><trkpt lat="42.837445" lon="12.9470883"><ele>422.0</ele><time>2026-04-12T12:00:55.432Z</time></trkpt><trkpt lat="42.8376717" lon="12.9472017"><ele>414.5</ele><time>2026-04-12T12:00:56.435Z</time></trkpt><trkpt lat="42.83788" lon="12.9473367"><ele>407.0</ele><time>2026-04-12T12:00:57.432Z</time></trkpt><trkpt lat="42.83807" lon="12.947485"><ele>405.3333333333333</ele><time>2026-04-12T12:00:58.432Z</time></trkpt><trkpt lat="42.83825" lon="12.9476367"><ele>403.66666666666663</ele><time>2026-04-12T12:00:59.432Z</time></trkpt><trkpt lat="42.8384217" lon="12.94778"><ele>402.0</ele><time>2026-04-12T12:01:00.431Z</time></trkpt><trkpt lat="42.838585" lon="12.9479267"><ele>402.0</ele><time>2026-04-12T12:01:01.432Z</time></trkpt><trkpt lat="42.8387383" lon="12.94807"><ele>402.0</ele><time>2026-04-12T12:01:02.433Z</time></trkpt><trkpt lat="42.8388733" lon="12.94823"><ele>402.0</ele><time>2026-04-12T12:01:03.438Z</time></trkpt><trkpt lat="42.838995" lon="12.9484083"><ele>400.0</ele><time>2026-04-12T12:01:04.432Z</time></trkpt><trkpt lat="42.8391133" lon="12.9485917"><ele>398.0</ele><time>2026-04-12T12:01:05.438Z</time></trkpt><trkpt lat="42.839235" lon="12.9487617"><ele>396.0</ele><time>2026-04-12T12:01:06.433Z</time></trkpt><trkpt lat="42.83937" lon="12.9488983"><ele>396.0</ele><time>2026-04-12T12:01:07.434Z</time></trkpt><trkpt lat="42.8395133" lon="12.9489933"><ele>396.0</ele><time>2026-04-12T12:01:08.437Z</time></trkpt><trkpt lat="42.8396633" lon="12.9490533"><ele>396.0</ele><time>2026-04-12T12:01:09.431Z</time></trkpt><trkpt lat="42.8398167" lon="12.9491017"><ele>396.0</ele><time>2026-04-12T12:01:10.431Z</time></trkpt><trkpt lat="42.83996" lon="12.949165"><ele>396.0</ele><time>2026-04-12T12:01:11.431Z</time></trkpt><trkpt lat="42.8401017" lon="12.9492383"><ele>396.0</ele><time>2026-04-12T12:01:12.436Z</time></trkpt><trkpt lat="42.8402267" lon="12.9493333"><ele>396.0</ele><time>2026-04-12T12:01:13.43Z</time></trkpt><trkpt lat="42.8403283" lon="12.9494733"><ele>401.33333333333337</ele><time>2026-04-12T12:01:14.429Z</time></trkpt><trkpt lat="42.8404017" lon="12.94968"><ele>406.6666666666667</ele><time>2026-04-12T12:01:15.433Z</time></trkpt><trkpt lat="42.8404733" lon="12.9499267"><ele>412.0</ele><time>2026-04-12T12:01:16.432Z</time></trkpt><trkpt lat="42.8405467" lon="12.9501883"><ele>412.0</ele><time>2026-04-12T12:01:17.436Z</time></trkpt><trkpt lat="42.8406267" lon="12.9504433"><ele>412.0</ele><time>2026-04-12T12:01:18.431Z</time></trkpt><trkpt lat="42.840715" lon="12.9506917"><ele>412.0</ele><time>2026-04-12T12:01:19.43Z</time></trkpt><trkpt lat="42.8408183" lon="12.95091"><ele>409.33333333333337</ele><time>2026-04-12T12:01:20.436Z</time></trkpt><trkpt lat="42.84095" lon="12.9511067"><ele>406.66666666666663</ele><time>2026-04-12T12:01:21.426Z</time></trkpt><trkpt lat="42.8411233" lon="12.9512667"><ele>404.0</ele><time>2026-04-12T12:01:22.429Z</time></trkpt><trkpt lat="42.841325" lon="12.9514067"><ele>405.0</ele><time>2026-04-12T12:01:23.434Z</time></trkpt><trkpt lat="42.8415333" lon="12.9515533"><ele>406.0</ele><time>2026-04-12T12:01:24.433Z</time></trkpt><trkpt lat="42.8417367" lon="12.951715"><ele>421.5</ele><time>2026-04-12T12:01:25.43Z</time></trkpt><trkpt lat="42.841915" lon="12.9519"><ele>437.0</ele><time>2026-04-12T12:01:26.435Z</time></trkpt><trkpt lat="42.8420767" lon="12.952115"><ele>437.0</ele><time>2026-04-12T12:01:27.434Z</time></trkpt><trkpt lat="42.8422233" lon="12.9523633"><ele>437.0</ele><time>2026-04-12T12:01:28.433Z</time></trkpt><trkpt lat="42.8423683" lon="12.952645"><ele>444.0</ele><time>2026-04-12T12:01:29.428Z</time></trkpt><trkpt lat="42.842515" lon="12.95294"><ele>451.0</ele><time>2026-04-12T12:01:30.431Z</time></trkpt><trkpt lat="42.84267" lon="12.9532333"><ele>445.5</ele><time>2026-04-12T12:01:31.435Z</time></trkpt><trkpt lat="42.84281" lon="12.9535267"><ele>440.0</ele><time>2026-04-12T12:01:32.432Z</time></trkpt><trkpt lat="42.84295" lon="12.9538033"><ele>440.0</ele><time>2026-04-12T12:01:33.434Z</time></trkpt><trkpt lat="42.8430983" lon="12.9540817"><ele>440.0</ele><time>2026-04-12T12:01:34.432Z</time></trkpt><trkpt lat="42.8432583" lon="12.95436"><ele>448.0</ele><time>2026-04-12T12:01:35.428Z</time></trkpt><trkpt lat="42.8434367" lon="12.954635"><ele>456.0</ele><time>2026-04-12T12:01:36.431Z</time></trkpt><trkpt lat="42.84362" lon="12.9549133"><ele>442.5</ele><time>2026-04-12T12:01:37.435Z</time></trkpt><trkpt lat="42.843805" lon="12.9551883"><ele>429.0</ele><time>2026-04-12T12:01:38.427Z</time></trkpt><trkpt lat="42.843995" lon="12.95547"><ele>429.0</ele><time>2026-04-12T12:01:39.431Z</time></trkpt><trkpt lat="42.8441867" lon="12.9557483"><ele>429.0</ele><time>2026-04-12T12:01:40.436Z</time></trkpt><trkpt lat="42.84438" lon="12.9560233"><ele>433.5</ele><time>2026-04-12T12:01:41.43Z</time></trkpt><trkpt lat="42.8445733" lon="12.95631"><ele>438.0</ele><time>2026-04-12T12:01:42.434Z</time></trkpt><trkpt lat="42.8447633" lon="12.9565917"><ele>444.5</ele><time>2026-04-12T12:01:43.433Z</time></trkpt><trkpt lat="42.8449533" lon="12.9568767"><ele>451.0</ele><time>2026-04-12T12:01:44.434Z</time></trkpt><trkpt lat="42.8451417" lon="12.95716"><ele>451.0</ele><time>2026-04-12T12:01:45.433Z</time></trkpt><trkpt lat="42.8453283" lon="12.9574433"><ele>451.0</ele><time>2026-04-12T12:01:46.434Z</time></trkpt><trkpt lat="42.8455167" lon="12.9577267"><ele>441.5</ele><time>2026-04-12T12:01:47.436Z</time></trkpt><trkpt lat="42.845705" lon="12.9580083"><ele>432.0</ele><time>2026-04-12T12:01:48.444Z</time></trkpt><trkpt lat="42.8458883" lon="12.9582983"><ele>434.0</ele><time>2026-04-12T12:01:49.431Z</time></trkpt><trkpt lat="42.8460667" lon="12.95859"><ele>436.0</ele><time>2026-04-12T12:01:50.432Z</time></trkpt><trkpt lat="42.8462317" lon="12.9588867"><ele>436.0</ele><time>2026-04-12T12:01:51.432Z</time></trkpt><trkpt lat="42.846385" lon="12.9591767"><ele>436.0</ele><time>2026-04-12T12:01:52.433Z</time></trkpt><trkpt lat="42.8465317" lon="12.9594417"><ele>437.6666666666667</ele><time>2026-04-12T12:01:53.431Z</time></trkpt><trkpt lat="42.8466733" lon="12.95969"><ele>439.33333333333337</ele><time>2026-04-12T12:01:54.431Z</time></trkpt><trkpt lat="42.8468067" lon="12.959925"><ele>441.0</ele><time>2026-04-12T12:01:55.435Z</time></trkpt><trkpt lat="42.84693" lon="12.960155"><ele>441.0</ele><time>2026-04-12T12:01:56.437Z</time></trkpt><trkpt lat="42.8470433" lon="12.9604017"><ele>441.0</ele><time>2026-04-12T12:01:57.434Z</time></trkpt><trkpt lat="42.8471533" lon="12.9606633"><ele>441.0</ele><time>2026-04-12T12:01:58.431Z</time></trkpt><trkpt lat="42.8472633" lon="12.960935"><ele>433.0</ele><time>2026-04-12T12:01:59.432Z</time></trkpt><trkpt lat="42.8473783" lon="12.9612117"><ele>425.0</ele><time>2026-04-12T12:02:00.426Z</time></trkpt><trkpt lat="42.8475017" lon="12.96148"><ele>432.5</ele><time>2026-04-12T12:02:01.432Z</time></trkpt><trkpt lat="42.847635" lon="12.96175"><ele>440.0</ele><time>2026-04-12T12:02:02.429Z</time></trkpt><trkpt lat="42.8477783" lon="12.9620133"><ele>440.0</ele><time>2026-04-12T12:02:03.433Z</time></trkpt><trkpt lat="42.8479283" lon="12.96227"><ele>440.0</ele><time>2026-04-12T12:02:04.431Z</time></trkpt><trkpt lat="42.8480817" lon="12.9625267"><ele>432.5</ele><time>2026-04-12T12:02:05.43Z</time></trkpt><trkpt lat="42.8482367" lon="12.9627867"><ele>425.0</ele><time>2026-04-12T12:02:06.432Z</time></trkpt><trkpt lat="42.848395" lon="12.9630433"><ele>427.5</ele><time>2026-04-12T12:02:07.439Z</time></trkpt><trkpt lat="42.848555" lon="12.9632983"><ele>430.0</ele><time>2026-04-12T12:02:08.429Z</time></trkpt><trkpt lat="42.84872" lon="12.9635417"><ele>430.0</ele><time>2026-04-12T12:02:09.432Z</time></trkpt><trkpt lat="42.8488933" lon="12.9637783"><ele>430.0</ele><time>2026-04-12T12:02:10.433Z</time></trkpt><trkpt lat="42.8490633" lon="12.964015"><ele>435.5</ele><time>2026-04-12T12:02:11.433Z</time></trkpt><trkpt lat="42.8492333" lon="12.9642567"><ele>441.0</ele><time>2026-04-12T12:02:12.433Z</time></trkpt><trkpt lat="42.8494" lon="12.9645"><ele>441.0</ele><time>2026-04-12T12:02:13.432Z</time></trkpt><trkpt lat="42.8495683" lon="12.9647383"><ele>441.0</ele><time>2026-04-12T12:02:14.433Z</time></trkpt><trkpt lat="42.8497483" lon="12.9649583"><ele>442.5</ele><time>2026-04-12T12:02:15.432Z</time></trkpt><trkpt lat="42.84994" lon="12.9651583"><ele>444.0</ele><time>2026-04-12T12:02:16.432Z</time></trkpt><trkpt lat="42.8501367" lon="12.965345"><ele>444.0</ele><time>2026-04-12T12:02:17.439Z</time></trkpt><trkpt lat="42.8503217" lon="12.96552"><ele>444.0</ele><time>2026-04-12T12:02:18.431Z</time></trkpt><trkpt lat="42.8504933" lon="12.9656817"><ele>444.0</ele><time>2026-04-12T12:02:19.429Z</time></trkpt><trkpt lat="42.8506533" lon="12.96584"><ele>439.66666666666663</ele><time>2026-04-12T12:02:20.432Z</time></trkpt><trkpt lat="42.850785" lon="12.9660067"><ele>435.3333333333333</ele><time>2026-04-12T12:02:21.432Z</time></trkpt><trkpt lat="42.850885" lon="12.966205"><ele>431.0</ele><time>2026-04-12T12:02:22.429Z</time></trkpt><trkpt lat="42.8509483" lon="12.9664317"><ele>432.0</ele><time>2026-04-12T12:02:23.437Z</time></trkpt><trkpt lat="42.8509867" lon="12.9666617"><ele>433.0</ele><time>2026-04-12T12:02:24.431Z</time></trkpt><trkpt lat="42.8510367" lon="12.9668833"><ele>434.0</ele><time>2026-04-12T12:02:25.432Z</time></trkpt><trkpt lat="42.8511167" lon="12.96709"><ele>434.0</ele><time>2026-04-12T12:02:26.43Z</time></trkpt><trkpt lat="42.8512317" lon="12.967275"><ele>434.0</ele><time>2026-04-12T12:02:27.43Z</time></trkpt><trkpt lat="42.85137" lon="12.9674217"><ele>434.0</ele><time>2026-04-12T12:02:28.43Z</time></trkpt><trkpt lat="42.8515283" lon="12.9675267"><ele>432.0</ele><time>2026-04-12T12:02:29.43Z</time></trkpt><trkpt lat="42.8516917" lon="12.967615"><ele>430.0</ele><time>2026-04-12T12:02:30.43Z</time></trkpt><trkpt lat="42.8518517" lon="12.9677017"><ele>428.0</ele><time>2026-04-12T12:02:31.434Z</time></trkpt><trkpt lat="42.85201" lon="12.9677883"><ele>428.0</ele><time>2026-04-12T12:02:32.434Z</time></trkpt><trkpt lat="42.8521633" lon="12.9678717"><ele>428.0</ele><time>2026-04-12T12:02:33.434Z</time></trkpt><trkpt lat="42.8523167" lon="12.9679517"><ele>428.0</ele><time>2026-04-12T12:02:34.425Z</time></trkpt><trkpt lat="42.8524633" lon="12.9680433"><ele>428.0</ele><time>2026-04-12T12:02:35.432Z</time></trkpt><trkpt lat="42.8526083" lon="12.9681583"><ele>428.0</ele><time>2026-04-12T12:02:36.429Z</time></trkpt><trkpt lat="42.8527417" lon="12.9682983"><ele>428.0</ele><time>2026-04-12T12:02:37.432Z</time></trkpt><trkpt lat="42.8528633" lon="12.9684667"><ele>430.3333333333333</ele><time>2026-04-12T12:02:38.434Z</time></trkpt><trkpt lat="42.8529667" lon="12.9686583"><ele>432.66666666666663</ele><time>2026-04-12T12:02:39.432Z</time></trkpt><trkpt lat="42.8530583" lon="12.9688633"><ele>435.0</ele><time>2026-04-12T12:02:40.433Z</time></trkpt><trkpt lat="42.8531483" lon="12.9690517"><ele>432.33333333333337</ele><time>2026-04-12T12:02:41.434Z</time></trkpt><trkpt lat="42.8532483" lon="12.9692183"><ele>429.6666666666667</ele><time>2026-04-12T12:02:42.433Z</time></trkpt><trkpt lat="42.8533683" lon="12.9693433"><ele>427.0</ele><time>2026-04-12T12:02:43.431Z</time></trkpt><trkpt lat="42.85351" lon="12.9694283"><ele>427.0</ele><time>2026-04-12T12:02:44.431Z</time></trkpt><trkpt lat="42.8536733" lon="12.9694833"><ele>427.0</ele><time>2026-04-12T12:02:45.431Z</time></trkpt><trkpt lat="42.8538583" lon="12.9695333"><ele>427.0</ele><time>2026-04-12T12:02:46.431Z</time></trkpt><trkpt lat="42.8540383" lon="12.9696233"><ele>427.0</ele><time>2026-04-12T12:02:47.431Z</time></trkpt><trkpt lat="42.8542117" lon="12.969755"><ele>427.0</ele><time>2026-04-12T12:02:48.431Z</time></trkpt><trkpt lat="42.854385" lon="12.9699033"><ele>427.0</ele><time>2026-04-12T12:02:49.433Z</time></trkpt><trkpt lat="42.85456" lon="12.97005"><ele>430.0</ele><time>2026-04-12T12:02:50.435Z</time></trkpt><trkpt lat="42.8547233" lon="12.9702017"><ele>433.0</ele><time>2026-04-12T12:02:51.434Z</time></trkpt><trkpt lat="42.8548783" lon="12.9703517"><ele>436.0</ele><time>2026-04-12T12:02:52.431Z</time></trkpt><trkpt lat="42.8550183" lon="12.97052"><ele>441.33333333333337</ele><time>2026-04-12T12:02:53.43Z</time></trkpt><trkpt lat="42.855155" lon="12.9707167"><ele>446.66666666666663</ele><time>2026-04-12T12:02:54.429Z</time></trkpt><trkpt lat="42.85529" lon="12.9709467"><ele>452.0</ele><time>2026-04-12T12:02:55.435Z</time></trkpt><trkpt lat="42.8554267" lon="12.9711967"><ele>452.0</ele><time>2026-04-12T12:02:56.431Z</time></trkpt><trkpt lat="42.8555533" lon="12.971445"><ele>452.0</ele><time>2026-04-12T12:02:57.432Z</time></trkpt><trkpt lat="42.85567" lon="12.971675"><ele>452.0</ele><time>2026-04-12T12:02:58.428Z</time></trkpt><trkpt lat="42.8557667" lon="12.9719067"><ele>451.0</ele><time>2026-04-12T12:02:59.435Z</time></trkpt><trkpt lat="42.8558517" lon="12.9721183"><ele>450.0</ele><time>2026-04-12T12:03:00.435Z</time></trkpt><trkpt lat="42.85594" lon="12.9723017"><ele>449.0</ele><time>2026-04-12T12:03:01.433Z</time></trkpt><trkpt lat="42.8560483" lon="12.97244"><ele>449.0</ele><time>2026-04-12T12:03:02.431Z</time></trkpt><trkpt lat="42.8561933" lon="12.9725217"><ele>449.0</ele><time>2026-04-12T12:03:03.427Z</time></trkpt><trkpt lat="42.8563817" lon="12.97256"><ele>449.0</ele><time>2026-04-12T12:03:04.431Z</time></trkpt><trkpt lat="42.8566017" lon="12.9725783"><ele>441.5</ele><time>2026-04-12T12:03:05.427Z</time></trkpt><trkpt lat="42.85683" lon="12.97263"><ele>434.0</ele><time>2026-04-12T12:03:06.427Z</time></trkpt><trkpt lat="42.8570517" lon="12.972725"><ele>434.0</ele><time>2026-04-12T12:03:07.426Z</time></trkpt><trkpt lat="42.8572567" lon="12.9728383"><ele>434.0</ele><time>2026-04-12T12:03:08.43Z</time></trkpt><trkpt lat="42.8574417" lon="12.972995"><ele>434.0</ele><time>2026-04-12T12:03:09.433Z</time></trkpt><trkpt lat="42.857625" lon="12.97318"><ele>433.0</ele><time>2026-04-12T12:03:10.431Z</time></trkpt><trkpt lat="42.8578083" lon="12.9734133"><ele>432.0</ele><time>2026-04-12T12:03:11.431Z</time></trkpt><trkpt lat="42.8580017" lon="12.97364"><ele>432.0</ele><time>2026-04-12T12:03:12.43Z</time></trkpt><trkpt lat="42.8581917" lon="12.9738333"><ele>432.0</ele><time>2026-04-12T12:03:13.435Z</time></trkpt><trkpt lat="42.85838" lon="12.9739933"><ele>433.0</ele><time>2026-04-12T12:03:14.433Z</time></trkpt><trkpt lat="42.8585617" lon="12.9741267"><ele>434.0</ele><time>2026-04-12T12:03:15.429Z</time></trkpt><trkpt lat="42.8587417" lon="12.9742283"><ele>435.0</ele><time>2026-04-12T12:03:16.43Z</time></trkpt><trkpt lat="42.8589167" lon="12.9742733"><ele>435.0</ele><time>2026-04-12T12:03:17.431Z</time></trkpt><trkpt lat="42.859115" lon="12.974255"><ele>435.0</ele><time>2026-04-12T12:03:18.434Z</time></trkpt><trkpt lat="42.859325" lon="12.9741517"><ele>435.0</ele><time>2026-04-12T12:03:19.432Z</time></trkpt><trkpt lat="42.85953" lon="12.9740233"><ele>439.33333333333337</ele><time>2026-04-12T12:03:20.431Z</time></trkpt><trkpt lat="42.85972" lon="12.973915"><ele>443.6666666666667</ele><time>2026-04-12T12:03:21.435Z</time></trkpt><trkpt lat="42.8599033" lon="12.9738517"><ele>448.0</ele><time>2026-04-12T12:03:22.428Z</time></trkpt><trkpt lat="42.8600917" lon="12.9738617"><ele>454.33333333333337</ele><time>2026-04-12T12:03:23.432Z</time></trkpt><trkpt lat="42.8602883" lon="12.9739417"><ele>460.66666666666663</ele><time>2026-04-12T12:03:24.431Z</time></trkpt><trkpt lat="42.86047" lon="12.974035"><ele>467.0</ele><time>2026-04-12T12:03:25.435Z</time></trkpt><trkpt lat="42.8606283" lon="12.9741533"><ele>461.0</ele><time>2026-04-12T12:03:26.429Z</time></trkpt><trkpt lat="42.86076" lon="12.9743133"><ele>455.0</ele><time>2026-04-12T12:03:27.434Z</time></trkpt><trkpt lat="42.8608583" lon="12.9745433"><ele>449.0</ele><time>2026-04-12T12:03:28.432Z</time></trkpt><trkpt lat="42.8609333" lon="12.97482"><ele>458.0</ele><time>2026-04-12T12:03:29.431Z</time></trkpt><trkpt lat="42.8610067" lon="12.9751117"><ele>467.0</ele><time>2026-04-12T12:03:30.43Z</time></trkpt><trkpt lat="42.861075" lon="12.9754017"><ele>476.0</ele><time>2026-04-12T12:03:31.431Z</time></trkpt><trkpt lat="42.8611483" lon="12.9756817"><ele>471.3333333333333</ele><time>2026-04-12T12:03:32.435Z</time></trkpt><trkpt lat="42.8612333" lon="12.9759367"><ele>466.66666666666663</ele><time>2026-04-12T12:03:33.431Z</time></trkpt><trkpt lat="42.861315" lon="12.97619"><ele>462.0</ele><time>2026-04-12T12:03:34.434Z</time></trkpt><trkpt lat="42.8613667" lon="12.9764483"><ele>459.66666666666663</ele><time>2026-04-12T12:03:35.43Z</time></trkpt><trkpt lat="42.8613833" lon="12.9767117"><ele>457.3333333333333</ele><time>2026-04-12T12:03:36.433Z</time></trkpt><trkpt lat="42.861355" lon="12.976985"><ele>455.0</ele><time>2026-04-12T12:03:37.432Z</time></trkpt><trkpt lat="42.8612967" lon="12.9772733"><ele>460.5</ele><time>2026-04-12T12:03:38.442Z</time></trkpt><trkpt lat="42.8612433" lon="12.977575"><ele>466.0</ele><time>2026-04-12T12:03:39.431Z</time></trkpt><trkpt lat="42.8612083" lon="12.9778983"><ele>466.0</ele><time>2026-04-12T12:03:40.427Z</time></trkpt><trkpt lat="42.8611883" lon="12.978235"><ele>466.0</ele><time>2026-04-12T12:03:41.433Z</time></trkpt><trkpt lat="42.861165" lon="12.9785833"><ele>472.0</ele><time>2026-04-12T12:03:42.435Z</time></trkpt><trkpt lat="42.8611233" lon="12.97893"><ele>478.0</ele><time>2026-04-12T12:03:43.431Z</time></trkpt><trkpt lat="42.8610817" lon="12.979255"><ele>478.0</ele><time>2026-04-12T12:03:44.432Z</time></trkpt><trkpt lat="42.861055" lon="12.9795583"><ele>478.0</ele><time>2026-04-12T12:03:45.431Z</time></trkpt><trkpt lat="42.8610533" lon="12.9798333"><ele>478.0</ele><time>2026-04-12T12:03:46.433Z</time></trkpt><trkpt lat="42.8610933" lon="12.9800817"><ele>471.0</ele><time>2026-04-12T12:03:47.432Z</time></trkpt><trkpt lat="42.8611833" lon="12.9803167"><ele>464.0</ele><time>2026-04-12T12:03:48.432Z</time></trkpt><trkpt lat="42.86132" lon="12.9805467"><ele>457.0</ele><time>2026-04-12T12:03:49.433Z</time></trkpt><trkpt lat="42.8614767" lon="12.9808"><ele>451.0</ele><time>2026-04-12T12:03:50.437Z</time></trkpt><trkpt lat="42.8616267" lon="12.9810683"><ele>445.0</ele><time>2026-04-12T12:03:51.435Z</time></trkpt><trkpt lat="42.8617583" lon="12.9813283"><ele>446.0</ele><time>2026-04-12T12:03:52.43Z</time></trkpt><trkpt lat="42.861875" lon="12.981575"><ele>447.0</ele><time>2026-04-12T12:03:53.434Z</time></trkpt><trkpt lat="42.8619883" lon="12.9818067"><ele>448.0</ele><time>2026-04-12T12:03:54.434Z</time></trkpt><trkpt lat="42.862115" lon="12.9820167"><ele>448.0</ele><time>2026-04-12T12:03:55.432Z</time></trkpt><trkpt lat="42.86227" lon="12.9822017"><ele>448.0</ele><time>2026-04-12T12:03:56.434Z</time></trkpt><trkpt lat="42.862445" lon="12.98236"><ele>448.0</ele><time>2026-04-12T12:03:57.43Z</time></trkpt><trkpt lat="42.86263" lon="12.9824833"><ele>444.0</ele><time>2026-04-12T12:03:58.434Z</time></trkpt><trkpt lat="42.86284" lon="12.982565"><ele>440.0</ele><time>2026-04-12T12:03:59.432Z</time></trkpt><trkpt lat="42.8630783" lon="12.9826"><ele>440.0</ele><time>2026-04-12T12:04:00.43Z</time></trkpt><trkpt lat="42.8633267" lon="12.98262"><ele>440.0</ele><time>2026-04-12T12:04:01.435Z</time></trkpt><trkpt lat="42.8635717" lon="12.982645"><ele>441.5</ele><time>2026-04-12T12:04:02.434Z</time></trkpt><trkpt lat="42.8638067" lon="12.9826967"><ele>443.0</ele><time>2026-04-12T12:04:03.435Z</time></trkpt><trkpt lat="42.8640417" lon="12.9827917"><ele>443.0</ele><time>2026-04-12T12:04:04.43Z</time></trkpt><trkpt lat="42.8642767" lon="12.9829333"><ele>443.0</ele><time>2026-04-12T12:04:05.434Z</time></trkpt><trkpt lat="42.86451" lon="12.9831117"><ele>443.5</ele><time>2026-04-12T12:04:06.436Z</time></trkpt><trkpt lat="42.8647333" lon="12.9833"><ele>444.0</ele><time>2026-04-12T12:04:07.433Z</time></trkpt><trkpt lat="42.8649417" lon="12.9834783"><ele>443.66666666666663</ele><time>2026-04-12T12:04:08.434Z</time></trkpt><trkpt lat="42.8651383" lon="12.9836433"><ele>443.3333333333333</ele><time>2026-04-12T12:04:09.432Z</time></trkpt><trkpt lat="42.8653317" lon="12.9837717"><ele>443.0</ele><time>2026-04-12T12:04:10.429Z</time></trkpt><trkpt lat="42.8655367" lon="12.983855"><ele>443.0</ele><time>2026-04-12T12:04:11.43Z</time></trkpt><trkpt lat="42.8657667" lon="12.9838883"><ele>443.0</ele><time>2026-04-12T12:04:12.434Z</time></trkpt><trkpt lat="42.8660283" lon="12.983905"><ele>445.5</ele><time>2026-04-12T12:04:13.435Z</time></trkpt><trkpt lat="42.8662967" lon="12.98391"><ele>448.0</ele><time>2026-04-12T12:04:14.435Z</time></trkpt><trkpt lat="42.8665583" lon="12.9839117"><ele>450.0</ele><time>2026-04-12T12:04:15.431Z</time></trkpt><trkpt lat="42.8668067" lon="12.9839167"><ele>452.0</ele><time>2026-04-12T12:04:16.433Z</time></trkpt><trkpt lat="42.867045" lon="12.9839317"><ele>452.0</ele><time>2026-04-12T12:04:17.433Z</time></trkpt><trkpt lat="42.8672783" lon="12.9839833"><ele>452.0</ele><time>2026-04-12T12:04:18.435Z</time></trkpt><trkpt lat="42.86751" lon="12.9840883"><ele>453.0</ele><time>2026-04-12T12:04:19.426Z</time></trkpt><trkpt lat="42.8677367" lon="12.984225"><ele>454.0</ele><time>2026-04-12T12:04:20.431Z</time></trkpt><trkpt lat="42.8679483" lon="12.9843667"><ele>454.0</ele><time>2026-04-12T12:04:21.428Z</time></trkpt><trkpt lat="42.8681333" lon="12.9845283"><ele>454.0</ele><time>2026-04-12T12:04:22.434Z</time></trkpt><trkpt lat="42.868295" lon="12.9847167"><ele>454.0</ele><time>2026-04-12T12:04:23.435Z</time></trkpt><trkpt lat="42.8684133" lon="12.9849483"><ele>458.33333333333337</ele><time>2026-04-12T12:04:24.43Z</time></trkpt><trkpt lat="42.8684967" lon="12.9852033"><ele>462.66666666666663</ele><time>2026-04-12T12:04:25.433Z</time></trkpt><trkpt lat="42.8685583" lon="12.985485"><ele>467.0</ele><time>2026-04-12T12:04:26.437Z</time></trkpt><trkpt lat="42.8686367" lon="12.9857617"><ele>463.5</ele><time>2026-04-12T12:04:27.43Z</time></trkpt><trkpt lat="42.8687483" lon="12.986045"><ele>460.0</ele><time>2026-04-12T12:04:28.43Z</time></trkpt><trkpt lat="42.8688917" lon="12.98633"><ele>460.0</ele><time>2026-04-12T12:04:29.434Z</time></trkpt><trkpt lat="42.8690533" lon="12.9866183"><ele>460.0</ele><time>2026-04-12T12:04:30.431Z</time></trkpt><trkpt lat="42.86921" lon="12.9868933"><ele>476.0</ele><time>2026-04-12T12:04:31.441Z</time></trkpt><trkpt lat="42.86935" lon="12.9871683"><ele>492.0</ele><time>2026-04-12T12:04:32.428Z</time></trkpt><trkpt lat="42.869475" lon="12.9874317"><ele>483.0</ele><time>2026-04-12T12:04:33.43Z</time></trkpt><trkpt lat="42.8695817" lon="12.9877067"><ele>474.0</ele><time>2026-04-12T12:04:34.431Z</time></trkpt><trkpt lat="42.8696633" lon="12.987985"><ele>465.0</ele><time>2026-04-12T12:04:35.429Z</time></trkpt><trkpt lat="42.8697317" lon="12.9882417"><ele>460.33333333333337</ele><time>2026-04-12T12:04:36.433Z</time></trkpt><trkpt lat="42.8698033" lon="12.988485"><ele>455.6666666666667</ele><time>2026-04-12T12:04:37.43Z</time></trkpt><trkpt lat="42.8699117" lon="12.9887033"><ele>451.0</ele><time>2026-04-12T12:04:38.433Z</time></trkpt><trkpt lat="42.8700667" lon="12.9889033"><ele>451.0</ele><time>2026-04-12T12:04:39.432Z</time></trkpt><trkpt lat="42.870255" lon="12.9890933"><ele>451.0</ele><time>2026-04-12T12:04:40.426Z</time></trkpt><trkpt lat="42.87045" lon="12.9892833"><ele>451.0</ele><time>2026-04-12T12:04:41.437Z</time></trkpt><trkpt lat="42.8706467" lon="12.98946"><ele>451.0</ele><time>2026-04-12T12:04:42.43Z</time></trkpt><trkpt lat="42.8708533" lon="12.9896117"><ele>452.0</ele><time>2026-04-12T12:04:43.429Z</time></trkpt><trkpt lat="42.8710717" lon="12.9897367"><ele>453.0</ele><time>2026-04-12T12:04:44.43Z</time></trkpt><trkpt lat="42.8713067" lon="12.9898167"><ele>453.0</ele><time>2026-04-12T12:04:45.431Z</time></trkpt><trkpt lat="42.8715583" lon="12.9898683"><ele>453.0</ele><time>2026-04-12T12:04:46.433Z</time></trkpt><trkpt lat="42.8718167" lon="12.989895"><ele>456.5</ele><time>2026-04-12T12:04:47.428Z</time></trkpt><trkpt lat="42.8720817" lon="12.9899117"><ele>460.0</ele><time>2026-04-12T12:04:48.43Z</time></trkpt><trkpt lat="42.8723533" lon="12.9899233"><ele>459.5</ele><time>2026-04-12T12:04:49.432Z</time></trkpt><trkpt lat="42.872625" lon="12.989925"><ele>459.0</ele><time>2026-04-12T12:04:50.431Z</time></trkpt><trkpt lat="42.8728933" lon="12.9899283"><ele>459.0</ele><time>2026-04-12T12:04:51.435Z</time></trkpt><trkpt lat="42.8731617" lon="12.9899367"><ele>459.0</ele><time>2026-04-12T12:04:52.435Z</time></trkpt><trkpt lat="42.8734267" lon="12.98995"><ele>457.5</ele><time>2026-04-12T12:04:53.427Z</time></trkpt><trkpt lat="42.873695" lon="12.9899533"><ele>456.0</ele><time>2026-04-12T12:04:54.43Z</time></trkpt><trkpt lat="42.8739667" lon="12.9899533"><ele>456.0</ele><time>2026-04-12T12:04:55.43Z</time></trkpt><trkpt lat="42.8742417" lon="12.98996"><ele>456.0</ele><time>2026-04-12T12:04:56.431Z</time></trkpt><trkpt lat="42.8745067" lon="12.989975"><ele>456.0</ele><time>2026-04-12T12:04:57.43Z</time></trkpt><trkpt lat="42.8747667" lon="12.9899867"><ele>456.0</ele><time>2026-04-12T12:04:58.433Z</time></trkpt><trkpt lat="42.8750267" lon="12.9899933"><ele>458.0</ele><time>2026-04-12T12:04:59.433Z</time></trkpt><trkpt lat="42.875285" lon="12.9899983"><ele>460.0</ele><time>2026-04-12T12:05:00.431Z</time></trkpt><trkpt lat="42.87554" lon="12.9900033"><ele>453.5</ele><time>2026-04-12T12:05:01.432Z</time></trkpt><trkpt lat="42.8757833" lon="12.9900117"><ele>447.0</ele><time>2026-04-12T12:05:02.434Z</time></trkpt><trkpt lat="42.876015" lon="12.9900267"><ele>446.5</ele><time>2026-04-12T12:05:03.428Z</time></trkpt><trkpt lat="42.876245" lon="12.9900717"><ele>446.0</ele><time>2026-04-12T12:05:04.43Z</time></trkpt><trkpt lat="42.876475" lon="12.99014"><ele>446.0</ele><time>2026-04-12T12:05:05.431Z</time></trkpt><trkpt lat="42.876715" lon="12.990215"><ele>446.0</ele><time>2026-04-12T12:05:06.431Z</time></trkpt><trkpt lat="42.8769517" lon="12.9902917"><ele>448.5</ele><time>2026-04-12T12:05:07.429Z</time></trkpt><trkpt lat="42.877185" lon="12.9903683"><ele>451.0</ele><time>2026-04-12T12:05:08.429Z</time></trkpt><trkpt lat="42.8774067" lon="12.9904417"><ele>452.33333333333337</ele><time>2026-04-12T12:05:09.43Z</time></trkpt><trkpt lat="42.8776117" lon="12.9905133"><ele>453.66666666666663</ele><time>2026-04-12T12:05:10.428Z</time></trkpt><trkpt lat="42.8777967" lon="12.9905933"><ele>455.0</ele><time>2026-04-12T12:05:11.432Z</time></trkpt><trkpt lat="42.87797" lon="12.9906867"><ele>455.0</ele><time>2026-04-12T12:05:12.434Z</time></trkpt><trkpt lat="42.8781233" lon="12.99079"><ele>455.0</ele><time>2026-04-12T12:05:13.429Z</time></trkpt><trkpt lat="42.8782683" lon="12.990895"><ele>455.0</ele><time>2026-04-12T12:05:14.435Z</time></trkpt><trkpt lat="42.8784083" lon="12.9909983"><ele>454.0</ele><time>2026-04-12T12:05:15.433Z</time></trkpt><trkpt lat="42.87855" lon="12.991095"><ele>453.0</ele><time>2026-04-12T12:05:16.43Z</time></trkpt><trkpt lat="42.8786967" lon="12.991185"><ele>452.0</ele><time>2026-04-12T12:05:17.432Z</time></trkpt><trkpt lat="42.87885" lon="12.9912667"><ele>452.0</ele><time>2026-04-12T12:05:18.432Z</time></trkpt><trkpt lat="42.8790067" lon="12.9913383"><ele>452.0</ele><time>2026-04-12T12:05:19.432Z</time></trkpt><trkpt lat="42.8791717" lon="12.991405"><ele>452.0</ele><time>2026-04-12T12:05:20.433Z</time></trkpt><trkpt lat="42.8793467" lon="12.99148"><ele>453.0</ele><time>2026-04-12T12:05:21.429Z</time></trkpt><trkpt lat="42.87953" lon="12.991565"><ele>454.0</ele><time>2026-04-12T12:05:22.433Z</time></trkpt><trkpt lat="42.8797117" lon="12.991665"><ele>455.0</ele><time>2026-04-12T12:05:23.435Z</time></trkpt><trkpt lat="42.8798817" lon="12.9917667"><ele>455.0</ele><time>2026-04-12T12:05:24.437Z</time></trkpt><trkpt lat="42.88004" lon="12.99187"><ele>455.0</ele><time>2026-04-12T12:05:25.432Z</time></trkpt><trkpt lat="42.8801917" lon="12.9919733"><ele>455.0</ele><time>2026-04-12T12:05:26.433Z</time></trkpt><trkpt lat="42.8803383" lon="12.99208"><ele>455.3333333333333</ele><time>2026-04-12T12:05:27.43Z</time></trkpt><trkpt lat="42.8804883" lon="12.9922"><ele>455.66666666666663</ele><time>2026-04-12T12:05:28.427Z</time></trkpt><trkpt lat="42.8806417" lon="12.992325"><ele>456.0</ele><time>2026-04-12T12:05:29.431Z</time></trkpt><trkpt lat="42.8807983" lon="12.992455"><ele>456.0</ele><time>2026-04-12T12:05:30.433Z</time></trkpt><trkpt lat="42.8809533" lon="12.99259"><ele>456.0</ele><time>2026-04-12T12:05:31.43Z</time></trkpt><trkpt lat="42.8811117" lon="12.99273"><ele>456.0</ele><time>2026-04-12T12:05:32.436Z</time></trkpt><trkpt lat="42.88127" lon="12.9928767"><ele>456.0</ele><time>2026-04-12T12:05:33.435Z</time></trkpt><trkpt lat="42.8814367" lon="12.9930217"><ele>456.0</ele><time>2026-04-12T12:05:34.431Z</time></trkpt><trkpt lat="42.8816083" lon="12.9931633"><ele>456.0</ele><time>2026-04-12T12:05:35.434Z</time></trkpt><trkpt lat="42.8817867" lon="12.9932933"><ele>456.0</ele><time>2026-04-12T12:05:36.428Z</time></trkpt><trkpt lat="42.8819733" lon="12.993395"><ele>456.0</ele><time>2026-04-12T12:05:37.43Z</time></trkpt><trkpt lat="42.8821817" lon="12.993455"><ele>456.0</ele><time>2026-04-12T12:05:38.444Z</time></trkpt><trkpt lat="42.8824067" lon="12.9935"><ele>458.5</ele><time>2026-04-12T12:05:39.431Z</time></trkpt><trkpt lat="42.8826333" lon="12.993555"><ele>461.0</ele><time>2026-04-12T12:05:40.429Z</time></trkpt><trkpt lat="42.8828517" lon="12.9936383"><ele>461.0</ele><time>2026-04-12T12:05:41.431Z</time></trkpt><trkpt lat="42.8830667" lon="12.9937617"><ele>461.0</ele><time>2026-04-12T12:05:42.433Z</time></trkpt><trkpt lat="42.88328" lon="12.99393"><ele>465.0</ele><time>2026-04-12T12:05:43.431Z</time></trkpt><trkpt lat="42.8835" lon="12.9941083"><ele>469.0</ele><time>2026-04-12T12:05:44.433Z</time></trkpt><trkpt lat="42.8837417" lon="12.994275"><ele>461.0</ele><time>2026-04-12T12:05:45.43Z</time></trkpt><trkpt lat="42.883995" lon="12.9944283"><ele>453.0</ele><time>2026-04-12T12:05:46.431Z</time></trkpt><trkpt lat="42.8842483" lon="12.9945767"><ele>459.0</ele><time>2026-04-12T12:05:47.432Z</time></trkpt><trkpt lat="42.8844967" lon="12.9947383"><ele>465.0</ele><time>2026-04-12T12:05:48.432Z</time></trkpt><trkpt lat="42.88474" lon="12.9949233"><ele>462.0</ele><time>2026-04-12T12:05:49.435Z</time></trkpt><trkpt lat="42.8849767" lon="12.9951367"><ele>459.0</ele><time>2026-04-12T12:05:50.434Z</time></trkpt><trkpt lat="42.8852083" lon="12.99537"><ele>458.5</ele><time>2026-04-12T12:05:51.432Z</time></trkpt><trkpt lat="42.88544" lon="12.99561"><ele>458.0</ele><time>2026-04-12T12:05:52.432Z</time></trkpt><trkpt lat="42.8856733" lon="12.9958483"><ele>458.0</ele><time>2026-04-12T12:05:53.431Z</time></trkpt><trkpt lat="42.8859083" lon="12.9960783"><ele>458.0</ele><time>2026-04-12T12:05:54.432Z</time></trkpt><trkpt lat="42.886145" lon="12.9963033"><ele>458.0</ele><time>2026-04-12T12:05:55.437Z</time></trkpt><trkpt lat="42.8863917" lon="12.9965117"><ele>458.0</ele><time>2026-04-12T12:05:56.435Z</time></trkpt><trkpt lat="42.8866467" lon="12.9967083"><ele>459.5</ele><time>2026-04-12T12:05:57.432Z</time></trkpt><trkpt lat="42.8869033" lon="12.9969"><ele>461.0</ele><time>2026-04-12T12:05:58.434Z</time></trkpt><trkpt lat="42.8871633" lon="12.9970933"><ele>461.0</ele><time>2026-04-12T12:05:59.433Z</time></trkpt><trkpt lat="42.887425" lon="12.9972867"><ele>461.0</ele><time>2026-04-12T12:06:00.432Z</time></trkpt><trkpt lat="42.8876767" lon="12.9974917"><ele>463.5</ele><time>2026-04-12T12:06:01.429Z</time></trkpt><trkpt lat="42.8879167" lon="12.9977183"><ele>466.0</ele><time>2026-04-12T12:06:02.434Z</time></trkpt><trkpt lat="42.8881467" lon="12.9979683"><ele>466.0</ele><time>2026-04-12T12:06:03.436Z</time></trkpt><trkpt lat="42.88837" lon="12.998235"><ele>466.0</ele><time>2026-04-12T12:06:04.43Z</time></trkpt><trkpt lat="42.8885817" lon="12.99851"><ele>469.0</ele><time>2026-04-12T12:06:05.432Z</time></trkpt><trkpt lat="42.8887817" lon="12.9987717"><ele>472.0</ele><time>2026-04-12T12:06:06.431Z</time></trkpt><trkpt lat="42.8889717" lon="12.9990167"><ele>469.0</ele><time>2026-04-12T12:06:07.433Z</time></trkpt><trkpt lat="42.8891417" lon="12.9992567"><ele>466.0</ele><time>2026-04-12T12:06:08.433Z</time></trkpt><trkpt lat="42.8892833" lon="12.9995067"><ele>474.5</ele><time>2026-04-12T12:06:09.43Z</time></trkpt><trkpt lat="42.8893917" lon="12.9997783"><ele>483.0</ele><time>2026-04-12T12:06:10.435Z</time></trkpt><trkpt lat="42.8894683" lon="13.0000733"><ele>483.0</ele><time>2026-04-12T12:06:11.434Z</time></trkpt><trkpt lat="42.8895367" lon="13.0003717"><ele>483.0</ele><time>2026-04-12T12:06:12.432Z</time></trkpt><trkpt lat="42.8896217" lon="13.0006617"><ele>477.0</ele><time>2026-04-12T12:06:13.433Z</time></trkpt><trkpt lat="42.8897383" lon="13.0009267"><ele>471.0</ele><time>2026-04-12T12:06:14.433Z</time></trkpt><trkpt lat="42.889895" lon="13.00116"><ele>471.0</ele><time>2026-04-12T12:06:15.434Z</time></trkpt><trkpt lat="42.8900833" lon="13.00136"><ele>471.0</ele><time>2026-04-12T12:06:16.432Z</time></trkpt><trkpt lat="42.8903017" lon="13.00153"><ele>470.0</ele><time>2026-04-12T12:06:17.433Z</time></trkpt><trkpt lat="42.8905383" lon="13.00168"><ele>469.0</ele><time>2026-04-12T12:06:18.443Z</time></trkpt><trkpt lat="42.8907767" lon="13.0018083"><ele>476.0</ele><time>2026-04-12T12:06:19.434Z</time></trkpt><trkpt lat="42.891005" lon="13.0019317"><ele>483.0</ele><time>2026-04-12T12:06:20.431Z</time></trkpt><trkpt lat="42.8912233" lon="13.0020717"><ele>483.0</ele><time>2026-04-12T12:06:21.429Z</time></trkpt><trkpt lat="42.8914283" lon="13.0022433"><ele>483.0</ele><time>2026-04-12T12:06:22.432Z</time></trkpt><trkpt lat="42.89161" lon="13.0024567"><ele>498.5</ele><time>2026-04-12T12:06:23.434Z</time></trkpt><trkpt lat="42.8917633" lon="13.0026967"><ele>514.0</ele><time>2026-04-12T12:06:24.433Z</time></trkpt><trkpt lat="42.8918917" lon="13.0029467"><ele>514.0</ele><time>2026-04-12T12:06:25.431Z</time></trkpt><trkpt lat="42.8919933" lon="13.00322"><ele>514.0</ele><time>2026-04-12T12:06:26.431Z</time></trkpt><trkpt lat="42.89208" lon="13.0035183"><ele>507.5</ele><time>2026-04-12T12:06:27.427Z</time></trkpt><trkpt lat="42.8921483" lon="13.0038433"><ele>501.0</ele><time>2026-04-12T12:06:28.433Z</time></trkpt><trkpt lat="42.8922" lon="13.0041933"><ele>496.0</ele><time>2026-04-12T12:06:29.43Z</time></trkpt><trkpt lat="42.89225" lon="13.00453"><ele>491.0</ele><time>2026-04-12T12:06:30.425Z</time></trkpt><trkpt lat="42.89231" lon="13.004845"><ele>484.5</ele><time>2026-04-12T12:06:31.427Z</time></trkpt><trkpt lat="42.8923917" lon="13.005145"><ele>478.0</ele><time>2026-04-12T12:06:32.435Z</time></trkpt><trkpt lat="42.8924933" lon="13.005435"><ele>491.5</ele><time>2026-04-12T12:06:33.432Z</time></trkpt><trkpt lat="42.8926233" lon="13.0057083"><ele>505.0</ele><time>2026-04-12T12:06:34.428Z</time></trkpt><trkpt lat="42.8927833" lon="13.00597"><ele>505.0</ele><time>2026-04-12T12:06:35.43Z</time></trkpt><trkpt lat="42.8929717" lon="13.0062217"><ele>505.0</ele><time>2026-04-12T12:06:36.432Z</time></trkpt><trkpt lat="42.8931833" lon="13.0064783"><ele>508.5</ele><time>2026-04-12T12:06:37.432Z</time></trkpt><trkpt lat="42.8934017" lon="13.0067483"><ele>512.0</ele><time>2026-04-12T12:06:38.434Z</time></trkpt><trkpt lat="42.893615" lon="13.0070217"><ele>512.0</ele><time>2026-04-12T12:06:39.43Z</time></trkpt><trkpt lat="42.8938133" lon="13.0072933"><ele>512.0</ele><time>2026-04-12T12:06:40.435Z</time></trkpt><trkpt lat="42.8939883" lon="13.0075917"><ele>509.5</ele><time>2026-04-12T12:06:41.431Z</time></trkpt><trkpt lat="42.8941433" lon="13.0079017"><ele>507.0</ele><time>2026-04-12T12:06:42.433Z</time></trkpt><trkpt lat="42.8942933" lon="13.00821"><ele>495.0</ele><time>2026-04-12T12:06:43.431Z</time></trkpt><trkpt lat="42.89443" lon="13.00852"><ele>483.0</ele><time>2026-04-12T12:06:44.433Z</time></trkpt><trkpt lat="42.8945567" lon="13.0088083"><ele>483.0</ele><time>2026-04-12T12:06:45.431Z</time></trkpt><trkpt lat="42.89468" lon="13.0090767"><ele>483.0</ele><time>2026-04-12T12:06:46.431Z</time></trkpt><trkpt lat="42.89481" lon="13.0093333"><ele>480.0</ele><time>2026-04-12T12:06:47.431Z</time></trkpt><trkpt lat="42.8949567" lon="13.0095733"><ele>477.0</ele><time>2026-04-12T12:06:48.432Z</time></trkpt><trkpt lat="42.8951217" lon="13.00979"><ele>477.0</ele><time>2026-04-12T12:06:49.434Z</time></trkpt><trkpt lat="42.89531" lon="13.00999"><ele>477.0</ele><time>2026-04-12T12:06:50.436Z</time></trkpt><trkpt lat="42.8955133" lon="13.0101833"><ele>478.5</ele><time>2026-04-12T12:06:51.432Z</time></trkpt><trkpt lat="42.8957233" lon="13.0103783"><ele>480.0</ele><time>2026-04-12T12:06:52.429Z</time></trkpt><trkpt lat="42.8959367" lon="13.0105733"><ele>480.0</ele><time>2026-04-12T12:06:53.435Z</time></trkpt><trkpt lat="42.89614" lon="13.0107583"><ele>480.0</ele><time>2026-04-12T12:06:54.432Z</time></trkpt><trkpt lat="42.8963367" lon="13.0109233"><ele>479.5</ele><time>2026-04-12T12:06:55.432Z</time></trkpt><trkpt lat="42.89654" lon="13.0110583"><ele>479.0</ele><time>2026-04-12T12:06:56.432Z</time></trkpt><trkpt lat="42.896755" lon="13.011165"><ele>482.66666666666663</ele><time>2026-04-12T12:06:57.435Z</time></trkpt><trkpt lat="42.8969683" lon="13.0112417"><ele>486.33333333333337</ele><time>2026-04-12T12:06:58.433Z</time></trkpt><trkpt lat="42.8971717" lon="13.0112967"><ele>490.0</ele><time>2026-04-12T12:06:59.431Z</time></trkpt><trkpt lat="42.8973667" lon="13.0113083"><ele>490.0</ele><time>2026-04-12T12:07:00.433Z</time></trkpt><trkpt lat="42.897555" lon="13.01126"><ele>490.0</ele><time>2026-04-12T12:07:01.431Z</time></trkpt><trkpt lat="42.89775" lon="13.011165"><ele>490.0</ele><time>2026-04-12T12:07:02.431Z</time></trkpt><trkpt lat="42.8979433" lon="13.0110417"><ele>492.0</ele><time>2026-04-12T12:07:03.433Z</time></trkpt><trkpt lat="42.898135" lon="13.01095"><ele>494.0</ele><time>2026-04-12T12:07:04.431Z</time></trkpt><trkpt lat="42.8983317" lon="13.01091"><ele>496.0</ele><time>2026-04-12T12:07:05.434Z</time></trkpt><trkpt lat="42.89855" lon="13.0109083"><ele>496.0</ele><time>2026-04-12T12:07:06.431Z</time></trkpt><trkpt lat="42.8987783" lon="13.0109417"><ele>496.0</ele><time>2026-04-12T12:07:07.43Z</time></trkpt><trkpt lat="42.8990133" lon="13.0109983"><ele>515.5</ele><time>2026-04-12T12:07:08.436Z</time></trkpt><trkpt lat="42.8992517" lon="13.0110867"><ele>535.0</ele><time>2026-04-12T12:07:09.433Z</time></trkpt><trkpt lat="42.899475" lon="13.011205"><ele>535.0</ele><time>2026-04-12T12:07:10.435Z</time></trkpt><trkpt lat="42.8996867" lon="13.011355"><ele>535.0</ele><time>2026-04-12T12:07:11.43Z</time></trkpt><trkpt lat="42.8998833" lon="13.0115133"><ele>535.0</ele><time>2026-04-12T12:07:12.433Z</time></trkpt><trkpt lat="42.900075" lon="13.011655"><ele>535.0</ele><time>2026-04-12T12:07:13.435Z</time></trkpt><trkpt lat="42.9002567" lon="13.0117783"><ele>535.0</ele><time>2026-04-12T12:07:14.433Z</time></trkpt><trkpt lat="42.9004267" lon="13.0119033"><ele>531.3333333333334</ele><time>2026-04-12T12:07:15.434Z</time></trkpt><trkpt lat="42.9005783" lon="13.0120383"><ele>527.6666666666666</ele><time>2026-04-12T12:07:16.429Z</time></trkpt><trkpt lat="42.9007217" lon="13.0121867"><ele>524.0</ele><time>2026-04-12T12:07:17.43Z</time></trkpt><trkpt lat="42.90084" lon="13.0123683"><ele>529.0</ele><time>2026-04-12T12:07:18.43Z</time></trkpt><trkpt lat="42.9009183" lon="13.012595"><ele>534.0</ele><time>2026-04-12T12:07:19.43Z</time></trkpt><trkpt lat="42.90098" lon="13.0128517"><ele>539.0</ele><time>2026-04-12T12:07:20.435Z</time></trkpt><trkpt lat="42.90104" lon="13.0131317"><ele>529.0</ele><time>2026-04-12T12:07:21.428Z</time></trkpt><trkpt lat="42.9011" lon="13.0134433"><ele>519.0</ele><time>2026-04-12T12:07:22.432Z</time></trkpt><trkpt lat="42.9011617" lon="13.01378"><ele>519.0</ele><time>2026-04-12T12:07:23.432Z</time></trkpt><trkpt lat="42.901225" lon="13.0141333"><ele>519.0</ele><time>2026-04-12T12:07:24.433Z</time></trkpt><trkpt lat="42.9012933" lon="13.0144967"><ele>513.0</ele><time>2026-04-12T12:07:25.436Z</time></trkpt><trkpt lat="42.90136" lon="13.0148533"><ele>507.0</ele><time>2026-04-12T12:07:26.432Z</time></trkpt><trkpt lat="42.9014233" lon="13.0152"><ele>503.5</ele><time>2026-04-12T12:07:27.432Z</time></trkpt><trkpt lat="42.90148" lon="13.0155283"><ele>500.0</ele><time>2026-04-12T12:07:28.43Z</time></trkpt><trkpt lat="42.901535" lon="13.0158383"><ele>497.66666666666663</ele><time>2026-04-12T12:07:29.431Z</time></trkpt><trkpt lat="42.9016017" lon="13.016125"><ele>495.33333333333337</ele><time>2026-04-12T12:07:30.427Z</time></trkpt><trkpt lat="42.901685" lon="13.0163917"><ele>493.0</ele><time>2026-04-12T12:07:31.433Z</time></trkpt><trkpt lat="42.9018017" lon="13.016635"><ele>503.5</ele><time>2026-04-12T12:07:32.434Z</time></trkpt><trkpt lat="42.9019583" lon="13.0168467"><ele>514.0</ele><time>2026-04-12T12:07:33.428Z</time></trkpt><trkpt lat="42.9021417" lon="13.0170383"><ele>514.0</ele><time>2026-04-12T12:07:34.429Z</time></trkpt><trkpt lat="42.9023467" lon="13.017225"><ele>514.0</ele><time>2026-04-12T12:07:35.431Z</time></trkpt><trkpt lat="42.9025783" lon="13.017405"><ele>511.0</ele><time>2026-04-12T12:07:36.433Z</time></trkpt><trkpt lat="42.9028183" lon="13.017595"><ele>508.0</ele><time>2026-04-12T12:07:37.43Z</time></trkpt><trkpt lat="42.9030583" lon="13.0177867"><ele>508.0</ele><time>2026-04-12T12:07:38.432Z</time></trkpt><trkpt lat="42.9032833" lon="13.0179667"><ele>508.0</ele><time>2026-04-12T12:07:39.433Z</time></trkpt><trkpt lat="42.9034883" lon="13.01815"><ele>510.0</ele><time>2026-04-12T12:07:40.43Z</time></trkpt><trkpt lat="42.9036683" lon="13.01835"><ele>512.0</ele><time>2026-04-12T12:07:41.431Z</time></trkpt><trkpt lat="42.90381" lon="13.01858"><ele>512.0</ele><time>2026-04-12T12:07:42.433Z</time></trkpt><trkpt lat="42.903915" lon="13.0188317"><ele>512.0</ele><time>2026-04-12T12:07:43.432Z</time></trkpt><trkpt lat="42.903985" lon="13.0191017"><ele>512.0</ele><time>2026-04-12T12:07:44.435Z</time></trkpt><trkpt lat="42.9040267" lon="13.019385"><ele>505.5</ele><time>2026-04-12T12:07:45.431Z</time></trkpt><trkpt lat="42.90404" lon="13.0196833"><ele>499.0</ele><time>2026-04-12T12:07:46.427Z</time></trkpt><trkpt lat="42.9040183" lon="13.0200017"><ele>499.0</ele><time>2026-04-12T12:07:47.431Z</time></trkpt><trkpt lat="42.90398" lon="13.0203333"><ele>499.0</ele><time>2026-04-12T12:07:48.434Z</time></trkpt><trkpt lat="42.9039583" lon="13.02068"><ele>501.5</ele><time>2026-04-12T12:07:49.432Z</time></trkpt><trkpt lat="42.903955" lon="13.02102"><ele>504.0</ele><time>2026-04-12T12:07:50.433Z</time></trkpt><trkpt lat="42.90397" lon="13.0213433"><ele>504.0</ele><time>2026-04-12T12:07:51.429Z</time></trkpt><trkpt lat="42.9039733" lon="13.0216467"><ele>504.0</ele><time>2026-04-12T12:07:52.429Z</time></trkpt><trkpt lat="42.903945" lon="13.0219517"><ele>504.0</ele><time>2026-04-12T12:07:53.432Z</time></trkpt><trkpt lat="42.9038683" lon="13.0222633"><ele>503.0</ele><time>2026-04-12T12:07:54.431Z</time></trkpt><trkpt lat="42.9037583" lon="13.0225783"><ele>502.0</ele><time>2026-04-12T12:07:55.431Z</time></trkpt><trkpt lat="42.9036317" lon="13.022905"><ele>502.0</ele><time>2026-04-12T12:07:56.43Z</time></trkpt><trkpt lat="42.9035" lon="13.0232367"><ele>502.0</ele><time>2026-04-12T12:07:57.433Z</time></trkpt><trkpt lat="42.9033633" lon="13.0235767"><ele>497.0</ele><time>2026-04-12T12:07:58.427Z</time></trkpt><trkpt lat="42.90323" lon="13.0239067"><ele>492.0</ele><time>2026-04-12T12:07:59.429Z</time></trkpt><trkpt lat="42.903105" lon="13.0242183"><ele>492.0</ele><time>2026-04-12T12:08:00.434Z</time></trkpt><trkpt lat="42.9029817" lon="13.024505"><ele>492.0</ele><time>2026-04-12T12:08:01.434Z</time></trkpt><trkpt lat="42.9028667" lon="13.0247733"><ele>490.66666666666663</ele><time>2026-04-12T12:08:02.432Z</time></trkpt><trkpt lat="42.9027533" lon="13.0250217"><ele>489.3333333333333</ele><time>2026-04-12T12:08:03.43Z</time></trkpt><trkpt lat="42.9026517" lon="13.0252483"><ele>488.0</ele><time>2026-04-12T12:08:04.439Z</time></trkpt><trkpt lat="42.9025717" lon="13.0254617"><ele>488.0</ele><time>2026-04-12T12:08:05.429Z</time></trkpt><trkpt lat="42.9025367" lon="13.0256667"><ele>488.0</ele><time>2026-04-12T12:08:06.432Z</time></trkpt><trkpt lat="42.90254" lon="13.025865"><ele>488.0</ele><time>2026-04-12T12:08:07.434Z</time></trkpt><trkpt lat="42.9025867" lon="13.026055"><ele>488.0</ele><time>2026-04-12T12:08:08.434Z</time></trkpt><trkpt lat="42.9026917" lon="13.0262467"><ele>492.66666666666663</ele><time>2026-04-12T12:08:09.427Z</time></trkpt><trkpt lat="42.90285" lon="13.0264233"><ele>497.33333333333337</ele><time>2026-04-12T12:08:10.431Z</time></trkpt><trkpt lat="42.90303" lon="13.026605"><ele>502.0</ele><time>2026-04-12T12:08:11.435Z</time></trkpt><trkpt lat="42.9032367" lon="13.0267917"><ele>519.0</ele><time>2026-04-12T12:08:12.43Z</time></trkpt><trkpt lat="42.9034317" lon="13.02699"><ele>536.0</ele><time>2026-04-12T12:08:13.431Z</time></trkpt><trkpt lat="42.9036267" lon="13.0271817"><ele>536.0</ele><time>2026-04-12T12:08:14.432Z</time></trkpt><trkpt lat="42.9038067" lon="13.0273717"><ele>536.0</ele><time>2026-04-12T12:08:15.432Z</time></trkpt><trkpt lat="42.9039733" lon="13.0275583"><ele>536.0</ele><time>2026-04-12T12:08:16.432Z</time></trkpt><trkpt lat="42.9041117" lon="13.02776"><ele>539.0</ele><time>2026-04-12T12:08:17.431Z</time></trkpt><trkpt lat="42.9042467" lon="13.0279633"><ele>542.0</ele><time>2026-04-12T12:08:18.439Z</time></trkpt><trkpt lat="42.9043583" lon="13.02817"><ele>545.0</ele><time>2026-04-12T12:08:19.428Z</time></trkpt><trkpt lat="42.9044633" lon="13.0283567"><ele>532.3333333333333</ele><time>2026-04-12T12:08:20.429Z</time></trkpt><trkpt lat="42.9045833" lon="13.0285067"><ele>519.6666666666666</ele><time>2026-04-12T12:08:21.43Z</time></trkpt><trkpt lat="42.9047333" lon="13.0286183"><ele>507.0</ele><time>2026-04-12T12:08:22.433Z</time></trkpt><trkpt lat="42.9049" lon="13.02867"><ele>507.0</ele><time>2026-04-12T12:08:23.43Z</time></trkpt><trkpt lat="42.9050567" lon="13.0286933"><ele>507.0</ele><time>2026-04-12T12:08:24.433Z</time></trkpt><trkpt lat="42.90521" lon="13.0286967"><ele>507.0</ele><time>2026-04-12T12:08:25.432Z</time></trkpt><trkpt lat="42.9053533" lon="13.0287117"><ele>508.5</ele><time>2026-04-12T12:08:26.435Z</time></trkpt><trkpt lat="42.9055017" lon="13.02872"><ele>510.0</ele><time>2026-04-12T12:08:27.43Z</time></trkpt><trkpt lat="42.905655" lon="13.02873"><ele>511.5</ele><time>2026-04-12T12:08:28.434Z</time></trkpt><trkpt lat="42.9058017" lon="13.028745"><ele>513.0</ele><time>2026-04-12T12:08:29.43Z</time></trkpt><trkpt lat="42.9059417" lon="13.0287883"><ele>513.75</ele><time>2026-04-12T12:08:30.432Z</time></trkpt><trkpt lat="42.9060683" lon="13.0288533"><ele>514.5</ele><time>2026-04-12T12:08:31.432Z</time></trkpt><trkpt lat="42.906185" lon="13.0289283"><ele>515.25</ele><time>2026-04-12T12:08:32.433Z</time></trkpt><trkpt lat="42.9062917" lon="13.02902"><ele>516.0</ele><time>2026-04-12T12:08:33.431Z</time></trkpt><trkpt lat="42.9063867" lon="13.0291283"><ele>513.8</ele><time>2026-04-12T12:08:34.43Z</time></trkpt><trkpt lat="42.9064717" lon="13.0292433"><ele>511.6</ele><time>2026-04-12T12:08:35.433Z</time></trkpt><trkpt lat="42.9065433" lon="13.02936"><ele>509.4</ele><time>2026-04-12T12:08:36.431Z</time></trkpt><trkpt lat="42.906615" lon="13.029475"><ele>507.2</ele><time>2026-04-12T12:08:37.431Z</time></trkpt><trkpt lat="42.90668" lon="13.0295917"><ele>505.0</ele><time>2026-04-12T12:08:38.43Z</time></trkpt><trkpt lat="42.906745" lon="13.029705"><ele>505.0</ele><time>2026-04-12T12:08:39.433Z</time></trkpt><trkpt lat="42.9068117" lon="13.0298233"><ele>505.0</ele><time>2026-04-12T12:08:40.435Z</time></trkpt><trkpt lat="42.9068783" lon="13.0299467"><ele>505.0</ele><time>2026-04-12T12:08:41.431Z</time></trkpt><trkpt lat="42.906945" lon="13.0300717"><ele>505.0</ele><time>2026-04-12T12:08:42.429Z</time></trkpt><trkpt lat="42.90701" lon="13.030205"><ele>505.25</ele><time>2026-04-12T12:08:43.431Z</time></trkpt><trkpt lat="42.9070783" lon="13.030355"><ele>505.5</ele><time>2026-04-12T12:08:44.434Z</time></trkpt><trkpt lat="42.9071483" lon="13.0305283"><ele>505.75</ele><time>2026-04-12T12:08:45.429Z</time></trkpt><trkpt lat="42.9071983" lon="13.0307517"><ele>506.0</ele><time>2026-04-12T12:08:46.43Z</time></trkpt><trkpt lat="42.9072133" lon="13.0310083"><ele>507.66666666666663</ele><time>2026-04-12T12:08:47.433Z</time></trkpt><trkpt lat="42.9072" lon="13.0312817"><ele>509.33333333333337</ele><time>2026-04-12T12:08:48.432Z</time></trkpt><trkpt lat="42.9071867" lon="13.0315817"><ele>511.0</ele><time>2026-04-12T12:08:49.433Z</time></trkpt><trkpt lat="42.9071833" lon="13.0318867"><ele>511.0</ele><time>2026-04-12T12:08:50.442Z</time></trkpt><trkpt lat="42.9071833" lon="13.0321717"><ele>511.0</ele><time>2026-04-12T12:08:51.433Z</time></trkpt><trkpt lat="42.9071917" lon="13.0324333"><ele>511.0</ele><time>2026-04-12T12:08:52.432Z</time></trkpt><trkpt lat="42.9072217" lon="13.0326667"><ele>509.6666666666667</ele><time>2026-04-12T12:08:53.433Z</time></trkpt><trkpt lat="42.9072867" lon="13.0328733"><ele>508.33333333333337</ele><time>2026-04-12T12:08:54.43Z</time></trkpt><trkpt lat="42.9073967" lon="13.0330367"><ele>507.0</ele><time>2026-04-12T12:08:55.429Z</time></trkpt><trkpt lat="42.9075583" lon="13.0331417"><ele>511.66666666666663</ele><time>2026-04-12T12:08:56.434Z</time></trkpt><trkpt lat="42.90775" lon="13.0332233"><ele>516.3333333333333</ele><time>2026-04-12T12:08:57.429Z</time></trkpt><trkpt lat="42.9079517" lon="13.0333283"><ele>521.0</ele><time>2026-04-12T12:08:58.431Z</time></trkpt><trkpt lat="42.9081417" lon="13.03347"><ele>521.0</ele><time>2026-04-12T12:08:59.432Z</time></trkpt><trkpt lat="42.9083" lon="13.03364"><ele>521.0</ele><time>2026-04-12T12:09:00.431Z</time></trkpt><trkpt lat="42.9084167" lon="13.0338617"><ele>521.0</ele><time>2026-04-12T12:09:01.43Z</time></trkpt><trkpt lat="42.9084983" lon="13.03414"><ele>523.0</ele><time>2026-04-12T12:09:02.433Z</time></trkpt><trkpt lat="42.9085617" lon="13.0344383"><ele>525.0</ele><time>2026-04-12T12:09:03.434Z</time></trkpt><trkpt lat="42.9086017" lon="13.03473"><ele>527.0</ele><time>2026-04-12T12:09:04.433Z</time></trkpt><trkpt lat="42.9086367" lon="13.0349983"><ele>527.0</ele><time>2026-04-12T12:09:05.436Z</time></trkpt><trkpt lat="42.908635" lon="13.03525"><ele>527.0</ele><time>2026-04-12T12:09:06.434Z</time></trkpt><trkpt lat="42.908595" lon="13.0354917"><ele>527.0</ele><time>2026-04-12T12:09:07.431Z</time></trkpt><trkpt lat="42.9084417" lon="13.0357217"><ele>519.0</ele><time>2026-04-12T12:09:08.43Z</time></trkpt><trkpt lat="42.9083317" lon="13.0359767"><ele>511.0</ele><time>2026-04-12T12:09:09.434Z</time></trkpt><trkpt lat="42.908255" lon="13.0362683"><ele>503.0</ele><time>2026-04-12T12:09:10.433Z</time></trkpt><trkpt lat="42.9082117" lon="13.0365633"><ele>506.66666666666663</ele><time>2026-04-12T12:09:11.428Z</time></trkpt><trkpt lat="42.9081833" lon="13.0368433"><ele>510.33333333333337</ele><time>2026-04-12T12:09:12.433Z</time></trkpt><trkpt lat="42.9082" lon="13.0371033"><ele>514.0</ele><time>2026-04-12T12:09:13.432Z</time></trkpt><trkpt lat="42.9082733" lon="13.0373367"><ele>513.0</ele><time>2026-04-12T12:09:14.432Z</time></trkpt><trkpt lat="42.9084033" lon="13.0375533"><ele>512.0</ele><time>2026-04-12T12:09:15.435Z</time></trkpt><trkpt lat="42.9085667" lon="13.03779"><ele>511.0</ele><time>2026-04-12T12:09:16.429Z</time></trkpt><trkpt lat="42.9087433" lon="13.0380483"><ele>513.0</ele><time>2026-04-12T12:09:17.432Z</time></trkpt><trkpt lat="42.9089233" lon="13.0383167"><ele>515.0</ele><time>2026-04-12T12:09:18.43Z</time></trkpt><trkpt lat="42.9091" lon="13.03859"><ele>535.5</ele><time>2026-04-12T12:09:19.436Z</time></trkpt><trkpt lat="42.90927" lon="13.038855"><ele>556.0</ele><time>2026-04-12T12:09:20.432Z</time></trkpt><trkpt lat="42.909425" lon="13.0391233"><ele>538.5</ele><time>2026-04-12T12:09:21.43Z</time></trkpt><trkpt lat="42.90958" lon="13.0393917"><ele>521.0</ele><time>2026-04-12T12:09:22.429Z</time></trkpt><trkpt lat="42.9097367" lon="13.0396567"><ele>521.0</ele><time>2026-04-12T12:09:23.433Z</time></trkpt><trkpt lat="42.9098933" lon="13.0399133"><ele>521.0</ele><time>2026-04-12T12:09:24.431Z</time></trkpt><trkpt lat="42.9100517" lon="13.040165"><ele>521.5</ele><time>2026-04-12T12:09:25.43Z</time></trkpt><trkpt lat="42.9102167" lon="13.0404083"><ele>522.0</ele><time>2026-04-12T12:09:26.43Z</time></trkpt><trkpt lat="42.910395" lon="13.0406417"><ele>517.0</ele><time>2026-04-12T12:09:27.431Z</time></trkpt><trkpt lat="42.910585" lon="13.0408667"><ele>512.0</ele><time>2026-04-12T12:09:28.433Z</time></trkpt><trkpt lat="42.9107833" lon="13.04108"><ele>518.5</ele><time>2026-04-12T12:09:29.435Z</time></trkpt><trkpt lat="42.9109917" lon="13.04128"><ele>525.0</ele><time>2026-04-12T12:09:30.433Z</time></trkpt><trkpt lat="42.9112133" lon="13.0414533"><ele>525.0</ele><time>2026-04-12T12:09:31.432Z</time></trkpt><trkpt lat="42.9114467" lon="13.041605"><ele>525.0</ele><time>2026-04-12T12:09:32.435Z</time></trkpt><trkpt lat="42.911695" lon="13.0417233"><ele>519.5</ele><time>2026-04-12T12:09:33.433Z</time></trkpt><trkpt lat="42.9119167" lon="13.0418533"><ele>514.0</ele><time>2026-04-12T12:09:34.433Z</time></trkpt><trkpt lat="42.9121333" lon="13.0419683"><ele>514.0</ele><time>2026-04-12T12:09:35.437Z</time></trkpt><trkpt lat="42.9123583" lon="13.0420483"><ele>514.0</ele><time>2026-04-12T12:09:36.433Z</time></trkpt><trkpt lat="42.9125917" lon="13.0420967"><ele>517.0</ele><time>2026-04-12T12:09:37.435Z</time></trkpt><trkpt lat="42.9128283" lon="13.0421133"><ele>520.0</ele><time>2026-04-12T12:09:38.433Z</time></trkpt><trkpt lat="42.9130617" lon="13.0421117"><ele>520.0</ele><time>2026-04-12T12:09:39.434Z</time></trkpt><trkpt lat="42.9132767" lon="13.042105"><ele>520.0</ele><time>2026-04-12T12:09:40.433Z</time></trkpt><trkpt lat="42.9134717" lon="13.0421233"><ele>520.0</ele><time>2026-04-12T12:09:41.431Z</time></trkpt><trkpt lat="42.9136433" lon="13.04217"><ele>519.6666666666667</ele><time>2026-04-12T12:09:42.432Z</time></trkpt><trkpt lat="42.913795" lon="13.0422867"><ele>519.3333333333334</ele><time>2026-04-12T12:09:43.431Z</time></trkpt><trkpt lat="42.9139283" lon="13.0424817"><ele>519.0</ele><time>2026-04-12T12:09:44.431Z</time></trkpt><trkpt lat="42.91407" lon="13.0427083"><ele>519.0</ele><time>2026-04-12T12:09:45.432Z</time></trkpt><trkpt lat="42.9142267" lon="13.042955"><ele>519.0</ele><time>2026-04-12T12:09:46.434Z</time></trkpt><trkpt lat="42.9143933" lon="13.04322"><ele>522.0</ele><time>2026-04-12T12:09:47.43Z</time></trkpt><trkpt lat="42.9145683" lon="13.0434883"><ele>525.0</ele><time>2026-04-12T12:09:48.431Z</time></trkpt><trkpt lat="42.914745" lon="13.0437717"><ele>525.0</ele><time>2026-04-12T12:09:49.436Z</time></trkpt><trkpt lat="42.9149267" lon="13.0440467"><ele>525.0</ele><time>2026-04-12T12:09:50.432Z</time></trkpt><trkpt lat="42.9151067" lon="13.0443283"><ele>535.5</ele><time>2026-04-12T12:09:51.432Z</time></trkpt><trkpt lat="42.9152867" lon="13.04461"><ele>546.0</ele><time>2026-04-12T12:09:52.433Z</time></trkpt><trkpt lat="42.9154567" lon="13.0448817"><ele>538.0</ele><time>2026-04-12T12:09:53.432Z</time></trkpt><trkpt lat="42.9156083" lon="13.045135"><ele>530.0</ele><time>2026-04-12T12:09:54.432Z</time></trkpt><trkpt lat="42.9157267" lon="13.0453817"><ele>530.0</ele><time>2026-04-12T12:09:55.434Z</time></trkpt><trkpt lat="42.9158017" lon="13.04566"><ele>530.0</ele><time>2026-04-12T12:09:56.435Z</time></trkpt><trkpt lat="42.915865" lon="13.045955"><ele>530.0</ele><time>2026-04-12T12:09:57.432Z</time></trkpt><trkpt lat="42.9159283" lon="13.0462667"><ele>535.0</ele><time>2026-04-12T12:09:58.435Z</time></trkpt><trkpt lat="42.9159833" lon="13.046575"><ele>540.0</ele><time>2026-04-12T12:09:59.431Z</time></trkpt><trkpt lat="42.91604" lon="13.0468667"><ele>540.0</ele><time>2026-04-12T12:10:00.43Z</time></trkpt><trkpt lat="42.9161217" lon="13.0471367"><ele>540.0</ele><time>2026-04-12T12:10:01.433Z</time></trkpt><trkpt lat="42.9162283" lon="13.0473817"><ele>540.0</ele><time>2026-04-12T12:10:02.431Z</time></trkpt><trkpt lat="42.9163817" lon="13.0475867"><ele>536.3333333333334</ele><time>2026-04-12T12:10:03.434Z</time></trkpt><trkpt lat="42.9165533" lon="13.0477617"><ele>532.6666666666667</ele><time>2026-04-12T12:10:04.431Z</time></trkpt><trkpt lat="42.9167117" lon="13.0479283"><ele>529.0</ele><time>2026-04-12T12:10:05.432Z</time></trkpt><trkpt lat="42.9168483" lon="13.048135"><ele>530.3333333333334</ele><time>2026-04-12T12:10:06.432Z</time></trkpt><trkpt lat="42.916965" lon="13.0483833"><ele>531.6666666666666</ele><time>2026-04-12T12:10:07.434Z</time></trkpt><trkpt lat="42.9170817" lon="13.0486567"><ele>533.0</ele><time>2026-04-12T12:10:08.432Z</time></trkpt><trkpt lat="42.9172067" lon="13.0489367"><ele>533.6666666666666</ele><time>2026-04-12T12:10:09.435Z</time></trkpt><trkpt lat="42.9173333" lon="13.0491967"><ele>534.3333333333334</ele><time>2026-04-12T12:10:10.432Z</time></trkpt><trkpt lat="42.9174667" lon="13.049425"><ele>535.0</ele><time>2026-04-12T12:10:11.431Z</time></trkpt><trkpt lat="42.9175917" lon="13.0496367"><ele>538.0</ele><time>2026-04-12T12:10:12.436Z</time></trkpt><trkpt lat="42.9176983" lon="13.0498417"><ele>541.0</ele><time>2026-04-12T12:10:13.433Z</time></trkpt><trkpt lat="42.9177533" lon="13.0500683"><ele>544.0</ele><time>2026-04-12T12:10:14.434Z</time></trkpt><trkpt lat="42.9177717" lon="13.050335"><ele>544.0</ele><time>2026-04-12T12:10:15.432Z</time></trkpt><trkpt lat="42.9178017" lon="13.0506133"><ele>544.0</ele><time>2026-04-12T12:10:16.435Z</time></trkpt><trkpt lat="42.917855" lon="13.0508767"><ele>544.0</ele><time>2026-04-12T12:10:17.434Z</time></trkpt><trkpt lat="42.9179383" lon="13.051105"><ele>542.3333333333334</ele><time>2026-04-12T12:10:18.436Z</time></trkpt><trkpt lat="42.9180817" lon="13.0512883"><ele>540.6666666666666</ele><time>2026-04-12T12:10:19.433Z</time></trkpt><trkpt lat="42.9182733" lon="13.0514533"><ele>539.0</ele><time>2026-04-12T12:10:20.432Z</time></trkpt><trkpt lat="42.9184833" lon="13.05162"><ele>555.0</ele><time>2026-04-12T12:10:21.429Z</time></trkpt><trkpt lat="42.9186833" lon="13.0517967"><ele>571.0</ele><time>2026-04-12T12:10:22.43Z</time></trkpt><trkpt lat="42.9188633" lon="13.0519867"><ele>571.0</ele><time>2026-04-12T12:10:23.432Z</time></trkpt><trkpt lat="42.9190167" lon="13.0521617"><ele>571.0</ele><time>2026-04-12T12:10:24.428Z</time></trkpt><trkpt lat="42.91915" lon="13.052305"><ele>571.0</ele><time>2026-04-12T12:10:25.425Z</time></trkpt><trkpt lat="42.9192533" lon="13.05247"><ele>586.3333333333334</ele><time>2026-04-12T12:10:26.43Z</time></trkpt><trkpt lat="42.919315" lon="13.052665"><ele>601.6666666666666</ele><time>2026-04-12T12:10:27.433Z</time></trkpt><trkpt lat="42.9193533" lon="13.052895"><ele>617.0</ele><time>2026-04-12T12:10:28.435Z</time></trkpt><trkpt lat="42.9193967" lon="13.053165"><ele>602.0</ele><time>2026-04-12T12:10:29.431Z</time></trkpt><trkpt lat="42.919385" lon="13.053495"><ele>587.0</ele><time>2026-04-12T12:10:30.436Z</time></trkpt><trkpt lat="42.9194383" lon="13.0538017"><ele>587.0</ele><time>2026-04-12T12:10:31.434Z</time></trkpt><trkpt lat="42.91949" lon="13.054115"><ele>587.0</ele><time>2026-04-12T12:10:32.435Z</time></trkpt><trkpt lat="42.91958" lon="13.054405"><ele>579.0</ele><time>2026-04-12T12:10:33.445Z</time></trkpt><trkpt lat="42.9197067" lon="13.0546733"><ele>571.0</ele><time>2026-04-12T12:10:34.437Z</time></trkpt><trkpt lat="42.9198467" lon="13.0549367"><ele>567.0</ele><time>2026-04-12T12:10:35.429Z</time></trkpt><trkpt lat="42.9199933" lon="13.0551917"><ele>563.0</ele><time>2026-04-12T12:10:36.431Z</time></trkpt><trkpt lat="42.920135" lon="13.0554333"><ele>563.0</ele><time>2026-04-12T12:10:37.43Z</time></trkpt><trkpt lat="42.9202717" lon="13.0556617"><ele>563.0</ele><time>2026-04-12T12:10:38.436Z</time></trkpt><trkpt lat="42.9204083" lon="13.055875"><ele>563.0</ele><time>2026-04-12T12:10:39.433Z</time></trkpt><trkpt lat="42.920565" lon="13.0560667"><ele>555.5</ele><time>2026-04-12T12:10:40.432Z</time></trkpt><trkpt lat="42.9207567" lon="13.0562217"><ele>548.0</ele><time>2026-04-12T12:10:41.433Z</time></trkpt><trkpt lat="42.9209733" lon="13.0563417"><ele>548.0</ele><time>2026-04-12T12:10:42.436Z</time></trkpt><trkpt lat="42.9212" lon="13.0564367"><ele>548.0</ele><time>2026-04-12T12:10:43.434Z</time></trkpt><trkpt lat="42.9214433" lon="13.0565167"><ele>548.0</ele><time>2026-04-12T12:10:44.436Z</time></trkpt><trkpt lat="42.92168" lon="13.0566083"><ele>548.0</ele><time>2026-04-12T12:10:45.432Z</time></trkpt><trkpt lat="42.9219167" lon="13.056705"><ele>545.6666666666666</ele><time>2026-04-12T12:10:46.432Z</time></trkpt><trkpt lat="42.9221467" lon="13.056805"><ele>543.3333333333334</ele><time>2026-04-12T12:10:47.433Z</time></trkpt><trkpt lat="42.9223217" lon="13.0569217"><ele>541.0</ele><time>2026-04-12T12:10:48.432Z</time></trkpt><trkpt lat="42.9224567" lon="13.0570917"><ele>541.0</ele><time>2026-04-12T12:10:49.432Z</time></trkpt><trkpt lat="42.922555" lon="13.0573533"><ele>541.0</ele><time>2026-04-12T12:10:50.433Z</time></trkpt><trkpt lat="42.9226633" lon="13.05763"><ele>541.0</ele><time>2026-04-12T12:10:51.434Z</time></trkpt><trkpt lat="42.9227667" lon="13.0579033"><ele>543.3333333333334</ele><time>2026-04-12T12:10:52.435Z</time></trkpt><trkpt lat="42.92287" lon="13.0581667"><ele>545.6666666666666</ele><time>2026-04-12T12:10:53.436Z</time></trkpt><trkpt lat="42.9229883" lon="13.058405"><ele>548.0</ele><time>2026-04-12T12:10:54.435Z</time></trkpt><trkpt lat="42.9231467" lon="13.0586233"><ele>548.0</ele><time>2026-04-12T12:10:55.434Z</time></trkpt><trkpt lat="42.9233433" lon="13.05881"><ele>548.0</ele><time>2026-04-12T12:10:56.429Z</time></trkpt><trkpt lat="42.9235633" lon="13.0589867"><ele>551.0</ele><time>2026-04-12T12:10:57.43Z</time></trkpt><trkpt lat="42.9237833" lon="13.05917"><ele>554.0</ele><time>2026-04-12T12:10:58.433Z</time></trkpt><trkpt lat="42.924" lon="13.0593483"><ele>554.0</ele><time>2026-04-12T12:10:59.432Z</time></trkpt><trkpt lat="42.92421" lon="13.0595217"><ele>554.0</ele><time>2026-04-12T12:11:00.432Z</time></trkpt><trkpt lat="42.92443" lon="13.05967"><ele>565.0</ele><time>2026-04-12T12:11:01.432Z</time></trkpt><trkpt lat="42.9246617" lon="13.0597733"><ele>576.0</ele><time>2026-04-12T12:11:02.432Z</time></trkpt><trkpt lat="42.92489" lon="13.0598933"><ele>572.0</ele><time>2026-04-12T12:11:03.432Z</time></trkpt><trkpt lat="42.9251183" lon="13.0600383"><ele>568.0</ele><time>2026-04-12T12:11:04.433Z</time></trkpt><trkpt lat="42.925345" lon="13.0601967"><ele>568.0</ele><time>2026-04-12T12:11:05.429Z</time></trkpt><trkpt lat="42.92556" lon="13.06039"><ele>568.0</ele><time>2026-04-12T12:11:06.433Z</time></trkpt><trkpt lat="42.92576" lon="13.0606033"><ele>599.5</ele><time>2026-04-12T12:11:07.434Z</time></trkpt><trkpt lat="42.925955" lon="13.0608117"><ele>631.0</ele><time>2026-04-12T12:11:08.434Z</time></trkpt><trkpt lat="42.9261417" lon="13.0609933"><ele>631.0</ele><time>2026-04-12T12:11:09.428Z</time></trkpt><trkpt lat="42.9263183" lon="13.0611717"><ele>631.0</ele><time>2026-04-12T12:11:10.431Z</time></trkpt><trkpt lat="42.9264933" lon="13.0613417"><ele>631.0</ele><time>2026-04-12T12:11:11.427Z</time></trkpt><trkpt lat="42.9266717" lon="13.0615183"><ele>640.3333333333334</ele><time>2026-04-12T12:11:12.433Z</time></trkpt><trkpt lat="42.9268517" lon="13.0616867"><ele>649.6666666666666</ele><time>2026-04-12T12:11:13.43Z</time></trkpt><trkpt lat="42.927025" lon="13.0618533"><ele>659.0</ele><time>2026-04-12T12:11:14.433Z</time></trkpt><trkpt lat="42.9272183" lon="13.061995"><ele>659.0</ele><time>2026-04-12T12:11:15.432Z</time></trkpt><trkpt lat="42.9273983" lon="13.0621633"><ele>659.0</ele><time>2026-04-12T12:11:16.433Z</time></trkpt><trkpt lat="42.9275817" lon="13.062335"><ele>659.0</ele><time>2026-04-12T12:11:17.432Z</time></trkpt><trkpt lat="42.9277683" lon="13.0625133"><ele>659.0</ele><time>2026-04-12T12:11:18.435Z</time></trkpt><trkpt lat="42.9279583" lon="13.062695"><ele>659.0</ele><time>2026-04-12T12:11:19.433Z</time></trkpt><trkpt lat="42.92814" lon="13.0628683"><ele>659.0</ele><time>2026-04-12T12:11:20.432Z</time></trkpt><trkpt lat="42.9283233" lon="13.0630467"><ele>659.0</ele><time>2026-04-12T12:11:21.434Z</time></trkpt><trkpt lat="42.928345" lon="13.0637317"><ele>659.0</ele><time>2026-04-12T12:11:22.433Z</time></trkpt><trkpt lat="42.9282583" lon="13.0643683"><ele>659.0</ele><time>2026-04-12T12:11:23.434Z</time></trkpt><trkpt lat="42.9279967" lon="13.06484"><ele>659.0</ele><time>2026-04-12T12:11:24.431Z</time></trkpt><trkpt lat="42.9278083" lon="13.0651733"><ele>625.0</ele><time>2026-04-12T12:11:25.43Z</time></trkpt><trkpt lat="42.927545" lon="13.0655217"><ele>591.0</ele><time>2026-04-12T12:11:26.429Z</time></trkpt><trkpt lat="42.9275433" lon="13.0657933"><ele>591.0</ele><time>2026-04-12T12:11:27.429Z</time></trkpt><trkpt lat="42.9275867" lon="13.0660317"><ele>591.0</ele><time>2026-04-12T12:11:28.429Z</time></trkpt><trkpt lat="42.927665" lon="13.0662717"><ele>591.0</ele><time>2026-04-12T12:11:29.433Z</time></trkpt><trkpt lat="42.9277983" lon="13.0664833"><ele>599.0</ele><time>2026-04-12T12:11:30.429Z</time></trkpt><trkpt lat="42.92797" lon="13.06668"><ele>607.0</ele><time>2026-04-12T12:11:31.433Z</time></trkpt><trkpt lat="42.9281483" lon="13.0668883"><ele>607.0</ele><time>2026-04-12T12:11:32.432Z</time></trkpt><trkpt lat="42.92831" lon="13.0671167"><ele>607.0</ele><time>2026-04-12T12:11:33.433Z</time></trkpt><trkpt lat="42.928455" lon="13.0673833"><ele>621.0</ele><time>2026-04-12T12:11:34.43Z</time></trkpt><trkpt lat="42.9286067" lon="13.0676533"><ele>635.0</ele><time>2026-04-12T12:11:35.431Z</time></trkpt><trkpt lat="42.9287667" lon="13.067925"><ele>635.0</ele><time>2026-04-12T12:11:36.429Z</time></trkpt><trkpt lat="42.9289317" lon="13.068195"><ele>635.0</ele><time>2026-04-12T12:11:37.431Z</time></trkpt><trkpt lat="42.929095" lon="13.068465"><ele>648.0</ele><time>2026-04-12T12:11:38.435Z</time></trkpt><trkpt lat="42.9292567" lon="13.0687333"><ele>661.0</ele><time>2026-04-12T12:11:39.431Z</time></trkpt><trkpt lat="42.9294133" lon="13.06898"><ele>647.6666666666667</ele><time>2026-04-12T12:11:40.429Z</time></trkpt><trkpt lat="42.9295583" lon="13.0692083"><ele>634.3333333333334</ele><time>2026-04-12T12:11:41.428Z</time></trkpt><trkpt lat="42.9296983" lon="13.0694117"><ele>621.0</ele><time>2026-04-12T12:11:42.432Z</time></trkpt><trkpt lat="42.9298583" lon="13.06958"><ele>621.0</ele><time>2026-04-12T12:11:43.429Z</time></trkpt><trkpt lat="42.93004" lon="13.0697167"><ele>621.0</ele><time>2026-04-12T12:11:44.435Z</time></trkpt><trkpt lat="42.9302183" lon="13.0698383"><ele>621.0</ele><time>2026-04-12T12:11:45.435Z</time></trkpt><trkpt lat="42.930375" lon="13.0699733"><ele>622.6666666666666</ele><time>2026-04-12T12:11:46.431Z</time></trkpt><trkpt lat="42.9305067" lon="13.07015"><ele>624.3333333333333</ele><time>2026-04-12T12:11:47.434Z</time></trkpt><trkpt lat="42.9306133" lon="13.0703883"><ele>626.0</ele><time>2026-04-12T12:11:48.43Z</time></trkpt><trkpt lat="42.9307117" lon="13.070665"><ele>629.5</ele><time>2026-04-12T12:11:49.432Z</time></trkpt><trkpt lat="42.930825" lon="13.0709617"><ele>633.0</ele><time>2026-04-12T12:11:50.436Z</time></trkpt><trkpt lat="42.9309683" lon="13.0712583"><ele>633.0</ele><time>2026-04-12T12:11:51.432Z</time></trkpt><trkpt lat="42.9311467" lon="13.0715333"><ele>633.0</ele><time>2026-04-12T12:11:52.431Z</time></trkpt><trkpt lat="42.9313267" lon="13.0718033"><ele>624.0</ele><time>2026-04-12T12:11:53.431Z</time></trkpt><trkpt lat="42.9315017" lon="13.0720567"><ele>615.0</ele><time>2026-04-12T12:11:54.437Z</time></trkpt><trkpt lat="42.931675" lon="13.072285"><ele>619.5</ele><time>2026-04-12T12:11:55.436Z</time></trkpt><trkpt lat="42.9318467" lon="13.0725067"><ele>624.0</ele><time>2026-04-12T12:11:56.436Z</time></trkpt><trkpt lat="42.9320333" lon="13.072705"><ele>624.0</ele><time>2026-04-12T12:11:57.431Z</time></trkpt><trkpt lat="42.9322333" lon="13.0728667"><ele>624.0</ele><time>2026-04-12T12:11:58.433Z</time></trkpt><trkpt lat="42.93243" lon="13.0729983"><ele>635.6666666666666</ele><time>2026-04-12T12:11:59.431Z</time></trkpt><trkpt lat="42.9326033" lon="13.0731383"><ele>647.3333333333333</ele><time>2026-04-12T12:12:00.433Z</time></trkpt><trkpt lat="42.9327533" lon="13.0733"><ele>659.0</ele><time>2026-04-12T12:12:01.437Z</time></trkpt><trkpt lat="42.932865" lon="13.0735067"><ele>659.0</ele><time>2026-04-12T12:12:02.434Z</time></trkpt><trkpt lat="42.9329383" lon="13.0737567"><ele>659.0</ele><time>2026-04-12T12:12:03.43Z</time></trkpt><trkpt lat="42.9329867" lon="13.07403"><ele>659.0</ele><time>2026-04-12T12:12:04.432Z</time></trkpt><trkpt lat="42.9330167" lon="13.0743083"><ele>658.0</ele><time>2026-04-12T12:12:05.433Z</time></trkpt><trkpt lat="42.93305" lon="13.07458"><ele>657.0</ele><time>2026-04-12T12:12:06.433Z</time></trkpt><trkpt lat="42.933085" lon="13.074845"><ele>656.0</ele><time>2026-04-12T12:12:07.433Z</time></trkpt><trkpt lat="42.9331233" lon="13.0751133"><ele>647.3333333333333</ele><time>2026-04-12T12:12:08.43Z</time></trkpt><trkpt lat="42.93316" lon="13.0753817"><ele>638.6666666666666</ele><time>2026-04-12T12:12:09.43Z</time></trkpt><trkpt lat="42.933195" lon="13.0756533"><ele>630.0</ele><time>2026-04-12T12:12:10.428Z</time></trkpt><trkpt lat="42.9332283" lon="13.0759217"><ele>628.0</ele><time>2026-04-12T12:12:11.431Z</time></trkpt><trkpt lat="42.933255" lon="13.0761817"><ele>626.0</ele><time>2026-04-12T12:12:12.43Z</time></trkpt><trkpt lat="42.933265" lon="13.076435"><ele>624.0</ele><time>2026-04-12T12:12:13.436Z</time></trkpt><trkpt lat="42.9332567" lon="13.0766783"><ele>621.6666666666666</ele><time>2026-04-12T12:12:14.43Z</time></trkpt><trkpt lat="42.93323" lon="13.076925"><ele>619.3333333333333</ele><time>2026-04-12T12:12:15.429Z</time></trkpt><trkpt lat="42.9331917" lon="13.0771683"><ele>617.0</ele><time>2026-04-12T12:12:16.428Z</time></trkpt><trkpt lat="42.9331417" lon="13.077415"><ele>614.3333333333333</ele><time>2026-04-12T12:12:17.432Z</time></trkpt><trkpt lat="42.9330833" lon="13.0776667"><ele>611.6666666666666</ele><time>2026-04-12T12:12:18.429Z</time></trkpt><trkpt lat="42.9330183" lon="13.0779183"><ele>609.0</ele><time>2026-04-12T12:12:19.43Z</time></trkpt><trkpt lat="42.9329617" lon="13.0781683"><ele>608.0</ele><time>2026-04-12T12:12:20.433Z</time></trkpt><trkpt lat="42.9329017" lon="13.0784283"><ele>607.0</ele><time>2026-04-12T12:12:21.433Z</time></trkpt><trkpt lat="42.9328433" lon="13.0786917"><ele>606.0</ele><time>2026-04-12T12:12:22.433Z</time></trkpt><trkpt lat="42.9327833" lon="13.078945"><ele>605.3333333333334</ele><time>2026-04-12T12:12:23.431Z</time></trkpt><trkpt lat="42.9327217" lon="13.079185"><ele>604.6666666666667</ele><time>2026-04-12T12:12:24.437Z</time></trkpt><trkpt lat="42.9326667" lon="13.07941"><ele>604.0</ele><time>2026-04-12T12:12:25.433Z</time></trkpt><trkpt lat="42.9326167" lon="13.0796233"><ele>604.0</ele><time>2026-04-12T12:12:26.435Z</time></trkpt><trkpt lat="42.932565" lon="13.0798417"><ele>604.0</ele><time>2026-04-12T12:12:27.434Z</time></trkpt><trkpt lat="42.9325183" lon="13.0800567"><ele>604.0</ele><time>2026-04-12T12:12:28.432Z</time></trkpt><trkpt lat="42.9324667" lon="13.0802733"><ele>604.3333333333334</ele><time>2026-04-12T12:12:29.432Z</time></trkpt><trkpt lat="42.9324167" lon="13.080485"><ele>604.6666666666666</ele><time>2026-04-12T12:12:30.427Z</time></trkpt><trkpt lat="42.932375" lon="13.08069"><ele>605.0</ele><time>2026-04-12T12:12:31.431Z</time></trkpt><trkpt lat="42.9323367" lon="13.0808917"><ele>605.0</ele><time>2026-04-12T12:12:32.433Z</time></trkpt><trkpt lat="42.9322917" lon="13.0810933"><ele>605.0</ele><time>2026-04-12T12:12:33.428Z</time></trkpt><trkpt lat="42.9322433" lon="13.0812917"><ele>605.0</ele><time>2026-04-12T12:12:34.429Z</time></trkpt><trkpt lat="42.9321983" lon="13.081485"><ele>605.5</ele><time>2026-04-12T12:12:35.427Z</time></trkpt><trkpt lat="42.93215" lon="13.0816817"><ele>606.0</ele><time>2026-04-12T12:12:36.431Z</time></trkpt><trkpt lat="42.9321083" lon="13.08187"><ele>606.5</ele><time>2026-04-12T12:12:37.432Z</time></trkpt><trkpt lat="42.9320633" lon="13.0820583"><ele>607.0</ele><time>2026-04-12T12:12:38.439Z</time></trkpt><trkpt lat="42.9320267" lon="13.08224"><ele>607.0</ele><time>2026-04-12T12:12:39.432Z</time></trkpt><trkpt lat="42.931985" lon="13.0824233"><ele>607.0</ele><time>2026-04-12T12:12:40.432Z</time></trkpt><trkpt lat="42.9319417" lon="13.0826067"><ele>607.0</ele><time>2026-04-12T12:12:41.433Z</time></trkpt><trkpt lat="42.9319" lon="13.0827867"><ele>607.0</ele><time>2026-04-12T12:12:42.432Z</time></trkpt><trkpt lat="42.9318583" lon="13.0829617"><ele>607.75</ele><time>2026-04-12T12:12:43.433Z</time></trkpt><trkpt lat="42.9318183" lon="13.0831283"><ele>608.5</ele><time>2026-04-12T12:12:44.436Z</time></trkpt><trkpt lat="42.9317783" lon="13.0832883"><ele>609.25</ele><time>2026-04-12T12:12:45.432Z</time></trkpt><trkpt lat="42.9317417" lon="13.08344"><ele>610.0</ele><time>2026-04-12T12:12:46.433Z</time></trkpt><trkpt lat="42.9317" lon="13.08357"><ele>610.0</ele><time>2026-04-12T12:12:47.434Z</time></trkpt><trkpt lat="42.9316683" lon="13.0836983"><ele>610.0</ele><time>2026-04-12T12:12:48.433Z</time></trkpt><trkpt lat="42.9316467" lon="13.0838167"><ele>610.0</ele><time>2026-04-12T12:12:49.432Z</time></trkpt><trkpt lat="42.9316333" lon="13.0839283"><ele>610.0</ele><time>2026-04-12T12:12:50.44Z</time></trkpt><trkpt lat="42.9316333" lon="13.08404"><ele>610.0</ele><time>2026-04-12T12:12:51.434Z</time></trkpt><trkpt lat="42.931645" lon="13.0841383"><ele>610.0</ele><time>2026-04-12T12:12:52.431Z</time></trkpt><trkpt lat="42.93168" lon="13.08422"><ele>610.0</ele><time>2026-04-12T12:12:53.431Z</time></trkpt><trkpt lat="42.9317283" lon="13.0842933"><ele>608.0</ele><time>2026-04-12T12:12:54.434Z</time></trkpt><trkpt lat="42.9317967" lon="13.0843467"><ele>608.0</ele><time>2026-04-12T12:12:55.433Z</time></trkpt><trkpt lat="42.9318617" lon="13.0843883"><ele>608.0</ele><time>2026-04-12T12:12:56.434Z</time></trkpt><trkpt lat="42.9319467" lon="13.0844733"><ele>608.0</ele><time>2026-04-12T12:12:58.434Z</time></trkpt><trkpt lat="42.9319883" lon="13.0845417"><ele>608.0</ele><time>2026-04-12T12:13:00.429Z</time></trkpt></trkseg><trkseg><trkpt lat="42.9320867" lon="13.08465"><ele>608.0</ele><time>2026-04-12T12:23:16.427Z</time></trkpt><trkpt lat="42.9321633" lon="13.08467"><ele>608.0</ele><time>2026-04-12T12:23:18.432Z</time></trkpt><trkpt lat="42.9322867" lon="13.0846183"><ele>608.0</ele><time>2026-04-12T12:23:20.431Z</time></trkpt><trkpt lat="42.9323433" lon="13.0845467"><ele>608.0</ele><time>2026-04-12T12:23:21.429Z</time></trkpt><trkpt lat="42.9323917" lon="13.0844533"><ele>608.0</ele><time>2026-04-12T12:23:22.434Z</time></trkpt><trkpt lat="42.9324467" lon="13.084355"><ele>608.0</ele><time>2026-04-12T12:23:23.43Z</time></trkpt><trkpt lat="42.9325" lon="13.084255"><ele>608.0</ele><time>2026-04-12T12:23:24.429Z</time></trkpt><trkpt lat="42.9325633" lon="13.0841533"><ele>608.0</ele><time>2026-04-12T12:23:25.427Z</time></trkpt><trkpt lat="42.9326317" lon="13.08404"><ele>608.0</ele><time>2026-04-12T12:23:26.423Z</time></trkpt><trkpt lat="42.9327067" lon="13.0839167"><ele>608.0</ele><time>2026-04-12T12:23:27.43Z</time></trkpt><trkpt lat="42.9327783" lon="13.0837867"><ele>608.5</ele><time>2026-04-12T12:23:28.429Z</time></trkpt><trkpt lat="42.93285" lon="13.0836483"><ele>609.0</ele><time>2026-04-12T12:23:29.431Z</time></trkpt><trkpt lat="42.9329217" lon="13.08351"><ele>609.5</ele><time>2026-04-12T12:23:30.434Z</time></trkpt><trkpt lat="42.9329933" lon="13.0833683"><ele>610.0</ele><time>2026-04-12T12:23:31.431Z</time></trkpt><trkpt lat="42.9330717" lon="13.08323"><ele>610.0</ele><time>2026-04-12T12:23:32.431Z</time></trkpt><trkpt lat="42.9331533" lon="13.0830833"><ele>610.0</ele><time>2026-04-12T12:23:33.432Z</time></trkpt><trkpt lat="42.93324" lon="13.0829283"><ele>610.0</ele><time>2026-04-12T12:23:34.429Z</time></trkpt><trkpt lat="42.9333317" lon="13.0827683"><ele>610.0</ele><time>2026-04-12T12:23:35.43Z</time></trkpt><trkpt lat="42.9334217" lon="13.08261"><ele>610.25</ele><time>2026-04-12T12:23:36.426Z</time></trkpt><trkpt lat="42.9335133" lon="13.082455"><ele>610.5</ele><time>2026-04-12T12:23:37.428Z</time></trkpt><trkpt lat="42.93361" lon="13.0823167"><ele>610.75</ele><time>2026-04-12T12:23:38.433Z</time></trkpt><trkpt lat="42.9337167" lon="13.0822017"><ele>611.0</ele><time>2026-04-12T12:23:39.428Z</time></trkpt><trkpt lat="42.93383" lon="13.08212"><ele>611.0</ele><time>2026-04-12T12:23:40.428Z</time></trkpt><trkpt lat="42.9339517" lon="13.0820583"><ele>611.0</ele><time>2026-04-12T12:23:41.434Z</time></trkpt><trkpt lat="42.9340833" lon="13.0820167"><ele>611.0</ele><time>2026-04-12T12:23:42.43Z</time></trkpt><trkpt lat="42.934225" lon="13.081995"><ele>611.0</ele><time>2026-04-12T12:23:43.437Z</time></trkpt><trkpt lat="42.93437" lon="13.082005"><ele>611.0</ele><time>2026-04-12T12:23:44.433Z</time></trkpt><trkpt lat="42.93452" lon="13.0820217"><ele>611.0</ele><time>2026-04-12T12:23:45.433Z</time></trkpt><trkpt lat="42.934675" lon="13.0820367"><ele>611.0</ele><time>2026-04-12T12:23:46.434Z</time></trkpt><trkpt lat="42.9348333" lon="13.0820433"><ele>611.0</ele><time>2026-04-12T12:23:47.428Z</time></trkpt><trkpt lat="42.934995" lon="13.08205"><ele>611.0</ele><time>2026-04-12T12:23:48.431Z</time></trkpt><trkpt lat="42.9351567" lon="13.082055"><ele>611.0</ele><time>2026-04-12T12:23:49.43Z</time></trkpt><trkpt lat="42.9353217" lon="13.0820583"><ele>612.0</ele><time>2026-04-12T12:23:50.433Z</time></trkpt><trkpt lat="42.9354883" lon="13.0820583"><ele>613.0</ele><time>2026-04-12T12:23:51.433Z</time></trkpt><trkpt lat="42.9356533" lon="13.082055"><ele>614.0</ele><time>2026-04-12T12:23:52.433Z</time></trkpt><trkpt lat="42.93582" lon="13.0820567"><ele>615.0</ele><time>2026-04-12T12:23:53.429Z</time></trkpt><trkpt lat="42.9359883" lon="13.0820583"><ele>616.0</ele><time>2026-04-12T12:23:54.433Z</time></trkpt><trkpt lat="42.93616" lon="13.082055"><ele>617.0</ele><time>2026-04-12T12:23:55.43Z</time></trkpt><trkpt lat="42.9363383" lon="13.0820517"><ele>617.0</ele><time>2026-04-12T12:23:56.437Z</time></trkpt><trkpt lat="42.9365233" lon="13.0820517"><ele>617.0</ele><time>2026-04-12T12:23:57.432Z</time></trkpt><trkpt lat="42.9367083" lon="13.0820567"><ele>617.0</ele><time>2026-04-12T12:23:58.431Z</time></trkpt><trkpt lat="42.9368933" lon="13.0820583"><ele>620.0</ele><time>2026-04-12T12:23:59.43Z</time></trkpt><trkpt lat="42.9370867" lon="13.0820633"><ele>623.0</ele><time>2026-04-12T12:24:00.434Z</time></trkpt><trkpt lat="42.937285" lon="13.08208"><ele>626.0</ele><time>2026-04-12T12:24:01.431Z</time></trkpt><trkpt lat="42.937485" lon="13.0821083"><ele>629.0</ele><time>2026-04-12T12:24:02.439Z</time></trkpt><trkpt lat="42.9376817" lon="13.0821467"><ele>632.0</ele><time>2026-04-12T12:24:03.43Z</time></trkpt><trkpt lat="42.9378867" lon="13.0821883"><ele>635.0</ele><time>2026-04-12T12:24:04.433Z</time></trkpt><trkpt lat="42.9380967" lon="13.0822317"><ele>635.0</ele><time>2026-04-12T12:24:05.434Z</time></trkpt><trkpt lat="42.9383033" lon="13.0822733"><ele>635.0</ele><time>2026-04-12T12:24:06.432Z</time></trkpt><trkpt lat="42.93851" lon="13.08231"><ele>635.0</ele><time>2026-04-12T12:24:07.432Z</time></trkpt><trkpt lat="42.9387233" lon="13.08235"><ele>634.3333333333333</ele><time>2026-04-12T12:24:08.433Z</time></trkpt><trkpt lat="42.93894" lon="13.0823967"><ele>633.6666666666666</ele><time>2026-04-12T12:24:09.43Z</time></trkpt><trkpt lat="42.9391567" lon="13.0824633"><ele>633.0</ele><time>2026-04-12T12:24:10.429Z</time></trkpt><trkpt lat="42.939375" lon="13.082545"><ele>633.0</ele><time>2026-04-12T12:24:11.426Z</time></trkpt><trkpt lat="42.9395967" lon="13.0826417"><ele>633.0</ele><time>2026-04-12T12:24:12.431Z</time></trkpt><trkpt lat="42.9398233" lon="13.0827583"><ele>633.0</ele><time>2026-04-12T12:24:13.43Z</time></trkpt><trkpt lat="42.9400483" lon="13.0828683"><ele>633.0</ele><time>2026-04-12T12:24:14.433Z</time></trkpt><trkpt lat="42.9402783" lon="13.082965"><ele>634.0</ele><time>2026-04-12T12:24:15.431Z</time></trkpt><trkpt lat="42.9405133" lon="13.0830483"><ele>635.0</ele><time>2026-04-12T12:24:16.431Z</time></trkpt><trkpt lat="42.9407533" lon="13.0831233"><ele>635.5</ele><time>2026-04-12T12:24:17.432Z</time></trkpt><trkpt lat="42.9409983" lon="13.0831917"><ele>636.0</ele><time>2026-04-12T12:24:18.431Z</time></trkpt><trkpt lat="42.9412417" lon="13.08326"><ele>635.5</ele><time>2026-04-12T12:24:19.429Z</time></trkpt><trkpt lat="42.9414817" lon="13.0833167"><ele>635.0</ele><time>2026-04-12T12:24:20.43Z</time></trkpt><trkpt lat="42.94171" lon="13.083365"><ele>635.6666666666666</ele><time>2026-04-12T12:24:21.43Z</time></trkpt><trkpt lat="42.9419317" lon="13.0834033"><ele>636.3333333333334</ele><time>2026-04-12T12:24:22.425Z</time></trkpt><trkpt lat="42.942145" lon="13.083435"><ele>637.0</ele><time>2026-04-12T12:24:23.43Z</time></trkpt><trkpt lat="42.9423517" lon="13.0834583"><ele>637.0</ele><time>2026-04-12T12:24:24.431Z</time></trkpt><trkpt lat="42.9425483" lon="13.0834767"><ele>637.0</ele><time>2026-04-12T12:24:25.429Z</time></trkpt><trkpt lat="42.9427433" lon="13.0834917"><ele>637.0</ele><time>2026-04-12T12:24:26.432Z</time></trkpt><trkpt lat="42.9429367" lon="13.083495"><ele>637.0</ele><time>2026-04-12T12:24:27.428Z</time></trkpt><trkpt lat="42.9431433" lon="13.0834883"><ele>637.0</ele><time>2026-04-12T12:24:28.429Z</time></trkpt><trkpt lat="42.9433583" lon="13.0834883"><ele>637.0</ele><time>2026-04-12T12:24:29.43Z</time></trkpt><trkpt lat="42.9435733" lon="13.0834767"><ele>638.5</ele><time>2026-04-12T12:24:30.431Z</time></trkpt><trkpt lat="42.9437967" lon="13.0834583"><ele>640.0</ele><time>2026-04-12T12:24:31.432Z</time></trkpt><trkpt lat="42.94403" lon="13.08344"><ele>642.0</ele><time>2026-04-12T12:24:32.444Z</time></trkpt><trkpt lat="42.9442733" lon="13.08342"><ele>644.0</ele><time>2026-04-12T12:24:33.431Z</time></trkpt><trkpt lat="42.944515" lon="13.0833883"><ele>644.0</ele><time>2026-04-12T12:24:34.43Z</time></trkpt><trkpt lat="42.9447633" lon="13.083365"><ele>644.0</ele><time>2026-04-12T12:24:35.431Z</time></trkpt><trkpt lat="42.9450117" lon="13.08334"><ele>645.5</ele><time>2026-04-12T12:24:36.431Z</time></trkpt><trkpt lat="42.945265" lon="13.083315"><ele>647.0</ele><time>2026-04-12T12:24:37.432Z</time></trkpt><trkpt lat="42.9455183" lon="13.083295"><ele>647.0</ele><time>2026-04-12T12:24:38.432Z</time></trkpt><trkpt lat="42.9457633" lon="13.083275"><ele>647.0</ele><time>2026-04-12T12:24:39.43Z</time></trkpt><trkpt lat="42.94599" lon="13.083255"><ele>647.0</ele><time>2026-04-12T12:24:40.429Z</time></trkpt><trkpt lat="42.946195" lon="13.0832517"><ele>647.0</ele><time>2026-04-12T12:24:41.429Z</time></trkpt><trkpt lat="42.946395" lon="13.0832617"><ele>647.0</ele><time>2026-04-12T12:24:42.429Z</time></trkpt><trkpt lat="42.9465883" lon="13.08331"><ele>649.0</ele><time>2026-04-12T12:24:43.429Z</time></trkpt><trkpt lat="42.9467767" lon="13.083385"><ele>651.0</ele><time>2026-04-12T12:24:44.432Z</time></trkpt><trkpt lat="42.9469667" lon="13.0834833"><ele>653.0</ele><time>2026-04-12T12:24:45.428Z</time></trkpt><trkpt lat="42.9471617" lon="13.0836"><ele>653.0</ele><time>2026-04-12T12:24:46.432Z</time></trkpt><trkpt lat="42.9473617" lon="13.08372"><ele>653.0</ele><time>2026-04-12T12:24:47.428Z</time></trkpt><trkpt lat="42.94757" lon="13.0838433"><ele>653.0</ele><time>2026-04-12T12:24:48.433Z</time></trkpt><trkpt lat="42.947785" lon="13.0839583"><ele>654.0</ele><time>2026-04-12T12:24:49.432Z</time></trkpt><trkpt lat="42.94801" lon="13.08404"><ele>655.0</ele><time>2026-04-12T12:24:50.435Z</time></trkpt><trkpt lat="42.9482383" lon="13.08407"><ele>659.5</ele><time>2026-04-12T12:24:51.429Z</time></trkpt><trkpt lat="42.9484817" lon="13.08405"><ele>664.0</ele><time>2026-04-12T12:24:52.43Z</time></trkpt><trkpt lat="42.948725" lon="13.0840083"><ele>664.0</ele><time>2026-04-12T12:24:53.43Z</time></trkpt><trkpt lat="42.9489533" lon="13.08394"><ele>664.0</ele><time>2026-04-12T12:24:54.433Z</time></trkpt><trkpt lat="42.94917" lon="13.08384"><ele>667.5</ele><time>2026-04-12T12:24:55.428Z</time></trkpt><trkpt lat="42.94938" lon="13.0837"><ele>671.0</ele><time>2026-04-12T12:24:56.428Z</time></trkpt><trkpt lat="42.9495883" lon="13.083575"><ele>671.0</ele><time>2026-04-12T12:24:57.431Z</time></trkpt><trkpt lat="42.9498117" lon="13.0835017"><ele>671.0</ele><time>2026-04-12T12:24:58.43Z</time></trkpt><trkpt lat="42.9500417" lon="13.0834717"><ele>676.0</ele><time>2026-04-12T12:24:59.429Z</time></trkpt><trkpt lat="42.9502733" lon="13.0834433"><ele>681.0</ele><time>2026-04-12T12:25:00.431Z</time></trkpt><trkpt lat="42.950505" lon="13.0833883"><ele>681.0</ele><time>2026-04-12T12:25:01.43Z</time></trkpt><trkpt lat="42.9507317" lon="13.08333"><ele>681.0</ele><time>2026-04-12T12:25:02.431Z</time></trkpt><trkpt lat="42.9509567" lon="13.08332"><ele>683.5</ele><time>2026-04-12T12:25:03.43Z</time></trkpt><trkpt lat="42.9511883" lon="13.0833683"><ele>686.0</ele><time>2026-04-12T12:25:04.432Z</time></trkpt><trkpt lat="42.9514283" lon="13.0833933"><ele>686.0</ele><time>2026-04-12T12:25:05.428Z</time></trkpt><trkpt lat="42.951685" lon="13.0833867"><ele>686.0</ele><time>2026-04-12T12:25:06.431Z</time></trkpt><trkpt lat="42.9519483" lon="13.0833417"><ele>683.0</ele><time>2026-04-12T12:25:07.431Z</time></trkpt><trkpt lat="42.9521983" lon="13.0832567"><ele>680.0</ele><time>2026-04-12T12:25:08.434Z</time></trkpt><trkpt lat="42.9524283" lon="13.08317"><ele>682.3333333333333</ele><time>2026-04-12T12:25:09.431Z</time></trkpt><trkpt lat="42.95264" lon="13.08312"><ele>684.6666666666666</ele><time>2026-04-12T12:25:10.428Z</time></trkpt><trkpt lat="42.9528433" lon="13.083115"><ele>687.0</ele><time>2026-04-12T12:25:11.428Z</time></trkpt><trkpt lat="42.953045" lon="13.0831633"><ele>687.0</ele><time>2026-04-12T12:25:12.428Z</time></trkpt><trkpt lat="42.9532517" lon="13.0832417"><ele>687.0</ele><time>2026-04-12T12:25:13.429Z</time></trkpt><trkpt lat="42.953465" lon="13.0833633"><ele>687.0</ele><time>2026-04-12T12:25:14.432Z</time></trkpt><trkpt lat="42.953675" lon="13.0834333"><ele>691.0</ele><time>2026-04-12T12:25:15.427Z</time></trkpt><trkpt lat="42.9538833" lon="13.08346"><ele>695.0</ele><time>2026-04-12T12:25:16.432Z</time></trkpt><trkpt lat="42.9540817" lon="13.0834367"><ele>699.0</ele><time>2026-04-12T12:25:17.431Z</time></trkpt><trkpt lat="42.954265" lon="13.0834167"><ele>699.0</ele><time>2026-04-12T12:25:18.43Z</time></trkpt><trkpt lat="42.95443" lon="13.0834367"><ele>699.0</ele><time>2026-04-12T12:25:19.431Z</time></trkpt><trkpt lat="42.9545783" lon="13.08352"><ele>699.0</ele><time>2026-04-12T12:25:20.431Z</time></trkpt><trkpt lat="42.9546983" lon="13.083665"><ele>699.0</ele><time>2026-04-12T12:25:21.428Z</time></trkpt><trkpt lat="42.9547917" lon="13.083855"><ele>699.0</ele><time>2026-04-12T12:25:22.429Z</time></trkpt><trkpt lat="42.9548617" lon="13.0840883"><ele>699.0</ele><time>2026-04-12T12:25:23.431Z</time></trkpt><trkpt lat="42.9549533" lon="13.0843333"><ele>706.3333333333334</ele><time>2026-04-12T12:25:24.427Z</time></trkpt><trkpt lat="42.9550717" lon="13.0845567"><ele>713.6666666666667</ele><time>2026-04-12T12:25:25.429Z</time></trkpt><trkpt lat="42.9551867" lon="13.0847517"><ele>721.0</ele><time>2026-04-12T12:25:26.43Z</time></trkpt><trkpt lat="42.9553033" lon="13.0849383"><ele>722.3333333333334</ele><time>2026-04-12T12:25:27.429Z</time></trkpt><trkpt lat="42.9554233" lon="13.0850767"><ele>723.6666666666666</ele><time>2026-04-12T12:25:28.43Z</time></trkpt><trkpt lat="42.9555583" lon="13.0851767"><ele>725.0</ele><time>2026-04-12T12:25:29.431Z</time></trkpt><trkpt lat="42.9557" lon="13.0852"><ele>725.0</ele><time>2026-04-12T12:25:30.429Z</time></trkpt><trkpt lat="42.9558633" lon="13.0851617"><ele>725.0</ele><time>2026-04-12T12:25:31.428Z</time></trkpt><trkpt lat="42.95603" lon="13.0850983"><ele>725.0</ele><time>2026-04-12T12:25:32.428Z</time></trkpt><trkpt lat="42.9561767" lon="13.08505"><ele>730.25</ele><time>2026-04-12T12:25:33.429Z</time></trkpt><trkpt lat="42.9563" lon="13.08498"><ele>735.5</ele><time>2026-04-12T12:25:34.43Z</time></trkpt><trkpt lat="42.956385" lon="13.084885"><ele>740.75</ele><time>2026-04-12T12:25:35.431Z</time></trkpt><trkpt lat="42.9564017" lon="13.0847533"><ele>746.0</ele><time>2026-04-12T12:25:36.43Z</time></trkpt><trkpt lat="42.9563583" lon="13.084615"><ele>747.6666666666666</ele><time>2026-04-12T12:25:37.428Z</time></trkpt><trkpt lat="42.9562383" lon="13.084465"><ele>749.3333333333334</ele><time>2026-04-12T12:25:38.432Z</time></trkpt><trkpt lat="42.9560883" lon="13.0843"><ele>751.0</ele><time>2026-04-12T12:25:39.428Z</time></trkpt><trkpt lat="42.9559883" lon="13.0841217"><ele>748.0</ele><time>2026-04-12T12:25:40.431Z</time></trkpt><trkpt lat="42.9559217" lon="13.0839433"><ele>745.0</ele><time>2026-04-12T12:25:41.427Z</time></trkpt><trkpt lat="42.9559167" lon="13.0837417"><ele>742.0</ele><time>2026-04-12T12:25:42.427Z</time></trkpt><trkpt lat="42.9559583" lon="13.083525"><ele>742.0</ele><time>2026-04-12T12:25:43.429Z</time></trkpt><trkpt lat="42.956025" lon="13.083315"><ele>742.0</ele><time>2026-04-12T12:25:44.43Z</time></trkpt><trkpt lat="42.956115" lon="13.083135"><ele>742.0</ele><time>2026-04-12T12:25:45.428Z</time></trkpt><trkpt lat="42.9562317" lon="13.0829817"><ele>733.6666666666667</ele><time>2026-04-12T12:25:46.429Z</time></trkpt><trkpt lat="42.956375" lon="13.0828833"><ele>725.3333333333334</ele><time>2026-04-12T12:25:47.43Z</time></trkpt><trkpt lat="42.9565233" lon="13.0828517"><ele>717.0</ele><time>2026-04-12T12:25:48.427Z</time></trkpt><trkpt lat="42.9566667" lon="13.0829017"><ele>719.6666666666666</ele><time>2026-04-12T12:25:49.427Z</time></trkpt><trkpt lat="42.9567917" lon="13.0830267"><ele>722.3333333333333</ele><time>2026-04-12T12:25:50.431Z</time></trkpt><trkpt lat="42.9569133" lon="13.0832133"><ele>725.0</ele><time>2026-04-12T12:25:51.429Z</time></trkpt><trkpt lat="42.9570467" lon="13.0834133"><ele>730.0</ele><time>2026-04-12T12:25:52.428Z</time></trkpt><trkpt lat="42.9571933" lon="13.0836167"><ele>735.0</ele><time>2026-04-12T12:25:53.423Z</time></trkpt><trkpt lat="42.95735" lon="13.0837717"><ele>740.0</ele><time>2026-04-12T12:25:54.431Z</time></trkpt><trkpt lat="42.9575083" lon="13.0838583"><ele>743.0</ele><time>2026-04-12T12:25:55.43Z</time></trkpt><trkpt lat="42.9576717" lon="13.0838617"><ele>746.0</ele><time>2026-04-12T12:25:56.432Z</time></trkpt><trkpt lat="42.9578333" lon="13.083805"><ele>749.0</ele><time>2026-04-12T12:25:57.43Z</time></trkpt><trkpt lat="42.9579967" lon="13.083685"><ele>749.0</ele><time>2026-04-12T12:25:58.43Z</time></trkpt><trkpt lat="42.9581583" lon="13.0835033"><ele>749.0</ele><time>2026-04-12T12:25:59.43Z</time></trkpt><trkpt lat="42.9583233" lon="13.0832817"><ele>749.0</ele><time>2026-04-12T12:26:00.431Z</time></trkpt><trkpt lat="42.958495" lon="13.0830583"><ele>748.0</ele><time>2026-04-12T12:26:01.431Z</time></trkpt><trkpt lat="42.958685" lon="13.0828583"><ele>747.0</ele><time>2026-04-12T12:26:02.436Z</time></trkpt><trkpt lat="42.9588817" lon="13.0826867"><ele>747.0</ele><time>2026-04-12T12:26:03.43Z</time></trkpt><trkpt lat="42.95908" lon="13.0825283"><ele>747.0</ele><time>2026-04-12T12:26:04.43Z</time></trkpt><trkpt lat="42.95928" lon="13.082375"><ele>749.5</ele><time>2026-04-12T12:26:05.43Z</time></trkpt><trkpt lat="42.9594867" lon="13.0822217"><ele>752.0</ele><time>2026-04-12T12:26:06.429Z</time></trkpt><trkpt lat="42.9596967" lon="13.0820633"><ele>752.0</ele><time>2026-04-12T12:26:07.429Z</time></trkpt><trkpt lat="42.95991" lon="13.0819017"><ele>752.0</ele><time>2026-04-12T12:26:08.431Z</time></trkpt><trkpt lat="42.96012" lon="13.0817367"><ele>771.0</ele><time>2026-04-12T12:26:09.43Z</time></trkpt><trkpt lat="42.96033" lon="13.0815717"><ele>790.0</ele><time>2026-04-12T12:26:10.43Z</time></trkpt><trkpt lat="42.96054" lon="13.0814183"><ele>790.0</ele><time>2026-04-12T12:26:11.428Z</time></trkpt><trkpt lat="42.96075" lon="13.0812883"><ele>790.0</ele><time>2026-04-12T12:26:12.426Z</time></trkpt><trkpt lat="42.960965" lon="13.0811833"><ele>789.5</ele><time>2026-04-12T12:26:13.43Z</time></trkpt><trkpt lat="42.96119" lon="13.081115"><ele>789.0</ele><time>2026-04-12T12:26:14.431Z</time></trkpt><trkpt lat="42.961425" lon="13.0810733"><ele>789.0</ele><time>2026-04-12T12:26:15.429Z</time></trkpt><trkpt lat="42.96167" lon="13.0810467"><ele>789.0</ele><time>2026-04-12T12:26:16.428Z</time></trkpt><trkpt lat="42.9619167" lon="13.0810317"><ele>787.0</ele><time>2026-04-12T12:26:17.429Z</time></trkpt><trkpt lat="42.962165" lon="13.0810117"><ele>785.0</ele><time>2026-04-12T12:26:18.427Z</time></trkpt><trkpt lat="42.9624067" lon="13.0809917"><ele>788.5</ele><time>2026-04-12T12:26:19.427Z</time></trkpt><trkpt lat="42.9626417" lon="13.0809767"><ele>792.0</ele><time>2026-04-12T12:26:20.431Z</time></trkpt><trkpt lat="42.9628783" lon="13.0809467"><ele>792.0</ele><time>2026-04-12T12:26:21.426Z</time></trkpt><trkpt lat="42.9631167" lon="13.0809183"><ele>792.0</ele><time>2026-04-12T12:26:22.426Z</time></trkpt><trkpt lat="42.9633483" lon="13.08089"><ele>795.5</ele><time>2026-04-12T12:26:23.429Z</time></trkpt><trkpt lat="42.9635817" lon="13.080865"><ele>799.0</ele><time>2026-04-12T12:26:24.431Z</time></trkpt><trkpt lat="42.967345" lon="13.0788917"><ele>786.5</ele><time>2026-04-12T12:26:41.428Z</time></trkpt><trkpt lat="42.9675567" lon="13.0787517"><ele>774.0</ele><time>2026-04-12T12:26:42.427Z</time></trkpt><trkpt lat="42.967765" lon="13.0786067"><ele>774.0</ele><time>2026-04-12T12:26:43.429Z</time></trkpt><trkpt lat="42.9679683" lon="13.0784717"><ele>774.0</ele><time>2026-04-12T12:26:44.432Z</time></trkpt><trkpt lat="42.968175" lon="13.0783367"><ele>770.5</ele><time>2026-04-12T12:26:45.429Z</time></trkpt><trkpt lat="42.9683867" lon="13.0781933"><ele>767.0</ele><time>2026-04-12T12:26:46.427Z</time></trkpt><trkpt lat="42.9686083" lon="13.0780533"><ele>767.0</ele><time>2026-04-12T12:26:47.432Z</time></trkpt><trkpt lat="42.9688367" lon="13.0779183"><ele>767.0</ele><time>2026-04-12T12:26:48.431Z</time></trkpt><trkpt lat="42.969065" lon="13.0777767"><ele>763.5</ele><time>2026-04-12T12:26:49.433Z</time></trkpt><trkpt lat="42.9692967" lon="13.0776317"><ele>760.0</ele><time>2026-04-12T12:26:50.431Z</time></trkpt><trkpt lat="42.9695317" lon="13.07749"><ele>767.5</ele><time>2026-04-12T12:26:51.429Z</time></trkpt><trkpt lat="42.969765" lon="13.07735"><ele>775.0</ele><time>2026-04-12T12:26:52.429Z</time></trkpt><trkpt lat="42.9699983" lon="13.0772117"><ele>766.0</ele><time>2026-04-12T12:26:53.431Z</time></trkpt><trkpt lat="42.970225" lon="13.0770767"><ele>757.0</ele><time>2026-04-12T12:26:54.431Z</time></trkpt><trkpt lat="42.9704567" lon="13.0769417"><ele>757.0</ele><time>2026-04-12T12:26:55.428Z</time></trkpt><trkpt lat="42.9706867" lon="13.0768067"><ele>757.0</ele><time>2026-04-12T12:26:56.432Z</time></trkpt><trkpt lat="42.9709183" lon="13.07668"><ele>757.5</ele><time>2026-04-12T12:26:57.429Z</time></trkpt><trkpt lat="42.97115" lon="13.0765683"><ele>758.0</ele><time>2026-04-12T12:26:58.43Z</time></trkpt><trkpt lat="42.9713867" lon="13.0764883"><ele>758.0</ele><time>2026-04-12T12:26:59.431Z</time></trkpt><trkpt lat="42.97162" lon="13.076455"><ele>758.0</ele><time>2026-04-12T12:27:00.43Z</time></trkpt><trkpt lat="42.9718483" lon="13.0764667"><ele>754.6666666666666</ele><time>2026-04-12T12:27:01.431Z</time></trkpt><trkpt lat="42.97207" lon="13.07651"><ele>751.3333333333334</ele><time>2026-04-12T12:27:02.431Z</time></trkpt><trkpt lat="42.9722883" lon="13.0765783"><ele>748.0</ele><time>2026-04-12T12:27:03.431Z</time></trkpt><trkpt lat="42.9725017" lon="13.0766733"><ele>741.6666666666667</ele><time>2026-04-12T12:27:04.429Z</time></trkpt><trkpt lat="42.9727067" lon="13.0767883"><ele>735.3333333333334</ele><time>2026-04-12T12:27:05.429Z</time></trkpt><trkpt lat="42.9729067" lon="13.0769217"><ele>729.0</ele><time>2026-04-12T12:27:06.428Z</time></trkpt><trkpt lat="42.973105" lon="13.0770633"><ele>729.0</ele><time>2026-04-12T12:27:07.431Z</time></trkpt><trkpt lat="42.9732983" lon="13.0772067"><ele>729.0</ele><time>2026-04-12T12:27:08.429Z</time></trkpt><trkpt lat="42.9734967" lon="13.0773433"><ele>729.0</ele><time>2026-04-12T12:27:09.427Z</time></trkpt><trkpt lat="42.9737017" lon="13.0774633"><ele>729.0</ele><time>2026-04-12T12:27:10.43Z</time></trkpt><trkpt lat="42.973915" lon="13.0775517"><ele>729.0</ele><time>2026-04-12T12:27:11.431Z</time></trkpt><trkpt lat="42.9741317" lon="13.0776167"><ele>729.0</ele><time>2026-04-12T12:27:12.43Z</time></trkpt><trkpt lat="42.9743533" lon="13.0776533"><ele>729.0</ele><time>2026-04-12T12:27:13.429Z</time></trkpt><trkpt lat="42.9745767" lon="13.07766"><ele>729.0</ele><time>2026-04-12T12:27:14.434Z</time></trkpt><trkpt lat="42.9748033" lon="13.0776283"><ele>728.6666666666666</ele><time>2026-04-12T12:27:15.429Z</time></trkpt><trkpt lat="42.9750233" lon="13.0775633"><ele>728.3333333333333</ele><time>2026-04-12T12:27:16.428Z</time></trkpt><trkpt lat="42.9752283" lon="13.0774783"><ele>728.0</ele><time>2026-04-12T12:27:17.431Z</time></trkpt><trkpt lat="42.9754167" lon="13.0773833"><ele>725.6666666666666</ele><time>2026-04-12T12:27:18.431Z</time></trkpt><trkpt lat="42.975605" lon="13.0772783"><ele>723.3333333333334</ele><time>2026-04-12T12:27:19.431Z</time></trkpt><trkpt lat="42.9758" lon="13.0771567"><ele>721.0</ele><time>2026-04-12T12:27:20.435Z</time></trkpt><trkpt lat="42.97601" lon="13.0770317"><ele>715.0</ele><time>2026-04-12T12:27:21.43Z</time></trkpt><trkpt lat="42.9762317" lon="13.0768983"><ele>709.0</ele><time>2026-04-12T12:27:22.429Z</time></trkpt><trkpt lat="42.97646" lon="13.076765"><ele>709.0</ele><time>2026-04-12T12:27:23.432Z</time></trkpt><trkpt lat="42.9766967" lon="13.07663"><ele>709.0</ele><time>2026-04-12T12:27:24.432Z</time></trkpt><trkpt lat="42.9769383" lon="13.0764983"><ele>703.0</ele><time>2026-04-12T12:27:25.43Z</time></trkpt><trkpt lat="42.9771833" lon="13.07637"><ele>697.0</ele><time>2026-04-12T12:27:26.429Z</time></trkpt><trkpt lat="42.97743" lon="13.0762367"><ele>701.5</ele><time>2026-04-12T12:27:27.433Z</time></trkpt><trkpt lat="42.9776767" lon="13.07611"><ele>706.0</ele><time>2026-04-12T12:27:28.429Z</time></trkpt><trkpt lat="42.977925" lon="13.0760017"><ele>706.0</ele><time>2026-04-12T12:27:29.43Z</time></trkpt><trkpt lat="42.9781783" lon="13.0759317"><ele>706.0</ele><time>2026-04-12T12:27:30.43Z</time></trkpt><trkpt lat="42.9784333" lon="13.07591"><ele>701.5</ele><time>2026-04-12T12:27:31.431Z</time></trkpt><trkpt lat="42.97869" lon="13.07593"><ele>697.0</ele><time>2026-04-12T12:27:32.432Z</time></trkpt><trkpt lat="42.978945" lon="13.0759833"><ele>688.0</ele><time>2026-04-12T12:27:33.429Z</time></trkpt><trkpt lat="42.9792" lon="13.0760667"><ele>679.0</ele><time>2026-04-12T12:27:34.433Z</time></trkpt><trkpt lat="42.979455" lon="13.07617"><ele>679.0</ele><time>2026-04-12T12:27:35.43Z</time></trkpt><trkpt lat="42.9797083" lon="13.076275"><ele>679.0</ele><time>2026-04-12T12:27:36.431Z</time></trkpt><trkpt lat="42.97996" lon="13.0763717"><ele>674.5</ele><time>2026-04-12T12:27:37.427Z</time></trkpt><trkpt lat="42.9802117" lon="13.0764367"><ele>670.0</ele><time>2026-04-12T12:27:38.43Z</time></trkpt><trkpt lat="42.9804667" lon="13.0764633"><ele>670.0</ele><time>2026-04-12T12:27:39.431Z</time></trkpt><trkpt lat="42.9807217" lon="13.0764533"><ele>670.0</ele><time>2026-04-12T12:27:40.43Z</time></trkpt><trkpt lat="42.98098" lon="13.0764133"><ele>672.5</ele><time>2026-04-12T12:27:41.433Z</time></trkpt><trkpt lat="42.9812383" lon="13.0763567"><ele>675.0</ele><time>2026-04-12T12:27:42.43Z</time></trkpt><trkpt lat="42.9815" lon="13.076295"><ele>674.0</ele><time>2026-04-12T12:27:43.429Z</time></trkpt><trkpt lat="42.98177" lon="13.0762317"><ele>673.0</ele><time>2026-04-12T12:27:44.431Z</time></trkpt><trkpt lat="42.9820417" lon="13.07617"><ele>673.0</ele><time>2026-04-12T12:27:45.432Z</time></trkpt><trkpt lat="42.9823117" lon="13.0761117"><ele>673.0</ele><time>2026-04-12T12:27:46.429Z</time></trkpt><trkpt lat="42.9825817" lon="13.076055"><ele>674.0</ele><time>2026-04-12T12:27:47.429Z</time></trkpt><trkpt lat="42.982855" lon="13.0759983"><ele>675.0</ele><time>2026-04-12T12:27:48.43Z</time></trkpt><trkpt lat="42.98313" lon="13.0759417"><ele>676.0</ele><time>2026-04-12T12:27:49.429Z</time></trkpt><trkpt lat="42.9834017" lon="13.075885"><ele>677.0</ele><time>2026-04-12T12:27:50.431Z</time></trkpt><trkpt lat="42.983675" lon="13.0758317"><ele>677.0</ele><time>2026-04-12T12:27:51.429Z</time></trkpt><trkpt lat="42.98395" lon="13.0757783"><ele>677.0</ele><time>2026-04-12T12:27:52.429Z</time></trkpt><trkpt lat="42.984225" lon="13.075725"><ele>664.5</ele><time>2026-04-12T12:27:53.429Z</time></trkpt><trkpt lat="42.9845033" lon="13.075675"><ele>652.0</ele><time>2026-04-12T12:27:54.432Z</time></trkpt><trkpt lat="42.9847817" lon="13.07562"><ele>652.5</ele><time>2026-04-12T12:27:55.435Z</time></trkpt><trkpt lat="42.9850567" lon="13.075565"><ele>653.0</ele><time>2026-04-12T12:27:56.432Z</time></trkpt><trkpt lat="42.9853333" lon="13.0755067"><ele>653.0</ele><time>2026-04-12T12:27:57.429Z</time></trkpt><trkpt lat="42.98561" lon="13.075445"><ele>653.0</ele><time>2026-04-12T12:27:58.429Z</time></trkpt><trkpt lat="42.9858833" lon="13.0753767"><ele>652.0</ele><time>2026-04-12T12:27:59.427Z</time></trkpt><trkpt lat="42.986155" lon="13.0752933"><ele>651.0</ele><time>2026-04-12T12:28:00.433Z</time></trkpt><trkpt lat="42.986425" lon="13.0751867"><ele>644.5</ele><time>2026-04-12T12:28:01.429Z</time></trkpt><trkpt lat="42.9866933" lon="13.0750683"><ele>638.0</ele><time>2026-04-12T12:28:02.426Z</time></trkpt><trkpt lat="42.98696" lon="13.07493"><ele>638.0</ele><time>2026-04-12T12:28:03.426Z</time></trkpt><trkpt lat="42.9872267" lon="13.0747817"><ele>638.0</ele><time>2026-04-12T12:28:04.425Z</time></trkpt><trkpt lat="42.9874883" lon="13.0746367"><ele>642.5</ele><time>2026-04-12T12:28:05.43Z</time></trkpt><trkpt lat="42.98776" lon="13.0745033"><ele>647.0</ele><time>2026-04-12T12:28:06.43Z</time></trkpt><trkpt lat="42.9880317" lon="13.0743833"><ele>647.0</ele><time>2026-04-12T12:28:07.428Z</time></trkpt><trkpt lat="42.9882967" lon="13.0742567"><ele>647.0</ele><time>2026-04-12T12:28:08.432Z</time></trkpt><trkpt lat="42.9885583" lon="13.0741167"><ele>639.0</ele><time>2026-04-12T12:28:09.429Z</time></trkpt><trkpt lat="42.9888117" lon="13.0739483"><ele>631.0</ele><time>2026-04-12T12:28:10.43Z</time></trkpt><trkpt lat="42.989055" lon="13.073755"><ele>639.5</ele><time>2026-04-12T12:28:11.43Z</time></trkpt><trkpt lat="42.9892933" lon="13.0735383"><ele>648.0</ele><time>2026-04-12T12:28:12.433Z</time></trkpt><trkpt lat="42.9895267" lon="13.0733083"><ele>640.0</ele><time>2026-04-12T12:28:13.43Z</time></trkpt><trkpt lat="42.9897617" lon="13.07307"><ele>632.0</ele><time>2026-04-12T12:28:14.431Z</time></trkpt><trkpt lat="42.9899983" lon="13.0728367"><ele>630.0</ele><time>2026-04-12T12:28:15.429Z</time></trkpt><trkpt lat="42.9902367" lon="13.072605"><ele>628.0</ele><time>2026-04-12T12:28:16.431Z</time></trkpt><trkpt lat="42.9904733" lon="13.0723767"><ele>628.0</ele><time>2026-04-12T12:28:17.43Z</time></trkpt><trkpt lat="42.990715" lon="13.0721567"><ele>628.0</ele><time>2026-04-12T12:28:18.43Z</time></trkpt><trkpt lat="42.9909617" lon="13.0719517"><ele>630.5</ele><time>2026-04-12T12:28:19.432Z</time></trkpt><trkpt lat="42.991215" lon="13.0717683"><ele>633.0</ele><time>2026-04-12T12:28:20.431Z</time></trkpt><trkpt lat="42.991475" lon="13.0716"><ele>624.5</ele><time>2026-04-12T12:28:21.43Z</time></trkpt><trkpt lat="42.99174" lon="13.07144"><ele>616.0</ele><time>2026-04-12T12:28:22.43Z</time></trkpt><trkpt lat="42.9920067" lon="13.0712733"><ele>616.0</ele><time>2026-04-12T12:28:23.431Z</time></trkpt><trkpt lat="42.9922783" lon="13.0711017"><ele>616.0</ele><time>2026-04-12T12:28:24.43Z</time></trkpt><trkpt lat="42.992555" lon="13.0709333"><ele>614.5</ele><time>2026-04-12T12:28:25.435Z</time></trkpt><trkpt lat="42.9928317" lon="13.0707667"><ele>613.0</ele><time>2026-04-12T12:28:26.434Z</time></trkpt><trkpt lat="42.99311" lon="13.0706"><ele>617.0</ele><time>2026-04-12T12:28:27.428Z</time></trkpt><trkpt lat="42.993385" lon="13.0704167"><ele>621.0</ele><time>2026-04-12T12:28:28.428Z</time></trkpt><trkpt lat="42.9936517" lon="13.070215"><ele>621.0</ele><time>2026-04-12T12:28:29.43Z</time></trkpt><trkpt lat="42.993905" lon="13.0700033"><ele>621.0</ele><time>2026-04-12T12:28:30.428Z</time></trkpt><trkpt lat="42.994145" lon="13.069765"><ele>619.5</ele><time>2026-04-12T12:28:31.429Z</time></trkpt><trkpt lat="42.994375" lon="13.0695017"><ele>618.0</ele><time>2026-04-12T12:28:32.429Z</time></trkpt><trkpt lat="42.9945833" lon="13.0692167"><ele>612.0</ele><time>2026-04-12T12:28:33.432Z</time></trkpt><trkpt lat="42.9947833" lon="13.0689167"><ele>606.0</ele><time>2026-04-12T12:28:34.431Z</time></trkpt><trkpt lat="42.9949783" lon="13.0686067"><ele>606.5</ele><time>2026-04-12T12:28:35.429Z</time></trkpt><trkpt lat="42.9951667" lon="13.06831"><ele>607.0</ele><time>2026-04-12T12:28:36.428Z</time></trkpt><trkpt lat="42.9953583" lon="13.0679933"><ele>607.0</ele><time>2026-04-12T12:28:37.432Z</time></trkpt><trkpt lat="42.9955483" lon="13.0676733"><ele>607.0</ele><time>2026-04-12T12:28:38.43Z</time></trkpt><trkpt lat="42.9957367" lon="13.0673667"><ele>608.5</ele><time>2026-04-12T12:28:39.427Z</time></trkpt><trkpt lat="42.995915" lon="13.0670767"><ele>610.0</ele><time>2026-04-12T12:28:40.428Z</time></trkpt><trkpt lat="42.996085" lon="13.0667983"><ele>605.0</ele><time>2026-04-12T12:28:41.43Z</time></trkpt><trkpt lat="42.9962383" lon="13.0665267"><ele>600.0</ele><time>2026-04-12T12:28:42.431Z</time></trkpt><trkpt lat="42.99638" lon="13.06626"><ele>600.0</ele><time>2026-04-12T12:28:43.431Z</time></trkpt><trkpt lat="42.9965033" lon="13.0659867"><ele>600.0</ele><time>2026-04-12T12:28:44.432Z</time></trkpt><trkpt lat="42.9966133" lon="13.0656983"><ele>600.5</ele><time>2026-04-12T12:28:45.434Z</time></trkpt><trkpt lat="42.9966983" lon="13.0653767"><ele>601.0</ele><time>2026-04-12T12:28:46.433Z</time></trkpt><trkpt lat="42.9967633" lon="13.0650433"><ele>601.5</ele><time>2026-04-12T12:28:47.428Z</time></trkpt><trkpt lat="42.9968017" lon="13.0646983"><ele>602.0</ele><time>2026-04-12T12:28:48.432Z</time></trkpt><trkpt lat="42.9968133" lon="13.0643433"><ele>600.5</ele><time>2026-04-12T12:28:49.429Z</time></trkpt><trkpt lat="42.9968017" lon="13.0639867"><ele>599.0</ele><time>2026-04-12T12:28:50.429Z</time></trkpt><trkpt lat="42.9967767" lon="13.0636433"><ele>599.0</ele><time>2026-04-12T12:28:51.433Z</time></trkpt><trkpt lat="42.9967417" lon="13.06332"><ele>599.0</ele><time>2026-04-12T12:28:52.43Z</time></trkpt><trkpt lat="42.9967017" lon="13.0630117"><ele>597.0</ele><time>2026-04-12T12:28:53.432Z</time></trkpt><trkpt lat="42.996665" lon="13.0627167"><ele>595.0</ele><time>2026-04-12T12:28:54.432Z</time></trkpt><trkpt lat="42.9966367" lon="13.0624367"><ele>593.0</ele><time>2026-04-12T12:28:55.434Z</time></trkpt><trkpt lat="42.9966067" lon="13.06217"><ele>593.0</ele><time>2026-04-12T12:28:56.428Z</time></trkpt><trkpt lat="42.9965783" lon="13.0619217"><ele>593.0</ele><time>2026-04-12T12:28:57.431Z</time></trkpt><trkpt lat="42.9965533" lon="13.0617"><ele>593.0</ele><time>2026-04-12T12:28:58.431Z</time></trkpt><trkpt lat="42.9965333" lon="13.061495"><ele>592.5</ele><time>2026-04-12T12:28:59.43Z</time></trkpt><trkpt lat="42.9965167" lon="13.0613033"><ele>592.0</ele><time>2026-04-12T12:29:00.429Z</time></trkpt><trkpt lat="42.9965067" lon="13.0611183"><ele>591.5</ele><time>2026-04-12T12:29:01.435Z</time></trkpt><trkpt lat="42.9965017" lon="13.06093"><ele>591.0</ele><time>2026-04-12T12:29:02.431Z</time></trkpt><trkpt lat="42.9965033" lon="13.0607383"><ele>588.6666666666666</ele><time>2026-04-12T12:29:03.429Z</time></trkpt><trkpt lat="42.9965117" lon="13.0605417"><ele>586.3333333333333</ele><time>2026-04-12T12:29:04.429Z</time></trkpt><trkpt lat="42.9965267" lon="13.0603367"><ele>584.0</ele><time>2026-04-12T12:29:05.43Z</time></trkpt><trkpt lat="42.9965517" lon="13.0601217"><ele>583.6666666666666</ele><time>2026-04-12T12:29:06.43Z</time></trkpt><trkpt lat="42.996595" lon="13.05989"><ele>583.3333333333334</ele><time>2026-04-12T12:29:07.431Z</time></trkpt><trkpt lat="42.99665" lon="13.05964"><ele>583.0</ele><time>2026-04-12T12:29:08.429Z</time></trkpt><trkpt lat="42.9967217" lon="13.0593817"><ele>582.3333333333334</ele><time>2026-04-12T12:29:09.429Z</time></trkpt><trkpt lat="42.99682" lon="13.0591117"><ele>581.6666666666666</ele><time>2026-04-12T12:29:10.43Z</time></trkpt><trkpt lat="42.996935" lon="13.058845"><ele>581.0</ele><time>2026-04-12T12:29:11.43Z</time></trkpt><trkpt lat="42.9970583" lon="13.058565"><ele>580.5</ele><time>2026-04-12T12:29:12.431Z</time></trkpt><trkpt lat="42.9971817" lon="13.0582633"><ele>580.0</ele><time>2026-04-12T12:29:13.429Z</time></trkpt><trkpt lat="42.9973017" lon="13.057955"><ele>580.0</ele><time>2026-04-12T12:29:14.432Z</time></trkpt><trkpt lat="42.9974167" lon="13.0576567"><ele>580.0</ele><time>2026-04-12T12:29:15.43Z</time></trkpt><trkpt lat="42.9975333" lon="13.0573717"><ele>582.3333333333334</ele><time>2026-04-12T12:29:16.43Z</time></trkpt><trkpt lat="42.997655" lon="13.0571117"><ele>584.6666666666666</ele><time>2026-04-12T12:29:17.431Z</time></trkpt><trkpt lat="42.997785" lon="13.0568717"><ele>587.0</ele><time>2026-04-12T12:29:18.432Z</time></trkpt><trkpt lat="42.997925" lon="13.0566367"><ele>584.6666666666666</ele><time>2026-04-12T12:29:19.431Z</time></trkpt><trkpt lat="42.9980633" lon="13.0564033"><ele>582.3333333333334</ele><time>2026-04-12T12:29:20.433Z</time></trkpt><trkpt lat="42.9982" lon="13.0561767"><ele>580.0</ele><time>2026-04-12T12:29:21.432Z</time></trkpt><trkpt lat="42.9983333" lon="13.055955"><ele>580.6666666666667</ele><time>2026-04-12T12:29:22.432Z</time></trkpt><trkpt lat="42.9984633" lon="13.0557417"><ele>581.3333333333334</ele><time>2026-04-12T12:29:23.433Z</time></trkpt><trkpt lat="42.9985933" lon="13.0555333"><ele>582.0</ele><time>2026-04-12T12:29:24.432Z</time></trkpt><trkpt lat="42.9987233" lon="13.05532"><ele>582.0</ele><time>2026-04-12T12:29:25.427Z</time></trkpt><trkpt lat="42.99885" lon="13.0551083"><ele>582.0</ele><time>2026-04-12T12:29:26.431Z</time></trkpt><trkpt lat="42.99898" lon="13.054895"><ele>582.0</ele><time>2026-04-12T12:29:27.427Z</time></trkpt><trkpt lat="42.99911" lon="13.05468"><ele>583.0</ele><time>2026-04-12T12:29:28.432Z</time></trkpt><trkpt lat="42.99924" lon="13.0544617"><ele>584.0</ele><time>2026-04-12T12:29:29.431Z</time></trkpt><trkpt lat="42.9993717" lon="13.05424"><ele>585.0</ele><time>2026-04-12T12:29:30.432Z</time></trkpt><trkpt lat="42.99951" lon="13.0540167"><ele>581.3333333333334</ele><time>2026-04-12T12:29:31.435Z</time></trkpt><trkpt lat="42.9996533" lon="13.0537983"><ele>577.6666666666667</ele><time>2026-04-12T12:29:32.43Z</time></trkpt><trkpt lat="42.9998033" lon="13.0535817"><ele>574.0</ele><time>2026-04-12T12:29:33.432Z</time></trkpt><trkpt lat="42.99996" lon="13.05337"><ele>572.5</ele><time>2026-04-12T12:29:34.431Z</time></trkpt><trkpt lat="43.0001283" lon="13.053165"><ele>571.0</ele><time>2026-04-12T12:29:35.432Z</time></trkpt><trkpt lat="43.0003083" lon="13.05296"><ele>571.0</ele><time>2026-04-12T12:29:36.43Z</time></trkpt><trkpt lat="43.0004967" lon="13.052755"><ele>571.0</ele><time>2026-04-12T12:29:37.434Z</time></trkpt><trkpt lat="43.0006917" lon="13.0525533"><ele>569.0</ele><time>2026-04-12T12:29:38.436Z</time></trkpt><trkpt lat="43.000895" lon="13.0523533"><ele>567.0</ele><time>2026-04-12T12:29:39.43Z</time></trkpt><trkpt lat="43.0010933" lon="13.0521383"><ele>567.0</ele><time>2026-04-12T12:29:40.431Z</time></trkpt><trkpt lat="43.0012983" lon="13.051925"><ele>567.0</ele><time>2026-04-12T12:29:41.425Z</time></trkpt><trkpt lat="43.0015067" lon="13.0517083"><ele>567.0</ele><time>2026-04-12T12:29:42.435Z</time></trkpt><trkpt lat="43.0017183" lon="13.0514983"><ele>567.0</ele><time>2026-04-12T12:29:43.432Z</time></trkpt><trkpt lat="43.0019367" lon="13.051295"><ele>567.0</ele><time>2026-04-12T12:29:44.429Z</time></trkpt><trkpt lat="43.00216" lon="13.0510967"><ele>567.0</ele><time>2026-04-12T12:29:45.428Z</time></trkpt><trkpt lat="43.002385" lon="13.0509067"><ele>567.0</ele><time>2026-04-12T12:29:46.429Z</time></trkpt><trkpt lat="43.00262" lon="13.05073"><ele>567.0</ele><time>2026-04-12T12:29:47.432Z</time></trkpt><trkpt lat="43.002855" lon="13.050555"><ele>567.0</ele><time>2026-04-12T12:29:48.431Z</time></trkpt><trkpt lat="43.00309" lon="13.0503817"><ele>567.0</ele><time>2026-04-12T12:29:49.43Z</time></trkpt><trkpt lat="43.0033283" lon="13.0502"><ele>566.5</ele><time>2026-04-12T12:29:50.429Z</time></trkpt><trkpt lat="43.0035633" lon="13.0500133"><ele>566.0</ele><time>2026-04-12T12:29:51.435Z</time></trkpt><trkpt lat="43.003805" lon="13.0498367"><ele>566.0</ele><time>2026-04-12T12:29:52.43Z</time></trkpt><trkpt lat="43.0040533" lon="13.0496817"><ele>566.0</ele><time>2026-04-12T12:29:53.43Z</time></trkpt><trkpt lat="43.004305" lon="13.0495433"><ele>564.0</ele><time>2026-04-12T12:29:54.433Z</time></trkpt><trkpt lat="43.0045617" lon="13.0494217"><ele>562.0</ele><time>2026-04-12T12:29:55.432Z</time></trkpt><trkpt lat="43.0048133" lon="13.049315"><ele>563.5</ele><time>2026-04-12T12:29:56.433Z</time></trkpt><trkpt lat="43.0050567" lon="13.0492233"><ele>565.0</ele><time>2026-04-12T12:29:57.431Z</time></trkpt><trkpt lat="43.00529" lon="13.0491333"><ele>562.5</ele><time>2026-04-12T12:29:58.429Z</time></trkpt><trkpt lat="43.005515" lon="13.0490483"><ele>560.0</ele><time>2026-04-12T12:29:59.43Z</time></trkpt><trkpt lat="43.0057367" lon="13.0489667"><ele>560.0</ele><time>2026-04-12T12:30:00.431Z</time></trkpt><trkpt lat="43.005965" lon="13.0488917"><ele>560.0</ele><time>2026-04-12T12:30:01.431Z</time></trkpt><trkpt lat="43.0062017" lon="13.048815"><ele>560.0</ele><time>2026-04-12T12:30:02.433Z</time></trkpt><trkpt lat="43.0064483" lon="13.0487467"><ele>560.0</ele><time>2026-04-12T12:30:03.43Z</time></trkpt><trkpt lat="43.0066983" lon="13.0486917"><ele>558.5</ele><time>2026-04-12T12:30:04.43Z</time></trkpt><trkpt lat="43.00695" lon="13.048655"><ele>557.0</ele><time>2026-04-12T12:30:05.434Z</time></trkpt><trkpt lat="43.007215" lon="13.0486183"><ele>557.0</ele><time>2026-04-12T12:30:06.431Z</time></trkpt><trkpt lat="43.0074767" lon="13.0485883"><ele>557.0</ele><time>2026-04-12T12:30:07.43Z</time></trkpt><trkpt lat="43.0077417" lon="13.04854"><ele>557.5</ele><time>2026-04-12T12:30:08.431Z</time></trkpt><trkpt lat="43.008" lon="13.0484833"><ele>558.0</ele><time>2026-04-12T12:30:09.431Z</time></trkpt><trkpt lat="43.0082667" lon="13.048405"><ele>558.5</ele><time>2026-04-12T12:30:10.43Z</time></trkpt><trkpt lat="43.008525" lon="13.0483183"><ele>559.0</ele><time>2026-04-12T12:30:11.429Z</time></trkpt><trkpt lat="43.008785" lon="13.0482183"><ele>556.0</ele><time>2026-04-12T12:30:12.431Z</time></trkpt><trkpt lat="43.009045" lon="13.048125"><ele>553.0</ele><time>2026-04-12T12:30:13.432Z</time></trkpt><trkpt lat="43.0093067" lon="13.0480367"><ele>553.0</ele><time>2026-04-12T12:30:14.432Z</time></trkpt><trkpt lat="43.0095617" lon="13.047955"><ele>553.0</ele><time>2026-04-12T12:30:15.43Z</time></trkpt><trkpt lat="43.0098033" lon="13.047875"><ele>552.0</ele><time>2026-04-12T12:30:16.428Z</time></trkpt><trkpt lat="43.01003" lon="13.047795"><ele>551.0</ele><time>2026-04-12T12:30:17.43Z</time></trkpt><trkpt lat="43.01024" lon="13.0477"><ele>551.0</ele><time>2026-04-12T12:30:18.431Z</time></trkpt><trkpt lat="43.0104283" lon="13.0475683"><ele>551.0</ele><time>2026-04-12T12:30:19.438Z</time></trkpt><trkpt lat="43.0105967" lon="13.0473783"><ele>551.0</ele><time>2026-04-12T12:30:20.434Z</time></trkpt><trkpt lat="43.0107483" lon="13.0471483"><ele>549.5</ele><time>2026-04-12T12:30:21.43Z</time></trkpt><trkpt lat="43.0109" lon="13.0468867"><ele>548.0</ele><time>2026-04-12T12:30:22.428Z</time></trkpt><trkpt lat="43.011065" lon="13.0466067"><ele>551.5</ele><time>2026-04-12T12:30:23.428Z</time></trkpt><trkpt lat="43.0112283" lon="13.0463317"><ele>555.0</ele><time>2026-04-12T12:30:24.431Z</time></trkpt><trkpt lat="43.011385" lon="13.0460633"><ele>555.0</ele><time>2026-04-12T12:30:25.431Z</time></trkpt><trkpt lat="43.0115333" lon="13.0458083"><ele>555.0</ele><time>2026-04-12T12:30:26.432Z</time></trkpt><trkpt lat="43.0116767" lon="13.0455683"><ele>555.0</ele><time>2026-04-12T12:30:27.43Z</time></trkpt><trkpt lat="43.0118217" lon="13.0453467"><ele>555.0</ele><time>2026-04-12T12:30:28.428Z</time></trkpt><trkpt lat="43.0119667" lon="13.0451717"><ele>555.0</ele><time>2026-04-12T12:30:29.432Z</time></trkpt><trkpt lat="43.0121167" lon="13.045055"><ele>555.0</ele><time>2026-04-12T12:30:30.431Z</time></trkpt><trkpt lat="43.012295" lon="13.045015"><ele>555.0</ele><time>2026-04-12T12:30:31.43Z</time></trkpt><trkpt lat="43.0124933" lon="13.0450467"><ele>555.0</ele><time>2026-04-12T12:30:32.432Z</time></trkpt><trkpt lat="43.0127083" lon="13.0451367"><ele>554.5</ele><time>2026-04-12T12:30:33.429Z</time></trkpt><trkpt lat="43.012925" lon="13.045235"><ele>554.0</ele><time>2026-04-12T12:30:34.428Z</time></trkpt><trkpt lat="43.01313" lon="13.0453617"><ele>554.0</ele><time>2026-04-12T12:30:35.432Z</time></trkpt><trkpt lat="43.0133117" lon="13.0455567"><ele>554.0</ele><time>2026-04-12T12:30:36.429Z</time></trkpt><trkpt lat="43.013475" lon="13.0457983"><ele>556.0</ele><time>2026-04-12T12:30:37.431Z</time></trkpt><trkpt lat="43.0136283" lon="13.0460383"><ele>558.0</ele><time>2026-04-12T12:30:38.431Z</time></trkpt><trkpt lat="43.0137917" lon="13.04625"><ele>558.0</ele><time>2026-04-12T12:30:39.43Z</time></trkpt><trkpt lat="43.013955" lon="13.04642"><ele>558.0</ele><time>2026-04-12T12:30:40.43Z</time></trkpt><trkpt lat="43.01413" lon="13.0465283"><ele>558.0</ele><time>2026-04-12T12:30:41.428Z</time></trkpt><trkpt lat="43.0143217" lon="13.0465717"><ele>554.6666666666666</ele><time>2026-04-12T12:30:42.429Z</time></trkpt><trkpt lat="43.0145267" lon="13.046575"><ele>551.3333333333333</ele><time>2026-04-12T12:30:43.432Z</time></trkpt><trkpt lat="43.0147367" lon="13.0465667"><ele>548.0</ele><time>2026-04-12T12:30:44.432Z</time></trkpt><trkpt lat="43.0149417" lon="13.0465733"><ele>547.6666666666666</ele><time>2026-04-12T12:30:45.432Z</time></trkpt><trkpt lat="43.0151483" lon="13.04662"><ele>547.3333333333334</ele><time>2026-04-12T12:30:46.427Z</time></trkpt><trkpt lat="43.0153433" lon="13.0467167"><ele>547.0</ele><time>2026-04-12T12:30:47.429Z</time></trkpt><trkpt lat="43.0155133" lon="13.0468683"><ele>547.0</ele><time>2026-04-12T12:30:48.429Z</time></trkpt><trkpt lat="43.015685" lon="13.0470717"><ele>547.0</ele><time>2026-04-12T12:30:49.43Z</time></trkpt><trkpt lat="43.015865" lon="13.0472583"><ele>545.5</ele><time>2026-04-12T12:30:50.431Z</time></trkpt><trkpt lat="43.0160733" lon="13.047395"><ele>544.0</ele><time>2026-04-12T12:30:51.43Z</time></trkpt><trkpt lat="43.0162983" lon="13.04749"><ele>545.0</ele><time>2026-04-12T12:30:52.43Z</time></trkpt><trkpt lat="43.0165217" lon="13.0475417"><ele>546.0</ele><time>2026-04-12T12:30:53.43Z</time></trkpt><trkpt lat="43.0167417" lon="13.047565"><ele>547.0</ele><time>2026-04-12T12:30:54.429Z</time></trkpt><trkpt lat="43.016945" lon="13.0475867"><ele>547.0</ele><time>2026-04-12T12:30:55.43Z</time></trkpt><trkpt lat="43.0171383" lon="13.04763"><ele>547.0</ele><time>2026-04-12T12:30:56.427Z</time></trkpt><trkpt lat="43.0173117" lon="13.0477217"><ele>547.0</ele><time>2026-04-12T12:30:57.43Z</time></trkpt><trkpt lat="43.017465" lon="13.0478533"><ele>545.0</ele><time>2026-04-12T12:30:58.431Z</time></trkpt><trkpt lat="43.017615" lon="13.0480083"><ele>543.0</ele><time>2026-04-12T12:30:59.432Z</time></trkpt><trkpt lat="43.017765" lon="13.0481367"><ele>541.0</ele><time>2026-04-12T12:31:00.429Z</time></trkpt><trkpt lat="43.0179267" lon="13.04821"><ele>541.0</ele><time>2026-04-12T12:31:01.43Z</time></trkpt><trkpt lat="43.018085" lon="13.048225"><ele>541.0</ele><time>2026-04-12T12:31:02.43Z</time></trkpt><trkpt lat="43.0182633" lon="13.048175"><ele>541.0</ele><time>2026-04-12T12:31:03.429Z</time></trkpt><trkpt lat="43.0184733" lon="13.0480683"><ele>537.5</ele><time>2026-04-12T12:31:04.433Z</time></trkpt><trkpt lat="43.018685" lon="13.04793"><ele>534.0</ele><time>2026-04-12T12:31:05.434Z</time></trkpt><trkpt lat="43.0188967" lon="13.04775"><ele>534.0</ele><time>2026-04-12T12:31:06.43Z</time></trkpt><trkpt lat="43.0191" lon="13.0475383"><ele>534.0</ele><time>2026-04-12T12:31:07.432Z</time></trkpt><trkpt lat="43.0192883" lon="13.0472833"><ele>533.0</ele><time>2026-04-12T12:31:08.435Z</time></trkpt><trkpt lat="43.0194633" lon="13.0470017"><ele>532.0</ele><time>2026-04-12T12:31:09.429Z</time></trkpt><trkpt lat="43.0196233" lon="13.0466983"><ele>537.0</ele><time>2026-04-12T12:31:10.431Z</time></trkpt><trkpt lat="43.019775" lon="13.046395"><ele>542.0</ele><time>2026-04-12T12:31:11.431Z</time></trkpt><trkpt lat="43.019925" lon="13.0461133"><ele>538.0</ele><time>2026-04-12T12:31:12.431Z</time></trkpt><trkpt lat="43.020065" lon="13.04584"><ele>534.0</ele><time>2026-04-12T12:31:13.436Z</time></trkpt><trkpt lat="43.0201933" lon="13.0455767"><ele>533.5</ele><time>2026-04-12T12:31:14.434Z</time></trkpt><trkpt lat="43.0203083" lon="13.045315"><ele>533.0</ele><time>2026-04-12T12:31:15.432Z</time></trkpt><trkpt lat="43.0203983" lon="13.045025"><ele>534.5</ele><time>2026-04-12T12:31:16.428Z</time></trkpt><trkpt lat="43.02046" lon="13.04471"><ele>536.0</ele><time>2026-04-12T12:31:17.431Z</time></trkpt><trkpt lat="43.020505" lon="13.04439"><ele>540.6666666666666</ele><time>2026-04-12T12:31:18.431Z</time></trkpt><trkpt lat="43.0205417" lon="13.0440817"><ele>545.3333333333334</ele><time>2026-04-12T12:31:19.435Z</time></trkpt><trkpt lat="43.0205817" lon="13.043795"><ele>550.0</ele><time>2026-04-12T12:31:20.431Z</time></trkpt><trkpt lat="43.0206417" lon="13.0435217"><ele>543.3333333333334</ele><time>2026-04-12T12:31:21.431Z</time></trkpt><trkpt lat="43.0207433" lon="13.0432783"><ele>536.6666666666666</ele><time>2026-04-12T12:31:22.429Z</time></trkpt><trkpt lat="43.020875" lon="13.0430383"><ele>530.0</ele><time>2026-04-12T12:31:23.429Z</time></trkpt><trkpt lat="43.0210067" lon="13.0428017"><ele>530.0</ele><time>2026-04-12T12:31:24.43Z</time></trkpt><trkpt lat="43.02112" lon="13.0425717"><ele>530.0</ele><time>2026-04-12T12:31:25.43Z</time></trkpt><trkpt lat="43.0211917" lon="13.0423383"><ele>530.0</ele><time>2026-04-12T12:31:26.434Z</time></trkpt><trkpt lat="43.0212183" lon="13.0420933"><ele>530.6666666666666</ele><time>2026-04-12T12:31:27.427Z</time></trkpt><trkpt lat="43.0211967" lon="13.0418117"><ele>531.3333333333334</ele><time>2026-04-12T12:31:28.428Z</time></trkpt><trkpt lat="43.021135" lon="13.041495"><ele>532.0</ele><time>2026-04-12T12:31:29.431Z</time></trkpt><trkpt lat="43.0210617" lon="13.0411533"><ele>532.0</ele><time>2026-04-12T12:31:30.43Z</time></trkpt><trkpt lat="43.02098" lon="13.04081"><ele>532.0</ele><time>2026-04-12T12:31:31.431Z</time></trkpt><trkpt lat="43.020885" lon="13.0404867"><ele>533.0</ele><time>2026-04-12T12:31:32.431Z</time></trkpt><trkpt lat="43.0207733" lon="13.0402"><ele>534.0</ele><time>2026-04-12T12:31:33.431Z</time></trkpt><trkpt lat="43.0206517" lon="13.0399367"><ele>530.3333333333334</ele><time>2026-04-12T12:31:34.428Z</time></trkpt><trkpt lat="43.0205383" lon="13.0396833"><ele>526.6666666666667</ele><time>2026-04-12T12:31:35.43Z</time></trkpt><trkpt lat="43.0204383" lon="13.0394417"><ele>523.0</ele><time>2026-04-12T12:31:36.43Z</time></trkpt><trkpt lat="43.02038" lon="13.039195"><ele>523.3333333333334</ele><time>2026-04-12T12:31:37.431Z</time></trkpt><trkpt lat="43.020355" lon="13.038925"><ele>523.6666666666666</ele><time>2026-04-12T12:31:38.43Z</time></trkpt><trkpt lat="43.0203667" lon="13.0386183"><ele>524.0</ele><time>2026-04-12T12:31:39.43Z</time></trkpt><trkpt lat="43.0203867" lon="13.0383017"><ele>524.0</ele><time>2026-04-12T12:31:40.429Z</time></trkpt><trkpt lat="43.020435" lon="13.0379883"><ele>524.0</ele><time>2026-04-12T12:31:41.428Z</time></trkpt><trkpt lat="43.0205167" lon="13.037695"><ele>525.0</ele><time>2026-04-12T12:31:42.431Z</time></trkpt><trkpt lat="43.0206217" lon="13.0374333"><ele>526.0</ele><time>2026-04-12T12:31:43.431Z</time></trkpt><trkpt lat="43.0207167" lon="13.037185"><ele>527.0</ele><time>2026-04-12T12:31:44.435Z</time></trkpt><trkpt lat="43.02078" lon="13.03692"><ele>525.6666666666666</ele><time>2026-04-12T12:31:45.436Z</time></trkpt><trkpt lat="43.020795" lon="13.03663"><ele>524.3333333333334</ele><time>2026-04-12T12:31:46.429Z</time></trkpt><trkpt lat="43.0208033" lon="13.0363517"><ele>523.0</ele><time>2026-04-12T12:31:47.433Z</time></trkpt><trkpt lat="43.020825" lon="13.0360667"><ele>521.6666666666667</ele><time>2026-04-12T12:31:48.429Z</time></trkpt><trkpt lat="43.0208967" lon="13.0357883"><ele>520.3333333333334</ele><time>2026-04-12T12:31:49.431Z</time></trkpt><trkpt lat="43.0210133" lon="13.0355183"><ele>519.0</ele><time>2026-04-12T12:31:50.431Z</time></trkpt><trkpt lat="43.0211583" lon="13.0352333"><ele>518.0</ele><time>2026-04-12T12:31:51.431Z</time></trkpt><trkpt lat="43.0213183" lon="13.0349367"><ele>517.0</ele><time>2026-04-12T12:31:52.431Z</time></trkpt><trkpt lat="43.0214717" lon="13.03464"><ele>517.0</ele><time>2026-04-12T12:31:53.431Z</time></trkpt><trkpt lat="43.021615" lon="13.0343617"><ele>517.0</ele><time>2026-04-12T12:31:54.432Z</time></trkpt><trkpt lat="43.0217533" lon="13.034105"><ele>524.0</ele><time>2026-04-12T12:31:55.431Z</time></trkpt><trkpt lat="43.0218933" lon="13.03387"><ele>531.0</ele><time>2026-04-12T12:31:56.43Z</time></trkpt><trkpt lat="43.0220533" lon="13.033665"><ele>538.0</ele><time>2026-04-12T12:31:57.43Z</time></trkpt><trkpt lat="43.02223" lon="13.033495"><ele>538.0</ele><time>2026-04-12T12:31:58.432Z</time></trkpt><trkpt lat="43.0224317" lon="13.0333783"><ele>538.0</ele><time>2026-04-12T12:31:59.43Z</time></trkpt><trkpt lat="43.0226583" lon="13.03331"><ele>536.5</ele><time>2026-04-12T12:32:00.433Z</time></trkpt><trkpt lat="43.0229017" lon="13.0332917"><ele>535.0</ele><time>2026-04-12T12:32:01.432Z</time></trkpt><trkpt lat="43.0231467" lon="13.03332"><ele>533.5</ele><time>2026-04-12T12:32:02.432Z</time></trkpt><trkpt lat="43.0233833" lon="13.03337"><ele>532.0</ele><time>2026-04-12T12:32:03.429Z</time></trkpt><trkpt lat="43.02361" lon="13.0334633"><ele>532.0</ele><time>2026-04-12T12:32:04.432Z</time></trkpt><trkpt lat="43.0238183" lon="13.033585"><ele>532.0</ele><time>2026-04-12T12:32:05.43Z</time></trkpt><trkpt lat="43.02402" lon="13.0337083"><ele>532.0</ele><time>2026-04-12T12:32:06.429Z</time></trkpt><trkpt lat="43.02424" lon="13.0337883"><ele>533.0</ele><time>2026-04-12T12:32:07.43Z</time></trkpt><trkpt lat="43.0244833" lon="13.0338433"><ele>534.0</ele><time>2026-04-12T12:32:08.428Z</time></trkpt><trkpt lat="43.0247383" lon="13.0338717"><ele>528.0</ele><time>2026-04-12T12:32:09.427Z</time></trkpt><trkpt lat="43.0249983" lon="13.033905"><ele>522.0</ele><time>2026-04-12T12:32:10.428Z</time></trkpt><trkpt lat="43.025255" lon="13.0339383"><ele>522.0</ele><time>2026-04-12T12:32:11.429Z</time></trkpt><trkpt lat="43.0255" lon="13.0339783"><ele>522.0</ele><time>2026-04-12T12:32:12.43Z</time></trkpt><trkpt lat="43.0257383" lon="13.0340233"><ele>526.0</ele><time>2026-04-12T12:32:13.43Z</time></trkpt><trkpt lat="43.0259617" lon="13.0341067"><ele>530.0</ele><time>2026-04-12T12:32:14.43Z</time></trkpt><trkpt lat="43.0261767" lon="13.03419"><ele>527.3333333333333</ele><time>2026-04-12T12:32:15.431Z</time></trkpt><trkpt lat="43.0263933" lon="13.0342283"><ele>524.6666666666666</ele><time>2026-04-12T12:32:16.43Z</time></trkpt><trkpt lat="43.0266067" lon="13.034205"><ele>522.0</ele><time>2026-04-12T12:32:17.431Z</time></trkpt><trkpt lat="43.0268283" lon="13.0341783"><ele>522.0</ele><time>2026-04-12T12:32:18.432Z</time></trkpt><trkpt lat="43.0270683" lon="13.0341883"><ele>522.0</ele><time>2026-04-12T12:32:19.435Z</time></trkpt><trkpt lat="43.02732" lon="13.034225"><ele>519.5</ele><time>2026-04-12T12:32:20.431Z</time></trkpt><trkpt lat="43.0275933" lon="13.0342633"><ele>517.0</ele><time>2026-04-12T12:32:21.431Z</time></trkpt><trkpt lat="43.027875" lon="13.0343067"><ele>517.0</ele><time>2026-04-12T12:32:22.429Z</time></trkpt><trkpt lat="43.0281567" lon="13.0343567"><ele>517.0</ele><time>2026-04-12T12:32:23.431Z</time></trkpt><trkpt lat="43.0284433" lon="13.03441"><ele>517.0</ele><time>2026-04-12T12:32:24.432Z</time></trkpt><trkpt lat="43.0287283" lon="13.0344567"><ele>517.0</ele><time>2026-04-12T12:32:25.431Z</time></trkpt><trkpt lat="43.0290183" lon="13.0345"><ele>517.5</ele><time>2026-04-12T12:32:26.444Z</time></trkpt><trkpt lat="43.0293033" lon="13.034545"><ele>518.0</ele><time>2026-04-12T12:32:27.432Z</time></trkpt><trkpt lat="43.0295733" lon="13.0345867"><ele>518.0</ele><time>2026-04-12T12:32:28.43Z</time></trkpt><trkpt lat="43.02983" lon="13.034635"><ele>518.0</ele><time>2026-04-12T12:32:29.427Z</time></trkpt><trkpt lat="43.0300717" lon="13.0347017"><ele>519.5</ele><time>2026-04-12T12:32:30.428Z</time></trkpt><trkpt lat="43.030305" lon="13.0348017"><ele>521.0</ele><time>2026-04-12T12:32:31.431Z</time></trkpt><trkpt lat="43.03053" lon="13.03493"><ele>515.5</ele><time>2026-04-12T12:32:32.433Z</time></trkpt><trkpt lat="43.0307483" lon="13.0350983"><ele>510.0</ele><time>2026-04-12T12:32:33.431Z</time></trkpt><trkpt lat="43.0309567" lon="13.0353033"><ele>510.0</ele><time>2026-04-12T12:32:34.432Z</time></trkpt><trkpt lat="43.03115" lon="13.0355433"><ele>510.0</ele><time>2026-04-12T12:32:35.432Z</time></trkpt><trkpt lat="43.0313167" lon="13.035805"><ele>506.0</ele><time>2026-04-12T12:32:36.432Z</time></trkpt><trkpt lat="43.031465" lon="13.0360617"><ele>502.0</ele><time>2026-04-12T12:32:37.431Z</time></trkpt><trkpt lat="43.031615" lon="13.0362933"><ele>501.6666666666667</ele><time>2026-04-12T12:32:38.431Z</time></trkpt><trkpt lat="43.0317767" lon="13.0364767"><ele>501.33333333333337</ele><time>2026-04-12T12:32:39.431Z</time></trkpt><trkpt lat="43.0319717" lon="13.0366033"><ele>501.0</ele><time>2026-04-12T12:32:40.429Z</time></trkpt><trkpt lat="43.03219" lon="13.036685"><ele>501.0</ele><time>2026-04-12T12:32:41.431Z</time></trkpt><trkpt lat="43.03243" lon="13.0367483"><ele>501.0</ele><time>2026-04-12T12:32:42.431Z</time></trkpt><trkpt lat="43.032685" lon="13.0368117"><ele>500.5</ele><time>2026-04-12T12:32:43.43Z</time></trkpt><trkpt lat="43.0329517" lon="13.03688"><ele>500.0</ele><time>2026-04-12T12:32:44.431Z</time></trkpt><trkpt lat="43.0332167" lon="13.036945"><ele>502.5</ele><time>2026-04-12T12:32:45.433Z</time></trkpt><trkpt lat="43.0334683" lon="13.0370083"><ele>505.0</ele><time>2026-04-12T12:32:46.43Z</time></trkpt><trkpt lat="43.0337067" lon="13.0370717"><ele>505.0</ele><time>2026-04-12T12:32:47.43Z</time></trkpt><trkpt lat="43.0339367" lon="13.0371333"><ele>505.0</ele><time>2026-04-12T12:32:48.432Z</time></trkpt><trkpt lat="43.0341633" lon="13.037205"><ele>502.0</ele><time>2026-04-12T12:32:49.429Z</time></trkpt><trkpt lat="43.0343767" lon="13.03732"><ele>499.0</ele><time>2026-04-12T12:32:50.43Z</time></trkpt><trkpt lat="43.0345617" lon="13.03751"><ele>499.0</ele><time>2026-04-12T12:32:51.432Z</time></trkpt><trkpt lat="43.0347367" lon="13.03776"><ele>499.0</ele><time>2026-04-12T12:32:52.429Z</time></trkpt><trkpt lat="43.0349167" lon="13.0380333"><ele>500.5</ele><time>2026-04-12T12:32:53.429Z</time></trkpt><trkpt lat="43.0350983" lon="13.0383117"><ele>502.0</ele><time>2026-04-12T12:32:54.429Z</time></trkpt><trkpt lat="43.0352767" lon="13.03859"><ele>502.0</ele><time>2026-04-12T12:32:55.431Z</time></trkpt><trkpt lat="43.0354383" lon="13.03887"><ele>502.0</ele><time>2026-04-12T12:32:56.431Z</time></trkpt><trkpt lat="43.0355867" lon="13.0391467"><ele>500.5</ele><time>2026-04-12T12:32:57.43Z</time></trkpt><trkpt lat="43.0357217" lon="13.03942"><ele>499.0</ele><time>2026-04-12T12:32:58.432Z</time></trkpt><trkpt lat="43.03585" lon="13.03969"><ele>499.0</ele><time>2026-04-12T12:32:59.431Z</time></trkpt><trkpt lat="43.0359733" lon="13.0399533"><ele>499.0</ele><time>2026-04-12T12:33:00.431Z</time></trkpt><trkpt lat="43.03609" lon="13.0402117"><ele>498.0</ele><time>2026-04-12T12:33:01.431Z</time></trkpt><trkpt lat="43.0362033" lon="13.04046"><ele>497.0</ele><time>2026-04-12T12:33:02.429Z</time></trkpt><trkpt lat="43.036315" lon="13.0407"><ele>496.0</ele><time>2026-04-12T12:33:03.429Z</time></trkpt><trkpt lat="43.03643" lon="13.0409317"><ele>496.33333333333337</ele><time>2026-04-12T12:33:04.43Z</time></trkpt><trkpt lat="43.0365433" lon="13.0411667"><ele>496.66666666666663</ele><time>2026-04-12T12:33:05.428Z</time></trkpt><trkpt lat="43.0366483" lon="13.0414033"><ele>497.0</ele><time>2026-04-12T12:33:06.43Z</time></trkpt><trkpt lat="43.0367517" lon="13.0416433"><ele>495.0</ele><time>2026-04-12T12:33:07.432Z</time></trkpt><trkpt lat="43.0368467" lon="13.0418883"><ele>493.0</ele><time>2026-04-12T12:33:08.432Z</time></trkpt><trkpt lat="43.0369383" lon="13.0421333"><ele>491.0</ele><time>2026-04-12T12:33:09.432Z</time></trkpt><trkpt lat="43.03702" lon="13.0423883"><ele>489.3333333333333</ele><time>2026-04-12T12:33:10.431Z</time></trkpt><trkpt lat="43.0370983" lon="13.042655"><ele>487.66666666666663</ele><time>2026-04-12T12:33:11.429Z</time></trkpt><trkpt lat="43.0371783" lon="13.0429317"><ele>486.0</ele><time>2026-04-12T12:33:12.437Z</time></trkpt><trkpt lat="43.037265" lon="13.04322"><ele>485.0</ele><time>2026-04-12T12:33:13.43Z</time></trkpt><trkpt lat="43.0373533" lon="13.0435167"><ele>484.0</ele><time>2026-04-12T12:33:14.434Z</time></trkpt><trkpt lat="43.03744" lon="13.0438133"><ele>484.0</ele><time>2026-04-12T12:33:15.431Z</time></trkpt><trkpt lat="43.0375283" lon="13.0440983"><ele>484.0</ele><time>2026-04-12T12:33:16.429Z</time></trkpt><trkpt lat="43.03761" lon="13.0443717"><ele>484.0</ele><time>2026-04-12T12:33:17.429Z</time></trkpt><trkpt lat="43.037695" lon="13.0446433"><ele>483.5</ele><time>2026-04-12T12:33:18.432Z</time></trkpt><trkpt lat="43.0377967" lon="13.0449117"><ele>483.0</ele><time>2026-04-12T12:33:19.429Z</time></trkpt><trkpt lat="43.03792" lon="13.045175"><ele>482.0</ele><time>2026-04-12T12:33:20.433Z</time></trkpt><trkpt lat="43.0380567" lon="13.0454317"><ele>481.0</ele><time>2026-04-12T12:33:21.429Z</time></trkpt><trkpt lat="43.0382083" lon="13.0456733"><ele>480.0</ele><time>2026-04-12T12:33:22.429Z</time></trkpt><trkpt lat="43.0383717" lon="13.0459017"><ele>479.0</ele><time>2026-04-12T12:33:23.433Z</time></trkpt><trkpt lat="43.0385467" lon="13.046115"><ele>479.0</ele><time>2026-04-12T12:33:24.431Z</time></trkpt><trkpt lat="43.0387283" lon="13.0463117"><ele>479.0</ele><time>2026-04-12T12:33:25.432Z</time></trkpt><trkpt lat="43.03892" lon="13.0464967"><ele>480.0</ele><time>2026-04-12T12:33:26.432Z</time></trkpt><trkpt lat="43.03912" lon="13.0466733"><ele>481.0</ele><time>2026-04-12T12:33:27.432Z</time></trkpt><trkpt lat="43.0393267" lon="13.04684"><ele>481.0</ele><time>2026-04-12T12:33:28.431Z</time></trkpt><trkpt lat="43.0395367" lon="13.0470067"><ele>481.0</ele><time>2026-04-12T12:33:29.43Z</time></trkpt><trkpt lat="43.0397433" lon="13.047175"><ele>481.0</ele><time>2026-04-12T12:33:30.428Z</time></trkpt><trkpt lat="43.039955" lon="13.0473467"><ele>481.0</ele><time>2026-04-12T12:33:31.431Z</time></trkpt><trkpt lat="43.0401617" lon="13.047515"><ele>479.5</ele><time>2026-04-12T12:33:32.434Z</time></trkpt><trkpt lat="43.0403633" lon="13.04768"><ele>478.0</ele><time>2026-04-12T12:33:33.432Z</time></trkpt><trkpt lat="43.0405567" lon="13.04784"><ele>478.0</ele><time>2026-04-12T12:33:34.431Z</time></trkpt><trkpt lat="43.04074" lon="13.0479983"><ele>478.0</ele><time>2026-04-12T12:33:35.432Z</time></trkpt><trkpt lat="43.04091" lon="13.0481517"><ele>478.0</ele><time>2026-04-12T12:33:36.432Z</time></trkpt><trkpt lat="43.0410683" lon="13.0483"><ele>477.33333333333337</ele><time>2026-04-12T12:33:37.432Z</time></trkpt><trkpt lat="43.0412167" lon="13.04844"><ele>476.66666666666663</ele><time>2026-04-12T12:33:38.432Z</time></trkpt><trkpt lat="43.04136" lon="13.0485667"><ele>476.0</ele><time>2026-04-12T12:33:39.43Z</time></trkpt><trkpt lat="43.0414933" lon="13.0486867"><ele>476.0</ele><time>2026-04-12T12:33:40.431Z</time></trkpt><trkpt lat="43.04163" lon="13.0488083"><ele>476.0</ele><time>2026-04-12T12:33:41.43Z</time></trkpt><trkpt lat="43.0417667" lon="13.0489433"><ele>476.0</ele><time>2026-04-12T12:33:42.429Z</time></trkpt><trkpt lat="43.041905" lon="13.0490833"><ele>474.66666666666663</ele><time>2026-04-12T12:33:43.429Z</time></trkpt><trkpt lat="43.042045" lon="13.0492233"><ele>473.33333333333337</ele><time>2026-04-12T12:33:44.429Z</time></trkpt><trkpt lat="43.04219" lon="13.0493667"><ele>472.0</ele><time>2026-04-12T12:33:45.429Z</time></trkpt><trkpt lat="43.0423433" lon="13.0495083"><ele>472.0</ele><time>2026-04-12T12:33:46.43Z</time></trkpt><trkpt lat="43.042495" lon="13.049655"><ele>472.0</ele><time>2026-04-12T12:33:47.431Z</time></trkpt><trkpt lat="43.04265" lon="13.0498"><ele>472.0</ele><time>2026-04-12T12:33:48.434Z</time></trkpt><trkpt lat="43.042815" lon="13.0499483"><ele>471.6666666666667</ele><time>2026-04-12T12:33:49.432Z</time></trkpt><trkpt lat="43.04298" lon="13.0500933"><ele>471.33333333333337</ele><time>2026-04-12T12:33:50.457Z</time></trkpt><trkpt lat="43.0431483" lon="13.05024"><ele>471.0</ele><time>2026-04-12T12:33:51.432Z</time></trkpt><trkpt lat="43.043315" lon="13.0503833"><ele>471.0</ele><time>2026-04-12T12:33:52.433Z</time></trkpt><trkpt lat="43.0434817" lon="13.050525"><ele>471.0</ele><time>2026-04-12T12:33:53.435Z</time></trkpt><trkpt lat="43.0436517" lon="13.0506617"><ele>471.0</ele><time>2026-04-12T12:33:54.431Z</time></trkpt><trkpt lat="43.0438217" lon="13.0507983"><ele>471.33333333333337</ele><time>2026-04-12T12:33:55.429Z</time></trkpt><trkpt lat="43.0439883" lon="13.0509433"><ele>471.6666666666667</ele><time>2026-04-12T12:33:56.43Z</time></trkpt><trkpt lat="43.0441583" lon="13.0510867"><ele>472.0</ele><time>2026-04-12T12:33:57.434Z</time></trkpt><trkpt lat="43.0443333" lon="13.0512267"><ele>472.0</ele><time>2026-04-12T12:33:58.429Z</time></trkpt><trkpt lat="43.0445067" lon="13.0513683"><ele>472.0</ele><time>2026-04-12T12:33:59.433Z</time></trkpt><trkpt lat="43.04468" lon="13.05151"><ele>472.0</ele><time>2026-04-12T12:34:00.43Z</time></trkpt><trkpt lat="43.0448517" lon="13.0516517"><ele>470.6666666666667</ele><time>2026-04-12T12:34:01.428Z</time></trkpt><trkpt lat="43.0450267" lon="13.0517867"><ele>469.33333333333337</ele><time>2026-04-12T12:34:02.429Z</time></trkpt><trkpt lat="43.0452067" lon="13.0519"><ele>468.0</ele><time>2026-04-12T12:34:03.433Z</time></trkpt><trkpt lat="43.045395" lon="13.0519883"><ele>468.0</ele><time>2026-04-12T12:34:04.434Z</time></trkpt><trkpt lat="43.0455867" lon="13.0520533"><ele>468.0</ele><time>2026-04-12T12:34:05.431Z</time></trkpt><trkpt lat="43.045785" lon="13.052095"><ele>468.0</ele><time>2026-04-12T12:34:06.428Z</time></trkpt><trkpt lat="43.0459867" lon="13.0521167"><ele>468.33333333333337</ele><time>2026-04-12T12:34:07.43Z</time></trkpt><trkpt lat="43.0461933" lon="13.0521167"><ele>468.6666666666667</ele><time>2026-04-12T12:34:08.433Z</time></trkpt><trkpt lat="43.046405" lon="13.052125"><ele>469.0</ele><time>2026-04-12T12:34:09.43Z</time></trkpt><trkpt lat="43.0466167" lon="13.0521483"><ele>469.6666666666667</ele><time>2026-04-12T12:34:10.43Z</time></trkpt><trkpt lat="43.046825" lon="13.052195"><ele>470.33333333333337</ele><time>2026-04-12T12:34:11.428Z</time></trkpt><trkpt lat="43.0470317" lon="13.0522733"><ele>471.0</ele><time>2026-04-12T12:34:12.43Z</time></trkpt><trkpt lat="43.0472483" lon="13.0523783"><ele>468.0</ele><time>2026-04-12T12:34:13.432Z</time></trkpt><trkpt lat="43.0474717" lon="13.0524933"><ele>465.0</ele><time>2026-04-12T12:34:14.431Z</time></trkpt><trkpt lat="43.0477017" lon="13.05261"><ele>465.0</ele><time>2026-04-12T12:34:15.431Z</time></trkpt><trkpt lat="43.04794" lon="13.052725"><ele>465.0</ele><time>2026-04-12T12:34:16.43Z</time></trkpt><trkpt lat="43.0481817" lon="13.0528417"><ele>465.5</ele><time>2026-04-12T12:34:17.432Z</time></trkpt><trkpt lat="43.048425" lon="13.0529617"><ele>466.0</ele><time>2026-04-12T12:34:18.429Z</time></trkpt><trkpt lat="43.0486683" lon="13.05308"><ele>466.0</ele><time>2026-04-12T12:34:19.43Z</time></trkpt><trkpt lat="43.0489167" lon="13.0532017"><ele>466.0</ele><time>2026-04-12T12:34:20.434Z</time></trkpt><trkpt lat="43.04916" lon="13.05333"><ele>464.5</ele><time>2026-04-12T12:34:21.431Z</time></trkpt><trkpt lat="43.0493983" lon="13.0534783"><ele>463.0</ele><time>2026-04-12T12:34:22.431Z</time></trkpt><trkpt lat="43.049625" lon="13.0536433"><ele>463.0</ele><time>2026-04-12T12:34:23.434Z</time></trkpt><trkpt lat="43.0498367" lon="13.05382"><ele>463.0</ele><time>2026-04-12T12:34:24.431Z</time></trkpt><trkpt lat="43.0500417" lon="13.0540033"><ele>461.5</ele><time>2026-04-12T12:34:25.432Z</time></trkpt><trkpt lat="43.0502467" lon="13.0541867"><ele>460.0</ele><time>2026-04-12T12:34:26.435Z</time></trkpt><trkpt lat="43.05045" lon="13.0543717"><ele>460.0</ele><time>2026-04-12T12:34:27.43Z</time></trkpt><trkpt lat="43.0506567" lon="13.0545517"><ele>460.0</ele><time>2026-04-12T12:34:28.431Z</time></trkpt><trkpt lat="43.050865" lon="13.05473"><ele>459.5</ele><time>2026-04-12T12:34:29.43Z</time></trkpt><trkpt lat="43.0510667" lon="13.0549283"><ele>459.0</ele><time>2026-04-12T12:34:30.432Z</time></trkpt><trkpt lat="43.05127" lon="13.05513"><ele>458.5</ele><time>2026-04-12T12:34:31.431Z</time></trkpt><trkpt lat="43.0514783" lon="13.0553317"><ele>458.0</ele><time>2026-04-12T12:34:32.43Z</time></trkpt><trkpt lat="43.0516867" lon="13.05553"><ele>458.5</ele><time>2026-04-12T12:34:33.425Z</time></trkpt><trkpt lat="43.0518917" lon="13.0557383"><ele>459.0</ele><time>2026-04-12T12:34:34.424Z</time></trkpt><trkpt lat="43.0520933" lon="13.0559567"><ele>459.0</ele><time>2026-04-12T12:34:35.428Z</time></trkpt><trkpt lat="43.0522883" lon="13.05619"><ele>459.0</ele><time>2026-04-12T12:34:36.43Z</time></trkpt><trkpt lat="43.0524767" lon="13.0564317"><ele>459.0</ele><time>2026-04-12T12:34:37.436Z</time></trkpt><trkpt lat="43.0526667" lon="13.0566783"><ele>459.0</ele><time>2026-04-12T12:34:38.431Z</time></trkpt><trkpt lat="43.05286" lon="13.05692"><ele>459.0</ele><time>2026-04-12T12:34:39.428Z</time></trkpt><trkpt lat="43.0530633" lon="13.0571583"><ele>459.0</ele><time>2026-04-12T12:34:40.429Z</time></trkpt><trkpt lat="43.0532733" lon="13.0573883"><ele>458.0</ele><time>2026-04-12T12:34:41.431Z</time></trkpt><trkpt lat="43.0534933" lon="13.0576083"><ele>457.0</ele><time>2026-04-12T12:34:42.432Z</time></trkpt><trkpt lat="43.0537233" lon="13.057815"><ele>457.0</ele><time>2026-04-12T12:34:43.43Z</time></trkpt><trkpt lat="43.0539583" lon="13.0580017"><ele>457.0</ele><time>2026-04-12T12:34:44.431Z</time></trkpt><trkpt lat="43.0541983" lon="13.0581733"><ele>457.5</ele><time>2026-04-12T12:34:45.43Z</time></trkpt><trkpt lat="43.0544367" lon="13.0583333"><ele>458.0</ele><time>2026-04-12T12:34:46.429Z</time></trkpt><trkpt lat="43.0546767" lon="13.05849"><ele>458.0</ele><time>2026-04-12T12:34:47.429Z</time></trkpt><trkpt lat="43.054915" lon="13.0586467"><ele>458.0</ele><time>2026-04-12T12:34:48.432Z</time></trkpt><trkpt lat="43.0551533" lon="13.0588067"><ele>460.0</ele><time>2026-04-12T12:34:49.431Z</time></trkpt><trkpt lat="43.0553917" lon="13.0589717"><ele>462.0</ele><time>2026-04-12T12:34:50.431Z</time></trkpt><trkpt lat="43.0556317" lon="13.0591417"><ele>461.0</ele><time>2026-04-12T12:34:51.432Z</time></trkpt><trkpt lat="43.0558733" lon="13.0593067"><ele>460.0</ele><time>2026-04-12T12:34:52.431Z</time></trkpt><trkpt lat="43.056115" lon="13.0594767"><ele>460.0</ele><time>2026-04-12T12:34:53.433Z</time></trkpt><trkpt lat="43.056355" lon="13.0596433"><ele>460.0</ele><time>2026-04-12T12:34:54.433Z</time></trkpt><trkpt lat="43.056595" lon="13.059815"><ele>457.0</ele><time>2026-04-12T12:34:55.434Z</time></trkpt><trkpt lat="43.0568317" lon="13.0599883"><ele>454.0</ele><time>2026-04-12T12:34:56.432Z</time></trkpt><trkpt lat="43.0570733" lon="13.060165"><ele>454.0</ele><time>2026-04-12T12:34:57.43Z</time></trkpt><trkpt lat="43.05731" lon="13.06034"><ele>454.0</ele><time>2026-04-12T12:34:58.433Z</time></trkpt><trkpt lat="43.0575483" lon="13.0605117"><ele>452.0</ele><time>2026-04-12T12:34:59.43Z</time></trkpt><trkpt lat="43.057785" lon="13.0606867"><ele>450.0</ele><time>2026-04-12T12:35:00.431Z</time></trkpt><trkpt lat="43.0580217" lon="13.0608567"><ele>450.0</ele><time>2026-04-12T12:35:01.433Z</time></trkpt><trkpt lat="43.0582583" lon="13.0610133"><ele>450.0</ele><time>2026-04-12T12:35:02.432Z</time></trkpt><trkpt lat="43.0585" lon="13.0611533"><ele>451.5</ele><time>2026-04-12T12:35:03.431Z</time></trkpt><trkpt lat="43.0587533" lon="13.0612783"><ele>453.0</ele><time>2026-04-12T12:35:04.432Z</time></trkpt><trkpt lat="43.05901" lon="13.0613867"><ele>454.0</ele><time>2026-04-12T12:35:05.439Z</time></trkpt><trkpt lat="43.05927" lon="13.0614717"><ele>455.0</ele><time>2026-04-12T12:35:06.431Z</time></trkpt><trkpt lat="43.0595333" lon="13.06154"><ele>455.0</ele><time>2026-04-12T12:35:07.433Z</time></trkpt><trkpt lat="43.0598083" lon="13.0616"><ele>455.0</ele><time>2026-04-12T12:35:08.435Z</time></trkpt><trkpt lat="43.0600867" lon="13.0616567"><ele>451.0</ele><time>2026-04-12T12:35:09.431Z</time></trkpt><trkpt lat="43.060365" lon="13.0617133"><ele>447.0</ele><time>2026-04-12T12:35:10.43Z</time></trkpt><trkpt lat="43.0606433" lon="13.0617683"><ele>447.5</ele><time>2026-04-12T12:35:11.432Z</time></trkpt><trkpt lat="43.0609233" lon="13.0618217"><ele>448.0</ele><time>2026-04-12T12:35:12.432Z</time></trkpt><trkpt lat="43.0612017" lon="13.0618783"><ele>448.0</ele><time>2026-04-12T12:35:13.433Z</time></trkpt><trkpt lat="43.0614783" lon="13.06193"><ele>448.0</ele><time>2026-04-12T12:35:14.432Z</time></trkpt><trkpt lat="43.0617567" lon="13.0619817"><ele>447.5</ele><time>2026-04-12T12:35:15.432Z</time></trkpt><trkpt lat="43.0620317" lon="13.0620333"><ele>447.0</ele><time>2026-04-12T12:35:16.432Z</time></trkpt><trkpt lat="43.0623017" lon="13.0620817"><ele>446.0</ele><time>2026-04-12T12:35:17.432Z</time></trkpt><trkpt lat="43.0625783" lon="13.0621333"><ele>445.0</ele><time>2026-04-12T12:35:18.431Z</time></trkpt><trkpt lat="43.06285" lon="13.06219"><ele>445.0</ele><time>2026-04-12T12:35:19.432Z</time></trkpt><trkpt lat="43.0631217" lon="13.0622467"><ele>445.0</ele><time>2026-04-12T12:35:20.437Z</time></trkpt><trkpt lat="43.0633967" lon="13.0623033"><ele>445.0</ele><time>2026-04-12T12:35:21.433Z</time></trkpt><trkpt lat="43.06367" lon="13.06236"><ele>445.0</ele><time>2026-04-12T12:35:22.433Z</time></trkpt><trkpt lat="43.0639483" lon="13.0624167"><ele>443.0</ele><time>2026-04-12T12:35:23.431Z</time></trkpt><trkpt lat="43.0642267" lon="13.06247"><ele>441.0</ele><time>2026-04-12T12:35:24.43Z</time></trkpt><trkpt lat="43.0645083" lon="13.0625217"><ele>441.0</ele><time>2026-04-12T12:35:25.433Z</time></trkpt><trkpt lat="43.06479" lon="13.062575"><ele>441.0</ele><time>2026-04-12T12:35:26.433Z</time></trkpt><trkpt lat="43.0650683" lon="13.0626317"><ele>441.0</ele><time>2026-04-12T12:35:27.433Z</time></trkpt><trkpt lat="43.0653483" lon="13.06269"><ele>441.0</ele><time>2026-04-12T12:35:28.431Z</time></trkpt><trkpt lat="43.0656267" lon="13.0627467"><ele>444.0</ele><time>2026-04-12T12:35:29.433Z</time></trkpt><trkpt lat="43.065905" lon="13.062805"><ele>447.0</ele><time>2026-04-12T12:35:30.431Z</time></trkpt><trkpt lat="43.0661717" lon="13.062865"><ele>447.0</ele><time>2026-04-12T12:35:31.432Z</time></trkpt><trkpt lat="43.066425" lon="13.0629233"><ele>447.0</ele><time>2026-04-12T12:35:32.43Z</time></trkpt><trkpt lat="43.0666717" lon="13.0629833"><ele>447.0</ele><time>2026-04-12T12:35:33.429Z</time></trkpt><trkpt lat="43.0669133" lon="13.0630417"><ele>447.0</ele><time>2026-04-12T12:35:34.433Z</time></trkpt><trkpt lat="43.0671533" lon="13.0631"><ele>447.0</ele><time>2026-04-12T12:35:35.433Z</time></trkpt><trkpt lat="43.06739" lon="13.0631517"><ele>447.0</ele><time>2026-04-12T12:35:36.433Z</time></trkpt><trkpt lat="43.06763" lon="13.0631983"><ele>444.0</ele><time>2026-04-12T12:35:37.431Z</time></trkpt><trkpt lat="43.0678683" lon="13.0632433"><ele>441.0</ele><time>2026-04-12T12:35:38.441Z</time></trkpt><trkpt lat="43.0681133" lon="13.0632917"><ele>437.0</ele><time>2026-04-12T12:35:39.432Z</time></trkpt><trkpt lat="43.0683683" lon="13.06334"><ele>433.0</ele><time>2026-04-12T12:35:40.431Z</time></trkpt><trkpt lat="43.0686317" lon="13.0633917"><ele>433.0</ele><time>2026-04-12T12:35:41.432Z</time></trkpt><trkpt lat="43.0688983" lon="13.0634417"><ele>433.0</ele><time>2026-04-12T12:35:42.43Z</time></trkpt><trkpt lat="43.0691683" lon="13.0634933"><ele>433.0</ele><time>2026-04-12T12:35:43.432Z</time></trkpt><trkpt lat="43.0694383" lon="13.0635483"><ele>433.0</ele><time>2026-04-12T12:35:44.435Z</time></trkpt><trkpt lat="43.06971" lon="13.0636033"><ele>431.5</ele><time>2026-04-12T12:35:45.432Z</time></trkpt><trkpt lat="43.0699867" lon="13.063655"><ele>430.0</ele><time>2026-04-12T12:35:46.429Z</time></trkpt><trkpt lat="43.0702667" lon="13.06371"><ele>430.0</ele><time>2026-04-12T12:35:47.432Z</time></trkpt><trkpt lat="43.07055" lon="13.063765"><ele>430.0</ele><time>2026-04-12T12:35:48.43Z</time></trkpt><trkpt lat="43.0708333" lon="13.0638233"><ele>434.0</ele><time>2026-04-12T12:35:49.434Z</time></trkpt><trkpt lat="43.0711183" lon="13.0638817"><ele>438.0</ele><time>2026-04-12T12:35:50.433Z</time></trkpt><trkpt lat="43.0714033" lon="13.0639317"><ele>437.5</ele><time>2026-04-12T12:35:51.432Z</time></trkpt><trkpt lat="43.07169" lon="13.0639717"><ele>437.0</ele><time>2026-04-12T12:35:52.429Z</time></trkpt><trkpt lat="43.0719717" lon="13.0640017"><ele>437.0</ele><time>2026-04-12T12:35:53.432Z</time></trkpt><trkpt lat="43.0722383" lon="13.0640267"><ele>437.0</ele><time>2026-04-12T12:35:54.432Z</time></trkpt><trkpt lat="43.0724883" lon="13.064045"><ele>438.0</ele><time>2026-04-12T12:35:55.431Z</time></trkpt><trkpt lat="43.072725" lon="13.0640567"><ele>439.0</ele><time>2026-04-12T12:35:56.435Z</time></trkpt><trkpt lat="43.0729467" lon="13.0640633"><ele>439.0</ele><time>2026-04-12T12:35:57.432Z</time></trkpt><trkpt lat="43.0731517" lon="13.064065"><ele>439.0</ele><time>2026-04-12T12:35:58.432Z</time></trkpt><trkpt lat="43.0733433" lon="13.0640617"><ele>439.0</ele><time>2026-04-12T12:35:59.43Z</time></trkpt><trkpt lat="43.0735183" lon="13.0640517"><ele>437.6666666666667</ele><time>2026-04-12T12:36:00.434Z</time></trkpt><trkpt lat="43.07368" lon="13.06403"><ele>436.33333333333337</ele><time>2026-04-12T12:36:01.431Z</time></trkpt><trkpt lat="43.0738317" lon="13.064005"><ele>435.0</ele><time>2026-04-12T12:36:02.428Z</time></trkpt><trkpt lat="43.0739817" lon="13.063985"><ele>433.25</ele><time>2026-04-12T12:36:03.429Z</time></trkpt><trkpt lat="43.07413" lon="13.0639733"><ele>431.5</ele><time>2026-04-12T12:36:04.431Z</time></trkpt><trkpt lat="43.0742767" lon="13.0639733"><ele>429.75</ele><time>2026-04-12T12:36:05.431Z</time></trkpt><trkpt lat="43.07442" lon="13.063975"><ele>428.0</ele><time>2026-04-12T12:36:06.43Z</time></trkpt><trkpt lat="43.0745683" lon="13.0639683"><ele>428.0</ele><time>2026-04-12T12:36:07.427Z</time></trkpt><trkpt lat="43.0747183" lon="13.063955"><ele>428.0</ele><time>2026-04-12T12:36:08.432Z</time></trkpt><trkpt lat="43.07487" lon="13.0639417"><ele>428.0</ele><time>2026-04-12T12:36:09.434Z</time></trkpt><trkpt lat="43.0750217" lon="13.0639283"><ele>428.0</ele><time>2026-04-12T12:36:10.431Z</time></trkpt><trkpt lat="43.0751683" lon="13.0639133"><ele>428.0</ele><time>2026-04-12T12:36:11.431Z</time></trkpt><trkpt lat="43.075305" lon="13.0639033"><ele>428.0</ele><time>2026-04-12T12:36:12.429Z</time></trkpt><trkpt lat="43.0754283" lon="13.0639033"><ele>428.0</ele><time>2026-04-12T12:36:13.429Z</time></trkpt><trkpt lat="43.0755383" lon="13.0639183"><ele>428.0</ele><time>2026-04-12T12:36:14.429Z</time></trkpt><trkpt lat="43.07563" lon="13.0639617"><ele>427.99999999999994</ele><time>2026-04-12T12:36:15.428Z</time></trkpt><trkpt lat="43.075705" lon="13.0640267"><ele>427.99999999999994</ele><time>2026-04-12T12:36:16.431Z</time></trkpt><trkpt lat="43.0757667" lon="13.0641167"><ele>428.0</ele><time>2026-04-12T12:36:17.432Z</time></trkpt><trkpt lat="43.0758033" lon="13.0642583"><ele>428.0</ele><time>2026-04-12T12:36:18.431Z</time></trkpt><trkpt lat="43.0758417" lon="13.06444"><ele>428.3333333333333</ele><time>2026-04-12T12:36:19.433Z</time></trkpt><trkpt lat="43.0759017" lon="13.0646333"><ele>428.66666666666663</ele><time>2026-04-12T12:36:20.432Z</time></trkpt><trkpt lat="43.076" lon="13.06483"><ele>429.0</ele><time>2026-04-12T12:36:21.429Z</time></trkpt><trkpt lat="43.0761383" lon="13.0650217"><ele>429.0</ele><time>2026-04-12T12:36:22.435Z</time></trkpt><trkpt lat="43.0762917" lon="13.0652133"><ele>429.0</ele><time>2026-04-12T12:36:23.428Z</time></trkpt><trkpt lat="43.0764383" lon="13.0654217"><ele>429.0</ele><time>2026-04-12T12:36:24.43Z</time></trkpt><trkpt lat="43.0765433" lon="13.0656483"><ele>427.66666666666663</ele><time>2026-04-12T12:36:25.43Z</time></trkpt><trkpt lat="43.076595" lon="13.0658867"><ele>426.3333333333333</ele><time>2026-04-12T12:36:26.43Z</time></trkpt><trkpt lat="43.0766" lon="13.06612"><ele>425.0</ele><time>2026-04-12T12:36:27.429Z</time></trkpt><trkpt lat="43.0765817" lon="13.06635"><ele>425.0</ele><time>2026-04-12T12:36:28.429Z</time></trkpt><trkpt lat="43.076565" lon="13.0665817"><ele>425.0</ele><time>2026-04-12T12:36:29.428Z</time></trkpt><trkpt lat="43.076545" lon="13.06682"><ele>425.0</ele><time>2026-04-12T12:36:30.429Z</time></trkpt><trkpt lat="43.0765383" lon="13.0670583"><ele>425.0</ele><time>2026-04-12T12:36:31.429Z</time></trkpt><trkpt lat="43.0765533" lon="13.0673017"><ele>425.0</ele><time>2026-04-12T12:36:32.429Z</time></trkpt><trkpt lat="43.076595" lon="13.0675417"><ele>425.0</ele><time>2026-04-12T12:36:33.431Z</time></trkpt><trkpt lat="43.07665" lon="13.0677683"><ele>424.0</ele><time>2026-04-12T12:36:34.43Z</time></trkpt><trkpt lat="43.0767067" lon="13.0679833"><ele>423.0</ele><time>2026-04-12T12:36:35.429Z</time></trkpt><trkpt lat="43.076765" lon="13.0681917"><ele>422.0</ele><time>2026-04-12T12:36:36.43Z</time></trkpt><trkpt lat="43.076825" lon="13.068385"><ele>422.0</ele><time>2026-04-12T12:36:37.429Z</time></trkpt><trkpt lat="43.0768833" lon="13.068565"><ele>422.0</ele><time>2026-04-12T12:36:38.429Z</time></trkpt><trkpt lat="43.0769383" lon="13.0687383"><ele>422.0</ele><time>2026-04-12T12:36:39.431Z</time></trkpt><trkpt lat="43.0769883" lon="13.0689017"><ele>422.0</ele><time>2026-04-12T12:36:40.434Z</time></trkpt><trkpt lat="43.0770367" lon="13.0690567"><ele>421.75</ele><time>2026-04-12T12:36:41.429Z</time></trkpt><trkpt lat="43.0770867" lon="13.069205"><ele>421.5</ele><time>2026-04-12T12:36:42.428Z</time></trkpt><trkpt lat="43.077135" lon="13.069355"><ele>421.25</ele><time>2026-04-12T12:36:43.433Z</time></trkpt><trkpt lat="43.0771833" lon="13.0695"><ele>421.0</ele><time>2026-04-12T12:36:44.433Z</time></trkpt><trkpt lat="43.0772333" lon="13.0696467"><ele>421.0</ele><time>2026-04-12T12:36:45.43Z</time></trkpt><trkpt lat="43.0772833" lon="13.0698"><ele>421.0</ele><time>2026-04-12T12:36:46.432Z</time></trkpt><trkpt lat="43.07733" lon="13.06996"><ele>421.0</ele><time>2026-04-12T12:36:47.43Z</time></trkpt><trkpt lat="43.0773833" lon="13.07013"><ele>421.0</ele><time>2026-04-12T12:36:48.433Z</time></trkpt><trkpt lat="43.0774417" lon="13.070305"><ele>420.5</ele><time>2026-04-12T12:36:49.433Z</time></trkpt><trkpt lat="43.0775017" lon="13.0704833"><ele>420.0</ele><time>2026-04-12T12:36:50.457Z</time></trkpt><trkpt lat="43.0775667" lon="13.0706683"><ele>419.5</ele><time>2026-04-12T12:36:51.433Z</time></trkpt><trkpt lat="43.07763" lon="13.0708567"><ele>419.0</ele><time>2026-04-12T12:36:52.43Z</time></trkpt><trkpt lat="43.077695" lon="13.0710417"><ele>419.0</ele><time>2026-04-12T12:36:53.431Z</time></trkpt><trkpt lat="43.0777567" lon="13.071225"><ele>419.0</ele><time>2026-04-12T12:36:54.427Z</time></trkpt><trkpt lat="43.07782" lon="13.0714083"><ele>419.0</ele><time>2026-04-12T12:36:55.431Z</time></trkpt><trkpt lat="43.0778833" lon="13.07159"><ele>419.0</ele><time>2026-04-12T12:36:56.431Z</time></trkpt><trkpt lat="43.077945" lon="13.07177"><ele>418.25</ele><time>2026-04-12T12:36:57.431Z</time></trkpt><trkpt lat="43.0780067" lon="13.0719517"><ele>417.5</ele><time>2026-04-12T12:36:58.434Z</time></trkpt><trkpt lat="43.07807" lon="13.0721317"><ele>416.75</ele><time>2026-04-12T12:36:59.431Z</time></trkpt><trkpt lat="43.0781333" lon="13.0723083"><ele>416.0</ele><time>2026-04-12T12:37:00.433Z</time></trkpt><trkpt lat="43.0781983" lon="13.0724817"><ele>416.0</ele><time>2026-04-12T12:37:01.428Z</time></trkpt><trkpt lat="43.0782567" lon="13.07265"><ele>416.0</ele><time>2026-04-12T12:37:02.431Z</time></trkpt><trkpt lat="43.0783167" lon="13.07281"><ele>416.0</ele><time>2026-04-12T12:37:03.429Z</time></trkpt><trkpt lat="43.0783783" lon="13.0729667"><ele>416.0</ele><time>2026-04-12T12:37:04.433Z</time></trkpt><trkpt lat="43.0784433" lon="13.0731217"><ele>416.5</ele><time>2026-04-12T12:37:05.433Z</time></trkpt><trkpt lat="43.07851" lon="13.073275"><ele>417.0</ele><time>2026-04-12T12:37:06.43Z</time></trkpt><trkpt lat="43.078575" lon="13.0734283"><ele>417.5</ele><time>2026-04-12T12:37:07.431Z</time></trkpt><trkpt lat="43.078635" lon="13.0735733"><ele>418.0</ele><time>2026-04-12T12:37:08.429Z</time></trkpt><trkpt lat="43.0786933" lon="13.0737183"><ele>418.0</ele><time>2026-04-12T12:37:09.429Z</time></trkpt><trkpt lat="43.0787383" lon="13.0738533"><ele>418.0</ele><time>2026-04-12T12:37:10.43Z</time></trkpt><trkpt lat="43.07878" lon="13.073985"><ele>418.0</ele><time>2026-04-12T12:37:11.431Z</time></trkpt><trkpt lat="43.0788167" lon="13.0741133"><ele>418.0</ele><time>2026-04-12T12:37:12.432Z</time></trkpt><trkpt lat="43.07884" lon="13.0742333"><ele>418.0</ele><time>2026-04-12T12:37:13.427Z</time></trkpt><trkpt lat="43.0788533" lon="13.0743517"><ele>417.50000000000006</ele><time>2026-04-12T12:37:14.43Z</time></trkpt><trkpt lat="43.078845" lon="13.0744567"><ele>417.0</ele><time>2026-04-12T12:37:15.429Z</time></trkpt><trkpt lat="43.0788467" lon="13.074555"><ele>416.5</ele><time>2026-04-12T12:37:16.43Z</time></trkpt><trkpt lat="43.0788617" lon="13.0746433"><ele>416.0</ele><time>2026-04-12T12:37:17.429Z</time></trkpt><trkpt lat="43.0788917" lon="13.0747267"><ele>415.50000000000006</ele><time>2026-04-12T12:37:18.431Z</time></trkpt><trkpt lat="43.0789333" lon="13.0747917"><ele>415.0</ele><time>2026-04-12T12:37:19.429Z</time></trkpt><trkpt lat="43.07904" lon="13.0748333"><ele>415.6666666666667</ele><time>2026-04-12T12:37:21.431Z</time></trkpt><trkpt lat="43.0791083" lon="13.0747967"><ele>416.33333333333337</ele><time>2026-04-12T12:37:22.43Z</time></trkpt><trkpt lat="43.079185" lon="13.07475"><ele>417.0</ele><time>2026-04-12T12:37:23.433Z</time></trkpt><trkpt lat="43.0792683" lon="13.0747117"><ele>417.66666666666663</ele><time>2026-04-12T12:37:24.427Z</time></trkpt><trkpt lat="43.0793533" lon="13.0746983"><ele>418.3333333333333</ele><time>2026-04-12T12:37:25.429Z</time></trkpt><trkpt lat="43.0794417" lon="13.074705"><ele>419.0</ele><time>2026-04-12T12:37:26.43Z</time></trkpt><trkpt lat="43.0795267" lon="13.0747417"><ele>419.0</ele><time>2026-04-12T12:37:27.431Z</time></trkpt><trkpt lat="43.0795983" lon="13.0748133"><ele>419.0</ele><time>2026-04-12T12:37:28.432Z</time></trkpt><trkpt lat="43.0796533" lon="13.07493"><ele>419.0</ele><time>2026-04-12T12:37:29.428Z</time></trkpt><trkpt lat="43.0796883" lon="13.0750917"><ele>419.0</ele><time>2026-04-12T12:37:30.429Z</time></trkpt><trkpt lat="43.0797183" lon="13.0752617"><ele>419.0</ele><time>2026-04-12T12:37:31.428Z</time></trkpt><trkpt lat="43.07975" lon="13.0754283"><ele>418.25</ele><time>2026-04-12T12:37:32.431Z</time></trkpt><trkpt lat="43.0797833" lon="13.0756117"><ele>417.5</ele><time>2026-04-12T12:37:33.433Z</time></trkpt><trkpt lat="43.07982" lon="13.0758133"><ele>416.75</ele><time>2026-04-12T12:37:34.431Z</time></trkpt><trkpt lat="43.0798583" lon="13.0760217"><ele>416.0</ele><time>2026-04-12T12:37:35.431Z</time></trkpt><trkpt lat="43.0798967" lon="13.0762433"><ele>417.3333333333333</ele><time>2026-04-12T12:37:36.432Z</time></trkpt><trkpt lat="43.0799367" lon="13.0764617"><ele>418.66666666666663</ele><time>2026-04-12T12:37:37.432Z</time></trkpt><trkpt lat="43.0799783" lon="13.076695"><ele>420.0</ele><time>2026-04-12T12:37:38.432Z</time></trkpt><trkpt lat="43.080025" lon="13.0769367"><ele>420.0</ele><time>2026-04-12T12:37:39.432Z</time></trkpt><trkpt lat="43.08007" lon="13.07718"><ele>420.0</ele><time>2026-04-12T12:37:40.43Z</time></trkpt><trkpt lat="43.08012" lon="13.0774367"><ele>420.0</ele><time>2026-04-12T12:37:41.435Z</time></trkpt><trkpt lat="43.0801783" lon="13.0777233"><ele>419.5</ele><time>2026-04-12T12:37:42.431Z</time></trkpt><trkpt lat="43.0802367" lon="13.0780417"><ele>419.0</ele><time>2026-04-12T12:37:43.434Z</time></trkpt><trkpt lat="43.0802933" lon="13.078395"><ele>419.0</ele><time>2026-04-12T12:37:44.459Z</time></trkpt><trkpt lat="43.0803467" lon="13.0787683"><ele>419.0</ele><time>2026-04-12T12:37:45.428Z</time></trkpt><trkpt lat="43.0804" lon="13.079155"><ele>420.5</ele><time>2026-04-12T12:37:46.431Z</time></trkpt><trkpt lat="43.0804533" lon="13.079555"><ele>422.0</ele><time>2026-04-12T12:37:47.431Z</time></trkpt><trkpt lat="43.0805067" lon="13.0799633"><ele>424.0</ele><time>2026-04-12T12:37:48.437Z</time></trkpt><trkpt lat="43.0805617" lon="13.0803717"><ele>426.0</ele><time>2026-04-12T12:37:49.431Z</time></trkpt><trkpt lat="43.0806167" lon="13.0807783"><ele>421.0</ele><time>2026-04-12T12:37:50.431Z</time></trkpt><trkpt lat="43.08081" lon="13.08508"><ele>421.0</ele><time>2026-04-12T12:37:59.429Z</time></trkpt><trkpt lat="43.0808167" lon="13.08554"><ele>421.0</ele><time>2026-04-12T12:38:00.427Z</time></trkpt><trkpt lat="43.08084" lon="13.0860017"><ele>417.0</ele><time>2026-04-12T12:38:01.428Z</time></trkpt><trkpt lat="43.0808717" lon="13.0864667"><ele>413.0</ele><time>2026-04-12T12:38:02.433Z</time></trkpt><trkpt lat="43.0809083" lon="13.086925"><ele>413.0</ele><time>2026-04-12T12:38:03.432Z</time></trkpt><trkpt lat="43.0809483" lon="13.0873867"><ele>413.0</ele><time>2026-04-12T12:38:04.43Z</time></trkpt><trkpt lat="43.0809967" lon="13.087845"><ele>413.0</ele><time>2026-04-12T12:38:05.431Z</time></trkpt><trkpt lat="43.0810567" lon="13.0883067"><ele>413.0</ele><time>2026-04-12T12:38:06.43Z</time></trkpt><trkpt lat="43.0811233" lon="13.0887633"><ele>412.0</ele><time>2026-04-12T12:38:07.43Z</time></trkpt><trkpt lat="43.0811967" lon="13.0892167"><ele>411.0</ele><time>2026-04-12T12:38:08.43Z</time></trkpt><trkpt lat="43.0812783" lon="13.0896617"><ele>410.0</ele><time>2026-04-12T12:38:09.432Z</time></trkpt><trkpt lat="43.08137" lon="13.090105"><ele>409.0</ele><time>2026-04-12T12:38:10.433Z</time></trkpt><trkpt lat="43.0814717" lon="13.0905383"><ele>408.5</ele><time>2026-04-12T12:38:11.434Z</time></trkpt><trkpt lat="43.0815817" lon="13.09097"><ele>408.0</ele><time>2026-04-12T12:38:12.431Z</time></trkpt><trkpt lat="43.081695" lon="13.0914"><ele>409.5</ele><time>2026-04-12T12:38:13.431Z</time></trkpt><trkpt lat="43.0818183" lon="13.0918283"><ele>411.0</ele><time>2026-04-12T12:38:14.433Z</time></trkpt><trkpt lat="43.0819483" lon="13.0922533"><ele>407.5</ele><time>2026-04-12T12:38:15.436Z</time></trkpt><trkpt lat="43.082085" lon="13.0926717"><ele>404.0</ele><time>2026-04-12T12:38:16.428Z</time></trkpt><trkpt lat="43.08223" lon="13.093085"><ele>401.5</ele><time>2026-04-12T12:38:17.434Z</time></trkpt><trkpt lat="43.0823833" lon="13.0934917"><ele>399.0</ele><time>2026-04-12T12:38:18.433Z</time></trkpt><trkpt lat="43.0825467" lon="13.093895"><ele>402.5</ele><time>2026-04-12T12:38:19.43Z</time></trkpt><trkpt lat="43.08272" lon="13.0942933"><ele>406.0</ele><time>2026-04-12T12:38:20.434Z</time></trkpt><trkpt lat="43.0829017" lon="13.0946833"><ele>404.0</ele><time>2026-04-12T12:38:21.431Z</time></trkpt><trkpt lat="43.0830883" lon="13.0950683"><ele>402.0</ele><time>2026-04-12T12:38:22.426Z</time></trkpt><trkpt lat="43.0832817" lon="13.09545"><ele>410.5</ele><time>2026-04-12T12:38:23.432Z</time></trkpt><trkpt lat="43.08348" lon="13.09583"><ele>419.0</ele><time>2026-04-12T12:38:24.431Z</time></trkpt><trkpt lat="43.08368" lon="13.0962083"><ele>419.0</ele><time>2026-04-12T12:38:25.431Z</time></trkpt><trkpt lat="43.0838833" lon="13.0965817"><ele>419.0</ele><time>2026-04-12T12:38:26.431Z</time></trkpt><trkpt lat="43.0840917" lon="13.096945"><ele>421.5</ele><time>2026-04-12T12:38:27.432Z</time></trkpt><trkpt lat="43.0843017" lon="13.09731"><ele>424.0</ele><time>2026-04-12T12:38:28.431Z</time></trkpt><trkpt lat="43.0845083" lon="13.0976833"><ele>414.5</ele><time>2026-04-12T12:38:29.43Z</time></trkpt><trkpt lat="43.0847167" lon="13.098055"><ele>405.0</ele><time>2026-04-12T12:38:30.43Z</time></trkpt><trkpt lat="43.0849217" lon="13.098435"><ele>406.0</ele><time>2026-04-12T12:38:31.43Z</time></trkpt><trkpt lat="43.0851217" lon="13.09882"><ele>407.0</ele><time>2026-04-12T12:38:32.426Z</time></trkpt><trkpt lat="43.0853283" lon="13.0991967"><ele>407.0</ele><time>2026-04-12T12:38:33.433Z</time></trkpt><trkpt lat="43.0855383" lon="13.0995683"><ele>407.0</ele><time>2026-04-12T12:38:34.431Z</time></trkpt><trkpt lat="43.08575" lon="13.09994"><ele>410.5</ele><time>2026-04-12T12:38:35.432Z</time></trkpt><trkpt lat="43.08596" lon="13.1003083"><ele>414.0</ele><time>2026-04-12T12:38:36.431Z</time></trkpt><trkpt lat="43.086165" lon="13.1006783"><ele>408.5</ele><time>2026-04-12T12:38:37.433Z</time></trkpt><trkpt lat="43.08637" lon="13.1010433"><ele>403.0</ele><time>2026-04-12T12:38:38.434Z</time></trkpt><trkpt lat="43.0865767" lon="13.1014083"><ele>404.0</ele><time>2026-04-12T12:38:39.433Z</time></trkpt><trkpt lat="43.0867833" lon="13.1017733"><ele>405.0</ele><time>2026-04-12T12:38:40.428Z</time></trkpt><trkpt lat="43.0869917" lon="13.102135"><ele>402.0</ele><time>2026-04-12T12:38:41.432Z</time></trkpt><trkpt lat="43.0872" lon="13.1025033"><ele>399.0</ele><time>2026-04-12T12:38:42.429Z</time></trkpt><trkpt lat="43.0873967" lon="13.10288"><ele>402.0</ele><time>2026-04-12T12:38:43.432Z</time></trkpt><trkpt lat="43.0875717" lon="13.103275"><ele>405.0</ele><time>2026-04-12T12:38:44.429Z</time></trkpt><trkpt lat="43.087735" lon="13.10367"><ele>405.0</ele><time>2026-04-12T12:38:45.431Z</time></trkpt><trkpt lat="43.0878867" lon="13.10407"><ele>405.0</ele><time>2026-04-12T12:38:46.431Z</time></trkpt><trkpt lat="43.08803" lon="13.104475"><ele>405.0</ele><time>2026-04-12T12:38:47.431Z</time></trkpt><trkpt lat="43.0881683" lon="13.1048783"><ele>405.0</ele><time>2026-04-12T12:38:48.432Z</time></trkpt><trkpt lat="43.08831" lon="13.1052817"><ele>405.0</ele><time>2026-04-12T12:38:49.435Z</time></trkpt><trkpt lat="43.0884567" lon="13.1056867"><ele>405.0</ele><time>2026-04-12T12:38:50.43Z</time></trkpt><trkpt lat="43.088605" lon="13.1060883"><ele>405.5</ele><time>2026-04-12T12:38:51.43Z</time></trkpt><trkpt lat="43.0887533" lon="13.1064883"><ele>406.0</ele><time>2026-04-12T12:38:52.43Z</time></trkpt><trkpt lat="43.0889067" lon="13.1068883"><ele>405.5</ele><time>2026-04-12T12:38:53.43Z</time></trkpt><trkpt lat="43.0890617" lon="13.107285"><ele>405.0</ele><time>2026-04-12T12:38:54.432Z</time></trkpt><trkpt lat="43.0892183" lon="13.1076833"><ele>405.0</ele><time>2026-04-12T12:38:55.432Z</time></trkpt><trkpt lat="43.0893733" lon="13.1080833"><ele>405.0</ele><time>2026-04-12T12:38:56.431Z</time></trkpt><trkpt lat="43.089525" lon="13.108485"><ele>404.5</ele><time>2026-04-12T12:38:57.431Z</time></trkpt><trkpt lat="43.0896733" lon="13.10888"><ele>404.0</ele><time>2026-04-12T12:38:58.432Z</time></trkpt><trkpt lat="43.0898317" lon="13.1092733"><ele>408.5</ele><time>2026-04-12T12:38:59.432Z</time></trkpt><trkpt lat="43.0899933" lon="13.1096617"><ele>413.0</ele><time>2026-04-12T12:39:00.432Z</time></trkpt><trkpt lat="43.0901417" lon="13.1100633"><ele>413.0</ele><time>2026-04-12T12:39:01.431Z</time></trkpt><trkpt lat="43.0902667" lon="13.1104983"><ele>413.0</ele><time>2026-04-12T12:39:02.43Z</time></trkpt><trkpt lat="43.0904133" lon="13.1109133"><ele>404.0</ele><time>2026-04-12T12:39:03.428Z</time></trkpt><trkpt lat="43.0905633" lon="13.111325"><ele>395.0</ele><time>2026-04-12T12:39:04.433Z</time></trkpt><trkpt lat="43.0907117" lon="13.111735"><ele>396.0</ele><time>2026-04-12T12:39:05.433Z</time></trkpt><trkpt lat="43.0908633" lon="13.11214"><ele>397.0</ele><time>2026-04-12T12:39:06.43Z</time></trkpt><trkpt lat="43.0910183" lon="13.1125433"><ele>391.5</ele><time>2026-04-12T12:39:07.43Z</time></trkpt><trkpt lat="43.0911733" lon="13.112945"><ele>386.0</ele><time>2026-04-12T12:39:08.434Z</time></trkpt><trkpt lat="43.0913333" lon="13.1133433"><ele>385.5</ele><time>2026-04-12T12:39:09.427Z</time></trkpt><trkpt lat="43.0915" lon="13.1137383"><ele>385.0</ele><time>2026-04-12T12:39:10.431Z</time></trkpt><trkpt lat="43.0916717" lon="13.11413"><ele>392.0</ele><time>2026-04-12T12:39:11.431Z</time></trkpt><trkpt lat="43.091845" lon="13.1145183"><ele>399.0</ele><time>2026-04-12T12:39:12.43Z</time></trkpt><trkpt lat="43.0920217" lon="13.1149083"><ele>403.0</ele><time>2026-04-12T12:39:13.429Z</time></trkpt><trkpt lat="43.0921967" lon="13.115295"><ele>407.0</ele><time>2026-04-12T12:39:14.435Z</time></trkpt><trkpt lat="43.0923633" lon="13.1156867"><ele>412.5</ele><time>2026-04-12T12:39:15.429Z</time></trkpt><trkpt lat="43.0925317" lon="13.1160783"><ele>418.0</ele><time>2026-04-12T12:39:16.429Z</time></trkpt><trkpt lat="43.0926983" lon="13.11647"><ele>415.0</ele><time>2026-04-12T12:39:17.431Z</time></trkpt><trkpt lat="43.0928667" lon="13.11686"><ele>412.0</ele><time>2026-04-12T12:39:18.426Z</time></trkpt><trkpt lat="43.0958983" lon="13.1221933"><ele>396.0</ele><time>2026-04-12T12:39:33.431Z</time></trkpt><trkpt lat="43.096175" lon="13.12247"><ele>380.0</ele><time>2026-04-12T12:39:34.426Z</time></trkpt><trkpt lat="43.0964417" lon="13.122705"><ele>384.0</ele><time>2026-04-12T12:39:35.432Z</time></trkpt><trkpt lat="43.0967133" lon="13.122935"><ele>388.0</ele><time>2026-04-12T12:39:36.431Z</time></trkpt><trkpt lat="43.09699" lon="13.123155"><ele>383.0</ele><time>2026-04-12T12:39:37.43Z</time></trkpt><trkpt lat="43.0972667" lon="13.1233583"><ele>378.0</ele><time>2026-04-12T12:39:38.431Z</time></trkpt><trkpt lat="43.0975483" lon="13.123555"><ele>378.0</ele><time>2026-04-12T12:39:39.43Z</time></trkpt><trkpt lat="43.0978283" lon="13.123745"><ele>378.0</ele><time>2026-04-12T12:39:40.429Z</time></trkpt><trkpt lat="43.0981033" lon="13.1239417"><ele>377.5</ele><time>2026-04-12T12:39:41.432Z</time></trkpt><trkpt lat="43.0983767" lon="13.1241583"><ele>377.0</ele><time>2026-04-12T12:39:42.43Z</time></trkpt><trkpt lat="43.0986417" lon="13.1243967"><ele>377.0</ele><time>2026-04-12T12:39:43.429Z</time></trkpt><trkpt lat="43.0989" lon="13.124655"><ele>377.0</ele><time>2026-04-12T12:39:44.43Z</time></trkpt><trkpt lat="43.099145" lon="13.12494"><ele>376.5</ele><time>2026-04-12T12:39:45.43Z</time></trkpt><trkpt lat="43.09938" lon="13.12524"><ele>376.0</ele><time>2026-04-12T12:39:46.429Z</time></trkpt><trkpt lat="43.099605" lon="13.1255583"><ele>376.5</ele><time>2026-04-12T12:39:47.43Z</time></trkpt><trkpt lat="43.0998217" lon="13.1258867"><ele>377.0</ele><time>2026-04-12T12:39:48.429Z</time></trkpt><trkpt lat="43.1000317" lon="13.1262283"><ele>372.0</ele><time>2026-04-12T12:39:49.432Z</time></trkpt><trkpt lat="43.1002433" lon="13.1265767"><ele>367.0</ele><time>2026-04-12T12:39:50.433Z</time></trkpt><trkpt lat="43.1004583" lon="13.1269283"><ele>367.0</ele><time>2026-04-12T12:39:51.449Z</time></trkpt><trkpt lat="43.100685" lon="13.1272667"><ele>367.0</ele><time>2026-04-12T12:39:52.437Z</time></trkpt><trkpt lat="43.1009233" lon="13.1275883"><ele>367.0</ele><time>2026-04-12T12:39:53.43Z</time></trkpt><trkpt lat="43.1011783" lon="13.1278883"><ele>367.0</ele><time>2026-04-12T12:39:54.429Z</time></trkpt><trkpt lat="43.101435" lon="13.128155"><ele>365.0</ele><time>2026-04-12T12:39:55.43Z</time></trkpt><trkpt lat="43.1016867" lon="13.1283883"><ele>363.0</ele><time>2026-04-12T12:39:56.431Z</time></trkpt><trkpt lat="43.1019333" lon="13.1285933"><ele>363.0</ele><time>2026-04-12T12:39:57.433Z</time></trkpt><trkpt lat="43.1021733" lon="13.128775"><ele>363.0</ele><time>2026-04-12T12:39:58.429Z</time></trkpt><trkpt lat="43.1024017" lon="13.1289317"><ele>362.0</ele><time>2026-04-12T12:39:59.431Z</time></trkpt><trkpt lat="43.102625" lon="13.12907"><ele>361.0</ele><time>2026-04-12T12:40:00.429Z</time></trkpt><trkpt lat="43.1028433" lon="13.12919"><ele>361.0</ele><time>2026-04-12T12:40:01.432Z</time></trkpt><trkpt lat="43.103065" lon="13.129295"><ele>361.0</ele><time>2026-04-12T12:40:02.429Z</time></trkpt><trkpt lat="43.1032867" lon="13.12939"><ele>360.0</ele><time>2026-04-12T12:40:03.433Z</time></trkpt><trkpt lat="43.1035083" lon="13.1294767"><ele>359.0</ele><time>2026-04-12T12:40:04.431Z</time></trkpt><trkpt lat="43.1037233" lon="13.1295517"><ele>359.0</ele><time>2026-04-12T12:40:05.429Z</time></trkpt><trkpt lat="43.1039283" lon="13.1296217"><ele>359.0</ele><time>2026-04-12T12:40:06.432Z</time></trkpt><trkpt lat="43.1041333" lon="13.1296833"><ele>359.0</ele><time>2026-04-12T12:40:07.431Z</time></trkpt><trkpt lat="43.10434" lon="13.1297383"><ele>358.33333333333337</ele><time>2026-04-12T12:40:08.431Z</time></trkpt><trkpt lat="43.1045517" lon="13.12979"><ele>357.6666666666667</ele><time>2026-04-12T12:40:09.431Z</time></trkpt><trkpt lat="43.1047733" lon="13.1298417"><ele>357.0</ele><time>2026-04-12T12:40:10.43Z</time></trkpt><trkpt lat="43.104995" lon="13.1298933"><ele>356.6666666666667</ele><time>2026-04-12T12:40:11.433Z</time></trkpt><trkpt lat="43.1052" lon="13.12994"><ele>356.33333333333337</ele><time>2026-04-12T12:40:12.432Z</time></trkpt><trkpt lat="43.10538" lon="13.1299867"><ele>356.0</ele><time>2026-04-12T12:40:13.433Z</time></trkpt><trkpt lat="43.1055367" lon="13.1300233"><ele>356.0</ele><time>2026-04-12T12:40:14.431Z</time></trkpt><trkpt lat="43.1056583" lon="13.130055"><ele>356.0</ele><time>2026-04-12T12:40:15.433Z</time></trkpt><trkpt lat="43.10576" lon="13.13008"><ele>356.0</ele><time>2026-04-12T12:40:16.437Z</time></trkpt><trkpt lat="43.105855" lon="13.1300933"><ele>356.0</ele><time>2026-04-12T12:40:17.432Z</time></trkpt><trkpt lat="43.1059633" lon="13.130095"><ele>356.0</ele><time>2026-04-12T12:40:18.433Z</time></trkpt><trkpt lat="43.10607" lon="13.1300733"><ele>356.20000000000005</ele><time>2026-04-12T12:40:19.428Z</time></trkpt><trkpt lat="43.106165" lon="13.13003"><ele>356.40000000000003</ele><time>2026-04-12T12:40:20.425Z</time></trkpt><trkpt lat="43.1062417" lon="13.1299467"><ele>356.6</ele><time>2026-04-12T12:40:21.427Z</time></trkpt><trkpt lat="43.1062967" lon="13.1298317"><ele>356.8</ele><time>2026-04-12T12:40:22.433Z</time></trkpt><trkpt lat="43.1063217" lon="13.1297167"><ele>357.0</ele><time>2026-04-12T12:40:23.431Z</time></trkpt><trkpt lat="43.1063233" lon="13.12958"><ele>357.0</ele><time>2026-04-12T12:40:24.432Z</time></trkpt><trkpt lat="43.1062717" lon="13.12945"><ele>357.0</ele><time>2026-04-12T12:40:25.433Z</time></trkpt><trkpt lat="43.10621" lon="13.12936"><ele>357.0</ele><time>2026-04-12T12:40:26.436Z</time></trkpt><trkpt lat="43.10614" lon="13.129285"><ele>357.0</ele><time>2026-04-12T12:40:27.431Z</time></trkpt><trkpt lat="43.1060667" lon="13.12922"><ele>357.0</ele><time>2026-04-12T12:40:28.431Z</time></trkpt><trkpt lat="43.1060083" lon="13.1291517"><ele>357.0</ele><time>2026-04-12T12:40:29.428Z</time></trkpt><trkpt lat="43.1059667" lon="13.1290667"><ele>357.0</ele><time>2026-04-12T12:40:30.43Z</time></trkpt><trkpt lat="43.1059633" lon="13.1289767"><ele>357.0</ele><time>2026-04-12T12:40:31.429Z</time></trkpt><trkpt lat="43.1059967" lon="13.1289017"><ele>357.0</ele><time>2026-04-12T12:40:32.427Z</time></trkpt><trkpt lat="43.1060667" lon="13.1288617"><ele>357.0</ele><time>2026-04-12T12:40:33.429Z</time></trkpt><trkpt lat="43.1061683" lon="13.1288817"><ele>357.0</ele><time>2026-04-12T12:40:34.43Z</time></trkpt><trkpt lat="43.1062917" lon="13.1289383"><ele>357.0</ele><time>2026-04-12T12:40:35.429Z</time></trkpt><trkpt lat="43.10642" lon="13.129005"><ele>357.0</ele><time>2026-04-12T12:40:36.427Z</time></trkpt><trkpt lat="43.1065467" lon="13.1290667"><ele>357.0</ele><time>2026-04-12T12:40:37.43Z</time></trkpt><trkpt lat="43.106675" lon="13.1291217"><ele>357.0</ele><time>2026-04-12T12:40:38.433Z</time></trkpt><trkpt lat="43.1068067" lon="13.1291833"><ele>356.5</ele><time>2026-04-12T12:40:39.432Z</time></trkpt><trkpt lat="43.1069283" lon="13.1292467"><ele>356.0</ele><time>2026-04-12T12:40:40.43Z</time></trkpt><trkpt lat="43.107045" lon="13.129305"><ele>355.5</ele><time>2026-04-12T12:40:41.429Z</time></trkpt><trkpt lat="43.107155" lon="13.1293367"><ele>355.0</ele><time>2026-04-12T12:40:42.431Z</time></trkpt><trkpt lat="43.10725" lon="13.1293217"><ele>355.0</ele><time>2026-04-12T12:40:43.431Z</time></trkpt><trkpt lat="43.1073267" lon="13.1292667"><ele>355.0</ele><time>2026-04-12T12:40:44.432Z</time></trkpt><trkpt lat="43.1073933" lon="13.1291917"><ele>355.0</ele><time>2026-04-12T12:40:45.43Z</time></trkpt><trkpt lat="43.1074467" lon="13.129095"><ele>355.0</ele><time>2026-04-12T12:40:46.431Z</time></trkpt><trkpt lat="43.1074833" lon="13.1289833"><ele>355.0</ele><time>2026-04-12T12:40:47.431Z</time></trkpt><trkpt lat="43.1075067" lon="13.1288617"><ele>355.0</ele><time>2026-04-12T12:40:48.43Z</time></trkpt><trkpt lat="43.1075367" lon="13.12875"><ele>359.0</ele><time>2026-04-12T12:40:49.428Z</time></trkpt><trkpt lat="43.1075833" lon="13.1286567"><ele>363.0</ele><time>2026-04-12T12:40:50.432Z</time></trkpt><trkpt lat="43.1076483" lon="13.1285817"><ele>367.0</ele><time>2026-04-12T12:40:51.434Z</time></trkpt><trkpt lat="43.107725" lon="13.1285217"><ele>371.0</ele><time>2026-04-12T12:40:52.43Z</time></trkpt><trkpt lat="43.1078417" lon="13.1284917"><ele>375.0</ele><time>2026-04-12T12:40:53.432Z</time></trkpt><trkpt lat="43.10799" lon="13.1284767"><ele>375.0</ele><time>2026-04-12T12:40:54.429Z</time></trkpt><trkpt lat="43.10816" lon="13.12847"><ele>375.0</ele><time>2026-04-12T12:40:55.433Z</time></trkpt><trkpt lat="43.10834" lon="13.12847"><ele>375.0</ele><time>2026-04-12T12:40:56.436Z</time></trkpt><trkpt lat="43.108525" lon="13.12847"><ele>373.6666666666667</ele><time>2026-04-12T12:40:57.431Z</time></trkpt><trkpt lat="43.1086983" lon="13.12846"><ele>372.33333333333337</ele><time>2026-04-12T12:40:58.429Z</time></trkpt><trkpt lat="43.1088433" lon="13.1284183"><ele>371.0</ele><time>2026-04-12T12:40:59.429Z</time></trkpt><trkpt lat="43.1089633" lon="13.128335"><ele>366.75</ele><time>2026-04-12T12:41:00.429Z</time></trkpt><trkpt lat="43.109055" lon="13.128205"><ele>362.5</ele><time>2026-04-12T12:41:01.44Z</time></trkpt><trkpt lat="43.1091183" lon="13.1280333"><ele>358.25</ele><time>2026-04-12T12:41:02.43Z</time></trkpt><trkpt lat="43.1091483" lon="13.1278117"><ele>354.0</ele><time>2026-04-12T12:41:03.43Z</time></trkpt><trkpt lat="43.1091967" lon="13.1275983"><ele>354.0</ele><time>2026-04-12T12:41:04.43Z</time></trkpt><trkpt lat="43.1092733" lon="13.1274333"><ele>354.0</ele><time>2026-04-12T12:41:05.432Z</time></trkpt><trkpt lat="43.1093733" lon="13.1272933"><ele>354.0</ele><time>2026-04-12T12:41:06.431Z</time></trkpt><trkpt lat="43.1095" lon="13.127195"><ele>354.0</ele><time>2026-04-12T12:41:07.429Z</time></trkpt><trkpt lat="43.109635" lon="13.12711"><ele>353.25</ele><time>2026-04-12T12:41:08.432Z</time></trkpt><trkpt lat="43.1097733" lon="13.1270417"><ele>352.5</ele><time>2026-04-12T12:41:09.428Z</time></trkpt><trkpt lat="43.1099017" lon="13.1269783"><ele>351.75</ele><time>2026-04-12T12:41:10.431Z</time></trkpt><trkpt lat="43.1100217" lon="13.1269217"><ele>351.0</ele><time>2026-04-12T12:41:11.428Z</time></trkpt><trkpt lat="43.1101217" lon="13.1268683"><ele>351.0</ele><time>2026-04-12T12:41:12.431Z</time></trkpt><trkpt lat="43.1102067" lon="13.1268017"><ele>351.0</ele><time>2026-04-12T12:41:13.432Z</time></trkpt><trkpt lat="43.110265" lon="13.1266983"><ele>351.0</ele><time>2026-04-12T12:41:14.432Z</time></trkpt><trkpt lat="43.1102983" lon="13.1265567"><ele>351.0</ele><time>2026-04-12T12:41:15.431Z</time></trkpt><trkpt lat="43.110315" lon="13.1263683"><ele>351.0</ele><time>2026-04-12T12:41:16.431Z</time></trkpt><trkpt lat="43.11032" lon="13.1261417"><ele>352.3333333333333</ele><time>2026-04-12T12:41:17.429Z</time></trkpt><trkpt lat="43.1103233" lon="13.1259"><ele>353.66666666666663</ele><time>2026-04-12T12:41:18.437Z</time></trkpt><trkpt lat="43.1103233" lon="13.12565"><ele>355.0</ele><time>2026-04-12T12:41:19.436Z</time></trkpt><trkpt lat="43.1103167" lon="13.1253967"><ele>356.0</ele><time>2026-04-12T12:41:20.443Z</time></trkpt><trkpt lat="43.1103083" lon="13.1251567"><ele>357.0</ele><time>2026-04-12T12:41:21.434Z</time></trkpt><trkpt lat="43.1103033" lon="13.124925"><ele>358.0</ele><time>2026-04-12T12:41:22.431Z</time></trkpt><trkpt lat="43.110305" lon="13.1247217"><ele>358.0</ele><time>2026-04-12T12:41:23.431Z</time></trkpt><trkpt lat="43.110345" lon="13.124535"><ele>358.0</ele><time>2026-04-12T12:41:24.432Z</time></trkpt><trkpt lat="43.1104133" lon="13.1243633"><ele>358.0</ele><time>2026-04-12T12:41:25.431Z</time></trkpt><trkpt lat="43.1104867" lon="13.1242033"><ele>358.0</ele><time>2026-04-12T12:41:26.429Z</time></trkpt><trkpt lat="43.1105267" lon="13.1240417"><ele>357.75</ele><time>2026-04-12T12:41:27.43Z</time></trkpt><trkpt lat="43.1105167" lon="13.1238717"><ele>357.5</ele><time>2026-04-12T12:41:28.429Z</time></trkpt><trkpt lat="43.1104683" lon="13.1237217"><ele>357.25</ele><time>2026-04-12T12:41:29.428Z</time></trkpt><trkpt lat="43.1103933" lon="13.1235917"><ele>357.0</ele><time>2026-04-12T12:41:30.427Z</time></trkpt><trkpt lat="43.1103183" lon="13.12347"><ele>357.0</ele><time>2026-04-12T12:41:31.431Z</time></trkpt><trkpt lat="43.11025" lon="13.1233417"><ele>357.0</ele><time>2026-04-12T12:41:32.428Z</time></trkpt><trkpt lat="43.1101983" lon="13.1232017"><ele>357.0</ele><time>2026-04-12T12:41:33.431Z</time></trkpt><trkpt lat="43.1101717" lon="13.1230367"><ele>357.0</ele><time>2026-04-12T12:41:34.43Z</time></trkpt><trkpt lat="43.1101633" lon="13.1228667"><ele>357.25</ele><time>2026-04-12T12:41:35.43Z</time></trkpt><trkpt lat="43.1101767" lon="13.12269"><ele>357.5</ele><time>2026-04-12T12:41:36.43Z</time></trkpt><trkpt lat="43.11021" lon="13.1225167"><ele>357.75</ele><time>2026-04-12T12:41:37.43Z</time></trkpt><trkpt lat="43.1102517" lon="13.1223383"><ele>358.0</ele><time>2026-04-12T12:41:38.433Z</time></trkpt><trkpt lat="43.1102983" lon="13.122115"><ele>356.66666666666663</ele><time>2026-04-12T12:41:39.429Z</time></trkpt><trkpt lat="43.1103633" lon="13.1218667"><ele>355.3333333333333</ele><time>2026-04-12T12:41:40.43Z</time></trkpt><trkpt lat="43.1104383" lon="13.1216067"><ele>354.0</ele><time>2026-04-12T12:41:41.435Z</time></trkpt><trkpt lat="43.110515" lon="13.12133"><ele>354.0</ele><time>2026-04-12T12:41:42.431Z</time></trkpt><trkpt lat="43.1105783" lon="13.1210383"><ele>354.0</ele><time>2026-04-12T12:41:43.431Z</time></trkpt><trkpt lat="43.110625" lon="13.1207417"><ele>354.0</ele><time>2026-04-12T12:41:44.433Z</time></trkpt><trkpt lat="43.1106517" lon="13.1204333"><ele>355.0</ele><time>2026-04-12T12:41:45.436Z</time></trkpt><trkpt lat="43.11066" lon="13.120115"><ele>356.0</ele><time>2026-04-12T12:41:46.43Z</time></trkpt><trkpt lat="43.1106533" lon="13.1197933"><ele>356.0</ele><time>2026-04-12T12:41:47.431Z</time></trkpt><trkpt lat="43.1106283" lon="13.1194617"><ele>356.0</ele><time>2026-04-12T12:41:48.43Z</time></trkpt><trkpt lat="43.110595" lon="13.1191283"><ele>356.5</ele><time>2026-04-12T12:41:49.432Z</time></trkpt><trkpt lat="43.11056" lon="13.1187967"><ele>357.0</ele><time>2026-04-12T12:41:50.433Z</time></trkpt><trkpt lat="43.1105217" lon="13.118465"><ele>359.0</ele><time>2026-04-12T12:41:51.434Z</time></trkpt><trkpt lat="43.1104933" lon="13.1181367"><ele>361.0</ele><time>2026-04-12T12:41:52.43Z</time></trkpt><trkpt lat="43.11048" lon="13.11781"><ele>361.0</ele><time>2026-04-12T12:41:53.43Z</time></trkpt><trkpt lat="43.1104933" lon="13.1174783"><ele>361.0</ele><time>2026-04-12T12:41:54.431Z</time></trkpt><trkpt lat="43.1105217" lon="13.1171433"><ele>361.0</ele><time>2026-04-12T12:41:55.43Z</time></trkpt><trkpt lat="43.1105617" lon="13.11681"><ele>361.0</ele><time>2026-04-12T12:41:56.448Z</time></trkpt><trkpt lat="43.1105983" lon="13.11647"><ele>361.5</ele><time>2026-04-12T12:41:57.433Z</time></trkpt><trkpt lat="43.1106367" lon="13.116125"><ele>362.0</ele><time>2026-04-12T12:41:58.433Z</time></trkpt><trkpt lat="43.1106733" lon="13.1157733"><ele>362.5</ele><time>2026-04-12T12:41:59.43Z</time></trkpt><trkpt lat="43.1107133" lon="13.1154167"><ele>363.0</ele><time>2026-04-12T12:42:00.431Z</time></trkpt><trkpt lat="43.11075" lon="13.1150567"><ele>366.5</ele><time>2026-04-12T12:42:01.43Z</time></trkpt><trkpt lat="43.110785" lon="13.1146917"><ele>370.0</ele><time>2026-04-12T12:42:02.433Z</time></trkpt><trkpt lat="43.110825" lon="13.1143283"><ele>369.0</ele><time>2026-04-12T12:42:03.429Z</time></trkpt><trkpt lat="43.1108767" lon="13.11397"><ele>368.0</ele><time>2026-04-12T12:42:04.435Z</time></trkpt><trkpt lat="43.1109517" lon="13.1136217"><ele>368.0</ele><time>2026-04-12T12:42:05.432Z</time></trkpt><trkpt lat="43.1110433" lon="13.1132817"><ele>368.0</ele><time>2026-04-12T12:42:06.433Z</time></trkpt><trkpt lat="43.1111367" lon="13.11295"><ele>368.0</ele><time>2026-04-12T12:42:07.432Z</time></trkpt><trkpt lat="43.11121" lon="13.1126133"><ele>368.0</ele><time>2026-04-12T12:42:08.431Z</time></trkpt><trkpt lat="43.1112567" lon="13.1122617"><ele>368.0</ele><time>2026-04-12T12:42:09.435Z</time></trkpt><trkpt lat="43.111275" lon="13.1118983"><ele>368.0</ele><time>2026-04-12T12:42:10.427Z</time></trkpt><trkpt lat="43.111275" lon="13.1115183"><ele>369.0</ele><time>2026-04-12T12:42:11.432Z</time></trkpt><trkpt lat="43.1112667" lon="13.1111333"><ele>370.0</ele><time>2026-04-12T12:42:12.429Z</time></trkpt><trkpt lat="43.1112617" lon="13.110745"><ele>370.0</ele><time>2026-04-12T12:42:13.43Z</time></trkpt><trkpt lat="43.1112533" lon="13.1103567"><ele>370.0</ele><time>2026-04-12T12:42:14.437Z</time></trkpt><trkpt lat="43.1112433" lon="13.1099667"><ele>370.5</ele><time>2026-04-12T12:42:15.431Z</time></trkpt><trkpt lat="43.1112317" lon="13.1095767"><ele>371.0</ele><time>2026-04-12T12:42:16.43Z</time></trkpt><trkpt lat="43.11122" lon="13.1091883"><ele>371.5</ele><time>2026-04-12T12:42:17.431Z</time></trkpt><trkpt lat="43.1112083" lon="13.1088033"><ele>372.0</ele><time>2026-04-12T12:42:18.433Z</time></trkpt><trkpt lat="43.1112" lon="13.1084217"><ele>372.5</ele><time>2026-04-12T12:42:19.434Z</time></trkpt><trkpt lat="43.1112" lon="13.108045"><ele>373.0</ele><time>2026-04-12T12:42:20.433Z</time></trkpt><trkpt lat="43.1112167" lon="13.1076683"><ele>373.5</ele><time>2026-04-12T12:42:21.429Z</time></trkpt><trkpt lat="43.1112483" lon="13.1072967"><ele>374.0</ele><time>2026-04-12T12:42:22.429Z</time></trkpt><trkpt lat="43.1112883" lon="13.1069417"><ele>374.0</ele><time>2026-04-12T12:42:23.429Z</time></trkpt><trkpt lat="43.111345" lon="13.1066183"><ele>374.0</ele><time>2026-04-12T12:42:24.429Z</time></trkpt><trkpt lat="43.1114367" lon="13.1063133"><ele>374.5</ele><time>2026-04-12T12:42:25.431Z</time></trkpt><trkpt lat="43.11156" lon="13.106015"><ele>375.0</ele><time>2026-04-12T12:42:26.432Z</time></trkpt><trkpt lat="43.11168" lon="13.1056967"><ele>375.0</ele><time>2026-04-12T12:42:27.434Z</time></trkpt><trkpt lat="43.1117833" lon="13.10536"><ele>375.0</ele><time>2026-04-12T12:42:28.43Z</time></trkpt><trkpt lat="43.1118717" lon="13.105005"><ele>376.5</ele><time>2026-04-12T12:42:29.431Z</time></trkpt><trkpt lat="43.1119533" lon="13.10464"><ele>378.0</ele><time>2026-04-12T12:42:30.433Z</time></trkpt><trkpt lat="43.1120333" lon="13.1042767"><ele>379.5</ele><time>2026-04-12T12:42:31.434Z</time></trkpt><trkpt lat="43.1121133" lon="13.103915"><ele>381.0</ele><time>2026-04-12T12:42:32.433Z</time></trkpt><trkpt lat="43.1121933" lon="13.1035567"><ele>381.0</ele><time>2026-04-12T12:42:33.435Z</time></trkpt><trkpt lat="43.1122717" lon="13.1032"><ele>381.0</ele><time>2026-04-12T12:42:34.431Z</time></trkpt><trkpt lat="43.11235" lon="13.1028383"><ele>381.0</ele><time>2026-04-12T12:42:35.427Z</time></trkpt><trkpt lat="43.1124267" lon="13.1024733"><ele>381.0</ele><time>2026-04-12T12:42:36.432Z</time></trkpt><trkpt lat="43.112505" lon="13.102105"><ele>381.0</ele><time>2026-04-12T12:42:37.434Z</time></trkpt><trkpt lat="43.1125833" lon="13.1017367"><ele>381.0</ele><time>2026-04-12T12:42:38.434Z</time></trkpt><trkpt lat="43.1126667" lon="13.101365"><ele>381.5</ele><time>2026-04-12T12:42:39.43Z</time></trkpt><trkpt lat="43.112765" lon="13.10101"><ele>382.0</ele><time>2026-04-12T12:42:40.431Z</time></trkpt><trkpt lat="43.1128917" lon="13.1006683"><ele>386.0</ele><time>2026-04-12T12:42:41.432Z</time></trkpt><trkpt lat="43.1130383" lon="13.1003383"><ele>390.0</ele><time>2026-04-12T12:42:42.432Z</time></trkpt><trkpt lat="43.1131917" lon="13.1000117"><ele>388.5</ele><time>2026-04-12T12:42:43.431Z</time></trkpt><trkpt lat="43.11334" lon="13.0996833"><ele>387.0</ele><time>2026-04-12T12:42:44.433Z</time></trkpt><trkpt lat="43.1134717" lon="13.0993417"><ele>387.0</ele><time>2026-04-12T12:42:45.431Z</time></trkpt><trkpt lat="43.1135817" lon="13.098985"><ele>387.0</ele><time>2026-04-12T12:42:46.43Z</time></trkpt><trkpt lat="43.1136633" lon="13.098615"><ele>388.5</ele><time>2026-04-12T12:42:47.431Z</time></trkpt><trkpt lat="43.11372" lon="13.0982333"><ele>390.0</ele><time>2026-04-12T12:42:48.433Z</time></trkpt><trkpt lat="43.1137617" lon="13.0978483"><ele>390.0</ele><time>2026-04-12T12:42:49.439Z</time></trkpt><trkpt lat="43.1137933" lon="13.0974617"><ele>390.0</ele><time>2026-04-12T12:42:50.434Z</time></trkpt><trkpt lat="43.1138233" lon="13.0970717"><ele>391.5</ele><time>2026-04-12T12:42:51.432Z</time></trkpt><trkpt lat="43.1138517" lon="13.09668"><ele>393.0</ele><time>2026-04-12T12:42:52.43Z</time></trkpt><trkpt lat="43.11388" lon="13.09629"><ele>393.5</ele><time>2026-04-12T12:42:53.431Z</time></trkpt><trkpt lat="43.1139067" lon="13.095895"><ele>394.0</ele><time>2026-04-12T12:42:54.432Z</time></trkpt><trkpt lat="43.1139367" lon="13.0955033"><ele>394.0</ele><time>2026-04-12T12:42:55.43Z</time></trkpt><trkpt lat="43.113965" lon="13.0951133"><ele>394.0</ele><time>2026-04-12T12:42:56.432Z</time></trkpt><trkpt lat="43.11399" lon="13.0947233"><ele>395.5</ele><time>2026-04-12T12:42:57.431Z</time></trkpt><trkpt lat="43.114015" lon="13.0943333"><ele>397.0</ele><time>2026-04-12T12:42:58.429Z</time></trkpt><trkpt lat="43.11404" lon="13.093955"><ele>398.5</ele><time>2026-04-12T12:42:59.429Z</time></trkpt><trkpt lat="43.1140633" lon="13.0936033"><ele>400.0</ele><time>2026-04-12T12:43:00.432Z</time></trkpt><trkpt lat="43.11409" lon="13.0932767"><ele>405.0</ele><time>2026-04-12T12:43:01.435Z</time></trkpt><trkpt lat="43.1141317" lon="13.0929717"><ele>410.0</ele><time>2026-04-12T12:43:02.432Z</time></trkpt><trkpt lat="43.1142067" lon="13.0926717"><ele>409.5</ele><time>2026-04-12T12:43:03.431Z</time></trkpt><trkpt lat="43.1143117" lon="13.0923867"><ele>409.0</ele><time>2026-04-12T12:43:04.429Z</time></trkpt><trkpt lat="43.11441" lon="13.092115"><ele>409.0</ele><time>2026-04-12T12:43:05.428Z</time></trkpt><trkpt lat="43.1144867" lon="13.09182"><ele>409.0</ele><time>2026-04-12T12:43:06.429Z</time></trkpt><trkpt lat="43.1145283" lon="13.0915017"><ele>409.0</ele><time>2026-04-12T12:43:07.431Z</time></trkpt><trkpt lat="43.114535" lon="13.0911633"><ele>409.0</ele><time>2026-04-12T12:43:08.437Z</time></trkpt><trkpt lat="43.11451" lon="13.09083"><ele>410.33333333333337</ele><time>2026-04-12T12:43:09.43Z</time></trkpt><trkpt lat="43.1144667" lon="13.0905317"><ele>411.66666666666663</ele><time>2026-04-12T12:43:10.429Z</time></trkpt><trkpt lat="43.1144333" lon="13.0902433"><ele>413.0</ele><time>2026-04-12T12:43:11.431Z</time></trkpt><trkpt lat="43.114435" lon="13.0899767"><ele>412.3333333333333</ele><time>2026-04-12T12:43:12.429Z</time></trkpt><trkpt lat="43.1144833" lon="13.0897467"><ele>411.66666666666663</ele><time>2026-04-12T12:43:13.429Z</time></trkpt><trkpt lat="43.1145567" lon="13.0895517"><ele>411.0</ele><time>2026-04-12T12:43:14.43Z</time></trkpt><trkpt lat="43.1146717" lon="13.0894033"><ele>411.0</ele><time>2026-04-12T12:43:15.431Z</time></trkpt><trkpt lat="43.1148233" lon="13.0892867"><ele>411.0</ele><time>2026-04-12T12:43:16.429Z</time></trkpt><trkpt lat="43.1150067" lon="13.08917"><ele>411.0</ele><time>2026-04-12T12:43:17.433Z</time></trkpt><trkpt lat="43.1151917" lon="13.0890217"><ele>410.33333333333337</ele><time>2026-04-12T12:43:18.434Z</time></trkpt><trkpt lat="43.11536" lon="13.0888333"><ele>409.6666666666667</ele><time>2026-04-12T12:43:19.431Z</time></trkpt><trkpt lat="43.1154967" lon="13.08861"><ele>409.0</ele><time>2026-04-12T12:43:20.43Z</time></trkpt><trkpt lat="43.11561" lon="13.0883517"><ele>411.5</ele><time>2026-04-12T12:43:21.43Z</time></trkpt><trkpt lat="43.11572" lon="13.08807"><ele>414.0</ele><time>2026-04-12T12:43:22.431Z</time></trkpt><trkpt lat="43.1158583" lon="13.08779"><ele>414.5</ele><time>2026-04-12T12:43:23.429Z</time></trkpt><trkpt lat="43.1160217" lon="13.0875183"><ele>415.0</ele><time>2026-04-12T12:43:24.432Z</time></trkpt><trkpt lat="43.1161867" lon="13.087245"><ele>413.5</ele><time>2026-04-12T12:43:25.432Z</time></trkpt><trkpt lat="43.1163417" lon="13.0869783"><ele>412.0</ele><time>2026-04-12T12:43:26.449Z</time></trkpt><trkpt lat="43.1164883" lon="13.08673"><ele>413.0</ele><time>2026-04-12T12:43:27.434Z</time></trkpt><trkpt lat="43.11663" lon="13.0865"><ele>414.0</ele><time>2026-04-12T12:43:28.433Z</time></trkpt><trkpt lat="43.1167633" lon="13.08628"><ele>415.0</ele><time>2026-04-12T12:43:29.432Z</time></trkpt><trkpt lat="43.116895" lon="13.086065"><ele>415.0</ele><time>2026-04-12T12:43:30.436Z</time></trkpt><trkpt lat="43.1170217" lon="13.085855"><ele>415.0</ele><time>2026-04-12T12:43:31.432Z</time></trkpt><trkpt lat="43.11715" lon="13.085645"><ele>415.0</ele><time>2026-04-12T12:43:32.432Z</time></trkpt><trkpt lat="43.11728" lon="13.08543"><ele>416.5</ele><time>2026-04-12T12:43:33.428Z</time></trkpt><trkpt lat="43.1174117" lon="13.08519"><ele>418.0</ele><time>2026-04-12T12:43:34.428Z</time></trkpt><trkpt lat="43.11755" lon="13.08493"><ele>416.0</ele><time>2026-04-12T12:43:35.431Z</time></trkpt><trkpt lat="43.11771" lon="13.08466"><ele>414.0</ele><time>2026-04-12T12:43:36.428Z</time></trkpt><trkpt lat="43.1178783" lon="13.0843883"><ele>414.0</ele><time>2026-04-12T12:43:37.431Z</time></trkpt><trkpt lat="43.1180417" lon="13.084115"><ele>414.0</ele><time>2026-04-12T12:43:38.43Z</time></trkpt><trkpt lat="43.1181983" lon="13.0838467"><ele>416.0</ele><time>2026-04-12T12:43:39.431Z</time></trkpt><trkpt lat="43.118345" lon="13.0835867"><ele>418.0</ele><time>2026-04-12T12:43:40.43Z</time></trkpt><trkpt lat="43.1184917" lon="13.0833467"><ele>416.6666666666667</ele><time>2026-04-12T12:43:41.429Z</time></trkpt><trkpt lat="43.1186433" lon="13.0831383"><ele>415.33333333333337</ele><time>2026-04-12T12:43:42.431Z</time></trkpt><trkpt lat="43.118815" lon="13.082985"><ele>414.0</ele><time>2026-04-12T12:43:43.428Z</time></trkpt><trkpt lat="43.1190217" lon="13.0828817"><ele>415.0</ele><time>2026-04-12T12:43:44.434Z</time></trkpt><trkpt lat="43.1192733" lon="13.0828233"><ele>416.0</ele><time>2026-04-12T12:43:45.431Z</time></trkpt><trkpt lat="43.119535" lon="13.0827767"><ele>416.0</ele><time>2026-04-12T12:43:46.431Z</time></trkpt><trkpt lat="43.1198117" lon="13.0827533"><ele>416.0</ele><time>2026-04-12T12:43:47.429Z</time></trkpt><trkpt lat="43.12009" lon="13.082735"><ele>418.0</ele><time>2026-04-12T12:43:48.432Z</time></trkpt><trkpt lat="43.1203617" lon="13.082715"><ele>420.0</ele><time>2026-04-12T12:43:49.43Z</time></trkpt><trkpt lat="43.120635" lon="13.0826967"><ele>422.0</ele><time>2026-04-12T12:43:50.431Z</time></trkpt><trkpt lat="43.1209067" lon="13.0826817"><ele>424.0</ele><time>2026-04-12T12:43:51.43Z</time></trkpt><trkpt lat="43.1211767" lon="13.082675"><ele>424.0</ele><time>2026-04-12T12:43:52.43Z</time></trkpt><trkpt lat="43.12144" lon="13.0826783"><ele>424.0</ele><time>2026-04-12T12:43:53.428Z</time></trkpt><trkpt lat="43.1217017" lon="13.0826867"><ele>424.5</ele><time>2026-04-12T12:43:54.429Z</time></trkpt><trkpt lat="43.121965" lon="13.0826967"><ele>425.0</ele><time>2026-04-12T12:43:55.431Z</time></trkpt><trkpt lat="43.1222283" lon="13.0827017"><ele>426.5</ele><time>2026-04-12T12:43:56.433Z</time></trkpt><trkpt lat="43.1224933" lon="13.08269"><ele>428.0</ele><time>2026-04-12T12:43:57.43Z</time></trkpt><trkpt lat="43.1227583" lon="13.082655"><ele>428.0</ele><time>2026-04-12T12:43:58.43Z</time></trkpt><trkpt lat="43.1230267" lon="13.0826067"><ele>428.0</ele><time>2026-04-12T12:43:59.43Z</time></trkpt><trkpt lat="43.1233" lon="13.08256"><ele>427.5</ele><time>2026-04-12T12:44:00.429Z</time></trkpt><trkpt lat="43.1235683" lon="13.08251"><ele>427.0</ele><time>2026-04-12T12:44:01.432Z</time></trkpt><trkpt lat="43.1238183" lon="13.0824583"><ele>425.5</ele><time>2026-04-12T12:44:02.434Z</time></trkpt><trkpt lat="43.124055" lon="13.0824083"><ele>424.0</ele><time>2026-04-12T12:44:03.432Z</time></trkpt><trkpt lat="43.1242733" lon="13.0823467"><ele>424.0</ele><time>2026-04-12T12:44:04.434Z</time></trkpt><trkpt lat="43.124475" lon="13.0822433"><ele>424.0</ele><time>2026-04-12T12:44:05.433Z</time></trkpt><trkpt lat="43.1246683" lon="13.0820917"><ele>424.0</ele><time>2026-04-12T12:44:06.436Z</time></trkpt><trkpt lat="43.12485" lon="13.0818933"><ele>423.5</ele><time>2026-04-12T12:44:07.428Z</time></trkpt><trkpt lat="43.1250183" lon="13.0816567"><ele>423.0</ele><time>2026-04-12T12:44:08.431Z</time></trkpt><trkpt lat="43.1251833" lon="13.081405"><ele>423.0</ele><time>2026-04-12T12:44:09.427Z</time></trkpt><trkpt lat="43.125355" lon="13.0811567"><ele>423.0</ele><time>2026-04-12T12:44:10.428Z</time></trkpt><trkpt lat="43.125535" lon="13.080925"><ele>423.0</ele><time>2026-04-12T12:44:11.43Z</time></trkpt><trkpt lat="43.1257133" lon="13.0807117"><ele>423.0</ele><time>2026-04-12T12:44:12.43Z</time></trkpt><trkpt lat="43.1258817" lon="13.0805183"><ele>423.0</ele><time>2026-04-12T12:44:13.431Z</time></trkpt><trkpt lat="43.1260333" lon="13.0803317"><ele>423.0</ele><time>2026-04-12T12:44:14.429Z</time></trkpt><trkpt lat="43.126175" lon="13.0801367"><ele>423.0</ele><time>2026-04-12T12:44:15.43Z</time></trkpt><trkpt lat="43.1263067" lon="13.07993"><ele>423.33333333333337</ele><time>2026-04-12T12:44:16.432Z</time></trkpt><trkpt lat="43.1264183" lon="13.0797083"><ele>423.6666666666667</ele><time>2026-04-12T12:44:17.431Z</time></trkpt><trkpt lat="43.1265033" lon="13.0794533"><ele>424.0</ele><time>2026-04-12T12:44:18.43Z</time></trkpt><trkpt lat="43.1265433" lon="13.079175"><ele>424.33333333333337</ele><time>2026-04-12T12:44:19.43Z</time></trkpt><trkpt lat="43.126535" lon="13.0788867"><ele>424.66666666666663</ele><time>2026-04-12T12:44:20.431Z</time></trkpt><trkpt lat="43.126475" lon="13.0785933"><ele>425.0</ele><time>2026-04-12T12:44:21.431Z</time></trkpt><trkpt lat="43.1263767" lon="13.0783"><ele>427.5</ele><time>2026-04-12T12:44:22.43Z</time></trkpt><trkpt lat="43.1262483" lon="13.078005"><ele>430.0</ele><time>2026-04-12T12:44:23.429Z</time></trkpt><trkpt lat="43.1261133" lon="13.0777"><ele>434.5</ele><time>2026-04-12T12:44:24.431Z</time></trkpt><trkpt lat="43.12598" lon="13.0773883"><ele>439.0</ele><time>2026-04-12T12:44:25.429Z</time></trkpt><trkpt lat="43.125845" lon="13.0770683"><ele>437.0</ele><time>2026-04-12T12:44:26.431Z</time></trkpt><trkpt lat="43.12571" lon="13.0767467"><ele>435.0</ele><time>2026-04-12T12:44:27.429Z</time></trkpt><trkpt lat="43.125575" lon="13.0764217"><ele>435.0</ele><time>2026-04-12T12:44:28.433Z</time></trkpt><trkpt lat="43.125435" lon="13.0760967"><ele>435.0</ele><time>2026-04-12T12:44:29.43Z</time></trkpt><trkpt lat="43.12529" lon="13.0757717"><ele>439.0</ele><time>2026-04-12T12:44:30.431Z</time></trkpt><trkpt lat="43.125145" lon="13.07544"><ele>443.0</ele><time>2026-04-12T12:44:31.429Z</time></trkpt><trkpt lat="43.1250017" lon="13.075105"><ele>442.0</ele><time>2026-04-12T12:44:32.431Z</time></trkpt><trkpt lat="43.1248633" lon="13.0747683"><ele>441.0</ele><time>2026-04-12T12:44:33.434Z</time></trkpt><trkpt lat="43.124725" lon="13.07443"><ele>444.5</ele><time>2026-04-12T12:44:34.431Z</time></trkpt><trkpt lat="43.12459" lon="13.0740917"><ele>448.0</ele><time>2026-04-12T12:44:35.43Z</time></trkpt><trkpt lat="43.1244533" lon="13.0737583"><ele>448.0</ele><time>2026-04-12T12:44:36.43Z</time></trkpt><trkpt lat="43.1243183" lon="13.0734267"><ele>448.0</ele><time>2026-04-12T12:44:37.431Z</time></trkpt><trkpt lat="43.1242033" lon="13.0730933"><ele>451.0</ele><time>2026-04-12T12:44:38.437Z</time></trkpt><trkpt lat="43.1241217" lon="13.0727667"><ele>454.0</ele><time>2026-04-12T12:44:39.432Z</time></trkpt><trkpt lat="43.12406" lon="13.0724567"><ele>452.0</ele><time>2026-04-12T12:44:40.429Z</time></trkpt><trkpt lat="43.12401" lon="13.0721667"><ele>450.0</ele><time>2026-04-12T12:44:41.432Z</time></trkpt><trkpt lat="43.1239683" lon="13.071895"><ele>448.0</ele><time>2026-04-12T12:44:42.433Z</time></trkpt><trkpt lat="43.12393" lon="13.0716367"><ele>450.0</ele><time>2026-04-12T12:44:43.433Z</time></trkpt><trkpt lat="43.1238967" lon="13.071375"><ele>452.0</ele><time>2026-04-12T12:44:44.431Z</time></trkpt><trkpt lat="43.123865" lon="13.0711067"><ele>454.0</ele><time>2026-04-12T12:44:45.434Z</time></trkpt><trkpt lat="43.1238283" lon="13.0708283"><ele>456.0</ele><time>2026-04-12T12:44:46.429Z</time></trkpt><trkpt lat="43.1237917" lon="13.0705433"><ele>458.0</ele><time>2026-04-12T12:44:47.431Z</time></trkpt><trkpt lat="43.1237517" lon="13.070245"><ele>460.0</ele><time>2026-04-12T12:44:48.435Z</time></trkpt><trkpt lat="43.12371" lon="13.069925"><ele>462.0</ele><time>2026-04-12T12:44:49.432Z</time></trkpt><trkpt lat="43.1236717" lon="13.06958"><ele>464.0</ele><time>2026-04-12T12:44:50.43Z</time></trkpt><trkpt lat="43.12364" lon="13.06921"><ele>466.0</ele><time>2026-04-12T12:44:51.432Z</time></trkpt><trkpt lat="43.123615" lon="13.0688517"><ele>468.0</ele><time>2026-04-12T12:44:52.435Z</time></trkpt><trkpt lat="43.1235917" lon="13.0685167"><ele>470.33333333333337</ele><time>2026-04-12T12:44:53.43Z</time></trkpt><trkpt lat="43.12356" lon="13.0682083"><ele>472.6666666666667</ele><time>2026-04-12T12:44:54.43Z</time></trkpt><trkpt lat="43.123505" lon="13.06792"><ele>475.0</ele><time>2026-04-12T12:44:55.43Z</time></trkpt><trkpt lat="43.12341" lon="13.067635"><ele>477.33333333333337</ele><time>2026-04-12T12:44:56.434Z</time></trkpt><trkpt lat="43.123295" lon="13.0673667"><ele>479.66666666666663</ele><time>2026-04-12T12:44:57.43Z</time></trkpt><trkpt lat="43.1231833" lon="13.0671183"><ele>482.0</ele><time>2026-04-12T12:44:58.43Z</time></trkpt><trkpt lat="43.12309" lon="13.06688"><ele>475.66666666666663</ele><time>2026-04-12T12:44:59.432Z</time></trkpt><trkpt lat="43.123035" lon="13.0666517"><ele>469.33333333333337</ele><time>2026-04-12T12:45:00.431Z</time></trkpt><trkpt lat="43.1230333" lon="13.0664167"><ele>463.0</ele><time>2026-04-12T12:45:01.432Z</time></trkpt><trkpt lat="43.1230783" lon="13.06618"><ele>463.0</ele><time>2026-04-12T12:45:02.431Z</time></trkpt><trkpt lat="43.12315" lon="13.0659767"><ele>463.0</ele><time>2026-04-12T12:45:03.43Z</time></trkpt><trkpt lat="43.1232483" lon="13.0658"><ele>463.0</ele><time>2026-04-12T12:45:04.428Z</time></trkpt><trkpt lat="43.1233917" lon="13.065645"><ele>468.0</ele><time>2026-04-12T12:45:05.431Z</time></trkpt><trkpt lat="43.123575" lon="13.065485"><ele>473.0</ele><time>2026-04-12T12:45:06.433Z</time></trkpt><trkpt lat="43.1237783" lon="13.0653217"><ele>473.0</ele><time>2026-04-12T12:45:07.431Z</time></trkpt><trkpt lat="43.123965" lon="13.0651783"><ele>473.0</ele><time>2026-04-12T12:45:08.429Z</time></trkpt><trkpt lat="43.1241517" lon="13.06508"><ele>473.0</ele><time>2026-04-12T12:45:09.429Z</time></trkpt><trkpt lat="43.12433" lon="13.06501"><ele>475.3333333333333</ele><time>2026-04-12T12:45:10.428Z</time></trkpt><trkpt lat="43.1244733" lon="13.0649117"><ele>477.66666666666663</ele><time>2026-04-12T12:45:11.426Z</time></trkpt><trkpt lat="43.124595" lon="13.0647783"><ele>480.0</ele><time>2026-04-12T12:45:12.433Z</time></trkpt><trkpt lat="43.1246783" lon="13.0646033"><ele>480.0</ele><time>2026-04-12T12:45:13.432Z</time></trkpt><trkpt lat="43.124695" lon="13.0644"><ele>480.0</ele><time>2026-04-12T12:45:14.43Z</time></trkpt><trkpt lat="43.12473" lon="13.06422"><ele>480.0</ele><time>2026-04-12T12:45:15.428Z</time></trkpt><trkpt lat="43.1248067" lon="13.0641017"><ele>480.0</ele><time>2026-04-12T12:45:16.427Z</time></trkpt><trkpt lat="43.1249433" lon="13.0640583"><ele>484.0</ele><time>2026-04-12T12:45:17.428Z</time></trkpt><trkpt lat="43.1251183" lon="13.0640533"><ele>488.0</ele><time>2026-04-12T12:45:18.429Z</time></trkpt><trkpt lat="43.12532" lon="13.0640383"><ele>492.0</ele><time>2026-04-12T12:45:19.43Z</time></trkpt><trkpt lat="43.1255133" lon="13.0639867"><ele>492.0</ele><time>2026-04-12T12:45:20.43Z</time></trkpt><trkpt lat="43.1256883" lon="13.0639033"><ele>492.0</ele><time>2026-04-12T12:45:21.428Z</time></trkpt><trkpt lat="43.1258283" lon="13.0637533"><ele>492.0</ele><time>2026-04-12T12:45:22.426Z</time></trkpt><trkpt lat="43.12595" lon="13.06356"><ele>495.66666666666663</ele><time>2026-04-12T12:45:23.428Z</time></trkpt><trkpt lat="43.1260567" lon="13.0633667"><ele>499.3333333333333</ele><time>2026-04-12T12:45:24.432Z</time></trkpt><trkpt lat="43.1261483" lon="13.063165"><ele>503.0</ele><time>2026-04-12T12:45:25.432Z</time></trkpt><trkpt lat="43.1262133" lon="13.0629383"><ele>503.0</ele><time>2026-04-12T12:45:26.432Z</time></trkpt><trkpt lat="43.1262333" lon="13.0626817"><ele>503.0</ele><time>2026-04-12T12:45:27.432Z</time></trkpt><trkpt lat="43.1262133" lon="13.0623933"><ele>503.0</ele><time>2026-04-12T12:45:28.431Z</time></trkpt><trkpt lat="43.1261717" lon="13.0620867"><ele>504.5</ele><time>2026-04-12T12:45:29.433Z</time></trkpt><trkpt lat="43.12613" lon="13.0617533"><ele>506.0</ele><time>2026-04-12T12:45:30.432Z</time></trkpt><trkpt lat="43.1260783" lon="13.0614233"><ele>509.3333333333333</ele><time>2026-04-12T12:45:31.433Z</time></trkpt><trkpt lat="43.1260117" lon="13.0611117"><ele>512.6666666666666</ele><time>2026-04-12T12:45:32.46Z</time></trkpt><trkpt lat="43.1259433" lon="13.0608433"><ele>516.0</ele><time>2026-04-12T12:45:33.432Z</time></trkpt><trkpt lat="43.1258783" lon="13.0606133"><ele>516.0</ele><time>2026-04-12T12:45:34.43Z</time></trkpt><trkpt lat="43.1258483" lon="13.0604017"><ele>516.0</ele><time>2026-04-12T12:45:35.431Z</time></trkpt><trkpt lat="43.1258567" lon="13.0602067"><ele>516.0</ele><time>2026-04-12T12:45:36.431Z</time></trkpt><trkpt lat="43.1259417" lon="13.0600733"><ele>516.0</ele><time>2026-04-12T12:45:37.429Z</time></trkpt><trkpt lat="43.1260483" lon="13.05999"><ele>516.0</ele><time>2026-04-12T12:45:38.43Z</time></trkpt><trkpt lat="43.1262317" lon="13.0600017"><ele>516.0</ele><time>2026-04-12T12:45:39.425Z</time></trkpt><trkpt lat="43.1264317" lon="13.06008"><ele>516.0</ele><time>2026-04-12T12:45:40.429Z</time></trkpt><trkpt lat="43.1266333" lon="13.0601633"><ele>518.6666666666666</ele><time>2026-04-12T12:45:41.433Z</time></trkpt><trkpt lat="43.1268433" lon="13.060245"><ele>521.3333333333333</ele><time>2026-04-12T12:45:42.434Z</time></trkpt><trkpt lat="43.1270617" lon="13.0603317"><ele>524.0</ele><time>2026-04-12T12:45:43.429Z</time></trkpt><trkpt lat="43.1272817" lon="13.060395"><ele>525.3333333333333</ele><time>2026-04-12T12:45:44.432Z</time></trkpt><trkpt lat="43.1274917" lon="13.0604267"><ele>526.6666666666666</ele><time>2026-04-12T12:45:45.433Z</time></trkpt><trkpt lat="43.1276867" lon="13.0604467"><ele>528.0</ele><time>2026-04-12T12:45:46.43Z</time></trkpt><trkpt lat="43.12786" lon="13.0604483"><ele>528.0</ele><time>2026-04-12T12:45:47.43Z</time></trkpt><trkpt lat="43.1280167" lon="13.060435"><ele>528.0</ele><time>2026-04-12T12:45:48.432Z</time></trkpt><trkpt lat="43.1281617" lon="13.0603967"><ele>528.0</ele><time>2026-04-12T12:45:49.432Z</time></trkpt><trkpt lat="43.1282933" lon="13.0603117"><ele>528.75</ele><time>2026-04-12T12:45:50.432Z</time></trkpt><trkpt lat="43.1284" lon="13.0601933"><ele>529.5</ele><time>2026-04-12T12:45:51.43Z</time></trkpt><trkpt lat="43.128485" lon="13.06007"><ele>530.25</ele><time>2026-04-12T12:45:52.429Z</time></trkpt><trkpt lat="43.1285467" lon="13.0599417"><ele>531.0</ele><time>2026-04-12T12:45:53.432Z</time></trkpt><trkpt lat="43.1285967" lon="13.0598233"><ele>531.0</ele><time>2026-04-12T12:45:54.431Z</time></trkpt><trkpt lat="43.1286383" lon="13.0597233"><ele>531.0</ele><time>2026-04-12T12:45:55.43Z</time></trkpt><trkpt lat="43.12869" lon="13.0596383"><ele>531.0</ele><time>2026-04-12T12:45:56.431Z</time></trkpt><trkpt lat="43.1287517" lon="13.0595817"><ele>531.0</ele><time>2026-04-12T12:45:57.43Z</time></trkpt><trkpt lat="43.1288283" lon="13.0595433"><ele>531.0</ele><time>2026-04-12T12:45:58.429Z</time></trkpt><trkpt lat="43.1289317" lon="13.0595367"><ele>531.0</ele><time>2026-04-12T12:45:59.432Z</time></trkpt><trkpt lat="43.12906" lon="13.0595367"><ele>533.6666666666666</ele><time>2026-04-12T12:46:00.43Z</time></trkpt><trkpt lat="43.1292083" lon="13.0595317"><ele>536.3333333333333</ele><time>2026-04-12T12:46:01.43Z</time></trkpt><trkpt lat="43.129375" lon="13.0595133"><ele>539.0</ele><time>2026-04-12T12:46:02.431Z</time></trkpt><trkpt lat="43.1295517" lon="13.0594733"><ele>539.0</ele><time>2026-04-12T12:46:03.43Z</time></trkpt><trkpt lat="43.1297383" lon="13.0594017"><ele>539.0</ele><time>2026-04-12T12:46:04.429Z</time></trkpt><trkpt lat="43.12992" lon="13.0593267"><ele>539.0</ele><time>2026-04-12T12:46:05.432Z</time></trkpt><trkpt lat="43.1300917" lon="13.0592633"><ele>542.0</ele><time>2026-04-12T12:46:06.43Z</time></trkpt><trkpt lat="43.1302567" lon="13.0592233"><ele>545.0</ele><time>2026-04-12T12:46:07.434Z</time></trkpt><trkpt lat="43.1304267" lon="13.0592167"><ele>548.0</ele><time>2026-04-12T12:46:08.439Z</time></trkpt><trkpt lat="43.1305967" lon="13.059255"><ele>549.3333333333333</ele><time>2026-04-12T12:46:09.433Z</time></trkpt><trkpt lat="43.1307567" lon="13.0593"><ele>550.6666666666666</ele><time>2026-04-12T12:46:10.429Z</time></trkpt><trkpt lat="43.1309083" lon="13.0593483"><ele>552.0</ele><time>2026-04-12T12:46:11.427Z</time></trkpt><trkpt lat="43.13105" lon="13.059395"><ele>552.0</ele><time>2026-04-12T12:46:12.431Z</time></trkpt><trkpt lat="43.1311867" lon="13.0594367"><ele>552.0</ele><time>2026-04-12T12:46:13.427Z</time></trkpt><trkpt lat="43.1313217" lon="13.059465"><ele>552.0</ele><time>2026-04-12T12:46:14.434Z</time></trkpt><trkpt lat="43.1314533" lon="13.05948"><ele>552.0</ele><time>2026-04-12T12:46:15.43Z</time></trkpt><trkpt lat="43.1315867" lon="13.05949"><ele>554.0</ele><time>2026-04-12T12:46:16.431Z</time></trkpt><trkpt lat="43.1317217" lon="13.059495"><ele>556.0</ele><time>2026-04-12T12:46:17.429Z</time></trkpt><trkpt lat="43.1318567" lon="13.0594967"><ele>558.0</ele><time>2026-04-12T12:46:18.429Z</time></trkpt><trkpt lat="43.1319867" lon="13.059495"><ele>560.0</ele><time>2026-04-12T12:46:19.433Z</time></trkpt><trkpt lat="43.1321133" lon="13.0595017"><ele>560.0</ele><time>2026-04-12T12:46:20.433Z</time></trkpt><trkpt lat="43.1322383" lon="13.0595267"><ele>560.0</ele><time>2026-04-12T12:46:21.433Z</time></trkpt><trkpt lat="43.1323633" lon="13.05957"><ele>560.0</ele><time>2026-04-12T12:46:22.433Z</time></trkpt><trkpt lat="43.1324917" lon="13.0596317"><ele>560.0</ele><time>2026-04-12T12:46:23.429Z</time></trkpt><trkpt lat="43.1326233" lon="13.05971"><ele>559.0</ele><time>2026-04-12T12:46:24.433Z</time></trkpt><trkpt lat="43.13276" lon="13.0597983"><ele>558.0</ele><time>2026-04-12T12:46:25.431Z</time></trkpt><trkpt lat="43.1328967" lon="13.0598983"><ele>557.0</ele><time>2026-04-12T12:46:26.43Z</time></trkpt><trkpt lat="43.13303" lon="13.06001"><ele>558.0</ele><time>2026-04-12T12:46:27.43Z</time></trkpt><trkpt lat="43.1331633" lon="13.06013"><ele>559.0</ele><time>2026-04-12T12:46:28.43Z</time></trkpt><trkpt lat="43.133295" lon="13.0602517"><ele>560.0</ele><time>2026-04-12T12:46:29.429Z</time></trkpt><trkpt lat="43.133435" lon="13.0603667"><ele>560.0</ele><time>2026-04-12T12:46:30.431Z</time></trkpt><trkpt lat="43.1335767" lon="13.06047"><ele>560.0</ele><time>2026-04-12T12:46:31.43Z</time></trkpt><trkpt lat="43.1337317" lon="13.060545"><ele>560.0</ele><time>2026-04-12T12:46:32.432Z</time></trkpt><trkpt lat="43.1338933" lon="13.0605983"><ele>556.3333333333333</ele><time>2026-04-12T12:46:33.431Z</time></trkpt><trkpt lat="43.13406" lon="13.06063"><ele>552.6666666666666</ele><time>2026-04-12T12:46:34.43Z</time></trkpt><trkpt lat="43.1342317" lon="13.06065"><ele>549.0</ele><time>2026-04-12T12:46:35.43Z</time></trkpt><trkpt lat="43.134405" lon="13.0606633"><ele>549.0</ele><time>2026-04-12T12:46:36.431Z</time></trkpt><trkpt lat="43.134585" lon="13.0606683"><ele>549.0</ele><time>2026-04-12T12:46:37.432Z</time></trkpt><trkpt lat="43.1347633" lon="13.06068"><ele>549.0</ele><time>2026-04-12T12:46:38.434Z</time></trkpt><trkpt lat="43.1349433" lon="13.060685"><ele>547.3333333333334</ele><time>2026-04-12T12:46:39.431Z</time></trkpt><trkpt lat="43.1351217" lon="13.060675"><ele>545.6666666666667</ele><time>2026-04-12T12:46:40.431Z</time></trkpt><trkpt lat="43.1353017" lon="13.06067"><ele>544.0</ele><time>2026-04-12T12:46:41.433Z</time></trkpt><trkpt lat="43.1354833" lon="13.0606717"><ele>544.0</ele><time>2026-04-12T12:46:42.428Z</time></trkpt><trkpt lat="43.135665" lon="13.060675"><ele>544.0</ele><time>2026-04-12T12:46:43.431Z</time></trkpt><trkpt lat="43.13585" lon="13.060675"><ele>544.0</ele><time>2026-04-12T12:46:44.463Z</time></trkpt><trkpt lat="43.136035" lon="13.0606767"><ele>543.6666666666667</ele><time>2026-04-12T12:46:45.431Z</time></trkpt><trkpt lat="43.1362183" lon="13.0606883"><ele>543.3333333333334</ele><time>2026-04-12T12:46:46.431Z</time></trkpt><trkpt lat="43.1364" lon="13.0607117"><ele>543.0</ele><time>2026-04-12T12:46:47.433Z</time></trkpt><trkpt lat="43.1365783" lon="13.0607483"><ele>545.6666666666666</ele><time>2026-04-12T12:46:48.431Z</time></trkpt><trkpt lat="43.1367583" lon="13.060795"><ele>548.3333333333333</ele><time>2026-04-12T12:46:49.431Z</time></trkpt><trkpt lat="43.1369383" lon="13.0608483"><ele>551.0</ele><time>2026-04-12T12:46:50.431Z</time></trkpt><trkpt lat="43.137115" lon="13.060905"><ele>551.0</ele><time>2026-04-12T12:46:51.432Z</time></trkpt><trkpt lat="43.1372883" lon="13.0609617"><ele>551.0</ele><time>2026-04-12T12:46:52.435Z</time></trkpt><trkpt lat="43.1374517" lon="13.0610217"><ele>551.0</ele><time>2026-04-12T12:46:53.43Z</time></trkpt><trkpt lat="43.1376033" lon="13.0610983"><ele>548.6666666666666</ele><time>2026-04-12T12:46:54.429Z</time></trkpt><trkpt lat="43.1377367" lon="13.0612083"><ele>546.3333333333334</ele><time>2026-04-12T12:46:55.429Z</time></trkpt><trkpt lat="43.13786" lon="13.06135"><ele>544.0</ele><time>2026-04-12T12:46:56.43Z</time></trkpt><trkpt lat="43.13798" lon="13.0615167"><ele>543.0</ele><time>2026-04-12T12:46:57.433Z</time></trkpt><trkpt lat="43.1381017" lon="13.061695"><ele>542.0</ele><time>2026-04-12T12:46:58.43Z</time></trkpt><trkpt lat="43.1382267" lon="13.0618833"><ele>541.0</ele><time>2026-04-12T12:46:59.432Z</time></trkpt><trkpt lat="43.1383567" lon="13.0620733"><ele>541.0</ele><time>2026-04-12T12:47:00.434Z</time></trkpt><trkpt lat="43.1384883" lon="13.0622583"><ele>541.0</ele><time>2026-04-12T12:47:01.432Z</time></trkpt><trkpt lat="43.138615" lon="13.062445"><ele>541.0</ele><time>2026-04-12T12:47:02.456Z</time></trkpt><trkpt lat="43.13874" lon="13.06263"><ele>542.3333333333334</ele><time>2026-04-12T12:47:03.432Z</time></trkpt><trkpt lat="43.1388667" lon="13.0628133"><ele>543.6666666666666</ele><time>2026-04-12T12:47:04.43Z</time></trkpt><trkpt lat="43.1389933" lon="13.062995"><ele>545.0</ele><time>2026-04-12T12:47:05.432Z</time></trkpt><trkpt lat="43.1391183" lon="13.063175"><ele>543.6666666666666</ele><time>2026-04-12T12:47:06.43Z</time></trkpt><trkpt lat="43.1392433" lon="13.0633533"><ele>542.3333333333334</ele><time>2026-04-12T12:47:07.43Z</time></trkpt><trkpt lat="43.139365" lon="13.0635333"><ele>541.0</ele><time>2026-04-12T12:47:08.432Z</time></trkpt><trkpt lat="43.13948" lon="13.0637217"><ele>541.0</ele><time>2026-04-12T12:47:09.428Z</time></trkpt><trkpt lat="43.1395733" lon="13.0639217"><ele>541.0</ele><time>2026-04-12T12:47:10.43Z</time></trkpt><trkpt lat="43.139645" lon="13.0641317"><ele>541.0</ele><time>2026-04-12T12:47:11.43Z</time></trkpt><trkpt lat="43.139705" lon="13.0643383"><ele>540.3333333333334</ele><time>2026-04-12T12:47:12.428Z</time></trkpt><trkpt lat="43.13976" lon="13.0645383"><ele>539.6666666666666</ele><time>2026-04-12T12:47:13.432Z</time></trkpt><trkpt lat="43.13982" lon="13.0647283"><ele>539.0</ele><time>2026-04-12T12:47:14.432Z</time></trkpt><trkpt lat="43.1398917" lon="13.0649117"><ele>540.0</ele><time>2026-04-12T12:47:15.428Z</time></trkpt><trkpt lat="43.1399767" lon="13.0650833"><ele>541.0</ele><time>2026-04-12T12:47:16.429Z</time></trkpt><trkpt lat="43.140085" lon="13.0652383"><ele>542.0</ele><time>2026-04-12T12:47:17.43Z</time></trkpt><trkpt lat="43.1402017" lon="13.06539"><ele>542.0</ele><time>2026-04-12T12:47:18.43Z</time></trkpt><trkpt lat="43.140325" lon="13.0655433"><ele>542.0</ele><time>2026-04-12T12:47:19.431Z</time></trkpt><trkpt lat="43.1404517" lon="13.065705"><ele>542.0</ele><time>2026-04-12T12:47:20.431Z</time></trkpt><trkpt lat="43.1405817" lon="13.0658683"><ele>540.6666666666666</ele><time>2026-04-12T12:47:21.429Z</time></trkpt><trkpt lat="43.1407067" lon="13.066035"><ele>539.3333333333334</ele><time>2026-04-12T12:47:22.43Z</time></trkpt><trkpt lat="43.14083" lon="13.0662033"><ele>538.0</ele><time>2026-04-12T12:47:23.43Z</time></trkpt><trkpt lat="43.1409483" lon="13.066375"><ele>538.0</ele><time>2026-04-12T12:47:24.429Z</time></trkpt><trkpt lat="43.14107" lon="13.0665433"><ele>538.0</ele><time>2026-04-12T12:47:25.431Z</time></trkpt><trkpt lat="43.141195" lon="13.0667117"><ele>538.0</ele><time>2026-04-12T12:47:26.431Z</time></trkpt><trkpt lat="43.14132" lon="13.06688"><ele>537.3333333333334</ele><time>2026-04-12T12:47:27.43Z</time></trkpt><trkpt lat="43.141445" lon="13.0670467"><ele>536.6666666666666</ele><time>2026-04-12T12:47:28.434Z</time></trkpt><trkpt lat="43.1415683" lon="13.067215"><ele>536.0</ele><time>2026-04-12T12:47:29.429Z</time></trkpt><trkpt lat="43.1416933" lon="13.0673833"><ele>537.6666666666666</ele><time>2026-04-12T12:47:30.433Z</time></trkpt><trkpt lat="43.1418167" lon="13.0675433"><ele>539.3333333333334</ele><time>2026-04-12T12:47:31.429Z</time></trkpt><trkpt lat="43.1419383" lon="13.0677017"><ele>541.0</ele><time>2026-04-12T12:47:32.428Z</time></trkpt><trkpt lat="43.14206" lon="13.0678583"><ele>541.0</ele><time>2026-04-12T12:47:33.431Z</time></trkpt><trkpt lat="43.1421783" lon="13.0680117"><ele>541.0</ele><time>2026-04-12T12:47:34.427Z</time></trkpt><trkpt lat="43.14228" lon="13.068155"><ele>541.0</ele><time>2026-04-12T12:47:35.43Z</time></trkpt><trkpt lat="43.1424383" lon="13.0682067"><ele>539.8</ele><time>2026-04-12T12:47:36.437Z</time></trkpt><trkpt lat="43.14253" lon="13.06832"><ele>538.6</ele><time>2026-04-12T12:47:37.429Z</time></trkpt><trkpt lat="43.1426083" lon="13.0684133"><ele>537.4</ele><time>2026-04-12T12:47:38.429Z</time></trkpt><trkpt lat="43.1426967" lon="13.06847"><ele>536.2</ele><time>2026-04-12T12:47:39.428Z</time></trkpt><trkpt lat="43.1428017" lon="13.0684983"><ele>535.0</ele><time>2026-04-12T12:47:40.427Z</time></trkpt><trkpt lat="43.1428967" lon="13.0685167"><ele>535.0</ele><time>2026-04-12T12:47:41.428Z</time></trkpt><trkpt lat="43.1429767" lon="13.0685383"><ele>535.0</ele><time>2026-04-12T12:47:42.425Z</time></trkpt><trkpt lat="43.1430833" lon="13.0686133"><ele>535.0</ele><time>2026-04-12T12:47:44.429Z</time></trkpt><trkpt lat="43.143175" lon="13.0687283"><ele>535.0</ele><time>2026-04-12T12:47:46.429Z</time></trkpt><trkpt lat="43.1432117" lon="13.06881"><ele>535.0</ele><time>2026-04-12T12:47:47.431Z</time></trkpt><trkpt lat="43.14323" lon="13.0689067"><ele>535.75</ele><time>2026-04-12T12:47:48.431Z</time></trkpt><trkpt lat="43.1432333" lon="13.0690233"><ele>536.5</ele><time>2026-04-12T12:47:49.429Z</time></trkpt><trkpt lat="43.1432267" lon="13.0691717"><ele>537.25</ele><time>2026-04-12T12:47:50.433Z</time></trkpt><trkpt lat="43.14322" lon="13.0693533"><ele>538.0</ele><time>2026-04-12T12:47:51.431Z</time></trkpt><trkpt lat="43.1432067" lon="13.0695467"><ele>538.0</ele><time>2026-04-12T12:47:52.431Z</time></trkpt><trkpt lat="43.1431883" lon="13.0697467"><ele>538.0</ele><time>2026-04-12T12:47:53.43Z</time></trkpt><trkpt lat="43.143175" lon="13.0699467"><ele>538.0</ele><time>2026-04-12T12:47:54.431Z</time></trkpt><trkpt lat="43.1431617" lon="13.0701617"><ele>539.6666666666667</ele><time>2026-04-12T12:47:55.43Z</time></trkpt><trkpt lat="43.1431567" lon="13.0703883"><ele>541.3333333333334</ele><time>2026-04-12T12:47:56.43Z</time></trkpt><trkpt lat="43.1431617" lon="13.07062"><ele>543.0</ele><time>2026-04-12T12:47:57.431Z</time></trkpt><trkpt lat="43.1431817" lon="13.070855"><ele>539.3333333333334</ele><time>2026-04-12T12:47:58.43Z</time></trkpt><trkpt lat="43.1432167" lon="13.071095"><ele>535.6666666666667</ele><time>2026-04-12T12:47:59.429Z</time></trkpt><trkpt lat="43.1432583" lon="13.07134"><ele>532.0</ele><time>2026-04-12T12:48:00.43Z</time></trkpt><trkpt lat="43.143295" lon="13.0715883"><ele>532.6666666666667</ele><time>2026-04-12T12:48:01.439Z</time></trkpt><trkpt lat="43.1433183" lon="13.0718417"><ele>533.3333333333334</ele><time>2026-04-12T12:48:02.431Z</time></trkpt><trkpt lat="43.1433333" lon="13.0720983"><ele>534.0</ele><time>2026-04-12T12:48:03.431Z</time></trkpt><trkpt lat="43.1433417" lon="13.0723533"><ele>535.3333333333334</ele><time>2026-04-12T12:48:04.429Z</time></trkpt><trkpt lat="43.14335" lon="13.07261"><ele>536.6666666666667</ele><time>2026-04-12T12:48:05.431Z</time></trkpt><trkpt lat="43.14337" lon="13.0728667"><ele>538.0</ele><time>2026-04-12T12:48:06.428Z</time></trkpt><trkpt lat="43.1433967" lon="13.0731267"><ele>540.6666666666667</ele><time>2026-04-12T12:48:07.43Z</time></trkpt><trkpt lat="43.14343" lon="13.0733867"><ele>543.3333333333334</ele><time>2026-04-12T12:48:08.43Z</time></trkpt><trkpt lat="43.1434667" lon="13.0736417"><ele>546.0</ele><time>2026-04-12T12:48:09.431Z</time></trkpt><trkpt lat="43.1434933" lon="13.0738817"><ele>547.3333333333334</ele><time>2026-04-12T12:48:10.429Z</time></trkpt><trkpt lat="43.1434817" lon="13.07411"><ele>548.6666666666667</ele><time>2026-04-12T12:48:11.431Z</time></trkpt><trkpt lat="43.1434333" lon="13.0743233"><ele>550.0</ele><time>2026-04-12T12:48:12.427Z</time></trkpt><trkpt lat="43.14337" lon="13.074545"><ele>550.0</ele><time>2026-04-12T12:48:13.427Z</time></trkpt><trkpt lat="43.1433017" lon="13.0747767"><ele>550.0</ele><time>2026-04-12T12:48:14.429Z</time></trkpt><trkpt lat="43.1432367" lon="13.075025"><ele>550.0</ele><time>2026-04-12T12:48:15.43Z</time></trkpt><trkpt lat="43.14318" lon="13.075285"><ele>554.6666666666667</ele><time>2026-04-12T12:48:16.43Z</time></trkpt><trkpt lat="43.1431333" lon="13.0755533"><ele>559.3333333333334</ele><time>2026-04-12T12:48:17.43Z</time></trkpt><trkpt lat="43.143105" lon="13.0758283"><ele>564.0</ele><time>2026-04-12T12:48:18.43Z</time></trkpt><trkpt lat="43.143085" lon="13.0760933"><ele>564.0</ele><time>2026-04-12T12:48:19.43Z</time></trkpt><trkpt lat="43.1430667" lon="13.07634"><ele>564.0</ele><time>2026-04-12T12:48:20.431Z</time></trkpt><trkpt lat="43.1430517" lon="13.076565"><ele>564.0</ele><time>2026-04-12T12:48:21.43Z</time></trkpt><trkpt lat="43.14304" lon="13.0767733"><ele>564.5</ele><time>2026-04-12T12:48:22.432Z</time></trkpt><trkpt lat="43.1430283" lon="13.076975"><ele>565.0</ele><time>2026-04-12T12:48:23.431Z</time></trkpt><trkpt lat="43.143015" lon="13.0771733"><ele>565.5</ele><time>2026-04-12T12:48:24.431Z</time></trkpt><trkpt lat="43.1429967" lon="13.0773567"><ele>566.0</ele><time>2026-04-12T12:48:25.43Z</time></trkpt><trkpt lat="43.1429617" lon="13.0775183"><ele>566.5</ele><time>2026-04-12T12:48:26.432Z</time></trkpt><trkpt lat="43.1429017" lon="13.0776467"><ele>567.0</ele><time>2026-04-12T12:48:27.431Z</time></trkpt><trkpt lat="43.1428267" lon="13.0777317"><ele>567.5</ele><time>2026-04-12T12:48:28.433Z</time></trkpt><trkpt lat="43.1427483" lon="13.077765"><ele>568.0</ele><time>2026-04-12T12:48:29.428Z</time></trkpt><trkpt lat="43.1426683" lon="13.0777817"><ele>568.5</ele><time>2026-04-12T12:48:30.429Z</time></trkpt><trkpt lat="43.1426033" lon="13.077785"><ele>569.0</ele><time>2026-04-12T12:48:31.428Z</time></trkpt><trkpt lat="43.1425083" lon="13.0778267"><ele>569.0</ele><time>2026-04-12T12:48:33.429Z</time></trkpt><trkpt lat="43.1424633" lon="13.0779417"><ele>569.0</ele><time>2026-04-12T12:48:35.43Z</time></trkpt><trkpt lat="43.14248" lon="13.0781"><ele>569.0</ele><time>2026-04-12T12:48:37.429Z</time></trkpt><trkpt lat="43.1425" lon="13.0782117"><ele>569.0</ele><time>2026-04-12T12:48:38.431Z</time></trkpt><trkpt lat="43.1425417" lon="13.07835"><ele>569.0</ele><time>2026-04-12T12:48:39.437Z</time></trkpt><trkpt lat="43.1426117" lon="13.0785167"><ele>569.25</ele><time>2026-04-12T12:48:40.429Z</time></trkpt><trkpt lat="43.1426683" lon="13.0786883"><ele>569.5</ele><time>2026-04-12T12:48:41.431Z</time></trkpt><trkpt lat="43.1427167" lon="13.0788633"><ele>569.75</ele><time>2026-04-12T12:48:42.428Z</time></trkpt><trkpt lat="43.1427667" lon="13.0790483"><ele>570.0</ele><time>2026-04-12T12:48:43.43Z</time></trkpt><trkpt lat="43.14282" lon="13.07924"><ele>569.3333333333334</ele><time>2026-04-12T12:48:44.434Z</time></trkpt><trkpt lat="43.142875" lon="13.07944"><ele>568.6666666666667</ele><time>2026-04-12T12:48:45.429Z</time></trkpt><trkpt lat="43.142925" lon="13.079645"><ele>568.0</ele><time>2026-04-12T12:48:46.43Z</time></trkpt><trkpt lat="43.14297" lon="13.0798533"><ele>567.6666666666667</ele><time>2026-04-12T12:48:47.429Z</time></trkpt><trkpt lat="43.1430217" lon="13.080055"><ele>567.3333333333334</ele><time>2026-04-12T12:48:48.43Z</time></trkpt><trkpt lat="43.1430567" lon="13.0802567"><ele>567.0</ele><time>2026-04-12T12:48:49.431Z</time></trkpt><trkpt lat="43.1431017" lon="13.08046"><ele>567.0</ele><time>2026-04-12T12:48:50.455Z</time></trkpt><trkpt lat="43.1431433" lon="13.0806717"><ele>567.0</ele><time>2026-04-12T12:48:51.431Z</time></trkpt><trkpt lat="43.1431967" lon="13.0808817"><ele>567.0</ele><time>2026-04-12T12:48:52.428Z</time></trkpt><trkpt lat="43.1432417" lon="13.0810967"><ele>569.3333333333334</ele><time>2026-04-12T12:48:53.432Z</time></trkpt><trkpt lat="43.1432833" lon="13.08131"><ele>571.6666666666667</ele><time>2026-04-12T12:48:54.431Z</time></trkpt><trkpt lat="43.1433333" lon="13.08151"><ele>574.0</ele><time>2026-04-12T12:48:55.43Z</time></trkpt><trkpt lat="43.1433867" lon="13.0817033"><ele>574.75</ele><time>2026-04-12T12:48:56.431Z</time></trkpt><trkpt lat="43.1434467" lon="13.08188"><ele>575.5</ele><time>2026-04-12T12:48:57.431Z</time></trkpt><trkpt lat="43.14353" lon="13.0820267"><ele>576.25</ele><time>2026-04-12T12:48:58.431Z</time></trkpt><trkpt lat="43.1436233" lon="13.08216"><ele>577.0</ele><time>2026-04-12T12:48:59.431Z</time></trkpt><trkpt lat="43.143735" lon="13.0822817"><ele>577.0</ele><time>2026-04-12T12:49:00.428Z</time></trkpt><trkpt lat="43.1438483" lon="13.082405"><ele>577.0</ele><time>2026-04-12T12:49:01.431Z</time></trkpt><trkpt lat="43.143965" lon="13.0825367"><ele>577.0</ele><time>2026-04-12T12:49:02.432Z</time></trkpt><trkpt lat="43.1440817" lon="13.0826783"><ele>577.6666666666667</ele><time>2026-04-12T12:49:03.431Z</time></trkpt><trkpt lat="43.1442017" lon="13.08282"><ele>578.3333333333334</ele><time>2026-04-12T12:49:04.433Z</time></trkpt><trkpt lat="43.1443217" lon="13.0829633"><ele>579.0</ele><time>2026-04-12T12:49:05.431Z</time></trkpt><trkpt lat="43.14443" lon="13.083115"><ele>580.25</ele><time>2026-04-12T12:49:06.431Z</time></trkpt><trkpt lat="43.1445133" lon="13.0832733"><ele>581.5</ele><time>2026-04-12T12:49:07.43Z</time></trkpt><trkpt lat="43.1445633" lon="13.0834533"><ele>582.75</ele><time>2026-04-12T12:49:08.433Z</time></trkpt><trkpt lat="43.144575" lon="13.083625"><ele>584.0</ele><time>2026-04-12T12:49:09.429Z</time></trkpt><trkpt lat="43.1445533" lon="13.0837983"><ele>584.0</ele><time>2026-04-12T12:49:10.43Z</time></trkpt><trkpt lat="43.1445133" lon="13.0839833"><ele>584.0</ele><time>2026-04-12T12:49:11.431Z</time></trkpt><trkpt lat="43.1444433" lon="13.08418"><ele>584.0</ele><time>2026-04-12T12:49:12.431Z</time></trkpt><trkpt lat="43.1443583" lon="13.0843883"><ele>583.3333333333333</ele><time>2026-04-12T12:49:13.432Z</time></trkpt><trkpt lat="43.1442733" lon="13.0846167"><ele>582.6666666666666</ele><time>2026-04-12T12:49:14.431Z</time></trkpt><trkpt lat="43.14419" lon="13.0848517"><ele>582.0</ele><time>2026-04-12T12:49:15.431Z</time></trkpt><trkpt lat="43.1441167" lon="13.0850733"><ele>584.0</ele><time>2026-04-12T12:49:16.43Z</time></trkpt><trkpt lat="43.1440417" lon="13.0852917"><ele>586.0</ele><time>2026-04-12T12:49:17.432Z</time></trkpt><trkpt lat="43.1439733" lon="13.0854967"><ele>588.0</ele><time>2026-04-12T12:49:18.432Z</time></trkpt><trkpt lat="43.1439117" lon="13.0856917"><ele>584.75</ele><time>2026-04-12T12:49:19.432Z</time></trkpt><trkpt lat="43.1438717" lon="13.0858817"><ele>581.5</ele><time>2026-04-12T12:49:20.43Z</time></trkpt><trkpt lat="43.1438633" lon="13.0860683"><ele>578.25</ele><time>2026-04-12T12:49:21.428Z</time></trkpt><trkpt lat="43.1438917" lon="13.086245"><ele>575.0</ele><time>2026-04-12T12:49:22.43Z</time></trkpt><trkpt lat="43.1439417" lon="13.0864033"><ele>575.0</ele><time>2026-04-12T12:49:23.43Z</time></trkpt><trkpt lat="43.143995" lon="13.0865517"><ele>575.0</ele><time>2026-04-12T12:49:24.435Z</time></trkpt><trkpt lat="43.1440533" lon="13.0866917"><ele>575.0</ele><time>2026-04-12T12:49:25.429Z</time></trkpt><trkpt lat="43.1441133" lon="13.0868133"><ele>575.0</ele><time>2026-04-12T12:49:26.429Z</time></trkpt><trkpt lat="43.1441567" lon="13.0869283"><ele>575.0</ele><time>2026-04-12T12:49:27.429Z</time></trkpt><trkpt lat="43.144215" lon="13.0870333"><ele>572.4</ele><time>2026-04-12T12:49:28.432Z</time></trkpt><trkpt lat="43.1442667" lon="13.0871333"><ele>569.8</ele><time>2026-04-12T12:49:29.429Z</time></trkpt><trkpt lat="43.1443067" lon="13.08722"><ele>567.2</ele><time>2026-04-12T12:49:30.428Z</time></trkpt><trkpt lat="43.144345" lon="13.087295"><ele>564.6</ele><time>2026-04-12T12:49:31.432Z</time></trkpt><trkpt lat="43.1444217" lon="13.087415"><ele>562.0</ele><time>2026-04-12T12:49:33.431Z</time></trkpt><trkpt lat="43.1444983" lon="13.0875167"><ele>561.6</ele><time>2026-04-12T12:49:35.429Z</time></trkpt><trkpt lat="43.14455" lon="13.08757"><ele>561.2</ele><time>2026-04-12T12:49:36.43Z</time></trkpt><trkpt lat="43.1446067" lon="13.08764"><ele>560.8</ele><time>2026-04-12T12:49:37.43Z</time></trkpt><trkpt lat="43.1446733" lon="13.0877233"><ele>560.4</ele><time>2026-04-12T12:49:38.427Z</time></trkpt><trkpt lat="43.1447483" lon="13.0878233"><ele>560.0</ele><time>2026-04-12T12:49:39.427Z</time></trkpt><trkpt lat="43.144835" lon="13.0879333"><ele>560.75</ele><time>2026-04-12T12:49:40.427Z</time></trkpt><trkpt lat="43.144925" lon="13.08805"><ele>561.5</ele><time>2026-04-12T12:49:41.432Z</time></trkpt><trkpt lat="43.145025" lon="13.0881883"><ele>562.25</ele><time>2026-04-12T12:49:42.43Z</time></trkpt><trkpt lat="43.1451417" lon="13.0883467"><ele>563.0</ele><time>2026-04-12T12:49:43.428Z</time></trkpt><trkpt lat="43.1452617" lon="13.0885083"><ele>564.0</ele><time>2026-04-12T12:49:44.43Z</time></trkpt><trkpt lat="43.1453867" lon="13.0886783"><ele>565.0</ele><time>2026-04-12T12:49:45.429Z</time></trkpt><trkpt lat="43.1455083" lon="13.0888483"><ele>566.0</ele><time>2026-04-12T12:49:46.427Z</time></trkpt><trkpt lat="43.1456217" lon="13.0890317"><ele>570.3333333333333</ele><time>2026-04-12T12:49:47.43Z</time></trkpt><trkpt lat="43.1457283" lon="13.0892383"><ele>574.6666666666666</ele><time>2026-04-12T12:49:48.431Z</time></trkpt><trkpt lat="43.145825" lon="13.08947"><ele>579.0</ele><time>2026-04-12T12:49:49.432Z</time></trkpt><trkpt lat="43.1459183" lon="13.08972"><ele>579.6666666666666</ele><time>2026-04-12T12:49:50.434Z</time></trkpt><trkpt lat="43.1460083" lon="13.0899733"><ele>580.3333333333333</ele><time>2026-04-12T12:49:51.434Z</time></trkpt><trkpt lat="43.1460917" lon="13.090215"><ele>581.0</ele><time>2026-04-12T12:49:52.428Z</time></trkpt><trkpt lat="43.1461683" lon="13.0904383"><ele>581.0</ele><time>2026-04-12T12:49:53.436Z</time></trkpt><trkpt lat="43.146235" lon="13.0906383"><ele>581.0</ele><time>2026-04-12T12:49:54.428Z</time></trkpt><trkpt lat="43.14631" lon="13.09082"><ele>581.0</ele><time>2026-04-12T12:49:55.432Z</time></trkpt><trkpt lat="43.1464" lon="13.0910017"><ele>580.6666666666666</ele><time>2026-04-12T12:49:56.431Z</time></trkpt><trkpt lat="43.1465183" lon="13.0911667"><ele>580.3333333333334</ele><time>2026-04-12T12:49:57.432Z</time></trkpt><trkpt lat="43.146655" lon="13.0913167"><ele>580.0</ele><time>2026-04-12T12:49:58.428Z</time></trkpt><trkpt lat="43.14681" lon="13.0914783"><ele>585.3333333333334</ele><time>2026-04-12T12:49:59.428Z</time></trkpt><trkpt lat="43.146975" lon="13.09165"><ele>590.6666666666666</ele><time>2026-04-12T12:50:00.431Z</time></trkpt><trkpt lat="43.1471417" lon="13.0918267"><ele>596.0</ele><time>2026-04-12T12:50:01.43Z</time></trkpt><trkpt lat="43.1473217" lon="13.0919983"><ele>594.6666666666666</ele><time>2026-04-12T12:50:02.451Z</time></trkpt><trkpt lat="43.1474967" lon="13.09218"><ele>593.3333333333334</ele><time>2026-04-12T12:50:03.434Z</time></trkpt><trkpt lat="43.147675" lon="13.0923583"><ele>592.0</ele><time>2026-04-12T12:50:04.43Z</time></trkpt><trkpt lat="43.1478533" lon="13.0925233"><ele>597.0</ele><time>2026-04-12T12:50:05.431Z</time></trkpt><trkpt lat="43.1480333" lon="13.0926683"><ele>602.0</ele><time>2026-04-12T12:50:06.434Z</time></trkpt><trkpt lat="43.14821" lon="13.0927667"><ele>607.0</ele><time>2026-04-12T12:50:07.432Z</time></trkpt><trkpt lat="43.1483783" lon="13.0928417"><ele>607.0</ele><time>2026-04-12T12:50:08.434Z</time></trkpt><trkpt lat="43.14853" lon="13.0929683"><ele>607.0</ele><time>2026-04-12T12:50:09.438Z</time></trkpt><trkpt lat="43.148675" lon="13.0931267"><ele>607.0</ele><time>2026-04-12T12:50:10.43Z</time></trkpt><trkpt lat="43.14882" lon="13.0933033"><ele>610.3333333333334</ele><time>2026-04-12T12:50:11.432Z</time></trkpt><trkpt lat="43.1489617" lon="13.0935"><ele>613.6666666666666</ele><time>2026-04-12T12:50:12.433Z</time></trkpt><trkpt lat="43.1491017" lon="13.0936967"><ele>617.0</ele><time>2026-04-12T12:50:13.433Z</time></trkpt><trkpt lat="43.1492283" lon="13.093885"><ele>624.0</ele><time>2026-04-12T12:50:14.433Z</time></trkpt><trkpt lat="43.14933" lon="13.0940917"><ele>631.0</ele><time>2026-04-12T12:50:15.43Z</time></trkpt><trkpt lat="43.1494167" lon="13.0943183"><ele>638.0</ele><time>2026-04-12T12:50:16.43Z</time></trkpt><trkpt lat="43.1495083" lon="13.0945383"><ele>638.0</ele><time>2026-04-12T12:50:17.432Z</time></trkpt><trkpt lat="43.149625" lon="13.0947367"><ele>638.0</ele><time>2026-04-12T12:50:18.431Z</time></trkpt><trkpt lat="43.14977" lon="13.0949167"><ele>638.0</ele><time>2026-04-12T12:50:19.434Z</time></trkpt><trkpt lat="43.1499517" lon="13.0950583"><ele>640.3333333333333</ele><time>2026-04-12T12:50:20.433Z</time></trkpt><trkpt lat="43.1501467" lon="13.0951883"><ele>642.6666666666666</ele><time>2026-04-12T12:50:21.431Z</time></trkpt><trkpt lat="43.1503183" lon="13.0953667"><ele>645.0</ele><time>2026-04-12T12:50:22.431Z</time></trkpt><trkpt lat="43.15048" lon="13.0955683"><ele>645.0</ele><time>2026-04-12T12:50:23.428Z</time></trkpt><trkpt lat="43.1506533" lon="13.0957783"><ele>645.0</ele><time>2026-04-12T12:50:24.431Z</time></trkpt><trkpt lat="43.1508317" lon="13.095995"><ele>645.0</ele><time>2026-04-12T12:50:25.432Z</time></trkpt><trkpt lat="43.150995" lon="13.0962233"><ele>645.0</ele><time>2026-04-12T12:50:26.439Z</time></trkpt><trkpt lat="43.1511467" lon="13.0964683"><ele>655.5</ele><time>2026-04-12T12:50:27.432Z</time></trkpt><trkpt lat="43.1512867" lon="13.0967283"><ele>666.0</ele><time>2026-04-12T12:50:28.431Z</time></trkpt><trkpt lat="43.1514233" lon="13.096985"><ele>665.3333333333334</ele><time>2026-04-12T12:50:29.433Z</time></trkpt><trkpt lat="43.1515567" lon="13.09722"><ele>664.6666666666667</ele><time>2026-04-12T12:50:30.432Z</time></trkpt><trkpt lat="43.1517067" lon="13.0974133"><ele>664.0</ele><time>2026-04-12T12:50:31.433Z</time></trkpt><trkpt lat="43.1518867" lon="13.0975633"><ele>664.0</ele><time>2026-04-12T12:50:32.432Z</time></trkpt><trkpt lat="43.1520783" lon="13.097685"><ele>664.0</ele><time>2026-04-12T12:50:33.433Z</time></trkpt><trkpt lat="43.1522783" lon="13.0977667"><ele>664.0</ele><time>2026-04-12T12:50:34.433Z</time></trkpt><trkpt lat="43.152495" lon="13.0978183"><ele>666.0</ele><time>2026-04-12T12:50:35.432Z</time></trkpt><trkpt lat="43.1527" lon="13.09786"><ele>668.0</ele><time>2026-04-12T12:50:36.432Z</time></trkpt><trkpt lat="43.1528933" lon="13.0979133"><ele>670.0</ele><time>2026-04-12T12:50:37.432Z</time></trkpt><trkpt lat="43.1530817" lon="13.0980183"><ele>669.6666666666667</ele><time>2026-04-12T12:50:38.435Z</time></trkpt><trkpt lat="43.15326" lon="13.0981667"><ele>669.3333333333334</ele><time>2026-04-12T12:50:39.431Z</time></trkpt><trkpt lat="43.1534367" lon="13.0983467"><ele>669.0</ele><time>2026-04-12T12:50:40.431Z</time></trkpt><trkpt lat="43.1535967" lon="13.098545"><ele>671.0</ele><time>2026-04-12T12:50:41.431Z</time></trkpt><trkpt lat="43.1537467" lon="13.0987683"><ele>673.0</ele><time>2026-04-12T12:50:42.434Z</time></trkpt><trkpt lat="43.153885" lon="13.0990133"><ele>675.0</ele><time>2026-04-12T12:50:43.432Z</time></trkpt><trkpt lat="43.1540233" lon="13.09928"><ele>673.5</ele><time>2026-04-12T12:50:44.43Z</time></trkpt><trkpt lat="43.1541583" lon="13.0995633"><ele>672.0</ele><time>2026-04-12T12:50:45.432Z</time></trkpt><trkpt lat="43.1543083" lon="13.0998433"><ele>675.5</ele><time>2026-04-12T12:50:46.43Z</time></trkpt><trkpt lat="43.1544617" lon="13.1001233"><ele>679.0</ele><time>2026-04-12T12:50:47.432Z</time></trkpt><trkpt lat="43.15461" lon="13.1003883"><ele>679.0</ele><time>2026-04-12T12:50:48.434Z</time></trkpt><trkpt lat="43.154755" lon="13.1006367"><ele>679.0</ele><time>2026-04-12T12:50:49.43Z</time></trkpt><trkpt lat="43.1548983" lon="13.1008617"><ele>678.3333333333334</ele><time>2026-04-12T12:50:50.434Z</time></trkpt><trkpt lat="43.155055" lon="13.1010517"><ele>677.6666666666666</ele><time>2026-04-12T12:50:51.434Z</time></trkpt><trkpt lat="43.1552317" lon="13.1011867"><ele>677.0</ele><time>2026-04-12T12:50:52.431Z</time></trkpt><trkpt lat="43.1554333" lon="13.1012633"><ele>677.0</ele><time>2026-04-12T12:50:53.432Z</time></trkpt><trkpt lat="43.1556583" lon="13.1013033"><ele>677.0</ele><time>2026-04-12T12:50:54.431Z</time></trkpt><trkpt lat="43.1558683" lon="13.1013433"><ele>677.0</ele><time>2026-04-12T12:50:55.431Z</time></trkpt><trkpt lat="43.1560483" lon="13.1014417"><ele>680.6666666666666</ele><time>2026-04-12T12:50:56.434Z</time></trkpt><trkpt lat="43.156205" lon="13.1015667"><ele>684.3333333333334</ele><time>2026-04-12T12:50:57.432Z</time></trkpt><trkpt lat="43.1563617" lon="13.1016833"><ele>688.0</ele><time>2026-04-12T12:50:58.428Z</time></trkpt><trkpt lat="43.156535" lon="13.1017767"><ele>682.6666666666667</ele><time>2026-04-12T12:50:59.431Z</time></trkpt><trkpt lat="43.1567283" lon="13.1018233"><ele>677.3333333333334</ele><time>2026-04-12T12:51:00.434Z</time></trkpt><trkpt lat="43.1569167" lon="13.10183"><ele>672.0</ele><time>2026-04-12T12:51:01.431Z</time></trkpt><trkpt lat="43.1570867" lon="13.1018617"><ele>672.0</ele><time>2026-04-12T12:51:02.433Z</time></trkpt><trkpt lat="43.1572383" lon="13.1019233"><ele>672.0</ele><time>2026-04-12T12:51:03.434Z</time></trkpt><trkpt lat="43.1573717" lon="13.1020033"><ele>672.0</ele><time>2026-04-12T12:51:04.429Z</time></trkpt><trkpt lat="43.1575017" lon="13.1021033"><ele>669.6666666666666</ele><time>2026-04-12T12:51:05.428Z</time></trkpt><trkpt lat="43.15763" lon="13.1022267"><ele>667.3333333333333</ele><time>2026-04-12T12:51:06.43Z</time></trkpt><trkpt lat="43.157765" lon="13.1023667"><ele>665.0</ele><time>2026-04-12T12:51:07.429Z</time></trkpt><trkpt lat="43.157915" lon="13.102505"><ele>663.6666666666666</ele><time>2026-04-12T12:51:08.434Z</time></trkpt><trkpt lat="43.158065" lon="13.10264"><ele>662.3333333333334</ele><time>2026-04-12T12:51:09.431Z</time></trkpt><trkpt lat="43.1582167" lon="13.102775"><ele>661.0</ele><time>2026-04-12T12:51:10.43Z</time></trkpt><trkpt lat="43.15837" lon="13.1029017"><ele>661.0</ele><time>2026-04-12T12:51:11.432Z</time></trkpt><trkpt lat="43.1585383" lon="13.1030033"><ele>661.0</ele><time>2026-04-12T12:51:12.43Z</time></trkpt><trkpt lat="43.1587117" lon="13.1031"><ele>661.0</ele><time>2026-04-12T12:51:13.432Z</time></trkpt><trkpt lat="43.158885" lon="13.103205"><ele>662.0</ele><time>2026-04-12T12:51:14.443Z</time></trkpt><trkpt lat="43.1590583" lon="13.1033233"><ele>663.0</ele><time>2026-04-12T12:51:15.43Z</time></trkpt><trkpt lat="43.1592317" lon="13.1034483"><ele>664.0</ele><time>2026-04-12T12:51:16.432Z</time></trkpt><trkpt lat="43.1594017" lon="13.10358"><ele>664.0</ele><time>2026-04-12T12:51:17.432Z</time></trkpt><trkpt lat="43.1595667" lon="13.1037183"><ele>664.0</ele><time>2026-04-12T12:51:18.432Z</time></trkpt><trkpt lat="43.1597267" lon="13.1038633"><ele>664.0</ele><time>2026-04-12T12:51:19.43Z</time></trkpt><trkpt lat="43.159875" lon="13.104015"><ele>664.3333333333334</ele><time>2026-04-12T12:51:20.433Z</time></trkpt><trkpt lat="43.160005" lon="13.1041683"><ele>664.6666666666666</ele><time>2026-04-12T12:51:21.435Z</time></trkpt><trkpt lat="43.1601217" lon="13.1043283"><ele>665.0</ele><time>2026-04-12T12:51:22.43Z</time></trkpt><trkpt lat="43.1602333" lon="13.104485"><ele>665.0</ele><time>2026-04-12T12:51:23.431Z</time></trkpt><trkpt lat="43.1603633" lon="13.10463"><ele>665.0</ele><time>2026-04-12T12:51:24.433Z</time></trkpt><trkpt lat="43.1605183" lon="13.1047533"><ele>665.0</ele><time>2026-04-12T12:51:25.431Z</time></trkpt><trkpt lat="43.1606833" lon="13.10487"><ele>663.3333333333333</ele><time>2026-04-12T12:51:26.429Z</time></trkpt><trkpt lat="43.1608517" lon="13.1049883"><ele>661.6666666666666</ele><time>2026-04-12T12:51:27.428Z</time></trkpt><trkpt lat="43.1610133" lon="13.105115"><ele>660.0</ele><time>2026-04-12T12:51:28.433Z</time></trkpt><trkpt lat="43.16117" lon="13.1052467"><ele>660.0</ele><time>2026-04-12T12:51:29.429Z</time></trkpt><trkpt lat="43.161315" lon="13.1053717"><ele>660.0</ele><time>2026-04-12T12:51:30.437Z</time></trkpt><trkpt lat="43.16146" lon="13.1054867"><ele>660.0</ele><time>2026-04-12T12:51:31.432Z</time></trkpt><trkpt lat="43.161605" lon="13.1055833"><ele>662.3333333333334</ele><time>2026-04-12T12:51:32.432Z</time></trkpt><trkpt lat="43.16176" lon="13.1056483"><ele>664.6666666666667</ele><time>2026-04-12T12:51:33.428Z</time></trkpt><trkpt lat="43.1619417" lon="13.10567"><ele>667.0</ele><time>2026-04-12T12:51:34.434Z</time></trkpt><trkpt lat="43.162135" lon="13.1056783"><ele>667.0</ele><time>2026-04-12T12:51:35.433Z</time></trkpt><trkpt lat="43.162325" lon="13.105685"><ele>667.0</ele><time>2026-04-12T12:51:36.432Z</time></trkpt><trkpt lat="43.16251" lon="13.1057067"><ele>667.0</ele><time>2026-04-12T12:51:37.429Z</time></trkpt><trkpt lat="43.1626817" lon="13.1057583"><ele>660.6666666666667</ele><time>2026-04-12T12:51:38.431Z</time></trkpt><trkpt lat="43.1628417" lon="13.105845"><ele>654.3333333333334</ele><time>2026-04-12T12:51:39.433Z</time></trkpt><trkpt lat="43.163005" lon="13.10594"><ele>648.0</ele><time>2026-04-12T12:51:40.431Z</time></trkpt><trkpt lat="43.1631767" lon="13.1059983"><ele>648.3333333333334</ele><time>2026-04-12T12:51:41.43Z</time></trkpt><trkpt lat="43.1633633" lon="13.1060233"><ele>648.6666666666667</ele><time>2026-04-12T12:51:42.43Z</time></trkpt><trkpt lat="43.163565" lon="13.106035"><ele>649.0</ele><time>2026-04-12T12:51:43.429Z</time></trkpt><trkpt lat="43.1637717" lon="13.1060317"><ele>649.0</ele><time>2026-04-12T12:51:44.429Z</time></trkpt><trkpt lat="43.16397" lon="13.1060183"><ele>649.0</ele><time>2026-04-12T12:51:45.433Z</time></trkpt><trkpt lat="43.1641633" lon="13.1060033"><ele>649.0</ele><time>2026-04-12T12:51:46.428Z</time></trkpt><trkpt lat="43.1643583" lon="13.1059883"><ele>646.0</ele><time>2026-04-12T12:51:47.428Z</time></trkpt><trkpt lat="43.1645483" lon="13.1060117"><ele>643.0</ele><time>2026-04-12T12:51:48.432Z</time></trkpt><trkpt lat="43.164725" lon="13.1060967"><ele>640.0</ele><time>2026-04-12T12:51:49.43Z</time></trkpt><trkpt lat="43.1648917" lon="13.106255"><ele>638.3333333333334</ele><time>2026-04-12T12:51:50.459Z</time></trkpt><trkpt lat="43.1650667" lon="13.1064267"><ele>636.6666666666666</ele><time>2026-04-12T12:51:51.43Z</time></trkpt><trkpt lat="43.165255" lon="13.1065867"><ele>635.0</ele><time>2026-04-12T12:51:52.429Z</time></trkpt><trkpt lat="43.1654717" lon="13.1067317"><ele>635.0</ele><time>2026-04-12T12:51:53.435Z</time></trkpt><trkpt lat="43.1656917" lon="13.1068717"><ele>635.0</ele><time>2026-04-12T12:51:54.43Z</time></trkpt><trkpt lat="43.165895" lon="13.1070067"><ele>633.3333333333333</ele><time>2026-04-12T12:51:55.432Z</time></trkpt><trkpt lat="43.1660767" lon="13.1071317"><ele>631.6666666666666</ele><time>2026-04-12T12:51:56.432Z</time></trkpt><trkpt lat="43.1662183" lon="13.1072417"><ele>630.0</ele><time>2026-04-12T12:51:57.432Z</time></trkpt><trkpt lat="43.166315" lon="13.107325"><ele>630.0</ele><time>2026-04-12T12:51:58.431Z</time></trkpt><trkpt lat="43.1663717" lon="13.1073683"><ele>630.0</ele><time>2026-04-12T12:51:59.43Z</time></trkpt><trkpt lat="43.166425" lon="13.1074233"><ele>630.0</ele><time>2026-04-12T12:52:01.433Z</time></trkpt><trkpt lat="43.1664267" lon="13.1075733"><ele>630.0</ele><time>2026-04-12T12:52:04.43Z</time></trkpt><trkpt lat="43.166455" lon="13.107705"><ele>630.0</ele><time>2026-04-12T12:52:05.43Z</time></trkpt><trkpt lat="43.1664867" lon="13.1078683"><ele>630.75</ele><time>2026-04-12T12:52:06.43Z</time></trkpt><trkpt lat="43.16652" lon="13.1080417"><ele>631.5</ele><time>2026-04-12T12:52:07.431Z</time></trkpt><trkpt lat="43.1665583" lon="13.1082283"><ele>632.25</ele><time>2026-04-12T12:52:08.432Z</time></trkpt><trkpt lat="43.16661" lon="13.108425"><ele>633.0</ele><time>2026-04-12T12:52:09.431Z</time></trkpt><trkpt lat="43.1666917" lon="13.1086283"><ele>635.0</ele><time>2026-04-12T12:52:10.43Z</time></trkpt><trkpt lat="43.16679" lon="13.10883"><ele>637.0</ele><time>2026-04-12T12:52:11.43Z</time></trkpt><trkpt lat="43.16693" lon="13.10901"><ele>639.0</ele><time>2026-04-12T12:52:12.425Z</time></trkpt><trkpt lat="43.167085" lon="13.1091867"><ele>639.0</ele><time>2026-04-12T12:52:13.43Z</time></trkpt><trkpt lat="43.1672667" lon="13.1093433"><ele>639.0</ele><time>2026-04-12T12:52:14.434Z</time></trkpt><trkpt lat="43.1674417" lon="13.1095017"><ele>639.0</ele><time>2026-04-12T12:52:15.429Z</time></trkpt><trkpt lat="43.1676333" lon="13.10967"><ele>637.0</ele><time>2026-04-12T12:52:16.431Z</time></trkpt><trkpt lat="43.1678417" lon="13.1098367"><ele>635.0</ele><time>2026-04-12T12:52:17.43Z</time></trkpt><trkpt lat="43.168065" lon="13.10998"><ele>641.5</ele><time>2026-04-12T12:52:18.432Z</time></trkpt><trkpt lat="43.168295" lon="13.1101033"><ele>648.0</ele><time>2026-04-12T12:52:19.43Z</time></trkpt><trkpt lat="43.168525" lon="13.110215"><ele>648.0</ele><time>2026-04-12T12:52:20.429Z</time></trkpt><trkpt lat="43.1687467" lon="13.1103167"><ele>648.0</ele><time>2026-04-12T12:52:21.433Z</time></trkpt><trkpt lat="43.16896" lon="13.11041"><ele>649.3333333333334</ele><time>2026-04-12T12:52:22.433Z</time></trkpt><trkpt lat="43.1691683" lon="13.1105067"><ele>650.6666666666667</ele><time>2026-04-12T12:52:23.431Z</time></trkpt><trkpt lat="43.1693767" lon="13.1106"><ele>652.0</ele><time>2026-04-12T12:52:24.431Z</time></trkpt><trkpt lat="43.1695883" lon="13.1106917"><ele>654.3333333333334</ele><time>2026-04-12T12:52:25.429Z</time></trkpt><trkpt lat="43.1697933" lon="13.1107833"><ele>656.6666666666666</ele><time>2026-04-12T12:52:26.456Z</time></trkpt><trkpt lat="43.1699817" lon="13.11088"><ele>659.0</ele><time>2026-04-12T12:52:27.431Z</time></trkpt><trkpt lat="43.1701633" lon="13.1109883"><ele>660.3333333333333</ele><time>2026-04-12T12:52:28.43Z</time></trkpt><trkpt lat="43.1703383" lon="13.11111"><ele>661.6666666666666</ele><time>2026-04-12T12:52:29.432Z</time></trkpt><trkpt lat="43.1705167" lon="13.1112383"><ele>663.0</ele><time>2026-04-12T12:52:30.432Z</time></trkpt><trkpt lat="43.1706983" lon="13.1113667"><ele>663.0</ele><time>2026-04-12T12:52:31.434Z</time></trkpt><trkpt lat="43.1708833" lon="13.1115"><ele>663.0</ele><time>2026-04-12T12:52:32.436Z</time></trkpt><trkpt lat="43.1710717" lon="13.111635"><ele>663.0</ele><time>2026-04-12T12:52:33.431Z</time></trkpt><trkpt lat="43.1712633" lon="13.11177"><ele>666.3333333333334</ele><time>2026-04-12T12:52:34.434Z</time></trkpt><trkpt lat="43.17146" lon="13.1119067"><ele>669.6666666666667</ele><time>2026-04-12T12:52:35.432Z</time></trkpt><trkpt lat="43.1716583" lon="13.11205"><ele>673.0</ele><time>2026-04-12T12:52:36.432Z</time></trkpt><trkpt lat="43.1718617" lon="13.1122"><ele>673.0</ele><time>2026-04-12T12:52:37.429Z</time></trkpt><trkpt lat="43.1720683" lon="13.1123467"><ele>673.0</ele><time>2026-04-12T12:52:38.435Z</time></trkpt><trkpt lat="43.17228" lon="13.1124833"><ele>677.0</ele><time>2026-04-12T12:52:39.432Z</time></trkpt><trkpt lat="43.1724983" lon="13.1126133"><ele>681.0</ele><time>2026-04-12T12:52:40.429Z</time></trkpt><trkpt lat="43.172725" lon="13.1127317"><ele>681.0</ele><time>2026-04-12T12:52:41.434Z</time></trkpt><trkpt lat="43.1729517" lon="13.11285"><ele>681.0</ele><time>2026-04-12T12:52:42.431Z</time></trkpt><trkpt lat="43.173185" lon="13.112965"><ele>681.0</ele><time>2026-04-12T12:52:43.429Z</time></trkpt><trkpt lat="43.173425" lon="13.11308"><ele>681.0</ele><time>2026-04-12T12:52:44.463Z</time></trkpt><trkpt lat="43.1736683" lon="13.113195"><ele>684.5</ele><time>2026-04-12T12:52:45.429Z</time></trkpt><trkpt lat="43.1739167" lon="13.11331"><ele>688.0</ele><time>2026-04-12T12:52:46.427Z</time></trkpt><trkpt lat="43.174165" lon="13.1134233"><ele>690.0</ele><time>2026-04-12T12:52:47.432Z</time></trkpt><trkpt lat="43.1744117" lon="13.1135367"><ele>692.0</ele><time>2026-04-12T12:52:48.429Z</time></trkpt><trkpt lat="43.1746583" lon="13.1136483"><ele>694.0</ele><time>2026-04-12T12:52:49.428Z</time></trkpt><trkpt lat="43.17489" lon="13.1137583"><ele>696.0</ele><time>2026-04-12T12:52:50.434Z</time></trkpt><trkpt lat="43.175105" lon="13.1138683"><ele>696.0</ele><time>2026-04-12T12:52:51.431Z</time></trkpt><trkpt lat="43.175295" lon="13.1139883"><ele>696.0</ele><time>2026-04-12T12:52:52.43Z</time></trkpt><trkpt lat="43.17546" lon="13.114135"><ele>696.0</ele><time>2026-04-12T12:52:53.429Z</time></trkpt><trkpt lat="43.1755833" lon="13.11433"><ele>695.0</ele><time>2026-04-12T12:52:54.431Z</time></trkpt><trkpt lat="43.1756783" lon="13.1145533"><ele>694.0</ele><time>2026-04-12T12:52:55.432Z</time></trkpt><trkpt lat="43.1757467" lon="13.114815"><ele>693.0</ele><time>2026-04-12T12:52:56.43Z</time></trkpt><trkpt lat="43.1758083" lon="13.11511"><ele>701.0</ele><time>2026-04-12T12:52:57.43Z</time></trkpt><trkpt lat="43.1758617" lon="13.115425"><ele>709.0</ele><time>2026-04-12T12:52:58.429Z</time></trkpt><trkpt lat="43.17592" lon="13.1157433"><ele>709.6666666666667</ele><time>2026-04-12T12:52:59.432Z</time></trkpt><trkpt lat="43.1759817" lon="13.11605"><ele>710.3333333333334</ele><time>2026-04-12T12:53:00.432Z</time></trkpt><trkpt lat="43.1760383" lon="13.1163267"><ele>711.0</ele><time>2026-04-12T12:53:01.431Z</time></trkpt><trkpt lat="43.176095" lon="13.1165783"><ele>712.6666666666666</ele><time>2026-04-12T12:53:02.456Z</time></trkpt><trkpt lat="43.1761633" lon="13.1168033"><ele>714.3333333333333</ele><time>2026-04-12T12:53:03.434Z</time></trkpt><trkpt lat="43.1762583" lon="13.117005"><ele>716.0</ele><time>2026-04-12T12:53:04.429Z</time></trkpt><trkpt lat="43.1763883" lon="13.1171983"><ele>721.0</ele><time>2026-04-12T12:53:05.427Z</time></trkpt><trkpt lat="43.17654" lon="13.1173817"><ele>726.0</ele><time>2026-04-12T12:53:06.433Z</time></trkpt><trkpt lat="43.1767017" lon="13.1175467"><ele>731.0</ele><time>2026-04-12T12:53:07.431Z</time></trkpt><trkpt lat="43.1768717" lon="13.11769"><ele>731.0</ele><time>2026-04-12T12:53:08.432Z</time></trkpt><trkpt lat="43.17705" lon="13.1178"><ele>731.0</ele><time>2026-04-12T12:53:09.43Z</time></trkpt><trkpt lat="43.1772333" lon="13.1178833"><ele>731.0</ele><time>2026-04-12T12:53:10.433Z</time></trkpt><trkpt lat="43.17743" lon="13.117955"><ele>732.3333333333333</ele><time>2026-04-12T12:53:11.431Z</time></trkpt><trkpt lat="43.1776333" lon="13.1180183"><ele>733.6666666666666</ele><time>2026-04-12T12:53:12.432Z</time></trkpt><trkpt lat="43.1778467" lon="13.1180667"><ele>735.0</ele><time>2026-04-12T12:53:13.431Z</time></trkpt><trkpt lat="43.1780767" lon="13.1180917"><ele>736.5</ele><time>2026-04-12T12:53:14.433Z</time></trkpt><trkpt lat="43.1783183" lon="13.1181017"><ele>738.0</ele><time>2026-04-12T12:53:15.433Z</time></trkpt><trkpt lat="43.178565" lon="13.118105"><ele>738.0</ele><time>2026-04-12T12:53:16.427Z</time></trkpt><trkpt lat="43.1787983" lon="13.1181117"><ele>738.0</ele><time>2026-04-12T12:53:17.431Z</time></trkpt><trkpt lat="43.1790133" lon="13.1181283"><ele>738.0</ele><time>2026-04-12T12:53:18.426Z</time></trkpt><trkpt lat="43.17921" lon="13.118165"><ele>738.6666666666666</ele><time>2026-04-12T12:53:19.427Z</time></trkpt><trkpt lat="43.1793917" lon="13.1182217"><ele>739.3333333333333</ele><time>2026-04-12T12:53:20.452Z</time></trkpt><trkpt lat="43.1795517" lon="13.1183033"><ele>740.0</ele><time>2026-04-12T12:53:21.431Z</time></trkpt><trkpt lat="43.179695" lon="13.1183933"><ele>740.6666666666666</ele><time>2026-04-12T12:53:22.428Z</time></trkpt><trkpt lat="43.1798383" lon="13.1184917"><ele>741.3333333333334</ele><time>2026-04-12T12:53:23.431Z</time></trkpt><trkpt lat="43.17999" lon="13.1185983"><ele>742.0</ele><time>2026-04-12T12:53:24.427Z</time></trkpt><trkpt lat="43.18015" lon="13.1187133"><ele>743.0</ele><time>2026-04-12T12:53:25.431Z</time></trkpt><trkpt lat="43.1803233" lon="13.1188333"><ele>744.0</ele><time>2026-04-12T12:53:26.43Z</time></trkpt><trkpt lat="43.1805083" lon="13.1189567"><ele>745.0</ele><time>2026-04-12T12:53:27.427Z</time></trkpt><trkpt lat="43.180695" lon="13.1190833"><ele>747.6666666666667</ele><time>2026-04-12T12:53:28.427Z</time></trkpt><trkpt lat="43.180875" lon="13.1192083"><ele>750.3333333333334</ele><time>2026-04-12T12:53:29.431Z</time></trkpt><trkpt lat="43.181045" lon="13.1193283"><ele>753.0</ele><time>2026-04-12T12:53:30.429Z</time></trkpt><trkpt lat="43.1812" lon="13.1194567"><ele>753.0</ele><time>2026-04-12T12:53:31.433Z</time></trkpt><trkpt lat="43.1813433" lon="13.1195967"><ele>753.0</ele><time>2026-04-12T12:53:32.429Z</time></trkpt><trkpt lat="43.1814717" lon="13.1197433"><ele>753.0</ele><time>2026-04-12T12:53:33.434Z</time></trkpt><trkpt lat="43.18158" lon="13.119895"><ele>753.0</ele><time>2026-04-12T12:53:34.431Z</time></trkpt><trkpt lat="43.1816783" lon="13.1200433"><ele>753.0</ele><time>2026-04-12T12:53:35.428Z</time></trkpt><trkpt lat="43.1817683" lon="13.1201783"><ele>753.0</ele><time>2026-04-12T12:53:36.429Z</time></trkpt><trkpt lat="43.1818667" lon="13.1202917"><ele>753.0</ele><time>2026-04-12T12:53:37.426Z</time></trkpt><trkpt lat="43.1819867" lon="13.12039"><ele>753.0</ele><time>2026-04-12T12:53:38.46Z</time></trkpt><trkpt lat="43.18212" lon="13.120465"><ele>753.0</ele><time>2026-04-12T12:53:39.429Z</time></trkpt><trkpt lat="43.18227" lon="13.120525"><ele>753.0</ele><time>2026-04-12T12:53:40.431Z</time></trkpt><trkpt lat="43.18243" lon="13.1205817"><ele>753.6666666666666</ele><time>2026-04-12T12:53:41.427Z</time></trkpt><trkpt lat="43.182595" lon="13.1206367"><ele>754.3333333333333</ele><time>2026-04-12T12:53:42.428Z</time></trkpt><trkpt lat="43.1827717" lon="13.1206917"><ele>755.0</ele><time>2026-04-12T12:53:43.429Z</time></trkpt><trkpt lat="43.1829483" lon="13.12075"><ele>754.0</ele><time>2026-04-12T12:53:44.43Z</time></trkpt><trkpt lat="43.1831167" lon="13.1208083"><ele>753.0</ele><time>2026-04-12T12:53:45.43Z</time></trkpt><trkpt lat="43.183275" lon="13.120865"><ele>752.0</ele><time>2026-04-12T12:53:46.43Z</time></trkpt><trkpt lat="43.183425" lon="13.1209167"><ele>752.0</ele><time>2026-04-12T12:53:47.431Z</time></trkpt><trkpt lat="43.1835633" lon="13.1209667"><ele>752.0</ele><time>2026-04-12T12:53:48.431Z</time></trkpt><trkpt lat="43.1836933" lon="13.1210233"><ele>752.0</ele><time>2026-04-12T12:53:49.431Z</time></trkpt><trkpt lat="43.1838183" lon="13.1210967"><ele>752.0</ele><time>2026-04-12T12:53:50.426Z</time></trkpt><trkpt lat="43.1839267" lon="13.1211933"><ele>752.25</ele><time>2026-04-12T12:53:51.429Z</time></trkpt><trkpt lat="43.18402" lon="13.12131"><ele>752.5</ele><time>2026-04-12T12:53:52.43Z</time></trkpt><trkpt lat="43.1841" lon="13.1214517"><ele>752.75</ele><time>2026-04-12T12:53:53.429Z</time></trkpt><trkpt lat="43.184175" lon="13.1216133"><ele>753.0</ele><time>2026-04-12T12:53:54.432Z</time></trkpt><trkpt lat="43.1842417" lon="13.1217933"><ele>753.6666666666666</ele><time>2026-04-12T12:53:55.429Z</time></trkpt><trkpt lat="43.1843033" lon="13.1219867"><ele>754.3333333333333</ele><time>2026-04-12T12:53:56.43Z</time></trkpt><trkpt lat="43.1843617" lon="13.1221817"><ele>755.0</ele><time>2026-04-12T12:53:57.43Z</time></trkpt><trkpt lat="43.1844233" lon="13.1223717"><ele>753.75</ele><time>2026-04-12T12:53:58.428Z</time></trkpt><trkpt lat="43.1844867" lon="13.1225583"><ele>752.5</ele><time>2026-04-12T12:53:59.432Z</time></trkpt><trkpt lat="43.18455" lon="13.122745"><ele>751.25</ele><time>2026-04-12T12:54:00.428Z</time></trkpt><trkpt lat="43.1846133" lon="13.1229233"><ele>750.0</ele><time>2026-04-12T12:54:01.428Z</time></trkpt><trkpt lat="43.1846817" lon="13.1230883"><ele>749.75</ele><time>2026-04-12T12:54:02.429Z</time></trkpt><trkpt lat="43.184755" lon="13.1232383"><ele>749.5</ele><time>2026-04-12T12:54:03.433Z</time></trkpt><trkpt lat="43.184835" lon="13.12337"><ele>749.25</ele><time>2026-04-12T12:54:04.427Z</time></trkpt><trkpt lat="43.18492" lon="13.12349"><ele>749.0</ele><time>2026-04-12T12:54:05.429Z</time></trkpt><trkpt lat="43.1850017" lon="13.1236033"><ele>749.0</ele><time>2026-04-12T12:54:06.429Z</time></trkpt><trkpt lat="43.1850817" lon="13.12372"><ele>749.0</ele><time>2026-04-12T12:54:07.429Z</time></trkpt><trkpt lat="43.1851617" lon="13.1238417"><ele>749.0</ele><time>2026-04-12T12:54:08.433Z</time></trkpt><trkpt lat="43.185245" lon="13.1239667"><ele>749.0</ele><time>2026-04-12T12:54:09.428Z</time></trkpt><trkpt lat="43.1853317" lon="13.124095"><ele>749.0</ele><time>2026-04-12T12:54:10.428Z</time></trkpt><trkpt lat="43.1854217" lon="13.1242217"><ele>749.0</ele><time>2026-04-12T12:54:11.428Z</time></trkpt><trkpt lat="43.1855117" lon="13.1243483"><ele>749.0</ele><time>2026-04-12T12:54:12.431Z</time></trkpt><trkpt lat="43.1856017" lon="13.1244767"><ele>749.0</ele><time>2026-04-12T12:54:13.431Z</time></trkpt><trkpt lat="43.1856883" lon="13.1246067"><ele>749.5</ele><time>2026-04-12T12:54:14.424Z</time></trkpt><trkpt lat="43.1857767" lon="13.124735"><ele>750.0</ele><time>2026-04-12T12:54:15.429Z</time></trkpt><trkpt lat="43.185865" lon="13.12486"><ele>750.5</ele><time>2026-04-12T12:54:16.428Z</time></trkpt><trkpt lat="43.185955" lon="13.124985"><ele>751.0</ele><time>2026-04-12T12:54:17.429Z</time></trkpt><trkpt lat="43.186045" lon="13.125105"><ele>751.0</ele><time>2026-04-12T12:54:18.429Z</time></trkpt><trkpt lat="43.1861317" lon="13.125225"><ele>751.0</ele><time>2026-04-12T12:54:19.435Z</time></trkpt><trkpt lat="43.186215" lon="13.1253433"><ele>751.0</ele><time>2026-04-12T12:54:20.432Z</time></trkpt><trkpt lat="43.1862917" lon="13.1254583"><ele>751.0</ele><time>2026-04-12T12:54:21.429Z</time></trkpt><trkpt lat="43.1863667" lon="13.1255667"><ele>751.0</ele><time>2026-04-12T12:54:22.429Z</time></trkpt><trkpt lat="43.186435" lon="13.1256733"><ele>751.0</ele><time>2026-04-12T12:54:23.428Z</time></trkpt><trkpt lat="43.1864967" lon="13.1257717"><ele>751.0</ele><time>2026-04-12T12:54:24.429Z</time></trkpt><trkpt lat="43.1865533" lon="13.1258633"><ele>751.0</ele><time>2026-04-12T12:54:25.429Z</time></trkpt><trkpt lat="43.1866067" lon="13.1259533"><ele>751.0</ele><time>2026-04-12T12:54:26.428Z</time></trkpt><trkpt lat="43.1866483" lon="13.126035"><ele>751.0</ele><time>2026-04-12T12:54:27.428Z</time></trkpt><trkpt lat="43.1866983" lon="13.126145"><ele>750.6666666666667</ele><time>2026-04-12T12:54:29.43Z</time></trkpt><trkpt lat="43.1867367" lon="13.1262217"><ele>750.3333333333334</ele><time>2026-04-12T12:54:32.459Z</time></trkpt><trkpt lat="43.18676" lon="13.1263283"><ele>750.0</ele><time>2026-04-12T12:54:34.431Z</time></trkpt><trkpt lat="43.1867717" lon="13.1264167"><ele>749.6666666666666</ele><time>2026-04-12T12:54:35.431Z</time></trkpt><trkpt lat="43.1867833" lon="13.1265267"><ele>749.3333333333333</ele><time>2026-04-12T12:54:36.432Z</time></trkpt><trkpt lat="43.1867967" lon="13.12666"><ele>749.0</ele><time>2026-04-12T12:54:37.433Z</time></trkpt><trkpt lat="43.1868083" lon="13.126815"><ele>748.5</ele><time>2026-04-12T12:54:38.434Z</time></trkpt><trkpt lat="43.186815" lon="13.1269917"><ele>748.0</ele><time>2026-04-12T12:54:39.431Z</time></trkpt><trkpt lat="43.1868183" lon="13.1271767"><ele>747.5</ele><time>2026-04-12T12:54:40.43Z</time></trkpt><trkpt lat="43.1868217" lon="13.1273633"><ele>747.0</ele><time>2026-04-12T12:54:41.428Z</time></trkpt><trkpt lat="43.1868267" lon="13.1275383"><ele>745.0</ele><time>2026-04-12T12:54:42.433Z</time></trkpt><trkpt lat="43.18684" lon="13.1277017"><ele>743.0</ele><time>2026-04-12T12:54:43.433Z</time></trkpt><trkpt lat="43.18687" lon="13.12785"><ele>741.0</ele><time>2026-04-12T12:54:44.432Z</time></trkpt><trkpt lat="43.186915" lon="13.1279833"><ele>739.0</ele><time>2026-04-12T12:54:45.432Z</time></trkpt><trkpt lat="43.1869833" lon="13.1280883"><ele>737.0</ele><time>2026-04-12T12:54:46.432Z</time></trkpt><trkpt lat="43.1870633" lon="13.1281633"><ele>733.5</ele><time>2026-04-12T12:54:47.43Z</time></trkpt><trkpt lat="43.1871533" lon="13.128245"><ele>730.0</ele><time>2026-04-12T12:54:48.43Z</time></trkpt><trkpt lat="43.1872383" lon="13.1283567"><ele>726.5</ele><time>2026-04-12T12:54:49.43Z</time></trkpt><trkpt lat="43.1873133" lon="13.128505"><ele>723.0</ele><time>2026-04-12T12:54:50.434Z</time></trkpt><trkpt lat="43.18739" lon="13.128685"><ele>727.3333333333334</ele><time>2026-04-12T12:54:51.434Z</time></trkpt><trkpt lat="43.1874683" lon="13.1288933"><ele>731.6666666666667</ele><time>2026-04-12T12:54:52.429Z</time></trkpt><trkpt lat="43.187545" lon="13.1291133"><ele>736.0</ele><time>2026-04-12T12:54:53.433Z</time></trkpt><trkpt lat="43.1876133" lon="13.129325"><ele>736.0</ele><time>2026-04-12T12:54:54.429Z</time></trkpt><trkpt lat="43.1876767" lon="13.129525"><ele>736.0</ele><time>2026-04-12T12:54:55.428Z</time></trkpt><trkpt lat="43.1877483" lon="13.1297133"><ele>736.0</ele><time>2026-04-12T12:54:56.431Z</time></trkpt><trkpt lat="43.1878317" lon="13.1299033"><ele>731.3333333333334</ele><time>2026-04-12T12:54:57.43Z</time></trkpt><trkpt lat="43.1879283" lon="13.1300983"><ele>726.6666666666666</ele><time>2026-04-12T12:54:58.427Z</time></trkpt><trkpt lat="43.1880183" lon="13.1302933"><ele>722.0</ele><time>2026-04-12T12:54:59.43Z</time></trkpt><trkpt lat="43.1880983" lon="13.1304833"><ele>727.25</ele><time>2026-04-12T12:55:00.429Z</time></trkpt><trkpt lat="43.1881767" lon="13.1306583"><ele>732.5</ele><time>2026-04-12T12:55:01.431Z</time></trkpt><trkpt lat="43.1882667" lon="13.1308133"><ele>737.75</ele><time>2026-04-12T12:55:02.432Z</time></trkpt><trkpt lat="43.1883583" lon="13.1309517"><ele>743.0</ele><time>2026-04-12T12:55:03.432Z</time></trkpt><trkpt lat="43.188435" lon="13.1310767"><ele>743.0</ele><time>2026-04-12T12:55:04.431Z</time></trkpt><trkpt lat="43.1884683" lon="13.1311883"><ele>743.0</ele><time>2026-04-12T12:55:05.429Z</time></trkpt><trkpt lat="43.1884567" lon="13.131295"><ele>743.0</ele><time>2026-04-12T12:55:06.433Z</time></trkpt><trkpt lat="43.1884" lon="13.1313533"><ele>743.0</ele><time>2026-04-12T12:55:07.429Z</time></trkpt><trkpt lat="43.1883183" lon="13.13139"><ele>743.0</ele><time>2026-04-12T12:55:08.434Z</time></trkpt><trkpt lat="43.18815" lon="13.1313283"><ele>739.0</ele><time>2026-04-12T12:55:09.431Z</time></trkpt><trkpt lat="43.1879767" lon="13.1312217"><ele>735.0</ele><time>2026-04-12T12:55:10.432Z</time></trkpt><trkpt lat="43.187795" lon="13.131105"><ele>731.0</ele><time>2026-04-12T12:55:11.431Z</time></trkpt><trkpt lat="43.187595" lon="13.1309767"><ele>731.0</ele><time>2026-04-12T12:55:12.429Z</time></trkpt><trkpt lat="43.1874" lon="13.130855"><ele>731.0</ele><time>2026-04-12T12:55:13.433Z</time></trkpt><trkpt lat="43.1872067" lon="13.1307317"><ele>731.0</ele><time>2026-04-12T12:55:14.433Z</time></trkpt><trkpt lat="43.187035" lon="13.1306067"><ele>721.3333333333333</ele><time>2026-04-12T12:55:15.43Z</time></trkpt><trkpt lat="43.18687" lon="13.1304883"><ele>711.6666666666666</ele><time>2026-04-12T12:55:16.432Z</time></trkpt><trkpt lat="43.1867083" lon="13.13038"><ele>702.0</ele><time>2026-04-12T12:55:17.436Z</time></trkpt><trkpt lat="43.18654" lon="13.1302933"><ele>694.3333333333334</ele><time>2026-04-12T12:55:18.432Z</time></trkpt><trkpt lat="43.1863767" lon="13.1302483"><ele>686.6666666666667</ele><time>2026-04-12T12:55:19.428Z</time></trkpt><trkpt lat="43.1862233" lon="13.13025"><ele>679.0</ele><time>2026-04-12T12:55:20.43Z</time></trkpt><trkpt lat="43.1860783" lon="13.1303033"><ele>679.0</ele><time>2026-04-12T12:55:21.43Z</time></trkpt><trkpt lat="43.185965" lon="13.1304"><ele>679.0</ele><time>2026-04-12T12:55:22.429Z</time></trkpt><trkpt lat="43.185865" lon="13.1305367"><ele>679.0</ele><time>2026-04-12T12:55:23.431Z</time></trkpt><trkpt lat="43.185765" lon="13.1307033"><ele>679.0</ele><time>2026-04-12T12:55:24.433Z</time></trkpt><trkpt lat="43.1856717" lon="13.1308917"><ele>672.6666666666667</ele><time>2026-04-12T12:55:25.429Z</time></trkpt><trkpt lat="43.1855867" lon="13.1310967"><ele>666.3333333333334</ele><time>2026-04-12T12:55:26.432Z</time></trkpt><trkpt lat="43.1855067" lon="13.1313183"><ele>660.0</ele><time>2026-04-12T12:55:27.431Z</time></trkpt><trkpt lat="43.1854383" lon="13.13155"><ele>664.0</ele><time>2026-04-12T12:55:28.43Z</time></trkpt><trkpt lat="43.1853783" lon="13.1317917"><ele>668.0</ele><time>2026-04-12T12:55:29.429Z</time></trkpt><trkpt lat="43.1853333" lon="13.132035"><ele>672.0</ele><time>2026-04-12T12:55:30.435Z</time></trkpt><trkpt lat="43.1852983" lon="13.1322733"><ele>673.6666666666666</ele><time>2026-04-12T12:55:31.436Z</time></trkpt><trkpt lat="43.1852633" lon="13.1325183"><ele>675.3333333333333</ele><time>2026-04-12T12:55:32.433Z</time></trkpt><trkpt lat="43.18523" lon="13.1327617"><ele>677.0</ele><time>2026-04-12T12:55:33.433Z</time></trkpt><trkpt lat="43.1852033" lon="13.1330083"><ele>677.3333333333333</ele><time>2026-04-12T12:55:34.436Z</time></trkpt><trkpt lat="43.1851783" lon="13.1332683"><ele>677.6666666666666</ele><time>2026-04-12T12:55:35.432Z</time></trkpt><trkpt lat="43.1851567" lon="13.133545"><ele>678.0</ele><time>2026-04-12T12:55:36.432Z</time></trkpt><trkpt lat="43.1851333" lon="13.1338433"><ele>677.5</ele><time>2026-04-12T12:55:37.43Z</time></trkpt><trkpt lat="43.185115" lon="13.13416"><ele>677.0</ele><time>2026-04-12T12:55:38.43Z</time></trkpt><trkpt lat="43.1850933" lon="13.1344917"><ele>677.0</ele><time>2026-04-12T12:55:39.429Z</time></trkpt><trkpt lat="43.1850683" lon="13.13482"><ele>677.0</ele><time>2026-04-12T12:55:40.428Z</time></trkpt><trkpt lat="43.1850383" lon="13.135135"><ele>677.0</ele><time>2026-04-12T12:55:41.435Z</time></trkpt><trkpt lat="43.185005" lon="13.1354333"><ele>677.0</ele><time>2026-04-12T12:55:42.432Z</time></trkpt><trkpt lat="43.1849733" lon="13.1357217"><ele>677.0</ele><time>2026-04-12T12:55:43.431Z</time></trkpt><trkpt lat="43.1849417" lon="13.13602"><ele>679.0</ele><time>2026-04-12T12:55:44.431Z</time></trkpt><trkpt lat="43.1849117" lon="13.1363333"><ele>681.0</ele><time>2026-04-12T12:55:45.428Z</time></trkpt><trkpt lat="43.1848833" lon="13.136655"><ele>681.0</ele><time>2026-04-12T12:55:46.428Z</time></trkpt><trkpt lat="43.1848567" lon="13.1369983"><ele>681.0</ele><time>2026-04-12T12:55:47.437Z</time></trkpt><trkpt lat="43.184835" lon="13.1373517"><ele>656.0</ele><time>2026-04-12T12:55:48.43Z</time></trkpt><trkpt lat="43.18482" lon="13.1377167"><ele>631.0</ele><time>2026-04-12T12:55:49.434Z</time></trkpt><trkpt lat="43.1848117" lon="13.138085"><ele>630.0</ele><time>2026-04-12T12:55:50.432Z</time></trkpt><trkpt lat="43.1848017" lon="13.1384583"><ele>629.0</ele><time>2026-04-12T12:55:51.433Z</time></trkpt><trkpt lat="43.1847883" lon="13.1388267"><ele>628.5</ele><time>2026-04-12T12:55:52.43Z</time></trkpt><trkpt lat="43.1847717" lon="13.1391917"><ele>628.0</ele><time>2026-04-12T12:55:53.431Z</time></trkpt><trkpt lat="43.1847483" lon="13.1395567"><ele>627.5</ele><time>2026-04-12T12:55:54.43Z</time></trkpt><trkpt lat="43.184725" lon="13.13992"><ele>627.0</ele><time>2026-04-12T12:55:55.434Z</time></trkpt><trkpt lat="43.1846967" lon="13.1402867"><ele>627.0</ele><time>2026-04-12T12:55:56.434Z</time></trkpt><trkpt lat="43.1846683" lon="13.14065"><ele>627.0</ele><time>2026-04-12T12:55:57.432Z</time></trkpt><trkpt lat="43.1846433" lon="13.1410233"><ele>626.5</ele><time>2026-04-12T12:55:58.431Z</time></trkpt><trkpt lat="43.1846217" lon="13.1413967"><ele>626.0</ele><time>2026-04-12T12:55:59.431Z</time></trkpt><trkpt lat="43.1846183" lon="13.141775"><ele>625.0</ele><time>2026-04-12T12:56:00.431Z</time></trkpt><trkpt lat="43.1846317" lon="13.1421483"><ele>624.0</ele><time>2026-04-12T12:56:01.432Z</time></trkpt><trkpt lat="43.18466" lon="13.1425167"><ele>623.5</ele><time>2026-04-12T12:56:02.433Z</time></trkpt><trkpt lat="43.1846867" lon="13.142875"><ele>623.0</ele><time>2026-04-12T12:56:03.431Z</time></trkpt><trkpt lat="43.1847083" lon="13.1432183"><ele>623.0</ele><time>2026-04-12T12:56:04.427Z</time></trkpt><trkpt lat="43.1847217" lon="13.14354"><ele>623.0</ele><time>2026-04-12T12:56:05.429Z</time></trkpt><trkpt lat="43.1847333" lon="13.1438417"><ele>623.3333333333333</ele><time>2026-04-12T12:56:06.428Z</time></trkpt><trkpt lat="43.18474" lon="13.1441217"><ele>623.6666666666666</ele><time>2026-04-12T12:56:07.428Z</time></trkpt><trkpt lat="43.1847333" lon="13.1443833"><ele>624.0</ele><time>2026-04-12T12:56:08.432Z</time></trkpt><trkpt lat="43.184705" lon="13.1446217"><ele>624.0</ele><time>2026-04-12T12:56:09.431Z</time></trkpt><trkpt lat="43.18465" lon="13.144825"><ele>624.0</ele><time>2026-04-12T12:56:10.43Z</time></trkpt><trkpt lat="43.1845717" lon="13.1449767"><ele>624.0</ele><time>2026-04-12T12:56:11.429Z</time></trkpt><trkpt lat="43.1844767" lon="13.1451"><ele>624.0</ele><time>2026-04-12T12:56:12.43Z</time></trkpt><trkpt lat="43.184375" lon="13.1452283"><ele>626.0</ele><time>2026-04-12T12:56:13.434Z</time></trkpt><trkpt lat="43.1842733" lon="13.145385"><ele>628.0</ele><time>2026-04-12T12:56:14.435Z</time></trkpt><trkpt lat="43.18417" lon="13.1455633"><ele>630.0</ele><time>2026-04-12T12:56:15.43Z</time></trkpt><trkpt lat="43.184075" lon="13.1457467"><ele>623.3333333333334</ele><time>2026-04-12T12:56:16.429Z</time></trkpt><trkpt lat="43.1839867" lon="13.14593"><ele>616.6666666666667</ele><time>2026-04-12T12:56:17.431Z</time></trkpt><trkpt lat="43.1839017" lon="13.1461183"><ele>610.0</ele><time>2026-04-12T12:56:18.429Z</time></trkpt><trkpt lat="43.1838183" lon="13.1463183"><ele>610.0</ele><time>2026-04-12T12:56:19.428Z</time></trkpt><trkpt lat="43.18374" lon="13.14653"><ele>610.0</ele><time>2026-04-12T12:56:20.43Z</time></trkpt><trkpt lat="43.1836617" lon="13.146755"><ele>610.0</ele><time>2026-04-12T12:56:21.429Z</time></trkpt><trkpt lat="43.1835883" lon="13.1469833"><ele>611.6666666666667</ele><time>2026-04-12T12:56:22.429Z</time></trkpt><trkpt lat="43.1835183" lon="13.1472167"><ele>613.3333333333334</ele><time>2026-04-12T12:56:23.429Z</time></trkpt><trkpt lat="43.1834483" lon="13.14745"><ele>615.0</ele><time>2026-04-12T12:56:24.432Z</time></trkpt><trkpt lat="43.1833767" lon="13.1476817"><ele>615.3333333333334</ele><time>2026-04-12T12:56:25.431Z</time></trkpt><trkpt lat="43.1833083" lon="13.14791"><ele>615.6666666666667</ele><time>2026-04-12T12:56:26.432Z</time></trkpt><trkpt lat="43.1832517" lon="13.148135"><ele>616.0</ele><time>2026-04-12T12:56:27.431Z</time></trkpt><trkpt lat="43.18321" lon="13.1483733"><ele>615.3333333333334</ele><time>2026-04-12T12:56:28.429Z</time></trkpt><trkpt lat="43.1831833" lon="13.148645"><ele>614.6666666666666</ele><time>2026-04-12T12:56:29.429Z</time></trkpt><trkpt lat="43.18316" lon="13.1489367"><ele>614.0</ele><time>2026-04-12T12:56:30.431Z</time></trkpt><trkpt lat="43.183135" lon="13.1492383"><ele>604.6666666666666</ele><time>2026-04-12T12:56:31.434Z</time></trkpt><trkpt lat="43.1831067" lon="13.1495317"><ele>595.3333333333334</ele><time>2026-04-12T12:56:32.433Z</time></trkpt><trkpt lat="43.18308" lon="13.1498217"><ele>586.0</ele><time>2026-04-12T12:56:33.431Z</time></trkpt><trkpt lat="43.1830583" lon="13.1500983"><ele>585.3333333333334</ele><time>2026-04-12T12:56:34.429Z</time></trkpt><trkpt lat="43.18304" lon="13.1503617"><ele>584.6666666666666</ele><time>2026-04-12T12:56:35.433Z</time></trkpt><trkpt lat="43.18302" lon="13.1506183"><ele>584.0</ele><time>2026-04-12T12:56:36.432Z</time></trkpt><trkpt lat="43.1829967" lon="13.150855"><ele>583.2</ele><time>2026-04-12T12:56:37.433Z</time></trkpt><trkpt lat="43.1829683" lon="13.1510583"><ele>582.4</ele><time>2026-04-12T12:56:38.432Z</time></trkpt><trkpt lat="43.1829267" lon="13.1512167"><ele>581.6</ele><time>2026-04-12T12:56:39.43Z</time></trkpt><trkpt lat="43.182875" lon="13.1513217"><ele>580.8</ele><time>2026-04-12T12:56:40.429Z</time></trkpt><trkpt lat="43.1828117" lon="13.1513917"><ele>580.0</ele><time>2026-04-12T12:56:41.429Z</time></trkpt><trkpt lat="43.1827433" lon="13.15138"><ele>580.0</ele><time>2026-04-12T12:56:42.428Z</time></trkpt><trkpt lat="43.1826883" lon="13.151315"><ele>580.0</ele><time>2026-04-12T12:56:43.429Z</time></trkpt><trkpt lat="43.1826367" lon="13.15122"><ele>580.0</ele><time>2026-04-12T12:56:44.432Z</time></trkpt><trkpt lat="43.1825917" lon="13.15101"><ele>580.0</ele><time>2026-04-12T12:56:45.431Z</time></trkpt><trkpt lat="43.1825367" lon="13.150775"><ele>581.3333333333334</ele><time>2026-04-12T12:56:46.429Z</time></trkpt><trkpt lat="43.182485" lon="13.1505267"><ele>582.6666666666666</ele><time>2026-04-12T12:56:47.427Z</time></trkpt><trkpt lat="43.1824333" lon="13.1502817"><ele>584.0</ele><time>2026-04-12T12:56:48.424Z</time></trkpt><trkpt lat="43.1823867" lon="13.1500533"><ele>579.0</ele><time>2026-04-12T12:56:49.426Z</time></trkpt><trkpt lat="43.18233" lon="13.149845"><ele>574.0</ele><time>2026-04-12T12:56:50.429Z</time></trkpt><trkpt lat="43.182255" lon="13.1496383"><ele>569.0</ele><time>2026-04-12T12:56:51.431Z</time></trkpt><trkpt lat="43.1821633" lon="13.1494483"><ele>569.0</ele><time>2026-04-12T12:56:52.429Z</time></trkpt><trkpt lat="43.1820683" lon="13.1492633"><ele>569.0</ele><time>2026-04-12T12:56:53.429Z</time></trkpt><trkpt lat="43.1819833" lon="13.1490883"><ele>569.0</ele><time>2026-04-12T12:56:54.426Z</time></trkpt><trkpt lat="43.181905" lon="13.1489233"><ele>569.25</ele><time>2026-04-12T12:56:55.428Z</time></trkpt><trkpt lat="43.1818367" lon="13.1487617"><ele>569.5</ele><time>2026-04-12T12:56:56.43Z</time></trkpt><trkpt lat="43.1817867" lon="13.1485867"><ele>569.75</ele><time>2026-04-12T12:56:57.429Z</time></trkpt><trkpt lat="43.1817583" lon="13.1483867"><ele>570.0</ele><time>2026-04-12T12:56:58.427Z</time></trkpt><trkpt lat="43.18175" lon="13.14816"><ele>568.6666666666666</ele><time>2026-04-12T12:56:59.43Z</time></trkpt><trkpt lat="43.1817567" lon="13.1479033"><ele>567.3333333333333</ele><time>2026-04-12T12:57:00.429Z</time></trkpt><trkpt lat="43.18177" lon="13.1476417"><ele>566.0</ele><time>2026-04-12T12:57:01.427Z</time></trkpt><trkpt lat="43.1817833" lon="13.147395"><ele>563.3333333333333</ele><time>2026-04-12T12:57:02.428Z</time></trkpt><trkpt lat="43.1817967" lon="13.1471667"><ele>560.6666666666666</ele><time>2026-04-12T12:57:03.428Z</time></trkpt><trkpt lat="43.1818183" lon="13.1469633"><ele>558.0</ele><time>2026-04-12T12:57:04.427Z</time></trkpt><trkpt lat="43.18185" lon="13.1467833"><ele>558.0</ele><time>2026-04-12T12:57:05.429Z</time></trkpt><trkpt lat="43.18188" lon="13.1466267"><ele>558.0</ele><time>2026-04-12T12:57:06.429Z</time></trkpt><trkpt lat="43.1818967" lon="13.1464817"><ele>558.0</ele><time>2026-04-12T12:57:07.43Z</time></trkpt><trkpt lat="43.1818833" lon="13.146375"><ele>558.0</ele><time>2026-04-12T12:57:08.428Z</time></trkpt><trkpt lat="43.18186" lon="13.146285"><ele>558.0</ele><time>2026-04-12T12:57:09.43Z</time></trkpt><trkpt lat="43.1817917" lon="13.14626"><ele>558.0</ele><time>2026-04-12T12:57:10.432Z</time></trkpt><trkpt lat="43.1817083" lon="13.1462983"><ele>558.0</ele><time>2026-04-12T12:57:11.43Z</time></trkpt><trkpt lat="43.1816433" lon="13.1464183"><ele>558.0</ele><time>2026-04-12T12:57:12.431Z</time></trkpt><trkpt lat="43.18158" lon="13.1465967"><ele>558.0</ele><time>2026-04-12T12:57:13.429Z</time></trkpt><trkpt lat="43.1815117" lon="13.1468083"><ele>558.0</ele><time>2026-04-12T12:57:14.433Z</time></trkpt><trkpt lat="43.1814367" lon="13.1470333"><ele>553.3333333333334</ele><time>2026-04-12T12:57:15.43Z</time></trkpt><trkpt lat="43.1813517" lon="13.1472733"><ele>548.6666666666667</ele><time>2026-04-12T12:57:16.428Z</time></trkpt><trkpt lat="43.1812517" lon="13.1475317"><ele>544.0</ele><time>2026-04-12T12:57:17.43Z</time></trkpt><trkpt lat="43.181145" lon="13.1477917"><ele>544.0</ele><time>2026-04-12T12:57:18.43Z</time></trkpt><trkpt lat="43.18104" lon="13.14804"><ele>544.0</ele><time>2026-04-12T12:57:19.433Z</time></trkpt><trkpt lat="43.18093" lon="13.1482817"><ele>544.0</ele><time>2026-04-12T12:57:20.431Z</time></trkpt><trkpt lat="43.1808283" lon="13.148505"><ele>545.3333333333334</ele><time>2026-04-12T12:57:21.432Z</time></trkpt><trkpt lat="43.18073" lon="13.1487217"><ele>546.6666666666666</ele><time>2026-04-12T12:57:22.43Z</time></trkpt><trkpt lat="43.1806367" lon="13.1489283"><ele>548.0</ele><time>2026-04-12T12:57:23.431Z</time></trkpt><trkpt lat="43.1805467" lon="13.1491233"><ele>542.3333333333333</ele><time>2026-04-12T12:57:24.429Z</time></trkpt><trkpt lat="43.1804583" lon="13.1493133"><ele>536.6666666666666</ele><time>2026-04-12T12:57:25.43Z</time></trkpt><trkpt lat="43.1803967" lon="13.1494967"><ele>531.0</ele><time>2026-04-12T12:57:26.431Z</time></trkpt><trkpt lat="43.18037" lon="13.14969"><ele>531.0</ele><time>2026-04-12T12:57:27.429Z</time></trkpt><trkpt lat="43.180365" lon="13.1499117"><ele>531.0</ele><time>2026-04-12T12:57:28.433Z</time></trkpt><trkpt lat="43.1803733" lon="13.15016"><ele>531.0</ele><time>2026-04-12T12:57:29.428Z</time></trkpt><trkpt lat="43.1803833" lon="13.150435"><ele>530.3333333333334</ele><time>2026-04-12T12:57:30.431Z</time></trkpt><trkpt lat="43.1803917" lon="13.150715"><ele>529.6666666666667</ele><time>2026-04-12T12:57:31.429Z</time></trkpt><trkpt lat="43.1803917" lon="13.1509983"><ele>529.0</ele><time>2026-04-12T12:57:32.436Z</time></trkpt><trkpt lat="43.1803933" lon="13.15127"><ele>529.0</ele><time>2026-04-12T12:57:33.43Z</time></trkpt><trkpt lat="43.180395" lon="13.151535"><ele>529.0</ele><time>2026-04-12T12:57:34.43Z</time></trkpt><trkpt lat="43.1803967" lon="13.15179"><ele>529.0</ele><time>2026-04-12T12:57:35.43Z</time></trkpt><trkpt lat="43.1804033" lon="13.1520467"><ele>530.3333333333334</ele><time>2026-04-12T12:57:36.429Z</time></trkpt><trkpt lat="43.1804317" lon="13.152305"><ele>531.6666666666666</ele><time>2026-04-12T12:57:37.43Z</time></trkpt><trkpt lat="43.1804833" lon="13.1525717"><ele>533.0</ele><time>2026-04-12T12:57:38.432Z</time></trkpt><trkpt lat="43.180555" lon="13.1528417"><ele>533.5</ele><time>2026-04-12T12:57:39.43Z</time></trkpt><trkpt lat="43.1806517" lon="13.1531283"><ele>534.0</ele><time>2026-04-12T12:57:40.43Z</time></trkpt><trkpt lat="43.18077" lon="13.1534217"><ele>526.5</ele><time>2026-04-12T12:57:41.43Z</time></trkpt><trkpt lat="43.180895" lon="13.1537067"><ele>519.0</ele><time>2026-04-12T12:57:42.43Z</time></trkpt><trkpt lat="43.1810217" lon="13.1539767"><ele>517.6666666666666</ele><time>2026-04-12T12:57:43.433Z</time></trkpt><trkpt lat="43.1811383" lon="13.15423"><ele>516.3333333333333</ele><time>2026-04-12T12:57:44.434Z</time></trkpt><trkpt lat="43.1812483" lon="13.1544717"><ele>515.0</ele><time>2026-04-12T12:57:45.431Z</time></trkpt><trkpt lat="43.1813483" lon="13.1547017"><ele>517.3333333333333</ele><time>2026-04-12T12:57:46.429Z</time></trkpt><trkpt lat="43.1814283" lon="13.1549183"><ele>519.6666666666666</ele><time>2026-04-12T12:57:47.431Z</time></trkpt><trkpt lat="43.18149" lon="13.1551167"><ele>522.0</ele><time>2026-04-12T12:57:48.43Z</time></trkpt><trkpt lat="43.1815067" lon="13.1553183"><ele>522.0</ele><time>2026-04-12T12:57:49.429Z</time></trkpt><trkpt lat="43.1814933" lon="13.1555267"><ele>522.0</ele><time>2026-04-12T12:57:50.429Z</time></trkpt><trkpt lat="43.1814717" lon="13.155735"><ele>522.0</ele><time>2026-04-12T12:57:51.429Z</time></trkpt><trkpt lat="43.1814467" lon="13.155935"><ele>522.3333333333334</ele><time>2026-04-12T12:57:52.428Z</time></trkpt><trkpt lat="43.1814017" lon="13.1561217"><ele>522.6666666666667</ele><time>2026-04-12T12:57:53.428Z</time></trkpt><trkpt lat="43.18133" lon="13.1563067"><ele>523.0</ele><time>2026-04-12T12:57:54.43Z</time></trkpt><trkpt lat="43.1812267" lon="13.1565133"><ele>521.6666666666667</ele><time>2026-04-12T12:57:55.43Z</time></trkpt><trkpt lat="43.1811067" lon="13.1567417"><ele>520.3333333333334</ele><time>2026-04-12T12:57:56.433Z</time></trkpt><trkpt lat="43.1809983" lon="13.1569933"><ele>519.0</ele><time>2026-04-12T12:57:57.431Z</time></trkpt><trkpt lat="43.180905" lon="13.1572783"><ele>515.5</ele><time>2026-04-12T12:57:58.431Z</time></trkpt><trkpt lat="43.1808167" lon="13.1575833"><ele>512.0</ele><time>2026-04-12T12:57:59.43Z</time></trkpt><trkpt lat="43.1807383" lon="13.1579033"><ele>538.0</ele><time>2026-04-12T12:58:00.43Z</time></trkpt><trkpt lat="43.1806567" lon="13.1582433"><ele>564.0</ele><time>2026-04-12T12:58:01.432Z</time></trkpt><trkpt lat="43.1805783" lon="13.15857"><ele>564.0</ele><time>2026-04-12T12:58:02.431Z</time></trkpt><trkpt lat="43.1805083" lon="13.158885"><ele>564.0</ele><time>2026-04-12T12:58:03.432Z</time></trkpt><trkpt lat="43.1804533" lon="13.1591783"><ele>564.0</ele><time>2026-04-12T12:58:04.429Z</time></trkpt><trkpt lat="43.1804183" lon="13.1594517"><ele>564.0</ele><time>2026-04-12T12:58:05.43Z</time></trkpt><trkpt lat="43.1803983" lon="13.159715"><ele>564.0</ele><time>2026-04-12T12:58:06.432Z</time></trkpt><trkpt lat="43.1804167" lon="13.1599767"><ele>562.6666666666666</ele><time>2026-04-12T12:58:07.431Z</time></trkpt><trkpt lat="43.18044" lon="13.16025"><ele>561.3333333333333</ele><time>2026-04-12T12:58:08.432Z</time></trkpt><trkpt lat="43.180455" lon="13.1605467"><ele>560.0</ele><time>2026-04-12T12:58:09.429Z</time></trkpt><trkpt lat="43.18047" lon="13.1608367"><ele>559.6666666666666</ele><time>2026-04-12T12:58:10.43Z</time></trkpt><trkpt lat="43.180485" lon="13.1611083"><ele>559.3333333333334</ele><time>2026-04-12T12:58:11.43Z</time></trkpt><trkpt lat="43.18051" lon="13.16135"><ele>559.0</ele><time>2026-04-12T12:58:12.43Z</time></trkpt><trkpt lat="43.1805283" lon="13.1615667"><ele>555.4</ele><time>2026-04-12T12:58:13.429Z</time></trkpt><trkpt lat="43.1805333" lon="13.161755"><ele>551.8</ele><time>2026-04-12T12:58:14.432Z</time></trkpt><trkpt lat="43.1805367" lon="13.1619133"><ele>548.2</ele><time>2026-04-12T12:58:15.43Z</time></trkpt><trkpt lat="43.1805417" lon="13.16205"><ele>544.6</ele><time>2026-04-12T12:58:16.43Z</time></trkpt><trkpt lat="43.1805533" lon="13.1621617"><ele>541.0</ele><time>2026-04-12T12:58:17.43Z</time></trkpt><trkpt lat="43.1805533" lon="13.16226"><ele>541.0</ele><time>2026-04-12T12:58:18.428Z</time></trkpt><trkpt lat="43.1805383" lon="13.162345"><ele>541.0</ele><time>2026-04-12T12:58:19.429Z</time></trkpt><trkpt lat="43.1804617" lon="13.1623633"><ele>541.0</ele><time>2026-04-12T12:58:20.428Z</time></trkpt><trkpt lat="43.1803733" lon="13.1623567"><ele>541.0</ele><time>2026-04-12T12:58:21.429Z</time></trkpt><trkpt lat="43.180255" lon="13.1623317"><ele>541.0</ele><time>2026-04-12T12:58:22.43Z</time></trkpt><trkpt lat="43.18012" lon="13.1623133"><ele>541.0</ele><time>2026-04-12T12:58:23.429Z</time></trkpt><trkpt lat="43.1799633" lon="13.1622717"><ele>541.0</ele><time>2026-04-12T12:58:24.429Z</time></trkpt><trkpt lat="43.1797833" lon="13.16222"><ele>541.0</ele><time>2026-04-12T12:58:25.429Z</time></trkpt><trkpt lat="43.1796" lon="13.1621733"><ele>538.3333333333334</ele><time>2026-04-12T12:58:26.427Z</time></trkpt><trkpt lat="43.1794167" lon="13.1621317"><ele>535.6666666666666</ele><time>2026-04-12T12:58:27.429Z</time></trkpt><trkpt lat="43.1792433" lon="13.1620867"><ele>533.0</ele><time>2026-04-12T12:58:28.431Z</time></trkpt><trkpt lat="43.1790733" lon="13.16203"><ele>528.0</ele><time>2026-04-12T12:58:29.429Z</time></trkpt><trkpt lat="43.178895" lon="13.1619717"><ele>523.0</ele><time>2026-04-12T12:58:30.429Z</time></trkpt><trkpt lat="43.17871" lon="13.1619033"><ele>518.0</ele><time>2026-04-12T12:58:31.431Z</time></trkpt><trkpt lat="43.17853" lon="13.1618433"><ele>518.0</ele><time>2026-04-12T12:58:32.432Z</time></trkpt><trkpt lat="43.17836" lon="13.161775"><ele>518.0</ele><time>2026-04-12T12:58:33.429Z</time></trkpt><trkpt lat="43.178195" lon="13.1617133"><ele>518.0</ele><time>2026-04-12T12:58:34.43Z</time></trkpt><trkpt lat="43.1780383" lon="13.161655"><ele>514.6666666666666</ele><time>2026-04-12T12:58:35.429Z</time></trkpt><trkpt lat="43.1778833" lon="13.1616017"><ele>511.33333333333337</ele><time>2026-04-12T12:58:36.429Z</time></trkpt><trkpt lat="43.1777367" lon="13.1615517"><ele>508.0</ele><time>2026-04-12T12:58:37.431Z</time></trkpt><trkpt lat="43.1775967" lon="13.1615033"><ele>508.2</ele><time>2026-04-12T12:58:38.432Z</time></trkpt><trkpt lat="43.17747" lon="13.1614733"><ele>508.4</ele><time>2026-04-12T12:58:39.43Z</time></trkpt><trkpt lat="43.1773633" lon="13.1614867"><ele>508.59999999999997</ele><time>2026-04-12T12:58:40.431Z</time></trkpt><trkpt lat="43.1772833" lon="13.1615517"><ele>508.79999999999995</ele><time>2026-04-12T12:58:41.432Z</time></trkpt><trkpt lat="43.1772383" lon="13.1616383"><ele>509.0</ele><time>2026-04-12T12:58:42.44Z</time></trkpt><trkpt lat="43.1772283" lon="13.1617467"><ele>509.0</ele><time>2026-04-12T12:58:43.428Z</time></trkpt><trkpt lat="43.1772517" lon="13.1618633"><ele>509.0</ele><time>2026-04-12T12:58:44.429Z</time></trkpt><trkpt lat="43.177285" lon="13.1619733"><ele>509.0</ele><time>2026-04-12T12:58:45.427Z</time></trkpt><trkpt lat="43.1773433" lon="13.162065"><ele>509.0</ele><time>2026-04-12T12:58:46.433Z</time></trkpt><trkpt lat="43.1774133" lon="13.1621467"><ele>509.0</ele><time>2026-04-12T12:58:47.428Z</time></trkpt><trkpt lat="43.1775833" lon="13.1622133"><ele>508.66666666666663</ele><time>2026-04-12T12:58:48.429Z</time></trkpt><trkpt lat="43.1777633" lon="13.1623033"><ele>508.33333333333337</ele><time>2026-04-12T12:58:49.43Z</time></trkpt><trkpt lat="43.1779317" lon="13.1624167"><ele>508.0</ele><time>2026-04-12T12:58:50.427Z</time></trkpt><trkpt lat="43.1781017" lon="13.1625483"><ele>506.0</ele><time>2026-04-12T12:58:51.429Z</time></trkpt><trkpt lat="43.1782817" lon="13.1626983"><ele>504.0</ele><time>2026-04-12T12:58:52.429Z</time></trkpt><trkpt lat="43.1784633" lon="13.1628717"><ele>502.0</ele><time>2026-04-12T12:58:53.429Z</time></trkpt><trkpt lat="43.1786433" lon="13.1630583"><ele>510.5</ele><time>2026-04-12T12:58:54.431Z</time></trkpt><trkpt lat="43.1788233" lon="13.1632517"><ele>519.0</ele><time>2026-04-12T12:58:55.431Z</time></trkpt><trkpt lat="43.1790167" lon="13.16345"><ele>510.0</ele><time>2026-04-12T12:58:56.432Z</time></trkpt><trkpt lat="43.1792283" lon="13.1636367"><ele>501.0</ele><time>2026-04-12T12:58:57.43Z</time></trkpt><trkpt lat="43.179435" lon="13.1638033"><ele>501.0</ele><time>2026-04-12T12:58:58.436Z</time></trkpt><trkpt lat="43.179635" lon="13.1639483"><ele>501.0</ele><time>2026-04-12T12:58:59.43Z</time></trkpt><trkpt lat="43.1798233" lon="13.1640833"><ele>501.0</ele><time>2026-04-12T12:59:00.43Z</time></trkpt><trkpt lat="43.1800017" lon="13.1642133"><ele>502.33333333333337</ele><time>2026-04-12T12:59:01.43Z</time></trkpt><trkpt lat="43.1801717" lon="13.16434"><ele>503.6666666666667</ele><time>2026-04-12T12:59:02.435Z</time></trkpt><trkpt lat="43.180315" lon="13.1644767"><ele>505.0</ele><time>2026-04-12T12:59:03.431Z</time></trkpt><trkpt lat="43.1804367" lon="13.1646233"><ele>505.0</ele><time>2026-04-12T12:59:04.429Z</time></trkpt><trkpt lat="43.1805267" lon="13.1647767"><ele>505.0</ele><time>2026-04-12T12:59:05.428Z</time></trkpt><trkpt lat="43.1805733" lon="13.1649267"><ele>505.0</ele><time>2026-04-12T12:59:06.43Z</time></trkpt><trkpt lat="43.1805833" lon="13.1650583"><ele>505.0</ele><time>2026-04-12T12:59:07.43Z</time></trkpt><trkpt lat="43.1805617" lon="13.1651933"><ele>506.6</ele><time>2026-04-12T12:59:08.433Z</time></trkpt><trkpt lat="43.1804933" lon="13.1653133"><ele>508.2</ele><time>2026-04-12T12:59:09.429Z</time></trkpt><trkpt lat="43.18041" lon="13.16542"><ele>509.79999999999995</ele><time>2026-04-12T12:59:10.431Z</time></trkpt><trkpt lat="43.1803267" lon="13.1655183"><ele>511.4</ele><time>2026-04-12T12:59:11.429Z</time></trkpt><trkpt lat="43.18025" lon="13.1656217"><ele>513.0</ele><time>2026-04-12T12:59:12.431Z</time></trkpt><trkpt lat="43.1801583" lon="13.16576"><ele>513.0</ele><time>2026-04-12T12:59:13.429Z</time></trkpt><trkpt lat="43.1800467" lon="13.1659333"><ele>513.0</ele><time>2026-04-12T12:59:14.431Z</time></trkpt><trkpt lat="43.1799283" lon="13.1661083"><ele>513.0</ele><time>2026-04-12T12:59:15.433Z</time></trkpt><trkpt lat="43.1797883" lon="13.1662717"><ele>519.3333333333334</ele><time>2026-04-12T12:59:16.434Z</time></trkpt><trkpt lat="43.1796117" lon="13.1664283"><ele>525.6666666666667</ele><time>2026-04-12T12:59:17.432Z</time></trkpt><trkpt lat="43.1794283" lon="13.1665933"><ele>532.0</ele><time>2026-04-12T12:59:18.432Z</time></trkpt><trkpt lat="43.17924" lon="13.1667733"><ele>532.0</ele><time>2026-04-12T12:59:19.43Z</time></trkpt><trkpt lat="43.1790717" lon="13.166975"><ele>532.0</ele><time>2026-04-12T12:59:20.442Z</time></trkpt><trkpt lat="43.17893" lon="13.1671767"><ele>532.0</ele><time>2026-04-12T12:59:21.433Z</time></trkpt><trkpt lat="43.1788117" lon="13.1673567"><ele>533.0</ele><time>2026-04-12T12:59:22.429Z</time></trkpt><trkpt lat="43.1787017" lon="13.167505"><ele>534.0</ele><time>2026-04-12T12:59:23.431Z</time></trkpt><trkpt lat="43.1785883" lon="13.1676083"><ele>535.0</ele><time>2026-04-12T12:59:24.43Z</time></trkpt><trkpt lat="43.1784483" lon="13.16768"><ele>536.0</ele><time>2026-04-12T12:59:25.431Z</time></trkpt><trkpt lat="43.178285" lon="13.1677267"><ele>535.6666666666666</ele><time>2026-04-12T12:59:26.433Z</time></trkpt><trkpt lat="43.1780983" lon="13.167745"><ele>535.3333333333334</ele><time>2026-04-12T12:59:27.43Z</time></trkpt><trkpt lat="43.177905" lon="13.1677367"><ele>535.0</ele><time>2026-04-12T12:59:28.434Z</time></trkpt><trkpt lat="43.1777017" lon="13.1676867"><ele>535.0</ele><time>2026-04-12T12:59:29.429Z</time></trkpt><trkpt lat="43.1774817" lon="13.1676417"><ele>535.0</ele><time>2026-04-12T12:59:30.428Z</time></trkpt><trkpt lat="43.177245" lon="13.1676017"><ele>534.0</ele><time>2026-04-12T12:59:31.43Z</time></trkpt><trkpt lat="43.1770133" lon="13.1675667"><ele>533.0</ele><time>2026-04-12T12:59:32.431Z</time></trkpt><trkpt lat="43.1767967" lon="13.1675367"><ele>533.0</ele><time>2026-04-12T12:59:33.435Z</time></trkpt><trkpt lat="43.1766017" lon="13.16751"><ele>533.0</ele><time>2026-04-12T12:59:34.429Z</time></trkpt><trkpt lat="43.176435" lon="13.16749"><ele>533.0</ele><time>2026-04-12T12:59:35.427Z</time></trkpt><trkpt lat="43.176305" lon="13.167495"><ele>536.8</ele><time>2026-04-12T12:59:36.429Z</time></trkpt><trkpt lat="43.1762117" lon="13.1675333"><ele>540.5999999999999</ele><time>2026-04-12T12:59:37.429Z</time></trkpt><trkpt lat="43.176155" lon="13.16759"><ele>544.4000000000001</ele><time>2026-04-12T12:59:38.434Z</time></trkpt><trkpt lat="43.1761233" lon="13.1676667"><ele>548.2</ele><time>2026-04-12T12:59:39.43Z</time></trkpt><trkpt lat="43.1761483" lon="13.1678133"><ele>552.0</ele><time>2026-04-12T12:59:40.431Z</time></trkpt><trkpt lat="43.1761817" lon="13.1679967"><ele>555.0</ele><time>2026-04-12T12:59:41.429Z</time></trkpt><trkpt lat="43.1762267" lon="13.1682133"><ele>558.0</ele><time>2026-04-12T12:59:42.431Z</time></trkpt><trkpt lat="43.17628" lon="13.1684417"><ele>561.0</ele><time>2026-04-12T12:59:43.429Z</time></trkpt><trkpt lat="43.1763517" lon="13.1686933"><ele>561.0</ele><time>2026-04-12T12:59:44.429Z</time></trkpt><trkpt lat="43.176435" lon="13.1689417"><ele>561.0</ele><time>2026-04-12T12:59:45.429Z</time></trkpt><trkpt lat="43.176535" lon="13.1691917"><ele>561.0</ele><time>2026-04-12T12:59:46.428Z</time></trkpt><trkpt lat="43.17665" lon="13.169445"><ele>560.6666666666666</ele><time>2026-04-12T12:59:47.433Z</time></trkpt><trkpt lat="43.1767717" lon="13.1697017"><ele>560.3333333333333</ele><time>2026-04-12T12:59:48.431Z</time></trkpt><trkpt lat="43.1768917" lon="13.16996"><ele>560.0</ele><time>2026-04-12T12:59:49.432Z</time></trkpt><trkpt lat="43.177005" lon="13.1702267"><ele>560.0</ele><time>2026-04-12T12:59:50.433Z</time></trkpt><trkpt lat="43.1771017" lon="13.17049"><ele>560.0</ele><time>2026-04-12T12:59:51.429Z</time></trkpt><trkpt lat="43.1771883" lon="13.1707417"><ele>560.0</ele><time>2026-04-12T12:59:52.436Z</time></trkpt><trkpt lat="43.1772517" lon="13.171"><ele>563.6666666666666</ele><time>2026-04-12T12:59:53.431Z</time></trkpt><trkpt lat="43.177305" lon="13.1712783"><ele>567.3333333333334</ele><time>2026-04-12T12:59:54.433Z</time></trkpt><trkpt lat="43.177345" lon="13.17158"><ele>571.0</ele><time>2026-04-12T12:59:55.434Z</time></trkpt><trkpt lat="43.1773717" lon="13.1719017"><ele>561.0</ele><time>2026-04-12T12:59:56.433Z</time></trkpt><trkpt lat="43.177395" lon="13.1722383"><ele>551.0</ele><time>2026-04-12T12:59:57.431Z</time></trkpt><trkpt lat="43.1774167" lon="13.1725867"><ele>551.0</ele><time>2026-04-12T12:59:58.431Z</time></trkpt><trkpt lat="43.177435" lon="13.1729433"><ele>551.0</ele><time>2026-04-12T12:59:59.431Z</time></trkpt><trkpt lat="43.177445" lon="13.1733017"><ele>555.0</ele><time>2026-04-12T13:00:00.43Z</time></trkpt><trkpt lat="43.177445" lon="13.173665"><ele>559.0</ele><time>2026-04-12T13:00:01.432Z</time></trkpt><trkpt lat="43.17743" lon="13.1740383"><ele>560.0</ele><time>2026-04-12T13:00:02.429Z</time></trkpt><trkpt lat="43.1774067" lon="13.1744217"><ele>561.0</ele><time>2026-04-12T13:00:03.429Z</time></trkpt><trkpt lat="43.1773633" lon="13.17481"><ele>579.0</ele><time>2026-04-12T13:00:04.426Z</time></trkpt><trkpt lat="43.177315" lon="13.17521"><ele>597.0</ele><time>2026-04-12T13:00:05.429Z</time></trkpt><trkpt lat="43.17727" lon="13.1756167"><ele>596.5</ele><time>2026-04-12T13:00:06.43Z</time></trkpt><trkpt lat="43.1772367" lon="13.1760317"><ele>596.0</ele><time>2026-04-12T13:00:07.428Z</time></trkpt><trkpt lat="43.1772083" lon="13.17644"><ele>596.5</ele><time>2026-04-12T13:00:08.432Z</time></trkpt><trkpt lat="43.1771867" lon="13.1768217"><ele>597.0</ele><time>2026-04-12T13:00:09.427Z</time></trkpt><trkpt lat="43.1771717" lon="13.17719"><ele>596.5</ele><time>2026-04-12T13:00:10.427Z</time></trkpt><trkpt lat="43.17715" lon="13.1775617"><ele>596.0</ele><time>2026-04-12T13:00:11.426Z</time></trkpt><trkpt lat="43.1771317" lon="13.1779533"><ele>595.0</ele><time>2026-04-12T13:00:12.429Z</time></trkpt><trkpt lat="43.1771167" lon="13.17835"><ele>594.0</ele><time>2026-04-12T13:00:13.427Z</time></trkpt><trkpt lat="43.1771067" lon="13.1787383"><ele>591.0</ele><time>2026-04-12T13:00:14.434Z</time></trkpt><trkpt lat="43.177085" lon="13.1791167"><ele>588.0</ele><time>2026-04-12T13:00:15.428Z</time></trkpt><trkpt lat="43.1770567" lon="13.1794967"><ele>585.5</ele><time>2026-04-12T13:00:16.428Z</time></trkpt><trkpt lat="43.1770217" lon="13.179885"><ele>583.0</ele><time>2026-04-12T13:00:17.427Z</time></trkpt><trkpt lat="43.1769883" lon="13.1802683"><ele>583.0</ele><time>2026-04-12T13:00:18.429Z</time></trkpt><trkpt lat="43.1769583" lon="13.1806483"><ele>583.0</ele><time>2026-04-12T13:00:19.433Z</time></trkpt><trkpt lat="43.17692" lon="13.1810117"><ele>580.0</ele><time>2026-04-12T13:00:20.431Z</time></trkpt><trkpt lat="43.1768817" lon="13.1813567"><ele>577.0</ele><time>2026-04-12T13:00:21.43Z</time></trkpt><trkpt lat="43.17684" lon="13.1816883"><ele>571.5</ele><time>2026-04-12T13:00:22.426Z</time></trkpt><trkpt lat="43.1767917" lon="13.182005"><ele>566.0</ele><time>2026-04-12T13:00:23.429Z</time></trkpt><trkpt lat="43.1767267" lon="13.182315"><ele>558.5</ele><time>2026-04-12T13:00:24.424Z</time></trkpt><trkpt lat="43.1766517" lon="13.18262"><ele>551.0</ele><time>2026-04-12T13:00:25.429Z</time></trkpt><trkpt lat="43.1765467" lon="13.18291"><ele>557.3333333333333</ele><time>2026-04-12T13:00:26.427Z</time></trkpt><trkpt lat="43.17645" lon="13.1831917"><ele>563.6666666666666</ele><time>2026-04-12T13:00:27.426Z</time></trkpt><trkpt lat="43.1763683" lon="13.1834733"><ele>570.0</ele><time>2026-04-12T13:00:28.427Z</time></trkpt><trkpt lat="43.1763117" lon="13.1837467"><ele>570.0</ele><time>2026-04-12T13:00:29.426Z</time></trkpt><trkpt lat="43.176275" lon="13.184"><ele>570.0</ele><time>2026-04-12T13:00:30.428Z</time></trkpt><trkpt lat="43.1762517" lon="13.18422"><ele>570.0</ele><time>2026-04-12T13:00:31.432Z</time></trkpt><trkpt lat="43.1762383" lon="13.184405"><ele>561.25</ele><time>2026-04-12T13:00:32.436Z</time></trkpt><trkpt lat="43.1762233" lon="13.1845567"><ele>552.5</ele><time>2026-04-12T13:00:33.43Z</time></trkpt><trkpt lat="43.17619" lon="13.1846667"><ele>543.75</ele><time>2026-04-12T13:00:34.425Z</time></trkpt><trkpt lat="43.1761433" lon="13.1847333"><ele>535.0</ele><time>2026-04-12T13:00:35.431Z</time></trkpt><trkpt lat="43.1759783" lon="13.1846117"><ele>535.0</ele><time>2026-04-12T13:00:37.432Z</time></trkpt><trkpt lat="43.1758583" lon="13.1845"><ele>535.0</ele><time>2026-04-12T13:00:38.434Z</time></trkpt><trkpt lat="43.17569" lon="13.1843617"><ele>535.0</ele><time>2026-04-12T13:00:39.428Z</time></trkpt><trkpt lat="43.1754983" lon="13.18424"><ele>529.6666666666667</ele><time>2026-04-12T13:00:40.432Z</time></trkpt><trkpt lat="43.1753017" lon="13.1841533"><ele>524.3333333333334</ele><time>2026-04-12T13:00:41.43Z</time></trkpt><trkpt lat="43.1751117" lon="13.1840683"><ele>519.0</ele><time>2026-04-12T13:00:42.428Z</time></trkpt><trkpt lat="43.1749483" lon="13.1839783"><ele>522.25</ele><time>2026-04-12T13:00:43.429Z</time></trkpt><trkpt lat="43.174805" lon="13.1838767"><ele>525.5</ele><time>2026-04-12T13:00:44.429Z</time></trkpt><trkpt lat="43.17468" lon="13.1837933"><ele>528.75</ele><time>2026-04-12T13:00:45.431Z</time></trkpt><trkpt lat="43.17456" lon="13.1837383"><ele>532.0</ele><time>2026-04-12T13:00:46.428Z</time></trkpt><trkpt lat="43.1744533" lon="13.183735"><ele>532.0</ele><time>2026-04-12T13:00:47.429Z</time></trkpt><trkpt lat="43.174355" lon="13.183785"><ele>532.0</ele><time>2026-04-12T13:00:48.431Z</time></trkpt><trkpt lat="43.1742717" lon="13.1838733"><ele>532.0</ele><time>2026-04-12T13:00:49.431Z</time></trkpt><trkpt lat="43.17421" lon="13.1840133"><ele>532.0</ele><time>2026-04-12T13:00:50.433Z</time></trkpt><trkpt lat="43.1741867" lon="13.1841867"><ele>528.3333333333334</ele><time>2026-04-12T13:00:51.43Z</time></trkpt><trkpt lat="43.17422" lon="13.1843683"><ele>524.6666666666666</ele><time>2026-04-12T13:00:52.431Z</time></trkpt><trkpt lat="43.1743083" lon="13.184545"><ele>521.0</ele><time>2026-04-12T13:00:53.429Z</time></trkpt><trkpt lat="43.17444" lon="13.184715"><ele>523.3333333333333</ele><time>2026-04-12T13:00:54.428Z</time></trkpt><trkpt lat="43.1745867" lon="13.1848933"><ele>525.6666666666666</ele><time>2026-04-12T13:00:55.429Z</time></trkpt><trkpt lat="43.1747533" lon="13.1850767"><ele>528.0</ele><time>2026-04-12T13:00:56.43Z</time></trkpt><trkpt lat="43.17491" lon="13.1852533"><ele>519.6666666666666</ele><time>2026-04-12T13:00:57.428Z</time></trkpt><trkpt lat="43.1750683" lon="13.1854133"><ele>511.3333333333333</ele><time>2026-04-12T13:00:58.429Z</time></trkpt><trkpt lat="43.1752233" lon="13.1855517"><ele>503.0</ele><time>2026-04-12T13:00:59.431Z</time></trkpt><trkpt lat="43.1753717" lon="13.1856667"><ele>502.25</ele><time>2026-04-12T13:01:00.431Z</time></trkpt><trkpt lat="43.1755133" lon="13.185755"><ele>501.5</ele><time>2026-04-12T13:01:01.431Z</time></trkpt><trkpt lat="43.1756317" lon="13.1858383"><ele>500.75</ele><time>2026-04-12T13:01:02.432Z</time></trkpt><trkpt lat="43.175725" lon="13.1859317"><ele>500.0</ele><time>2026-04-12T13:01:03.433Z</time></trkpt><trkpt lat="43.175775" lon="13.18606"><ele>499.0</ele><time>2026-04-12T13:01:04.427Z</time></trkpt><trkpt lat="43.1757883" lon="13.1861983"><ele>498.0</ele><time>2026-04-12T13:01:05.432Z</time></trkpt><trkpt lat="43.17578" lon="13.1863317"><ele>497.0</ele><time>2026-04-12T13:01:06.429Z</time></trkpt><trkpt lat="43.17576" lon="13.1864617"><ele>496.0</ele><time>2026-04-12T13:01:07.433Z</time></trkpt><trkpt lat="43.1757217" lon="13.1866017"><ele>495.0</ele><time>2026-04-12T13:01:08.428Z</time></trkpt><trkpt lat="43.1756917" lon="13.1867317"><ele>497.0</ele><time>2026-04-12T13:01:09.43Z</time></trkpt><trkpt lat="43.1756517" lon="13.1868717"><ele>499.0</ele><time>2026-04-12T13:01:10.429Z</time></trkpt><trkpt lat="43.1756267" lon="13.1869967"><ele>501.0</ele><time>2026-04-12T13:01:11.431Z</time></trkpt><trkpt lat="43.1756033" lon="13.1871383"><ele>503.0</ele><time>2026-04-12T13:01:12.439Z</time></trkpt><trkpt lat="43.1755733" lon="13.1872733"><ele>505.0</ele><time>2026-04-12T13:01:13.433Z</time></trkpt><trkpt lat="43.1755367" lon="13.1874033"><ele>506.0</ele><time>2026-04-12T13:01:14.43Z</time></trkpt><trkpt lat="43.1754917" lon="13.187535"><ele>507.0</ele><time>2026-04-12T13:01:15.428Z</time></trkpt><trkpt lat="43.1754467" lon="13.1876817"><ele>508.0</ele><time>2026-04-12T13:01:16.431Z</time></trkpt><trkpt lat="43.1754083" lon="13.187825"><ele>509.0</ele><time>2026-04-12T13:01:17.431Z</time></trkpt><trkpt lat="43.17539" lon="13.1879667"><ele>510.0</ele><time>2026-04-12T13:01:18.431Z</time></trkpt><trkpt lat="43.17538" lon="13.1881033"><ele>511.0</ele><time>2026-04-12T13:01:19.429Z</time></trkpt><trkpt lat="43.1753817" lon="13.1882433"><ele>512.0</ele><time>2026-04-12T13:01:20.431Z</time></trkpt><trkpt lat="43.17539" lon="13.1883767"><ele>513.0</ele><time>2026-04-12T13:01:21.432Z</time></trkpt><trkpt lat="43.175395" lon="13.1885233"><ele>514.0</ele><time>2026-04-12T13:01:22.43Z</time></trkpt><trkpt lat="43.1753933" lon="13.1886783"><ele>515.0</ele><time>2026-04-12T13:01:23.43Z</time></trkpt><trkpt lat="43.1753883" lon="13.1888367"><ele>515.0</ele><time>2026-04-12T13:01:24.431Z</time></trkpt><trkpt lat="43.1753783" lon="13.1889967"><ele>515.0</ele><time>2026-04-12T13:01:25.43Z</time></trkpt><trkpt lat="43.1753683" lon="13.1891567"><ele>515.0</ele><time>2026-04-12T13:01:26.429Z</time></trkpt><trkpt lat="43.1753583" lon="13.1893133"><ele>515.0</ele><time>2026-04-12T13:01:27.43Z</time></trkpt><trkpt lat="43.175345" lon="13.1894717"><ele>514.25</ele><time>2026-04-12T13:01:28.429Z</time></trkpt><trkpt lat="43.1753333" lon="13.18963"><ele>513.5</ele><time>2026-04-12T13:01:29.429Z</time></trkpt><trkpt lat="43.17532" lon="13.1897867"><ele>512.75</ele><time>2026-04-12T13:01:30.43Z</time></trkpt><trkpt lat="43.175305" lon="13.1899417"><ele>512.0</ele><time>2026-04-12T13:01:31.43Z</time></trkpt><trkpt lat="43.175275" lon="13.190095"><ele>509.25</ele><time>2026-04-12T13:01:32.433Z</time></trkpt><trkpt lat="43.1752417" lon="13.190245"><ele>506.5</ele><time>2026-04-12T13:01:33.43Z</time></trkpt><trkpt lat="43.1752017" lon="13.1903883"><ele>503.75</ele><time>2026-04-12T13:01:34.43Z</time></trkpt><trkpt lat="43.175155" lon="13.190525"><ele>501.0</ele><time>2026-04-12T13:01:35.431Z</time></trkpt><trkpt lat="43.1750933" lon="13.1906583"><ele>503.5</ele><time>2026-04-12T13:01:36.428Z</time></trkpt><trkpt lat="43.17503" lon="13.19079"><ele>506.0</ele><time>2026-04-12T13:01:37.43Z</time></trkpt><trkpt lat="43.17497" lon="13.1909267"><ele>508.5</ele><time>2026-04-12T13:01:38.43Z</time></trkpt><trkpt lat="43.1749117" lon="13.1910633"><ele>511.0</ele><time>2026-04-12T13:01:39.428Z</time></trkpt><trkpt lat="43.1748483" lon="13.1912017"><ele>511.0</ele><time>2026-04-12T13:01:40.425Z</time></trkpt><trkpt lat="43.1747833" lon="13.1913417"><ele>511.0</ele><time>2026-04-12T13:01:41.428Z</time></trkpt><trkpt lat="43.1747283" lon="13.1914817"><ele>511.0</ele><time>2026-04-12T13:01:42.43Z</time></trkpt><trkpt lat="43.1746733" lon="13.1916133"><ele>511.0</ele><time>2026-04-12T13:01:43.429Z</time></trkpt><trkpt lat="43.17461" lon="13.1917383"><ele>505.4</ele><time>2026-04-12T13:01:44.431Z</time></trkpt><trkpt lat="43.174545" lon="13.1918583"><ele>499.8</ele><time>2026-04-12T13:01:45.429Z</time></trkpt><trkpt lat="43.1744767" lon="13.1919717"><ele>494.19999999999993</ele><time>2026-04-12T13:01:46.43Z</time></trkpt><trkpt lat="43.1744067" lon="13.1920783"><ele>488.59999999999997</ele><time>2026-04-12T13:01:47.429Z</time></trkpt><trkpt lat="43.174325" lon="13.192165"><ele>483.0</ele><time>2026-04-12T13:01:48.43Z</time></trkpt><trkpt lat="43.1742417" lon="13.192245"><ele>483.0</ele><time>2026-04-12T13:01:49.427Z</time></trkpt><trkpt lat="43.1741533" lon="13.1923117"><ele>483.0</ele><time>2026-04-12T13:01:50.429Z</time></trkpt><trkpt lat="43.17407" lon="13.19237"><ele>483.0</ele><time>2026-04-12T13:01:51.429Z</time></trkpt><trkpt lat="43.1739917" lon="13.1924233"><ele>483.0</ele><time>2026-04-12T13:01:52.431Z</time></trkpt><trkpt lat="43.173925" lon="13.1924767"><ele>483.0</ele><time>2026-04-12T13:01:53.425Z</time></trkpt><trkpt lat="43.1738667" lon="13.1925433"><ele>483.0</ele><time>2026-04-12T13:01:54.426Z</time></trkpt><trkpt lat="43.17382" lon="13.192605"><ele>481.4</ele><time>2026-04-12T13:01:55.429Z</time></trkpt><trkpt lat="43.1737567" lon="13.1927433"><ele>479.79999999999995</ele><time>2026-04-12T13:01:57.428Z</time></trkpt><trkpt lat="43.1737717" lon="13.1928733"><ele>478.2</ele><time>2026-04-12T13:01:59.43Z</time></trkpt><trkpt lat="43.1738683" lon="13.1929383"><ele>476.6</ele><time>2026-04-12T13:02:01.43Z</time></trkpt><trkpt lat="43.1739417" lon="13.19296"><ele>475.0</ele><time>2026-04-12T13:02:02.441Z</time></trkpt><trkpt lat="43.1740283" lon="13.1929767"><ele>473.0</ele><time>2026-04-12T13:02:03.431Z</time></trkpt><trkpt lat="43.1741267" lon="13.1929967"><ele>471.0</ele><time>2026-04-12T13:02:04.43Z</time></trkpt><trkpt lat="43.1742367" lon="13.19303"><ele>469.0</ele><time>2026-04-12T13:02:05.428Z</time></trkpt><trkpt lat="43.1743467" lon="13.1930817"><ele>467.0</ele><time>2026-04-12T13:02:06.43Z</time></trkpt><trkpt lat="43.17446" lon="13.1931383"><ele>465.0</ele><time>2026-04-12T13:02:07.432Z</time></trkpt><trkpt lat="43.17457" lon="13.1931883"><ele>463.75</ele><time>2026-04-12T13:02:08.429Z</time></trkpt><trkpt lat="43.1746833" lon="13.193235"><ele>462.5</ele><time>2026-04-12T13:02:09.43Z</time></trkpt><trkpt lat="43.1748017" lon="13.193275"><ele>461.25</ele><time>2026-04-12T13:02:10.428Z</time></trkpt><trkpt lat="43.1749233" lon="13.193305"><ele>460.0</ele><time>2026-04-12T13:02:11.431Z</time></trkpt><trkpt lat="43.1750467" lon="13.1933117"><ele>458.25</ele><time>2026-04-12T13:02:12.431Z</time></trkpt><trkpt lat="43.1751733" lon="13.1932967"><ele>456.5</ele><time>2026-04-12T13:02:13.429Z</time></trkpt><trkpt lat="43.1753117" lon="13.1932567"><ele>454.75</ele><time>2026-04-12T13:02:14.441Z</time></trkpt><trkpt lat="43.1754783" lon="13.1932083"><ele>453.0</ele><time>2026-04-12T13:02:15.429Z</time></trkpt><trkpt lat="43.1756483" lon="13.1931717"><ele>451.66666666666663</ele><time>2026-04-12T13:02:16.43Z</time></trkpt><trkpt lat="43.175835" lon="13.1931733"><ele>450.3333333333333</ele><time>2026-04-12T13:02:17.431Z</time></trkpt><trkpt lat="43.1760267" lon="13.19321"><ele>449.0</ele><time>2026-04-12T13:02:18.431Z</time></trkpt><trkpt lat="43.1762167" lon="13.19325"><ele>449.0</ele><time>2026-04-12T13:02:19.429Z</time></trkpt><trkpt lat="43.1763983" lon="13.1932767"><ele>449.0</ele><time>2026-04-12T13:02:20.435Z</time></trkpt><trkpt lat="43.176575" lon="13.1932833"><ele>449.0</ele><time>2026-04-12T13:02:21.427Z</time></trkpt><trkpt lat="43.17675" lon="13.1932533"><ele>447.66666666666663</ele><time>2026-04-12T13:02:22.431Z</time></trkpt><trkpt lat="43.1769367" lon="13.1932"><ele>446.33333333333337</ele><time>2026-04-12T13:02:23.431Z</time></trkpt><trkpt lat="43.1771217" lon="13.1931417"><ele>445.0</ele><time>2026-04-12T13:02:24.432Z</time></trkpt><trkpt lat="43.1773017" lon="13.193085"><ele>439.6666666666667</ele><time>2026-04-12T13:02:25.429Z</time></trkpt><trkpt lat="43.177465" lon="13.1930283"><ele>434.33333333333337</ele><time>2026-04-12T13:02:26.434Z</time></trkpt><trkpt lat="43.1776083" lon="13.1929617"><ele>429.0</ele><time>2026-04-12T13:02:27.431Z</time></trkpt><trkpt lat="43.1777317" lon="13.1928617"><ele>429.0</ele><time>2026-04-12T13:02:28.431Z</time></trkpt><trkpt lat="43.17782" lon="13.1927133"><ele>429.0</ele><time>2026-04-12T13:02:29.432Z</time></trkpt><trkpt lat="43.17788" lon="13.1925"><ele>429.0</ele><time>2026-04-12T13:02:30.43Z</time></trkpt><trkpt lat="43.1779167" lon="13.192255"><ele>428.0</ele><time>2026-04-12T13:02:31.432Z</time></trkpt><trkpt lat="43.1779517" lon="13.1920167"><ele>427.0</ele><time>2026-04-12T13:02:32.433Z</time></trkpt><trkpt lat="43.1780067" lon="13.19179"><ele>426.0</ele><time>2026-04-12T13:02:33.431Z</time></trkpt><trkpt lat="43.1780867" lon="13.1916067"><ele>424.25</ele><time>2026-04-12T13:02:34.434Z</time></trkpt><trkpt lat="43.1781867" lon="13.1914783"><ele>422.5</ele><time>2026-04-12T13:02:35.431Z</time></trkpt><trkpt lat="43.1783067" lon="13.191405"><ele>420.75</ele><time>2026-04-12T13:02:36.436Z</time></trkpt><trkpt lat="43.1784367" lon="13.1913767"><ele>419.0</ele><time>2026-04-12T13:02:37.43Z</time></trkpt><trkpt lat="43.178575" lon="13.1913633"><ele>419.0</ele><time>2026-04-12T13:02:38.454Z</time></trkpt><trkpt lat="43.1787117" lon="13.1913733"><ele>419.0</ele><time>2026-04-12T13:02:39.435Z</time></trkpt><trkpt lat="43.1788467" lon="13.1914033"><ele>419.0</ele><time>2026-04-12T13:02:40.43Z</time></trkpt><trkpt lat="43.178965" lon="13.1914233"><ele>419.0</ele><time>2026-04-12T13:02:41.433Z</time></trkpt><trkpt lat="43.1790717" lon="13.1914033"><ele>416.6</ele><time>2026-04-12T13:02:42.429Z</time></trkpt><trkpt lat="43.1791617" lon="13.1913367"><ele>414.2</ele><time>2026-04-12T13:02:43.43Z</time></trkpt><trkpt lat="43.1792217" lon="13.1912283"><ele>411.8</ele><time>2026-04-12T13:02:44.431Z</time></trkpt><trkpt lat="43.17924" lon="13.1911083"><ele>409.40000000000003</ele><time>2026-04-12T13:02:45.432Z</time></trkpt><trkpt lat="43.1792333" lon="13.1909767"><ele>407.0</ele><time>2026-04-12T13:02:46.431Z</time></trkpt><trkpt lat="43.1792017" lon="13.1908533"><ele>406.99999999999994</ele><time>2026-04-12T13:02:47.43Z</time></trkpt><trkpt lat="43.1791533" lon="13.1907417"><ele>407.0</ele><time>2026-04-12T13:02:48.428Z</time></trkpt><trkpt lat="43.1791033" lon="13.19064"><ele>407.0</ele><time>2026-04-12T13:02:49.43Z</time></trkpt><trkpt lat="43.1790583" lon="13.1905383"><ele>407.0</ele><time>2026-04-12T13:02:50.429Z</time></trkpt><trkpt lat="43.1790167" lon="13.19044"><ele>406.99999999999994</ele><time>2026-04-12T13:02:51.433Z</time></trkpt><trkpt lat="43.1789833" lon="13.1903367"><ele>407.0</ele><time>2026-04-12T13:02:52.431Z</time></trkpt><trkpt lat="43.1789717" lon="13.19023"><ele>405.20000000000005</ele><time>2026-04-12T13:02:53.429Z</time></trkpt><trkpt lat="43.17898" lon="13.190135"><ele>403.4</ele><time>2026-04-12T13:02:54.431Z</time></trkpt><trkpt lat="43.1790333" lon="13.1900617"><ele>401.6</ele><time>2026-04-12T13:02:56.433Z</time></trkpt><trkpt lat="43.179115" lon="13.1901583"><ele>399.79999999999995</ele><time>2026-04-12T13:02:57.431Z</time></trkpt><trkpt lat="43.1791933" lon="13.190275"><ele>398.0</ele><time>2026-04-12T13:02:58.431Z</time></trkpt><trkpt lat="43.179255" lon="13.19043"><ele>398.0</ele><time>2026-04-12T13:02:59.433Z</time></trkpt><trkpt lat="43.1793117" lon="13.1906217"><ele>398.0</ele><time>2026-04-12T13:03:00.432Z</time></trkpt><trkpt lat="43.1793917" lon="13.1908233"><ele>398.0</ele><time>2026-04-12T13:03:01.431Z</time></trkpt><trkpt lat="43.1794933" lon="13.1910167"><ele>401.0</ele><time>2026-04-12T13:03:02.431Z</time></trkpt><trkpt lat="43.1796233" lon="13.1911983"><ele>404.0</ele><time>2026-04-12T13:03:03.435Z</time></trkpt><trkpt lat="43.17976" lon="13.1913533"><ele>407.0</ele><time>2026-04-12T13:03:04.431Z</time></trkpt><trkpt lat="43.1798983" lon="13.19148"><ele>404.20000000000005</ele><time>2026-04-12T13:03:05.428Z</time></trkpt><trkpt lat="43.1800183" lon="13.1915883"><ele>401.4</ele><time>2026-04-12T13:03:06.433Z</time></trkpt><trkpt lat="43.1801233" lon="13.1916633"><ele>398.6</ele><time>2026-04-12T13:03:07.431Z</time></trkpt><trkpt lat="43.1802233" lon="13.1916883"><ele>395.79999999999995</ele><time>2026-04-12T13:03:08.433Z</time></trkpt><trkpt lat="43.1803067" lon="13.1916683"><ele>393.0</ele><time>2026-04-12T13:03:09.429Z</time></trkpt><trkpt lat="43.1803883" lon="13.19161"><ele>391.0</ele><time>2026-04-12T13:03:10.432Z</time></trkpt><trkpt lat="43.1804117" lon="13.1914733"><ele>389.0</ele><time>2026-04-12T13:03:11.429Z</time></trkpt><trkpt lat="43.1803817" lon="13.1913367"><ele>387.0</ele><time>2026-04-12T13:03:12.428Z</time></trkpt><trkpt lat="43.1803217" lon="13.1912117"><ele>385.0</ele><time>2026-04-12T13:03:13.427Z</time></trkpt><trkpt lat="43.180275" lon="13.19109"><ele>383.0</ele><time>2026-04-12T13:03:14.428Z</time></trkpt><trkpt lat="43.1802583" lon="13.190955"><ele>383.0</ele><time>2026-04-12T13:03:15.437Z</time></trkpt><trkpt lat="43.1802817" lon="13.1908183"><ele>383.0</ele><time>2026-04-12T13:03:16.431Z</time></trkpt><trkpt lat="43.18035" lon="13.1906933"><ele>383.0</ele><time>2026-04-12T13:03:17.432Z</time></trkpt><trkpt lat="43.1804683" lon="13.1905983"><ele>383.0</ele><time>2026-04-12T13:03:18.431Z</time></trkpt><trkpt lat="43.1806" lon="13.19052"><ele>384.25</ele><time>2026-04-12T13:03:19.431Z</time></trkpt><trkpt lat="43.180745" lon="13.1904717"><ele>385.5</ele><time>2026-04-12T13:03:20.43Z</time></trkpt><trkpt lat="43.1808933" lon="13.1904667"><ele>386.75</ele><time>2026-04-12T13:03:21.431Z</time></trkpt><trkpt lat="43.1810217" lon="13.1905333"><ele>388.0</ele><time>2026-04-12T13:03:22.43Z</time></trkpt><trkpt lat="43.1811283" lon="13.1906867"><ele>388.0</ele><time>2026-04-12T13:03:23.429Z</time></trkpt><trkpt lat="43.1812267" lon="13.1909233"><ele>388.0</ele><time>2026-04-12T13:03:24.432Z</time></trkpt><trkpt lat="43.1813133" lon="13.1911967"><ele>388.0</ele><time>2026-04-12T13:03:25.43Z</time></trkpt><trkpt lat="43.1814067" lon="13.19147"><ele>385.6666666666667</ele><time>2026-04-12T13:03:26.43Z</time></trkpt><trkpt lat="43.1815017" lon="13.19172"><ele>383.33333333333337</ele><time>2026-04-12T13:03:27.431Z</time></trkpt><trkpt lat="43.1816017" lon="13.191945"><ele>381.0</ele><time>2026-04-12T13:03:28.432Z</time></trkpt><trkpt lat="43.181715" lon="13.1921333"><ele>386.0</ele><time>2026-04-12T13:03:29.429Z</time></trkpt><trkpt lat="43.1818417" lon="13.1922567"><ele>391.0</ele><time>2026-04-12T13:03:30.435Z</time></trkpt><trkpt lat="43.1819783" lon="13.1923233"><ele>396.0</ele><time>2026-04-12T13:03:31.43Z</time></trkpt><trkpt lat="43.18213" lon="13.1923217"><ele>396.0</ele><time>2026-04-12T13:03:32.433Z</time></trkpt><trkpt lat="43.1822683" lon="13.192325"><ele>396.0</ele><time>2026-04-12T13:03:33.432Z</time></trkpt><trkpt lat="43.1823817" lon="13.19236"><ele>396.0</ele><time>2026-04-12T13:03:34.429Z</time></trkpt><trkpt lat="43.1824567" lon="13.1924167"><ele>396.0</ele><time>2026-04-12T13:03:35.429Z</time></trkpt><trkpt lat="43.182495" lon="13.1924967"><ele>396.0</ele><time>2026-04-12T13:03:36.432Z</time></trkpt><trkpt lat="43.1825" lon="13.19259"><ele>394.8</ele><time>2026-04-12T13:03:37.429Z</time></trkpt><trkpt lat="43.1824933" lon="13.19272"><ele>393.6</ele><time>2026-04-12T13:03:38.433Z</time></trkpt><trkpt lat="43.1825083" lon="13.192865"><ele>392.4</ele><time>2026-04-12T13:03:39.431Z</time></trkpt><trkpt lat="43.18256" lon="13.1929917"><ele>391.2</ele><time>2026-04-12T13:03:40.428Z</time></trkpt><trkpt lat="43.1826383" lon="13.1931083"><ele>390.0</ele><time>2026-04-12T13:03:41.43Z</time></trkpt><trkpt lat="43.1827583" lon="13.19321"><ele>390.0</ele><time>2026-04-12T13:03:42.428Z</time></trkpt><trkpt lat="43.1829117" lon="13.1933183"><ele>390.0</ele><time>2026-04-12T13:03:43.428Z</time></trkpt><trkpt lat="43.18308" lon="13.193445"><ele>390.0</ele><time>2026-04-12T13:03:44.431Z</time></trkpt><trkpt lat="43.18327" lon="13.193585"><ele>399.0</ele><time>2026-04-12T13:03:45.428Z</time></trkpt><trkpt lat="43.1834667" lon="13.1937267"><ele>408.0</ele><time>2026-04-12T13:03:46.43Z</time></trkpt><trkpt lat="43.1836717" lon="13.193875"><ele>408.5</ele><time>2026-04-12T13:03:47.43Z</time></trkpt><trkpt lat="43.1838883" lon="13.1940283"><ele>409.0</ele><time>2026-04-12T13:03:48.432Z</time></trkpt><trkpt lat="43.1841" lon="13.194185"><ele>409.0</ele><time>2026-04-12T13:03:49.432Z</time></trkpt><trkpt lat="43.184295" lon="13.194345"><ele>409.0</ele><time>2026-04-12T13:03:50.453Z</time></trkpt><trkpt lat="43.184475" lon="13.19451"><ele>409.0</ele><time>2026-04-12T13:03:51.432Z</time></trkpt><trkpt lat="43.18464" lon="13.19467"><ele>409.0</ele><time>2026-04-12T13:03:52.431Z</time></trkpt><trkpt lat="43.184795" lon="13.1948183"><ele>409.0</ele><time>2026-04-12T13:03:53.43Z</time></trkpt><trkpt lat="43.184965" lon="13.1949517"><ele>409.0</ele><time>2026-04-12T13:03:54.432Z</time></trkpt><trkpt lat="43.1851533" lon="13.1950667"><ele>408.6666666666667</ele><time>2026-04-12T13:03:55.429Z</time></trkpt><trkpt lat="43.1853583" lon="13.19517"><ele>408.33333333333337</ele><time>2026-04-12T13:03:56.429Z</time></trkpt><trkpt lat="43.1855733" lon="13.1952517"><ele>408.0</ele><time>2026-04-12T13:03:57.43Z</time></trkpt><trkpt lat="43.1857817" lon="13.1953"><ele>411.0</ele><time>2026-04-12T13:03:58.43Z</time></trkpt><trkpt lat="43.18597" lon="13.1953283"><ele>414.0</ele><time>2026-04-12T13:03:59.432Z</time></trkpt><trkpt lat="43.18614" lon="13.1953417"><ele>417.0</ele><time>2026-04-12T13:04:00.433Z</time></trkpt><trkpt lat="43.18629" lon="13.1953183"><ele>417.0</ele><time>2026-04-12T13:04:01.434Z</time></trkpt><trkpt lat="43.1864167" lon="13.195255"><ele>417.0</ele><time>2026-04-12T13:04:02.432Z</time></trkpt><trkpt lat="43.1865183" lon="13.1951383"><ele>417.0</ele><time>2026-04-12T13:04:03.431Z</time></trkpt><trkpt lat="43.18663" lon="13.194975"><ele>417.0</ele><time>2026-04-12T13:04:04.43Z</time></trkpt><trkpt lat="43.1867567" lon="13.1947817"><ele>417.33333333333337</ele><time>2026-04-12T13:04:05.43Z</time></trkpt><trkpt lat="43.1869017" lon="13.1945867"><ele>417.6666666666667</ele><time>2026-04-12T13:04:06.431Z</time></trkpt><trkpt lat="43.18707" lon="13.1943867"><ele>418.0</ele><time>2026-04-12T13:04:07.431Z</time></trkpt><trkpt lat="43.1872517" lon="13.194185"><ele>417.0</ele><time>2026-04-12T13:04:08.448Z</time></trkpt><trkpt lat="43.187435" lon="13.1939983"><ele>416.0</ele><time>2026-04-12T13:04:09.428Z</time></trkpt><trkpt lat="43.187615" lon="13.1938333"><ele>415.0</ele><time>2026-04-12T13:04:10.43Z</time></trkpt><trkpt lat="43.1877867" lon="13.1936967"><ele>415.0</ele><time>2026-04-12T13:04:11.431Z</time></trkpt><trkpt lat="43.1879417" lon="13.1936017"><ele>415.0</ele><time>2026-04-12T13:04:12.432Z</time></trkpt><trkpt lat="43.1880817" lon="13.1935483"><ele>415.0</ele><time>2026-04-12T13:04:13.428Z</time></trkpt><trkpt lat="43.1882017" lon="13.1935667"><ele>415.0</ele><time>2026-04-12T13:04:14.432Z</time></trkpt><trkpt lat="43.1882917" lon="13.1936417"><ele>413.75</ele><time>2026-04-12T13:04:15.429Z</time></trkpt><trkpt lat="43.18834" lon="13.1937733"><ele>412.5</ele><time>2026-04-12T13:04:16.431Z</time></trkpt><trkpt lat="43.188345" lon="13.1939483"><ele>411.25</ele><time>2026-04-12T13:04:17.43Z</time></trkpt><trkpt lat="43.188315" lon="13.1941733"><ele>410.0</ele><time>2026-04-12T13:04:18.43Z</time></trkpt><trkpt lat="43.18827" lon="13.1944283"><ele>408.66666666666663</ele><time>2026-04-12T13:04:19.432Z</time></trkpt><trkpt lat="43.18822" lon="13.194715"><ele>407.33333333333337</ele><time>2026-04-12T13:04:20.432Z</time></trkpt><trkpt lat="43.1881717" lon="13.19501"><ele>406.0</ele><time>2026-04-12T13:04:21.431Z</time></trkpt><trkpt lat="43.1881283" lon="13.1952867"><ele>402.0</ele><time>2026-04-12T13:04:22.429Z</time></trkpt><trkpt lat="43.1880783" lon="13.1955583"><ele>398.0</ele><time>2026-04-12T13:04:23.431Z</time></trkpt><trkpt lat="43.1880167" lon="13.19583"><ele>394.0</ele><time>2026-04-12T13:04:24.43Z</time></trkpt><trkpt lat="43.187945" lon="13.1960983"><ele>394.0</ele><time>2026-04-12T13:04:25.431Z</time></trkpt><trkpt lat="43.18787" lon="13.1963733"><ele>394.0</ele><time>2026-04-12T13:04:26.434Z</time></trkpt><trkpt lat="43.1878017" lon="13.1966417"><ele>394.0</ele><time>2026-04-12T13:04:27.428Z</time></trkpt><trkpt lat="43.1877317" lon="13.19688"><ele>396.6666666666667</ele><time>2026-04-12T13:04:28.43Z</time></trkpt><trkpt lat="43.1876833" lon="13.1971033"><ele>399.33333333333337</ele><time>2026-04-12T13:04:29.429Z</time></trkpt><trkpt lat="43.1876617" lon="13.197325"><ele>402.0</ele><time>2026-04-12T13:04:30.428Z</time></trkpt><trkpt lat="43.1876533" lon="13.1975567"><ele>402.33333333333337</ele><time>2026-04-12T13:04:31.424Z</time></trkpt><trkpt lat="43.1876383" lon="13.1977983"><ele>402.6666666666667</ele><time>2026-04-12T13:04:32.426Z</time></trkpt><trkpt lat="43.187605" lon="13.19803"><ele>403.0</ele><time>2026-04-12T13:04:33.427Z</time></trkpt><trkpt lat="43.1875533" lon="13.1982333"><ele>403.00000000000006</ele><time>2026-04-12T13:04:34.428Z</time></trkpt><trkpt lat="43.18752" lon="13.1983867"><ele>403.0</ele><time>2026-04-12T13:04:35.43Z</time></trkpt><trkpt lat="43.1875183" lon="13.1985"><ele>403.0</ele><time>2026-04-12T13:04:36.43Z</time></trkpt><trkpt lat="43.187545" lon="13.1985933"><ele>403.0</ele><time>2026-04-12T13:04:37.431Z</time></trkpt><trkpt lat="43.1876" lon="13.1986667"><ele>403.00000000000006</ele><time>2026-04-12T13:04:38.432Z</time></trkpt><trkpt lat="43.187685" lon="13.19871"><ele>403.0</ele><time>2026-04-12T13:04:39.431Z</time></trkpt><trkpt lat="43.187785" lon="13.1987333"><ele>403.0</ele><time>2026-04-12T13:04:40.429Z</time></trkpt><trkpt lat="43.1879017" lon="13.198725"><ele>403.0</ele><time>2026-04-12T13:04:41.428Z</time></trkpt><trkpt lat="43.188005" lon="13.198735"><ele>403.0</ele><time>2026-04-12T13:04:42.424Z</time></trkpt><trkpt lat="43.1881183" lon="13.19875"><ele>403.0</ele><time>2026-04-12T13:04:43.428Z</time></trkpt><trkpt lat="43.188235" lon="13.1987617"><ele>404.59999999999997</ele><time>2026-04-12T13:04:44.43Z</time></trkpt><trkpt lat="43.18835" lon="13.1987817"><ele>406.2</ele><time>2026-04-12T13:04:45.43Z</time></trkpt><trkpt lat="43.1884533" lon="13.1988217"><ele>407.8</ele><time>2026-04-12T13:04:46.428Z</time></trkpt><trkpt lat="43.1885333" lon="13.1989033"><ele>409.4</ele><time>2026-04-12T13:04:47.428Z</time></trkpt><trkpt lat="43.1885917" lon="13.1990233"><ele>411.0</ele><time>2026-04-12T13:04:48.434Z</time></trkpt><trkpt lat="43.1885867" lon="13.19918"><ele>411.0</ele><time>2026-04-12T13:04:49.431Z</time></trkpt><trkpt lat="43.1885467" lon="13.1993733"><ele>411.0</ele><time>2026-04-12T13:04:50.43Z</time></trkpt><trkpt lat="43.1884733" lon="13.1996067"><ele>411.0</ele><time>2026-04-12T13:04:51.431Z</time></trkpt><trkpt lat="43.188415" lon="13.1998517"><ele>410.66666666666663</ele><time>2026-04-12T13:04:52.429Z</time></trkpt><trkpt lat="43.1883817" lon="13.2000967"><ele>410.3333333333333</ele><time>2026-04-12T13:04:53.432Z</time></trkpt><trkpt lat="43.1883733" lon="13.20033"><ele>410.0</ele><time>2026-04-12T13:04:54.432Z</time></trkpt><trkpt lat="43.1883917" lon="13.20053"><ele>409.5</ele><time>2026-04-12T13:04:55.431Z</time></trkpt><trkpt lat="43.1884433" lon="13.2007117"><ele>409.0</ele><time>2026-04-12T13:04:56.431Z</time></trkpt><trkpt lat="43.1885317" lon="13.2008617"><ele>408.5</ele><time>2026-04-12T13:04:57.429Z</time></trkpt><trkpt lat="43.18864" lon="13.2009733"><ele>408.0</ele><time>2026-04-12T13:04:58.43Z</time></trkpt><trkpt lat="43.1887583" lon="13.201025"><ele>408.0</ele><time>2026-04-12T13:04:59.432Z</time></trkpt><trkpt lat="43.1888983" lon="13.2010317"><ele>408.0</ele><time>2026-04-12T13:05:00.43Z</time></trkpt><trkpt lat="43.189055" lon="13.200975"><ele>408.0</ele><time>2026-04-12T13:05:01.433Z</time></trkpt><trkpt lat="43.189205" lon="13.2009067"><ele>410.33333333333337</ele><time>2026-04-12T13:05:02.432Z</time></trkpt><trkpt lat="43.18935" lon="13.2008283"><ele>412.6666666666667</ele><time>2026-04-12T13:05:03.432Z</time></trkpt><trkpt lat="43.189505" lon="13.200755"><ele>415.0</ele><time>2026-04-12T13:05:04.432Z</time></trkpt><trkpt lat="43.1896883" lon="13.20072"><ele>413.6666666666667</ele><time>2026-04-12T13:05:05.433Z</time></trkpt><trkpt lat="43.189865" lon="13.200705"><ele>412.33333333333337</ele><time>2026-04-12T13:05:06.431Z</time></trkpt><trkpt lat="43.1900267" lon="13.200665"><ele>411.0</ele><time>2026-04-12T13:05:07.431Z</time></trkpt><trkpt lat="43.190195" lon="13.20058"><ele>412.0</ele><time>2026-04-12T13:05:08.432Z</time></trkpt><trkpt lat="43.190355" lon="13.2004517"><ele>413.0</ele><time>2026-04-12T13:05:09.43Z</time></trkpt><trkpt lat="43.19052" lon="13.2002967"><ele>414.0</ele><time>2026-04-12T13:05:10.43Z</time></trkpt><trkpt lat="43.190695" lon="13.20013"><ele>414.0</ele><time>2026-04-12T13:05:11.43Z</time></trkpt><trkpt lat="43.19087" lon="13.1999617"><ele>414.0</ele><time>2026-04-12T13:05:12.432Z</time></trkpt><trkpt lat="43.19104" lon="13.1998033"><ele>414.0</ele><time>2026-04-12T13:05:13.429Z</time></trkpt><trkpt lat="43.19121" lon="13.19965"><ele>414.33333333333337</ele><time>2026-04-12T13:05:14.432Z</time></trkpt><trkpt lat="43.191365" lon="13.1995217"><ele>414.6666666666667</ele><time>2026-04-12T13:05:15.43Z</time></trkpt><trkpt lat="43.1915167" lon="13.19941"><ele>415.0</ele><time>2026-04-12T13:05:16.429Z</time></trkpt><trkpt lat="43.1916667" lon="13.1993033"><ele>415.0</ele><time>2026-04-12T13:05:17.43Z</time></trkpt><trkpt lat="43.1918067" lon="13.1991967"><ele>415.0</ele><time>2026-04-12T13:05:18.431Z</time></trkpt><trkpt lat="43.1919333" lon="13.1990817"><ele>415.0</ele><time>2026-04-12T13:05:19.433Z</time></trkpt><trkpt lat="43.1920367" lon="13.198945"><ele>411.6666666666667</ele><time>2026-04-12T13:05:20.433Z</time></trkpt><trkpt lat="43.19213" lon="13.1987767"><ele>408.33333333333337</ele><time>2026-04-12T13:05:21.432Z</time></trkpt><trkpt lat="43.1922433" lon="13.1985883"><ele>405.0</ele><time>2026-04-12T13:05:22.432Z</time></trkpt><trkpt lat="43.1923567" lon="13.1983983"><ele>405.0</ele><time>2026-04-12T13:05:23.431Z</time></trkpt><trkpt lat="43.1924483" lon="13.1982167"><ele>405.0</ele><time>2026-04-12T13:05:24.431Z</time></trkpt><trkpt lat="43.1925267" lon="13.19804"><ele>405.0</ele><time>2026-04-12T13:05:25.428Z</time></trkpt><trkpt lat="43.1925983" lon="13.1978667"><ele>408.0</ele><time>2026-04-12T13:05:26.43Z</time></trkpt><trkpt lat="43.1926783" lon="13.197685"><ele>411.0</ele><time>2026-04-12T13:05:27.446Z</time></trkpt><trkpt lat="43.192765" lon="13.197525"><ele>414.0</ele><time>2026-04-12T13:05:28.431Z</time></trkpt><trkpt lat="43.192875" lon="13.1973733"><ele>413.0</ele><time>2026-04-12T13:05:29.433Z</time></trkpt><trkpt lat="43.1930133" lon="13.1972283"><ele>412.0</ele><time>2026-04-12T13:05:30.43Z</time></trkpt><trkpt lat="43.19314" lon="13.1971"><ele>411.0</ele><time>2026-04-12T13:05:31.433Z</time></trkpt><trkpt lat="43.1932567" lon="13.1969983"><ele>411.0</ele><time>2026-04-12T13:05:32.432Z</time></trkpt><trkpt lat="43.1933617" lon="13.1969183"><ele>411.0</ele><time>2026-04-12T13:05:33.428Z</time></trkpt><trkpt lat="43.1934533" lon="13.1968683"><ele>411.0</ele><time>2026-04-12T13:05:34.43Z</time></trkpt><trkpt lat="43.1935617" lon="13.19687"><ele>411.0</ele><time>2026-04-12T13:05:35.435Z</time></trkpt><trkpt lat="43.1936567" lon="13.1968817"><ele>411.0</ele><time>2026-04-12T13:05:36.43Z</time></trkpt><trkpt lat="43.19373" lon="13.1969217"><ele>411.0</ele><time>2026-04-12T13:05:37.434Z</time></trkpt><trkpt lat="43.1937833" lon="13.1970033"><ele>411.0</ele><time>2026-04-12T13:05:38.433Z</time></trkpt><trkpt lat="43.193815" lon="13.19709"><ele>411.0</ele><time>2026-04-12T13:05:39.433Z</time></trkpt><trkpt lat="43.193815" lon="13.1972183"><ele>411.0</ele><time>2026-04-12T13:05:40.429Z</time></trkpt><trkpt lat="43.1937833" lon="13.197395"><ele>411.0</ele><time>2026-04-12T13:05:41.432Z</time></trkpt><trkpt lat="43.19377" lon="13.197635"><ele>409.25</ele><time>2026-04-12T13:05:42.43Z</time></trkpt><trkpt lat="43.1937683" lon="13.1978183"><ele>407.5</ele><time>2026-04-12T13:05:43.43Z</time></trkpt><trkpt lat="43.1937333" lon="13.1980383"><ele>405.75</ele><time>2026-04-12T13:05:44.431Z</time></trkpt><trkpt lat="43.193685" lon="13.1981967"><ele>404.0</ele><time>2026-04-12T13:05:45.429Z</time></trkpt><trkpt lat="43.1936267" lon="13.1983417"><ele>403.25</ele><time>2026-04-12T13:05:46.432Z</time></trkpt><trkpt lat="43.193585" lon="13.1984967"><ele>402.5</ele><time>2026-04-12T13:05:47.43Z</time></trkpt><trkpt lat="43.1935633" lon="13.1986833"><ele>401.75</ele><time>2026-04-12T13:05:48.43Z</time></trkpt><trkpt lat="43.19357" lon="13.198905"><ele>401.0</ele><time>2026-04-12T13:05:49.432Z</time></trkpt><trkpt lat="43.193625" lon="13.19912"><ele>400.66666666666663</ele><time>2026-04-12T13:05:50.43Z</time></trkpt><trkpt lat="43.1937033" lon="13.19933"><ele>400.33333333333337</ele><time>2026-04-12T13:05:51.43Z</time></trkpt><trkpt lat="43.1937933" lon="13.1995033"><ele>400.0</ele><time>2026-04-12T13:05:52.428Z</time></trkpt><trkpt lat="43.1939117" lon="13.1996383"><ele>407.0</ele><time>2026-04-12T13:05:53.428Z</time></trkpt><trkpt lat="43.1940567" lon="13.1997483"><ele>414.0</ele><time>2026-04-12T13:05:54.43Z</time></trkpt><trkpt lat="43.1942367" lon="13.1998017"><ele>421.0</ele><time>2026-04-12T13:05:55.428Z</time></trkpt><trkpt lat="43.194455" lon="13.199795"><ele>421.0</ele><time>2026-04-12T13:05:56.428Z</time></trkpt><trkpt lat="43.1947" lon="13.1997683"><ele>421.0</ele><time>2026-04-12T13:05:57.429Z</time></trkpt><trkpt lat="43.1949333" lon="13.1997583"><ele>422.5</ele><time>2026-04-12T13:05:58.428Z</time></trkpt><trkpt lat="43.1951817" lon="13.1997633"><ele>424.0</ele><time>2026-04-12T13:05:59.43Z</time></trkpt><trkpt lat="43.1954283" lon="13.1997867"><ele>424.0</ele><time>2026-04-12T13:06:00.431Z</time></trkpt><trkpt lat="43.1956417" lon="13.19981"><ele>424.0</ele><time>2026-04-12T13:06:01.431Z</time></trkpt><trkpt lat="43.1958383" lon="13.1998117"><ele>424.0</ele><time>2026-04-12T13:06:02.432Z</time></trkpt><trkpt lat="43.1960333" lon="13.1997767"><ele>425.33333333333337</ele><time>2026-04-12T13:06:03.433Z</time></trkpt><trkpt lat="43.196215" lon="13.1997117"><ele>426.66666666666663</ele><time>2026-04-12T13:06:04.432Z</time></trkpt><trkpt lat="43.1963817" lon="13.1996433"><ele>428.0</ele><time>2026-04-12T13:06:05.434Z</time></trkpt><trkpt lat="43.196535" lon="13.1995733"><ele>428.3333333333333</ele><time>2026-04-12T13:06:06.431Z</time></trkpt><trkpt lat="43.1966783" lon="13.19946"><ele>428.66666666666663</ele><time>2026-04-12T13:06:07.429Z</time></trkpt><trkpt lat="43.1968117" lon="13.199295"><ele>429.0</ele><time>2026-04-12T13:06:08.429Z</time></trkpt><trkpt lat="43.1969433" lon="13.1990967"><ele>429.0</ele><time>2026-04-12T13:06:09.432Z</time></trkpt><trkpt lat="43.1971033" lon="13.1989"><ele>429.0</ele><time>2026-04-12T13:06:10.43Z</time></trkpt><trkpt lat="43.1972833" lon="13.1987067"><ele>429.0</ele><time>2026-04-12T13:06:11.427Z</time></trkpt><trkpt lat="43.19746" lon="13.1984933"><ele>429.0</ele><time>2026-04-12T13:06:12.43Z</time></trkpt><trkpt lat="43.1976167" lon="13.1982767"><ele>429.0</ele><time>2026-04-12T13:06:13.434Z</time></trkpt><trkpt lat="43.1977717" lon="13.1980883"><ele>429.0</ele><time>2026-04-12T13:06:14.449Z</time></trkpt><trkpt lat="43.1979367" lon="13.1979467"><ele>428.33333333333337</ele><time>2026-04-12T13:06:15.432Z</time></trkpt><trkpt lat="43.198105" lon="13.197825"><ele>427.6666666666667</ele><time>2026-04-12T13:06:16.43Z</time></trkpt><trkpt lat="43.1982567" lon="13.1976917"><ele>427.0</ele><time>2026-04-12T13:06:17.431Z</time></trkpt><trkpt lat="43.19836" lon="13.1975367"><ele>427.0</ele><time>2026-04-12T13:06:18.43Z</time></trkpt><trkpt lat="43.1984317" lon="13.197345"><ele>427.0</ele><time>2026-04-12T13:06:19.43Z</time></trkpt><trkpt lat="43.1984733" lon="13.1971167"><ele>427.0</ele><time>2026-04-12T13:06:20.431Z</time></trkpt><trkpt lat="43.19853" lon="13.1968667"><ele>429.33333333333337</ele><time>2026-04-12T13:06:21.432Z</time></trkpt><trkpt lat="43.1985967" lon="13.1966217"><ele>431.66666666666663</ele><time>2026-04-12T13:06:22.431Z</time></trkpt><trkpt lat="43.19867" lon="13.1964083"><ele>434.0</ele><time>2026-04-12T13:06:23.429Z</time></trkpt><trkpt lat="43.198755" lon="13.1962417"><ele>433.0</ele><time>2026-04-12T13:06:24.431Z</time></trkpt><trkpt lat="43.1988633" lon="13.196125"><ele>432.0</ele><time>2026-04-12T13:06:25.431Z</time></trkpt><trkpt lat="43.199" lon="13.19604"><ele>431.0</ele><time>2026-04-12T13:06:26.433Z</time></trkpt><trkpt lat="43.1991767" lon="13.1959667"><ele>431.0</ele><time>2026-04-12T13:06:27.431Z</time></trkpt><trkpt lat="43.1993433" lon="13.195875"><ele>431.0</ele><time>2026-04-12T13:06:28.431Z</time></trkpt><trkpt lat="43.1994683" lon="13.1957483"><ele>431.0</ele><time>2026-04-12T13:06:29.43Z</time></trkpt><trkpt lat="43.19956" lon="13.1955967"><ele>432.5</ele><time>2026-04-12T13:06:30.431Z</time></trkpt><trkpt lat="43.1996267" lon="13.19544"><ele>434.0</ele><time>2026-04-12T13:06:31.431Z</time></trkpt><trkpt lat="43.1996767" lon="13.19528"><ele>435.5</ele><time>2026-04-12T13:06:32.445Z</time></trkpt><trkpt lat="43.1997083" lon="13.1951117"><ele>437.0</ele><time>2026-04-12T13:06:33.433Z</time></trkpt><trkpt lat="43.1997183" lon="13.194925"><ele>436.3333333333333</ele><time>2026-04-12T13:06:34.43Z</time></trkpt><trkpt lat="43.1996967" lon="13.1947067"><ele>435.66666666666663</ele><time>2026-04-12T13:06:35.432Z</time></trkpt><trkpt lat="43.19965" lon="13.1944567"><ele>435.0</ele><time>2026-04-12T13:06:36.432Z</time></trkpt><trkpt lat="43.1995983" lon="13.19421"><ele>431.5</ele><time>2026-04-12T13:06:37.435Z</time></trkpt><trkpt lat="43.1995467" lon="13.1939867"><ele>428.0</ele><time>2026-04-12T13:06:38.432Z</time></trkpt><trkpt lat="43.1994917" lon="13.1937933"><ele>424.5</ele><time>2026-04-12T13:06:39.429Z</time></trkpt><trkpt lat="43.1994283" lon="13.19365"><ele>421.0</ele><time>2026-04-12T13:06:40.426Z</time></trkpt><trkpt lat="43.1993483" lon="13.19354"><ele>421.0</ele><time>2026-04-12T13:06:41.43Z</time></trkpt><trkpt lat="43.1992483" lon="13.1934617"><ele>421.0</ele><time>2026-04-12T13:06:42.429Z</time></trkpt><trkpt lat="43.1991467" lon="13.1934183"><ele>421.0</ele><time>2026-04-12T13:06:43.432Z</time></trkpt><trkpt lat="43.199035" lon="13.193395"><ele>421.0</ele><time>2026-04-12T13:06:44.434Z</time></trkpt><trkpt lat="43.19892" lon="13.1933767"><ele>422.25</ele><time>2026-04-12T13:06:45.43Z</time></trkpt><trkpt lat="43.19879" lon="13.1933583"><ele>423.5</ele><time>2026-04-12T13:06:46.431Z</time></trkpt><trkpt lat="43.1986717" lon="13.19332"><ele>424.75</ele><time>2026-04-12T13:06:47.429Z</time></trkpt><trkpt lat="43.1985717" lon="13.193245"><ele>426.0</ele><time>2026-04-12T13:06:48.431Z</time></trkpt><trkpt lat="43.198485" lon="13.1931417"><ele>426.0</ele><time>2026-04-12T13:06:49.432Z</time></trkpt><trkpt lat="43.1984217" lon="13.1930183"><ele>426.0</ele><time>2026-04-12T13:06:50.431Z</time></trkpt><trkpt lat="43.1983867" lon="13.1928783"><ele>426.0</ele><time>2026-04-12T13:06:51.43Z</time></trkpt><trkpt lat="43.1984017" lon="13.1927367"><ele>426.0</ele><time>2026-04-12T13:06:52.429Z</time></trkpt><trkpt lat="43.1984517" lon="13.19257"><ele>426.0</ele><time>2026-04-12T13:06:53.43Z</time></trkpt><trkpt lat="43.19853" lon="13.1923683"><ele>426.0</ele><time>2026-04-12T13:06:54.433Z</time></trkpt><trkpt lat="43.198645" lon="13.1921167"><ele>426.0</ele><time>2026-04-12T13:06:55.428Z</time></trkpt><trkpt lat="43.19875" lon="13.191885"><ele>427.0</ele><time>2026-04-12T13:06:56.433Z</time></trkpt><trkpt lat="43.19885" lon="13.1916717"><ele>428.0</ele><time>2026-04-12T13:06:57.43Z</time></trkpt><trkpt lat="43.1989233" lon="13.19147"><ele>429.0</ele><time>2026-04-12T13:06:58.429Z</time></trkpt><trkpt lat="43.1989733" lon="13.1912633"><ele>429.0</ele><time>2026-04-12T13:06:59.428Z</time></trkpt><trkpt lat="43.1989917" lon="13.1910533"><ele>429.0</ele><time>2026-04-12T13:07:00.431Z</time></trkpt><trkpt lat="43.1989833" lon="13.190845"><ele>429.0</ele><time>2026-04-12T13:07:01.432Z</time></trkpt><trkpt lat="43.1989717" lon="13.19065"><ele>429.0</ele><time>2026-04-12T13:07:02.431Z</time></trkpt><trkpt lat="43.198965" lon="13.1904717"><ele>427.5</ele><time>2026-04-12T13:07:03.431Z</time></trkpt><trkpt lat="43.1989817" lon="13.1903033"><ele>426.0</ele><time>2026-04-12T13:07:04.432Z</time></trkpt><trkpt lat="43.19902" lon="13.1901417"><ele>424.5</ele><time>2026-04-12T13:07:05.431Z</time></trkpt><trkpt lat="43.1990567" lon="13.18998"><ele>423.0</ele><time>2026-04-12T13:07:06.433Z</time></trkpt><trkpt lat="43.1990667" lon="13.1897917"><ele>421.75</ele><time>2026-04-12T13:07:07.433Z</time></trkpt><trkpt lat="43.1990467" lon="13.1896"><ele>420.5</ele><time>2026-04-12T13:07:08.451Z</time></trkpt><trkpt lat="43.199" lon="13.189425"><ele>419.25</ele><time>2026-04-12T13:07:09.432Z</time></trkpt><trkpt lat="43.1989533" lon="13.189235"><ele>418.0</ele><time>2026-04-12T13:07:10.431Z</time></trkpt><trkpt lat="43.1989367" lon="13.1890183"><ele>418.33333333333337</ele><time>2026-04-12T13:07:11.433Z</time></trkpt><trkpt lat="43.1989583" lon="13.1887917"><ele>418.66666666666663</ele><time>2026-04-12T13:07:12.43Z</time></trkpt><trkpt lat="43.1990033" lon="13.18856"><ele>419.0</ele><time>2026-04-12T13:07:13.431Z</time></trkpt><trkpt lat="43.1990667" lon="13.1883383"><ele>417.5</ele><time>2026-04-12T13:07:14.431Z</time></trkpt><trkpt lat="43.1991433" lon="13.188155"><ele>416.0</ele><time>2026-04-12T13:07:15.429Z</time></trkpt><trkpt lat="43.1992467" lon="13.1880183"><ele>414.5</ele><time>2026-04-12T13:07:16.427Z</time></trkpt><trkpt lat="43.1993767" lon="13.1879233"><ele>413.0</ele><time>2026-04-12T13:07:17.429Z</time></trkpt><trkpt lat="43.19954" lon="13.1878617"><ele>413.0</ele><time>2026-04-12T13:07:18.431Z</time></trkpt><trkpt lat="43.1997317" lon="13.18784"><ele>413.0</ele><time>2026-04-12T13:07:19.429Z</time></trkpt><trkpt lat="43.1999267" lon="13.1878633"><ele>413.0</ele><time>2026-04-12T13:07:20.43Z</time></trkpt><trkpt lat="43.20013" lon="13.1879183"><ele>411.3333333333333</ele><time>2026-04-12T13:07:21.43Z</time></trkpt><trkpt lat="43.2003267" lon="13.1879783"><ele>409.66666666666663</ele><time>2026-04-12T13:07:22.433Z</time></trkpt><trkpt lat="43.2005117" lon="13.1880683"><ele>408.0</ele><time>2026-04-12T13:07:23.432Z</time></trkpt><trkpt lat="43.200685" lon="13.1882017"><ele>403.66666666666663</ele><time>2026-04-12T13:07:24.429Z</time></trkpt><trkpt lat="43.2008567" lon="13.1883667"><ele>399.3333333333333</ele><time>2026-04-12T13:07:25.432Z</time></trkpt><trkpt lat="43.201015" lon="13.1885333"><ele>395.0</ele><time>2026-04-12T13:07:26.449Z</time></trkpt><trkpt lat="43.2011667" lon="13.1886983"><ele>395.0</ele><time>2026-04-12T13:07:27.43Z</time></trkpt><trkpt lat="43.201305" lon="13.1888733"><ele>395.0</ele><time>2026-04-12T13:07:28.432Z</time></trkpt><trkpt lat="43.2014317" lon="13.1890533"><ele>395.0</ele><time>2026-04-12T13:07:29.431Z</time></trkpt><trkpt lat="43.201575" lon="13.1892083"><ele>393.3333333333333</ele><time>2026-04-12T13:07:30.431Z</time></trkpt><trkpt lat="43.2017317" lon="13.1893267"><ele>391.66666666666663</ele><time>2026-04-12T13:07:31.43Z</time></trkpt><trkpt lat="43.201895" lon="13.1894"><ele>390.0</ele><time>2026-04-12T13:07:32.431Z</time></trkpt><trkpt lat="43.202055" lon="13.189435"><ele>390.0</ele><time>2026-04-12T13:07:33.433Z</time></trkpt><trkpt lat="43.2022167" lon="13.1894133"><ele>390.0</ele><time>2026-04-12T13:07:34.429Z</time></trkpt><trkpt lat="43.2023783" lon="13.189355"><ele>390.0</ele><time>2026-04-12T13:07:35.428Z</time></trkpt><trkpt lat="43.202545" lon="13.18928"><ele>387.3333333333333</ele><time>2026-04-12T13:07:36.431Z</time></trkpt><trkpt lat="43.202715" lon="13.18921"><ele>384.66666666666663</ele><time>2026-04-12T13:07:37.43Z</time></trkpt><trkpt lat="43.2028783" lon="13.1891383"><ele>382.0</ele><time>2026-04-12T13:07:38.432Z</time></trkpt><trkpt lat="43.2030333" lon="13.18906"><ele>380.5</ele><time>2026-04-12T13:07:39.429Z</time></trkpt><trkpt lat="43.2031783" lon="13.1889683"><ele>379.0</ele><time>2026-04-12T13:07:40.431Z</time></trkpt><trkpt lat="43.203305" lon="13.18886"><ele>377.5</ele><time>2026-04-12T13:07:41.428Z</time></trkpt><trkpt lat="43.2034117" lon="13.18875"><ele>376.0</ele><time>2026-04-12T13:07:42.43Z</time></trkpt><trkpt lat="43.2034967" lon="13.1886083"><ele>376.0</ele><time>2026-04-12T13:07:43.432Z</time></trkpt><trkpt lat="43.2035467" lon="13.188445"><ele>376.0</ele><time>2026-04-12T13:07:44.446Z</time></trkpt><trkpt lat="43.2035767" lon="13.1882883"><ele>376.0</ele><time>2026-04-12T13:07:45.431Z</time></trkpt><trkpt lat="43.2036083" lon="13.188155"><ele>376.0</ele><time>2026-04-12T13:07:46.431Z</time></trkpt><trkpt lat="43.2036617" lon="13.1880733"><ele>376.0</ele><time>2026-04-12T13:07:47.431Z</time></trkpt><trkpt lat="43.2037367" lon="13.1880467"><ele>376.0</ele><time>2026-04-12T13:07:48.428Z</time></trkpt><trkpt lat="43.2038233" lon="13.188075"><ele>376.0</ele><time>2026-04-12T13:07:49.43Z</time></trkpt><trkpt lat="43.203905" lon="13.1881567"><ele>376.0</ele><time>2026-04-12T13:07:50.433Z</time></trkpt><trkpt lat="43.20397" lon="13.1883067"><ele>376.0</ele><time>2026-04-12T13:07:51.432Z</time></trkpt><trkpt lat="43.20402" lon="13.18846"><ele>376.0</ele><time>2026-04-12T13:07:52.429Z</time></trkpt><trkpt lat="43.2040433" lon="13.1886167"><ele>376.0</ele><time>2026-04-12T13:07:53.432Z</time></trkpt><trkpt lat="43.2040383" lon="13.1887617"><ele>376.0</ele><time>2026-04-12T13:07:54.428Z</time></trkpt><trkpt lat="43.2039917" lon="13.188885"><ele>376.0</ele><time>2026-04-12T13:07:55.429Z</time></trkpt><trkpt lat="43.2039017" lon="13.188995"><ele>376.0</ele><time>2026-04-12T13:07:56.433Z</time></trkpt><trkpt lat="43.2037967" lon="13.1890933"><ele>374.4</ele><time>2026-04-12T13:07:57.428Z</time></trkpt><trkpt lat="43.2037083" lon="13.1891817"><ele>372.8</ele><time>2026-04-12T13:07:58.432Z</time></trkpt><trkpt lat="43.20365" lon="13.1892833"><ele>371.2</ele><time>2026-04-12T13:07:59.428Z</time></trkpt><trkpt lat="43.203615" lon="13.18939"><ele>369.59999999999997</ele><time>2026-04-12T13:08:00.431Z</time></trkpt><trkpt lat="43.20372" lon="13.18951"><ele>368.0</ele><time>2026-04-12T13:08:02.43Z</time></trkpt><trkpt lat="43.20381" lon="13.1895217"><ele>368.0</ele><time>2026-04-12T13:08:03.429Z</time></trkpt><trkpt lat="43.20393" lon="13.18948"><ele>368.0</ele><time>2026-04-12T13:08:04.43Z</time></trkpt><trkpt lat="43.2040917" lon="13.189415"><ele>368.0</ele><time>2026-04-12T13:08:05.427Z</time></trkpt><trkpt lat="43.2042583" lon="13.189375"><ele>364.6666666666667</ele><time>2026-04-12T13:08:06.436Z</time></trkpt><trkpt lat="43.204435" lon="13.1893733"><ele>361.3333333333333</ele><time>2026-04-12T13:08:07.432Z</time></trkpt><trkpt lat="43.2046033" lon="13.1893933"><ele>358.0</ele><time>2026-04-12T13:08:08.432Z</time></trkpt><trkpt lat="43.204765" lon="13.189405"><ele>356.5</ele><time>2026-04-12T13:08:09.435Z</time></trkpt><trkpt lat="43.2049083" lon="13.1893583"><ele>355.0</ele><time>2026-04-12T13:08:10.431Z</time></trkpt><trkpt lat="43.2050383" lon="13.1892867"><ele>353.5</ele><time>2026-04-12T13:08:11.429Z</time></trkpt><trkpt lat="43.2051483" lon="13.1891933"><ele>352.0</ele><time>2026-04-12T13:08:12.43Z</time></trkpt><trkpt lat="43.2052083" lon="13.1890783"><ele>352.0</ele><time>2026-04-12T13:08:13.43Z</time></trkpt><trkpt lat="43.2052533" lon="13.1889633"><ele>352.0</ele><time>2026-04-12T13:08:14.433Z</time></trkpt><trkpt lat="43.2053" lon="13.18888"><ele>352.0</ele><time>2026-04-12T13:08:15.433Z</time></trkpt><trkpt lat="43.2053583" lon="13.1888267"><ele>352.0</ele><time>2026-04-12T13:08:16.43Z</time></trkpt><trkpt lat="43.20547" lon="13.1888767"><ele>352.0</ele><time>2026-04-12T13:08:18.431Z</time></trkpt><trkpt lat="43.20553" lon="13.1890133"><ele>352.0</ele><time>2026-04-12T13:08:19.429Z</time></trkpt><trkpt lat="43.205615" lon="13.1892233"><ele>352.0</ele><time>2026-04-12T13:08:20.435Z</time></trkpt><trkpt lat="43.2057217" lon="13.1893883"><ele>352.0</ele><time>2026-04-12T13:08:21.43Z</time></trkpt><trkpt lat="43.2058433" lon="13.189535"><ele>351.3333333333333</ele><time>2026-04-12T13:08:22.43Z</time></trkpt><trkpt lat="43.2060267" lon="13.1896967"><ele>350.6666666666667</ele><time>2026-04-12T13:08:23.432Z</time></trkpt><trkpt lat="43.206205" lon="13.1898533"><ele>350.0</ele><time>2026-04-12T13:08:24.43Z</time></trkpt><trkpt lat="43.206385" lon="13.1899917"><ele>346.6666666666667</ele><time>2026-04-12T13:08:25.431Z</time></trkpt><trkpt lat="43.2065667" lon="13.1901383"><ele>343.3333333333333</ele><time>2026-04-12T13:08:26.429Z</time></trkpt><trkpt lat="43.2067367" lon="13.1902467"><ele>340.0</ele><time>2026-04-12T13:08:27.431Z</time></trkpt><trkpt lat="43.2069017" lon="13.1903167"><ele>340.0</ele><time>2026-04-12T13:08:28.431Z</time></trkpt><trkpt lat="43.2070667" lon="13.19038"><ele>340.0</ele><time>2026-04-12T13:08:29.431Z</time></trkpt><trkpt lat="43.20723" lon="13.1904683"><ele>340.0</ele><time>2026-04-12T13:08:30.431Z</time></trkpt><trkpt lat="43.2073783" lon="13.1906017"><ele>338.0</ele><time>2026-04-12T13:08:31.432Z</time></trkpt><trkpt lat="43.207535" lon="13.1907583"><ele>336.0</ele><time>2026-04-12T13:08:32.433Z</time></trkpt><trkpt lat="43.2077033" lon="13.1909333"><ele>334.0</ele><time>2026-04-12T13:08:33.429Z</time></trkpt><trkpt lat="43.2078917" lon="13.1910883"><ele>334.0</ele><time>2026-04-12T13:08:34.432Z</time></trkpt><trkpt lat="43.2080917" lon="13.1912317"><ele>334.0</ele><time>2026-04-12T13:08:35.428Z</time></trkpt><trkpt lat="43.2082933" lon="13.191365"><ele>334.0</ele><time>2026-04-12T13:08:36.435Z</time></trkpt><trkpt lat="43.2084883" lon="13.1915083"><ele>332.0</ele><time>2026-04-12T13:08:37.432Z</time></trkpt><trkpt lat="43.2086733" lon="13.1916683"><ele>330.0</ele><time>2026-04-12T13:08:38.433Z</time></trkpt><trkpt lat="43.2088417" lon="13.1918767"><ele>328.0</ele><time>2026-04-12T13:08:39.432Z</time></trkpt><trkpt lat="43.2090117" lon="13.192115"><ele>331.5</ele><time>2026-04-12T13:08:40.431Z</time></trkpt><trkpt lat="43.209185" lon="13.1923617"><ele>335.0</ele><time>2026-04-12T13:08:41.433Z</time></trkpt><trkpt lat="43.209355" lon="13.1925917"><ele>335.0</ele><time>2026-04-12T13:08:42.433Z</time></trkpt><trkpt lat="43.2095167" lon="13.19281"><ele>335.0</ele><time>2026-04-12T13:08:43.432Z</time></trkpt><trkpt lat="43.2096683" lon="13.1930133"><ele>335.0</ele><time>2026-04-12T13:08:44.431Z</time></trkpt><trkpt lat="43.2098117" lon="13.193205"><ele>336.33333333333337</ele><time>2026-04-12T13:08:45.43Z</time></trkpt><trkpt lat="43.2099517" lon="13.1933883"><ele>337.6666666666667</ele><time>2026-04-12T13:08:46.431Z</time></trkpt><trkpt lat="43.2100917" lon="13.1935717"><ele>339.0</ele><time>2026-04-12T13:08:47.429Z</time></trkpt><trkpt lat="43.2102283" lon="13.193755"><ele>339.0</ele><time>2026-04-12T13:08:48.43Z</time></trkpt><trkpt lat="43.2103633" lon="13.19394"><ele>339.0</ele><time>2026-04-12T13:08:49.429Z</time></trkpt><trkpt lat="43.2104967" lon="13.1941333"><ele>339.0</ele><time>2026-04-12T13:08:50.431Z</time></trkpt><trkpt lat="43.2106333" lon="13.1943267"><ele>338.3333333333333</ele><time>2026-04-12T13:08:51.432Z</time></trkpt><trkpt lat="43.210775" lon="13.1945183"><ele>337.66666666666663</ele><time>2026-04-12T13:08:52.434Z</time></trkpt><trkpt lat="43.2109183" lon="13.1947117"><ele>337.0</ele><time>2026-04-12T13:08:53.429Z</time></trkpt><trkpt lat="43.2110617" lon="13.1949017"><ele>333.66666666666663</ele><time>2026-04-12T13:08:54.429Z</time></trkpt><trkpt lat="43.211195" lon="13.1950833"><ele>330.3333333333333</ele><time>2026-04-12T13:08:55.432Z</time></trkpt><trkpt lat="43.2113217" lon="13.1952483"><ele>327.0</ele><time>2026-04-12T13:08:56.432Z</time></trkpt><trkpt lat="43.21144" lon="13.1953833"><ele>327.25</ele><time>2026-04-12T13:08:57.429Z</time></trkpt><trkpt lat="43.21156" lon="13.1954717"><ele>327.5</ele><time>2026-04-12T13:08:58.428Z</time></trkpt><trkpt lat="43.211685" lon="13.19549"><ele>327.75</ele><time>2026-04-12T13:08:59.432Z</time></trkpt><trkpt lat="43.2118083" lon="13.195445"><ele>328.0</ele><time>2026-04-12T13:09:00.427Z</time></trkpt><trkpt lat="43.2119367" lon="13.1953433"><ele>328.0</ele><time>2026-04-12T13:09:01.435Z</time></trkpt><trkpt lat="43.2120867" lon="13.1951933"><ele>328.0</ele><time>2026-04-12T13:09:02.434Z</time></trkpt><trkpt lat="43.2122433" lon="13.1950483"><ele>328.0</ele><time>2026-04-12T13:09:03.432Z</time></trkpt><trkpt lat="43.2123867" lon="13.1949067"><ele>326.3333333333333</ele><time>2026-04-12T13:09:04.43Z</time></trkpt><trkpt lat="43.2125133" lon="13.1947433"><ele>324.6666666666667</ele><time>2026-04-12T13:09:05.429Z</time></trkpt><trkpt lat="43.2126067" lon="13.194545"><ele>323.0</ele><time>2026-04-12T13:09:06.43Z</time></trkpt><trkpt lat="43.2126833" lon="13.1943017"><ele>323.0</ele><time>2026-04-12T13:09:07.427Z</time></trkpt><trkpt lat="43.212765" lon="13.1940217"><ele>323.0</ele><time>2026-04-12T13:09:08.432Z</time></trkpt><trkpt lat="43.21285" lon="13.1937517"><ele>323.0</ele><time>2026-04-12T13:09:09.432Z</time></trkpt><trkpt lat="43.21294" lon="13.19351"><ele>324.0</ele><time>2026-04-12T13:09:10.43Z</time></trkpt><trkpt lat="43.2130433" lon="13.193305"><ele>325.0</ele><time>2026-04-12T13:09:11.425Z</time></trkpt><trkpt lat="43.21315" lon="13.193125"><ele>326.0</ele><time>2026-04-12T13:09:12.43Z</time></trkpt><trkpt lat="43.2132467" lon="13.1929483"><ele>323.6666666666667</ele><time>2026-04-12T13:09:13.429Z</time></trkpt><trkpt lat="43.21332" lon="13.192755"><ele>321.3333333333333</ele><time>2026-04-12T13:09:14.432Z</time></trkpt><trkpt lat="43.2133733" lon="13.1925583"><ele>319.0</ele><time>2026-04-12T13:09:15.431Z</time></trkpt><trkpt lat="43.2134133" lon="13.1923633"><ele>320.5</ele><time>2026-04-12T13:09:16.424Z</time></trkpt><trkpt lat="43.2134467" lon="13.19218"><ele>322.0</ele><time>2026-04-12T13:09:17.431Z</time></trkpt><trkpt lat="43.213485" lon="13.1920217"><ele>323.5</ele><time>2026-04-12T13:09:18.429Z</time></trkpt><trkpt lat="43.2135433" lon="13.1918883"><ele>325.0</ele><time>2026-04-12T13:09:19.429Z</time></trkpt><trkpt lat="43.213615" lon="13.1918083"><ele>325.0</ele><time>2026-04-12T13:09:20.43Z</time></trkpt><trkpt lat="43.2136917" lon="13.1918033"><ele>325.0</ele><time>2026-04-12T13:09:21.428Z</time></trkpt><trkpt lat="43.2137633" lon="13.1918233"><ele>325.0</ele><time>2026-04-12T13:09:22.427Z</time></trkpt><trkpt lat="43.2138233" lon="13.19187"><ele>325.0</ele><time>2026-04-12T13:09:23.43Z</time></trkpt><trkpt lat="43.21384" lon="13.1919717"><ele>325.0</ele><time>2026-04-12T13:09:24.428Z</time></trkpt><trkpt lat="43.2138467" lon="13.19206"><ele>325.0</ele><time>2026-04-12T13:09:25.429Z</time></trkpt><trkpt lat="43.213855" lon="13.19215"><ele>325.0</ele><time>2026-04-12T13:09:26.435Z</time></trkpt><trkpt lat="43.213865" lon="13.1922633"><ele>324.75</ele><time>2026-04-12T13:09:27.431Z</time></trkpt><trkpt lat="43.213875" lon="13.1924133"><ele>324.5</ele><time>2026-04-12T13:09:28.43Z</time></trkpt><trkpt lat="43.2139033" lon="13.19262"><ele>324.25</ele><time>2026-04-12T13:09:29.43Z</time></trkpt><trkpt lat="43.2139467" lon="13.1928217"><ele>324.0</ele><time>2026-04-12T13:09:30.435Z</time></trkpt><trkpt lat="43.214005" lon="13.1930083"><ele>323.25</ele><time>2026-04-12T13:09:31.429Z</time></trkpt><trkpt lat="43.2140433" lon="13.1931833"><ele>322.5</ele><time>2026-04-12T13:09:32.451Z</time></trkpt><trkpt lat="43.21404" lon="13.1933533"><ele>321.75</ele><time>2026-04-12T13:09:33.429Z</time></trkpt><trkpt lat="43.21399" lon="13.1935567"><ele>321.0</ele><time>2026-04-12T13:09:34.429Z</time></trkpt><trkpt lat="43.2139433" lon="13.193785"><ele>317.3333333333333</ele><time>2026-04-12T13:09:35.432Z</time></trkpt><trkpt lat="43.2139167" lon="13.19404"><ele>313.66666666666663</ele><time>2026-04-12T13:09:36.432Z</time></trkpt><trkpt lat="43.2139183" lon="13.194335"><ele>310.0</ele><time>2026-04-12T13:09:37.43Z</time></trkpt><trkpt lat="43.213935" lon="13.194645"><ele>307.5</ele><time>2026-04-12T13:09:38.431Z</time></trkpt><trkpt lat="43.2139567" lon="13.194965"><ele>305.0</ele><time>2026-04-12T13:09:39.432Z</time></trkpt><trkpt lat="43.2139733" lon="13.1952717"><ele>309.33333333333337</ele><time>2026-04-12T13:09:40.434Z</time></trkpt><trkpt lat="43.2139917" lon="13.195565"><ele>313.6666666666667</ele><time>2026-04-12T13:09:41.43Z</time></trkpt><trkpt lat="43.2140067" lon="13.1958333"><ele>318.0</ele><time>2026-04-12T13:09:42.431Z</time></trkpt><trkpt lat="43.2140283" lon="13.1960667"><ele>318.0</ele><time>2026-04-12T13:09:43.426Z</time></trkpt><trkpt lat="43.2140733" lon="13.1962917"><ele>318.0</ele><time>2026-04-12T13:09:44.43Z</time></trkpt><trkpt lat="43.2141533" lon="13.19651"><ele>318.0</ele><time>2026-04-12T13:09:45.429Z</time></trkpt><trkpt lat="43.2142533" lon="13.1967383"><ele>317.6666666666667</ele><time>2026-04-12T13:09:46.427Z</time></trkpt><trkpt lat="43.214355" lon="13.196965"><ele>317.33333333333337</ele><time>2026-04-12T13:09:47.43Z</time></trkpt><trkpt lat="43.21445" lon="13.1971883"><ele>317.0</ele><time>2026-04-12T13:09:48.43Z</time></trkpt><trkpt lat="43.21456" lon="13.1974017"><ele>315.33333333333337</ele><time>2026-04-12T13:09:49.426Z</time></trkpt><trkpt lat="43.2146983" lon="13.197595"><ele>313.6666666666667</ele><time>2026-04-12T13:09:50.436Z</time></trkpt><trkpt lat="43.2148633" lon="13.1977633"><ele>312.0</ele><time>2026-04-12T13:09:51.431Z</time></trkpt><trkpt lat="43.2150467" lon="13.1979117"><ele>313.5</ele><time>2026-04-12T13:09:52.428Z</time></trkpt><trkpt lat="43.2152433" lon="13.1980683"><ele>315.0</ele><time>2026-04-12T13:09:53.431Z</time></trkpt><trkpt lat="43.215445" lon="13.1982233"><ele>315.0</ele><time>2026-04-12T13:09:54.429Z</time></trkpt><trkpt lat="43.21565" lon="13.198385"><ele>315.0</ele><time>2026-04-12T13:09:55.434Z</time></trkpt><trkpt lat="43.215865" lon="13.1985483"><ele>319.0</ele><time>2026-04-12T13:09:56.432Z</time></trkpt><trkpt lat="43.2160883" lon="13.19872"><ele>323.0</ele><time>2026-04-12T13:09:57.43Z</time></trkpt><trkpt lat="43.2163067" lon="13.1988983"><ele>323.0</ele><time>2026-04-12T13:09:58.43Z</time></trkpt><trkpt lat="43.216515" lon="13.1990717"><ele>323.0</ele><time>2026-04-12T13:09:59.43Z</time></trkpt><trkpt lat="43.2167117" lon="13.19923"><ele>323.0</ele><time>2026-04-12T13:10:00.437Z</time></trkpt><trkpt lat="43.2168917" lon="13.19937"><ele>323.0</ele><time>2026-04-12T13:10:01.43Z</time></trkpt><trkpt lat="43.217045" lon="13.19949"><ele>323.0</ele><time>2026-04-12T13:10:02.431Z</time></trkpt><trkpt lat="43.2171783" lon="13.1995817"><ele>323.0</ele><time>2026-04-12T13:10:03.425Z</time></trkpt><trkpt lat="43.2173117" lon="13.19963"><ele>323.0</ele><time>2026-04-12T13:10:04.428Z</time></trkpt><trkpt lat="43.2174517" lon="13.199625"><ele>323.0</ele><time>2026-04-12T13:10:05.43Z</time></trkpt><trkpt lat="43.21759" lon="13.19957"><ele>323.0</ele><time>2026-04-12T13:10:06.428Z</time></trkpt><trkpt lat="43.2177267" lon="13.1994983"><ele>322.6666666666667</ele><time>2026-04-12T13:10:07.429Z</time></trkpt><trkpt lat="43.2178867" lon="13.1994117"><ele>322.3333333333333</ele><time>2026-04-12T13:10:08.431Z</time></trkpt><trkpt lat="43.2180617" lon="13.1993233"><ele>322.0</ele><time>2026-04-12T13:10:09.43Z</time></trkpt><trkpt lat="43.218235" lon="13.19925"><ele>322.0</ele><time>2026-04-12T13:10:10.428Z</time></trkpt><trkpt lat="43.2184067" lon="13.1992083"><ele>322.0</ele><time>2026-04-12T13:10:11.429Z</time></trkpt><trkpt lat="43.218575" lon="13.1992067"><ele>322.0</ele><time>2026-04-12T13:10:12.434Z</time></trkpt><trkpt lat="43.2187433" lon="13.199255"><ele>322.0</ele><time>2026-04-12T13:10:13.43Z</time></trkpt><trkpt lat="43.2189233" lon="13.199355"><ele>322.0</ele><time>2026-04-12T13:10:14.43Z</time></trkpt><trkpt lat="43.2191183" lon="13.1994783"><ele>322.0</ele><time>2026-04-12T13:10:15.433Z</time></trkpt><trkpt lat="43.219325" lon="13.1996083"><ele>321.5</ele><time>2026-04-12T13:10:16.432Z</time></trkpt><trkpt lat="43.2195483" lon="13.1997267"><ele>321.0</ele><time>2026-04-12T13:10:17.432Z</time></trkpt><trkpt lat="43.2197867" lon="13.1998367"><ele>319.5</ele><time>2026-04-12T13:10:18.429Z</time></trkpt><trkpt lat="43.2200233" lon="13.19993"><ele>318.0</ele><time>2026-04-12T13:10:19.432Z</time></trkpt><trkpt lat="43.220245" lon="13.2000117"><ele>318.0</ele><time>2026-04-12T13:10:20.433Z</time></trkpt><trkpt lat="43.2204517" lon="13.2000833"><ele>318.0</ele><time>2026-04-12T13:10:21.432Z</time></trkpt><trkpt lat="43.2206367" lon="13.2001467"><ele>318.0</ele><time>2026-04-12T13:10:22.431Z</time></trkpt><trkpt lat="43.220805" lon="13.2001817"><ele>320.0</ele><time>2026-04-12T13:10:23.432Z</time></trkpt><trkpt lat="43.220955" lon="13.2001683"><ele>322.0</ele><time>2026-04-12T13:10:24.427Z</time></trkpt><trkpt lat="43.2211017" lon="13.2000883"><ele>324.0</ele><time>2026-04-12T13:10:25.426Z</time></trkpt><trkpt lat="43.2212567" lon="13.1999483"><ele>324.3333333333333</ele><time>2026-04-12T13:10:26.426Z</time></trkpt><trkpt lat="43.2214283" lon="13.199785"><ele>324.66666666666663</ele><time>2026-04-12T13:10:27.428Z</time></trkpt><trkpt lat="43.2216017" lon="13.19963"><ele>325.0</ele><time>2026-04-12T13:10:28.425Z</time></trkpt><trkpt lat="43.2217633" lon="13.1994667"><ele>325.0</ele><time>2026-04-12T13:10:29.43Z</time></trkpt><trkpt lat="43.2219133" lon="13.199285"><ele>325.0</ele><time>2026-04-12T13:10:30.43Z</time></trkpt><trkpt lat="43.2220533" lon="13.19907"><ele>325.0</ele><time>2026-04-12T13:10:31.429Z</time></trkpt><trkpt lat="43.2221967" lon="13.1988317"><ele>320.5</ele><time>2026-04-12T13:10:32.431Z</time></trkpt><trkpt lat="43.2223517" lon="13.1985667"><ele>316.0</ele><time>2026-04-12T13:10:33.43Z</time></trkpt><trkpt lat="43.2225117" lon="13.198295"><ele>320.0</ele><time>2026-04-12T13:10:34.432Z</time></trkpt><trkpt lat="43.2226667" lon="13.1980317"><ele>324.0</ele><time>2026-04-12T13:10:35.43Z</time></trkpt><trkpt lat="43.2228117" lon="13.197785"><ele>324.0</ele><time>2026-04-12T13:10:36.433Z</time></trkpt><trkpt lat="43.22295" lon="13.197555"><ele>324.0</ele><time>2026-04-12T13:10:37.431Z</time></trkpt><trkpt lat="43.2230783" lon="13.19734"><ele>324.0</ele><time>2026-04-12T13:10:38.432Z</time></trkpt><trkpt lat="43.2231933" lon="13.1971417"><ele>321.6666666666667</ele><time>2026-04-12T13:10:39.431Z</time></trkpt><trkpt lat="43.223285" lon="13.196955"><ele>319.33333333333337</ele><time>2026-04-12T13:10:40.43Z</time></trkpt><trkpt lat="43.2233483" lon="13.1967683"><ele>317.0</ele><time>2026-04-12T13:10:41.426Z</time></trkpt><trkpt lat="43.2233783" lon="13.1965683"><ele>314.0</ele><time>2026-04-12T13:10:42.43Z</time></trkpt><trkpt lat="43.22336" lon="13.1963683"><ele>311.0</ele><time>2026-04-12T13:10:43.432Z</time></trkpt><trkpt lat="43.2232917" lon="13.1961417"><ele>308.0</ele><time>2026-04-12T13:10:44.457Z</time></trkpt><trkpt lat="43.2231883" lon="13.19589"><ele>309.6666666666667</ele><time>2026-04-12T13:10:45.432Z</time></trkpt><trkpt lat="43.2230817" lon="13.1956317"><ele>311.3333333333333</ele><time>2026-04-12T13:10:46.432Z</time></trkpt><trkpt lat="43.2229833" lon="13.1953867"><ele>313.0</ele><time>2026-04-12T13:10:47.429Z</time></trkpt><trkpt lat="43.2228883" lon="13.1951617"><ele>313.0</ele><time>2026-04-12T13:10:48.431Z</time></trkpt><trkpt lat="43.222795" lon="13.1949583"><ele>313.0</ele><time>2026-04-12T13:10:49.432Z</time></trkpt><trkpt lat="43.2227117" lon="13.1947633"><ele>313.0</ele><time>2026-04-12T13:10:50.432Z</time></trkpt><trkpt lat="43.2226567" lon="13.1945567"><ele>311.0</ele><time>2026-04-12T13:10:51.43Z</time></trkpt><trkpt lat="43.2226183" lon="13.19434"><ele>309.0</ele><time>2026-04-12T13:10:52.431Z</time></trkpt><trkpt lat="43.2225767" lon="13.1941383"><ele>307.0</ele><time>2026-04-12T13:10:53.432Z</time></trkpt><trkpt lat="43.222515" lon="13.1939667"><ele>307.8</ele><time>2026-04-12T13:10:54.429Z</time></trkpt><trkpt lat="43.2224317" lon="13.1938417"><ele>308.6</ele><time>2026-04-12T13:10:55.429Z</time></trkpt><trkpt lat="43.2223467" lon="13.19375"><ele>309.40000000000003</ele><time>2026-04-12T13:10:56.43Z</time></trkpt><trkpt lat="43.2222833" lon="13.193665"><ele>310.2</ele><time>2026-04-12T13:10:57.43Z</time></trkpt><trkpt lat="43.2222367" lon="13.1935783"><ele>311.0</ele><time>2026-04-12T13:10:58.433Z</time></trkpt><trkpt lat="43.2222867" lon="13.1934583"><ele>306.6666666666667</ele><time>2026-04-12T13:11:00.432Z</time></trkpt><trkpt lat="43.2224483" lon="13.1935767"><ele>302.3333333333333</ele><time>2026-04-12T13:11:02.43Z</time></trkpt><trkpt lat="43.2225817" lon="13.1936833"><ele>298.0</ele><time>2026-04-12T13:11:03.432Z</time></trkpt><trkpt lat="43.22273" lon="13.1937733"><ele>298.0</ele><time>2026-04-12T13:11:04.431Z</time></trkpt><trkpt lat="43.2228883" lon="13.1938317"><ele>298.0</ele><time>2026-04-12T13:11:05.428Z</time></trkpt><trkpt lat="43.2230467" lon="13.1938667"><ele>298.0</ele><time>2026-04-12T13:11:06.429Z</time></trkpt><trkpt lat="43.223205" lon="13.193865"><ele>294.0</ele><time>2026-04-12T13:11:07.431Z</time></trkpt><trkpt lat="43.2233667" lon="13.1938217"><ele>290.0</ele><time>2026-04-12T13:11:08.431Z</time></trkpt><trkpt lat="43.22353" lon="13.1937317"><ele>286.0</ele><time>2026-04-12T13:11:09.429Z</time></trkpt><trkpt lat="43.2236967" lon="13.1936267"><ele>286.0</ele><time>2026-04-12T13:11:10.432Z</time></trkpt><trkpt lat="43.223855" lon="13.19352"><ele>286.0</ele><time>2026-04-12T13:11:11.429Z</time></trkpt><trkpt lat="43.2240083" lon="13.1934317"><ele>286.0</ele><time>2026-04-12T13:11:12.43Z</time></trkpt><trkpt lat="43.2241683" lon="13.193375"><ele>285.3333333333333</ele><time>2026-04-12T13:11:13.429Z</time></trkpt><trkpt lat="43.2243317" lon="13.1933567"><ele>284.6666666666667</ele><time>2026-04-12T13:11:14.429Z</time></trkpt><trkpt lat="43.2245067" lon="13.193375"><ele>284.0</ele><time>2026-04-12T13:11:15.43Z</time></trkpt><trkpt lat="43.2246833" lon="13.1934283"><ele>281.33333333333337</ele><time>2026-04-12T13:11:16.431Z</time></trkpt><trkpt lat="43.22486" lon="13.1935067"><ele>278.6666666666667</ele><time>2026-04-12T13:11:17.428Z</time></trkpt><trkpt lat="43.2250267" lon="13.1935917"><ele>276.0</ele><time>2026-04-12T13:11:18.429Z</time></trkpt><trkpt lat="43.2251767" lon="13.1936617"><ele>276.0</ele><time>2026-04-12T13:11:19.43Z</time></trkpt><trkpt lat="43.2253133" lon="13.1937183"><ele>276.0</ele><time>2026-04-12T13:11:20.431Z</time></trkpt><trkpt lat="43.2254417" lon="13.1937367"><ele>276.0</ele><time>2026-04-12T13:11:21.432Z</time></trkpt><trkpt lat="43.2255567" lon="13.19369"><ele>276.0</ele><time>2026-04-12T13:11:22.429Z</time></trkpt><trkpt lat="43.2256617" lon="13.19359"><ele>273.25</ele><time>2026-04-12T13:11:23.431Z</time></trkpt><trkpt lat="43.2257317" lon="13.193445"><ele>270.5</ele><time>2026-04-12T13:11:24.431Z</time></trkpt><trkpt lat="43.2257767" lon="13.1932783"><ele>267.75</ele><time>2026-04-12T13:11:25.43Z</time></trkpt><trkpt lat="43.22579" lon="13.1931067"><ele>265.0</ele><time>2026-04-12T13:11:26.429Z</time></trkpt><trkpt lat="43.2257683" lon="13.1929417"><ele>265.25</ele><time>2026-04-12T13:11:27.429Z</time></trkpt><trkpt lat="43.225715" lon="13.192795"><ele>265.5</ele><time>2026-04-12T13:11:28.429Z</time></trkpt><trkpt lat="43.22563" lon="13.1926883"><ele>265.75</ele><time>2026-04-12T13:11:29.43Z</time></trkpt><trkpt lat="43.2255033" lon="13.19263"><ele>266.0</ele><time>2026-04-12T13:11:30.429Z</time></trkpt><trkpt lat="43.225355" lon="13.1926017"><ele>266.0</ele><time>2026-04-12T13:11:31.429Z</time></trkpt><trkpt lat="43.2252" lon="13.1925867"><ele>266.0</ele><time>2026-04-12T13:11:32.43Z</time></trkpt><trkpt lat="43.2250533" lon="13.1925667"><ele>266.0</ele><time>2026-04-12T13:11:33.431Z</time></trkpt><trkpt lat="43.2249083" lon="13.19253"><ele>266.5</ele><time>2026-04-12T13:11:34.433Z</time></trkpt><trkpt lat="43.2247683" lon="13.192465"><ele>267.0</ele><time>2026-04-12T13:11:35.427Z</time></trkpt><trkpt lat="43.22465" lon="13.1923583"><ele>267.5</ele><time>2026-04-12T13:11:36.431Z</time></trkpt><trkpt lat="43.22455" lon="13.19221"><ele>268.0</ele><time>2026-04-12T13:11:37.43Z</time></trkpt><trkpt lat="43.2244967" lon="13.192025"><ele>268.0</ele><time>2026-04-12T13:11:38.429Z</time></trkpt><trkpt lat="43.2244783" lon="13.1918317"><ele>268.0</ele><time>2026-04-12T13:11:39.431Z</time></trkpt><trkpt lat="43.2244933" lon="13.1916483"><ele>268.0</ele><time>2026-04-12T13:11:40.434Z</time></trkpt><trkpt lat="43.22453" lon="13.1914933"><ele>268.0</ele><time>2026-04-12T13:11:41.428Z</time></trkpt><trkpt lat="43.2245967" lon="13.19135"><ele>268.75</ele><time>2026-04-12T13:11:42.432Z</time></trkpt><trkpt lat="43.224675" lon="13.191205"><ele>269.5</ele><time>2026-04-12T13:11:43.43Z</time></trkpt><trkpt lat="43.22476" lon="13.1910633"><ele>270.25</ele><time>2026-04-12T13:11:44.432Z</time></trkpt><trkpt lat="43.2248383" lon="13.19092"><ele>271.0</ele><time>2026-04-12T13:11:45.428Z</time></trkpt><trkpt lat="43.224915" lon="13.1907833"><ele>268.5</ele><time>2026-04-12T13:11:46.43Z</time></trkpt><trkpt lat="43.2249883" lon="13.1906483"><ele>266.0</ele><time>2026-04-12T13:11:47.428Z</time></trkpt><trkpt lat="43.225065" lon="13.1905133"><ele>263.5</ele><time>2026-04-12T13:11:48.429Z</time></trkpt><trkpt lat="43.22514" lon="13.190375"><ele>261.0</ele><time>2026-04-12T13:11:49.431Z</time></trkpt><trkpt lat="43.2252217" lon="13.19024"><ele>261.0</ele><time>2026-04-12T13:11:50.429Z</time></trkpt><trkpt lat="43.225305" lon="13.1901"><ele>261.0</ele><time>2026-04-12T13:11:51.43Z</time></trkpt><trkpt lat="43.2253833" lon="13.1899583"><ele>261.0</ele><time>2026-04-12T13:11:52.429Z</time></trkpt><trkpt lat="43.2254583" lon="13.189825"><ele>261.0</ele><time>2026-04-12T13:11:53.432Z</time></trkpt><trkpt lat="43.2255317" lon="13.1896933"><ele>261.40000000000003</ele><time>2026-04-12T13:11:54.427Z</time></trkpt><trkpt lat="43.2256017" lon="13.18957"><ele>261.8</ele><time>2026-04-12T13:11:55.433Z</time></trkpt><trkpt lat="43.225665" lon="13.1894533"><ele>262.20000000000005</ele><time>2026-04-12T13:11:56.431Z</time></trkpt><trkpt lat="43.2257233" lon="13.18934"><ele>262.6</ele><time>2026-04-12T13:11:57.439Z</time></trkpt><trkpt lat="43.22578" lon="13.1892283"><ele>263.0</ele><time>2026-04-12T13:11:58.433Z</time></trkpt><trkpt lat="43.2258383" lon="13.1891167"><ele>260.4</ele><time>2026-04-12T13:11:59.43Z</time></trkpt><trkpt lat="43.2259017" lon="13.1890067"><ele>257.8</ele><time>2026-04-12T13:12:00.429Z</time></trkpt><trkpt lat="43.22597" lon="13.1888883"><ele>255.2</ele><time>2026-04-12T13:12:01.429Z</time></trkpt><trkpt lat="43.226045" lon="13.1887683"><ele>252.6</ele><time>2026-04-12T13:12:02.432Z</time></trkpt><trkpt lat="43.2261167" lon="13.1886483"><ele>250.0</ele><time>2026-04-12T13:12:03.433Z</time></trkpt><trkpt lat="43.2261817" lon="13.1885283"><ele>250.0</ele><time>2026-04-12T13:12:04.43Z</time></trkpt><trkpt lat="43.22625" lon="13.1884217"><ele>250.0</ele><time>2026-04-12T13:12:05.427Z</time></trkpt><trkpt lat="43.2263133" lon="13.18831"><ele>250.0</ele><time>2026-04-12T13:12:06.43Z</time></trkpt><trkpt lat="43.2263733" lon="13.188195"><ele>250.0</ele><time>2026-04-12T13:12:07.434Z</time></trkpt><trkpt lat="43.2264383" lon="13.1880783"><ele>250.0</ele><time>2026-04-12T13:12:08.433Z</time></trkpt><trkpt lat="43.226505" lon="13.1879483"><ele>248.0</ele><time>2026-04-12T13:12:09.426Z</time></trkpt><trkpt lat="43.22656" lon="13.187815"><ele>246.0</ele><time>2026-04-12T13:12:10.43Z</time></trkpt><trkpt lat="43.2266283" lon="13.1876717"><ele>244.0</ele><time>2026-04-12T13:12:11.431Z</time></trkpt><trkpt lat="43.2266983" lon="13.187535"><ele>242.0</ele><time>2026-04-12T13:12:12.43Z</time></trkpt><trkpt lat="43.2267767" lon="13.1874067"><ele>242.0</ele><time>2026-04-12T13:12:13.427Z</time></trkpt><trkpt lat="43.2268533" lon="13.1872833"><ele>242.0</ele><time>2026-04-12T13:12:14.431Z</time></trkpt><trkpt lat="43.22693" lon="13.1871567"><ele>242.0</ele><time>2026-04-12T13:12:15.428Z</time></trkpt><trkpt lat="43.2270033" lon="13.1870367"><ele>242.0</ele><time>2026-04-12T13:12:16.428Z</time></trkpt><trkpt lat="43.2270783" lon="13.1869133"><ele>242.0</ele><time>2026-04-12T13:12:17.43Z</time></trkpt><trkpt lat="43.2271583" lon="13.1867883"><ele>242.0</ele><time>2026-04-12T13:12:18.433Z</time></trkpt><trkpt lat="43.2272367" lon="13.1866567"><ele>242.0</ele><time>2026-04-12T13:12:19.431Z</time></trkpt><trkpt lat="43.227315" lon="13.1865283"><ele>242.0</ele><time>2026-04-12T13:12:20.432Z</time></trkpt><trkpt lat="43.2273917" lon="13.1864017"><ele>241.6</ele><time>2026-04-12T13:12:21.433Z</time></trkpt><trkpt lat="43.2274633" lon="13.1862783"><ele>241.2</ele><time>2026-04-12T13:12:22.431Z</time></trkpt><trkpt lat="43.2275317" lon="13.1861617"><ele>240.8</ele><time>2026-04-12T13:12:23.432Z</time></trkpt><trkpt lat="43.227595" lon="13.1860533"><ele>240.4</ele><time>2026-04-12T13:12:24.433Z</time></trkpt><trkpt lat="43.2276533" lon="13.1859533"><ele>240.0</ele><time>2026-04-12T13:12:25.43Z</time></trkpt><trkpt lat="43.22771" lon="13.18586"><ele>240.0</ele><time>2026-04-12T13:12:26.434Z</time></trkpt><trkpt lat="43.2277533" lon="13.18577"><ele>240.0</ele><time>2026-04-12T13:12:27.433Z</time></trkpt><trkpt lat="43.2278017" lon="13.185685"><ele>240.0</ele><time>2026-04-12T13:12:28.431Z</time></trkpt><trkpt lat="43.2278483" lon="13.1855983"><ele>240.0</ele><time>2026-04-12T13:12:29.431Z</time></trkpt><trkpt lat="43.2278967" lon="13.1855083"><ele>240.0</ele><time>2026-04-12T13:12:30.428Z</time></trkpt><trkpt lat="43.2279467" lon="13.18542"><ele>240.0</ele><time>2026-04-12T13:12:31.428Z</time></trkpt><trkpt lat="43.228" lon="13.1853333"><ele>240.16666666666666</ele><time>2026-04-12T13:12:32.429Z</time></trkpt><trkpt lat="43.2280483" lon="13.1852517"><ele>240.33333333333331</ele><time>2026-04-12T13:12:33.43Z</time></trkpt><trkpt lat="43.2280983" lon="13.18518"><ele>240.5</ele><time>2026-04-12T13:12:34.43Z</time></trkpt><trkpt lat="43.2281533" lon="13.1851133"><ele>240.66666666666666</ele><time>2026-04-12T13:12:35.432Z</time></trkpt><trkpt lat="43.2282117" lon="13.1850583"><ele>240.83333333333331</ele><time>2026-04-12T13:12:36.427Z</time></trkpt><trkpt lat="43.22827" lon="13.1850167"><ele>241.0</ele><time>2026-04-12T13:12:37.428Z</time></trkpt><trkpt lat="43.22837" lon="13.1849133"><ele>240.66666666666666</ele><time>2026-04-12T13:12:39.426Z</time></trkpt><trkpt lat="43.2284067" lon="13.184835"><ele>240.33333333333331</ele><time>2026-04-12T13:12:40.432Z</time></trkpt><trkpt lat="43.2284333" lon="13.1847483"><ele>240.0</ele><time>2026-04-12T13:12:41.432Z</time></trkpt><trkpt lat="43.22846" lon="13.18465"><ele>239.66666666666669</ele><time>2026-04-12T13:12:42.429Z</time></trkpt><trkpt lat="43.22849" lon="13.18455"><ele>239.33333333333334</ele><time>2026-04-12T13:12:43.429Z</time></trkpt><trkpt lat="43.2285233" lon="13.1844483"><ele>239.0</ele><time>2026-04-12T13:12:44.428Z</time></trkpt><trkpt lat="43.2285633" lon="13.1843467"><ele>239.00000000000003</ele><time>2026-04-12T13:12:45.429Z</time></trkpt><trkpt lat="43.2286067" lon="13.1842533"><ele>239.0</ele><time>2026-04-12T13:12:46.428Z</time></trkpt><trkpt lat="43.228655" lon="13.1841617"><ele>239.0</ele><time>2026-04-12T13:12:47.434Z</time></trkpt><trkpt lat="43.2287017" lon="13.1840733"><ele>239.0</ele><time>2026-04-12T13:12:48.43Z</time></trkpt><trkpt lat="43.2287533" lon="13.183985"><ele>239.00000000000003</ele><time>2026-04-12T13:12:49.433Z</time></trkpt><trkpt lat="43.2288083" lon="13.1838917"><ele>239.0</ele><time>2026-04-12T13:12:50.432Z</time></trkpt><trkpt lat="43.2288667" lon="13.1838017"><ele>239.00000000000003</ele><time>2026-04-12T13:12:51.431Z</time></trkpt><trkpt lat="43.2289283" lon="13.1837183"><ele>239.0</ele><time>2026-04-12T13:12:52.43Z</time></trkpt><trkpt lat="43.22898" lon="13.1836283"><ele>239.0</ele><time>2026-04-12T13:12:53.43Z</time></trkpt><trkpt lat="43.2290217" lon="13.183545"><ele>239.0</ele><time>2026-04-12T13:12:54.442Z</time></trkpt><trkpt lat="43.22907" lon="13.18346"><ele>239.00000000000003</ele><time>2026-04-12T13:12:55.432Z</time></trkpt><trkpt lat="43.2291183" lon="13.183375"><ele>239.0</ele><time>2026-04-12T13:12:56.431Z</time></trkpt><trkpt lat="43.2291567" lon="13.1832867"><ele>239.00000000000003</ele><time>2026-04-12T13:12:57.432Z</time></trkpt><trkpt lat="43.2292017" lon="13.1832117"><ele>239.0</ele><time>2026-04-12T13:12:58.43Z</time></trkpt><trkpt lat="43.2292433" lon="13.1831383"><ele>239.0</ele><time>2026-04-12T13:12:59.431Z</time></trkpt><trkpt lat="43.2292883" lon="13.1830667"><ele>239.0</ele><time>2026-04-12T13:13:00.43Z</time></trkpt><trkpt lat="43.2293367" lon="13.183"><ele>239.00000000000003</ele><time>2026-04-12T13:13:01.43Z</time></trkpt><trkpt lat="43.2294067" lon="13.182895"><ele>239.0</ele><time>2026-04-12T13:13:03.43Z</time></trkpt><trkpt lat="43.2294883" lon="13.1827917"><ele>239.00000000000003</ele><time>2026-04-12T13:13:05.427Z</time></trkpt><trkpt lat="43.2295433" lon="13.1826783"><ele>239.0</ele><time>2026-04-12T13:13:07.431Z</time></trkpt><trkpt lat="43.22951" lon="13.1825483"><ele>239.0</ele><time>2026-04-12T13:13:09.427Z</time></trkpt><trkpt lat="43.2294833" lon="13.1824683"><ele>239.0</ele><time>2026-04-12T13:13:10.43Z</time></trkpt><trkpt lat="43.2294717" lon="13.1823783"><ele>239.00000000000003</ele><time>2026-04-12T13:13:11.428Z</time></trkpt><trkpt lat="43.2294633" lon="13.1822917"><ele>239.0</ele><time>2026-04-12T13:13:12.431Z</time></trkpt><trkpt lat="43.22947" lon="13.1822017"><ele>239.00000000000003</ele><time>2026-04-12T13:13:13.428Z</time></trkpt><trkpt lat="43.2294817" lon="13.1821033"><ele>239.0</ele><time>2026-04-12T13:13:14.431Z</time></trkpt><trkpt lat="43.2294917" lon="13.182005"><ele>239.00000000000003</ele><time>2026-04-12T13:13:15.429Z</time></trkpt><trkpt lat="43.2295" lon="13.18191"><ele>239.00000000000003</ele><time>2026-04-12T13:13:16.43Z</time></trkpt><trkpt lat="43.2295117" lon="13.1818083"><ele>239.0</ele><time>2026-04-12T13:13:17.43Z</time></trkpt><trkpt lat="43.229525" lon="13.1817"><ele>239.00000000000003</ele><time>2026-04-12T13:13:18.431Z</time></trkpt><trkpt lat="43.2295333" lon="13.181595"><ele>239.00000000000003</ele><time>2026-04-12T13:13:19.429Z</time></trkpt><trkpt lat="43.2295417" lon="13.1814883"><ele>239.14285714285717</ele><time>2026-04-12T13:13:20.432Z</time></trkpt><trkpt lat="43.22955" lon="13.1813867"><ele>239.28571428571428</ele><time>2026-04-12T13:13:21.43Z</time></trkpt><trkpt lat="43.229565" lon="13.1812883"><ele>239.42857142857144</ele><time>2026-04-12T13:13:22.432Z</time></trkpt><trkpt lat="43.2295883" lon="13.1811917"><ele>239.57142857142858</ele><time>2026-04-12T13:13:23.429Z</time></trkpt><trkpt lat="43.229615" lon="13.1810983"><ele>239.71428571428572</ele><time>2026-04-12T13:13:24.434Z</time></trkpt><trkpt lat="43.2296367" lon="13.18101"><ele>239.85714285714286</ele><time>2026-04-12T13:13:25.427Z</time></trkpt><trkpt lat="43.2296633" lon="13.18092"><ele>240.0</ele><time>2026-04-12T13:13:26.434Z</time></trkpt><trkpt lat="43.2296967" lon="13.1808317"><ele>240.0</ele><time>2026-04-12T13:13:27.431Z</time></trkpt><trkpt lat="43.229735" lon="13.1807433"><ele>240.0</ele><time>2026-04-12T13:13:28.43Z</time></trkpt><trkpt lat="43.22977" lon="13.1806483"><ele>240.0</ele><time>2026-04-12T13:13:29.43Z</time></trkpt><trkpt lat="43.2298033" lon="13.1805617"><ele>240.0</ele><time>2026-04-12T13:13:30.432Z</time></trkpt><trkpt lat="43.2298383" lon="13.1804717"><ele>240.0</ele><time>2026-04-12T13:13:31.43Z</time></trkpt><trkpt lat="43.2298717" lon="13.180385"><ele>240.0</ele><time>2026-04-12T13:13:32.429Z</time></trkpt><trkpt lat="43.229895" lon="13.1803033"><ele>240.0</ele><time>2026-04-12T13:13:33.429Z</time></trkpt><trkpt lat="43.229935" lon="13.1801867"><ele>239.16666666666666</ele><time>2026-04-12T13:13:35.431Z</time></trkpt><trkpt lat="43.22999" lon="13.1801167"><ele>238.33333333333331</ele><time>2026-04-12T13:13:37.427Z</time></trkpt><trkpt lat="43.2300717" lon="13.1801333"><ele>237.5</ele><time>2026-04-12T13:13:39.431Z</time></trkpt><trkpt lat="43.230195" lon="13.1801717"><ele>236.66666666666666</ele><time>2026-04-12T13:13:41.431Z</time></trkpt><trkpt lat="43.230265" lon="13.1801917"><ele>235.83333333333331</ele><time>2026-04-12T13:13:42.427Z</time></trkpt><trkpt lat="43.2303283" lon="13.180205"><ele>235.0</ele><time>2026-04-12T13:13:43.429Z</time></trkpt><trkpt lat="43.2304017" lon="13.18022"><ele>234.99999999999997</ele><time>2026-04-12T13:13:44.433Z</time></trkpt><trkpt lat="43.23048" lon="13.1802317"><ele>235.0</ele><time>2026-04-12T13:13:45.43Z</time></trkpt><trkpt lat="43.230565" lon="13.18025"><ele>235.0</ele><time>2026-04-12T13:13:46.431Z</time></trkpt><trkpt lat="43.2306433" lon="13.180255"><ele>235.0</ele><time>2026-04-12T13:13:47.434Z</time></trkpt><trkpt lat="43.23072" lon="13.1802617"><ele>234.99999999999997</ele><time>2026-04-12T13:13:48.428Z</time></trkpt><trkpt lat="43.2307967" lon="13.1802833"><ele>235.0</ele><time>2026-04-12T13:13:49.432Z</time></trkpt><trkpt lat="43.2308733" lon="13.1803"><ele>234.66666666666666</ele><time>2026-04-12T13:13:50.432Z</time></trkpt><trkpt lat="43.2309483" lon="13.1803133"><ele>234.33333333333331</ele><time>2026-04-12T13:13:51.43Z</time></trkpt><trkpt lat="43.23103" lon="13.18034"><ele>234.0</ele><time>2026-04-12T13:13:52.431Z</time></trkpt><trkpt lat="43.2311083" lon="13.18037"><ele>233.66666666666669</ele><time>2026-04-12T13:13:53.432Z</time></trkpt><trkpt lat="43.2311867" lon="13.1803917"><ele>233.33333333333334</ele><time>2026-04-12T13:13:54.431Z</time></trkpt><trkpt lat="43.2312617" lon="13.18041"><ele>233.0</ele><time>2026-04-12T13:13:55.428Z</time></trkpt><trkpt lat="43.23134" lon="13.18044"><ele>233.00000000000003</ele><time>2026-04-12T13:13:56.43Z</time></trkpt><trkpt lat="43.23141" lon="13.1804567"><ele>233.0</ele><time>2026-04-12T13:13:57.43Z</time></trkpt><trkpt lat="43.231475" lon="13.180475"><ele>233.0</ele><time>2026-04-12T13:13:58.432Z</time></trkpt><trkpt lat="43.23154" lon="13.1804883"><ele>233.0</ele><time>2026-04-12T13:13:59.431Z</time></trkpt><trkpt lat="43.231645" lon="13.1805033"><ele>233.00000000000003</ele><time>2026-04-12T13:14:01.431Z</time></trkpt><trkpt lat="43.2317167" lon="13.180495"><ele>233.0</ele><time>2026-04-12T13:14:03.43Z</time></trkpt><trkpt lat="43.231775" lon="13.1804183"><ele>232.66666666666669</ele><time>2026-04-12T13:14:05.427Z</time></trkpt><trkpt lat="43.2318383" lon="13.180255"><ele>232.33333333333334</ele><time>2026-04-12T13:14:07.425Z</time></trkpt><trkpt lat="43.2318733" lon="13.180165"><ele>232.0</ele><time>2026-04-12T13:14:08.43Z</time></trkpt><trkpt lat="43.2319133" lon="13.18007"><ele>231.66666666666669</ele><time>2026-04-12T13:14:09.429Z</time></trkpt><trkpt lat="43.2319383" lon="13.17997"><ele>231.33333333333334</ele><time>2026-04-12T13:14:10.43Z</time></trkpt><trkpt lat="43.2319417" lon="13.1798667"><ele>231.0</ele><time>2026-04-12T13:14:11.432Z</time></trkpt><trkpt lat="43.2319583" lon="13.17975"><ele>231.0</ele><time>2026-04-12T13:14:12.431Z</time></trkpt><trkpt lat="43.231965" lon="13.1796317"><ele>231.0</ele><time>2026-04-12T13:14:13.43Z</time></trkpt><trkpt lat="43.2319517" lon="13.17951"><ele>231.0</ele><time>2026-04-12T13:14:14.434Z</time></trkpt><trkpt lat="43.2319333" lon="13.1794017"><ele>231.0</ele><time>2026-04-12T13:14:15.429Z</time></trkpt><trkpt lat="43.231905" lon="13.1793"><ele>231.0</ele><time>2026-04-12T13:14:16.43Z</time></trkpt><trkpt lat="43.23188" lon="13.1792083"><ele>231.0</ele><time>2026-04-12T13:14:17.431Z</time></trkpt><trkpt lat="43.23184" lon="13.1791267"><ele>231.0</ele><time>2026-04-12T13:14:18.429Z</time></trkpt><trkpt lat="43.2317917" lon="13.1790467"><ele>231.0</ele><time>2026-04-12T13:14:19.432Z</time></trkpt><trkpt lat="43.2317417" lon="13.1789683"><ele>231.0</ele><time>2026-04-12T13:14:20.434Z</time></trkpt><trkpt lat="43.231685" lon="13.1788883"><ele>231.0</ele><time>2026-04-12T13:14:21.429Z</time></trkpt><trkpt lat="43.2316367" lon="13.178805"><ele>231.0</ele><time>2026-04-12T13:14:22.431Z</time></trkpt><trkpt lat="43.231585" lon="13.1787233"><ele>231.0</ele><time>2026-04-12T13:14:23.432Z</time></trkpt><trkpt lat="43.23153" lon="13.1786433"><ele>230.60000000000002</ele><time>2026-04-12T13:14:24.431Z</time></trkpt><trkpt lat="43.23147" lon="13.1785667"><ele>230.20000000000002</ele><time>2026-04-12T13:14:25.432Z</time></trkpt><trkpt lat="43.23142" lon="13.1784817"><ele>229.79999999999998</ele><time>2026-04-12T13:14:26.433Z</time></trkpt><trkpt lat="43.2313667" lon="13.1783983"><ele>229.39999999999998</ele><time>2026-04-12T13:14:27.431Z</time></trkpt><trkpt lat="43.2313117" lon="13.178325"><ele>229.0</ele><time>2026-04-12T13:14:28.427Z</time></trkpt><trkpt lat="43.2312067" lon="13.1782"><ele>228.66666666666666</ele><time>2026-04-12T13:14:30.428Z</time></trkpt><trkpt lat="43.2311433" lon="13.1781333"><ele>228.33333333333331</ele><time>2026-04-12T13:14:31.429Z</time></trkpt><trkpt lat="43.23107" lon="13.17807"><ele>228.0</ele><time>2026-04-12T13:14:32.431Z</time></trkpt><trkpt lat="43.2309967" lon="13.178025"><ele>227.66666666666669</ele><time>2026-04-12T13:14:33.433Z</time></trkpt><trkpt lat="43.2309183" lon="13.1779917"><ele>227.33333333333334</ele><time>2026-04-12T13:14:34.431Z</time></trkpt><trkpt lat="43.2308333" lon="13.1779767"><ele>227.0</ele><time>2026-04-12T13:14:35.429Z</time></trkpt><trkpt lat="43.230745" lon="13.177985"><ele>227.00000000000003</ele><time>2026-04-12T13:14:36.432Z</time></trkpt><trkpt lat="43.2306533" lon="13.17801"><ele>227.0</ele><time>2026-04-12T13:14:37.43Z</time></trkpt><trkpt lat="43.23057" lon="13.1780467"><ele>227.0</ele><time>2026-04-12T13:14:38.451Z</time></trkpt><trkpt lat="43.23049" lon="13.1780967"><ele>227.0</ele><time>2026-04-12T13:14:39.431Z</time></trkpt><trkpt lat="43.2304167" lon="13.1781467"><ele>227.00000000000003</ele><time>2026-04-12T13:14:40.43Z</time></trkpt><trkpt lat="43.23035" lon="13.17819"><ele>227.0</ele><time>2026-04-12T13:14:41.431Z</time></trkpt><trkpt lat="43.2302867" lon="13.1782183"><ele>227.2</ele><time>2026-04-12T13:14:42.429Z</time></trkpt><trkpt lat="43.230175" lon="13.1782317"><ele>227.39999999999998</ele><time>2026-04-12T13:14:44.428Z</time></trkpt><trkpt lat="43.2300733" lon="13.1782183"><ele>227.60000000000002</ele><time>2026-04-12T13:14:46.428Z</time></trkpt><trkpt lat="43.2299633" lon="13.1782"><ele>227.8</ele><time>2026-04-12T13:14:48.427Z</time></trkpt><trkpt lat="43.229865" lon="13.1781267"><ele>228.0</ele><time>2026-04-12T13:14:50.43Z</time></trkpt><trkpt lat="43.22981" lon="13.17798"><ele>229.33333333333334</ele><time>2026-04-12T13:14:52.428Z</time></trkpt><trkpt lat="43.2298" lon="13.1778733"><ele>230.66666666666669</ele><time>2026-04-12T13:14:53.431Z</time></trkpt><trkpt lat="43.2298033" lon="13.1777533"><ele>232.0</ele><time>2026-04-12T13:14:54.429Z</time></trkpt><trkpt lat="43.2298" lon="13.1776333"><ele>233.33333333333334</ele><time>2026-04-12T13:14:55.428Z</time></trkpt><trkpt lat="43.229795" lon="13.177505"><ele>234.66666666666669</ele><time>2026-04-12T13:14:56.432Z</time></trkpt><trkpt lat="43.2297917" lon="13.1773767"><ele>236.0</ele><time>2026-04-12T13:14:57.43Z</time></trkpt><trkpt lat="43.2297833" lon="13.1772483"><ele>236.50000000000003</ele><time>2026-04-12T13:14:58.433Z</time></trkpt><trkpt lat="43.22978" lon="13.1771183"><ele>237.0</ele><time>2026-04-12T13:14:59.432Z</time></trkpt><trkpt lat="43.2297683" lon="13.177"><ele>237.5</ele><time>2026-04-12T13:15:00.429Z</time></trkpt><trkpt lat="43.2297583" lon="13.176885"><ele>238.0</ele><time>2026-04-12T13:15:01.427Z</time></trkpt><trkpt lat="43.22975" lon="13.1767667"><ele>238.50000000000003</ele><time>2026-04-12T13:15:02.432Z</time></trkpt><trkpt lat="43.229735" lon="13.1766467"><ele>239.0</ele><time>2026-04-12T13:15:03.428Z</time></trkpt><trkpt lat="43.2297183" lon="13.1765217"><ele>239.33333333333334</ele><time>2026-04-12T13:15:04.433Z</time></trkpt><trkpt lat="43.2297067" lon="13.1763983"><ele>239.66666666666669</ele><time>2026-04-12T13:15:05.429Z</time></trkpt><trkpt lat="43.2296917" lon="13.17628"><ele>240.0</ele><time>2026-04-12T13:15:06.43Z</time></trkpt><trkpt lat="43.229675" lon="13.1761617"><ele>240.33333333333331</ele><time>2026-04-12T13:15:07.433Z</time></trkpt><trkpt lat="43.2296667" lon="13.176045"><ele>240.66666666666666</ele><time>2026-04-12T13:15:08.431Z</time></trkpt><trkpt lat="43.2296533" lon="13.1759333"><ele>241.0</ele><time>2026-04-12T13:15:09.429Z</time></trkpt><trkpt lat="43.2296433" lon="13.1758283"><ele>240.99999999999997</ele><time>2026-04-12T13:15:10.432Z</time></trkpt><trkpt lat="43.2296233" lon="13.1757267"><ele>241.0</ele><time>2026-04-12T13:15:11.43Z</time></trkpt><trkpt lat="43.2295917" lon="13.1756283"><ele>241.0</ele><time>2026-04-12T13:15:12.43Z</time></trkpt><trkpt lat="43.2295367" lon="13.1755283"><ele>241.0</ele><time>2026-04-12T13:15:13.428Z</time></trkpt><trkpt lat="43.2294867" lon="13.1754283"><ele>240.99999999999997</ele><time>2026-04-12T13:15:14.435Z</time></trkpt><trkpt lat="43.229435" lon="13.175325"><ele>241.0</ele><time>2026-04-12T13:15:15.429Z</time></trkpt><trkpt lat="43.2293833" lon="13.1752267"><ele>239.99999999999997</ele><time>2026-04-12T13:15:16.433Z</time></trkpt><trkpt lat="43.2293283" lon="13.1751233"><ele>239.0</ele><time>2026-04-12T13:15:17.436Z</time></trkpt><trkpt lat="43.2292667" lon="13.1750217"><ele>238.0</ele><time>2026-04-12T13:15:18.431Z</time></trkpt><trkpt lat="43.22921" lon="13.1749267"><ele>237.0</ele><time>2026-04-12T13:15:19.431Z</time></trkpt><trkpt lat="43.229155" lon="13.1748417"><ele>235.99999999999997</ele><time>2026-04-12T13:15:20.431Z</time></trkpt><trkpt lat="43.2291067" lon="13.174755"><ele>235.0</ele><time>2026-04-12T13:15:21.431Z</time></trkpt><trkpt lat="43.2290567" lon="13.1746667"><ele>234.16666666666666</ele><time>2026-04-12T13:15:22.43Z</time></trkpt><trkpt lat="43.2290033" lon="13.1745783"><ele>233.33333333333331</ele><time>2026-04-12T13:15:23.431Z</time></trkpt><trkpt lat="43.2289483" lon="13.17449"><ele>232.5</ele><time>2026-04-12T13:15:24.429Z</time></trkpt><trkpt lat="43.228895" lon="13.17439"><ele>231.66666666666669</ele><time>2026-04-12T13:15:25.432Z</time></trkpt><trkpt lat="43.2288483" lon="13.1742933"><ele>230.83333333333334</ele><time>2026-04-12T13:15:26.432Z</time></trkpt><trkpt lat="43.2288033" lon="13.1741933"><ele>230.0</ele><time>2026-04-12T13:15:27.43Z</time></trkpt><trkpt lat="43.228765" lon="13.17409"><ele>232.8</ele><time>2026-04-12T13:15:28.428Z</time></trkpt><trkpt lat="43.2287333" lon="13.1739833"><ele>235.6</ele><time>2026-04-12T13:15:29.431Z</time></trkpt><trkpt lat="43.228705" lon="13.17387"><ele>238.39999999999998</ele><time>2026-04-12T13:15:30.431Z</time></trkpt><trkpt lat="43.2286783" lon="13.1737517"><ele>241.2</ele><time>2026-04-12T13:15:31.43Z</time></trkpt><trkpt lat="43.228655" lon="13.1736283"><ele>244.0</ele><time>2026-04-12T13:15:32.431Z</time></trkpt><trkpt lat="43.2286333" lon="13.173495"><ele>244.0</ele><time>2026-04-12T13:15:33.429Z</time></trkpt><trkpt lat="43.228615" lon="13.17336"><ele>243.99999999999997</ele><time>2026-04-12T13:15:34.432Z</time></trkpt><trkpt lat="43.2285967" lon="13.1732233"><ele>243.99999999999997</ele><time>2026-04-12T13:15:35.43Z</time></trkpt><trkpt lat="43.22858" lon="13.1730883"><ele>244.0</ele><time>2026-04-12T13:15:36.431Z</time></trkpt><trkpt lat="43.2285633" lon="13.1729533"><ele>244.0</ele><time>2026-04-12T13:15:37.427Z</time></trkpt><trkpt lat="43.2285533" lon="13.172815"><ele>243.79999999999998</ele><time>2026-04-12T13:15:38.434Z</time></trkpt><trkpt lat="43.228535" lon="13.17268"><ele>243.59999999999997</ele><time>2026-04-12T13:15:39.428Z</time></trkpt><trkpt lat="43.2285167" lon="13.172545"><ele>243.4</ele><time>2026-04-12T13:15:40.429Z</time></trkpt><trkpt lat="43.2285033" lon="13.1724133"><ele>243.2</ele><time>2026-04-12T13:15:41.43Z</time></trkpt><trkpt lat="43.2284883" lon="13.172285"><ele>243.0</ele><time>2026-04-12T13:15:42.429Z</time></trkpt><trkpt lat="43.2284833" lon="13.1721583"><ele>243.2</ele><time>2026-04-12T13:15:43.43Z</time></trkpt><trkpt lat="43.2284883" lon="13.172035"><ele>243.4</ele><time>2026-04-12T13:15:44.432Z</time></trkpt><trkpt lat="43.228505" lon="13.171905"><ele>243.59999999999997</ele><time>2026-04-12T13:15:45.431Z</time></trkpt><trkpt lat="43.22853" lon="13.17177"><ele>243.79999999999998</ele><time>2026-04-12T13:15:46.428Z</time></trkpt><trkpt lat="43.228565" lon="13.171625"><ele>244.0</ele><time>2026-04-12T13:15:47.431Z</time></trkpt><trkpt lat="43.2285933" lon="13.1714867"><ele>244.0</ele><time>2026-04-12T13:15:48.428Z</time></trkpt><trkpt lat="43.22863" lon="13.1713383"><ele>244.0</ele><time>2026-04-12T13:15:49.43Z</time></trkpt><trkpt lat="43.2286667" lon="13.171195"><ele>244.0</ele><time>2026-04-12T13:15:50.433Z</time></trkpt><trkpt lat="43.228705" lon="13.17104"><ele>244.0</ele><time>2026-04-12T13:15:51.43Z</time></trkpt><trkpt lat="43.228745" lon="13.170885"><ele>244.0</ele><time>2026-04-12T13:15:52.429Z</time></trkpt><trkpt lat="43.2287783" lon="13.1707217"><ele>244.0</ele><time>2026-04-12T13:15:53.431Z</time></trkpt><trkpt lat="43.2288083" lon="13.17056"><ele>244.0</ele><time>2026-04-12T13:15:54.434Z</time></trkpt><trkpt lat="43.2288333" lon="13.1703933"><ele>244.0</ele><time>2026-04-12T13:15:55.431Z</time></trkpt><trkpt lat="43.2288617" lon="13.170225"><ele>244.0</ele><time>2026-04-12T13:15:56.431Z</time></trkpt><trkpt lat="43.2288833" lon="13.170055"><ele>244.0</ele><time>2026-04-12T13:15:57.431Z</time></trkpt><trkpt lat="43.2289017" lon="13.16988"><ele>244.0</ele><time>2026-04-12T13:15:58.43Z</time></trkpt><trkpt lat="43.2289183" lon="13.1697"><ele>244.0</ele><time>2026-04-12T13:15:59.429Z</time></trkpt><trkpt lat="43.22893" lon="13.16952"><ele>244.0</ele><time>2026-04-12T13:16:00.427Z</time></trkpt><trkpt lat="43.228935" lon="13.1693483"><ele>244.0</ele><time>2026-04-12T13:16:01.427Z</time></trkpt><trkpt lat="43.2289433" lon="13.1691767"><ele>244.0</ele><time>2026-04-12T13:16:02.43Z</time></trkpt><trkpt lat="43.2289583" lon="13.169015"><ele>244.0</ele><time>2026-04-12T13:16:03.434Z</time></trkpt><trkpt lat="43.2289717" lon="13.16886"><ele>242.0</ele><time>2026-04-12T13:16:04.43Z</time></trkpt><trkpt lat="43.2289883" lon="13.1687117"><ele>239.99999999999997</ele><time>2026-04-12T13:16:05.428Z</time></trkpt><trkpt lat="43.229005" lon="13.16858"><ele>237.99999999999997</ele><time>2026-04-12T13:16:06.43Z</time></trkpt><trkpt lat="43.2290183" lon="13.1684633"><ele>236.0</ele><time>2026-04-12T13:16:07.425Z</time></trkpt><trkpt lat="43.2290317" lon="13.1683533"><ele>234.0</ele><time>2026-04-12T13:16:08.43Z</time></trkpt><trkpt lat="43.2290483" lon="13.1682467"><ele>234.16666666666666</ele><time>2026-04-12T13:16:09.428Z</time></trkpt><trkpt lat="43.229075" lon="13.168145"><ele>234.33333333333331</ele><time>2026-04-12T13:16:10.428Z</time></trkpt><trkpt lat="43.229105" lon="13.1680467"><ele>234.5</ele><time>2026-04-12T13:16:11.425Z</time></trkpt><trkpt lat="43.2291567" lon="13.167955"><ele>234.66666666666666</ele><time>2026-04-12T13:16:12.424Z</time></trkpt><trkpt lat="43.2292183" lon="13.167865"><ele>234.83333333333331</ele><time>2026-04-12T13:16:13.429Z</time></trkpt><trkpt lat="43.229285" lon="13.1677717"><ele>235.0</ele><time>2026-04-12T13:16:14.424Z</time></trkpt><trkpt lat="43.229355" lon="13.16767"><ele>235.0</ele><time>2026-04-12T13:16:15.426Z</time></trkpt><trkpt lat="43.22943" lon="13.167565"><ele>235.0</ele><time>2026-04-12T13:16:16.428Z</time></trkpt><trkpt lat="43.2295017" lon="13.16745"><ele>235.0</ele><time>2026-04-12T13:16:17.426Z</time></trkpt><trkpt lat="43.22957" lon="13.167335"><ele>235.0</ele><time>2026-04-12T13:16:18.423Z</time></trkpt><trkpt lat="43.2296483" lon="13.167235"><ele>235.0</ele><time>2026-04-12T13:16:19.428Z</time></trkpt><trkpt lat="43.229725" lon="13.16713"><ele>234.6</ele><time>2026-04-12T13:16:20.428Z</time></trkpt><trkpt lat="43.2297883" lon="13.1670133"><ele>234.2</ele><time>2026-04-12T13:16:21.43Z</time></trkpt><trkpt lat="43.2298267" lon="13.1668917"><ele>233.8</ele><time>2026-04-12T13:16:22.428Z</time></trkpt><trkpt lat="43.229835" lon="13.16676"><ele>233.4</ele><time>2026-04-12T13:16:23.429Z</time></trkpt><trkpt lat="43.2298167" lon="13.1666417"><ele>233.0</ele><time>2026-04-12T13:16:24.43Z</time></trkpt><trkpt lat="43.2297833" lon="13.1665233"><ele>234.4</ele><time>2026-04-12T13:16:25.434Z</time></trkpt><trkpt lat="43.22975" lon="13.1663867"><ele>235.8</ele><time>2026-04-12T13:16:26.443Z</time></trkpt><trkpt lat="43.22972" lon="13.1662483"><ele>237.2</ele><time>2026-04-12T13:16:27.425Z</time></trkpt><trkpt lat="43.2296883" lon="13.1661167"><ele>238.6</ele><time>2026-04-12T13:16:28.43Z</time></trkpt><trkpt lat="43.2296583" lon="13.1659883"><ele>240.0</ele><time>2026-04-12T13:16:29.431Z</time></trkpt><trkpt lat="43.2296417" lon="13.1658617"><ele>240.0</ele><time>2026-04-12T13:16:30.432Z</time></trkpt><trkpt lat="43.2296383" lon="13.1657417"><ele>240.0</ele><time>2026-04-12T13:16:31.44Z</time></trkpt><trkpt lat="43.229655" lon="13.1656333"><ele>240.0</ele><time>2026-04-12T13:16:32.435Z</time></trkpt><trkpt lat="43.2296933" lon="13.165545"><ele>240.0</ele><time>2026-04-12T13:16:33.434Z</time></trkpt><trkpt lat="43.22976" lon="13.16552"><ele>240.0</ele><time>2026-04-12T13:16:34.427Z</time></trkpt><trkpt lat="43.2298333" lon="13.1655133"><ele>240.0</ele><time>2026-04-12T13:16:35.427Z</time></trkpt><trkpt lat="43.22992" lon="13.1655333"><ele>239.33333333333334</ele><time>2026-04-12T13:16:36.428Z</time></trkpt><trkpt lat="43.230005" lon="13.1655417"><ele>238.66666666666669</ele><time>2026-04-12T13:16:37.43Z</time></trkpt><trkpt lat="43.2300833" lon="13.16553"><ele>238.0</ele><time>2026-04-12T13:16:38.431Z</time></trkpt><trkpt lat="43.230155" lon="13.1654917"><ele>237.33333333333334</ele><time>2026-04-12T13:16:39.43Z</time></trkpt><trkpt lat="43.2302067" lon="13.1654333"><ele>236.66666666666669</ele><time>2026-04-12T13:16:40.431Z</time></trkpt><trkpt lat="43.230255" lon="13.165365"><ele>236.0</ele><time>2026-04-12T13:16:41.428Z</time></trkpt><trkpt lat="43.230335" lon="13.1652517"><ele>236.0</ele><time>2026-04-12T13:16:43.43Z</time></trkpt><trkpt lat="43.2303633" lon="13.16513"><ele>236.00000000000003</ele><time>2026-04-12T13:16:45.432Z</time></trkpt><trkpt lat="43.2303317" lon="13.1649617"><ele>236.00000000000003</ele><time>2026-04-12T13:16:47.427Z</time></trkpt><trkpt lat="43.2303083" lon="13.1648533"><ele>236.0</ele><time>2026-04-12T13:16:48.433Z</time></trkpt><trkpt lat="43.23029" lon="13.1647267"><ele>236.0</ele><time>2026-04-12T13:16:49.432Z</time></trkpt><trkpt lat="43.2302767" lon="13.1645917"><ele>236.8</ele><time>2026-04-12T13:16:50.432Z</time></trkpt><trkpt lat="43.2302633" lon="13.1644467"><ele>237.60000000000002</ele><time>2026-04-12T13:16:51.431Z</time></trkpt><trkpt lat="43.2302567" lon="13.1643067"><ele>238.4</ele><time>2026-04-12T13:16:52.432Z</time></trkpt><trkpt lat="43.2302467" lon="13.1641567"><ele>239.2</ele><time>2026-04-12T13:16:53.43Z</time></trkpt><trkpt lat="43.2302333" lon="13.164"><ele>240.0</ele><time>2026-04-12T13:16:54.431Z</time></trkpt><trkpt lat="43.23022" lon="13.16384"><ele>240.5</ele><time>2026-04-12T13:16:55.433Z</time></trkpt><trkpt lat="43.2301967" lon="13.16367"><ele>241.0</ele><time>2026-04-12T13:16:56.432Z</time></trkpt><trkpt lat="43.2301733" lon="13.1635017"><ele>241.5</ele><time>2026-04-12T13:16:57.432Z</time></trkpt><trkpt lat="43.230155" lon="13.1633267"><ele>242.0</ele><time>2026-04-12T13:16:58.43Z</time></trkpt><trkpt lat="43.23014" lon="13.1631467"><ele>242.0</ele><time>2026-04-12T13:16:59.43Z</time></trkpt><trkpt lat="43.23012" lon="13.16297"><ele>242.0</ele><time>2026-04-12T13:17:00.431Z</time></trkpt><trkpt lat="43.230105" lon="13.16279"><ele>242.0</ele><time>2026-04-12T13:17:01.429Z</time></trkpt><trkpt lat="43.230095" lon="13.16262"><ele>242.0</ele><time>2026-04-12T13:17:02.431Z</time></trkpt><trkpt lat="43.2300883" lon="13.1624617"><ele>242.2</ele><time>2026-04-12T13:17:03.431Z</time></trkpt><trkpt lat="43.2300917" lon="13.1623183"><ele>242.39999999999998</ele><time>2026-04-12T13:17:04.431Z</time></trkpt><trkpt lat="43.2300983" lon="13.1621833"><ele>242.60000000000002</ele><time>2026-04-12T13:17:05.429Z</time></trkpt><trkpt lat="43.230105" lon="13.1620483"><ele>242.8</ele><time>2026-04-12T13:17:06.43Z</time></trkpt><trkpt lat="43.230115" lon="13.161895"><ele>243.0</ele><time>2026-04-12T13:17:07.431Z</time></trkpt><trkpt lat="43.23012" lon="13.1617267"><ele>243.0</ele><time>2026-04-12T13:17:08.428Z</time></trkpt><trkpt lat="43.2301267" lon="13.1615583"><ele>243.0</ele><time>2026-04-12T13:17:09.429Z</time></trkpt><trkpt lat="43.2301283" lon="13.1613983"><ele>243.0</ele><time>2026-04-12T13:17:10.429Z</time></trkpt><trkpt lat="43.23013" lon="13.1612467"><ele>243.0</ele><time>2026-04-12T13:17:11.429Z</time></trkpt><trkpt lat="43.2301317" lon="13.1611017"><ele>242.75</ele><time>2026-04-12T13:17:12.432Z</time></trkpt><trkpt lat="43.23013" lon="13.1609533"><ele>242.5</ele><time>2026-04-12T13:17:13.43Z</time></trkpt><trkpt lat="43.2301283" lon="13.1608"><ele>242.25</ele><time>2026-04-12T13:17:14.431Z</time></trkpt><trkpt lat="43.2301333" lon="13.1606433"><ele>242.0</ele><time>2026-04-12T13:17:15.43Z</time></trkpt><trkpt lat="43.23014" lon="13.160485"><ele>241.75</ele><time>2026-04-12T13:17:16.427Z</time></trkpt><trkpt lat="43.2301483" lon="13.1603217"><ele>241.5</ele><time>2026-04-12T13:17:17.431Z</time></trkpt><trkpt lat="43.2301583" lon="13.160155"><ele>241.25</ele><time>2026-04-12T13:17:18.429Z</time></trkpt><trkpt lat="43.230165" lon="13.1599883"><ele>241.0</ele><time>2026-04-12T13:17:19.429Z</time></trkpt><trkpt lat="43.2301733" lon="13.159825"><ele>241.0</ele><time>2026-04-12T13:17:20.432Z</time></trkpt><trkpt lat="43.2301833" lon="13.1596683"><ele>241.00000000000003</ele><time>2026-04-12T13:17:21.43Z</time></trkpt><trkpt lat="43.23019" lon="13.1595167"><ele>241.00000000000003</ele><time>2026-04-12T13:17:22.429Z</time></trkpt><trkpt lat="43.2301967" lon="13.1593733"><ele>241.0</ele><time>2026-04-12T13:17:23.433Z</time></trkpt><trkpt lat="43.2302017" lon="13.1592367"><ele>241.0</ele><time>2026-04-12T13:17:24.432Z</time></trkpt><trkpt lat="43.2302067" lon="13.1590983"><ele>241.20000000000002</ele><time>2026-04-12T13:17:25.43Z</time></trkpt><trkpt lat="43.23021" lon="13.1589633"><ele>241.40000000000003</ele><time>2026-04-12T13:17:26.428Z</time></trkpt><trkpt lat="43.2302233" lon="13.15883"><ele>241.6</ele><time>2026-04-12T13:17:27.43Z</time></trkpt><trkpt lat="43.2302467" lon="13.158705"><ele>241.8</ele><time>2026-04-12T13:17:28.434Z</time></trkpt><trkpt lat="43.2302733" lon="13.1585817"><ele>242.0</ele><time>2026-04-12T13:17:29.431Z</time></trkpt><trkpt lat="43.2302933" lon="13.1584567"><ele>242.00000000000003</ele><time>2026-04-12T13:17:30.427Z</time></trkpt><trkpt lat="43.230315" lon="13.1583267"><ele>242.0</ele><time>2026-04-12T13:17:31.429Z</time></trkpt><trkpt lat="43.2303383" lon="13.15821"><ele>242.0</ele><time>2026-04-12T13:17:32.432Z</time></trkpt><trkpt lat="43.2303683" lon="13.1581067"><ele>242.0</ele><time>2026-04-12T13:17:33.431Z</time></trkpt><trkpt lat="43.2304517" lon="13.1580517"><ele>242.00000000000003</ele><time>2026-04-12T13:17:35.434Z</time></trkpt><trkpt lat="43.230525" lon="13.1580883"><ele>242.0</ele><time>2026-04-12T13:17:37.431Z</time></trkpt><trkpt lat="43.230575" lon="13.1581933"><ele>242.00000000000003</ele><time>2026-04-12T13:17:39.431Z</time></trkpt><trkpt lat="43.230605" lon="13.1582983"><ele>242.0</ele><time>2026-04-12T13:17:41.434Z</time></trkpt><trkpt lat="43.23063" lon="13.1584117"><ele>242.0</ele><time>2026-04-12T13:17:43.431Z</time></trkpt><trkpt lat="43.2306633" lon="13.1585617"><ele>242.0</ele><time>2026-04-12T13:17:45.428Z</time></trkpt><trkpt lat="43.230685" lon="13.15866"><ele>242.00000000000003</ele><time>2026-04-12T13:17:46.428Z</time></trkpt><trkpt lat="43.2307083" lon="13.1587633"><ele>242.0</ele><time>2026-04-12T13:17:47.432Z</time></trkpt><trkpt lat="43.2307367" lon="13.1588767"><ele>246.0</ele><time>2026-04-12T13:17:48.431Z</time></trkpt><trkpt lat="43.23076" lon="13.1590117"><ele>250.0</ele><time>2026-04-12T13:17:49.43Z</time></trkpt><trkpt lat="43.2307817" lon="13.1591583"><ele>254.0</ele><time>2026-04-12T13:17:50.432Z</time></trkpt><trkpt lat="43.2307967" lon="13.1593117"><ele>258.0</ele><time>2026-04-12T13:17:51.431Z</time></trkpt><trkpt lat="43.2308067" lon="13.15946"><ele>262.0</ele><time>2026-04-12T13:17:52.433Z</time></trkpt><trkpt lat="43.2308167" lon="13.1596033"><ele>262.0</ele><time>2026-04-12T13:17:53.43Z</time></trkpt><trkpt lat="43.2308233" lon="13.15974"><ele>262.0</ele><time>2026-04-12T13:17:54.428Z</time></trkpt><trkpt lat="43.23083" lon="13.15987"><ele>262.0</ele><time>2026-04-12T13:17:55.431Z</time></trkpt><trkpt lat="43.2308367" lon="13.15999"><ele>262.0</ele><time>2026-04-12T13:17:56.432Z</time></trkpt><trkpt lat="43.2308383" lon="13.1600967"><ele>262.0</ele><time>2026-04-12T13:17:57.434Z</time></trkpt><trkpt lat="43.230845" lon="13.1601833"><ele>262.0</ele><time>2026-04-12T13:17:58.433Z</time></trkpt><trkpt lat="43.23085" lon="13.160305"><ele>258.0</ele><time>2026-04-12T13:18:00.43Z</time></trkpt><trkpt lat="43.23089" lon="13.160435"><ele>258.0</ele><time>2026-04-12T13:18:08.429Z</time></trkpt><trkpt lat="43.23098" lon="13.160475"><ele>258.0</ele><time>2026-04-12T13:18:11.427Z</time></trkpt><trkpt lat="43.2310683" lon="13.1604983"><ele>258.0</ele><time>2026-04-12T13:18:14.431Z</time></trkpt><trkpt lat="43.2311317" lon="13.16055"><ele>258.0</ele><time>2026-04-12T13:18:17.428Z</time></trkpt></trkseg></trk></gpx>